<?xml version="1.0" encoding="UTF-8" standalone="no" ?>
<gpx xmlns="http://www.topografix.com/GPX/1/1" xmlns:xsi="http://www.w3.org/2001/XMLSchema-instance" xsi:schemaLocation="http://www.topografix.com/GPX/1/1 http://www.topografix.com/GPX/1/1/gpx.xsd" version="1.1" creator="VisuGPX - https://www.visugpx.com">
  <metadata>
    <name>Rocher canon/Barbizon/trace ONF</name>
    <desc><![CDATA[36 km depart rocher canon. passage par barbizon, hippodrome puis parcours ONF.]]></desc>
  </metadata>
  <trk>
    <name><![CDATA[bleau36]]></name>
    <trkseg>
      <trkpt lat="48.46327" lon="2.66549">
        <ele>93.1</ele>
        <time>2018-11-18T08:13:25Z</time>
      </trkpt>
      <trkpt lat="48.46327" lon="2.66549">
        <ele>93.1</ele>
        <time>2018-11-18T08:13:26Z</time>
      </trkpt>
      <trkpt lat="48.46327" lon="2.66549">
        <ele>93.1</ele>
        <time>2018-11-18T08:13:27Z</time>
      </trkpt>
      <trkpt lat="48.46327" lon="2.66548">
        <ele>93.2</ele>
        <time>2018-11-18T08:14:35Z</time>
      </trkpt>
      <trkpt lat="48.46327" lon="2.66546">
        <ele>93.3</ele>
        <time>2018-11-18T08:14:36Z</time>
      </trkpt>
      <trkpt lat="48.46327" lon="2.66545">
        <ele>93.3</ele>
        <time>2018-11-18T08:14:37Z</time>
      </trkpt>
      <trkpt lat="48.46328" lon="2.66543">
        <ele>93.4</ele>
        <time>2018-11-18T08:14:38Z</time>
      </trkpt>
      <trkpt lat="48.46329" lon="2.66542">
        <ele>93.5</ele>
        <time>2018-11-18T08:14:39Z</time>
      </trkpt>
      <trkpt lat="48.46331" lon="2.66542">
        <ele>93.6</ele>
        <time>2018-11-18T08:14:40Z</time>
      </trkpt>
      <trkpt lat="48.46333" lon="2.66542">
        <ele>93.7</ele>
        <time>2018-11-18T08:14:41Z</time>
      </trkpt>
      <trkpt lat="48.46334" lon="2.66541">
        <ele>93.8</ele>
        <time>2018-11-18T08:14:42Z</time>
      </trkpt>
      <trkpt lat="48.46337" lon="2.6654">
        <ele>94</ele>
        <time>2018-11-18T08:14:43Z</time>
      </trkpt>
      <trkpt lat="48.46339" lon="2.66539">
        <ele>94.1</ele>
        <time>2018-11-18T08:14:44Z</time>
      </trkpt>
      <trkpt lat="48.46341" lon="2.66538">
        <ele>94.3</ele>
        <time>2018-11-18T08:14:45Z</time>
      </trkpt>
      <trkpt lat="48.46342" lon="2.66537">
        <ele>94.4</ele>
        <time>2018-11-18T08:14:46Z</time>
      </trkpt>
      <trkpt lat="48.46344" lon="2.66536">
        <ele>94.5</ele>
        <time>2018-11-18T08:14:47Z</time>
      </trkpt>
      <trkpt lat="48.46346" lon="2.66535">
        <ele>94.6</ele>
        <time>2018-11-18T08:14:48Z</time>
      </trkpt>
      <trkpt lat="48.46348" lon="2.66533">
        <ele>94.7</ele>
        <time>2018-11-18T08:14:49Z</time>
      </trkpt>
      <trkpt lat="48.46349" lon="2.66532">
        <ele>94.9</ele>
        <time>2018-11-18T08:14:50Z</time>
      </trkpt>
      <trkpt lat="48.46351" lon="2.6653">
        <ele>95</ele>
        <time>2018-11-18T08:14:51Z</time>
      </trkpt>
      <trkpt lat="48.46354" lon="2.66529">
        <ele>95.1</ele>
        <time>2018-11-18T08:14:52Z</time>
      </trkpt>
      <trkpt lat="48.46356" lon="2.66528">
        <ele>95.3</ele>
        <time>2018-11-18T08:14:53Z</time>
      </trkpt>
      <trkpt lat="48.46358" lon="2.66526">
        <ele>95.4</ele>
        <time>2018-11-18T08:14:54Z</time>
      </trkpt>
      <trkpt lat="48.46361" lon="2.66525">
        <ele>95.6</ele>
        <time>2018-11-18T08:14:55Z</time>
      </trkpt>
      <trkpt lat="48.46363" lon="2.66524">
        <ele>95.7</ele>
        <time>2018-11-18T08:14:56Z</time>
      </trkpt>
      <trkpt lat="48.46365" lon="2.66523">
        <ele>95.8</ele>
        <time>2018-11-18T08:14:57Z</time>
      </trkpt>
      <trkpt lat="48.46367" lon="2.66522">
        <ele>96</ele>
        <time>2018-11-18T08:14:58Z</time>
      </trkpt>
      <trkpt lat="48.4637" lon="2.6652">
        <ele>96.1</ele>
        <time>2018-11-18T08:14:59Z</time>
      </trkpt>
      <trkpt lat="48.46372" lon="2.66519">
        <ele>96.3</ele>
        <time>2018-11-18T08:15:00Z</time>
      </trkpt>
      <trkpt lat="48.46375" lon="2.66518">
        <ele>96.4</ele>
        <time>2018-11-18T08:15:01Z</time>
      </trkpt>
      <trkpt lat="48.46378" lon="2.66516">
        <ele>96.6</ele>
        <time>2018-11-18T08:15:02Z</time>
      </trkpt>
      <trkpt lat="48.4638" lon="2.66515">
        <ele>96.7</ele>
        <time>2018-11-18T08:15:03Z</time>
      </trkpt>
      <trkpt lat="48.46382" lon="2.66514">
        <ele>96.8</ele>
        <time>2018-11-18T08:15:04Z</time>
      </trkpt>
      <trkpt lat="48.46385" lon="2.66512">
        <ele>97</ele>
        <time>2018-11-18T08:15:05Z</time>
      </trkpt>
      <trkpt lat="48.46388" lon="2.66509">
        <ele>97.1</ele>
        <time>2018-11-18T08:15:06Z</time>
      </trkpt>
      <trkpt lat="48.46392" lon="2.66507">
        <ele>97.3</ele>
        <time>2018-11-18T08:15:07Z</time>
      </trkpt>
      <trkpt lat="48.46395" lon="2.66505">
        <ele>97.5</ele>
        <time>2018-11-18T08:15:08Z</time>
      </trkpt>
      <trkpt lat="48.46399" lon="2.66502">
        <ele>97.6</ele>
        <time>2018-11-18T08:15:09Z</time>
      </trkpt>
      <trkpt lat="48.46402" lon="2.66498">
        <ele>97.8</ele>
        <time>2018-11-18T08:15:10Z</time>
      </trkpt>
      <trkpt lat="48.46404" lon="2.66493">
        <ele>98</ele>
        <time>2018-11-18T08:15:11Z</time>
      </trkpt>
      <trkpt lat="48.46406" lon="2.66489">
        <ele>98.3</ele>
        <time>2018-11-18T08:15:12Z</time>
      </trkpt>
      <trkpt lat="48.46406" lon="2.66485">
        <ele>98.3</ele>
        <time>2018-11-18T08:15:13Z</time>
      </trkpt>
      <trkpt lat="48.46407" lon="2.66482">
        <ele>98.3</ele>
        <time>2018-11-18T08:15:14Z</time>
      </trkpt>
      <trkpt lat="48.46407" lon="2.66479">
        <ele>98.3</ele>
        <time>2018-11-18T08:15:15Z</time>
      </trkpt>
      <trkpt lat="48.46407" lon="2.66474">
        <ele>98.3</ele>
        <time>2018-11-18T08:15:16Z</time>
      </trkpt>
      <trkpt lat="48.46408" lon="2.6647">
        <ele>98.3</ele>
        <time>2018-11-18T08:15:17Z</time>
      </trkpt>
      <trkpt lat="48.46409" lon="2.66465">
        <ele>98.3</ele>
        <time>2018-11-18T08:15:18Z</time>
      </trkpt>
      <trkpt lat="48.46409" lon="2.6646">
        <ele>98.4</ele>
        <time>2018-11-18T08:15:19Z</time>
      </trkpt>
      <trkpt lat="48.4641" lon="2.66455">
        <ele>98.4</ele>
        <time>2018-11-18T08:15:20Z</time>
      </trkpt>
      <trkpt lat="48.46411" lon="2.66451">
        <ele>98.4</ele>
        <time>2018-11-18T08:15:21Z</time>
      </trkpt>
      <trkpt lat="48.46412" lon="2.66447">
        <ele>98.4</ele>
        <time>2018-11-18T08:15:22Z</time>
      </trkpt>
      <trkpt lat="48.46413" lon="2.66441">
        <ele>98.4</ele>
        <time>2018-11-18T08:15:23Z</time>
      </trkpt>
      <trkpt lat="48.46413" lon="2.66436">
        <ele>98.4</ele>
        <time>2018-11-18T08:15:24Z</time>
      </trkpt>
      <trkpt lat="48.46414" lon="2.66431">
        <ele>98.4</ele>
        <time>2018-11-18T08:15:25Z</time>
      </trkpt>
      <trkpt lat="48.46415" lon="2.66426">
        <ele>98.5</ele>
        <time>2018-11-18T08:15:26Z</time>
      </trkpt>
      <trkpt lat="48.46415" lon="2.6642">
        <ele>98.5</ele>
        <time>2018-11-18T08:15:27Z</time>
      </trkpt>
      <trkpt lat="48.46416" lon="2.66415">
        <ele>98.5</ele>
        <time>2018-11-18T08:15:28Z</time>
      </trkpt>
      <trkpt lat="48.46416" lon="2.66408">
        <ele>98.5</ele>
        <time>2018-11-18T08:15:29Z</time>
      </trkpt>
      <trkpt lat="48.46417" lon="2.66403">
        <ele>98.5</ele>
        <time>2018-11-18T08:15:30Z</time>
      </trkpt>
      <trkpt lat="48.46417" lon="2.66397">
        <ele>98.5</ele>
        <time>2018-11-18T08:15:31Z</time>
      </trkpt>
      <trkpt lat="48.46418" lon="2.66391">
        <ele>98.6</ele>
        <time>2018-11-18T08:15:32Z</time>
      </trkpt>
      <trkpt lat="48.46418" lon="2.66385">
        <ele>98.6</ele>
        <time>2018-11-18T08:15:33Z</time>
      </trkpt>
      <trkpt lat="48.46419" lon="2.66379">
        <ele>98.6</ele>
        <time>2018-11-18T08:15:34Z</time>
      </trkpt>
      <trkpt lat="48.46419" lon="2.66373">
        <ele>98.6</ele>
        <time>2018-11-18T08:15:35Z</time>
      </trkpt>
      <trkpt lat="48.4642" lon="2.66366">
        <ele>98.6</ele>
        <time>2018-11-18T08:15:36Z</time>
      </trkpt>
      <trkpt lat="48.4642" lon="2.6636">
        <ele>98.7</ele>
        <time>2018-11-18T08:15:37Z</time>
      </trkpt>
      <trkpt lat="48.46421" lon="2.66353">
        <ele>98.7</ele>
        <time>2018-11-18T08:15:38Z</time>
      </trkpt>
      <trkpt lat="48.46421" lon="2.66347">
        <ele>98.7</ele>
        <time>2018-11-18T08:15:39Z</time>
      </trkpt>
      <trkpt lat="48.46422" lon="2.6634">
        <ele>98.7</ele>
        <time>2018-11-18T08:15:40Z</time>
      </trkpt>
      <trkpt lat="48.46422" lon="2.66334">
        <ele>98.7</ele>
        <time>2018-11-18T08:15:41Z</time>
      </trkpt>
      <trkpt lat="48.46423" lon="2.66328">
        <ele>98.8</ele>
        <time>2018-11-18T08:15:42Z</time>
      </trkpt>
      <trkpt lat="48.46423" lon="2.66322">
        <ele>98.8</ele>
        <time>2018-11-18T08:15:43Z</time>
      </trkpt>
      <trkpt lat="48.46423" lon="2.66316">
        <ele>98.8</ele>
        <time>2018-11-18T08:15:44Z</time>
      </trkpt>
      <trkpt lat="48.46423" lon="2.6631">
        <ele>98.8</ele>
        <time>2018-11-18T08:15:45Z</time>
      </trkpt>
      <trkpt lat="48.46424" lon="2.66304">
        <ele>98.8</ele>
        <time>2018-11-18T08:15:46Z</time>
      </trkpt>
      <trkpt lat="48.46424" lon="2.66297">
        <ele>98.9</ele>
        <time>2018-11-18T08:15:47Z</time>
      </trkpt>
      <trkpt lat="48.46425" lon="2.66291">
        <ele>98.9</ele>
        <time>2018-11-18T08:15:48Z</time>
      </trkpt>
      <trkpt lat="48.46425" lon="2.66285">
        <ele>98.9</ele>
        <time>2018-11-18T08:15:49Z</time>
      </trkpt>
      <trkpt lat="48.46425" lon="2.66278">
        <ele>98.9</ele>
        <time>2018-11-18T08:15:50Z</time>
      </trkpt>
      <trkpt lat="48.46426" lon="2.66271">
        <ele>98.9</ele>
        <time>2018-11-18T08:15:51Z</time>
      </trkpt>
      <trkpt lat="48.46426" lon="2.66265">
        <ele>99</ele>
        <time>2018-11-18T08:15:52Z</time>
      </trkpt>
      <trkpt lat="48.46426" lon="2.66258">
        <ele>99</ele>
        <time>2018-11-18T08:15:53Z</time>
      </trkpt>
      <trkpt lat="48.46426" lon="2.66252">
        <ele>99</ele>
        <time>2018-11-18T08:15:54Z</time>
      </trkpt>
      <trkpt lat="48.46427" lon="2.66245">
        <ele>99</ele>
        <time>2018-11-18T08:15:55Z</time>
      </trkpt>
      <trkpt lat="48.46427" lon="2.66239">
        <ele>99</ele>
        <time>2018-11-18T08:15:56Z</time>
      </trkpt>
      <trkpt lat="48.46428" lon="2.66233">
        <ele>99</ele>
        <time>2018-11-18T08:15:57Z</time>
      </trkpt>
      <trkpt lat="48.46428" lon="2.66227">
        <ele>99.1</ele>
        <time>2018-11-18T08:15:58Z</time>
      </trkpt>
      <trkpt lat="48.46428" lon="2.66222">
        <ele>99.1</ele>
        <time>2018-11-18T08:15:59Z</time>
      </trkpt>
      <trkpt lat="48.46429" lon="2.66217">
        <ele>99.1</ele>
        <time>2018-11-18T08:16:00Z</time>
      </trkpt>
      <trkpt lat="48.46429" lon="2.66212">
        <ele>99.1</ele>
        <time>2018-11-18T08:16:01Z</time>
      </trkpt>
      <trkpt lat="48.46429" lon="2.66207">
        <ele>99.1</ele>
        <time>2018-11-18T08:16:02Z</time>
      </trkpt>
      <trkpt lat="48.46429" lon="2.66201">
        <ele>99.1</ele>
        <time>2018-11-18T08:16:03Z</time>
      </trkpt>
      <trkpt lat="48.4643" lon="2.66196">
        <ele>99.2</ele>
        <time>2018-11-18T08:16:04Z</time>
      </trkpt>
      <trkpt lat="48.46431" lon="2.6619">
        <ele>99.2</ele>
        <time>2018-11-18T08:16:05Z</time>
      </trkpt>
      <trkpt lat="48.46431" lon="2.66184">
        <ele>99.2</ele>
        <time>2018-11-18T08:16:06Z</time>
      </trkpt>
      <trkpt lat="48.46432" lon="2.66178">
        <ele>99.2</ele>
        <time>2018-11-18T08:16:07Z</time>
      </trkpt>
      <trkpt lat="48.46433" lon="2.66171">
        <ele>99.2</ele>
        <time>2018-11-18T08:16:08Z</time>
      </trkpt>
      <trkpt lat="48.46433" lon="2.66164">
        <ele>99.2</ele>
        <time>2018-11-18T08:16:09Z</time>
      </trkpt>
      <trkpt lat="48.46434" lon="2.66158">
        <ele>99.3</ele>
        <time>2018-11-18T08:16:10Z</time>
      </trkpt>
      <trkpt lat="48.46434" lon="2.66152">
        <ele>99.3</ele>
        <time>2018-11-18T08:16:11Z</time>
      </trkpt>
      <trkpt lat="48.46434" lon="2.66146">
        <ele>99.3</ele>
        <time>2018-11-18T08:16:12Z</time>
      </trkpt>
      <trkpt lat="48.46434" lon="2.6614">
        <ele>99.3</ele>
        <time>2018-11-18T08:16:13Z</time>
      </trkpt>
      <trkpt lat="48.46434" lon="2.66135">
        <ele>99.3</ele>
        <time>2018-11-18T08:16:14Z</time>
      </trkpt>
      <trkpt lat="48.46435" lon="2.66129">
        <ele>99.4</ele>
        <time>2018-11-18T08:16:15Z</time>
      </trkpt>
      <trkpt lat="48.46435" lon="2.66123">
        <ele>99.4</ele>
        <time>2018-11-18T08:16:16Z</time>
      </trkpt>
      <trkpt lat="48.46435" lon="2.66117">
        <ele>99.4</ele>
        <time>2018-11-18T08:16:17Z</time>
      </trkpt>
      <trkpt lat="48.46436" lon="2.66111">
        <ele>99.4</ele>
        <time>2018-11-18T08:16:18Z</time>
      </trkpt>
      <trkpt lat="48.46436" lon="2.66105">
        <ele>99.4</ele>
        <time>2018-11-18T08:16:19Z</time>
      </trkpt>
      <trkpt lat="48.46436" lon="2.66099">
        <ele>99.4</ele>
        <time>2018-11-18T08:16:20Z</time>
      </trkpt>
      <trkpt lat="48.46436" lon="2.66093">
        <ele>99.5</ele>
        <time>2018-11-18T08:16:21Z</time>
      </trkpt>
      <trkpt lat="48.46437" lon="2.66086">
        <ele>99.5</ele>
        <time>2018-11-18T08:16:22Z</time>
      </trkpt>
      <trkpt lat="48.46437" lon="2.66081">
        <ele>99.5</ele>
        <time>2018-11-18T08:16:23Z</time>
      </trkpt>
      <trkpt lat="48.46438" lon="2.66075">
        <ele>99.5</ele>
        <time>2018-11-18T08:16:24Z</time>
      </trkpt>
      <trkpt lat="48.46438" lon="2.6607">
        <ele>99.6</ele>
        <time>2018-11-18T08:16:25Z</time>
      </trkpt>
      <trkpt lat="48.46439" lon="2.66065">
        <ele>99.6</ele>
        <time>2018-11-18T08:16:26Z</time>
      </trkpt>
      <trkpt lat="48.46439" lon="2.6606">
        <ele>99.6</ele>
        <time>2018-11-18T08:16:27Z</time>
      </trkpt>
      <trkpt lat="48.46439" lon="2.66055">
        <ele>99.6</ele>
        <time>2018-11-18T08:16:28Z</time>
      </trkpt>
      <trkpt lat="48.46439" lon="2.6604">
        <ele>99.6</ele>
        <time>2018-11-18T08:18:45Z</time>
      </trkpt>
      <trkpt lat="48.46437" lon="2.66037">
        <ele>99.6</ele>
        <time>2018-11-18T08:18:46Z</time>
      </trkpt>
      <trkpt lat="48.46435" lon="2.66034">
        <ele>99.7</ele>
        <time>2018-11-18T08:18:47Z</time>
      </trkpt>
      <trkpt lat="48.46433" lon="2.66031">
        <ele>99.7</ele>
        <time>2018-11-18T08:18:48Z</time>
      </trkpt>
      <trkpt lat="48.46431" lon="2.66028">
        <ele>99.8</ele>
        <time>2018-11-18T08:18:49Z</time>
      </trkpt>
      <trkpt lat="48.46429" lon="2.66025">
        <ele>99.8</ele>
        <time>2018-11-18T08:18:50Z</time>
      </trkpt>
      <trkpt lat="48.46428" lon="2.66022">
        <ele>99.8</ele>
        <time>2018-11-18T08:18:51Z</time>
      </trkpt>
      <trkpt lat="48.46426" lon="2.66019">
        <ele>99.9</ele>
        <time>2018-11-18T08:18:52Z</time>
      </trkpt>
      <trkpt lat="48.46424" lon="2.66016">
        <ele>99.9</ele>
        <time>2018-11-18T08:18:53Z</time>
      </trkpt>
      <trkpt lat="48.46422" lon="2.66014">
        <ele>100</ele>
        <time>2018-11-18T08:18:54Z</time>
      </trkpt>
      <trkpt lat="48.46421" lon="2.66011">
        <ele>100.1</ele>
        <time>2018-11-18T08:18:55Z</time>
      </trkpt>
      <trkpt lat="48.46419" lon="2.66008">
        <ele>100.1</ele>
        <time>2018-11-18T08:18:56Z</time>
      </trkpt>
      <trkpt lat="48.46417" lon="2.66005">
        <ele>100.2</ele>
        <time>2018-11-18T08:18:57Z</time>
      </trkpt>
      <trkpt lat="48.46415" lon="2.66001">
        <ele>100.3</ele>
        <time>2018-11-18T08:18:58Z</time>
      </trkpt>
      <trkpt lat="48.46413" lon="2.65997">
        <ele>100.4</ele>
        <time>2018-11-18T08:18:59Z</time>
      </trkpt>
      <trkpt lat="48.46411" lon="2.65993">
        <ele>100.5</ele>
        <time>2018-11-18T08:19:00Z</time>
      </trkpt>
      <trkpt lat="48.46409" lon="2.65988">
        <ele>100.6</ele>
        <time>2018-11-18T08:19:01Z</time>
      </trkpt>
      <trkpt lat="48.46407" lon="2.65984">
        <ele>100.6</ele>
        <time>2018-11-18T08:19:02Z</time>
      </trkpt>
      <trkpt lat="48.46405" lon="2.6598">
        <ele>100.7</ele>
        <time>2018-11-18T08:19:03Z</time>
      </trkpt>
      <trkpt lat="48.46403" lon="2.65977">
        <ele>100.7</ele>
        <time>2018-11-18T08:19:04Z</time>
      </trkpt>
      <trkpt lat="48.46401" lon="2.65973">
        <ele>100.8</ele>
        <time>2018-11-18T08:19:05Z</time>
      </trkpt>
      <trkpt lat="48.46399" lon="2.65969">
        <ele>100.8</ele>
        <time>2018-11-18T08:19:06Z</time>
      </trkpt>
      <trkpt lat="48.46397" lon="2.65966">
        <ele>100.9</ele>
        <time>2018-11-18T08:19:07Z</time>
      </trkpt>
      <trkpt lat="48.46395" lon="2.65962">
        <ele>101</ele>
        <time>2018-11-18T08:19:08Z</time>
      </trkpt>
      <trkpt lat="48.46393" lon="2.65957">
        <ele>101.1</ele>
        <time>2018-11-18T08:19:09Z</time>
      </trkpt>
      <trkpt lat="48.4639" lon="2.65953">
        <ele>101.1</ele>
        <time>2018-11-18T08:19:10Z</time>
      </trkpt>
      <trkpt lat="48.46388" lon="2.65949">
        <ele>101.2</ele>
        <time>2018-11-18T08:19:11Z</time>
      </trkpt>
      <trkpt lat="48.46385" lon="2.65944">
        <ele>101.2</ele>
        <time>2018-11-18T08:19:12Z</time>
      </trkpt>
      <trkpt lat="48.46383" lon="2.6594">
        <ele>101.3</ele>
        <time>2018-11-18T08:19:13Z</time>
      </trkpt>
      <trkpt lat="48.46381" lon="2.65935">
        <ele>101.3</ele>
        <time>2018-11-18T08:19:14Z</time>
      </trkpt>
      <trkpt lat="48.46379" lon="2.65931">
        <ele>101.4</ele>
        <time>2018-11-18T08:19:15Z</time>
      </trkpt>
      <trkpt lat="48.46376" lon="2.65927">
        <ele>101.4</ele>
        <time>2018-11-18T08:19:16Z</time>
      </trkpt>
      <trkpt lat="48.46374" lon="2.65923">
        <ele>101.4</ele>
        <time>2018-11-18T08:19:17Z</time>
      </trkpt>
      <trkpt lat="48.46372" lon="2.65919">
        <ele>101.5</ele>
        <time>2018-11-18T08:19:18Z</time>
      </trkpt>
      <trkpt lat="48.4637" lon="2.65915">
        <ele>101.5</ele>
        <time>2018-11-18T08:19:19Z</time>
      </trkpt>
      <trkpt lat="48.46368" lon="2.65911">
        <ele>101.5</ele>
        <time>2018-11-18T08:19:20Z</time>
      </trkpt>
      <trkpt lat="48.46366" lon="2.65908">
        <ele>101.5</ele>
        <time>2018-11-18T08:19:21Z</time>
      </trkpt>
      <trkpt lat="48.46365" lon="2.65905">
        <ele>101.5</ele>
        <time>2018-11-18T08:19:22Z</time>
      </trkpt>
      <trkpt lat="48.46363" lon="2.65901">
        <ele>101.5</ele>
        <time>2018-11-18T08:19:23Z</time>
      </trkpt>
      <trkpt lat="48.46361" lon="2.65896">
        <ele>101.5</ele>
        <time>2018-11-18T08:19:24Z</time>
      </trkpt>
      <trkpt lat="48.46359" lon="2.65892">
        <ele>101.4</ele>
        <time>2018-11-18T08:19:25Z</time>
      </trkpt>
      <trkpt lat="48.46357" lon="2.65887">
        <ele>101.4</ele>
        <time>2018-11-18T08:19:26Z</time>
      </trkpt>
      <trkpt lat="48.46355" lon="2.65882">
        <ele>101.4</ele>
        <time>2018-11-18T08:19:27Z</time>
      </trkpt>
      <trkpt lat="48.46353" lon="2.65878">
        <ele>101.4</ele>
        <time>2018-11-18T08:19:28Z</time>
      </trkpt>
      <trkpt lat="48.46351" lon="2.65874">
        <ele>101.3</ele>
        <time>2018-11-18T08:19:29Z</time>
      </trkpt>
      <trkpt lat="48.46349" lon="2.6587">
        <ele>101.3</ele>
        <time>2018-11-18T08:19:30Z</time>
      </trkpt>
      <trkpt lat="48.46347" lon="2.65867">
        <ele>101.2</ele>
        <time>2018-11-18T08:19:31Z</time>
      </trkpt>
      <trkpt lat="48.46344" lon="2.65863">
        <ele>101.2</ele>
        <time>2018-11-18T08:19:32Z</time>
      </trkpt>
      <trkpt lat="48.46343" lon="2.65859">
        <ele>101.2</ele>
        <time>2018-11-18T08:19:33Z</time>
      </trkpt>
      <trkpt lat="48.46341" lon="2.65854">
        <ele>101.2</ele>
        <time>2018-11-18T08:19:34Z</time>
      </trkpt>
      <trkpt lat="48.46339" lon="2.6585">
        <ele>101.1</ele>
        <time>2018-11-18T08:19:35Z</time>
      </trkpt>
      <trkpt lat="48.46336" lon="2.65845">
        <ele>101.1</ele>
        <time>2018-11-18T08:19:36Z</time>
      </trkpt>
      <trkpt lat="48.46334" lon="2.65841">
        <ele>101.1</ele>
        <time>2018-11-18T08:19:37Z</time>
      </trkpt>
      <trkpt lat="48.46332" lon="2.65837">
        <ele>101</ele>
        <time>2018-11-18T08:19:38Z</time>
      </trkpt>
      <trkpt lat="48.46331" lon="2.65833">
        <ele>101</ele>
        <time>2018-11-18T08:19:39Z</time>
      </trkpt>
      <trkpt lat="48.46329" lon="2.6583">
        <ele>101</ele>
        <time>2018-11-18T08:19:40Z</time>
      </trkpt>
      <trkpt lat="48.46327" lon="2.65827">
        <ele>101</ele>
        <time>2018-11-18T08:19:41Z</time>
      </trkpt>
      <trkpt lat="48.46325" lon="2.65823">
        <ele>100.9</ele>
        <time>2018-11-18T08:19:42Z</time>
      </trkpt>
      <trkpt lat="48.46323" lon="2.65819">
        <ele>100.9</ele>
        <time>2018-11-18T08:19:43Z</time>
      </trkpt>
      <trkpt lat="48.46321" lon="2.65815">
        <ele>100.9</ele>
        <time>2018-11-18T08:19:44Z</time>
      </trkpt>
      <trkpt lat="48.4632" lon="2.65811">
        <ele>100.9</ele>
        <time>2018-11-18T08:19:45Z</time>
      </trkpt>
      <trkpt lat="48.46318" lon="2.65807">
        <ele>100.9</ele>
        <time>2018-11-18T08:19:46Z</time>
      </trkpt>
      <trkpt lat="48.46316" lon="2.65803">
        <ele>100.9</ele>
        <time>2018-11-18T08:19:47Z</time>
      </trkpt>
      <trkpt lat="48.46314" lon="2.658">
        <ele>100.9</ele>
        <time>2018-11-18T08:19:48Z</time>
      </trkpt>
      <trkpt lat="48.46312" lon="2.65796">
        <ele>100.9</ele>
        <time>2018-11-18T08:19:49Z</time>
      </trkpt>
      <trkpt lat="48.46311" lon="2.65792">
        <ele>100.9</ele>
        <time>2018-11-18T08:19:50Z</time>
      </trkpt>
      <trkpt lat="48.46309" lon="2.65788">
        <ele>100.9</ele>
        <time>2018-11-18T08:19:51Z</time>
      </trkpt>
      <trkpt lat="48.46308" lon="2.65783">
        <ele>100.9</ele>
        <time>2018-11-18T08:19:52Z</time>
      </trkpt>
      <trkpt lat="48.46307" lon="2.6578">
        <ele>100.9</ele>
        <time>2018-11-18T08:19:53Z</time>
      </trkpt>
      <trkpt lat="48.46305" lon="2.65776">
        <ele>100.9</ele>
        <time>2018-11-18T08:19:54Z</time>
      </trkpt>
      <trkpt lat="48.46303" lon="2.65773">
        <ele>100.9</ele>
        <time>2018-11-18T08:19:55Z</time>
      </trkpt>
      <trkpt lat="48.46301" lon="2.6577">
        <ele>100.9</ele>
        <time>2018-11-18T08:19:56Z</time>
      </trkpt>
      <trkpt lat="48.46299" lon="2.65766">
        <ele>100.9</ele>
        <time>2018-11-18T08:19:57Z</time>
      </trkpt>
      <trkpt lat="48.46296" lon="2.65762">
        <ele>100.9</ele>
        <time>2018-11-18T08:19:58Z</time>
      </trkpt>
      <trkpt lat="48.46294" lon="2.65758">
        <ele>100.9</ele>
        <time>2018-11-18T08:19:59Z</time>
      </trkpt>
      <trkpt lat="48.46292" lon="2.65754">
        <ele>100.9</ele>
        <time>2018-11-18T08:20:00Z</time>
      </trkpt>
      <trkpt lat="48.46289" lon="2.6575">
        <ele>100.9</ele>
        <time>2018-11-18T08:20:01Z</time>
      </trkpt>
      <trkpt lat="48.46287" lon="2.65745">
        <ele>101</ele>
        <time>2018-11-18T08:20:02Z</time>
      </trkpt>
      <trkpt lat="48.46285" lon="2.65742">
        <ele>101</ele>
        <time>2018-11-18T08:20:03Z</time>
      </trkpt>
      <trkpt lat="48.46283" lon="2.65738">
        <ele>101</ele>
        <time>2018-11-18T08:20:04Z</time>
      </trkpt>
      <trkpt lat="48.46281" lon="2.65735">
        <ele>101.1</ele>
        <time>2018-11-18T08:20:05Z</time>
      </trkpt>
      <trkpt lat="48.4628" lon="2.65731">
        <ele>101.1</ele>
        <time>2018-11-18T08:20:06Z</time>
      </trkpt>
      <trkpt lat="48.46278" lon="2.65727">
        <ele>101.1</ele>
        <time>2018-11-18T08:20:07Z</time>
      </trkpt>
      <trkpt lat="48.46276" lon="2.65722">
        <ele>101.1</ele>
        <time>2018-11-18T08:20:08Z</time>
      </trkpt>
      <trkpt lat="48.46274" lon="2.65719">
        <ele>101.2</ele>
        <time>2018-11-18T08:20:09Z</time>
      </trkpt>
      <trkpt lat="48.46273" lon="2.65716">
        <ele>101.2</ele>
        <time>2018-11-18T08:20:10Z</time>
      </trkpt>
      <trkpt lat="48.46271" lon="2.65712">
        <ele>101.2</ele>
        <time>2018-11-18T08:20:11Z</time>
      </trkpt>
      <trkpt lat="48.46271" lon="2.65708">
        <ele>101.3</ele>
        <time>2018-11-18T08:20:12Z</time>
      </trkpt>
      <trkpt lat="48.46271" lon="2.65704">
        <ele>101.4</ele>
        <time>2018-11-18T08:20:13Z</time>
      </trkpt>
      <trkpt lat="48.46271" lon="2.657">
        <ele>101.5</ele>
        <time>2018-11-18T08:20:14Z</time>
      </trkpt>
      <trkpt lat="48.46271" lon="2.65696">
        <ele>101.6</ele>
        <time>2018-11-18T08:20:15Z</time>
      </trkpt>
      <trkpt lat="48.46271" lon="2.65691">
        <ele>101.7</ele>
        <time>2018-11-18T08:20:16Z</time>
      </trkpt>
      <trkpt lat="48.4627" lon="2.65686">
        <ele>101.8</ele>
        <time>2018-11-18T08:20:17Z</time>
      </trkpt>
      <trkpt lat="48.4627" lon="2.65682">
        <ele>101.9</ele>
        <time>2018-11-18T08:20:18Z</time>
      </trkpt>
      <trkpt lat="48.46269" lon="2.65677">
        <ele>102</ele>
        <time>2018-11-18T08:20:19Z</time>
      </trkpt>
      <trkpt lat="48.46269" lon="2.65672">
        <ele>102.2</ele>
        <time>2018-11-18T08:20:20Z</time>
      </trkpt>
      <trkpt lat="48.46268" lon="2.65666">
        <ele>102.2</ele>
        <time>2018-11-18T08:20:21Z</time>
      </trkpt>
      <trkpt lat="48.46268" lon="2.65662">
        <ele>102.2</ele>
        <time>2018-11-18T08:20:22Z</time>
      </trkpt>
      <trkpt lat="48.46267" lon="2.65658">
        <ele>102.3</ele>
        <time>2018-11-18T08:20:23Z</time>
      </trkpt>
      <trkpt lat="48.46266" lon="2.65654">
        <ele>102.3</ele>
        <time>2018-11-18T08:20:24Z</time>
      </trkpt>
      <trkpt lat="48.46266" lon="2.6565">
        <ele>102.3</ele>
        <time>2018-11-18T08:20:25Z</time>
      </trkpt>
      <trkpt lat="48.46265" lon="2.65644">
        <ele>102.4</ele>
        <time>2018-11-18T08:20:26Z</time>
      </trkpt>
      <trkpt lat="48.46264" lon="2.65639">
        <ele>102.4</ele>
        <time>2018-11-18T08:20:27Z</time>
      </trkpt>
      <trkpt lat="48.46263" lon="2.65634">
        <ele>102.4</ele>
        <time>2018-11-18T08:20:28Z</time>
      </trkpt>
      <trkpt lat="48.46263" lon="2.65629">
        <ele>102.5</ele>
        <time>2018-11-18T08:20:29Z</time>
      </trkpt>
      <trkpt lat="48.46262" lon="2.65624">
        <ele>102.5</ele>
        <time>2018-11-18T08:20:30Z</time>
      </trkpt>
      <trkpt lat="48.46262" lon="2.65619">
        <ele>102.5</ele>
        <time>2018-11-18T08:20:31Z</time>
      </trkpt>
      <trkpt lat="48.46262" lon="2.65614">
        <ele>102.5</ele>
        <time>2018-11-18T08:20:32Z</time>
      </trkpt>
      <trkpt lat="48.46262" lon="2.65609">
        <ele>102.5</ele>
        <time>2018-11-18T08:20:33Z</time>
      </trkpt>
      <trkpt lat="48.46262" lon="2.65605">
        <ele>102.5</ele>
        <time>2018-11-18T08:20:34Z</time>
      </trkpt>
      <trkpt lat="48.46262" lon="2.65601">
        <ele>102.5</ele>
        <time>2018-11-18T08:20:35Z</time>
      </trkpt>
      <trkpt lat="48.46262" lon="2.65597">
        <ele>102.5</ele>
        <time>2018-11-18T08:20:36Z</time>
      </trkpt>
      <trkpt lat="48.46262" lon="2.65592">
        <ele>102.5</ele>
        <time>2018-11-18T08:20:37Z</time>
      </trkpt>
      <trkpt lat="48.46262" lon="2.65588">
        <ele>102.5</ele>
        <time>2018-11-18T08:20:38Z</time>
      </trkpt>
      <trkpt lat="48.46262" lon="2.65583">
        <ele>102.5</ele>
        <time>2018-11-18T08:20:39Z</time>
      </trkpt>
      <trkpt lat="48.46262" lon="2.65578">
        <ele>102.4</ele>
        <time>2018-11-18T08:20:40Z</time>
      </trkpt>
      <trkpt lat="48.46262" lon="2.65573">
        <ele>102.4</ele>
        <time>2018-11-18T08:20:41Z</time>
      </trkpt>
      <trkpt lat="48.46262" lon="2.65568">
        <ele>102.4</ele>
        <time>2018-11-18T08:20:42Z</time>
      </trkpt>
      <trkpt lat="48.46263" lon="2.65563">
        <ele>102.3</ele>
        <time>2018-11-18T08:20:43Z</time>
      </trkpt>
      <trkpt lat="48.46263" lon="2.65558">
        <ele>102.3</ele>
        <time>2018-11-18T08:20:44Z</time>
      </trkpt>
      <trkpt lat="48.46263" lon="2.65554">
        <ele>102.2</ele>
        <time>2018-11-18T08:20:45Z</time>
      </trkpt>
      <trkpt lat="48.46263" lon="2.65549">
        <ele>102.2</ele>
        <time>2018-11-18T08:20:46Z</time>
      </trkpt>
      <trkpt lat="48.46264" lon="2.65544">
        <ele>102.2</ele>
        <time>2018-11-18T08:20:47Z</time>
      </trkpt>
      <trkpt lat="48.46265" lon="2.65539">
        <ele>102.1</ele>
        <time>2018-11-18T08:20:48Z</time>
      </trkpt>
      <trkpt lat="48.46267" lon="2.65534">
        <ele>102</ele>
        <time>2018-11-18T08:20:49Z</time>
      </trkpt>
      <trkpt lat="48.46269" lon="2.65529">
        <ele>102</ele>
        <time>2018-11-18T08:20:50Z</time>
      </trkpt>
      <trkpt lat="48.46271" lon="2.65524">
        <ele>101.9</ele>
        <time>2018-11-18T08:20:51Z</time>
      </trkpt>
      <trkpt lat="48.46272" lon="2.65519">
        <ele>101.8</ele>
        <time>2018-11-18T08:20:52Z</time>
      </trkpt>
      <trkpt lat="48.46274" lon="2.65515">
        <ele>101.8</ele>
        <time>2018-11-18T08:20:53Z</time>
      </trkpt>
      <trkpt lat="48.46275" lon="2.65511">
        <ele>101.7</ele>
        <time>2018-11-18T08:20:54Z</time>
      </trkpt>
      <trkpt lat="48.46277" lon="2.65507">
        <ele>101.7</ele>
        <time>2018-11-18T08:20:55Z</time>
      </trkpt>
      <trkpt lat="48.46279" lon="2.65502">
        <ele>101.6</ele>
        <time>2018-11-18T08:20:56Z</time>
      </trkpt>
      <trkpt lat="48.46281" lon="2.65498">
        <ele>101.5</ele>
        <time>2018-11-18T08:20:57Z</time>
      </trkpt>
      <trkpt lat="48.46282" lon="2.65493">
        <ele>101.4</ele>
        <time>2018-11-18T08:20:58Z</time>
      </trkpt>
      <trkpt lat="48.46284" lon="2.65489">
        <ele>101.4</ele>
        <time>2018-11-18T08:20:59Z</time>
      </trkpt>
      <trkpt lat="48.46286" lon="2.65484">
        <ele>101.3</ele>
        <time>2018-11-18T08:21:00Z</time>
      </trkpt>
      <trkpt lat="48.46287" lon="2.65479">
        <ele>101.3</ele>
        <time>2018-11-18T08:21:01Z</time>
      </trkpt>
      <trkpt lat="48.46289" lon="2.65475">
        <ele>101.2</ele>
        <time>2018-11-18T08:21:02Z</time>
      </trkpt>
      <trkpt lat="48.46291" lon="2.65472">
        <ele>101.2</ele>
        <time>2018-11-18T08:21:03Z</time>
      </trkpt>
      <trkpt lat="48.46293" lon="2.65467">
        <ele>101.1</ele>
        <time>2018-11-18T08:21:04Z</time>
      </trkpt>
      <trkpt lat="48.46294" lon="2.65463">
        <ele>101.1</ele>
        <time>2018-11-18T08:21:05Z</time>
      </trkpt>
      <trkpt lat="48.46296" lon="2.65458">
        <ele>101</ele>
        <time>2018-11-18T08:21:06Z</time>
      </trkpt>
      <trkpt lat="48.46298" lon="2.65453">
        <ele>101</ele>
        <time>2018-11-18T08:21:07Z</time>
      </trkpt>
      <trkpt lat="48.46301" lon="2.65448">
        <ele>100.9</ele>
        <time>2018-11-18T08:21:08Z</time>
      </trkpt>
      <trkpt lat="48.46303" lon="2.65444">
        <ele>100.9</ele>
        <time>2018-11-18T08:21:09Z</time>
      </trkpt>
      <trkpt lat="48.46304" lon="2.6544">
        <ele>100.9</ele>
        <time>2018-11-18T08:21:10Z</time>
      </trkpt>
      <trkpt lat="48.46306" lon="2.65436">
        <ele>100.9</ele>
        <time>2018-11-18T08:21:11Z</time>
      </trkpt>
      <trkpt lat="48.46308" lon="2.65431">
        <ele>100.9</ele>
        <time>2018-11-18T08:21:12Z</time>
      </trkpt>
      <trkpt lat="48.4631" lon="2.65427">
        <ele>100.9</ele>
        <time>2018-11-18T08:21:13Z</time>
      </trkpt>
      <trkpt lat="48.46311" lon="2.65424">
        <ele>100.9</ele>
        <time>2018-11-18T08:21:14Z</time>
      </trkpt>
      <trkpt lat="48.46313" lon="2.6542">
        <ele>101</ele>
        <time>2018-11-18T08:21:15Z</time>
      </trkpt>
      <trkpt lat="48.46315" lon="2.65416">
        <ele>101</ele>
        <time>2018-11-18T08:21:16Z</time>
      </trkpt>
      <trkpt lat="48.46316" lon="2.65412">
        <ele>101.1</ele>
        <time>2018-11-18T08:21:17Z</time>
      </trkpt>
      <trkpt lat="48.46318" lon="2.65408">
        <ele>101.1</ele>
        <time>2018-11-18T08:21:18Z</time>
      </trkpt>
      <trkpt lat="48.46319" lon="2.65404">
        <ele>101.2</ele>
        <time>2018-11-18T08:21:19Z</time>
      </trkpt>
      <trkpt lat="48.46321" lon="2.65401">
        <ele>101.3</ele>
        <time>2018-11-18T08:21:20Z</time>
      </trkpt>
      <trkpt lat="48.46323" lon="2.65397">
        <ele>101.3</ele>
        <time>2018-11-18T08:21:21Z</time>
      </trkpt>
      <trkpt lat="48.46324" lon="2.65394">
        <ele>101.4</ele>
        <time>2018-11-18T08:21:22Z</time>
      </trkpt>
      <trkpt lat="48.46326" lon="2.6539">
        <ele>101.5</ele>
        <time>2018-11-18T08:21:23Z</time>
      </trkpt>
      <trkpt lat="48.46328" lon="2.65386">
        <ele>101.5</ele>
        <time>2018-11-18T08:21:24Z</time>
      </trkpt>
      <trkpt lat="48.4633" lon="2.65382">
        <ele>101.6</ele>
        <time>2018-11-18T08:21:25Z</time>
      </trkpt>
      <trkpt lat="48.46332" lon="2.65379">
        <ele>101.6</ele>
        <time>2018-11-18T08:21:26Z</time>
      </trkpt>
      <trkpt lat="48.46334" lon="2.65374">
        <ele>101.6</ele>
        <time>2018-11-18T08:21:27Z</time>
      </trkpt>
      <trkpt lat="48.46335" lon="2.6537">
        <ele>101.6</ele>
        <time>2018-11-18T08:21:28Z</time>
      </trkpt>
      <trkpt lat="48.46337" lon="2.65365">
        <ele>101.6</ele>
        <time>2018-11-18T08:21:29Z</time>
      </trkpt>
      <trkpt lat="48.46338" lon="2.65361">
        <ele>101.5</ele>
        <time>2018-11-18T08:21:30Z</time>
      </trkpt>
      <trkpt lat="48.4634" lon="2.65357">
        <ele>101.5</ele>
        <time>2018-11-18T08:21:31Z</time>
      </trkpt>
      <trkpt lat="48.46341" lon="2.65352">
        <ele>101.4</ele>
        <time>2018-11-18T08:21:32Z</time>
      </trkpt>
      <trkpt lat="48.46344" lon="2.65347">
        <ele>101.3</ele>
        <time>2018-11-18T08:21:33Z</time>
      </trkpt>
      <trkpt lat="48.46346" lon="2.65341">
        <ele>101.1</ele>
        <time>2018-11-18T08:21:34Z</time>
      </trkpt>
      <trkpt lat="48.46348" lon="2.65335">
        <ele>101</ele>
        <time>2018-11-18T08:21:35Z</time>
      </trkpt>
      <trkpt lat="48.4635" lon="2.65329">
        <ele>100.8</ele>
        <time>2018-11-18T08:21:36Z</time>
      </trkpt>
      <trkpt lat="48.46351" lon="2.65324">
        <ele>100.6</ele>
        <time>2018-11-18T08:21:37Z</time>
      </trkpt>
      <trkpt lat="48.46353" lon="2.65317">
        <ele>100.4</ele>
        <time>2018-11-18T08:21:38Z</time>
      </trkpt>
      <trkpt lat="48.46354" lon="2.6531">
        <ele>100.2</ele>
        <time>2018-11-18T08:21:39Z</time>
      </trkpt>
      <trkpt lat="48.46356" lon="2.65303">
        <ele>100</ele>
        <time>2018-11-18T08:21:40Z</time>
      </trkpt>
      <trkpt lat="48.46358" lon="2.65296">
        <ele>99.7</ele>
        <time>2018-11-18T08:21:41Z</time>
      </trkpt>
      <trkpt lat="48.46359" lon="2.6529">
        <ele>99.5</ele>
        <time>2018-11-18T08:21:42Z</time>
      </trkpt>
      <trkpt lat="48.46361" lon="2.65284">
        <ele>99.2</ele>
        <time>2018-11-18T08:21:43Z</time>
      </trkpt>
      <trkpt lat="48.46362" lon="2.65278">
        <ele>99</ele>
        <time>2018-11-18T08:21:44Z</time>
      </trkpt>
      <trkpt lat="48.46363" lon="2.65272">
        <ele>98.8</ele>
        <time>2018-11-18T08:21:45Z</time>
      </trkpt>
      <trkpt lat="48.46364" lon="2.65265">
        <ele>98.6</ele>
        <time>2018-11-18T08:21:46Z</time>
      </trkpt>
      <trkpt lat="48.46366" lon="2.65257">
        <ele>98.4</ele>
        <time>2018-11-18T08:21:47Z</time>
      </trkpt>
      <trkpt lat="48.46366" lon="2.6525">
        <ele>98.2</ele>
        <time>2018-11-18T08:21:48Z</time>
      </trkpt>
      <trkpt lat="48.46366" lon="2.65242">
        <ele>98</ele>
        <time>2018-11-18T08:21:49Z</time>
      </trkpt>
      <trkpt lat="48.46366" lon="2.65235">
        <ele>98</ele>
        <time>2018-11-18T08:21:50Z</time>
      </trkpt>
      <trkpt lat="48.46365" lon="2.65229">
        <ele>98</ele>
        <time>2018-11-18T08:21:51Z</time>
      </trkpt>
      <trkpt lat="48.46364" lon="2.65224">
        <ele>98.1</ele>
        <time>2018-11-18T08:21:52Z</time>
      </trkpt>
      <trkpt lat="48.46362" lon="2.65222">
        <ele>99.8</ele>
        <time>2018-11-18T08:21:53Z</time>
      </trkpt>
      <trkpt lat="48.46361" lon="2.65219">
        <ele>100</ele>
        <time>2018-11-18T08:21:54Z</time>
      </trkpt>
      <trkpt lat="48.46359" lon="2.65216">
        <ele>100.3</ele>
        <time>2018-11-18T08:21:55Z</time>
      </trkpt>
      <trkpt lat="48.46358" lon="2.65214">
        <ele>100.5</ele>
        <time>2018-11-18T08:21:56Z</time>
      </trkpt>
      <trkpt lat="48.46356" lon="2.65211">
        <ele>100.8</ele>
        <time>2018-11-18T08:21:57Z</time>
      </trkpt>
      <trkpt lat="48.46354" lon="2.65209">
        <ele>101.1</ele>
        <time>2018-11-18T08:21:58Z</time>
      </trkpt>
      <trkpt lat="48.46353" lon="2.65206">
        <ele>101.4</ele>
        <time>2018-11-18T08:21:59Z</time>
      </trkpt>
      <trkpt lat="48.46351" lon="2.65203">
        <ele>101.6</ele>
        <time>2018-11-18T08:22:00Z</time>
      </trkpt>
      <trkpt lat="48.4635" lon="2.652">
        <ele>101.7</ele>
        <time>2018-11-18T08:22:01Z</time>
      </trkpt>
      <trkpt lat="48.46349" lon="2.65198">
        <ele>101.8</ele>
        <time>2018-11-18T08:22:02Z</time>
      </trkpt>
      <trkpt lat="48.46347" lon="2.65196">
        <ele>101.9</ele>
        <time>2018-11-18T08:22:03Z</time>
      </trkpt>
      <trkpt lat="48.46346" lon="2.65194">
        <ele>102.1</ele>
        <time>2018-11-18T08:22:04Z</time>
      </trkpt>
      <trkpt lat="48.46344" lon="2.65191">
        <ele>102.2</ele>
        <time>2018-11-18T08:22:05Z</time>
      </trkpt>
      <trkpt lat="48.46343" lon="2.65189">
        <ele>102.3</ele>
        <time>2018-11-18T08:22:06Z</time>
      </trkpt>
      <trkpt lat="48.46341" lon="2.65187">
        <ele>102.5</ele>
        <time>2018-11-18T08:22:07Z</time>
      </trkpt>
      <trkpt lat="48.46339" lon="2.65184">
        <ele>102.6</ele>
        <time>2018-11-18T08:22:08Z</time>
      </trkpt>
      <trkpt lat="48.46337" lon="2.65181">
        <ele>102.7</ele>
        <time>2018-11-18T08:22:09Z</time>
      </trkpt>
      <trkpt lat="48.46336" lon="2.65179">
        <ele>102.9</ele>
        <time>2018-11-18T08:22:10Z</time>
      </trkpt>
      <trkpt lat="48.46334" lon="2.65177">
        <ele>103</ele>
        <time>2018-11-18T08:22:11Z</time>
      </trkpt>
      <trkpt lat="48.46333" lon="2.65175">
        <ele>103.1</ele>
        <time>2018-11-18T08:22:12Z</time>
      </trkpt>
      <trkpt lat="48.46331" lon="2.65174">
        <ele>103.2</ele>
        <time>2018-11-18T08:22:13Z</time>
      </trkpt>
      <trkpt lat="48.46329" lon="2.65172">
        <ele>103.3</ele>
        <time>2018-11-18T08:22:14Z</time>
      </trkpt>
      <trkpt lat="48.46328" lon="2.6517">
        <ele>103.3</ele>
        <time>2018-11-18T08:22:15Z</time>
      </trkpt>
      <trkpt lat="48.46326" lon="2.65169">
        <ele>103.4</ele>
        <time>2018-11-18T08:22:16Z</time>
      </trkpt>
      <trkpt lat="48.46324" lon="2.65167">
        <ele>103.5</ele>
        <time>2018-11-18T08:22:17Z</time>
      </trkpt>
      <trkpt lat="48.46322" lon="2.65165">
        <ele>103.5</ele>
        <time>2018-11-18T08:22:18Z</time>
      </trkpt>
      <trkpt lat="48.46321" lon="2.65164">
        <ele>103.6</ele>
        <time>2018-11-18T08:22:19Z</time>
      </trkpt>
      <trkpt lat="48.46319" lon="2.65162">
        <ele>103.7</ele>
        <time>2018-11-18T08:22:20Z</time>
      </trkpt>
      <trkpt lat="48.46317" lon="2.6516">
        <ele>103.7</ele>
        <time>2018-11-18T08:22:21Z</time>
      </trkpt>
      <trkpt lat="48.46315" lon="2.65158">
        <ele>103.8</ele>
        <time>2018-11-18T08:22:22Z</time>
      </trkpt>
      <trkpt lat="48.46313" lon="2.65157">
        <ele>103.8</ele>
        <time>2018-11-18T08:22:23Z</time>
      </trkpt>
      <trkpt lat="48.46311" lon="2.65154">
        <ele>103.9</ele>
        <time>2018-11-18T08:22:24Z</time>
      </trkpt>
      <trkpt lat="48.4631" lon="2.65152">
        <ele>103.9</ele>
        <time>2018-11-18T08:22:25Z</time>
      </trkpt>
      <trkpt lat="48.46308" lon="2.6515">
        <ele>104</ele>
        <time>2018-11-18T08:22:26Z</time>
      </trkpt>
      <trkpt lat="48.46307" lon="2.65149">
        <ele>104</ele>
        <time>2018-11-18T08:22:27Z</time>
      </trkpt>
      <trkpt lat="48.46305" lon="2.65147">
        <ele>104</ele>
        <time>2018-11-18T08:22:28Z</time>
      </trkpt>
      <trkpt lat="48.46304" lon="2.65145">
        <ele>104.1</ele>
        <time>2018-11-18T08:22:29Z</time>
      </trkpt>
      <trkpt lat="48.46302" lon="2.65144">
        <ele>104.1</ele>
        <time>2018-11-18T08:22:30Z</time>
      </trkpt>
      <trkpt lat="48.463" lon="2.65142">
        <ele>104.1</ele>
        <time>2018-11-18T08:22:31Z</time>
      </trkpt>
      <trkpt lat="48.46298" lon="2.65141">
        <ele>104.2</ele>
        <time>2018-11-18T08:22:32Z</time>
      </trkpt>
      <trkpt lat="48.46296" lon="2.65139">
        <ele>104.2</ele>
        <time>2018-11-18T08:22:33Z</time>
      </trkpt>
      <trkpt lat="48.46294" lon="2.65137">
        <ele>104.2</ele>
        <time>2018-11-18T08:22:34Z</time>
      </trkpt>
      <trkpt lat="48.46292" lon="2.65136">
        <ele>104.3</ele>
        <time>2018-11-18T08:22:35Z</time>
      </trkpt>
      <trkpt lat="48.4629" lon="2.65133">
        <ele>104.3</ele>
        <time>2018-11-18T08:22:36Z</time>
      </trkpt>
      <trkpt lat="48.46288" lon="2.65131">
        <ele>104.3</ele>
        <time>2018-11-18T08:22:37Z</time>
      </trkpt>
      <trkpt lat="48.46287" lon="2.65129">
        <ele>104.3</ele>
        <time>2018-11-18T08:22:38Z</time>
      </trkpt>
      <trkpt lat="48.46284" lon="2.65127">
        <ele>104.2</ele>
        <time>2018-11-18T08:22:39Z</time>
      </trkpt>
      <trkpt lat="48.46282" lon="2.65125">
        <ele>104.1</ele>
        <time>2018-11-18T08:22:40Z</time>
      </trkpt>
      <trkpt lat="48.46279" lon="2.65123">
        <ele>104</ele>
        <time>2018-11-18T08:22:41Z</time>
      </trkpt>
      <trkpt lat="48.46276" lon="2.65121">
        <ele>103.9</ele>
        <time>2018-11-18T08:22:42Z</time>
      </trkpt>
      <trkpt lat="48.46273" lon="2.65119">
        <ele>103.8</ele>
        <time>2018-11-18T08:22:43Z</time>
      </trkpt>
      <trkpt lat="48.4627" lon="2.65117">
        <ele>103.8</ele>
        <time>2018-11-18T08:22:44Z</time>
      </trkpt>
      <trkpt lat="48.46267" lon="2.65114">
        <ele>103.7</ele>
        <time>2018-11-18T08:22:45Z</time>
      </trkpt>
      <trkpt lat="48.46264" lon="2.65111">
        <ele>103.6</ele>
        <time>2018-11-18T08:22:46Z</time>
      </trkpt>
      <trkpt lat="48.46261" lon="2.65108">
        <ele>103.4</ele>
        <time>2018-11-18T08:22:47Z</time>
      </trkpt>
      <trkpt lat="48.46257" lon="2.65106">
        <ele>103.3</ele>
        <time>2018-11-18T08:22:48Z</time>
      </trkpt>
      <trkpt lat="48.46254" lon="2.65104">
        <ele>103.2</ele>
        <time>2018-11-18T08:22:49Z</time>
      </trkpt>
      <trkpt lat="48.4625" lon="2.65103">
        <ele>103.1</ele>
        <time>2018-11-18T08:22:50Z</time>
      </trkpt>
      <trkpt lat="48.46246" lon="2.65102">
        <ele>103</ele>
        <time>2018-11-18T08:22:51Z</time>
      </trkpt>
      <trkpt lat="48.46242" lon="2.65102">
        <ele>102.9</ele>
        <time>2018-11-18T08:22:52Z</time>
      </trkpt>
      <trkpt lat="48.46239" lon="2.65101">
        <ele>102.8</ele>
        <time>2018-11-18T08:22:53Z</time>
      </trkpt>
      <trkpt lat="48.46235" lon="2.65101">
        <ele>102.7</ele>
        <time>2018-11-18T08:22:54Z</time>
      </trkpt>
      <trkpt lat="48.46232" lon="2.651">
        <ele>102.6</ele>
        <time>2018-11-18T08:22:55Z</time>
      </trkpt>
      <trkpt lat="48.46228" lon="2.65099">
        <ele>102.5</ele>
        <time>2018-11-18T08:22:56Z</time>
      </trkpt>
      <trkpt lat="48.46225" lon="2.65099">
        <ele>102.4</ele>
        <time>2018-11-18T08:22:57Z</time>
      </trkpt>
      <trkpt lat="48.46222" lon="2.65098">
        <ele>102.3</ele>
        <time>2018-11-18T08:22:58Z</time>
      </trkpt>
      <trkpt lat="48.46219" lon="2.65098">
        <ele>102.2</ele>
        <time>2018-11-18T08:22:59Z</time>
      </trkpt>
      <trkpt lat="48.46215" lon="2.65097">
        <ele>102.1</ele>
        <time>2018-11-18T08:23:00Z</time>
      </trkpt>
      <trkpt lat="48.46211" lon="2.65097">
        <ele>101.9</ele>
        <time>2018-11-18T08:23:01Z</time>
      </trkpt>
      <trkpt lat="48.46208" lon="2.65097">
        <ele>101.8</ele>
        <time>2018-11-18T08:23:02Z</time>
      </trkpt>
      <trkpt lat="48.46204" lon="2.65097">
        <ele>101.7</ele>
        <time>2018-11-18T08:23:03Z</time>
      </trkpt>
      <trkpt lat="48.462" lon="2.65096">
        <ele>101.6</ele>
        <time>2018-11-18T08:23:04Z</time>
      </trkpt>
      <trkpt lat="48.46196" lon="2.65095">
        <ele>101.5</ele>
        <time>2018-11-18T08:23:05Z</time>
      </trkpt>
      <trkpt lat="48.46192" lon="2.65094">
        <ele>101.4</ele>
        <time>2018-11-18T08:23:06Z</time>
      </trkpt>
      <trkpt lat="48.46188" lon="2.65093">
        <ele>101.3</ele>
        <time>2018-11-18T08:23:07Z</time>
      </trkpt>
      <trkpt lat="48.46184" lon="2.65092">
        <ele>101.3</ele>
        <time>2018-11-18T08:23:08Z</time>
      </trkpt>
      <trkpt lat="48.4618" lon="2.6509">
        <ele>101.2</ele>
        <time>2018-11-18T08:23:09Z</time>
      </trkpt>
      <trkpt lat="48.46175" lon="2.65088">
        <ele>101.2</ele>
        <time>2018-11-18T08:23:10Z</time>
      </trkpt>
      <trkpt lat="48.46171" lon="2.65085">
        <ele>101.3</ele>
        <time>2018-11-18T08:23:11Z</time>
      </trkpt>
      <trkpt lat="48.46166" lon="2.65082">
        <ele>101.4</ele>
        <time>2018-11-18T08:23:12Z</time>
      </trkpt>
      <trkpt lat="48.46161" lon="2.65079">
        <ele>101.6</ele>
        <time>2018-11-18T08:23:13Z</time>
      </trkpt>
      <trkpt lat="48.46156" lon="2.65077">
        <ele>101.9</ele>
        <time>2018-11-18T08:23:14Z</time>
      </trkpt>
      <trkpt lat="48.46151" lon="2.65075">
        <ele>102.1</ele>
        <time>2018-11-18T08:23:15Z</time>
      </trkpt>
      <trkpt lat="48.46147" lon="2.65074">
        <ele>102.2</ele>
        <time>2018-11-18T08:23:16Z</time>
      </trkpt>
      <trkpt lat="48.46144" lon="2.65073">
        <ele>102.4</ele>
        <time>2018-11-18T08:23:17Z</time>
      </trkpt>
      <trkpt lat="48.46142" lon="2.65073">
        <ele>102.4</ele>
        <time>2018-11-18T08:23:18Z</time>
      </trkpt>
      <trkpt lat="48.4614" lon="2.65073">
        <ele>102.5</ele>
        <time>2018-11-18T08:23:19Z</time>
      </trkpt>
      <trkpt lat="48.46137" lon="2.65073">
        <ele>102.6</ele>
        <time>2018-11-18T08:23:20Z</time>
      </trkpt>
      <trkpt lat="48.46135" lon="2.65074">
        <ele>102.9</ele>
        <time>2018-11-18T08:23:21Z</time>
      </trkpt>
      <trkpt lat="48.46133" lon="2.65075">
        <ele>102.9</ele>
        <time>2018-11-18T08:23:22Z</time>
      </trkpt>
      <trkpt lat="48.4613" lon="2.65076">
        <ele>102.9</ele>
        <time>2018-11-18T08:23:23Z</time>
      </trkpt>
      <trkpt lat="48.46128" lon="2.65077">
        <ele>102.9</ele>
        <time>2018-11-18T08:23:24Z</time>
      </trkpt>
      <trkpt lat="48.46125" lon="2.65078">
        <ele>102.9</ele>
        <time>2018-11-18T08:23:25Z</time>
      </trkpt>
      <trkpt lat="48.46123" lon="2.65079">
        <ele>102.9</ele>
        <time>2018-11-18T08:23:26Z</time>
      </trkpt>
      <trkpt lat="48.4612" lon="2.6508">
        <ele>102.9</ele>
        <time>2018-11-18T08:23:27Z</time>
      </trkpt>
      <trkpt lat="48.46117" lon="2.65081">
        <ele>103</ele>
        <time>2018-11-18T08:23:28Z</time>
      </trkpt>
      <trkpt lat="48.46114" lon="2.65082">
        <ele>103</ele>
        <time>2018-11-18T08:23:29Z</time>
      </trkpt>
      <trkpt lat="48.46111" lon="2.65083">
        <ele>103</ele>
        <time>2018-11-18T08:23:30Z</time>
      </trkpt>
      <trkpt lat="48.46108" lon="2.65084">
        <ele>103</ele>
        <time>2018-11-18T08:23:31Z</time>
      </trkpt>
      <trkpt lat="48.46105" lon="2.65085">
        <ele>103</ele>
        <time>2018-11-18T08:23:32Z</time>
      </trkpt>
      <trkpt lat="48.46102" lon="2.65087">
        <ele>103</ele>
        <time>2018-11-18T08:23:33Z</time>
      </trkpt>
      <trkpt lat="48.46099" lon="2.65089">
        <ele>103.1</ele>
        <time>2018-11-18T08:23:34Z</time>
      </trkpt>
      <trkpt lat="48.46096" lon="2.6509">
        <ele>103.1</ele>
        <time>2018-11-18T08:23:35Z</time>
      </trkpt>
      <trkpt lat="48.46093" lon="2.65091">
        <ele>103.2</ele>
        <time>2018-11-18T08:23:36Z</time>
      </trkpt>
      <trkpt lat="48.46091" lon="2.65093">
        <ele>103.4</ele>
        <time>2018-11-18T08:23:37Z</time>
      </trkpt>
      <trkpt lat="48.46088" lon="2.65094">
        <ele>103.5</ele>
        <time>2018-11-18T08:23:38Z</time>
      </trkpt>
      <trkpt lat="48.46085" lon="2.65096">
        <ele>103.7</ele>
        <time>2018-11-18T08:23:39Z</time>
      </trkpt>
      <trkpt lat="48.46082" lon="2.65097">
        <ele>103.8</ele>
        <time>2018-11-18T08:23:40Z</time>
      </trkpt>
      <trkpt lat="48.4608" lon="2.65098">
        <ele>104</ele>
        <time>2018-11-18T08:23:41Z</time>
      </trkpt>
      <trkpt lat="48.46077" lon="2.651">
        <ele>104.1</ele>
        <time>2018-11-18T08:23:42Z</time>
      </trkpt>
      <trkpt lat="48.46074" lon="2.65101">
        <ele>104.3</ele>
        <time>2018-11-18T08:23:43Z</time>
      </trkpt>
      <trkpt lat="48.46071" lon="2.65102">
        <ele>104.5</ele>
        <time>2018-11-18T08:23:44Z</time>
      </trkpt>
      <trkpt lat="48.46068" lon="2.65104">
        <ele>104.6</ele>
        <time>2018-11-18T08:23:45Z</time>
      </trkpt>
      <trkpt lat="48.46066" lon="2.65105">
        <ele>104.8</ele>
        <time>2018-11-18T08:23:46Z</time>
      </trkpt>
      <trkpt lat="48.46063" lon="2.65106">
        <ele>105.1</ele>
        <time>2018-11-18T08:23:47Z</time>
      </trkpt>
      <trkpt lat="48.46061" lon="2.65108">
        <ele>105.4</ele>
        <time>2018-11-18T08:23:48Z</time>
      </trkpt>
      <trkpt lat="48.46058" lon="2.65109">
        <ele>105.6</ele>
        <time>2018-11-18T08:23:49Z</time>
      </trkpt>
      <trkpt lat="48.46055" lon="2.65111">
        <ele>105.9</ele>
        <time>2018-11-18T08:23:50Z</time>
      </trkpt>
      <trkpt lat="48.46052" lon="2.65112">
        <ele>106</ele>
        <time>2018-11-18T08:23:51Z</time>
      </trkpt>
      <trkpt lat="48.4605" lon="2.65114">
        <ele>106.2</ele>
        <time>2018-11-18T08:23:52Z</time>
      </trkpt>
      <trkpt lat="48.46048" lon="2.65115">
        <ele>106.3</ele>
        <time>2018-11-18T08:23:53Z</time>
      </trkpt>
      <trkpt lat="48.46046" lon="2.65116">
        <ele>106.4</ele>
        <time>2018-11-18T08:23:54Z</time>
      </trkpt>
      <trkpt lat="48.46044" lon="2.65117">
        <ele>106.5</ele>
        <time>2018-11-18T08:23:55Z</time>
      </trkpt>
      <trkpt lat="48.46041" lon="2.65119">
        <ele>106.6</ele>
        <time>2018-11-18T08:23:56Z</time>
      </trkpt>
      <trkpt lat="48.46039" lon="2.65121">
        <ele>106.7</ele>
        <time>2018-11-18T08:23:57Z</time>
      </trkpt>
      <trkpt lat="48.46036" lon="2.65123">
        <ele>106.9</ele>
        <time>2018-11-18T08:23:58Z</time>
      </trkpt>
      <trkpt lat="48.46033" lon="2.65124">
        <ele>107.1</ele>
        <time>2018-11-18T08:23:59Z</time>
      </trkpt>
      <trkpt lat="48.4603" lon="2.65126">
        <ele>107.3</ele>
        <time>2018-11-18T08:24:00Z</time>
      </trkpt>
      <trkpt lat="48.46027" lon="2.65127">
        <ele>107.5</ele>
        <time>2018-11-18T08:24:01Z</time>
      </trkpt>
      <trkpt lat="48.46024" lon="2.65128">
        <ele>107.8</ele>
        <time>2018-11-18T08:24:02Z</time>
      </trkpt>
      <trkpt lat="48.46021" lon="2.65129">
        <ele>108</ele>
        <time>2018-11-18T08:24:03Z</time>
      </trkpt>
      <trkpt lat="48.46018" lon="2.65131">
        <ele>108.1</ele>
        <time>2018-11-18T08:24:04Z</time>
      </trkpt>
      <trkpt lat="48.46015" lon="2.65132">
        <ele>108.3</ele>
        <time>2018-11-18T08:24:05Z</time>
      </trkpt>
      <trkpt lat="48.46012" lon="2.65134">
        <ele>108.5</ele>
        <time>2018-11-18T08:24:06Z</time>
      </trkpt>
      <trkpt lat="48.46009" lon="2.65135">
        <ele>108.7</ele>
        <time>2018-11-18T08:24:07Z</time>
      </trkpt>
      <trkpt lat="48.46006" lon="2.65137">
        <ele>108.8</ele>
        <time>2018-11-18T08:24:08Z</time>
      </trkpt>
      <trkpt lat="48.46003" lon="2.65139">
        <ele>109</ele>
        <time>2018-11-18T08:24:09Z</time>
      </trkpt>
      <trkpt lat="48.46001" lon="2.6514">
        <ele>109.1</ele>
        <time>2018-11-18T08:24:10Z</time>
      </trkpt>
      <trkpt lat="48.45998" lon="2.65142">
        <ele>109.3</ele>
        <time>2018-11-18T08:24:11Z</time>
      </trkpt>
      <trkpt lat="48.45996" lon="2.65143">
        <ele>109.5</ele>
        <time>2018-11-18T08:24:12Z</time>
      </trkpt>
      <trkpt lat="48.45993" lon="2.65144">
        <ele>109.8</ele>
        <time>2018-11-18T08:24:13Z</time>
      </trkpt>
      <trkpt lat="48.45991" lon="2.65146">
        <ele>109.9</ele>
        <time>2018-11-18T08:24:14Z</time>
      </trkpt>
      <trkpt lat="48.45989" lon="2.65147">
        <ele>110</ele>
        <time>2018-11-18T08:24:15Z</time>
      </trkpt>
      <trkpt lat="48.45986" lon="2.65148">
        <ele>110.1</ele>
        <time>2018-11-18T08:24:16Z</time>
      </trkpt>
      <trkpt lat="48.45984" lon="2.65149">
        <ele>110.3</ele>
        <time>2018-11-18T08:24:17Z</time>
      </trkpt>
      <trkpt lat="48.45982" lon="2.6515">
        <ele>110.4</ele>
        <time>2018-11-18T08:24:18Z</time>
      </trkpt>
      <trkpt lat="48.45979" lon="2.65151">
        <ele>110.5</ele>
        <time>2018-11-18T08:24:19Z</time>
      </trkpt>
      <trkpt lat="48.45976" lon="2.65153">
        <ele>110.7</ele>
        <time>2018-11-18T08:24:20Z</time>
      </trkpt>
      <trkpt lat="48.45974" lon="2.65154">
        <ele>110.8</ele>
        <time>2018-11-18T08:24:21Z</time>
      </trkpt>
      <trkpt lat="48.45971" lon="2.65155">
        <ele>111</ele>
        <time>2018-11-18T08:24:22Z</time>
      </trkpt>
      <trkpt lat="48.45969" lon="2.65156">
        <ele>111.3</ele>
        <time>2018-11-18T08:24:23Z</time>
      </trkpt>
      <trkpt lat="48.45966" lon="2.65157">
        <ele>111.6</ele>
        <time>2018-11-18T08:24:24Z</time>
      </trkpt>
      <trkpt lat="48.45964" lon="2.65159">
        <ele>111.8</ele>
        <time>2018-11-18T08:24:25Z</time>
      </trkpt>
      <trkpt lat="48.45962" lon="2.6516">
        <ele>112.1</ele>
        <time>2018-11-18T08:24:26Z</time>
      </trkpt>
      <trkpt lat="48.45959" lon="2.6516">
        <ele>112.2</ele>
        <time>2018-11-18T08:24:27Z</time>
      </trkpt>
      <trkpt lat="48.45957" lon="2.65161">
        <ele>112.4</ele>
        <time>2018-11-18T08:24:28Z</time>
      </trkpt>
      <trkpt lat="48.45956" lon="2.65162">
        <ele>112.5</ele>
        <time>2018-11-18T08:24:29Z</time>
      </trkpt>
      <trkpt lat="48.45954" lon="2.65163">
        <ele>112.7</ele>
        <time>2018-11-18T08:24:30Z</time>
      </trkpt>
      <trkpt lat="48.45952" lon="2.65164">
        <ele>112.8</ele>
        <time>2018-11-18T08:24:31Z</time>
      </trkpt>
      <trkpt lat="48.4595" lon="2.65165">
        <ele>113</ele>
        <time>2018-11-18T08:24:32Z</time>
      </trkpt>
      <trkpt lat="48.45947" lon="2.65166">
        <ele>113.3</ele>
        <time>2018-11-18T08:24:33Z</time>
      </trkpt>
      <trkpt lat="48.45945" lon="2.65167">
        <ele>113.6</ele>
        <time>2018-11-18T08:24:34Z</time>
      </trkpt>
      <trkpt lat="48.45942" lon="2.65168">
        <ele>113.9</ele>
        <time>2018-11-18T08:24:35Z</time>
      </trkpt>
      <trkpt lat="48.4594" lon="2.65168">
        <ele>114.2</ele>
        <time>2018-11-18T08:24:36Z</time>
      </trkpt>
      <trkpt lat="48.45937" lon="2.65169">
        <ele>114.4</ele>
        <time>2018-11-18T08:24:37Z</time>
      </trkpt>
      <trkpt lat="48.45935" lon="2.6517">
        <ele>114.5</ele>
        <time>2018-11-18T08:24:38Z</time>
      </trkpt>
      <trkpt lat="48.45933" lon="2.6517">
        <ele>114.7</ele>
        <time>2018-11-18T08:24:39Z</time>
      </trkpt>
      <trkpt lat="48.45931" lon="2.6517">
        <ele>114.8</ele>
        <time>2018-11-18T08:24:40Z</time>
      </trkpt>
      <trkpt lat="48.45929" lon="2.6517">
        <ele>115</ele>
        <time>2018-11-18T08:24:41Z</time>
      </trkpt>
      <trkpt lat="48.45926" lon="2.6517">
        <ele>115.1</ele>
        <time>2018-11-18T08:24:42Z</time>
      </trkpt>
      <trkpt lat="48.45924" lon="2.65171">
        <ele>115.3</ele>
        <time>2018-11-18T08:24:43Z</time>
      </trkpt>
      <trkpt lat="48.45922" lon="2.65171">
        <ele>115.5</ele>
        <time>2018-11-18T08:24:44Z</time>
      </trkpt>
      <trkpt lat="48.4592" lon="2.65171">
        <ele>115.6</ele>
        <time>2018-11-18T08:24:45Z</time>
      </trkpt>
      <trkpt lat="48.45918" lon="2.65172">
        <ele>115.8</ele>
        <time>2018-11-18T08:24:46Z</time>
      </trkpt>
      <trkpt lat="48.45915" lon="2.65172">
        <ele>116.1</ele>
        <time>2018-11-18T08:24:47Z</time>
      </trkpt>
      <trkpt lat="48.45912" lon="2.65173">
        <ele>116.3</ele>
        <time>2018-11-18T08:24:48Z</time>
      </trkpt>
      <trkpt lat="48.4591" lon="2.65174">
        <ele>116.5</ele>
        <time>2018-11-18T08:24:49Z</time>
      </trkpt>
      <trkpt lat="48.45907" lon="2.65174">
        <ele>116.7</ele>
        <time>2018-11-18T08:24:50Z</time>
      </trkpt>
      <trkpt lat="48.45905" lon="2.65174">
        <ele>116.8</ele>
        <time>2018-11-18T08:24:51Z</time>
      </trkpt>
      <trkpt lat="48.45903" lon="2.65175">
        <ele>117</ele>
        <time>2018-11-18T08:24:52Z</time>
      </trkpt>
      <trkpt lat="48.45901" lon="2.65175">
        <ele>117.2</ele>
        <time>2018-11-18T08:24:53Z</time>
      </trkpt>
      <trkpt lat="48.45899" lon="2.65177">
        <ele>117.3</ele>
        <time>2018-11-18T08:24:54Z</time>
      </trkpt>
      <trkpt lat="48.45897" lon="2.65178">
        <ele>117.6</ele>
        <time>2018-11-18T08:24:55Z</time>
      </trkpt>
      <trkpt lat="48.45894" lon="2.65179">
        <ele>117.8</ele>
        <time>2018-11-18T08:24:56Z</time>
      </trkpt>
      <trkpt lat="48.45892" lon="2.65179">
        <ele>118</ele>
        <time>2018-11-18T08:24:57Z</time>
      </trkpt>
      <trkpt lat="48.4589" lon="2.6518">
        <ele>118.3</ele>
        <time>2018-11-18T08:24:58Z</time>
      </trkpt>
      <trkpt lat="48.45887" lon="2.6518">
        <ele>118.5</ele>
        <time>2018-11-18T08:24:59Z</time>
      </trkpt>
      <trkpt lat="48.45886" lon="2.6518">
        <ele>118.7</ele>
        <time>2018-11-18T08:25:00Z</time>
      </trkpt>
      <trkpt lat="48.45883" lon="2.65181">
        <ele>118.9</ele>
        <time>2018-11-18T08:25:01Z</time>
      </trkpt>
      <trkpt lat="48.45881" lon="2.65181">
        <ele>119.1</ele>
        <time>2018-11-18T08:25:02Z</time>
      </trkpt>
      <trkpt lat="48.45878" lon="2.65181">
        <ele>119.4</ele>
        <time>2018-11-18T08:25:03Z</time>
      </trkpt>
      <trkpt lat="48.45876" lon="2.65181">
        <ele>119.7</ele>
        <time>2018-11-18T08:25:04Z</time>
      </trkpt>
      <trkpt lat="48.45874" lon="2.65181">
        <ele>119.9</ele>
        <time>2018-11-18T08:25:05Z</time>
      </trkpt>
      <trkpt lat="48.45871" lon="2.65182">
        <ele>120.2</ele>
        <time>2018-11-18T08:25:06Z</time>
      </trkpt>
      <trkpt lat="48.45869" lon="2.65182">
        <ele>120.5</ele>
        <time>2018-11-18T08:25:07Z</time>
      </trkpt>
      <trkpt lat="48.45866" lon="2.65183">
        <ele>120.8</ele>
        <time>2018-11-18T08:25:08Z</time>
      </trkpt>
      <trkpt lat="48.45864" lon="2.65183">
        <ele>121</ele>
        <time>2018-11-18T08:25:09Z</time>
      </trkpt>
      <trkpt lat="48.45861" lon="2.65184">
        <ele>121.2</ele>
        <time>2018-11-18T08:25:10Z</time>
      </trkpt>
      <trkpt lat="48.45859" lon="2.65184">
        <ele>121.4</ele>
        <time>2018-11-18T08:25:11Z</time>
      </trkpt>
      <trkpt lat="48.45857" lon="2.65185">
        <ele>121.6</ele>
        <time>2018-11-18T08:25:12Z</time>
      </trkpt>
      <trkpt lat="48.45854" lon="2.65185">
        <ele>121.8</ele>
        <time>2018-11-18T08:25:13Z</time>
      </trkpt>
      <trkpt lat="48.45852" lon="2.65186">
        <ele>122</ele>
        <time>2018-11-18T08:25:14Z</time>
      </trkpt>
      <trkpt lat="48.4585" lon="2.65186">
        <ele>122.2</ele>
        <time>2018-11-18T08:25:15Z</time>
      </trkpt>
      <trkpt lat="48.45847" lon="2.65187">
        <ele>122.5</ele>
        <time>2018-11-18T08:25:16Z</time>
      </trkpt>
      <trkpt lat="48.45845" lon="2.65187">
        <ele>122.7</ele>
        <time>2018-11-18T08:25:17Z</time>
      </trkpt>
      <trkpt lat="48.45843" lon="2.65188">
        <ele>122.9</ele>
        <time>2018-11-18T08:25:18Z</time>
      </trkpt>
      <trkpt lat="48.45841" lon="2.65189">
        <ele>123</ele>
        <time>2018-11-18T08:25:19Z</time>
      </trkpt>
      <trkpt lat="48.45838" lon="2.6519">
        <ele>123.2</ele>
        <time>2018-11-18T08:25:20Z</time>
      </trkpt>
      <trkpt lat="48.45835" lon="2.6519">
        <ele>123.4</ele>
        <time>2018-11-18T08:25:21Z</time>
      </trkpt>
      <trkpt lat="48.45833" lon="2.6519">
        <ele>123.5</ele>
        <time>2018-11-18T08:25:22Z</time>
      </trkpt>
      <trkpt lat="48.45831" lon="2.65191">
        <ele>123.7</ele>
        <time>2018-11-18T08:25:23Z</time>
      </trkpt>
      <trkpt lat="48.45828" lon="2.65191">
        <ele>123.9</ele>
        <time>2018-11-18T08:25:24Z</time>
      </trkpt>
      <trkpt lat="48.45826" lon="2.65192">
        <ele>124.1</ele>
        <time>2018-11-18T08:25:25Z</time>
      </trkpt>
      <trkpt lat="48.45823" lon="2.65193">
        <ele>124.3</ele>
        <time>2018-11-18T08:25:26Z</time>
      </trkpt>
      <trkpt lat="48.45821" lon="2.65194">
        <ele>124.5</ele>
        <time>2018-11-18T08:25:27Z</time>
      </trkpt>
      <trkpt lat="48.45818" lon="2.65195">
        <ele>124.7</ele>
        <time>2018-11-18T08:25:28Z</time>
      </trkpt>
      <trkpt lat="48.45817" lon="2.65196">
        <ele>124.8</ele>
        <time>2018-11-18T08:25:29Z</time>
      </trkpt>
      <trkpt lat="48.45815" lon="2.65198">
        <ele>124.9</ele>
        <time>2018-11-18T08:25:30Z</time>
      </trkpt>
      <trkpt lat="48.45812" lon="2.65199">
        <ele>125.1</ele>
        <time>2018-11-18T08:25:31Z</time>
      </trkpt>
      <trkpt lat="48.4581" lon="2.65201">
        <ele>125.2</ele>
        <time>2018-11-18T08:25:32Z</time>
      </trkpt>
      <trkpt lat="48.45808" lon="2.65204">
        <ele>125.3</ele>
        <time>2018-11-18T08:25:33Z</time>
      </trkpt>
      <trkpt lat="48.45806" lon="2.65206">
        <ele>125.4</ele>
        <time>2018-11-18T08:25:34Z</time>
      </trkpt>
      <trkpt lat="48.45804" lon="2.65208">
        <ele>125.6</ele>
        <time>2018-11-18T08:25:35Z</time>
      </trkpt>
      <trkpt lat="48.45802" lon="2.6521">
        <ele>125.7</ele>
        <time>2018-11-18T08:25:36Z</time>
      </trkpt>
      <trkpt lat="48.45801" lon="2.65212">
        <ele>125.8</ele>
        <time>2018-11-18T08:25:37Z</time>
      </trkpt>
      <trkpt lat="48.45799" lon="2.65214">
        <ele>126</ele>
        <time>2018-11-18T08:25:38Z</time>
      </trkpt>
      <trkpt lat="48.45798" lon="2.65216">
        <ele>126.1</ele>
        <time>2018-11-18T08:25:39Z</time>
      </trkpt>
      <trkpt lat="48.45797" lon="2.65219">
        <ele>126.3</ele>
        <time>2018-11-18T08:25:40Z</time>
      </trkpt>
      <trkpt lat="48.45795" lon="2.65221">
        <ele>126.5</ele>
        <time>2018-11-18T08:25:41Z</time>
      </trkpt>
      <trkpt lat="48.45794" lon="2.65223">
        <ele>126.8</ele>
        <time>2018-11-18T08:25:42Z</time>
      </trkpt>
      <trkpt lat="48.45792" lon="2.65225">
        <ele>127</ele>
        <time>2018-11-18T08:25:43Z</time>
      </trkpt>
      <trkpt lat="48.4579" lon="2.65228">
        <ele>127.2</ele>
        <time>2018-11-18T08:25:44Z</time>
      </trkpt>
      <trkpt lat="48.45789" lon="2.6523">
        <ele>127.4</ele>
        <time>2018-11-18T08:25:45Z</time>
      </trkpt>
      <trkpt lat="48.45787" lon="2.65232">
        <ele>127.6</ele>
        <time>2018-11-18T08:25:46Z</time>
      </trkpt>
      <trkpt lat="48.45786" lon="2.65234">
        <ele>127.7</ele>
        <time>2018-11-18T08:25:47Z</time>
      </trkpt>
      <trkpt lat="48.45784" lon="2.65237">
        <ele>127.9</ele>
        <time>2018-11-18T08:25:48Z</time>
      </trkpt>
      <trkpt lat="48.45783" lon="2.65239">
        <ele>128.1</ele>
        <time>2018-11-18T08:25:49Z</time>
      </trkpt>
      <trkpt lat="48.45781" lon="2.6524">
        <ele>128.2</ele>
        <time>2018-11-18T08:25:50Z</time>
      </trkpt>
      <trkpt lat="48.4578" lon="2.65242">
        <ele>128.3</ele>
        <time>2018-11-18T08:25:51Z</time>
      </trkpt>
      <trkpt lat="48.45779" lon="2.65244">
        <ele>128.5</ele>
        <time>2018-11-18T08:25:52Z</time>
      </trkpt>
      <trkpt lat="48.45777" lon="2.65245">
        <ele>128.7</ele>
        <time>2018-11-18T08:25:53Z</time>
      </trkpt>
      <trkpt lat="48.45776" lon="2.65248">
        <ele>128.9</ele>
        <time>2018-11-18T08:25:54Z</time>
      </trkpt>
      <trkpt lat="48.45775" lon="2.6525">
        <ele>129</ele>
        <time>2018-11-18T08:25:55Z</time>
      </trkpt>
      <trkpt lat="48.45774" lon="2.65252">
        <ele>129.1</ele>
        <time>2018-11-18T08:25:56Z</time>
      </trkpt>
      <trkpt lat="48.45772" lon="2.65254">
        <ele>129.2</ele>
        <time>2018-11-18T08:25:57Z</time>
      </trkpt>
      <trkpt lat="48.45771" lon="2.65256">
        <ele>129.4</ele>
        <time>2018-11-18T08:25:58Z</time>
      </trkpt>
      <trkpt lat="48.45769" lon="2.65258">
        <ele>129.5</ele>
        <time>2018-11-18T08:25:59Z</time>
      </trkpt>
      <trkpt lat="48.45768" lon="2.6526">
        <ele>129.7</ele>
        <time>2018-11-18T08:26:00Z</time>
      </trkpt>
      <trkpt lat="48.45766" lon="2.65262">
        <ele>129.8</ele>
        <time>2018-11-18T08:26:01Z</time>
      </trkpt>
      <trkpt lat="48.45766" lon="2.65263">
        <ele>129.9</ele>
        <time>2018-11-18T08:26:02Z</time>
      </trkpt>
      <trkpt lat="48.45766" lon="2.65264">
        <ele>130</ele>
        <time>2018-11-18T08:26:03Z</time>
      </trkpt>
      <trkpt lat="48.45766" lon="2.65266">
        <ele>130.1</ele>
        <time>2018-11-18T08:26:04Z</time>
      </trkpt>
      <trkpt lat="48.45766" lon="2.65267">
        <ele>130.1</ele>
        <time>2018-11-18T08:26:05Z</time>
      </trkpt>
      <trkpt lat="48.45767" lon="2.65268">
        <ele>130.2</ele>
        <time>2018-11-18T08:26:06Z</time>
      </trkpt>
      <trkpt lat="48.45768" lon="2.65269">
        <ele>130.3</ele>
        <time>2018-11-18T08:26:07Z</time>
      </trkpt>
      <trkpt lat="48.45768" lon="2.6527">
        <ele>130.4</ele>
        <time>2018-11-18T08:26:08Z</time>
      </trkpt>
      <trkpt lat="48.45768" lon="2.65271">
        <ele>130.5</ele>
        <time>2018-11-18T08:26:09Z</time>
      </trkpt>
      <trkpt lat="48.45768" lon="2.65272">
        <ele>131.2</ele>
        <time>2018-11-18T08:26:10Z</time>
      </trkpt>
      <trkpt lat="48.45768" lon="2.65273">
        <ele>131.1</ele>
        <time>2018-11-18T08:26:11Z</time>
      </trkpt>
      <trkpt lat="48.45769" lon="2.65274">
        <ele>131.1</ele>
        <time>2018-11-18T08:26:21Z</time>
      </trkpt>
      <trkpt lat="48.4577" lon="2.65276">
        <ele>131.1</ele>
        <time>2018-11-18T08:26:22Z</time>
      </trkpt>
      <trkpt lat="48.45771" lon="2.65277">
        <ele>131</ele>
        <time>2018-11-18T08:26:23Z</time>
      </trkpt>
      <trkpt lat="48.45772" lon="2.65279">
        <ele>130.9</ele>
        <time>2018-11-18T08:26:24Z</time>
      </trkpt>
      <trkpt lat="48.45774" lon="2.65282">
        <ele>130.8</ele>
        <time>2018-11-18T08:26:25Z</time>
      </trkpt>
      <trkpt lat="48.45775" lon="2.65285">
        <ele>130.7</ele>
        <time>2018-11-18T08:26:26Z</time>
      </trkpt>
      <trkpt lat="48.45777" lon="2.65289">
        <ele>130.5</ele>
        <time>2018-11-18T08:26:27Z</time>
      </trkpt>
      <trkpt lat="48.45779" lon="2.65292">
        <ele>130.3</ele>
        <time>2018-11-18T08:26:28Z</time>
      </trkpt>
      <trkpt lat="48.4578" lon="2.65296">
        <ele>130.1</ele>
        <time>2018-11-18T08:26:29Z</time>
      </trkpt>
      <trkpt lat="48.45782" lon="2.653">
        <ele>129.8</ele>
        <time>2018-11-18T08:26:30Z</time>
      </trkpt>
      <trkpt lat="48.45785" lon="2.65304">
        <ele>129.6</ele>
        <time>2018-11-18T08:26:31Z</time>
      </trkpt>
      <trkpt lat="48.45788" lon="2.65307">
        <ele>129.3</ele>
        <time>2018-11-18T08:26:32Z</time>
      </trkpt>
      <trkpt lat="48.4579" lon="2.65311">
        <ele>129</ele>
        <time>2018-11-18T08:26:33Z</time>
      </trkpt>
      <trkpt lat="48.45793" lon="2.65314">
        <ele>128.7</ele>
        <time>2018-11-18T08:26:34Z</time>
      </trkpt>
      <trkpt lat="48.45796" lon="2.65316">
        <ele>128.5</ele>
        <time>2018-11-18T08:26:35Z</time>
      </trkpt>
      <trkpt lat="48.45798" lon="2.65319">
        <ele>128.3</ele>
        <time>2018-11-18T08:26:36Z</time>
      </trkpt>
      <trkpt lat="48.45801" lon="2.65321">
        <ele>128.1</ele>
        <time>2018-11-18T08:26:37Z</time>
      </trkpt>
      <trkpt lat="48.45804" lon="2.65323">
        <ele>128</ele>
        <time>2018-11-18T08:26:38Z</time>
      </trkpt>
      <trkpt lat="48.45806" lon="2.65325">
        <ele>127.9</ele>
        <time>2018-11-18T08:26:39Z</time>
      </trkpt>
      <trkpt lat="48.45809" lon="2.65327">
        <ele>127.7</ele>
        <time>2018-11-18T08:26:40Z</time>
      </trkpt>
      <trkpt lat="48.45812" lon="2.65328">
        <ele>127.6</ele>
        <time>2018-11-18T08:26:41Z</time>
      </trkpt>
      <trkpt lat="48.45815" lon="2.65329">
        <ele>127.5</ele>
        <time>2018-11-18T08:26:42Z</time>
      </trkpt>
      <trkpt lat="48.45818" lon="2.6533">
        <ele>127.4</ele>
        <time>2018-11-18T08:26:43Z</time>
      </trkpt>
      <trkpt lat="48.45821" lon="2.65331">
        <ele>127.3</ele>
        <time>2018-11-18T08:26:44Z</time>
      </trkpt>
      <trkpt lat="48.45823" lon="2.65332">
        <ele>127.3</ele>
        <time>2018-11-18T08:26:45Z</time>
      </trkpt>
      <trkpt lat="48.45826" lon="2.65332">
        <ele>127.2</ele>
        <time>2018-11-18T08:26:46Z</time>
      </trkpt>
      <trkpt lat="48.45828" lon="2.65332">
        <ele>127.2</ele>
        <time>2018-11-18T08:26:47Z</time>
      </trkpt>
      <trkpt lat="48.45831" lon="2.65332">
        <ele>127.2</ele>
        <time>2018-11-18T08:26:48Z</time>
      </trkpt>
      <trkpt lat="48.45834" lon="2.65332">
        <ele>127.2</ele>
        <time>2018-11-18T08:26:49Z</time>
      </trkpt>
      <trkpt lat="48.45837" lon="2.65333">
        <ele>127.1</ele>
        <time>2018-11-18T08:26:50Z</time>
      </trkpt>
      <trkpt lat="48.4584" lon="2.65333">
        <ele>127.1</ele>
        <time>2018-11-18T08:26:51Z</time>
      </trkpt>
      <trkpt lat="48.45842" lon="2.65333">
        <ele>127.1</ele>
        <time>2018-11-18T08:26:52Z</time>
      </trkpt>
      <trkpt lat="48.45845" lon="2.65334">
        <ele>127</ele>
        <time>2018-11-18T08:26:53Z</time>
      </trkpt>
      <trkpt lat="48.45848" lon="2.65334">
        <ele>126.9</ele>
        <time>2018-11-18T08:26:54Z</time>
      </trkpt>
      <trkpt lat="48.45852" lon="2.65334">
        <ele>126.9</ele>
        <time>2018-11-18T08:26:55Z</time>
      </trkpt>
      <trkpt lat="48.45855" lon="2.65334">
        <ele>126.7</ele>
        <time>2018-11-18T08:26:56Z</time>
      </trkpt>
      <trkpt lat="48.45858" lon="2.65333">
        <ele>126.6</ele>
        <time>2018-11-18T08:26:57Z</time>
      </trkpt>
      <trkpt lat="48.45862" lon="2.65333">
        <ele>126.5</ele>
        <time>2018-11-18T08:26:58Z</time>
      </trkpt>
      <trkpt lat="48.45866" lon="2.65333">
        <ele>126.3</ele>
        <time>2018-11-18T08:26:59Z</time>
      </trkpt>
      <trkpt lat="48.45869" lon="2.65332">
        <ele>126.2</ele>
        <time>2018-11-18T08:27:00Z</time>
      </trkpt>
      <trkpt lat="48.45873" lon="2.65332">
        <ele>126</ele>
        <time>2018-11-18T08:27:01Z</time>
      </trkpt>
      <trkpt lat="48.45876" lon="2.65331">
        <ele>125.8</ele>
        <time>2018-11-18T08:27:02Z</time>
      </trkpt>
      <trkpt lat="48.4588" lon="2.65331">
        <ele>125.6</ele>
        <time>2018-11-18T08:27:03Z</time>
      </trkpt>
      <trkpt lat="48.45883" lon="2.65331">
        <ele>125.4</ele>
        <time>2018-11-18T08:27:04Z</time>
      </trkpt>
      <trkpt lat="48.45886" lon="2.65331">
        <ele>125.2</ele>
        <time>2018-11-18T08:27:05Z</time>
      </trkpt>
      <trkpt lat="48.45889" lon="2.65331">
        <ele>125.1</ele>
        <time>2018-11-18T08:27:06Z</time>
      </trkpt>
      <trkpt lat="48.45892" lon="2.65331">
        <ele>124.9</ele>
        <time>2018-11-18T08:27:07Z</time>
      </trkpt>
      <trkpt lat="48.45895" lon="2.65331">
        <ele>124.8</ele>
        <time>2018-11-18T08:27:08Z</time>
      </trkpt>
      <trkpt lat="48.45897" lon="2.65332">
        <ele>124.6</ele>
        <time>2018-11-18T08:27:09Z</time>
      </trkpt>
      <trkpt lat="48.459" lon="2.65332">
        <ele>124.5</ele>
        <time>2018-11-18T08:27:10Z</time>
      </trkpt>
      <trkpt lat="48.45904" lon="2.65333">
        <ele>124.3</ele>
        <time>2018-11-18T08:27:11Z</time>
      </trkpt>
      <trkpt lat="48.45908" lon="2.65334">
        <ele>124.1</ele>
        <time>2018-11-18T08:27:12Z</time>
      </trkpt>
      <trkpt lat="48.45911" lon="2.65335">
        <ele>124</ele>
        <time>2018-11-18T08:27:13Z</time>
      </trkpt>
      <trkpt lat="48.45915" lon="2.65337">
        <ele>123.8</ele>
        <time>2018-11-18T08:27:14Z</time>
      </trkpt>
      <trkpt lat="48.45918" lon="2.65338">
        <ele>123.6</ele>
        <time>2018-11-18T08:27:15Z</time>
      </trkpt>
      <trkpt lat="48.45922" lon="2.65341">
        <ele>123.5</ele>
        <time>2018-11-18T08:27:16Z</time>
      </trkpt>
      <trkpt lat="48.45925" lon="2.65343">
        <ele>123.3</ele>
        <time>2018-11-18T08:27:17Z</time>
      </trkpt>
      <trkpt lat="48.45928" lon="2.65346">
        <ele>123.2</ele>
        <time>2018-11-18T08:27:18Z</time>
      </trkpt>
      <trkpt lat="48.45932" lon="2.65348">
        <ele>123</ele>
        <time>2018-11-18T08:27:19Z</time>
      </trkpt>
      <trkpt lat="48.45935" lon="2.65351">
        <ele>123</ele>
        <time>2018-11-18T08:27:20Z</time>
      </trkpt>
      <trkpt lat="48.45938" lon="2.65354">
        <ele>122.9</ele>
        <time>2018-11-18T08:27:21Z</time>
      </trkpt>
      <trkpt lat="48.45941" lon="2.65356">
        <ele>122.9</ele>
        <time>2018-11-18T08:27:22Z</time>
      </trkpt>
      <trkpt lat="48.45944" lon="2.65359">
        <ele>122.9</ele>
        <time>2018-11-18T08:27:23Z</time>
      </trkpt>
      <trkpt lat="48.45947" lon="2.65362">
        <ele>123</ele>
        <time>2018-11-18T08:27:24Z</time>
      </trkpt>
      <trkpt lat="48.45949" lon="2.65364">
        <ele>123</ele>
        <time>2018-11-18T08:27:25Z</time>
      </trkpt>
      <trkpt lat="48.45952" lon="2.65367">
        <ele>123</ele>
        <time>2018-11-18T08:27:26Z</time>
      </trkpt>
      <trkpt lat="48.45954" lon="2.65369">
        <ele>123.1</ele>
        <time>2018-11-18T08:27:27Z</time>
      </trkpt>
      <trkpt lat="48.45956" lon="2.65372">
        <ele>123.1</ele>
        <time>2018-11-18T08:27:28Z</time>
      </trkpt>
      <trkpt lat="48.45957" lon="2.65375">
        <ele>123.1</ele>
        <time>2018-11-18T08:27:29Z</time>
      </trkpt>
      <trkpt lat="48.45958" lon="2.65378">
        <ele>123.2</ele>
        <time>2018-11-18T08:27:30Z</time>
      </trkpt>
      <trkpt lat="48.4596" lon="2.65381">
        <ele>123.2</ele>
        <time>2018-11-18T08:27:31Z</time>
      </trkpt>
      <trkpt lat="48.45961" lon="2.65385">
        <ele>123.3</ele>
        <time>2018-11-18T08:27:32Z</time>
      </trkpt>
      <trkpt lat="48.45962" lon="2.65387">
        <ele>123.4</ele>
        <time>2018-11-18T08:27:33Z</time>
      </trkpt>
      <trkpt lat="48.45963" lon="2.6539">
        <ele>123.4</ele>
        <time>2018-11-18T08:27:34Z</time>
      </trkpt>
      <trkpt lat="48.45964" lon="2.65392">
        <ele>123.4</ele>
        <time>2018-11-18T08:27:35Z</time>
      </trkpt>
      <trkpt lat="48.45965" lon="2.65396">
        <ele>123.4</ele>
        <time>2018-11-18T08:27:36Z</time>
      </trkpt>
      <trkpt lat="48.45966" lon="2.65401">
        <ele>123.5</ele>
        <time>2018-11-18T08:27:37Z</time>
      </trkpt>
      <trkpt lat="48.45967" lon="2.65406">
        <ele>123.5</ele>
        <time>2018-11-18T08:27:38Z</time>
      </trkpt>
      <trkpt lat="48.45968" lon="2.65411">
        <ele>123.5</ele>
        <time>2018-11-18T08:27:39Z</time>
      </trkpt>
      <trkpt lat="48.45968" lon="2.65418">
        <ele>123.6</ele>
        <time>2018-11-18T08:27:40Z</time>
      </trkpt>
      <trkpt lat="48.45967" lon="2.65426">
        <ele>123.6</ele>
        <time>2018-11-18T08:27:41Z</time>
      </trkpt>
      <trkpt lat="48.45966" lon="2.65433">
        <ele>123.7</ele>
        <time>2018-11-18T08:27:42Z</time>
      </trkpt>
      <trkpt lat="48.45965" lon="2.6544">
        <ele>123.8</ele>
        <time>2018-11-18T08:27:43Z</time>
      </trkpt>
      <trkpt lat="48.45964" lon="2.65447">
        <ele>123.8</ele>
        <time>2018-11-18T08:27:44Z</time>
      </trkpt>
      <trkpt lat="48.45963" lon="2.65453">
        <ele>123.9</ele>
        <time>2018-11-18T08:27:45Z</time>
      </trkpt>
      <trkpt lat="48.45962" lon="2.65459">
        <ele>123.9</ele>
        <time>2018-11-18T08:27:46Z</time>
      </trkpt>
      <trkpt lat="48.45961" lon="2.65463">
        <ele>124</ele>
        <time>2018-11-18T08:27:47Z</time>
      </trkpt>
      <trkpt lat="48.45961" lon="2.65467">
        <ele>124</ele>
        <time>2018-11-18T08:27:48Z</time>
      </trkpt>
      <trkpt lat="48.4596" lon="2.6547">
        <ele>124.1</ele>
        <time>2018-11-18T08:27:49Z</time>
      </trkpt>
      <trkpt lat="48.4596" lon="2.65474">
        <ele>124.1</ele>
        <time>2018-11-18T08:27:50Z</time>
      </trkpt>
      <trkpt lat="48.4596" lon="2.65478">
        <ele>124.1</ele>
        <time>2018-11-18T08:27:51Z</time>
      </trkpt>
      <trkpt lat="48.45959" lon="2.65482">
        <ele>124.2</ele>
        <time>2018-11-18T08:27:52Z</time>
      </trkpt>
      <trkpt lat="48.45958" lon="2.65487">
        <ele>124.3</ele>
        <time>2018-11-18T08:27:53Z</time>
      </trkpt>
      <trkpt lat="48.45957" lon="2.65491">
        <ele>124.3</ele>
        <time>2018-11-18T08:27:54Z</time>
      </trkpt>
      <trkpt lat="48.45957" lon="2.65495">
        <ele>124.3</ele>
        <time>2018-11-18T08:27:55Z</time>
      </trkpt>
      <trkpt lat="48.45956" lon="2.65499">
        <ele>124.4</ele>
        <time>2018-11-18T08:27:56Z</time>
      </trkpt>
      <trkpt lat="48.45955" lon="2.65505">
        <ele>124.4</ele>
        <time>2018-11-18T08:27:57Z</time>
      </trkpt>
      <trkpt lat="48.45953" lon="2.65509">
        <ele>124.5</ele>
        <time>2018-11-18T08:27:58Z</time>
      </trkpt>
      <trkpt lat="48.45952" lon="2.65514">
        <ele>124.5</ele>
        <time>2018-11-18T08:27:59Z</time>
      </trkpt>
      <trkpt lat="48.4595" lon="2.65519">
        <ele>124.6</ele>
        <time>2018-11-18T08:28:00Z</time>
      </trkpt>
      <trkpt lat="48.45948" lon="2.65523">
        <ele>124.6</ele>
        <time>2018-11-18T08:28:01Z</time>
      </trkpt>
      <trkpt lat="48.45947" lon="2.65527">
        <ele>124.6</ele>
        <time>2018-11-18T08:28:02Z</time>
      </trkpt>
      <trkpt lat="48.45946" lon="2.65532">
        <ele>124.7</ele>
        <time>2018-11-18T08:28:03Z</time>
      </trkpt>
      <trkpt lat="48.45945" lon="2.65537">
        <ele>124.7</ele>
        <time>2018-11-18T08:28:04Z</time>
      </trkpt>
      <trkpt lat="48.45943" lon="2.65542">
        <ele>124.7</ele>
        <time>2018-11-18T08:28:05Z</time>
      </trkpt>
      <trkpt lat="48.45942" lon="2.65547">
        <ele>124.8</ele>
        <time>2018-11-18T08:28:06Z</time>
      </trkpt>
      <trkpt lat="48.45941" lon="2.65552">
        <ele>124.8</ele>
        <time>2018-11-18T08:28:07Z</time>
      </trkpt>
      <trkpt lat="48.4594" lon="2.65556">
        <ele>124.8</ele>
        <time>2018-11-18T08:28:08Z</time>
      </trkpt>
      <trkpt lat="48.4594" lon="2.6556">
        <ele>124.9</ele>
        <time>2018-11-18T08:28:09Z</time>
      </trkpt>
      <trkpt lat="48.45939" lon="2.65564">
        <ele>124.9</ele>
        <time>2018-11-18T08:28:10Z</time>
      </trkpt>
      <trkpt lat="48.45939" lon="2.65568">
        <ele>124.9</ele>
        <time>2018-11-18T08:28:11Z</time>
      </trkpt>
      <trkpt lat="48.45938" lon="2.65572">
        <ele>125</ele>
        <time>2018-11-18T08:28:12Z</time>
      </trkpt>
      <trkpt lat="48.45937" lon="2.65576">
        <ele>125</ele>
        <time>2018-11-18T08:28:13Z</time>
      </trkpt>
      <trkpt lat="48.45935" lon="2.65581">
        <ele>125</ele>
        <time>2018-11-18T08:28:14Z</time>
      </trkpt>
      <trkpt lat="48.45935" lon="2.65585">
        <ele>125.1</ele>
        <time>2018-11-18T08:28:15Z</time>
      </trkpt>
      <trkpt lat="48.45934" lon="2.65589">
        <ele>125.1</ele>
        <time>2018-11-18T08:28:16Z</time>
      </trkpt>
      <trkpt lat="48.45934" lon="2.65593">
        <ele>125.1</ele>
        <time>2018-11-18T08:28:17Z</time>
      </trkpt>
      <trkpt lat="48.45933" lon="2.65598">
        <ele>125.1</ele>
        <time>2018-11-18T08:28:18Z</time>
      </trkpt>
      <trkpt lat="48.45931" lon="2.65603">
        <ele>125.2</ele>
        <time>2018-11-18T08:28:19Z</time>
      </trkpt>
      <trkpt lat="48.4593" lon="2.65609">
        <ele>125.2</ele>
        <time>2018-11-18T08:28:20Z</time>
      </trkpt>
      <trkpt lat="48.45929" lon="2.65615">
        <ele>125.2</ele>
        <time>2018-11-18T08:28:21Z</time>
      </trkpt>
      <trkpt lat="48.45927" lon="2.6562">
        <ele>125.3</ele>
        <time>2018-11-18T08:28:22Z</time>
      </trkpt>
      <trkpt lat="48.45926" lon="2.65625">
        <ele>125.3</ele>
        <time>2018-11-18T08:28:23Z</time>
      </trkpt>
      <trkpt lat="48.45926" lon="2.65629">
        <ele>125.3</ele>
        <time>2018-11-18T08:28:24Z</time>
      </trkpt>
      <trkpt lat="48.45924" lon="2.65633">
        <ele>125.4</ele>
        <time>2018-11-18T08:28:25Z</time>
      </trkpt>
      <trkpt lat="48.45923" lon="2.65637">
        <ele>125.4</ele>
        <time>2018-11-18T08:28:26Z</time>
      </trkpt>
      <trkpt lat="48.45921" lon="2.65641">
        <ele>125.5</ele>
        <time>2018-11-18T08:28:27Z</time>
      </trkpt>
      <trkpt lat="48.4592" lon="2.65644">
        <ele>125.5</ele>
        <time>2018-11-18T08:28:28Z</time>
      </trkpt>
      <trkpt lat="48.45919" lon="2.65647">
        <ele>125.5</ele>
        <time>2018-11-18T08:28:29Z</time>
      </trkpt>
      <trkpt lat="48.45917" lon="2.65651">
        <ele>125.6</ele>
        <time>2018-11-18T08:28:30Z</time>
      </trkpt>
      <trkpt lat="48.45915" lon="2.65655">
        <ele>125.6</ele>
        <time>2018-11-18T08:28:31Z</time>
      </trkpt>
      <trkpt lat="48.45913" lon="2.65659">
        <ele>125.6</ele>
        <time>2018-11-18T08:28:32Z</time>
      </trkpt>
      <trkpt lat="48.45911" lon="2.65663">
        <ele>125.7</ele>
        <time>2018-11-18T08:28:33Z</time>
      </trkpt>
      <trkpt lat="48.45909" lon="2.65667">
        <ele>125.7</ele>
        <time>2018-11-18T08:28:34Z</time>
      </trkpt>
      <trkpt lat="48.45907" lon="2.6567">
        <ele>125.7</ele>
        <time>2018-11-18T08:28:35Z</time>
      </trkpt>
      <trkpt lat="48.45905" lon="2.65673">
        <ele>125.8</ele>
        <time>2018-11-18T08:28:36Z</time>
      </trkpt>
      <trkpt lat="48.45903" lon="2.65676">
        <ele>125.8</ele>
        <time>2018-11-18T08:28:37Z</time>
      </trkpt>
      <trkpt lat="48.45901" lon="2.65679">
        <ele>125.9</ele>
        <time>2018-11-18T08:28:38Z</time>
      </trkpt>
      <trkpt lat="48.45899" lon="2.65682">
        <ele>125.9</ele>
        <time>2018-11-18T08:28:39Z</time>
      </trkpt>
      <trkpt lat="48.45897" lon="2.65685">
        <ele>125.9</ele>
        <time>2018-11-18T08:28:40Z</time>
      </trkpt>
      <trkpt lat="48.45895" lon="2.65688">
        <ele>126</ele>
        <time>2018-11-18T08:28:41Z</time>
      </trkpt>
      <trkpt lat="48.45893" lon="2.65691">
        <ele>126</ele>
        <time>2018-11-18T08:28:42Z</time>
      </trkpt>
      <trkpt lat="48.45891" lon="2.65695">
        <ele>126</ele>
        <time>2018-11-18T08:28:43Z</time>
      </trkpt>
      <trkpt lat="48.4589" lon="2.65698">
        <ele>126.1</ele>
        <time>2018-11-18T08:28:44Z</time>
      </trkpt>
      <trkpt lat="48.45889" lon="2.65701">
        <ele>126.1</ele>
        <time>2018-11-18T08:28:45Z</time>
      </trkpt>
      <trkpt lat="48.45888" lon="2.65704">
        <ele>126.1</ele>
        <time>2018-11-18T08:28:46Z</time>
      </trkpt>
      <trkpt lat="48.45887" lon="2.65708">
        <ele>126.1</ele>
        <time>2018-11-18T08:28:47Z</time>
      </trkpt>
      <trkpt lat="48.45886" lon="2.65712">
        <ele>126.2</ele>
        <time>2018-11-18T08:28:48Z</time>
      </trkpt>
      <trkpt lat="48.45885" lon="2.65716">
        <ele>126.2</ele>
        <time>2018-11-18T08:28:49Z</time>
      </trkpt>
      <trkpt lat="48.45885" lon="2.65719">
        <ele>126.3</ele>
        <time>2018-11-18T08:28:50Z</time>
      </trkpt>
      <trkpt lat="48.45884" lon="2.65723">
        <ele>126.3</ele>
        <time>2018-11-18T08:28:51Z</time>
      </trkpt>
      <trkpt lat="48.45883" lon="2.65727">
        <ele>126.3</ele>
        <time>2018-11-18T08:28:52Z</time>
      </trkpt>
      <trkpt lat="48.45881" lon="2.65732">
        <ele>126.4</ele>
        <time>2018-11-18T08:28:53Z</time>
      </trkpt>
      <trkpt lat="48.45879" lon="2.65737">
        <ele>126.4</ele>
        <time>2018-11-18T08:28:54Z</time>
      </trkpt>
      <trkpt lat="48.45878" lon="2.65742">
        <ele>126.5</ele>
        <time>2018-11-18T08:28:55Z</time>
      </trkpt>
      <trkpt lat="48.45877" lon="2.65746">
        <ele>126.5</ele>
        <time>2018-11-18T08:28:56Z</time>
      </trkpt>
      <trkpt lat="48.45876" lon="2.6575">
        <ele>126.6</ele>
        <time>2018-11-18T08:28:57Z</time>
      </trkpt>
      <trkpt lat="48.45875" lon="2.65754">
        <ele>126.6</ele>
        <time>2018-11-18T08:28:58Z</time>
      </trkpt>
      <trkpt lat="48.45874" lon="2.65758">
        <ele>126.7</ele>
        <time>2018-11-18T08:28:59Z</time>
      </trkpt>
      <trkpt lat="48.45873" lon="2.65762">
        <ele>126.7</ele>
        <time>2018-11-18T08:29:00Z</time>
      </trkpt>
      <trkpt lat="48.45871" lon="2.65765">
        <ele>126.7</ele>
        <time>2018-11-18T08:29:01Z</time>
      </trkpt>
      <trkpt lat="48.4587" lon="2.6577">
        <ele>126.7</ele>
        <time>2018-11-18T08:29:02Z</time>
      </trkpt>
      <trkpt lat="48.45867" lon="2.65775">
        <ele>126.7</ele>
        <time>2018-11-18T08:29:03Z</time>
      </trkpt>
      <trkpt lat="48.45865" lon="2.65781">
        <ele>126.8</ele>
        <time>2018-11-18T08:29:04Z</time>
      </trkpt>
      <trkpt lat="48.45863" lon="2.65786">
        <ele>126.8</ele>
        <time>2018-11-18T08:29:05Z</time>
      </trkpt>
      <trkpt lat="48.4586" lon="2.65791">
        <ele>126.8</ele>
        <time>2018-11-18T08:29:06Z</time>
      </trkpt>
      <trkpt lat="48.45857" lon="2.65794">
        <ele>126.8</ele>
        <time>2018-11-18T08:29:07Z</time>
      </trkpt>
      <trkpt lat="48.45854" lon="2.65796">
        <ele>126.9</ele>
        <time>2018-11-18T08:29:08Z</time>
      </trkpt>
      <trkpt lat="48.45851" lon="2.65798">
        <ele>126.9</ele>
        <time>2018-11-18T08:29:09Z</time>
      </trkpt>
      <trkpt lat="48.45848" lon="2.65798">
        <ele>126.9</ele>
        <time>2018-11-18T08:29:10Z</time>
      </trkpt>
      <trkpt lat="48.45846" lon="2.65797">
        <ele>126.9</ele>
        <time>2018-11-18T08:29:11Z</time>
      </trkpt>
      <trkpt lat="48.45843" lon="2.65796">
        <ele>126.9</ele>
        <time>2018-11-18T08:29:12Z</time>
      </trkpt>
      <trkpt lat="48.4584" lon="2.65795">
        <ele>127</ele>
        <time>2018-11-18T08:29:13Z</time>
      </trkpt>
      <trkpt lat="48.45836" lon="2.65794">
        <ele>127</ele>
        <time>2018-11-18T08:29:14Z</time>
      </trkpt>
      <trkpt lat="48.45833" lon="2.65793">
        <ele>127.1</ele>
        <time>2018-11-18T08:29:15Z</time>
      </trkpt>
      <trkpt lat="48.4583" lon="2.65791">
        <ele>127.1</ele>
        <time>2018-11-18T08:29:16Z</time>
      </trkpt>
      <trkpt lat="48.45828" lon="2.65789">
        <ele>127.1</ele>
        <time>2018-11-18T08:29:17Z</time>
      </trkpt>
      <trkpt lat="48.45826" lon="2.65788">
        <ele>127.1</ele>
        <time>2018-11-18T08:29:18Z</time>
      </trkpt>
      <trkpt lat="48.45824" lon="2.65786">
        <ele>127.2</ele>
        <time>2018-11-18T08:29:19Z</time>
      </trkpt>
      <trkpt lat="48.45822" lon="2.65785">
        <ele>127.2</ele>
        <time>2018-11-18T08:29:20Z</time>
      </trkpt>
      <trkpt lat="48.45819" lon="2.65784">
        <ele>127.2</ele>
        <time>2018-11-18T08:29:21Z</time>
      </trkpt>
      <trkpt lat="48.45817" lon="2.65783">
        <ele>127.2</ele>
        <time>2018-11-18T08:29:22Z</time>
      </trkpt>
      <trkpt lat="48.45814" lon="2.65784">
        <ele>127.3</ele>
        <time>2018-11-18T08:29:23Z</time>
      </trkpt>
      <trkpt lat="48.45811" lon="2.65785">
        <ele>127.3</ele>
        <time>2018-11-18T08:29:24Z</time>
      </trkpt>
      <trkpt lat="48.45808" lon="2.65787">
        <ele>127.4</ele>
        <time>2018-11-18T08:29:25Z</time>
      </trkpt>
      <trkpt lat="48.45805" lon="2.6579">
        <ele>127.4</ele>
        <time>2018-11-18T08:29:26Z</time>
      </trkpt>
      <trkpt lat="48.45802" lon="2.65794">
        <ele>127.5</ele>
        <time>2018-11-18T08:29:27Z</time>
      </trkpt>
      <trkpt lat="48.45798" lon="2.65796">
        <ele>127.6</ele>
        <time>2018-11-18T08:29:28Z</time>
      </trkpt>
      <trkpt lat="48.45795" lon="2.65797">
        <ele>127.7</ele>
        <time>2018-11-18T08:29:29Z</time>
      </trkpt>
      <trkpt lat="48.45792" lon="2.65796">
        <ele>127.7</ele>
        <time>2018-11-18T08:29:30Z</time>
      </trkpt>
      <trkpt lat="48.45789" lon="2.65795">
        <ele>127.8</ele>
        <time>2018-11-18T08:29:31Z</time>
      </trkpt>
      <trkpt lat="48.45786" lon="2.65795">
        <ele>127.8</ele>
        <time>2018-11-18T08:29:32Z</time>
      </trkpt>
      <trkpt lat="48.45783" lon="2.65795">
        <ele>127.8</ele>
        <time>2018-11-18T08:29:33Z</time>
      </trkpt>
      <trkpt lat="48.4578" lon="2.65794">
        <ele>127.9</ele>
        <time>2018-11-18T08:29:34Z</time>
      </trkpt>
      <trkpt lat="48.45777" lon="2.65793">
        <ele>127.9</ele>
        <time>2018-11-18T08:29:35Z</time>
      </trkpt>
      <trkpt lat="48.45775" lon="2.65793">
        <ele>128</ele>
        <time>2018-11-18T08:29:36Z</time>
      </trkpt>
      <trkpt lat="48.45772" lon="2.65793">
        <ele>128</ele>
        <time>2018-11-18T08:29:37Z</time>
      </trkpt>
      <trkpt lat="48.45769" lon="2.65795">
        <ele>128.1</ele>
        <time>2018-11-18T08:29:38Z</time>
      </trkpt>
      <trkpt lat="48.45766" lon="2.65795">
        <ele>128.1</ele>
        <time>2018-11-18T08:29:39Z</time>
      </trkpt>
      <trkpt lat="48.45764" lon="2.65794">
        <ele>128.2</ele>
        <time>2018-11-18T08:29:40Z</time>
      </trkpt>
      <trkpt lat="48.45762" lon="2.65793">
        <ele>128.2</ele>
        <time>2018-11-18T08:29:41Z</time>
      </trkpt>
      <trkpt lat="48.4576" lon="2.65793">
        <ele>128.3</ele>
        <time>2018-11-18T08:29:42Z</time>
      </trkpt>
      <trkpt lat="48.45758" lon="2.65794">
        <ele>128.3</ele>
        <time>2018-11-18T08:29:43Z</time>
      </trkpt>
      <trkpt lat="48.45755" lon="2.65794">
        <ele>128.4</ele>
        <time>2018-11-18T08:29:44Z</time>
      </trkpt>
      <trkpt lat="48.45753" lon="2.65795">
        <ele>128.4</ele>
        <time>2018-11-18T08:29:45Z</time>
      </trkpt>
      <trkpt lat="48.4575" lon="2.65795">
        <ele>128.5</ele>
        <time>2018-11-18T08:29:46Z</time>
      </trkpt>
      <trkpt lat="48.45747" lon="2.65797">
        <ele>128.5</ele>
        <time>2018-11-18T08:29:47Z</time>
      </trkpt>
      <trkpt lat="48.45745" lon="2.65798">
        <ele>128.5</ele>
        <time>2018-11-18T08:29:48Z</time>
      </trkpt>
      <trkpt lat="48.45742" lon="2.658">
        <ele>128.5</ele>
        <time>2018-11-18T08:29:49Z</time>
      </trkpt>
      <trkpt lat="48.45739" lon="2.65801">
        <ele>128.5</ele>
        <time>2018-11-18T08:29:50Z</time>
      </trkpt>
      <trkpt lat="48.45736" lon="2.65801">
        <ele>128.5</ele>
        <time>2018-11-18T08:29:51Z</time>
      </trkpt>
      <trkpt lat="48.45734" lon="2.65802">
        <ele>128.4</ele>
        <time>2018-11-18T08:29:52Z</time>
      </trkpt>
      <trkpt lat="48.45732" lon="2.65804">
        <ele>128.4</ele>
        <time>2018-11-18T08:29:53Z</time>
      </trkpt>
      <trkpt lat="48.4573" lon="2.65805">
        <ele>128.4</ele>
        <time>2018-11-18T08:29:54Z</time>
      </trkpt>
      <trkpt lat="48.45728" lon="2.65807">
        <ele>128.4</ele>
        <time>2018-11-18T08:29:55Z</time>
      </trkpt>
      <trkpt lat="48.45727" lon="2.65809">
        <ele>128.4</ele>
        <time>2018-11-18T08:29:56Z</time>
      </trkpt>
      <trkpt lat="48.45726" lon="2.65811">
        <ele>128.4</ele>
        <time>2018-11-18T08:29:57Z</time>
      </trkpt>
      <trkpt lat="48.45724" lon="2.65812">
        <ele>128.4</ele>
        <time>2018-11-18T08:29:58Z</time>
      </trkpt>
      <trkpt lat="48.45723" lon="2.65814">
        <ele>128.4</ele>
        <time>2018-11-18T08:29:59Z</time>
      </trkpt>
      <trkpt lat="48.45721" lon="2.65815">
        <ele>128.4</ele>
        <time>2018-11-18T08:30:00Z</time>
      </trkpt>
      <trkpt lat="48.45719" lon="2.65815">
        <ele>128.4</ele>
        <time>2018-11-18T08:30:01Z</time>
      </trkpt>
      <trkpt lat="48.45717" lon="2.65816">
        <ele>128.4</ele>
        <time>2018-11-18T08:30:02Z</time>
      </trkpt>
      <trkpt lat="48.45716" lon="2.65817">
        <ele>128.4</ele>
        <time>2018-11-18T08:30:03Z</time>
      </trkpt>
      <trkpt lat="48.45715" lon="2.65819">
        <ele>128.4</ele>
        <time>2018-11-18T08:30:04Z</time>
      </trkpt>
      <trkpt lat="48.45714" lon="2.6582">
        <ele>128.3</ele>
        <time>2018-11-18T08:30:05Z</time>
      </trkpt>
      <trkpt lat="48.45713" lon="2.65822">
        <ele>128.3</ele>
        <time>2018-11-18T08:30:06Z</time>
      </trkpt>
      <trkpt lat="48.45711" lon="2.65824">
        <ele>128.3</ele>
        <time>2018-11-18T08:30:07Z</time>
      </trkpt>
      <trkpt lat="48.45709" lon="2.65826">
        <ele>128.3</ele>
        <time>2018-11-18T08:30:08Z</time>
      </trkpt>
      <trkpt lat="48.45707" lon="2.65828">
        <ele>128.3</ele>
        <time>2018-11-18T08:30:09Z</time>
      </trkpt>
      <trkpt lat="48.45705" lon="2.6583">
        <ele>128.3</ele>
        <time>2018-11-18T08:30:10Z</time>
      </trkpt>
      <trkpt lat="48.45703" lon="2.65832">
        <ele>128.3</ele>
        <time>2018-11-18T08:30:11Z</time>
      </trkpt>
      <trkpt lat="48.45701" lon="2.65834">
        <ele>128.3</ele>
        <time>2018-11-18T08:30:12Z</time>
      </trkpt>
      <trkpt lat="48.457" lon="2.65837">
        <ele>128.3</ele>
        <time>2018-11-18T08:30:13Z</time>
      </trkpt>
      <trkpt lat="48.45699" lon="2.65839">
        <ele>128.3</ele>
        <time>2018-11-18T08:30:14Z</time>
      </trkpt>
      <trkpt lat="48.45698" lon="2.65841">
        <ele>128.3</ele>
        <time>2018-11-18T08:30:15Z</time>
      </trkpt>
      <trkpt lat="48.45697" lon="2.65844">
        <ele>128.3</ele>
        <time>2018-11-18T08:30:16Z</time>
      </trkpt>
      <trkpt lat="48.45696" lon="2.65847">
        <ele>128.3</ele>
        <time>2018-11-18T08:30:17Z</time>
      </trkpt>
      <trkpt lat="48.45695" lon="2.6585">
        <ele>128.3</ele>
        <time>2018-11-18T08:30:18Z</time>
      </trkpt>
      <trkpt lat="48.45694" lon="2.65854">
        <ele>128.3</ele>
        <time>2018-11-18T08:30:19Z</time>
      </trkpt>
      <trkpt lat="48.45694" lon="2.65859">
        <ele>128.3</ele>
        <time>2018-11-18T08:30:20Z</time>
      </trkpt>
      <trkpt lat="48.45693" lon="2.65864">
        <ele>128.3</ele>
        <time>2018-11-18T08:30:21Z</time>
      </trkpt>
      <trkpt lat="48.45693" lon="2.65869">
        <ele>128.3</ele>
        <time>2018-11-18T08:30:22Z</time>
      </trkpt>
      <trkpt lat="48.45693" lon="2.65873">
        <ele>128.3</ele>
        <time>2018-11-18T08:30:23Z</time>
      </trkpt>
      <trkpt lat="48.45694" lon="2.65876">
        <ele>128.3</ele>
        <time>2018-11-18T08:30:24Z</time>
      </trkpt>
      <trkpt lat="48.45696" lon="2.6588">
        <ele>128.3</ele>
        <time>2018-11-18T08:30:25Z</time>
      </trkpt>
      <trkpt lat="48.45697" lon="2.65885">
        <ele>128.3</ele>
        <time>2018-11-18T08:30:26Z</time>
      </trkpt>
      <trkpt lat="48.45699" lon="2.65891">
        <ele>128.3</ele>
        <time>2018-11-18T08:30:27Z</time>
      </trkpt>
      <trkpt lat="48.45701" lon="2.65897">
        <ele>128.3</ele>
        <time>2018-11-18T08:30:28Z</time>
      </trkpt>
      <trkpt lat="48.45702" lon="2.65903">
        <ele>128.3</ele>
        <time>2018-11-18T08:30:29Z</time>
      </trkpt>
      <trkpt lat="48.45703" lon="2.6591">
        <ele>128.3</ele>
        <time>2018-11-18T08:30:30Z</time>
      </trkpt>
      <trkpt lat="48.45704" lon="2.65917">
        <ele>128.4</ele>
        <time>2018-11-18T08:30:31Z</time>
      </trkpt>
      <trkpt lat="48.45705" lon="2.65924">
        <ele>128.4</ele>
        <time>2018-11-18T08:30:32Z</time>
      </trkpt>
      <trkpt lat="48.45706" lon="2.65931">
        <ele>128.4</ele>
        <time>2018-11-18T08:30:33Z</time>
      </trkpt>
      <trkpt lat="48.45706" lon="2.65938">
        <ele>128.4</ele>
        <time>2018-11-18T08:30:34Z</time>
      </trkpt>
      <trkpt lat="48.45706" lon="2.65944">
        <ele>128.4</ele>
        <time>2018-11-18T08:30:35Z</time>
      </trkpt>
      <trkpt lat="48.45705" lon="2.65949">
        <ele>128.4</ele>
        <time>2018-11-18T08:30:36Z</time>
      </trkpt>
      <trkpt lat="48.45703" lon="2.65954">
        <ele>128.3</ele>
        <time>2018-11-18T08:30:37Z</time>
      </trkpt>
      <trkpt lat="48.45702" lon="2.65958">
        <ele>128.3</ele>
        <time>2018-11-18T08:30:38Z</time>
      </trkpt>
      <trkpt lat="48.457" lon="2.65963">
        <ele>128.3</ele>
        <time>2018-11-18T08:30:39Z</time>
      </trkpt>
      <trkpt lat="48.45698" lon="2.65967">
        <ele>128.3</ele>
        <time>2018-11-18T08:30:40Z</time>
      </trkpt>
      <trkpt lat="48.45697" lon="2.65972">
        <ele>128.3</ele>
        <time>2018-11-18T08:30:41Z</time>
      </trkpt>
      <trkpt lat="48.45695" lon="2.65975">
        <ele>128.3</ele>
        <time>2018-11-18T08:30:42Z</time>
      </trkpt>
      <trkpt lat="48.45693" lon="2.65978">
        <ele>128.3</ele>
        <time>2018-11-18T08:30:43Z</time>
      </trkpt>
      <trkpt lat="48.4569" lon="2.65982">
        <ele>128.2</ele>
        <time>2018-11-18T08:30:44Z</time>
      </trkpt>
      <trkpt lat="48.45689" lon="2.65985">
        <ele>128.2</ele>
        <time>2018-11-18T08:30:45Z</time>
      </trkpt>
      <trkpt lat="48.45687" lon="2.65989">
        <ele>128.2</ele>
        <time>2018-11-18T08:30:46Z</time>
      </trkpt>
      <trkpt lat="48.45685" lon="2.65993">
        <ele>128.2</ele>
        <time>2018-11-18T08:30:47Z</time>
      </trkpt>
      <trkpt lat="48.45683" lon="2.65996">
        <ele>128.2</ele>
        <time>2018-11-18T08:30:48Z</time>
      </trkpt>
      <trkpt lat="48.45681" lon="2.66">
        <ele>128.1</ele>
        <time>2018-11-18T08:30:49Z</time>
      </trkpt>
      <trkpt lat="48.4568" lon="2.66004">
        <ele>128.1</ele>
        <time>2018-11-18T08:30:50Z</time>
      </trkpt>
      <trkpt lat="48.45677" lon="2.66007">
        <ele>128.1</ele>
        <time>2018-11-18T08:30:51Z</time>
      </trkpt>
      <trkpt lat="48.45675" lon="2.66011">
        <ele>128.1</ele>
        <time>2018-11-18T08:30:52Z</time>
      </trkpt>
      <trkpt lat="48.45673" lon="2.66014">
        <ele>128.1</ele>
        <time>2018-11-18T08:30:53Z</time>
      </trkpt>
      <trkpt lat="48.45671" lon="2.66018">
        <ele>128.1</ele>
        <time>2018-11-18T08:30:54Z</time>
      </trkpt>
      <trkpt lat="48.45669" lon="2.66022">
        <ele>128.1</ele>
        <time>2018-11-18T08:30:55Z</time>
      </trkpt>
      <trkpt lat="48.45668" lon="2.66026">
        <ele>128.1</ele>
        <time>2018-11-18T08:30:56Z</time>
      </trkpt>
      <trkpt lat="48.45667" lon="2.6603">
        <ele>128.1</ele>
        <time>2018-11-18T08:30:57Z</time>
      </trkpt>
      <trkpt lat="48.45665" lon="2.66034">
        <ele>128.2</ele>
        <time>2018-11-18T08:30:58Z</time>
      </trkpt>
      <trkpt lat="48.45663" lon="2.66039">
        <ele>128.3</ele>
        <time>2018-11-18T08:30:59Z</time>
      </trkpt>
      <trkpt lat="48.45662" lon="2.66043">
        <ele>128.4</ele>
        <time>2018-11-18T08:31:00Z</time>
      </trkpt>
      <trkpt lat="48.45661" lon="2.66048">
        <ele>128.4</ele>
        <time>2018-11-18T08:31:01Z</time>
      </trkpt>
      <trkpt lat="48.4566" lon="2.66053">
        <ele>128.5</ele>
        <time>2018-11-18T08:31:02Z</time>
      </trkpt>
      <trkpt lat="48.4566" lon="2.66058">
        <ele>128.5</ele>
        <time>2018-11-18T08:31:03Z</time>
      </trkpt>
      <trkpt lat="48.45659" lon="2.66064">
        <ele>128.5</ele>
        <time>2018-11-18T08:31:04Z</time>
      </trkpt>
      <trkpt lat="48.45659" lon="2.66069">
        <ele>128.6</ele>
        <time>2018-11-18T08:31:05Z</time>
      </trkpt>
      <trkpt lat="48.45659" lon="2.66075">
        <ele>128.5</ele>
        <time>2018-11-18T08:31:06Z</time>
      </trkpt>
      <trkpt lat="48.4566" lon="2.66081">
        <ele>128.4</ele>
        <time>2018-11-18T08:31:07Z</time>
      </trkpt>
      <trkpt lat="48.45661" lon="2.66086">
        <ele>128.3</ele>
        <time>2018-11-18T08:31:08Z</time>
      </trkpt>
      <trkpt lat="48.45661" lon="2.66093">
        <ele>128.3</ele>
        <time>2018-11-18T08:31:09Z</time>
      </trkpt>
      <trkpt lat="48.45663" lon="2.661">
        <ele>128.2</ele>
        <time>2018-11-18T08:31:10Z</time>
      </trkpt>
      <trkpt lat="48.45663" lon="2.66107">
        <ele>128.1</ele>
        <time>2018-11-18T08:31:11Z</time>
      </trkpt>
      <trkpt lat="48.45664" lon="2.66115">
        <ele>128</ele>
        <time>2018-11-18T08:31:12Z</time>
      </trkpt>
      <trkpt lat="48.45665" lon="2.66122">
        <ele>127.9</ele>
        <time>2018-11-18T08:31:13Z</time>
      </trkpt>
      <trkpt lat="48.45667" lon="2.66129">
        <ele>127.9</ele>
        <time>2018-11-18T08:31:14Z</time>
      </trkpt>
      <trkpt lat="48.45668" lon="2.66137">
        <ele>127.8</ele>
        <time>2018-11-18T08:31:15Z</time>
      </trkpt>
      <trkpt lat="48.4567" lon="2.66145">
        <ele>127.8</ele>
        <time>2018-11-18T08:31:16Z</time>
      </trkpt>
      <trkpt lat="48.45672" lon="2.66152">
        <ele>127.8</ele>
        <time>2018-11-18T08:31:17Z</time>
      </trkpt>
      <trkpt lat="48.45674" lon="2.66159">
        <ele>127.8</ele>
        <time>2018-11-18T08:31:18Z</time>
      </trkpt>
      <trkpt lat="48.45675" lon="2.66165">
        <ele>127.8</ele>
        <time>2018-11-18T08:31:19Z</time>
      </trkpt>
      <trkpt lat="48.45676" lon="2.66172">
        <ele>127.8</ele>
        <time>2018-11-18T08:31:20Z</time>
      </trkpt>
      <trkpt lat="48.45677" lon="2.66179">
        <ele>127.8</ele>
        <time>2018-11-18T08:31:21Z</time>
      </trkpt>
      <trkpt lat="48.45678" lon="2.66185">
        <ele>127.7</ele>
        <time>2018-11-18T08:31:22Z</time>
      </trkpt>
      <trkpt lat="48.45679" lon="2.66191">
        <ele>127.7</ele>
        <time>2018-11-18T08:31:23Z</time>
      </trkpt>
      <trkpt lat="48.4568" lon="2.66197">
        <ele>127.7</ele>
        <time>2018-11-18T08:31:24Z</time>
      </trkpt>
      <trkpt lat="48.45682" lon="2.66202">
        <ele>127.7</ele>
        <time>2018-11-18T08:31:25Z</time>
      </trkpt>
      <trkpt lat="48.45683" lon="2.66207">
        <ele>127.7</ele>
        <time>2018-11-18T08:31:26Z</time>
      </trkpt>
      <trkpt lat="48.45685" lon="2.66213">
        <ele>127.7</ele>
        <time>2018-11-18T08:31:27Z</time>
      </trkpt>
      <trkpt lat="48.45686" lon="2.66218">
        <ele>127.7</ele>
        <time>2018-11-18T08:31:28Z</time>
      </trkpt>
      <trkpt lat="48.45687" lon="2.66224">
        <ele>127.7</ele>
        <time>2018-11-18T08:31:29Z</time>
      </trkpt>
      <trkpt lat="48.45688" lon="2.6623">
        <ele>127.7</ele>
        <time>2018-11-18T08:31:30Z</time>
      </trkpt>
      <trkpt lat="48.4569" lon="2.66236">
        <ele>127.7</ele>
        <time>2018-11-18T08:31:31Z</time>
      </trkpt>
      <trkpt lat="48.45691" lon="2.66242">
        <ele>127.6</ele>
        <time>2018-11-18T08:31:32Z</time>
      </trkpt>
      <trkpt lat="48.45693" lon="2.66247">
        <ele>127.6</ele>
        <time>2018-11-18T08:31:33Z</time>
      </trkpt>
      <trkpt lat="48.45694" lon="2.66251">
        <ele>127.6</ele>
        <time>2018-11-18T08:31:34Z</time>
      </trkpt>
      <trkpt lat="48.45695" lon="2.66254">
        <ele>127.6</ele>
        <time>2018-11-18T08:31:35Z</time>
      </trkpt>
      <trkpt lat="48.45695" lon="2.66255">
        <ele>127.6</ele>
        <time>2018-11-18T08:31:36Z</time>
      </trkpt>
      <trkpt lat="48.45696" lon="2.66257">
        <ele>127.5</ele>
        <time>2018-11-18T08:31:37Z</time>
      </trkpt>
      <trkpt lat="48.45696" lon="2.66258">
        <ele>127.5</ele>
        <time>2018-11-18T08:31:38Z</time>
      </trkpt>
      <trkpt lat="48.45696" lon="2.66259">
        <ele>127.5</ele>
        <time>2018-11-18T08:31:39Z</time>
      </trkpt>
      <trkpt lat="48.45697" lon="2.66261">
        <ele>127.5</ele>
        <time>2018-11-18T08:31:40Z</time>
      </trkpt>
      <trkpt lat="48.45697" lon="2.66262">
        <ele>127.5</ele>
        <time>2018-11-18T08:31:41Z</time>
      </trkpt>
      <trkpt lat="48.45698" lon="2.66265">
        <ele>127.5</ele>
        <time>2018-11-18T08:31:42Z</time>
      </trkpt>
      <trkpt lat="48.45699" lon="2.66269">
        <ele>127.5</ele>
        <time>2018-11-18T08:31:43Z</time>
      </trkpt>
      <trkpt lat="48.457" lon="2.66273">
        <ele>127.4</ele>
        <time>2018-11-18T08:31:44Z</time>
      </trkpt>
      <trkpt lat="48.45702" lon="2.66277">
        <ele>127.4</ele>
        <time>2018-11-18T08:31:45Z</time>
      </trkpt>
      <trkpt lat="48.45703" lon="2.66281">
        <ele>127.4</ele>
        <time>2018-11-18T08:31:46Z</time>
      </trkpt>
      <trkpt lat="48.45703" lon="2.66286">
        <ele>127.4</ele>
        <time>2018-11-18T08:31:47Z</time>
      </trkpt>
      <trkpt lat="48.45704" lon="2.6629">
        <ele>127.3</ele>
        <time>2018-11-18T08:31:48Z</time>
      </trkpt>
      <trkpt lat="48.45704" lon="2.66295">
        <ele>127.3</ele>
        <time>2018-11-18T08:31:49Z</time>
      </trkpt>
      <trkpt lat="48.45705" lon="2.663">
        <ele>127.2</ele>
        <time>2018-11-18T08:31:50Z</time>
      </trkpt>
      <trkpt lat="48.45706" lon="2.66305">
        <ele>127.2</ele>
        <time>2018-11-18T08:31:51Z</time>
      </trkpt>
      <trkpt lat="48.45707" lon="2.66311">
        <ele>127.2</ele>
        <time>2018-11-18T08:31:52Z</time>
      </trkpt>
      <trkpt lat="48.45708" lon="2.66316">
        <ele>127.2</ele>
        <time>2018-11-18T08:31:53Z</time>
      </trkpt>
      <trkpt lat="48.45708" lon="2.66321">
        <ele>127.1</ele>
        <time>2018-11-18T08:31:54Z</time>
      </trkpt>
      <trkpt lat="48.45709" lon="2.66327">
        <ele>127.1</ele>
        <time>2018-11-18T08:31:55Z</time>
      </trkpt>
      <trkpt lat="48.4571" lon="2.66332">
        <ele>127.1</ele>
        <time>2018-11-18T08:31:56Z</time>
      </trkpt>
      <trkpt lat="48.45711" lon="2.66337">
        <ele>127.1</ele>
        <time>2018-11-18T08:31:57Z</time>
      </trkpt>
      <trkpt lat="48.45712" lon="2.66342">
        <ele>127.1</ele>
        <time>2018-11-18T08:31:58Z</time>
      </trkpt>
      <trkpt lat="48.45713" lon="2.66347">
        <ele>127.1</ele>
        <time>2018-11-18T08:31:59Z</time>
      </trkpt>
      <trkpt lat="48.45713" lon="2.66352">
        <ele>127.1</ele>
        <time>2018-11-18T08:32:00Z</time>
      </trkpt>
      <trkpt lat="48.45713" lon="2.66357">
        <ele>127.1</ele>
        <time>2018-11-18T08:32:01Z</time>
      </trkpt>
      <trkpt lat="48.45713" lon="2.66362">
        <ele>127.1</ele>
        <time>2018-11-18T08:32:02Z</time>
      </trkpt>
      <trkpt lat="48.45713" lon="2.66365">
        <ele>127.1</ele>
        <time>2018-11-18T08:32:03Z</time>
      </trkpt>
      <trkpt lat="48.45715" lon="2.66368">
        <ele>127.2</ele>
        <time>2018-11-18T08:32:04Z</time>
      </trkpt>
      <trkpt lat="48.45716" lon="2.66372">
        <ele>127.2</ele>
        <time>2018-11-18T08:32:05Z</time>
      </trkpt>
      <trkpt lat="48.45718" lon="2.66376">
        <ele>127.2</ele>
        <time>2018-11-18T08:32:06Z</time>
      </trkpt>
      <trkpt lat="48.45718" lon="2.6638">
        <ele>127.2</ele>
        <time>2018-11-18T08:32:07Z</time>
      </trkpt>
      <trkpt lat="48.45719" lon="2.66384">
        <ele>127.1</ele>
        <time>2018-11-18T08:32:08Z</time>
      </trkpt>
      <trkpt lat="48.45719" lon="2.66388">
        <ele>127.1</ele>
        <time>2018-11-18T08:32:09Z</time>
      </trkpt>
      <trkpt lat="48.4572" lon="2.66392">
        <ele>127.1</ele>
        <time>2018-11-18T08:32:10Z</time>
      </trkpt>
      <trkpt lat="48.4572" lon="2.66396">
        <ele>127.1</ele>
        <time>2018-11-18T08:32:11Z</time>
      </trkpt>
      <trkpt lat="48.4572" lon="2.664">
        <ele>127.1</ele>
        <time>2018-11-18T08:32:12Z</time>
      </trkpt>
      <trkpt lat="48.4572" lon="2.66405">
        <ele>127.1</ele>
        <time>2018-11-18T08:32:13Z</time>
      </trkpt>
      <trkpt lat="48.45721" lon="2.66409">
        <ele>127</ele>
        <time>2018-11-18T08:32:14Z</time>
      </trkpt>
      <trkpt lat="48.45722" lon="2.66415">
        <ele>127</ele>
        <time>2018-11-18T08:32:15Z</time>
      </trkpt>
      <trkpt lat="48.45723" lon="2.66421">
        <ele>126.9</ele>
        <time>2018-11-18T08:32:16Z</time>
      </trkpt>
      <trkpt lat="48.45724" lon="2.66426">
        <ele>126.9</ele>
        <time>2018-11-18T08:32:17Z</time>
      </trkpt>
      <trkpt lat="48.45724" lon="2.66432">
        <ele>126.8</ele>
        <time>2018-11-18T08:32:18Z</time>
      </trkpt>
      <trkpt lat="48.45725" lon="2.66438">
        <ele>126.8</ele>
        <time>2018-11-18T08:32:19Z</time>
      </trkpt>
      <trkpt lat="48.45725" lon="2.66444">
        <ele>126.7</ele>
        <time>2018-11-18T08:32:20Z</time>
      </trkpt>
      <trkpt lat="48.45726" lon="2.66451">
        <ele>126.7</ele>
        <time>2018-11-18T08:32:21Z</time>
      </trkpt>
      <trkpt lat="48.45726" lon="2.66457">
        <ele>126.6</ele>
        <time>2018-11-18T08:32:22Z</time>
      </trkpt>
      <trkpt lat="48.45727" lon="2.66464">
        <ele>126.6</ele>
        <time>2018-11-18T08:32:23Z</time>
      </trkpt>
      <trkpt lat="48.45728" lon="2.6647">
        <ele>126.5</ele>
        <time>2018-11-18T08:32:24Z</time>
      </trkpt>
      <trkpt lat="48.45728" lon="2.66476">
        <ele>126.5</ele>
        <time>2018-11-18T08:32:25Z</time>
      </trkpt>
      <trkpt lat="48.45729" lon="2.66481">
        <ele>126.5</ele>
        <time>2018-11-18T08:32:26Z</time>
      </trkpt>
      <trkpt lat="48.45729" lon="2.66487">
        <ele>126.4</ele>
        <time>2018-11-18T08:32:27Z</time>
      </trkpt>
      <trkpt lat="48.4573" lon="2.66494">
        <ele>126.4</ele>
        <time>2018-11-18T08:32:28Z</time>
      </trkpt>
      <trkpt lat="48.45731" lon="2.665">
        <ele>126.4</ele>
        <time>2018-11-18T08:32:29Z</time>
      </trkpt>
      <trkpt lat="48.45733" lon="2.66506">
        <ele>126.4</ele>
        <time>2018-11-18T08:32:30Z</time>
      </trkpt>
      <trkpt lat="48.45735" lon="2.66511">
        <ele>126.4</ele>
        <time>2018-11-18T08:32:31Z</time>
      </trkpt>
      <trkpt lat="48.45736" lon="2.66516">
        <ele>126.3</ele>
        <time>2018-11-18T08:32:32Z</time>
      </trkpt>
      <trkpt lat="48.45738" lon="2.66521">
        <ele>126.3</ele>
        <time>2018-11-18T08:32:33Z</time>
      </trkpt>
      <trkpt lat="48.45739" lon="2.66526">
        <ele>126.3</ele>
        <time>2018-11-18T08:32:34Z</time>
      </trkpt>
      <trkpt lat="48.4574" lon="2.6653">
        <ele>126.3</ele>
        <time>2018-11-18T08:32:35Z</time>
      </trkpt>
      <trkpt lat="48.45741" lon="2.66534">
        <ele>126.3</ele>
        <time>2018-11-18T08:32:36Z</time>
      </trkpt>
      <trkpt lat="48.45743" lon="2.66538">
        <ele>126.3</ele>
        <time>2018-11-18T08:32:37Z</time>
      </trkpt>
      <trkpt lat="48.45744" lon="2.66542">
        <ele>126.3</ele>
        <time>2018-11-18T08:32:38Z</time>
      </trkpt>
      <trkpt lat="48.45746" lon="2.66545">
        <ele>126.3</ele>
        <time>2018-11-18T08:32:39Z</time>
      </trkpt>
      <trkpt lat="48.45748" lon="2.66549">
        <ele>126.3</ele>
        <time>2018-11-18T08:32:40Z</time>
      </trkpt>
      <trkpt lat="48.45749" lon="2.66553">
        <ele>126.3</ele>
        <time>2018-11-18T08:32:41Z</time>
      </trkpt>
      <trkpt lat="48.45751" lon="2.66557">
        <ele>126.3</ele>
        <time>2018-11-18T08:32:42Z</time>
      </trkpt>
      <trkpt lat="48.45752" lon="2.6656">
        <ele>126.3</ele>
        <time>2018-11-18T08:32:43Z</time>
      </trkpt>
      <trkpt lat="48.45753" lon="2.66564">
        <ele>126.3</ele>
        <time>2018-11-18T08:32:44Z</time>
      </trkpt>
      <trkpt lat="48.45753" lon="2.66569">
        <ele>126.2</ele>
        <time>2018-11-18T08:32:45Z</time>
      </trkpt>
      <trkpt lat="48.45754" lon="2.66574">
        <ele>126.2</ele>
        <time>2018-11-18T08:32:46Z</time>
      </trkpt>
      <trkpt lat="48.45755" lon="2.6658">
        <ele>126.2</ele>
        <time>2018-11-18T08:32:47Z</time>
      </trkpt>
      <trkpt lat="48.45755" lon="2.66585">
        <ele>126.2</ele>
        <time>2018-11-18T08:32:48Z</time>
      </trkpt>
      <trkpt lat="48.45755" lon="2.6659">
        <ele>126.2</ele>
        <time>2018-11-18T08:32:49Z</time>
      </trkpt>
      <trkpt lat="48.45755" lon="2.66595">
        <ele>126.1</ele>
        <time>2018-11-18T08:32:50Z</time>
      </trkpt>
      <trkpt lat="48.45755" lon="2.66599">
        <ele>126.1</ele>
        <time>2018-11-18T08:32:51Z</time>
      </trkpt>
      <trkpt lat="48.45755" lon="2.66604">
        <ele>126.1</ele>
        <time>2018-11-18T08:32:52Z</time>
      </trkpt>
      <trkpt lat="48.45756" lon="2.66608">
        <ele>126.1</ele>
        <time>2018-11-18T08:32:53Z</time>
      </trkpt>
      <trkpt lat="48.45755" lon="2.66613">
        <ele>126.1</ele>
        <time>2018-11-18T08:32:54Z</time>
      </trkpt>
      <trkpt lat="48.45756" lon="2.66618">
        <ele>126.1</ele>
        <time>2018-11-18T08:32:55Z</time>
      </trkpt>
      <trkpt lat="48.45756" lon="2.66624">
        <ele>126.1</ele>
        <time>2018-11-18T08:32:56Z</time>
      </trkpt>
      <trkpt lat="48.45756" lon="2.66629">
        <ele>126</ele>
        <time>2018-11-18T08:32:57Z</time>
      </trkpt>
      <trkpt lat="48.45755" lon="2.66635">
        <ele>126</ele>
        <time>2018-11-18T08:32:58Z</time>
      </trkpt>
      <trkpt lat="48.45755" lon="2.66641">
        <ele>126</ele>
        <time>2018-11-18T08:32:59Z</time>
      </trkpt>
      <trkpt lat="48.45755" lon="2.66646">
        <ele>126</ele>
        <time>2018-11-18T08:33:00Z</time>
      </trkpt>
      <trkpt lat="48.45756" lon="2.66652">
        <ele>126</ele>
        <time>2018-11-18T08:33:01Z</time>
      </trkpt>
      <trkpt lat="48.45756" lon="2.66658">
        <ele>126</ele>
        <time>2018-11-18T08:33:02Z</time>
      </trkpt>
      <trkpt lat="48.45756" lon="2.66664">
        <ele>125.9</ele>
        <time>2018-11-18T08:33:03Z</time>
      </trkpt>
      <trkpt lat="48.45755" lon="2.66671">
        <ele>125.9</ele>
        <time>2018-11-18T08:33:04Z</time>
      </trkpt>
      <trkpt lat="48.45754" lon="2.66676">
        <ele>125.8</ele>
        <time>2018-11-18T08:33:05Z</time>
      </trkpt>
      <trkpt lat="48.45752" lon="2.66681">
        <ele>125.8</ele>
        <time>2018-11-18T08:33:06Z</time>
      </trkpt>
      <trkpt lat="48.45751" lon="2.66686">
        <ele>125.8</ele>
        <time>2018-11-18T08:33:07Z</time>
      </trkpt>
      <trkpt lat="48.45749" lon="2.66691">
        <ele>125.7</ele>
        <time>2018-11-18T08:33:08Z</time>
      </trkpt>
      <trkpt lat="48.45747" lon="2.66696">
        <ele>125.7</ele>
        <time>2018-11-18T08:33:09Z</time>
      </trkpt>
      <trkpt lat="48.45746" lon="2.66701">
        <ele>125.7</ele>
        <time>2018-11-18T08:33:10Z</time>
      </trkpt>
      <trkpt lat="48.45744" lon="2.66706">
        <ele>125.6</ele>
        <time>2018-11-18T08:33:11Z</time>
      </trkpt>
      <trkpt lat="48.45743" lon="2.66711">
        <ele>125.6</ele>
        <time>2018-11-18T08:33:12Z</time>
      </trkpt>
      <trkpt lat="48.45743" lon="2.66716">
        <ele>125.6</ele>
        <time>2018-11-18T08:33:13Z</time>
      </trkpt>
      <trkpt lat="48.45742" lon="2.66721">
        <ele>125.5</ele>
        <time>2018-11-18T08:33:14Z</time>
      </trkpt>
      <trkpt lat="48.4574" lon="2.66725">
        <ele>125.5</ele>
        <time>2018-11-18T08:33:15Z</time>
      </trkpt>
      <trkpt lat="48.45738" lon="2.66728">
        <ele>125.4</ele>
        <time>2018-11-18T08:33:16Z</time>
      </trkpt>
      <trkpt lat="48.45736" lon="2.66732">
        <ele>125.4</ele>
        <time>2018-11-18T08:33:17Z</time>
      </trkpt>
      <trkpt lat="48.45734" lon="2.66736">
        <ele>125.3</ele>
        <time>2018-11-18T08:33:18Z</time>
      </trkpt>
      <trkpt lat="48.45732" lon="2.6674">
        <ele>125.2</ele>
        <time>2018-11-18T08:33:19Z</time>
      </trkpt>
      <trkpt lat="48.4573" lon="2.66744">
        <ele>125.1</ele>
        <time>2018-11-18T08:33:20Z</time>
      </trkpt>
      <trkpt lat="48.45727" lon="2.66748">
        <ele>125</ele>
        <time>2018-11-18T08:33:21Z</time>
      </trkpt>
      <trkpt lat="48.45725" lon="2.66752">
        <ele>124.9</ele>
        <time>2018-11-18T08:33:22Z</time>
      </trkpt>
      <trkpt lat="48.45723" lon="2.66756">
        <ele>124.8</ele>
        <time>2018-11-18T08:33:23Z</time>
      </trkpt>
      <trkpt lat="48.4572" lon="2.66759">
        <ele>124.7</ele>
        <time>2018-11-18T08:33:24Z</time>
      </trkpt>
      <trkpt lat="48.45718" lon="2.66762">
        <ele>124.6</ele>
        <time>2018-11-18T08:33:25Z</time>
      </trkpt>
      <trkpt lat="48.45716" lon="2.66765">
        <ele>124.5</ele>
        <time>2018-11-18T08:33:26Z</time>
      </trkpt>
      <trkpt lat="48.45714" lon="2.66768">
        <ele>124.4</ele>
        <time>2018-11-18T08:33:27Z</time>
      </trkpt>
      <trkpt lat="48.45712" lon="2.66771">
        <ele>124.3</ele>
        <time>2018-11-18T08:33:28Z</time>
      </trkpt>
      <trkpt lat="48.4571" lon="2.66774">
        <ele>124.1</ele>
        <time>2018-11-18T08:33:29Z</time>
      </trkpt>
      <trkpt lat="48.45708" lon="2.66776">
        <ele>123.8</ele>
        <time>2018-11-18T08:33:30Z</time>
      </trkpt>
      <trkpt lat="48.45706" lon="2.66778">
        <ele>123.8</ele>
        <time>2018-11-18T08:33:31Z</time>
      </trkpt>
      <trkpt lat="48.45703" lon="2.66779">
        <ele>123.8</ele>
        <time>2018-11-18T08:33:32Z</time>
      </trkpt>
      <trkpt lat="48.45701" lon="2.66782">
        <ele>123.8</ele>
        <time>2018-11-18T08:33:33Z</time>
      </trkpt>
      <trkpt lat="48.45699" lon="2.66784">
        <ele>123.7</ele>
        <time>2018-11-18T08:33:34Z</time>
      </trkpt>
      <trkpt lat="48.45696" lon="2.66785">
        <ele>123.7</ele>
        <time>2018-11-18T08:33:35Z</time>
      </trkpt>
      <trkpt lat="48.45693" lon="2.66785">
        <ele>123.6</ele>
        <time>2018-11-18T08:33:36Z</time>
      </trkpt>
      <trkpt lat="48.4569" lon="2.66783">
        <ele>123.6</ele>
        <time>2018-11-18T08:33:37Z</time>
      </trkpt>
      <trkpt lat="48.45686" lon="2.66782">
        <ele>123.5</ele>
        <time>2018-11-18T08:33:38Z</time>
      </trkpt>
      <trkpt lat="48.45683" lon="2.66781">
        <ele>123.3</ele>
        <time>2018-11-18T08:33:39Z</time>
      </trkpt>
      <trkpt lat="48.4568" lon="2.6678">
        <ele>123.2</ele>
        <time>2018-11-18T08:33:40Z</time>
      </trkpt>
      <trkpt lat="48.45677" lon="2.66777">
        <ele>123.1</ele>
        <time>2018-11-18T08:33:41Z</time>
      </trkpt>
      <trkpt lat="48.45672" lon="2.66776">
        <ele>123</ele>
        <time>2018-11-18T08:33:42Z</time>
      </trkpt>
      <trkpt lat="48.45668" lon="2.66775">
        <ele>122.8</ele>
        <time>2018-11-18T08:33:43Z</time>
      </trkpt>
      <trkpt lat="48.45663" lon="2.66774">
        <ele>122.6</ele>
        <time>2018-11-18T08:33:44Z</time>
      </trkpt>
      <trkpt lat="48.45658" lon="2.66775">
        <ele>122.4</ele>
        <time>2018-11-18T08:33:45Z</time>
      </trkpt>
      <trkpt lat="48.45653" lon="2.66776">
        <ele>122.2</ele>
        <time>2018-11-18T08:33:46Z</time>
      </trkpt>
      <trkpt lat="48.45649" lon="2.66778">
        <ele>122</ele>
        <time>2018-11-18T08:33:47Z</time>
      </trkpt>
      <trkpt lat="48.45645" lon="2.6678">
        <ele>121.8</ele>
        <time>2018-11-18T08:33:48Z</time>
      </trkpt>
      <trkpt lat="48.45643" lon="2.66782">
        <ele>121.7</ele>
        <time>2018-11-18T08:33:49Z</time>
      </trkpt>
      <trkpt lat="48.4564" lon="2.66783">
        <ele>121.6</ele>
        <time>2018-11-18T08:33:50Z</time>
      </trkpt>
      <trkpt lat="48.45637" lon="2.66784">
        <ele>121.5</ele>
        <time>2018-11-18T08:33:51Z</time>
      </trkpt>
      <trkpt lat="48.45635" lon="2.66786">
        <ele>121.4</ele>
        <time>2018-11-18T08:33:52Z</time>
      </trkpt>
      <trkpt lat="48.45632" lon="2.66788">
        <ele>121.3</ele>
        <time>2018-11-18T08:33:53Z</time>
      </trkpt>
      <trkpt lat="48.45629" lon="2.6679">
        <ele>121.1</ele>
        <time>2018-11-18T08:33:54Z</time>
      </trkpt>
      <trkpt lat="48.45626" lon="2.66793">
        <ele>121.3</ele>
        <time>2018-11-18T08:33:55Z</time>
      </trkpt>
      <trkpt lat="48.45623" lon="2.66796">
        <ele>121.4</ele>
        <time>2018-11-18T08:33:56Z</time>
      </trkpt>
      <trkpt lat="48.4562" lon="2.66798">
        <ele>121.5</ele>
        <time>2018-11-18T08:33:57Z</time>
      </trkpt>
      <trkpt lat="48.45617" lon="2.668">
        <ele>121.6</ele>
        <time>2018-11-18T08:33:58Z</time>
      </trkpt>
      <trkpt lat="48.45615" lon="2.66801">
        <ele>121.6</ele>
        <time>2018-11-18T08:33:59Z</time>
      </trkpt>
      <trkpt lat="48.45613" lon="2.66801">
        <ele>121.7</ele>
        <time>2018-11-18T08:34:00Z</time>
      </trkpt>
      <trkpt lat="48.45611" lon="2.66801">
        <ele>121.7</ele>
        <time>2018-11-18T08:34:01Z</time>
      </trkpt>
      <trkpt lat="48.45609" lon="2.668">
        <ele>121.7</ele>
        <time>2018-11-18T08:34:02Z</time>
      </trkpt>
      <trkpt lat="48.45607" lon="2.668">
        <ele>121.8</ele>
        <time>2018-11-18T08:34:03Z</time>
      </trkpt>
      <trkpt lat="48.45605" lon="2.668">
        <ele>121.8</ele>
        <time>2018-11-18T08:34:04Z</time>
      </trkpt>
      <trkpt lat="48.45603" lon="2.66801">
        <ele>121.9</ele>
        <time>2018-11-18T08:34:05Z</time>
      </trkpt>
      <trkpt lat="48.45601" lon="2.66801">
        <ele>122</ele>
        <time>2018-11-18T08:34:06Z</time>
      </trkpt>
      <trkpt lat="48.45599" lon="2.66803">
        <ele>122</ele>
        <time>2018-11-18T08:34:07Z</time>
      </trkpt>
      <trkpt lat="48.45596" lon="2.66804">
        <ele>122.1</ele>
        <time>2018-11-18T08:34:08Z</time>
      </trkpt>
      <trkpt lat="48.45594" lon="2.66806">
        <ele>122.2</ele>
        <time>2018-11-18T08:34:09Z</time>
      </trkpt>
      <trkpt lat="48.45592" lon="2.66807">
        <ele>122.3</ele>
        <time>2018-11-18T08:34:10Z</time>
      </trkpt>
      <trkpt lat="48.4559" lon="2.66808">
        <ele>122.3</ele>
        <time>2018-11-18T08:34:11Z</time>
      </trkpt>
      <trkpt lat="48.45588" lon="2.66809">
        <ele>122.3</ele>
        <time>2018-11-18T08:34:12Z</time>
      </trkpt>
      <trkpt lat="48.45586" lon="2.66811">
        <ele>122.4</ele>
        <time>2018-11-18T08:34:13Z</time>
      </trkpt>
      <trkpt lat="48.45584" lon="2.66812">
        <ele>122.4</ele>
        <time>2018-11-18T08:34:14Z</time>
      </trkpt>
      <trkpt lat="48.45582" lon="2.66813">
        <ele>122.5</ele>
        <time>2018-11-18T08:34:15Z</time>
      </trkpt>
      <trkpt lat="48.4558" lon="2.66814">
        <ele>122.5</ele>
        <time>2018-11-18T08:34:16Z</time>
      </trkpt>
      <trkpt lat="48.45578" lon="2.66815">
        <ele>122.6</ele>
        <time>2018-11-18T08:34:17Z</time>
      </trkpt>
      <trkpt lat="48.45576" lon="2.66817">
        <ele>122.6</ele>
        <time>2018-11-18T08:34:18Z</time>
      </trkpt>
      <trkpt lat="48.45574" lon="2.66818">
        <ele>122.6</ele>
        <time>2018-11-18T08:34:19Z</time>
      </trkpt>
      <trkpt lat="48.45573" lon="2.66819">
        <ele>122.7</ele>
        <time>2018-11-18T08:34:20Z</time>
      </trkpt>
      <trkpt lat="48.45571" lon="2.66821">
        <ele>122.7</ele>
        <time>2018-11-18T08:34:21Z</time>
      </trkpt>
      <trkpt lat="48.4557" lon="2.66822">
        <ele>122.7</ele>
        <time>2018-11-18T08:34:22Z</time>
      </trkpt>
      <trkpt lat="48.45568" lon="2.66824">
        <ele>122.8</ele>
        <time>2018-11-18T08:34:23Z</time>
      </trkpt>
      <trkpt lat="48.45567" lon="2.66826">
        <ele>122.8</ele>
        <time>2018-11-18T08:34:24Z</time>
      </trkpt>
      <trkpt lat="48.45565" lon="2.66828">
        <ele>122.9</ele>
        <time>2018-11-18T08:34:25Z</time>
      </trkpt>
      <trkpt lat="48.45564" lon="2.6683">
        <ele>122.9</ele>
        <time>2018-11-18T08:34:26Z</time>
      </trkpt>
      <trkpt lat="48.45563" lon="2.66831">
        <ele>122.9</ele>
        <time>2018-11-18T08:34:27Z</time>
      </trkpt>
      <trkpt lat="48.45563" lon="2.66833">
        <ele>122.9</ele>
        <time>2018-11-18T08:34:28Z</time>
      </trkpt>
      <trkpt lat="48.45562" lon="2.66835">
        <ele>123</ele>
        <time>2018-11-18T08:34:29Z</time>
      </trkpt>
      <trkpt lat="48.45562" lon="2.66837">
        <ele>123</ele>
        <time>2018-11-18T08:34:30Z</time>
      </trkpt>
      <trkpt lat="48.45561" lon="2.6684">
        <ele>123</ele>
        <time>2018-11-18T08:34:31Z</time>
      </trkpt>
      <trkpt lat="48.4556" lon="2.66842">
        <ele>123.1</ele>
        <time>2018-11-18T08:34:32Z</time>
      </trkpt>
      <trkpt lat="48.45559" lon="2.66843">
        <ele>123.1</ele>
        <time>2018-11-18T08:34:33Z</time>
      </trkpt>
      <trkpt lat="48.45558" lon="2.66845">
        <ele>123.1</ele>
        <time>2018-11-18T08:34:34Z</time>
      </trkpt>
      <trkpt lat="48.45557" lon="2.66847">
        <ele>123.2</ele>
        <time>2018-11-18T08:34:35Z</time>
      </trkpt>
      <trkpt lat="48.45556" lon="2.66849">
        <ele>123.2</ele>
        <time>2018-11-18T08:34:36Z</time>
      </trkpt>
      <trkpt lat="48.45556" lon="2.6685">
        <ele>123.2</ele>
        <time>2018-11-18T08:34:37Z</time>
      </trkpt>
      <trkpt lat="48.45555" lon="2.66852">
        <ele>123.2</ele>
        <time>2018-11-18T08:34:38Z</time>
      </trkpt>
      <trkpt lat="48.45555" lon="2.66854">
        <ele>123.3</ele>
        <time>2018-11-18T08:34:39Z</time>
      </trkpt>
      <trkpt lat="48.45554" lon="2.66856">
        <ele>123.3</ele>
        <time>2018-11-18T08:34:40Z</time>
      </trkpt>
      <trkpt lat="48.45554" lon="2.66859">
        <ele>123.3</ele>
        <time>2018-11-18T08:34:41Z</time>
      </trkpt>
      <trkpt lat="48.45554" lon="2.66861">
        <ele>123.3</ele>
        <time>2018-11-18T08:34:42Z</time>
      </trkpt>
      <trkpt lat="48.45553" lon="2.66864">
        <ele>123.3</ele>
        <time>2018-11-18T08:34:43Z</time>
      </trkpt>
      <trkpt lat="48.45553" lon="2.66867">
        <ele>123.4</ele>
        <time>2018-11-18T08:34:44Z</time>
      </trkpt>
      <trkpt lat="48.45553" lon="2.66869">
        <ele>123.4</ele>
        <time>2018-11-18T08:34:45Z</time>
      </trkpt>
      <trkpt lat="48.45553" lon="2.66872">
        <ele>123.4</ele>
        <time>2018-11-18T08:34:46Z</time>
      </trkpt>
      <trkpt lat="48.45552" lon="2.66874">
        <ele>123.4</ele>
        <time>2018-11-18T08:34:47Z</time>
      </trkpt>
      <trkpt lat="48.45552" lon="2.66878">
        <ele>123.5</ele>
        <time>2018-11-18T08:34:48Z</time>
      </trkpt>
      <trkpt lat="48.45552" lon="2.66881">
        <ele>123.5</ele>
        <time>2018-11-18T08:34:49Z</time>
      </trkpt>
      <trkpt lat="48.45552" lon="2.66884">
        <ele>123.5</ele>
        <time>2018-11-18T08:34:50Z</time>
      </trkpt>
      <trkpt lat="48.45551" lon="2.66888">
        <ele>123.5</ele>
        <time>2018-11-18T08:34:51Z</time>
      </trkpt>
      <trkpt lat="48.45551" lon="2.66891">
        <ele>123.6</ele>
        <time>2018-11-18T08:34:52Z</time>
      </trkpt>
      <trkpt lat="48.4555" lon="2.66895">
        <ele>123.6</ele>
        <time>2018-11-18T08:34:53Z</time>
      </trkpt>
      <trkpt lat="48.4555" lon="2.669">
        <ele>123.6</ele>
        <time>2018-11-18T08:34:54Z</time>
      </trkpt>
      <trkpt lat="48.45549" lon="2.66904">
        <ele>123.7</ele>
        <time>2018-11-18T08:34:55Z</time>
      </trkpt>
      <trkpt lat="48.45548" lon="2.66907">
        <ele>123.7</ele>
        <time>2018-11-18T08:34:56Z</time>
      </trkpt>
      <trkpt lat="48.45547" lon="2.66911">
        <ele>123.7</ele>
        <time>2018-11-18T08:34:57Z</time>
      </trkpt>
      <trkpt lat="48.45546" lon="2.66914">
        <ele>123.8</ele>
        <time>2018-11-18T08:34:58Z</time>
      </trkpt>
      <trkpt lat="48.45546" lon="2.66918">
        <ele>123.8</ele>
        <time>2018-11-18T08:34:59Z</time>
      </trkpt>
      <trkpt lat="48.45544" lon="2.66921">
        <ele>123.8</ele>
        <time>2018-11-18T08:35:00Z</time>
      </trkpt>
      <trkpt lat="48.45543" lon="2.66925">
        <ele>123.8</ele>
        <time>2018-11-18T08:35:01Z</time>
      </trkpt>
      <trkpt lat="48.45541" lon="2.66928">
        <ele>123.8</ele>
        <time>2018-11-18T08:35:02Z</time>
      </trkpt>
      <trkpt lat="48.4554" lon="2.66932">
        <ele>123.9</ele>
        <time>2018-11-18T08:35:03Z</time>
      </trkpt>
      <trkpt lat="48.45538" lon="2.66937">
        <ele>123.9</ele>
        <time>2018-11-18T08:35:04Z</time>
      </trkpt>
      <trkpt lat="48.45535" lon="2.6694">
        <ele>123.9</ele>
        <time>2018-11-18T08:35:05Z</time>
      </trkpt>
      <trkpt lat="48.45533" lon="2.66944">
        <ele>123.9</ele>
        <time>2018-11-18T08:35:06Z</time>
      </trkpt>
      <trkpt lat="48.45531" lon="2.66947">
        <ele>124</ele>
        <time>2018-11-18T08:35:07Z</time>
      </trkpt>
      <trkpt lat="48.45529" lon="2.66949">
        <ele>124</ele>
        <time>2018-11-18T08:35:08Z</time>
      </trkpt>
      <trkpt lat="48.45526" lon="2.66951">
        <ele>124</ele>
        <time>2018-11-18T08:35:09Z</time>
      </trkpt>
      <trkpt lat="48.45523" lon="2.66952">
        <ele>124.1</ele>
        <time>2018-11-18T08:35:10Z</time>
      </trkpt>
      <trkpt lat="48.45521" lon="2.66953">
        <ele>124.1</ele>
        <time>2018-11-18T08:35:11Z</time>
      </trkpt>
      <trkpt lat="48.45519" lon="2.66955">
        <ele>124.1</ele>
        <time>2018-11-18T08:35:12Z</time>
      </trkpt>
      <trkpt lat="48.45516" lon="2.66957">
        <ele>124.1</ele>
        <time>2018-11-18T08:35:13Z</time>
      </trkpt>
      <trkpt lat="48.45513" lon="2.66958">
        <ele>124.2</ele>
        <time>2018-11-18T08:35:14Z</time>
      </trkpt>
      <trkpt lat="48.4551" lon="2.6696">
        <ele>124.2</ele>
        <time>2018-11-18T08:35:15Z</time>
      </trkpt>
      <trkpt lat="48.45508" lon="2.66963">
        <ele>124.2</ele>
        <time>2018-11-18T08:35:16Z</time>
      </trkpt>
      <trkpt lat="48.45506" lon="2.66966">
        <ele>124.2</ele>
        <time>2018-11-18T08:35:17Z</time>
      </trkpt>
      <trkpt lat="48.45504" lon="2.66967">
        <ele>124.2</ele>
        <time>2018-11-18T08:35:18Z</time>
      </trkpt>
      <trkpt lat="48.45502" lon="2.66969">
        <ele>124.2</ele>
        <time>2018-11-18T08:35:19Z</time>
      </trkpt>
      <trkpt lat="48.45499" lon="2.6697">
        <ele>124.2</ele>
        <time>2018-11-18T08:35:20Z</time>
      </trkpt>
      <trkpt lat="48.45496" lon="2.66971">
        <ele>124.2</ele>
        <time>2018-11-18T08:35:21Z</time>
      </trkpt>
      <trkpt lat="48.45493" lon="2.66971">
        <ele>124.3</ele>
        <time>2018-11-18T08:35:22Z</time>
      </trkpt>
      <trkpt lat="48.45491" lon="2.6697">
        <ele>124.3</ele>
        <time>2018-11-18T08:35:23Z</time>
      </trkpt>
      <trkpt lat="48.45489" lon="2.6697">
        <ele>124.3</ele>
        <time>2018-11-18T08:35:24Z</time>
      </trkpt>
      <trkpt lat="48.45486" lon="2.6697">
        <ele>124.3</ele>
        <time>2018-11-18T08:35:25Z</time>
      </trkpt>
      <trkpt lat="48.45484" lon="2.66971">
        <ele>124.3</ele>
        <time>2018-11-18T08:35:26Z</time>
      </trkpt>
      <trkpt lat="48.45481" lon="2.66971">
        <ele>124.3</ele>
        <time>2018-11-18T08:35:27Z</time>
      </trkpt>
      <trkpt lat="48.45478" lon="2.6697">
        <ele>124.3</ele>
        <time>2018-11-18T08:35:28Z</time>
      </trkpt>
      <trkpt lat="48.45474" lon="2.6697">
        <ele>124.3</ele>
        <time>2018-11-18T08:35:29Z</time>
      </trkpt>
      <trkpt lat="48.45469" lon="2.66971">
        <ele>124.2</ele>
        <time>2018-11-18T08:35:30Z</time>
      </trkpt>
      <trkpt lat="48.45465" lon="2.66971">
        <ele>124.2</ele>
        <time>2018-11-18T08:35:31Z</time>
      </trkpt>
      <trkpt lat="48.45461" lon="2.6697">
        <ele>124.2</ele>
        <time>2018-11-18T08:35:32Z</time>
      </trkpt>
      <trkpt lat="48.45457" lon="2.6697">
        <ele>124.2</ele>
        <time>2018-11-18T08:35:33Z</time>
      </trkpt>
      <trkpt lat="48.45454" lon="2.6697">
        <ele>124.2</ele>
        <time>2018-11-18T08:35:34Z</time>
      </trkpt>
      <trkpt lat="48.4545" lon="2.6697">
        <ele>124.2</ele>
        <time>2018-11-18T08:35:35Z</time>
      </trkpt>
      <trkpt lat="48.45447" lon="2.66969">
        <ele>124.2</ele>
        <time>2018-11-18T08:35:36Z</time>
      </trkpt>
      <trkpt lat="48.45443" lon="2.66968">
        <ele>124.2</ele>
        <time>2018-11-18T08:35:37Z</time>
      </trkpt>
      <trkpt lat="48.45439" lon="2.66966">
        <ele>124.2</ele>
        <time>2018-11-18T08:35:38Z</time>
      </trkpt>
      <trkpt lat="48.45435" lon="2.66964">
        <ele>124.2</ele>
        <time>2018-11-18T08:35:39Z</time>
      </trkpt>
      <trkpt lat="48.45431" lon="2.66961">
        <ele>124.2</ele>
        <time>2018-11-18T08:35:40Z</time>
      </trkpt>
      <trkpt lat="48.45428" lon="2.66958">
        <ele>124.2</ele>
        <time>2018-11-18T08:35:41Z</time>
      </trkpt>
      <trkpt lat="48.45423" lon="2.66956">
        <ele>124.2</ele>
        <time>2018-11-18T08:35:42Z</time>
      </trkpt>
      <trkpt lat="48.45419" lon="2.66956">
        <ele>124.3</ele>
        <time>2018-11-18T08:35:43Z</time>
      </trkpt>
      <trkpt lat="48.45416" lon="2.66957">
        <ele>124.3</ele>
        <time>2018-11-18T08:35:44Z</time>
      </trkpt>
      <trkpt lat="48.45412" lon="2.66958">
        <ele>124.4</ele>
        <time>2018-11-18T08:35:45Z</time>
      </trkpt>
      <trkpt lat="48.45409" lon="2.66959">
        <ele>124.4</ele>
        <time>2018-11-18T08:35:46Z</time>
      </trkpt>
      <trkpt lat="48.45406" lon="2.6696">
        <ele>124.5</ele>
        <time>2018-11-18T08:35:47Z</time>
      </trkpt>
      <trkpt lat="48.45404" lon="2.6696">
        <ele>124.6</ele>
        <time>2018-11-18T08:35:48Z</time>
      </trkpt>
      <trkpt lat="48.45403" lon="2.6696">
        <ele>124.7</ele>
        <time>2018-11-18T08:35:49Z</time>
      </trkpt>
      <trkpt lat="48.45401" lon="2.6696">
        <ele>124.7</ele>
        <time>2018-11-18T08:35:50Z</time>
      </trkpt>
      <trkpt lat="48.45399" lon="2.6696">
        <ele>124.8</ele>
        <time>2018-11-18T08:35:51Z</time>
      </trkpt>
      <trkpt lat="48.45397" lon="2.66961">
        <ele>124.9</ele>
        <time>2018-11-18T08:35:52Z</time>
      </trkpt>
      <trkpt lat="48.45395" lon="2.66961">
        <ele>125</ele>
        <time>2018-11-18T08:35:53Z</time>
      </trkpt>
      <trkpt lat="48.45393" lon="2.66961">
        <ele>125</ele>
        <time>2018-11-18T08:35:54Z</time>
      </trkpt>
      <trkpt lat="48.45391" lon="2.66962">
        <ele>125.1</ele>
        <time>2018-11-18T08:35:55Z</time>
      </trkpt>
      <trkpt lat="48.45389" lon="2.66963">
        <ele>125.2</ele>
        <time>2018-11-18T08:35:56Z</time>
      </trkpt>
      <trkpt lat="48.45388" lon="2.66964">
        <ele>125.2</ele>
        <time>2018-11-18T08:35:57Z</time>
      </trkpt>
      <trkpt lat="48.45386" lon="2.66965">
        <ele>125.3</ele>
        <time>2018-11-18T08:35:58Z</time>
      </trkpt>
      <trkpt lat="48.45385" lon="2.66966">
        <ele>125.3</ele>
        <time>2018-11-18T08:35:59Z</time>
      </trkpt>
      <trkpt lat="48.45383" lon="2.66966">
        <ele>125.4</ele>
        <time>2018-11-18T08:36:00Z</time>
      </trkpt>
      <trkpt lat="48.45382" lon="2.66966">
        <ele>125.4</ele>
        <time>2018-11-18T08:36:01Z</time>
      </trkpt>
      <trkpt lat="48.4538" lon="2.66967">
        <ele>125.5</ele>
        <time>2018-11-18T08:36:02Z</time>
      </trkpt>
      <trkpt lat="48.45378" lon="2.66968">
        <ele>125.6</ele>
        <time>2018-11-18T08:36:03Z</time>
      </trkpt>
      <trkpt lat="48.45376" lon="2.66969">
        <ele>125.6</ele>
        <time>2018-11-18T08:36:04Z</time>
      </trkpt>
      <trkpt lat="48.45375" lon="2.6697">
        <ele>125.7</ele>
        <time>2018-11-18T08:36:05Z</time>
      </trkpt>
      <trkpt lat="48.45373" lon="2.66971">
        <ele>125.7</ele>
        <time>2018-11-18T08:36:06Z</time>
      </trkpt>
      <trkpt lat="48.45372" lon="2.66972">
        <ele>125.8</ele>
        <time>2018-11-18T08:36:07Z</time>
      </trkpt>
      <trkpt lat="48.45371" lon="2.66973">
        <ele>125.8</ele>
        <time>2018-11-18T08:36:08Z</time>
      </trkpt>
      <trkpt lat="48.45369" lon="2.66974">
        <ele>125.9</ele>
        <time>2018-11-18T08:36:09Z</time>
      </trkpt>
      <trkpt lat="48.45369" lon="2.66976">
        <ele>125.9</ele>
        <time>2018-11-18T08:36:10Z</time>
      </trkpt>
      <trkpt lat="48.45368" lon="2.66978">
        <ele>126</ele>
        <time>2018-11-18T08:36:11Z</time>
      </trkpt>
      <trkpt lat="48.45367" lon="2.66979">
        <ele>126</ele>
        <time>2018-11-18T08:36:12Z</time>
      </trkpt>
      <trkpt lat="48.45365" lon="2.66981">
        <ele>126.1</ele>
        <time>2018-11-18T08:36:13Z</time>
      </trkpt>
      <trkpt lat="48.45365" lon="2.66982">
        <ele>126.1</ele>
        <time>2018-11-18T08:36:14Z</time>
      </trkpt>
      <trkpt lat="48.45364" lon="2.66984">
        <ele>126.2</ele>
        <time>2018-11-18T08:36:15Z</time>
      </trkpt>
      <trkpt lat="48.45363" lon="2.66986">
        <ele>126.2</ele>
        <time>2018-11-18T08:36:16Z</time>
      </trkpt>
      <trkpt lat="48.45362" lon="2.66988">
        <ele>126.3</ele>
        <time>2018-11-18T08:36:17Z</time>
      </trkpt>
      <trkpt lat="48.45361" lon="2.6699">
        <ele>126.4</ele>
        <time>2018-11-18T08:36:18Z</time>
      </trkpt>
      <trkpt lat="48.4536" lon="2.66992">
        <ele>126.4</ele>
        <time>2018-11-18T08:36:19Z</time>
      </trkpt>
      <trkpt lat="48.4536" lon="2.66993">
        <ele>126.4</ele>
        <time>2018-11-18T08:36:20Z</time>
      </trkpt>
      <trkpt lat="48.45359" lon="2.66993">
        <ele>126.4</ele>
        <time>2018-11-18T08:36:21Z</time>
      </trkpt>
      <trkpt lat="48.45359" lon="2.66993">
        <ele>126.5</ele>
        <time>2018-11-18T08:36:22Z</time>
      </trkpt>
      <trkpt lat="48.45359" lon="2.66993">
        <ele>126.5</ele>
        <time>2018-11-18T08:36:23Z</time>
      </trkpt>
      <trkpt lat="48.45357" lon="2.66999">
        <ele>126.6</ele>
        <time>2018-11-18T08:36:31Z</time>
      </trkpt>
      <trkpt lat="48.45356" lon="2.67001">
        <ele>126.6</ele>
        <time>2018-11-18T08:36:32Z</time>
      </trkpt>
      <trkpt lat="48.45356" lon="2.67002">
        <ele>126.6</ele>
        <time>2018-11-18T08:36:33Z</time>
      </trkpt>
      <trkpt lat="48.45355" lon="2.67003">
        <ele>126.7</ele>
        <time>2018-11-18T08:36:34Z</time>
      </trkpt>
      <trkpt lat="48.45354" lon="2.67005">
        <ele>126.7</ele>
        <time>2018-11-18T08:36:35Z</time>
      </trkpt>
      <trkpt lat="48.45354" lon="2.67006">
        <ele>126.7</ele>
        <time>2018-11-18T08:36:36Z</time>
      </trkpt>
      <trkpt lat="48.45353" lon="2.67008">
        <ele>126.8</ele>
        <time>2018-11-18T08:36:37Z</time>
      </trkpt>
      <trkpt lat="48.45352" lon="2.67009">
        <ele>126.8</ele>
        <time>2018-11-18T08:36:38Z</time>
      </trkpt>
      <trkpt lat="48.45351" lon="2.6701">
        <ele>126.8</ele>
        <time>2018-11-18T08:36:39Z</time>
      </trkpt>
      <trkpt lat="48.4535" lon="2.67011">
        <ele>126.9</ele>
        <time>2018-11-18T08:36:40Z</time>
      </trkpt>
      <trkpt lat="48.45349" lon="2.67012">
        <ele>126.9</ele>
        <time>2018-11-18T08:36:41Z</time>
      </trkpt>
      <trkpt lat="48.45348" lon="2.67012">
        <ele>126.9</ele>
        <time>2018-11-18T08:36:42Z</time>
      </trkpt>
      <trkpt lat="48.45346" lon="2.67013">
        <ele>126.9</ele>
        <time>2018-11-18T08:36:43Z</time>
      </trkpt>
      <trkpt lat="48.45345" lon="2.67015">
        <ele>127</ele>
        <time>2018-11-18T08:36:44Z</time>
      </trkpt>
      <trkpt lat="48.45344" lon="2.67016">
        <ele>127</ele>
        <time>2018-11-18T08:36:45Z</time>
      </trkpt>
      <trkpt lat="48.45343" lon="2.67016">
        <ele>127</ele>
        <time>2018-11-18T08:36:46Z</time>
      </trkpt>
      <trkpt lat="48.45342" lon="2.67018">
        <ele>127.1</ele>
        <time>2018-11-18T08:36:47Z</time>
      </trkpt>
      <trkpt lat="48.45341" lon="2.67019">
        <ele>127.1</ele>
        <time>2018-11-18T08:36:48Z</time>
      </trkpt>
      <trkpt lat="48.4534" lon="2.67021">
        <ele>127.1</ele>
        <time>2018-11-18T08:36:49Z</time>
      </trkpt>
      <trkpt lat="48.45339" lon="2.67022">
        <ele>127.2</ele>
        <time>2018-11-18T08:36:50Z</time>
      </trkpt>
      <trkpt lat="48.45339" lon="2.67024">
        <ele>127.2</ele>
        <time>2018-11-18T08:36:51Z</time>
      </trkpt>
      <trkpt lat="48.45338" lon="2.67025">
        <ele>127.2</ele>
        <time>2018-11-18T08:36:52Z</time>
      </trkpt>
      <trkpt lat="48.45336" lon="2.67027">
        <ele>127.3</ele>
        <time>2018-11-18T08:36:53Z</time>
      </trkpt>
      <trkpt lat="48.45335" lon="2.67028">
        <ele>127.3</ele>
        <time>2018-11-18T08:36:54Z</time>
      </trkpt>
      <trkpt lat="48.45334" lon="2.6703">
        <ele>127.3</ele>
        <time>2018-11-18T08:36:55Z</time>
      </trkpt>
      <trkpt lat="48.45333" lon="2.67031">
        <ele>127.4</ele>
        <time>2018-11-18T08:36:56Z</time>
      </trkpt>
      <trkpt lat="48.45332" lon="2.67032">
        <ele>127.4</ele>
        <time>2018-11-18T08:36:57Z</time>
      </trkpt>
      <trkpt lat="48.45331" lon="2.67033">
        <ele>127.4</ele>
        <time>2018-11-18T08:36:58Z</time>
      </trkpt>
      <trkpt lat="48.4533" lon="2.67034">
        <ele>127.5</ele>
        <time>2018-11-18T08:36:59Z</time>
      </trkpt>
      <trkpt lat="48.45328" lon="2.67034">
        <ele>127.5</ele>
        <time>2018-11-18T08:37:00Z</time>
      </trkpt>
      <trkpt lat="48.45327" lon="2.67035">
        <ele>127.5</ele>
        <time>2018-11-18T08:37:01Z</time>
      </trkpt>
      <trkpt lat="48.45326" lon="2.67036">
        <ele>127.6</ele>
        <time>2018-11-18T08:37:02Z</time>
      </trkpt>
      <trkpt lat="48.45326" lon="2.67037">
        <ele>127.6</ele>
        <time>2018-11-18T08:37:03Z</time>
      </trkpt>
      <trkpt lat="48.45325" lon="2.67038">
        <ele>127.6</ele>
        <time>2018-11-18T08:37:04Z</time>
      </trkpt>
      <trkpt lat="48.45325" lon="2.6704">
        <ele>127.6</ele>
        <time>2018-11-18T08:37:05Z</time>
      </trkpt>
      <trkpt lat="48.45325" lon="2.67042">
        <ele>127.7</ele>
        <time>2018-11-18T08:37:06Z</time>
      </trkpt>
      <trkpt lat="48.45324" lon="2.67044">
        <ele>127.7</ele>
        <time>2018-11-18T08:37:07Z</time>
      </trkpt>
      <trkpt lat="48.45324" lon="2.67046">
        <ele>127.7</ele>
        <time>2018-11-18T08:37:08Z</time>
      </trkpt>
      <trkpt lat="48.45324" lon="2.67048">
        <ele>127.8</ele>
        <time>2018-11-18T08:37:09Z</time>
      </trkpt>
      <trkpt lat="48.45324" lon="2.67051">
        <ele>127.8</ele>
        <time>2018-11-18T08:37:10Z</time>
      </trkpt>
      <trkpt lat="48.45323" lon="2.67053">
        <ele>127.9</ele>
        <time>2018-11-18T08:37:11Z</time>
      </trkpt>
      <trkpt lat="48.45322" lon="2.67056">
        <ele>127.9</ele>
        <time>2018-11-18T08:37:12Z</time>
      </trkpt>
      <trkpt lat="48.45321" lon="2.67058">
        <ele>128</ele>
        <time>2018-11-18T08:37:13Z</time>
      </trkpt>
      <trkpt lat="48.4532" lon="2.6706">
        <ele>128.1</ele>
        <time>2018-11-18T08:37:14Z</time>
      </trkpt>
      <trkpt lat="48.45319" lon="2.67061">
        <ele>128.2</ele>
        <time>2018-11-18T08:37:15Z</time>
      </trkpt>
      <trkpt lat="48.45319" lon="2.67064">
        <ele>128.2</ele>
        <time>2018-11-18T08:37:16Z</time>
      </trkpt>
      <trkpt lat="48.45319" lon="2.67066">
        <ele>128.3</ele>
        <time>2018-11-18T08:37:17Z</time>
      </trkpt>
      <trkpt lat="48.45319" lon="2.67069">
        <ele>128.4</ele>
        <time>2018-11-18T08:37:18Z</time>
      </trkpt>
      <trkpt lat="48.45319" lon="2.67073">
        <ele>128.5</ele>
        <time>2018-11-18T08:37:19Z</time>
      </trkpt>
      <trkpt lat="48.45319" lon="2.67076">
        <ele>128.6</ele>
        <time>2018-11-18T08:37:20Z</time>
      </trkpt>
      <trkpt lat="48.45318" lon="2.67079">
        <ele>128.7</ele>
        <time>2018-11-18T08:37:21Z</time>
      </trkpt>
      <trkpt lat="48.45317" lon="2.67082">
        <ele>128.8</ele>
        <time>2018-11-18T08:37:22Z</time>
      </trkpt>
      <trkpt lat="48.45317" lon="2.67085">
        <ele>128.8</ele>
        <time>2018-11-18T08:37:23Z</time>
      </trkpt>
      <trkpt lat="48.45317" lon="2.67088">
        <ele>128.9</ele>
        <time>2018-11-18T08:37:24Z</time>
      </trkpt>
      <trkpt lat="48.45317" lon="2.6709">
        <ele>129</ele>
        <time>2018-11-18T08:37:25Z</time>
      </trkpt>
      <trkpt lat="48.45317" lon="2.67091">
        <ele>129</ele>
        <time>2018-11-18T08:37:26Z</time>
      </trkpt>
      <trkpt lat="48.45317" lon="2.67092">
        <ele>129</ele>
        <time>2018-11-18T08:37:27Z</time>
      </trkpt>
      <trkpt lat="48.45317" lon="2.67093">
        <ele>129</ele>
        <time>2018-11-18T08:37:28Z</time>
      </trkpt>
      <trkpt lat="48.45316" lon="2.67093">
        <ele>129</ele>
        <time>2018-11-18T08:37:29Z</time>
      </trkpt>
      <trkpt lat="48.45316" lon="2.67093">
        <ele>129</ele>
        <time>2018-11-18T08:37:30Z</time>
      </trkpt>
      <trkpt lat="48.45316" lon="2.67094">
        <ele>129.1</ele>
        <time>2018-11-18T08:37:48Z</time>
      </trkpt>
      <trkpt lat="48.45316" lon="2.67096">
        <ele>129.1</ele>
        <time>2018-11-18T08:37:49Z</time>
      </trkpt>
      <trkpt lat="48.45316" lon="2.67098">
        <ele>129.2</ele>
        <time>2018-11-18T08:37:50Z</time>
      </trkpt>
      <trkpt lat="48.45316" lon="2.671">
        <ele>129.2</ele>
        <time>2018-11-18T08:37:51Z</time>
      </trkpt>
      <trkpt lat="48.45316" lon="2.67102">
        <ele>129.3</ele>
        <time>2018-11-18T08:37:52Z</time>
      </trkpt>
      <trkpt lat="48.45315" lon="2.67104">
        <ele>129.4</ele>
        <time>2018-11-18T08:37:53Z</time>
      </trkpt>
      <trkpt lat="48.45315" lon="2.67106">
        <ele>129.5</ele>
        <time>2018-11-18T08:37:54Z</time>
      </trkpt>
      <trkpt lat="48.45314" lon="2.67108">
        <ele>129.6</ele>
        <time>2018-11-18T08:37:55Z</time>
      </trkpt>
      <trkpt lat="48.45313" lon="2.6711">
        <ele>129.6</ele>
        <time>2018-11-18T08:37:56Z</time>
      </trkpt>
      <trkpt lat="48.45312" lon="2.67112">
        <ele>129.7</ele>
        <time>2018-11-18T08:37:57Z</time>
      </trkpt>
      <trkpt lat="48.45312" lon="2.67113">
        <ele>129.7</ele>
        <time>2018-11-18T08:37:58Z</time>
      </trkpt>
      <trkpt lat="48.45311" lon="2.67114">
        <ele>129.8</ele>
        <time>2018-11-18T08:37:59Z</time>
      </trkpt>
      <trkpt lat="48.45311" lon="2.67117">
        <ele>129.9</ele>
        <time>2018-11-18T08:38:00Z</time>
      </trkpt>
      <trkpt lat="48.45312" lon="2.67119">
        <ele>129.9</ele>
        <time>2018-11-18T08:38:01Z</time>
      </trkpt>
      <trkpt lat="48.45313" lon="2.67121">
        <ele>130</ele>
        <time>2018-11-18T08:38:02Z</time>
      </trkpt>
      <trkpt lat="48.45315" lon="2.67122">
        <ele>130.1</ele>
        <time>2018-11-18T08:38:03Z</time>
      </trkpt>
      <trkpt lat="48.45316" lon="2.67123">
        <ele>130.2</ele>
        <time>2018-11-18T08:38:04Z</time>
      </trkpt>
      <trkpt lat="48.45318" lon="2.67123">
        <ele>130.3</ele>
        <time>2018-11-18T08:38:05Z</time>
      </trkpt>
      <trkpt lat="48.4532" lon="2.67124">
        <ele>130.4</ele>
        <time>2018-11-18T08:38:06Z</time>
      </trkpt>
      <trkpt lat="48.45321" lon="2.67126">
        <ele>130.5</ele>
        <time>2018-11-18T08:38:07Z</time>
      </trkpt>
      <trkpt lat="48.45323" lon="2.67128">
        <ele>130.6</ele>
        <time>2018-11-18T08:38:08Z</time>
      </trkpt>
      <trkpt lat="48.45323" lon="2.67131">
        <ele>130.8</ele>
        <time>2018-11-18T08:38:09Z</time>
      </trkpt>
      <trkpt lat="48.45324" lon="2.67133">
        <ele>130.8</ele>
        <time>2018-11-18T08:38:10Z</time>
      </trkpt>
      <trkpt lat="48.45324" lon="2.67135">
        <ele>130.9</ele>
        <time>2018-11-18T08:38:11Z</time>
      </trkpt>
      <trkpt lat="48.45324" lon="2.67137">
        <ele>130.9</ele>
        <time>2018-11-18T08:38:12Z</time>
      </trkpt>
      <trkpt lat="48.45324" lon="2.6714">
        <ele>131</ele>
        <time>2018-11-18T08:38:13Z</time>
      </trkpt>
      <trkpt lat="48.45323" lon="2.67142">
        <ele>131.1</ele>
        <time>2018-11-18T08:38:14Z</time>
      </trkpt>
      <trkpt lat="48.45322" lon="2.67144">
        <ele>131.1</ele>
        <time>2018-11-18T08:38:15Z</time>
      </trkpt>
      <trkpt lat="48.45321" lon="2.67147">
        <ele>131.2</ele>
        <time>2018-11-18T08:38:16Z</time>
      </trkpt>
      <trkpt lat="48.4532" lon="2.67149">
        <ele>131.3</ele>
        <time>2018-11-18T08:38:17Z</time>
      </trkpt>
      <trkpt lat="48.4532" lon="2.67151">
        <ele>131.3</ele>
        <time>2018-11-18T08:38:18Z</time>
      </trkpt>
      <trkpt lat="48.45319" lon="2.67153">
        <ele>131.4</ele>
        <time>2018-11-18T08:38:19Z</time>
      </trkpt>
      <trkpt lat="48.45317" lon="2.67155">
        <ele>131.4</ele>
        <time>2018-11-18T08:38:20Z</time>
      </trkpt>
      <trkpt lat="48.45316" lon="2.67156">
        <ele>131.4</ele>
        <time>2018-11-18T08:38:21Z</time>
      </trkpt>
      <trkpt lat="48.45314" lon="2.67157">
        <ele>131.4</ele>
        <time>2018-11-18T08:38:22Z</time>
      </trkpt>
      <trkpt lat="48.45312" lon="2.67158">
        <ele>131.4</ele>
        <time>2018-11-18T08:38:23Z</time>
      </trkpt>
      <trkpt lat="48.4531" lon="2.67158">
        <ele>131.4</ele>
        <time>2018-11-18T08:38:24Z</time>
      </trkpt>
      <trkpt lat="48.45309" lon="2.67159">
        <ele>131.4</ele>
        <time>2018-11-18T08:38:25Z</time>
      </trkpt>
      <trkpt lat="48.45307" lon="2.67159">
        <ele>131.4</ele>
        <time>2018-11-18T08:38:26Z</time>
      </trkpt>
      <trkpt lat="48.45305" lon="2.67159">
        <ele>131.4</ele>
        <time>2018-11-18T08:38:27Z</time>
      </trkpt>
      <trkpt lat="48.45304" lon="2.67158">
        <ele>131.4</ele>
        <time>2018-11-18T08:38:28Z</time>
      </trkpt>
      <trkpt lat="48.45302" lon="2.67157">
        <ele>131.3</ele>
        <time>2018-11-18T08:38:29Z</time>
      </trkpt>
      <trkpt lat="48.45299" lon="2.67156">
        <ele>131.3</ele>
        <time>2018-11-18T08:38:30Z</time>
      </trkpt>
      <trkpt lat="48.45297" lon="2.67156">
        <ele>132.4</ele>
        <time>2018-11-18T08:38:31Z</time>
      </trkpt>
      <trkpt lat="48.45294" lon="2.67156">
        <ele>132.6</ele>
        <time>2018-11-18T08:38:32Z</time>
      </trkpt>
      <trkpt lat="48.45292" lon="2.67156">
        <ele>132.8</ele>
        <time>2018-11-18T08:38:33Z</time>
      </trkpt>
      <trkpt lat="48.4529" lon="2.67156">
        <ele>132.9</ele>
        <time>2018-11-18T08:38:34Z</time>
      </trkpt>
      <trkpt lat="48.45287" lon="2.67156">
        <ele>133.1</ele>
        <time>2018-11-18T08:38:35Z</time>
      </trkpt>
      <trkpt lat="48.45285" lon="2.67156">
        <ele>133.2</ele>
        <time>2018-11-18T08:38:36Z</time>
      </trkpt>
      <trkpt lat="48.45282" lon="2.67157">
        <ele>133.4</ele>
        <time>2018-11-18T08:38:37Z</time>
      </trkpt>
      <trkpt lat="48.4528" lon="2.67158">
        <ele>133.5</ele>
        <time>2018-11-18T08:38:38Z</time>
      </trkpt>
      <trkpt lat="48.45279" lon="2.67161">
        <ele>133.6</ele>
        <time>2018-11-18T08:38:39Z</time>
      </trkpt>
      <trkpt lat="48.45278" lon="2.67165">
        <ele>133.8</ele>
        <time>2018-11-18T08:38:40Z</time>
      </trkpt>
      <trkpt lat="48.45276" lon="2.67168">
        <ele>134</ele>
        <time>2018-11-18T08:38:41Z</time>
      </trkpt>
      <trkpt lat="48.45275" lon="2.67171">
        <ele>134.1</ele>
        <time>2018-11-18T08:38:42Z</time>
      </trkpt>
      <trkpt lat="48.45273" lon="2.67173">
        <ele>134.3</ele>
        <time>2018-11-18T08:38:43Z</time>
      </trkpt>
      <trkpt lat="48.45271" lon="2.67174">
        <ele>134.4</ele>
        <time>2018-11-18T08:38:44Z</time>
      </trkpt>
      <trkpt lat="48.45269" lon="2.67175">
        <ele>134.5</ele>
        <time>2018-11-18T08:38:45Z</time>
      </trkpt>
      <trkpt lat="48.45268" lon="2.67178">
        <ele>134.6</ele>
        <time>2018-11-18T08:38:46Z</time>
      </trkpt>
      <trkpt lat="48.45268" lon="2.6718">
        <ele>134.7</ele>
        <time>2018-11-18T08:38:47Z</time>
      </trkpt>
      <trkpt lat="48.45268" lon="2.67183">
        <ele>134.8</ele>
        <time>2018-11-18T08:38:48Z</time>
      </trkpt>
      <trkpt lat="48.45267" lon="2.67186">
        <ele>134.9</ele>
        <time>2018-11-18T08:38:49Z</time>
      </trkpt>
      <trkpt lat="48.45266" lon="2.67188">
        <ele>135</ele>
        <time>2018-11-18T08:38:50Z</time>
      </trkpt>
      <trkpt lat="48.45264" lon="2.6719">
        <ele>135.1</ele>
        <time>2018-11-18T08:38:51Z</time>
      </trkpt>
      <trkpt lat="48.45262" lon="2.67191">
        <ele>135.2</ele>
        <time>2018-11-18T08:38:52Z</time>
      </trkpt>
      <trkpt lat="48.4526" lon="2.67192">
        <ele>135.4</ele>
        <time>2018-11-18T08:38:53Z</time>
      </trkpt>
      <trkpt lat="48.45258" lon="2.67193">
        <ele>135.5</ele>
        <time>2018-11-18T08:38:54Z</time>
      </trkpt>
      <trkpt lat="48.45256" lon="2.67196">
        <ele>135.6</ele>
        <time>2018-11-18T08:38:55Z</time>
      </trkpt>
      <trkpt lat="48.45254" lon="2.67197">
        <ele>135.8</ele>
        <time>2018-11-18T08:38:56Z</time>
      </trkpt>
      <trkpt lat="48.45253" lon="2.67198">
        <ele>135.9</ele>
        <time>2018-11-18T08:38:57Z</time>
      </trkpt>
      <trkpt lat="48.4525" lon="2.67199">
        <ele>136</ele>
        <time>2018-11-18T08:38:58Z</time>
      </trkpt>
      <trkpt lat="48.45248" lon="2.672">
        <ele>136.2</ele>
        <time>2018-11-18T08:38:59Z</time>
      </trkpt>
      <trkpt lat="48.45246" lon="2.67201">
        <ele>136.4</ele>
        <time>2018-11-18T08:39:00Z</time>
      </trkpt>
      <trkpt lat="48.45244" lon="2.67202">
        <ele>136.6</ele>
        <time>2018-11-18T08:39:01Z</time>
      </trkpt>
      <trkpt lat="48.45242" lon="2.67204">
        <ele>136.7</ele>
        <time>2018-11-18T08:39:02Z</time>
      </trkpt>
      <trkpt lat="48.45241" lon="2.67206">
        <ele>136.9</ele>
        <time>2018-11-18T08:39:03Z</time>
      </trkpt>
      <trkpt lat="48.45238" lon="2.67207">
        <ele>137</ele>
        <time>2018-11-18T08:39:04Z</time>
      </trkpt>
      <trkpt lat="48.45236" lon="2.67209">
        <ele>137.1</ele>
        <time>2018-11-18T08:39:05Z</time>
      </trkpt>
      <trkpt lat="48.45234" lon="2.67211">
        <ele>137.3</ele>
        <time>2018-11-18T08:39:06Z</time>
      </trkpt>
      <trkpt lat="48.45231" lon="2.67213">
        <ele>137.5</ele>
        <time>2018-11-18T08:39:07Z</time>
      </trkpt>
      <trkpt lat="48.45229" lon="2.67214">
        <ele>137.6</ele>
        <time>2018-11-18T08:39:08Z</time>
      </trkpt>
      <trkpt lat="48.45226" lon="2.67216">
        <ele>137.8</ele>
        <time>2018-11-18T08:39:09Z</time>
      </trkpt>
      <trkpt lat="48.45223" lon="2.67218">
        <ele>137.9</ele>
        <time>2018-11-18T08:39:10Z</time>
      </trkpt>
      <trkpt lat="48.45221" lon="2.67221">
        <ele>138.1</ele>
        <time>2018-11-18T08:39:11Z</time>
      </trkpt>
      <trkpt lat="48.45219" lon="2.67224">
        <ele>138.3</ele>
        <time>2018-11-18T08:39:12Z</time>
      </trkpt>
      <trkpt lat="48.45216" lon="2.67226">
        <ele>138.5</ele>
        <time>2018-11-18T08:39:13Z</time>
      </trkpt>
      <trkpt lat="48.45214" lon="2.67229">
        <ele>138.7</ele>
        <time>2018-11-18T08:39:14Z</time>
      </trkpt>
      <trkpt lat="48.45211" lon="2.67232">
        <ele>138.9</ele>
        <time>2018-11-18T08:39:15Z</time>
      </trkpt>
      <trkpt lat="48.45208" lon="2.67234">
        <ele>139.1</ele>
        <time>2018-11-18T08:39:16Z</time>
      </trkpt>
      <trkpt lat="48.45204" lon="2.67236">
        <ele>139.3</ele>
        <time>2018-11-18T08:39:17Z</time>
      </trkpt>
      <trkpt lat="48.45202" lon="2.67238">
        <ele>139.5</ele>
        <time>2018-11-18T08:39:18Z</time>
      </trkpt>
      <trkpt lat="48.45199" lon="2.67239">
        <ele>139.6</ele>
        <time>2018-11-18T08:39:19Z</time>
      </trkpt>
      <trkpt lat="48.45196" lon="2.6724">
        <ele>139.8</ele>
        <time>2018-11-18T08:39:20Z</time>
      </trkpt>
      <trkpt lat="48.45193" lon="2.67241">
        <ele>139.9</ele>
        <time>2018-11-18T08:39:21Z</time>
      </trkpt>
      <trkpt lat="48.4519" lon="2.67242">
        <ele>140.1</ele>
        <time>2018-11-18T08:39:22Z</time>
      </trkpt>
      <trkpt lat="48.45186" lon="2.67244">
        <ele>140.3</ele>
        <time>2018-11-18T08:39:23Z</time>
      </trkpt>
      <trkpt lat="48.45182" lon="2.67246">
        <ele>140.7</ele>
        <time>2018-11-18T08:39:24Z</time>
      </trkpt>
      <trkpt lat="48.45178" lon="2.67249">
        <ele>140.6</ele>
        <time>2018-11-18T08:39:25Z</time>
      </trkpt>
      <trkpt lat="48.45175" lon="2.67252">
        <ele>140.5</ele>
        <time>2018-11-18T08:39:26Z</time>
      </trkpt>
      <trkpt lat="48.45171" lon="2.67256">
        <ele>140.4</ele>
        <time>2018-11-18T08:39:27Z</time>
      </trkpt>
      <trkpt lat="48.45168" lon="2.67259">
        <ele>140.3</ele>
        <time>2018-11-18T08:39:28Z</time>
      </trkpt>
      <trkpt lat="48.45166" lon="2.67262">
        <ele>140.3</ele>
        <time>2018-11-18T08:39:29Z</time>
      </trkpt>
      <trkpt lat="48.45163" lon="2.67266">
        <ele>140.2</ele>
        <time>2018-11-18T08:39:30Z</time>
      </trkpt>
      <trkpt lat="48.4516" lon="2.67271">
        <ele>140.2</ele>
        <time>2018-11-18T08:39:31Z</time>
      </trkpt>
      <trkpt lat="48.45158" lon="2.67275">
        <ele>140.2</ele>
        <time>2018-11-18T08:39:32Z</time>
      </trkpt>
      <trkpt lat="48.45156" lon="2.67279">
        <ele>140.2</ele>
        <time>2018-11-18T08:39:33Z</time>
      </trkpt>
      <trkpt lat="48.45154" lon="2.67284">
        <ele>140.3</ele>
        <time>2018-11-18T08:39:34Z</time>
      </trkpt>
      <trkpt lat="48.45152" lon="2.67288">
        <ele>140.4</ele>
        <time>2018-11-18T08:39:35Z</time>
      </trkpt>
      <trkpt lat="48.4515" lon="2.67292">
        <ele>140.5</ele>
        <time>2018-11-18T08:39:36Z</time>
      </trkpt>
      <trkpt lat="48.45148" lon="2.67295">
        <ele>140.6</ele>
        <time>2018-11-18T08:39:37Z</time>
      </trkpt>
      <trkpt lat="48.45146" lon="2.67297">
        <ele>140.7</ele>
        <time>2018-11-18T08:39:38Z</time>
      </trkpt>
      <trkpt lat="48.45143" lon="2.67299">
        <ele>140.8</ele>
        <time>2018-11-18T08:39:39Z</time>
      </trkpt>
      <trkpt lat="48.4514" lon="2.673">
        <ele>140.9</ele>
        <time>2018-11-18T08:39:40Z</time>
      </trkpt>
      <trkpt lat="48.45137" lon="2.67301">
        <ele>141.1</ele>
        <time>2018-11-18T08:39:41Z</time>
      </trkpt>
      <trkpt lat="48.45135" lon="2.67302">
        <ele>141.2</ele>
        <time>2018-11-18T08:39:42Z</time>
      </trkpt>
      <trkpt lat="48.45132" lon="2.67304">
        <ele>141.3</ele>
        <time>2018-11-18T08:39:43Z</time>
      </trkpt>
      <trkpt lat="48.45129" lon="2.67307">
        <ele>141.5</ele>
        <time>2018-11-18T08:39:44Z</time>
      </trkpt>
      <trkpt lat="48.45126" lon="2.67309">
        <ele>141.5</ele>
        <time>2018-11-18T08:39:45Z</time>
      </trkpt>
      <trkpt lat="48.45124" lon="2.67311">
        <ele>141.6</ele>
        <time>2018-11-18T08:39:46Z</time>
      </trkpt>
      <trkpt lat="48.45121" lon="2.67315">
        <ele>141.7</ele>
        <time>2018-11-18T08:39:47Z</time>
      </trkpt>
      <trkpt lat="48.45118" lon="2.67319">
        <ele>141.8</ele>
        <time>2018-11-18T08:39:48Z</time>
      </trkpt>
      <trkpt lat="48.45115" lon="2.67323">
        <ele>141.9</ele>
        <time>2018-11-18T08:39:49Z</time>
      </trkpt>
      <trkpt lat="48.45112" lon="2.67327">
        <ele>141.9</ele>
        <time>2018-11-18T08:39:50Z</time>
      </trkpt>
      <trkpt lat="48.45109" lon="2.67332">
        <ele>142</ele>
        <time>2018-11-18T08:39:51Z</time>
      </trkpt>
      <trkpt lat="48.45106" lon="2.67336">
        <ele>142.1</ele>
        <time>2018-11-18T08:39:52Z</time>
      </trkpt>
      <trkpt lat="48.45103" lon="2.6734">
        <ele>142.2</ele>
        <time>2018-11-18T08:39:53Z</time>
      </trkpt>
      <trkpt lat="48.45101" lon="2.67344">
        <ele>142.3</ele>
        <time>2018-11-18T08:39:54Z</time>
      </trkpt>
      <trkpt lat="48.45098" lon="2.67349">
        <ele>142.3</ele>
        <time>2018-11-18T08:39:55Z</time>
      </trkpt>
      <trkpt lat="48.45096" lon="2.67353">
        <ele>142.4</ele>
        <time>2018-11-18T08:39:56Z</time>
      </trkpt>
      <trkpt lat="48.45094" lon="2.67356">
        <ele>142.4</ele>
        <time>2018-11-18T08:39:57Z</time>
      </trkpt>
      <trkpt lat="48.45094" lon="2.67359">
        <ele>142.4</ele>
        <time>2018-11-18T08:39:58Z</time>
      </trkpt>
      <trkpt lat="48.45094" lon="2.67363">
        <ele>142.4</ele>
        <time>2018-11-18T08:39:59Z</time>
      </trkpt>
      <trkpt lat="48.45093" lon="2.67368">
        <ele>142.4</ele>
        <time>2018-11-18T08:40:00Z</time>
      </trkpt>
      <trkpt lat="48.45092" lon="2.67373">
        <ele>142.4</ele>
        <time>2018-11-18T08:40:01Z</time>
      </trkpt>
      <trkpt lat="48.4509" lon="2.67377">
        <ele>142.4</ele>
        <time>2018-11-18T08:40:02Z</time>
      </trkpt>
      <trkpt lat="48.45088" lon="2.6738">
        <ele>142.3</ele>
        <time>2018-11-18T08:40:03Z</time>
      </trkpt>
      <trkpt lat="48.45086" lon="2.67383">
        <ele>142.3</ele>
        <time>2018-11-18T08:40:04Z</time>
      </trkpt>
      <trkpt lat="48.45084" lon="2.67387">
        <ele>142.2</ele>
        <time>2018-11-18T08:40:05Z</time>
      </trkpt>
      <trkpt lat="48.45082" lon="2.6739">
        <ele>142.2</ele>
        <time>2018-11-18T08:40:06Z</time>
      </trkpt>
      <trkpt lat="48.4508" lon="2.67393">
        <ele>142.3</ele>
        <time>2018-11-18T08:40:07Z</time>
      </trkpt>
      <trkpt lat="48.4508" lon="2.67396">
        <ele>142.4</ele>
        <time>2018-11-18T08:40:08Z</time>
      </trkpt>
      <trkpt lat="48.4508" lon="2.67398">
        <ele>142.5</ele>
        <time>2018-11-18T08:40:09Z</time>
      </trkpt>
      <trkpt lat="48.4508" lon="2.674">
        <ele>142.6</ele>
        <time>2018-11-18T08:40:10Z</time>
      </trkpt>
      <trkpt lat="48.4508" lon="2.67403">
        <ele>142.6</ele>
        <time>2018-11-18T08:40:11Z</time>
      </trkpt>
      <trkpt lat="48.45079" lon="2.67406">
        <ele>142.7</ele>
        <time>2018-11-18T08:40:12Z</time>
      </trkpt>
      <trkpt lat="48.45079" lon="2.6741">
        <ele>142.8</ele>
        <time>2018-11-18T08:40:13Z</time>
      </trkpt>
      <trkpt lat="48.45079" lon="2.67413">
        <ele>142.9</ele>
        <time>2018-11-18T08:40:14Z</time>
      </trkpt>
      <trkpt lat="48.45079" lon="2.67416">
        <ele>142.9</ele>
        <time>2018-11-18T08:40:15Z</time>
      </trkpt>
      <trkpt lat="48.45079" lon="2.67419">
        <ele>143</ele>
        <time>2018-11-18T08:40:16Z</time>
      </trkpt>
      <trkpt lat="48.45079" lon="2.67422">
        <ele>143.1</ele>
        <time>2018-11-18T08:40:17Z</time>
      </trkpt>
      <trkpt lat="48.45079" lon="2.67425">
        <ele>143.2</ele>
        <time>2018-11-18T08:40:18Z</time>
      </trkpt>
      <trkpt lat="48.4508" lon="2.67427">
        <ele>143.3</ele>
        <time>2018-11-18T08:40:19Z</time>
      </trkpt>
      <trkpt lat="48.45082" lon="2.67429">
        <ele>143.3</ele>
        <time>2018-11-18T08:40:20Z</time>
      </trkpt>
      <trkpt lat="48.45083" lon="2.67432">
        <ele>143.3</ele>
        <time>2018-11-18T08:40:21Z</time>
      </trkpt>
      <trkpt lat="48.45085" lon="2.67436">
        <ele>143.3</ele>
        <time>2018-11-18T08:40:22Z</time>
      </trkpt>
      <trkpt lat="48.45085" lon="2.6744">
        <ele>143.3</ele>
        <time>2018-11-18T08:40:23Z</time>
      </trkpt>
      <trkpt lat="48.45085" lon="2.67444">
        <ele>143.2</ele>
        <time>2018-11-18T08:40:24Z</time>
      </trkpt>
      <trkpt lat="48.45085" lon="2.6745">
        <ele>143.1</ele>
        <time>2018-11-18T08:40:25Z</time>
      </trkpt>
      <trkpt lat="48.45085" lon="2.67454">
        <ele>143</ele>
        <time>2018-11-18T08:40:26Z</time>
      </trkpt>
      <trkpt lat="48.45086" lon="2.67459">
        <ele>142.9</ele>
        <time>2018-11-18T08:40:27Z</time>
      </trkpt>
      <trkpt lat="48.45085" lon="2.67463">
        <ele>142.7</ele>
        <time>2018-11-18T08:40:28Z</time>
      </trkpt>
      <trkpt lat="48.45085" lon="2.67467">
        <ele>142.6</ele>
        <time>2018-11-18T08:40:29Z</time>
      </trkpt>
      <trkpt lat="48.45085" lon="2.67471">
        <ele>142.4</ele>
        <time>2018-11-18T08:40:30Z</time>
      </trkpt>
      <trkpt lat="48.45086" lon="2.67474">
        <ele>142.3</ele>
        <time>2018-11-18T08:40:31Z</time>
      </trkpt>
      <trkpt lat="48.45087" lon="2.67477">
        <ele>142.2</ele>
        <time>2018-11-18T08:40:32Z</time>
      </trkpt>
      <trkpt lat="48.45089" lon="2.6748">
        <ele>142.1</ele>
        <time>2018-11-18T08:40:33Z</time>
      </trkpt>
      <trkpt lat="48.4509" lon="2.67482">
        <ele>142</ele>
        <time>2018-11-18T08:40:34Z</time>
      </trkpt>
      <trkpt lat="48.45092" lon="2.67484">
        <ele>141.8</ele>
        <time>2018-11-18T08:40:35Z</time>
      </trkpt>
      <trkpt lat="48.45094" lon="2.67487">
        <ele>141.6</ele>
        <time>2018-11-18T08:40:36Z</time>
      </trkpt>
      <trkpt lat="48.45096" lon="2.6749">
        <ele>141.5</ele>
        <time>2018-11-18T08:40:37Z</time>
      </trkpt>
      <trkpt lat="48.45098" lon="2.67494">
        <ele>141.3</ele>
        <time>2018-11-18T08:40:38Z</time>
      </trkpt>
      <trkpt lat="48.451" lon="2.67498">
        <ele>141.1</ele>
        <time>2018-11-18T08:40:39Z</time>
      </trkpt>
      <trkpt lat="48.45101" lon="2.67503">
        <ele>140.9</ele>
        <time>2018-11-18T08:40:40Z</time>
      </trkpt>
      <trkpt lat="48.45102" lon="2.67507">
        <ele>140.8</ele>
        <time>2018-11-18T08:40:41Z</time>
      </trkpt>
      <trkpt lat="48.45103" lon="2.67511">
        <ele>140.7</ele>
        <time>2018-11-18T08:40:42Z</time>
      </trkpt>
      <trkpt lat="48.45103" lon="2.67516">
        <ele>140.6</ele>
        <time>2018-11-18T08:40:43Z</time>
      </trkpt>
      <trkpt lat="48.45104" lon="2.6752">
        <ele>140.5</ele>
        <time>2018-11-18T08:40:44Z</time>
      </trkpt>
      <trkpt lat="48.45104" lon="2.67524">
        <ele>140.5</ele>
        <time>2018-11-18T08:40:45Z</time>
      </trkpt>
      <trkpt lat="48.45105" lon="2.67528">
        <ele>140.4</ele>
        <time>2018-11-18T08:40:46Z</time>
      </trkpt>
      <trkpt lat="48.45106" lon="2.67532">
        <ele>140.3</ele>
        <time>2018-11-18T08:40:47Z</time>
      </trkpt>
      <trkpt lat="48.45107" lon="2.67536">
        <ele>140.2</ele>
        <time>2018-11-18T08:40:48Z</time>
      </trkpt>
      <trkpt lat="48.45109" lon="2.67539">
        <ele>140.1</ele>
        <time>2018-11-18T08:40:49Z</time>
      </trkpt>
      <trkpt lat="48.4511" lon="2.67543">
        <ele>139.9</ele>
        <time>2018-11-18T08:40:50Z</time>
      </trkpt>
      <trkpt lat="48.45111" lon="2.67547">
        <ele>139.8</ele>
        <time>2018-11-18T08:40:51Z</time>
      </trkpt>
      <trkpt lat="48.45112" lon="2.67552">
        <ele>139.6</ele>
        <time>2018-11-18T08:40:52Z</time>
      </trkpt>
      <trkpt lat="48.45112" lon="2.67557">
        <ele>139.3</ele>
        <time>2018-11-18T08:40:53Z</time>
      </trkpt>
      <trkpt lat="48.45112" lon="2.67563">
        <ele>139.1</ele>
        <time>2018-11-18T08:40:54Z</time>
      </trkpt>
      <trkpt lat="48.45111" lon="2.67569">
        <ele>138.8</ele>
        <time>2018-11-18T08:40:55Z</time>
      </trkpt>
      <trkpt lat="48.45111" lon="2.67575">
        <ele>138.6</ele>
        <time>2018-11-18T08:40:56Z</time>
      </trkpt>
      <trkpt lat="48.45111" lon="2.67581">
        <ele>138.4</ele>
        <time>2018-11-18T08:40:57Z</time>
      </trkpt>
      <trkpt lat="48.45112" lon="2.67586">
        <ele>138.3</ele>
        <time>2018-11-18T08:40:58Z</time>
      </trkpt>
      <trkpt lat="48.45112" lon="2.67592">
        <ele>138.2</ele>
        <time>2018-11-18T08:40:59Z</time>
      </trkpt>
      <trkpt lat="48.45113" lon="2.67597">
        <ele>138.2</ele>
        <time>2018-11-18T08:41:00Z</time>
      </trkpt>
      <trkpt lat="48.45113" lon="2.67601">
        <ele>138.2</ele>
        <time>2018-11-18T08:41:01Z</time>
      </trkpt>
      <trkpt lat="48.45114" lon="2.67605">
        <ele>138.2</ele>
        <time>2018-11-18T08:41:02Z</time>
      </trkpt>
      <trkpt lat="48.45114" lon="2.67609">
        <ele>138.2</ele>
        <time>2018-11-18T08:41:03Z</time>
      </trkpt>
      <trkpt lat="48.45115" lon="2.67613">
        <ele>138.2</ele>
        <time>2018-11-18T08:41:04Z</time>
      </trkpt>
      <trkpt lat="48.45116" lon="2.67616">
        <ele>138.2</ele>
        <time>2018-11-18T08:41:05Z</time>
      </trkpt>
      <trkpt lat="48.45117" lon="2.6762">
        <ele>138.2</ele>
        <time>2018-11-18T08:41:06Z</time>
      </trkpt>
      <trkpt lat="48.45118" lon="2.67623">
        <ele>138.2</ele>
        <time>2018-11-18T08:41:07Z</time>
      </trkpt>
      <trkpt lat="48.45119" lon="2.67627">
        <ele>138.2</ele>
        <time>2018-11-18T08:41:08Z</time>
      </trkpt>
      <trkpt lat="48.4512" lon="2.67631">
        <ele>138.2</ele>
        <time>2018-11-18T08:41:09Z</time>
      </trkpt>
      <trkpt lat="48.45122" lon="2.67634">
        <ele>138.2</ele>
        <time>2018-11-18T08:41:10Z</time>
      </trkpt>
      <trkpt lat="48.45123" lon="2.67637">
        <ele>138.2</ele>
        <time>2018-11-18T08:41:11Z</time>
      </trkpt>
      <trkpt lat="48.45125" lon="2.6764">
        <ele>138.2</ele>
        <time>2018-11-18T08:41:12Z</time>
      </trkpt>
      <trkpt lat="48.45126" lon="2.67644">
        <ele>138.1</ele>
        <time>2018-11-18T08:41:13Z</time>
      </trkpt>
      <trkpt lat="48.45128" lon="2.67648">
        <ele>138.1</ele>
        <time>2018-11-18T08:41:14Z</time>
      </trkpt>
      <trkpt lat="48.45129" lon="2.67653">
        <ele>138.1</ele>
        <time>2018-11-18T08:41:15Z</time>
      </trkpt>
      <trkpt lat="48.4513" lon="2.67658">
        <ele>138</ele>
        <time>2018-11-18T08:41:16Z</time>
      </trkpt>
      <trkpt lat="48.45131" lon="2.67662">
        <ele>138</ele>
        <time>2018-11-18T08:41:17Z</time>
      </trkpt>
      <trkpt lat="48.45131" lon="2.67667">
        <ele>138</ele>
        <time>2018-11-18T08:41:18Z</time>
      </trkpt>
      <trkpt lat="48.45131" lon="2.67672">
        <ele>138</ele>
        <time>2018-11-18T08:41:19Z</time>
      </trkpt>
      <trkpt lat="48.4513" lon="2.67675">
        <ele>138.1</ele>
        <time>2018-11-18T08:41:20Z</time>
      </trkpt>
      <trkpt lat="48.4513" lon="2.67679">
        <ele>138.1</ele>
        <time>2018-11-18T08:41:21Z</time>
      </trkpt>
      <trkpt lat="48.4513" lon="2.67683">
        <ele>138.1</ele>
        <time>2018-11-18T08:41:22Z</time>
      </trkpt>
      <trkpt lat="48.4513" lon="2.67687">
        <ele>138.2</ele>
        <time>2018-11-18T08:41:23Z</time>
      </trkpt>
      <trkpt lat="48.45129" lon="2.67691">
        <ele>138.2</ele>
        <time>2018-11-18T08:41:24Z</time>
      </trkpt>
      <trkpt lat="48.45128" lon="2.67695">
        <ele>138.3</ele>
        <time>2018-11-18T08:41:25Z</time>
      </trkpt>
      <trkpt lat="48.45126" lon="2.67698">
        <ele>138.3</ele>
        <time>2018-11-18T08:41:26Z</time>
      </trkpt>
      <trkpt lat="48.45126" lon="2.67701">
        <ele>138.4</ele>
        <time>2018-11-18T08:41:27Z</time>
      </trkpt>
      <trkpt lat="48.45124" lon="2.67705">
        <ele>138.4</ele>
        <time>2018-11-18T08:41:28Z</time>
      </trkpt>
      <trkpt lat="48.45122" lon="2.67707">
        <ele>138.5</ele>
        <time>2018-11-18T08:41:29Z</time>
      </trkpt>
      <trkpt lat="48.4512" lon="2.67708">
        <ele>138.5</ele>
        <time>2018-11-18T08:41:30Z</time>
      </trkpt>
      <trkpt lat="48.45119" lon="2.6771">
        <ele>138.5</ele>
        <time>2018-11-18T08:41:31Z</time>
      </trkpt>
      <trkpt lat="48.45117" lon="2.67712">
        <ele>138.5</ele>
        <time>2018-11-18T08:41:32Z</time>
      </trkpt>
      <trkpt lat="48.45115" lon="2.67715">
        <ele>138.5</ele>
        <time>2018-11-18T08:41:33Z</time>
      </trkpt>
      <trkpt lat="48.45113" lon="2.67717">
        <ele>138.5</ele>
        <time>2018-11-18T08:41:34Z</time>
      </trkpt>
      <trkpt lat="48.4511" lon="2.67719">
        <ele>138.5</ele>
        <time>2018-11-18T08:41:35Z</time>
      </trkpt>
      <trkpt lat="48.45108" lon="2.6772">
        <ele>138.5</ele>
        <time>2018-11-18T08:41:36Z</time>
      </trkpt>
      <trkpt lat="48.45105" lon="2.67719">
        <ele>138.4</ele>
        <time>2018-11-18T08:41:37Z</time>
      </trkpt>
      <trkpt lat="48.45103" lon="2.67719">
        <ele>138.4</ele>
        <time>2018-11-18T08:41:38Z</time>
      </trkpt>
      <trkpt lat="48.45102" lon="2.67718">
        <ele>138.3</ele>
        <time>2018-11-18T08:41:39Z</time>
      </trkpt>
      <trkpt lat="48.451" lon="2.67718">
        <ele>138.2</ele>
        <time>2018-11-18T08:41:40Z</time>
      </trkpt>
      <trkpt lat="48.45098" lon="2.67719">
        <ele>138.1</ele>
        <time>2018-11-18T08:41:41Z</time>
      </trkpt>
      <trkpt lat="48.45095" lon="2.6772">
        <ele>138</ele>
        <time>2018-11-18T08:41:42Z</time>
      </trkpt>
      <trkpt lat="48.45091" lon="2.6772">
        <ele>137.8</ele>
        <time>2018-11-18T08:41:43Z</time>
      </trkpt>
      <trkpt lat="48.45087" lon="2.67719">
        <ele>137.6</ele>
        <time>2018-11-18T08:41:44Z</time>
      </trkpt>
      <trkpt lat="48.45083" lon="2.67718">
        <ele>137.4</ele>
        <time>2018-11-18T08:41:45Z</time>
      </trkpt>
      <trkpt lat="48.45078" lon="2.67715">
        <ele>137.2</ele>
        <time>2018-11-18T08:41:46Z</time>
      </trkpt>
      <trkpt lat="48.45075" lon="2.67712">
        <ele>137</ele>
        <time>2018-11-18T08:41:47Z</time>
      </trkpt>
      <trkpt lat="48.45072" lon="2.67709">
        <ele>137</ele>
        <time>2018-11-18T08:41:48Z</time>
      </trkpt>
      <trkpt lat="48.4507" lon="2.67706">
        <ele>137</ele>
        <time>2018-11-18T08:41:49Z</time>
      </trkpt>
      <trkpt lat="48.45068" lon="2.67705">
        <ele>137</ele>
        <time>2018-11-18T08:41:50Z</time>
      </trkpt>
      <trkpt lat="48.45066" lon="2.67703">
        <ele>137</ele>
        <time>2018-11-18T08:41:51Z</time>
      </trkpt>
      <trkpt lat="48.45065" lon="2.67702">
        <ele>137.1</ele>
        <time>2018-11-18T08:41:52Z</time>
      </trkpt>
      <trkpt lat="48.45063" lon="2.677">
        <ele>137.1</ele>
        <time>2018-11-18T08:41:53Z</time>
      </trkpt>
      <trkpt lat="48.45062" lon="2.67698">
        <ele>137.2</ele>
        <time>2018-11-18T08:41:54Z</time>
      </trkpt>
      <trkpt lat="48.4506" lon="2.67698">
        <ele>137.3</ele>
        <time>2018-11-18T08:41:55Z</time>
      </trkpt>
      <trkpt lat="48.45058" lon="2.67696">
        <ele>137.4</ele>
        <time>2018-11-18T08:41:56Z</time>
      </trkpt>
      <trkpt lat="48.45056" lon="2.67695">
        <ele>137.6</ele>
        <time>2018-11-18T08:41:57Z</time>
      </trkpt>
      <trkpt lat="48.45054" lon="2.67694">
        <ele>137.7</ele>
        <time>2018-11-18T08:41:58Z</time>
      </trkpt>
      <trkpt lat="48.45052" lon="2.67692">
        <ele>137.8</ele>
        <time>2018-11-18T08:41:59Z</time>
      </trkpt>
      <trkpt lat="48.4505" lon="2.6769">
        <ele>138</ele>
        <time>2018-11-18T08:42:00Z</time>
      </trkpt>
      <trkpt lat="48.45048" lon="2.67688">
        <ele>138.2</ele>
        <time>2018-11-18T08:42:01Z</time>
      </trkpt>
      <trkpt lat="48.45046" lon="2.67686">
        <ele>138.3</ele>
        <time>2018-11-18T08:42:02Z</time>
      </trkpt>
      <trkpt lat="48.45044" lon="2.67683">
        <ele>138.4</ele>
        <time>2018-11-18T08:42:03Z</time>
      </trkpt>
      <trkpt lat="48.45043" lon="2.6768">
        <ele>138.5</ele>
        <time>2018-11-18T08:42:04Z</time>
      </trkpt>
      <trkpt lat="48.45041" lon="2.67678">
        <ele>138.6</ele>
        <time>2018-11-18T08:42:05Z</time>
      </trkpt>
      <trkpt lat="48.4504" lon="2.67675">
        <ele>138.8</ele>
        <time>2018-11-18T08:42:06Z</time>
      </trkpt>
      <trkpt lat="48.45039" lon="2.67673">
        <ele>138.9</ele>
        <time>2018-11-18T08:42:07Z</time>
      </trkpt>
      <trkpt lat="48.45038" lon="2.67671">
        <ele>139</ele>
        <time>2018-11-18T08:42:08Z</time>
      </trkpt>
      <trkpt lat="48.45037" lon="2.67669">
        <ele>139.1</ele>
        <time>2018-11-18T08:42:09Z</time>
      </trkpt>
      <trkpt lat="48.45036" lon="2.67667">
        <ele>139.1</ele>
        <time>2018-11-18T08:42:10Z</time>
      </trkpt>
      <trkpt lat="48.45035" lon="2.67666">
        <ele>139.2</ele>
        <time>2018-11-18T08:42:11Z</time>
      </trkpt>
      <trkpt lat="48.45033" lon="2.67664">
        <ele>139.3</ele>
        <time>2018-11-18T08:42:12Z</time>
      </trkpt>
      <trkpt lat="48.45031" lon="2.67663">
        <ele>139.4</ele>
        <time>2018-11-18T08:42:13Z</time>
      </trkpt>
      <trkpt lat="48.45029" lon="2.6766">
        <ele>139.4</ele>
        <time>2018-11-18T08:42:14Z</time>
      </trkpt>
      <trkpt lat="48.45027" lon="2.67658">
        <ele>139.5</ele>
        <time>2018-11-18T08:42:15Z</time>
      </trkpt>
      <trkpt lat="48.45026" lon="2.67656">
        <ele>139.6</ele>
        <time>2018-11-18T08:42:16Z</time>
      </trkpt>
      <trkpt lat="48.45024" lon="2.67653">
        <ele>139.6</ele>
        <time>2018-11-18T08:42:17Z</time>
      </trkpt>
      <trkpt lat="48.45023" lon="2.6765">
        <ele>139.6</ele>
        <time>2018-11-18T08:42:18Z</time>
      </trkpt>
      <trkpt lat="48.45022" lon="2.67648">
        <ele>139.7</ele>
        <time>2018-11-18T08:42:19Z</time>
      </trkpt>
      <trkpt lat="48.45021" lon="2.67645">
        <ele>139.7</ele>
        <time>2018-11-18T08:42:20Z</time>
      </trkpt>
      <trkpt lat="48.45019" lon="2.67641">
        <ele>139.7</ele>
        <time>2018-11-18T08:42:21Z</time>
      </trkpt>
      <trkpt lat="48.45016" lon="2.67638">
        <ele>139.6</ele>
        <time>2018-11-18T08:42:22Z</time>
      </trkpt>
      <trkpt lat="48.45014" lon="2.67634">
        <ele>139.6</ele>
        <time>2018-11-18T08:42:23Z</time>
      </trkpt>
      <trkpt lat="48.45011" lon="2.6763">
        <ele>139.6</ele>
        <time>2018-11-18T08:42:24Z</time>
      </trkpt>
      <trkpt lat="48.45009" lon="2.67627">
        <ele>139.6</ele>
        <time>2018-11-18T08:42:25Z</time>
      </trkpt>
      <trkpt lat="48.45006" lon="2.67623">
        <ele>139.5</ele>
        <time>2018-11-18T08:42:26Z</time>
      </trkpt>
      <trkpt lat="48.45004" lon="2.67619">
        <ele>139.5</ele>
        <time>2018-11-18T08:42:27Z</time>
      </trkpt>
      <trkpt lat="48.45002" lon="2.67616">
        <ele>139.5</ele>
        <time>2018-11-18T08:42:28Z</time>
      </trkpt>
      <trkpt lat="48.45001" lon="2.67613">
        <ele>139.5</ele>
        <time>2018-11-18T08:42:29Z</time>
      </trkpt>
      <trkpt lat="48.45" lon="2.6761">
        <ele>139.5</ele>
        <time>2018-11-18T08:42:30Z</time>
      </trkpt>
      <trkpt lat="48.44998" lon="2.67608">
        <ele>139.6</ele>
        <time>2018-11-18T08:42:31Z</time>
      </trkpt>
      <trkpt lat="48.44996" lon="2.67607">
        <ele>139.5</ele>
        <time>2018-11-18T08:42:32Z</time>
      </trkpt>
      <trkpt lat="48.44994" lon="2.67607">
        <ele>139.4</ele>
        <time>2018-11-18T08:42:33Z</time>
      </trkpt>
      <trkpt lat="48.44991" lon="2.67608">
        <ele>139.4</ele>
        <time>2018-11-18T08:42:34Z</time>
      </trkpt>
      <trkpt lat="48.44989" lon="2.67609">
        <ele>139.3</ele>
        <time>2018-11-18T08:42:35Z</time>
      </trkpt>
      <trkpt lat="48.44986" lon="2.6761">
        <ele>139.2</ele>
        <time>2018-11-18T08:42:36Z</time>
      </trkpt>
      <trkpt lat="48.44983" lon="2.67612">
        <ele>139.2</ele>
        <time>2018-11-18T08:42:37Z</time>
      </trkpt>
      <trkpt lat="48.4498" lon="2.67614">
        <ele>139.1</ele>
        <time>2018-11-18T08:42:38Z</time>
      </trkpt>
      <trkpt lat="48.44977" lon="2.67615">
        <ele>139</ele>
        <time>2018-11-18T08:42:39Z</time>
      </trkpt>
      <trkpt lat="48.44974" lon="2.67616">
        <ele>138.9</ele>
        <time>2018-11-18T08:42:40Z</time>
      </trkpt>
      <trkpt lat="48.44971" lon="2.67616">
        <ele>138.8</ele>
        <time>2018-11-18T08:42:41Z</time>
      </trkpt>
      <trkpt lat="48.44968" lon="2.67615">
        <ele>138.7</ele>
        <time>2018-11-18T08:42:42Z</time>
      </trkpt>
      <trkpt lat="48.44966" lon="2.67614">
        <ele>138.7</ele>
        <time>2018-11-18T08:42:43Z</time>
      </trkpt>
      <trkpt lat="48.44964" lon="2.67614">
        <ele>138.7</ele>
        <time>2018-11-18T08:42:44Z</time>
      </trkpt>
      <trkpt lat="48.44961" lon="2.67613">
        <ele>138.6</ele>
        <time>2018-11-18T08:42:45Z</time>
      </trkpt>
      <trkpt lat="48.44957" lon="2.67613">
        <ele>138.6</ele>
        <time>2018-11-18T08:42:46Z</time>
      </trkpt>
      <trkpt lat="48.44954" lon="2.67612">
        <ele>138.6</ele>
        <time>2018-11-18T08:42:47Z</time>
      </trkpt>
      <trkpt lat="48.44951" lon="2.67611">
        <ele>138.5</ele>
        <time>2018-11-18T08:42:48Z</time>
      </trkpt>
      <trkpt lat="48.44948" lon="2.6761">
        <ele>138.5</ele>
        <time>2018-11-18T08:42:49Z</time>
      </trkpt>
      <trkpt lat="48.44945" lon="2.67609">
        <ele>138.5</ele>
        <time>2018-11-18T08:42:50Z</time>
      </trkpt>
      <trkpt lat="48.44942" lon="2.6761">
        <ele>138.4</ele>
        <time>2018-11-18T08:42:51Z</time>
      </trkpt>
      <trkpt lat="48.44939" lon="2.6761">
        <ele>138.4</ele>
        <time>2018-11-18T08:42:52Z</time>
      </trkpt>
      <trkpt lat="48.44936" lon="2.67611">
        <ele>138.4</ele>
        <time>2018-11-18T08:42:53Z</time>
      </trkpt>
      <trkpt lat="48.44933" lon="2.67612">
        <ele>138.4</ele>
        <time>2018-11-18T08:42:54Z</time>
      </trkpt>
      <trkpt lat="48.4493" lon="2.67613">
        <ele>138.4</ele>
        <time>2018-11-18T08:42:55Z</time>
      </trkpt>
      <trkpt lat="48.44927" lon="2.67614">
        <ele>138.3</ele>
        <time>2018-11-18T08:42:56Z</time>
      </trkpt>
      <trkpt lat="48.44924" lon="2.67616">
        <ele>138.3</ele>
        <time>2018-11-18T08:42:57Z</time>
      </trkpt>
      <trkpt lat="48.44922" lon="2.67618">
        <ele>138.4</ele>
        <time>2018-11-18T08:42:58Z</time>
      </trkpt>
      <trkpt lat="48.44919" lon="2.67619">
        <ele>138.4</ele>
        <time>2018-11-18T08:42:59Z</time>
      </trkpt>
      <trkpt lat="48.44917" lon="2.67621">
        <ele>138.4</ele>
        <time>2018-11-18T08:43:00Z</time>
      </trkpt>
      <trkpt lat="48.44915" lon="2.67621">
        <ele>138.4</ele>
        <time>2018-11-18T08:43:01Z</time>
      </trkpt>
      <trkpt lat="48.44912" lon="2.67622">
        <ele>138.4</ele>
        <time>2018-11-18T08:43:02Z</time>
      </trkpt>
      <trkpt lat="48.4491" lon="2.67623">
        <ele>138.4</ele>
        <time>2018-11-18T08:43:03Z</time>
      </trkpt>
      <trkpt lat="48.44908" lon="2.67624">
        <ele>138.4</ele>
        <time>2018-11-18T08:43:04Z</time>
      </trkpt>
      <trkpt lat="48.44906" lon="2.67625">
        <ele>138.5</ele>
        <time>2018-11-18T08:43:05Z</time>
      </trkpt>
      <trkpt lat="48.44904" lon="2.67626">
        <ele>138.5</ele>
        <time>2018-11-18T08:43:06Z</time>
      </trkpt>
      <trkpt lat="48.44902" lon="2.67627">
        <ele>138.5</ele>
        <time>2018-11-18T08:43:07Z</time>
      </trkpt>
      <trkpt lat="48.449" lon="2.67629">
        <ele>138.6</ele>
        <time>2018-11-18T08:43:08Z</time>
      </trkpt>
      <trkpt lat="48.44899" lon="2.6763">
        <ele>138.6</ele>
        <time>2018-11-18T08:43:09Z</time>
      </trkpt>
      <trkpt lat="48.44897" lon="2.67632">
        <ele>138.6</ele>
        <time>2018-11-18T08:43:10Z</time>
      </trkpt>
      <trkpt lat="48.44895" lon="2.67635">
        <ele>138.7</ele>
        <time>2018-11-18T08:43:11Z</time>
      </trkpt>
      <trkpt lat="48.44893" lon="2.67637">
        <ele>138.7</ele>
        <time>2018-11-18T08:43:12Z</time>
      </trkpt>
      <trkpt lat="48.44891" lon="2.67641">
        <ele>138.8</ele>
        <time>2018-11-18T08:43:13Z</time>
      </trkpt>
      <trkpt lat="48.44889" lon="2.67644">
        <ele>138.9</ele>
        <time>2018-11-18T08:43:14Z</time>
      </trkpt>
      <trkpt lat="48.44886" lon="2.67647">
        <ele>138.9</ele>
        <time>2018-11-18T08:43:15Z</time>
      </trkpt>
      <trkpt lat="48.44883" lon="2.6765">
        <ele>138.9</ele>
        <time>2018-11-18T08:43:16Z</time>
      </trkpt>
      <trkpt lat="48.4488" lon="2.67653">
        <ele>139</ele>
        <time>2018-11-18T08:43:17Z</time>
      </trkpt>
      <trkpt lat="48.44877" lon="2.67656">
        <ele>139</ele>
        <time>2018-11-18T08:43:18Z</time>
      </trkpt>
      <trkpt lat="48.44875" lon="2.67658">
        <ele>139</ele>
        <time>2018-11-18T08:43:19Z</time>
      </trkpt>
      <trkpt lat="48.44873" lon="2.6766">
        <ele>139</ele>
        <time>2018-11-18T08:43:20Z</time>
      </trkpt>
      <trkpt lat="48.44873" lon="2.67663">
        <ele>139</ele>
        <time>2018-11-18T08:43:21Z</time>
      </trkpt>
      <trkpt lat="48.44872" lon="2.67665">
        <ele>139</ele>
        <time>2018-11-18T08:43:22Z</time>
      </trkpt>
      <trkpt lat="48.44871" lon="2.67668">
        <ele>139</ele>
        <time>2018-11-18T08:43:23Z</time>
      </trkpt>
      <trkpt lat="48.44871" lon="2.67671">
        <ele>139</ele>
        <time>2018-11-18T08:43:24Z</time>
      </trkpt>
      <trkpt lat="48.4487" lon="2.67674">
        <ele>139</ele>
        <time>2018-11-18T08:43:25Z</time>
      </trkpt>
      <trkpt lat="48.44869" lon="2.67678">
        <ele>139</ele>
        <time>2018-11-18T08:43:26Z</time>
      </trkpt>
      <trkpt lat="48.44867" lon="2.67682">
        <ele>139</ele>
        <time>2018-11-18T08:43:27Z</time>
      </trkpt>
      <trkpt lat="48.44865" lon="2.67685">
        <ele>139</ele>
        <time>2018-11-18T08:43:28Z</time>
      </trkpt>
      <trkpt lat="48.44864" lon="2.67688">
        <ele>139</ele>
        <time>2018-11-18T08:43:29Z</time>
      </trkpt>
      <trkpt lat="48.44863" lon="2.67691">
        <ele>138.9</ele>
        <time>2018-11-18T08:43:30Z</time>
      </trkpt>
      <trkpt lat="48.44862" lon="2.67694">
        <ele>138.9</ele>
        <time>2018-11-18T08:43:31Z</time>
      </trkpt>
      <trkpt lat="48.44861" lon="2.67697">
        <ele>138.9</ele>
        <time>2018-11-18T08:43:32Z</time>
      </trkpt>
      <trkpt lat="48.4486" lon="2.677">
        <ele>138.8</ele>
        <time>2018-11-18T08:43:33Z</time>
      </trkpt>
      <trkpt lat="48.44858" lon="2.67704">
        <ele>138.8</ele>
        <time>2018-11-18T08:43:34Z</time>
      </trkpt>
      <trkpt lat="48.44857" lon="2.67708">
        <ele>138.7</ele>
        <time>2018-11-18T08:43:35Z</time>
      </trkpt>
      <trkpt lat="48.44856" lon="2.67711">
        <ele>138.7</ele>
        <time>2018-11-18T08:43:36Z</time>
      </trkpt>
      <trkpt lat="48.44855" lon="2.67715">
        <ele>138.7</ele>
        <time>2018-11-18T08:43:37Z</time>
      </trkpt>
      <trkpt lat="48.44853" lon="2.67718">
        <ele>138.7</ele>
        <time>2018-11-18T08:43:38Z</time>
      </trkpt>
      <trkpt lat="48.44852" lon="2.67721">
        <ele>138.6</ele>
        <time>2018-11-18T08:43:39Z</time>
      </trkpt>
      <trkpt lat="48.44851" lon="2.67724">
        <ele>138.6</ele>
        <time>2018-11-18T08:43:40Z</time>
      </trkpt>
      <trkpt lat="48.4485" lon="2.67727">
        <ele>138.6</ele>
        <time>2018-11-18T08:43:41Z</time>
      </trkpt>
      <trkpt lat="48.44848" lon="2.67729">
        <ele>138.5</ele>
        <time>2018-11-18T08:43:42Z</time>
      </trkpt>
      <trkpt lat="48.44846" lon="2.67731">
        <ele>138.5</ele>
        <time>2018-11-18T08:43:43Z</time>
      </trkpt>
      <trkpt lat="48.44843" lon="2.67732">
        <ele>138.5</ele>
        <time>2018-11-18T08:43:44Z</time>
      </trkpt>
      <trkpt lat="48.44841" lon="2.67733">
        <ele>138.5</ele>
        <time>2018-11-18T08:43:45Z</time>
      </trkpt>
      <trkpt lat="48.44839" lon="2.67733">
        <ele>138.4</ele>
        <time>2018-11-18T08:43:46Z</time>
      </trkpt>
      <trkpt lat="48.44837" lon="2.67734">
        <ele>138.4</ele>
        <time>2018-11-18T08:43:47Z</time>
      </trkpt>
      <trkpt lat="48.44834" lon="2.67734">
        <ele>138.4</ele>
        <time>2018-11-18T08:43:48Z</time>
      </trkpt>
      <trkpt lat="48.44831" lon="2.67735">
        <ele>138.3</ele>
        <time>2018-11-18T08:43:49Z</time>
      </trkpt>
      <trkpt lat="48.44829" lon="2.67735">
        <ele>138.3</ele>
        <time>2018-11-18T08:43:50Z</time>
      </trkpt>
      <trkpt lat="48.44826" lon="2.67735">
        <ele>138.3</ele>
        <time>2018-11-18T08:43:51Z</time>
      </trkpt>
      <trkpt lat="48.44823" lon="2.67734">
        <ele>138.3</ele>
        <time>2018-11-18T08:43:52Z</time>
      </trkpt>
      <trkpt lat="48.4482" lon="2.67734">
        <ele>138.2</ele>
        <time>2018-11-18T08:43:53Z</time>
      </trkpt>
      <trkpt lat="48.44817" lon="2.67733">
        <ele>138.2</ele>
        <time>2018-11-18T08:43:54Z</time>
      </trkpt>
      <trkpt lat="48.44814" lon="2.67731">
        <ele>138.1</ele>
        <time>2018-11-18T08:43:55Z</time>
      </trkpt>
      <trkpt lat="48.44811" lon="2.67727">
        <ele>138.1</ele>
        <time>2018-11-18T08:43:56Z</time>
      </trkpt>
      <trkpt lat="48.44809" lon="2.67724">
        <ele>138</ele>
        <time>2018-11-18T08:43:57Z</time>
      </trkpt>
      <trkpt lat="48.44806" lon="2.6772">
        <ele>137.9</ele>
        <time>2018-11-18T08:43:58Z</time>
      </trkpt>
      <trkpt lat="48.44803" lon="2.67716">
        <ele>137.9</ele>
        <time>2018-11-18T08:43:59Z</time>
      </trkpt>
      <trkpt lat="48.448" lon="2.67712">
        <ele>137.8</ele>
        <time>2018-11-18T08:44:00Z</time>
      </trkpt>
      <trkpt lat="48.44798" lon="2.67708">
        <ele>137.7</ele>
        <time>2018-11-18T08:44:01Z</time>
      </trkpt>
      <trkpt lat="48.44796" lon="2.67705">
        <ele>137.7</ele>
        <time>2018-11-18T08:44:02Z</time>
      </trkpt>
      <trkpt lat="48.44794" lon="2.67702">
        <ele>137.6</ele>
        <time>2018-11-18T08:44:03Z</time>
      </trkpt>
      <trkpt lat="48.4479" lon="2.677">
        <ele>137.5</ele>
        <time>2018-11-18T08:44:04Z</time>
      </trkpt>
      <trkpt lat="48.44787" lon="2.67696">
        <ele>137.4</ele>
        <time>2018-11-18T08:44:05Z</time>
      </trkpt>
      <trkpt lat="48.44783" lon="2.67692">
        <ele>137.3</ele>
        <time>2018-11-18T08:44:06Z</time>
      </trkpt>
      <trkpt lat="48.44779" lon="2.67688">
        <ele>137.2</ele>
        <time>2018-11-18T08:44:07Z</time>
      </trkpt>
      <trkpt lat="48.44775" lon="2.67683">
        <ele>137.1</ele>
        <time>2018-11-18T08:44:08Z</time>
      </trkpt>
      <trkpt lat="48.44771" lon="2.67678">
        <ele>137</ele>
        <time>2018-11-18T08:44:09Z</time>
      </trkpt>
      <trkpt lat="48.44768" lon="2.67674">
        <ele>136.8</ele>
        <time>2018-11-18T08:44:10Z</time>
      </trkpt>
      <trkpt lat="48.44764" lon="2.67672">
        <ele>136.7</ele>
        <time>2018-11-18T08:44:11Z</time>
      </trkpt>
      <trkpt lat="48.44761" lon="2.6767">
        <ele>136.6</ele>
        <time>2018-11-18T08:44:12Z</time>
      </trkpt>
      <trkpt lat="48.44758" lon="2.67669">
        <ele>136.5</ele>
        <time>2018-11-18T08:44:13Z</time>
      </trkpt>
      <trkpt lat="48.44756" lon="2.67667">
        <ele>136.3</ele>
        <time>2018-11-18T08:44:14Z</time>
      </trkpt>
      <trkpt lat="48.44753" lon="2.67666">
        <ele>136.2</ele>
        <time>2018-11-18T08:44:15Z</time>
      </trkpt>
      <trkpt lat="48.44749" lon="2.67665">
        <ele>136</ele>
        <time>2018-11-18T08:44:16Z</time>
      </trkpt>
      <trkpt lat="48.44745" lon="2.67663">
        <ele>135.9</ele>
        <time>2018-11-18T08:44:17Z</time>
      </trkpt>
      <trkpt lat="48.44742" lon="2.6766">
        <ele>135.7</ele>
        <time>2018-11-18T08:44:18Z</time>
      </trkpt>
      <trkpt lat="48.44739" lon="2.67657">
        <ele>135.5</ele>
        <time>2018-11-18T08:44:19Z</time>
      </trkpt>
      <trkpt lat="48.44738" lon="2.67654">
        <ele>135.5</ele>
        <time>2018-11-18T08:44:20Z</time>
      </trkpt>
      <trkpt lat="48.44737" lon="2.67652">
        <ele>135.4</ele>
        <time>2018-11-18T08:44:21Z</time>
      </trkpt>
      <trkpt lat="48.44736" lon="2.6765">
        <ele>135.3</ele>
        <time>2018-11-18T08:44:22Z</time>
      </trkpt>
      <trkpt lat="48.44734" lon="2.67649">
        <ele>135.3</ele>
        <time>2018-11-18T08:44:23Z</time>
      </trkpt>
      <trkpt lat="48.44733" lon="2.67647">
        <ele>135.2</ele>
        <time>2018-11-18T08:44:24Z</time>
      </trkpt>
      <trkpt lat="48.44732" lon="2.67645">
        <ele>135.1</ele>
        <time>2018-11-18T08:44:25Z</time>
      </trkpt>
      <trkpt lat="48.4473" lon="2.67644">
        <ele>135</ele>
        <time>2018-11-18T08:44:26Z</time>
      </trkpt>
      <trkpt lat="48.44729" lon="2.67641">
        <ele>134.9</ele>
        <time>2018-11-18T08:44:27Z</time>
      </trkpt>
      <trkpt lat="48.44727" lon="2.67639">
        <ele>135.1</ele>
        <time>2018-11-18T08:44:28Z</time>
      </trkpt>
      <trkpt lat="48.44725" lon="2.67637">
        <ele>135.3</ele>
        <time>2018-11-18T08:44:29Z</time>
      </trkpt>
      <trkpt lat="48.44723" lon="2.67636">
        <ele>135.4</ele>
        <time>2018-11-18T08:44:30Z</time>
      </trkpt>
      <trkpt lat="48.44722" lon="2.67635">
        <ele>135.5</ele>
        <time>2018-11-18T08:44:31Z</time>
      </trkpt>
      <trkpt lat="48.4472" lon="2.67633">
        <ele>135.6</ele>
        <time>2018-11-18T08:44:32Z</time>
      </trkpt>
      <trkpt lat="48.44718" lon="2.67632">
        <ele>135.8</ele>
        <time>2018-11-18T08:44:33Z</time>
      </trkpt>
      <trkpt lat="48.44716" lon="2.6763">
        <ele>135.9</ele>
        <time>2018-11-18T08:44:34Z</time>
      </trkpt>
      <trkpt lat="48.44715" lon="2.67628">
        <ele>136</ele>
        <time>2018-11-18T08:44:35Z</time>
      </trkpt>
      <trkpt lat="48.44713" lon="2.67627">
        <ele>136.1</ele>
        <time>2018-11-18T08:44:36Z</time>
      </trkpt>
      <trkpt lat="48.44712" lon="2.67626">
        <ele>136.2</ele>
        <time>2018-11-18T08:44:37Z</time>
      </trkpt>
      <trkpt lat="48.4471" lon="2.67625">
        <ele>136.4</ele>
        <time>2018-11-18T08:44:38Z</time>
      </trkpt>
      <trkpt lat="48.44709" lon="2.67623">
        <ele>136.5</ele>
        <time>2018-11-18T08:44:39Z</time>
      </trkpt>
      <trkpt lat="48.44708" lon="2.67621">
        <ele>136.6</ele>
        <time>2018-11-18T08:44:40Z</time>
      </trkpt>
      <trkpt lat="48.44707" lon="2.67619">
        <ele>136.7</ele>
        <time>2018-11-18T08:44:41Z</time>
      </trkpt>
      <trkpt lat="48.44706" lon="2.67617">
        <ele>136.8</ele>
        <time>2018-11-18T08:44:42Z</time>
      </trkpt>
      <trkpt lat="48.44705" lon="2.67615">
        <ele>136.9</ele>
        <time>2018-11-18T08:44:43Z</time>
      </trkpt>
      <trkpt lat="48.44703" lon="2.67614">
        <ele>137</ele>
        <time>2018-11-18T08:44:44Z</time>
      </trkpt>
      <trkpt lat="48.44702" lon="2.67613">
        <ele>137.1</ele>
        <time>2018-11-18T08:44:45Z</time>
      </trkpt>
      <trkpt lat="48.447" lon="2.67612">
        <ele>137.2</ele>
        <time>2018-11-18T08:44:46Z</time>
      </trkpt>
      <trkpt lat="48.44699" lon="2.67611">
        <ele>137.4</ele>
        <time>2018-11-18T08:44:47Z</time>
      </trkpt>
      <trkpt lat="48.44697" lon="2.6761">
        <ele>137.5</ele>
        <time>2018-11-18T08:44:48Z</time>
      </trkpt>
      <trkpt lat="48.44695" lon="2.67609">
        <ele>137.5</ele>
        <time>2018-11-18T08:44:49Z</time>
      </trkpt>
      <trkpt lat="48.44694" lon="2.67608">
        <ele>137.6</ele>
        <time>2018-11-18T08:44:50Z</time>
      </trkpt>
      <trkpt lat="48.44692" lon="2.67606">
        <ele>137.7</ele>
        <time>2018-11-18T08:44:51Z</time>
      </trkpt>
      <trkpt lat="48.4469" lon="2.67604">
        <ele>137.8</ele>
        <time>2018-11-18T08:44:52Z</time>
      </trkpt>
      <trkpt lat="48.44689" lon="2.67603">
        <ele>137.9</ele>
        <time>2018-11-18T08:44:53Z</time>
      </trkpt>
      <trkpt lat="48.44688" lon="2.67601">
        <ele>138</ele>
        <time>2018-11-18T08:44:54Z</time>
      </trkpt>
      <trkpt lat="48.44686" lon="2.676">
        <ele>138.1</ele>
        <time>2018-11-18T08:44:55Z</time>
      </trkpt>
      <trkpt lat="48.44684" lon="2.676">
        <ele>138.2</ele>
        <time>2018-11-18T08:44:56Z</time>
      </trkpt>
      <trkpt lat="48.44682" lon="2.67599">
        <ele>138.3</ele>
        <time>2018-11-18T08:44:57Z</time>
      </trkpt>
      <trkpt lat="48.4468" lon="2.67598">
        <ele>138.3</ele>
        <time>2018-11-18T08:44:58Z</time>
      </trkpt>
      <trkpt lat="48.44678" lon="2.67598">
        <ele>138.4</ele>
        <time>2018-11-18T08:44:59Z</time>
      </trkpt>
      <trkpt lat="48.44675" lon="2.67597">
        <ele>138.5</ele>
        <time>2018-11-18T08:45:00Z</time>
      </trkpt>
      <trkpt lat="48.44673" lon="2.67598">
        <ele>138.6</ele>
        <time>2018-11-18T08:45:01Z</time>
      </trkpt>
      <trkpt lat="48.44671" lon="2.67599">
        <ele>138.7</ele>
        <time>2018-11-18T08:45:02Z</time>
      </trkpt>
      <trkpt lat="48.44669" lon="2.67599">
        <ele>138.7</ele>
        <time>2018-11-18T08:45:03Z</time>
      </trkpt>
      <trkpt lat="48.44667" lon="2.67598">
        <ele>138.8</ele>
        <time>2018-11-18T08:45:04Z</time>
      </trkpt>
      <trkpt lat="48.44665" lon="2.67597">
        <ele>138.8</ele>
        <time>2018-11-18T08:45:05Z</time>
      </trkpt>
      <trkpt lat="48.44665" lon="2.67595">
        <ele>138.9</ele>
        <time>2018-11-18T08:45:06Z</time>
      </trkpt>
      <trkpt lat="48.44663" lon="2.67593">
        <ele>138.9</ele>
        <time>2018-11-18T08:45:07Z</time>
      </trkpt>
      <trkpt lat="48.44661" lon="2.67591">
        <ele>139</ele>
        <time>2018-11-18T08:45:08Z</time>
      </trkpt>
      <trkpt lat="48.44659" lon="2.67588">
        <ele>139</ele>
        <time>2018-11-18T08:45:09Z</time>
      </trkpt>
      <trkpt lat="48.44657" lon="2.67585">
        <ele>139</ele>
        <time>2018-11-18T08:45:10Z</time>
      </trkpt>
      <trkpt lat="48.44656" lon="2.67583">
        <ele>139.1</ele>
        <time>2018-11-18T08:45:11Z</time>
      </trkpt>
      <trkpt lat="48.44656" lon="2.67581">
        <ele>139.1</ele>
        <time>2018-11-18T08:45:12Z</time>
      </trkpt>
      <trkpt lat="48.44655" lon="2.6758">
        <ele>139.1</ele>
        <time>2018-11-18T08:45:13Z</time>
      </trkpt>
      <trkpt lat="48.44655" lon="2.67578">
        <ele>139.1</ele>
        <time>2018-11-18T08:45:14Z</time>
      </trkpt>
      <trkpt lat="48.44655" lon="2.67577">
        <ele>139.1</ele>
        <time>2018-11-18T08:45:15Z</time>
      </trkpt>
      <trkpt lat="48.44654" lon="2.67575">
        <ele>139.1</ele>
        <time>2018-11-18T08:45:16Z</time>
      </trkpt>
      <trkpt lat="48.44654" lon="2.67574">
        <ele>139.1</ele>
        <time>2018-11-18T08:45:17Z</time>
      </trkpt>
      <trkpt lat="48.44654" lon="2.67572">
        <ele>139.2</ele>
        <time>2018-11-18T08:45:18Z</time>
      </trkpt>
      <trkpt lat="48.44654" lon="2.67571">
        <ele>139.2</ele>
        <time>2018-11-18T08:45:19Z</time>
      </trkpt>
      <trkpt lat="48.44654" lon="2.6757">
        <ele>139.2</ele>
        <time>2018-11-18T08:45:20Z</time>
      </trkpt>
      <trkpt lat="48.44654" lon="2.67568">
        <ele>139.2</ele>
        <time>2018-11-18T08:45:21Z</time>
      </trkpt>
      <trkpt lat="48.44654" lon="2.67567">
        <ele>139.2</ele>
        <time>2018-11-18T08:45:22Z</time>
      </trkpt>
      <trkpt lat="48.44654" lon="2.67566">
        <ele>139.2</ele>
        <time>2018-11-18T08:45:23Z</time>
      </trkpt>
      <trkpt lat="48.44654" lon="2.67564">
        <ele>139.2</ele>
        <time>2018-11-18T08:45:24Z</time>
      </trkpt>
      <trkpt lat="48.44653" lon="2.67563">
        <ele>139.2</ele>
        <time>2018-11-18T08:45:25Z</time>
      </trkpt>
      <trkpt lat="48.44653" lon="2.67562">
        <ele>139.3</ele>
        <time>2018-11-18T08:45:26Z</time>
      </trkpt>
      <trkpt lat="48.44653" lon="2.67561">
        <ele>139.3</ele>
        <time>2018-11-18T08:45:27Z</time>
      </trkpt>
      <trkpt lat="48.44653" lon="2.67561">
        <ele>139.3</ele>
        <time>2018-11-18T08:45:28Z</time>
      </trkpt>
      <trkpt lat="48.44653" lon="2.67561">
        <ele>139.3</ele>
        <time>2018-11-18T08:45:29Z</time>
      </trkpt>
      <trkpt lat="48.44653" lon="2.67561">
        <ele>139.3</ele>
        <time>2018-11-18T08:45:30Z</time>
      </trkpt>
      <trkpt lat="48.44653" lon="2.67561">
        <ele>139.3</ele>
        <time>2018-11-18T08:45:31Z</time>
      </trkpt>
      <trkpt lat="48.44653" lon="2.67561">
        <ele>139.3</ele>
        <time>2018-11-18T08:45:32Z</time>
      </trkpt>
      <trkpt lat="48.44653" lon="2.67561">
        <ele>139.3</ele>
        <time>2018-11-18T08:45:33Z</time>
      </trkpt>
      <trkpt lat="48.44653" lon="2.67561">
        <ele>139.3</ele>
        <time>2018-11-18T08:45:34Z</time>
      </trkpt>
      <trkpt lat="48.44653" lon="2.67561">
        <ele>139.3</ele>
        <time>2018-11-18T08:45:35Z</time>
      </trkpt>
      <trkpt lat="48.44653" lon="2.67561">
        <ele>139.3</ele>
        <time>2018-11-18T08:45:36Z</time>
      </trkpt>
      <trkpt lat="48.44651" lon="2.67559">
        <ele>139.3</ele>
        <time>2018-11-18T08:45:53Z</time>
      </trkpt>
      <trkpt lat="48.4465" lon="2.67558">
        <ele>139.3</ele>
        <time>2018-11-18T08:45:54Z</time>
      </trkpt>
      <trkpt lat="48.4465" lon="2.67557">
        <ele>139.3</ele>
        <time>2018-11-18T08:45:55Z</time>
      </trkpt>
      <trkpt lat="48.44648" lon="2.67556">
        <ele>139.3</ele>
        <time>2018-11-18T08:45:56Z</time>
      </trkpt>
      <trkpt lat="48.44647" lon="2.67554">
        <ele>139.4</ele>
        <time>2018-11-18T08:45:57Z</time>
      </trkpt>
      <trkpt lat="48.44644" lon="2.67553">
        <ele>139.4</ele>
        <time>2018-11-18T08:45:58Z</time>
      </trkpt>
      <trkpt lat="48.44642" lon="2.67551">
        <ele>139.4</ele>
        <time>2018-11-18T08:45:59Z</time>
      </trkpt>
      <trkpt lat="48.44639" lon="2.67549">
        <ele>139.4</ele>
        <time>2018-11-18T08:46:00Z</time>
      </trkpt>
      <trkpt lat="48.44637" lon="2.67548">
        <ele>139.4</ele>
        <time>2018-11-18T08:46:01Z</time>
      </trkpt>
      <trkpt lat="48.44636" lon="2.67548">
        <ele>139.4</ele>
        <time>2018-11-18T08:46:02Z</time>
      </trkpt>
      <trkpt lat="48.44634" lon="2.67548">
        <ele>139.4</ele>
        <time>2018-11-18T08:46:03Z</time>
      </trkpt>
      <trkpt lat="48.44633" lon="2.67547">
        <ele>139.4</ele>
        <time>2018-11-18T08:46:04Z</time>
      </trkpt>
      <trkpt lat="48.44631" lon="2.67547">
        <ele>139.4</ele>
        <time>2018-11-18T08:46:05Z</time>
      </trkpt>
      <trkpt lat="48.4463" lon="2.67546">
        <ele>139.4</ele>
        <time>2018-11-18T08:46:06Z</time>
      </trkpt>
      <trkpt lat="48.44628" lon="2.67545">
        <ele>139.4</ele>
        <time>2018-11-18T08:46:07Z</time>
      </trkpt>
      <trkpt lat="48.44627" lon="2.67544">
        <ele>139.4</ele>
        <time>2018-11-18T08:46:08Z</time>
      </trkpt>
      <trkpt lat="48.44626" lon="2.67543">
        <ele>139.4</ele>
        <time>2018-11-18T08:46:09Z</time>
      </trkpt>
      <trkpt lat="48.44624" lon="2.67543">
        <ele>139.4</ele>
        <time>2018-11-18T08:46:10Z</time>
      </trkpt>
      <trkpt lat="48.44623" lon="2.67542">
        <ele>139.4</ele>
        <time>2018-11-18T08:46:11Z</time>
      </trkpt>
      <trkpt lat="48.44622" lon="2.67542">
        <ele>139.5</ele>
        <time>2018-11-18T08:46:12Z</time>
      </trkpt>
      <trkpt lat="48.44621" lon="2.67543">
        <ele>139.5</ele>
        <time>2018-11-18T08:46:13Z</time>
      </trkpt>
      <trkpt lat="48.44619" lon="2.67543">
        <ele>139.5</ele>
        <time>2018-11-18T08:46:14Z</time>
      </trkpt>
      <trkpt lat="48.44617" lon="2.67542">
        <ele>139.6</ele>
        <time>2018-11-18T08:46:15Z</time>
      </trkpt>
      <trkpt lat="48.44615" lon="2.67541">
        <ele>139.6</ele>
        <time>2018-11-18T08:46:16Z</time>
      </trkpt>
      <trkpt lat="48.44613" lon="2.67541">
        <ele>139.6</ele>
        <time>2018-11-18T08:46:17Z</time>
      </trkpt>
      <trkpt lat="48.44612" lon="2.6754">
        <ele>139.7</ele>
        <time>2018-11-18T08:46:18Z</time>
      </trkpt>
      <trkpt lat="48.4461" lon="2.6754">
        <ele>139.7</ele>
        <time>2018-11-18T08:46:19Z</time>
      </trkpt>
      <trkpt lat="48.44608" lon="2.6754">
        <ele>139.8</ele>
        <time>2018-11-18T08:46:20Z</time>
      </trkpt>
      <trkpt lat="48.44607" lon="2.6754">
        <ele>139.8</ele>
        <time>2018-11-18T08:46:21Z</time>
      </trkpt>
      <trkpt lat="48.44604" lon="2.6754">
        <ele>139.9</ele>
        <time>2018-11-18T08:46:22Z</time>
      </trkpt>
      <trkpt lat="48.44603" lon="2.6754">
        <ele>139.9</ele>
        <time>2018-11-18T08:46:23Z</time>
      </trkpt>
      <trkpt lat="48.44601" lon="2.67539">
        <ele>139.9</ele>
        <time>2018-11-18T08:46:24Z</time>
      </trkpt>
      <trkpt lat="48.44599" lon="2.67539">
        <ele>140</ele>
        <time>2018-11-18T08:46:25Z</time>
      </trkpt>
      <trkpt lat="48.44598" lon="2.67539">
        <ele>140</ele>
        <time>2018-11-18T08:46:26Z</time>
      </trkpt>
      <trkpt lat="48.44596" lon="2.67538">
        <ele>140</ele>
        <time>2018-11-18T08:46:27Z</time>
      </trkpt>
      <trkpt lat="48.44594" lon="2.67538">
        <ele>140.1</ele>
        <time>2018-11-18T08:46:28Z</time>
      </trkpt>
      <trkpt lat="48.44593" lon="2.67539">
        <ele>140.1</ele>
        <time>2018-11-18T08:46:29Z</time>
      </trkpt>
      <trkpt lat="48.44591" lon="2.67539">
        <ele>140.2</ele>
        <time>2018-11-18T08:46:30Z</time>
      </trkpt>
      <trkpt lat="48.4459" lon="2.6754">
        <ele>140.2</ele>
        <time>2018-11-18T08:46:31Z</time>
      </trkpt>
      <trkpt lat="48.44588" lon="2.67541">
        <ele>140.2</ele>
        <time>2018-11-18T08:46:32Z</time>
      </trkpt>
      <trkpt lat="48.44588" lon="2.67542">
        <ele>140.2</ele>
        <time>2018-11-18T08:46:33Z</time>
      </trkpt>
      <trkpt lat="48.44587" lon="2.67543">
        <ele>140.3</ele>
        <time>2018-11-18T08:46:34Z</time>
      </trkpt>
      <trkpt lat="48.44586" lon="2.67544">
        <ele>140.3</ele>
        <time>2018-11-18T08:46:35Z</time>
      </trkpt>
      <trkpt lat="48.44585" lon="2.67545">
        <ele>140.3</ele>
        <time>2018-11-18T08:46:36Z</time>
      </trkpt>
      <trkpt lat="48.44584" lon="2.67546">
        <ele>140.3</ele>
        <time>2018-11-18T08:46:37Z</time>
      </trkpt>
      <trkpt lat="48.44584" lon="2.67547">
        <ele>140.4</ele>
        <time>2018-11-18T08:46:38Z</time>
      </trkpt>
      <trkpt lat="48.44583" lon="2.67548">
        <ele>140.4</ele>
        <time>2018-11-18T08:46:39Z</time>
      </trkpt>
      <trkpt lat="48.44581" lon="2.67549">
        <ele>140.4</ele>
        <time>2018-11-18T08:46:40Z</time>
      </trkpt>
      <trkpt lat="48.4458" lon="2.6755">
        <ele>140.5</ele>
        <time>2018-11-18T08:46:41Z</time>
      </trkpt>
      <trkpt lat="48.44579" lon="2.67551">
        <ele>140.5</ele>
        <time>2018-11-18T08:46:42Z</time>
      </trkpt>
      <trkpt lat="48.44577" lon="2.67553">
        <ele>140.6</ele>
        <time>2018-11-18T08:46:43Z</time>
      </trkpt>
      <trkpt lat="48.44576" lon="2.67554">
        <ele>140.6</ele>
        <time>2018-11-18T08:46:44Z</time>
      </trkpt>
      <trkpt lat="48.44574" lon="2.67555">
        <ele>140.7</ele>
        <time>2018-11-18T08:46:45Z</time>
      </trkpt>
      <trkpt lat="48.44574" lon="2.67556">
        <ele>140.7</ele>
        <time>2018-11-18T08:46:46Z</time>
      </trkpt>
      <trkpt lat="48.44573" lon="2.67557">
        <ele>140.7</ele>
        <time>2018-11-18T08:46:47Z</time>
      </trkpt>
      <trkpt lat="48.44571" lon="2.67558">
        <ele>140.8</ele>
        <time>2018-11-18T08:46:48Z</time>
      </trkpt>
      <trkpt lat="48.4457" lon="2.67558">
        <ele>140.8</ele>
        <time>2018-11-18T08:46:49Z</time>
      </trkpt>
      <trkpt lat="48.44569" lon="2.67559">
        <ele>140.8</ele>
        <time>2018-11-18T08:46:50Z</time>
      </trkpt>
      <trkpt lat="48.44567" lon="2.6756">
        <ele>140.9</ele>
        <time>2018-11-18T08:46:51Z</time>
      </trkpt>
      <trkpt lat="48.44566" lon="2.67561">
        <ele>140.9</ele>
        <time>2018-11-18T08:46:52Z</time>
      </trkpt>
      <trkpt lat="48.44565" lon="2.67562">
        <ele>140.9</ele>
        <time>2018-11-18T08:46:53Z</time>
      </trkpt>
      <trkpt lat="48.44563" lon="2.67563">
        <ele>140.9</ele>
        <time>2018-11-18T08:46:54Z</time>
      </trkpt>
      <trkpt lat="48.44562" lon="2.67564">
        <ele>140.9</ele>
        <time>2018-11-18T08:46:55Z</time>
      </trkpt>
      <trkpt lat="48.44561" lon="2.67566">
        <ele>141</ele>
        <time>2018-11-18T08:46:56Z</time>
      </trkpt>
      <trkpt lat="48.4456" lon="2.67567">
        <ele>141</ele>
        <time>2018-11-18T08:46:57Z</time>
      </trkpt>
      <trkpt lat="48.44559" lon="2.67568">
        <ele>141</ele>
        <time>2018-11-18T08:46:58Z</time>
      </trkpt>
      <trkpt lat="48.44558" lon="2.67569">
        <ele>141</ele>
        <time>2018-11-18T08:46:59Z</time>
      </trkpt>
      <trkpt lat="48.44557" lon="2.67571">
        <ele>141</ele>
        <time>2018-11-18T08:47:00Z</time>
      </trkpt>
      <trkpt lat="48.44555" lon="2.67572">
        <ele>141.1</ele>
        <time>2018-11-18T08:47:01Z</time>
      </trkpt>
      <trkpt lat="48.44554" lon="2.67573">
        <ele>141.1</ele>
        <time>2018-11-18T08:47:02Z</time>
      </trkpt>
      <trkpt lat="48.44552" lon="2.67573">
        <ele>141.1</ele>
        <time>2018-11-18T08:47:03Z</time>
      </trkpt>
      <trkpt lat="48.4455" lon="2.67573">
        <ele>141.1</ele>
        <time>2018-11-18T08:47:04Z</time>
      </trkpt>
      <trkpt lat="48.44548" lon="2.67573">
        <ele>141.1</ele>
        <time>2018-11-18T08:47:05Z</time>
      </trkpt>
      <trkpt lat="48.44546" lon="2.67573">
        <ele>141.1</ele>
        <time>2018-11-18T08:47:06Z</time>
      </trkpt>
      <trkpt lat="48.44545" lon="2.67573">
        <ele>141.1</ele>
        <time>2018-11-18T08:47:07Z</time>
      </trkpt>
      <trkpt lat="48.44543" lon="2.67572">
        <ele>141.1</ele>
        <time>2018-11-18T08:47:08Z</time>
      </trkpt>
      <trkpt lat="48.44541" lon="2.67572">
        <ele>141.1</ele>
        <time>2018-11-18T08:47:09Z</time>
      </trkpt>
      <trkpt lat="48.44539" lon="2.67571">
        <ele>141.1</ele>
        <time>2018-11-18T08:47:10Z</time>
      </trkpt>
      <trkpt lat="48.44538" lon="2.67571">
        <ele>141.1</ele>
        <time>2018-11-18T08:47:11Z</time>
      </trkpt>
      <trkpt lat="48.44536" lon="2.6757">
        <ele>141.1</ele>
        <time>2018-11-18T08:47:12Z</time>
      </trkpt>
      <trkpt lat="48.44533" lon="2.6757">
        <ele>141.1</ele>
        <time>2018-11-18T08:47:13Z</time>
      </trkpt>
      <trkpt lat="48.44531" lon="2.67569">
        <ele>141.1</ele>
        <time>2018-11-18T08:47:14Z</time>
      </trkpt>
      <trkpt lat="48.44529" lon="2.67568">
        <ele>141.1</ele>
        <time>2018-11-18T08:47:15Z</time>
      </trkpt>
      <trkpt lat="48.44527" lon="2.67567">
        <ele>141.1</ele>
        <time>2018-11-18T08:47:16Z</time>
      </trkpt>
      <trkpt lat="48.44524" lon="2.67566">
        <ele>141.1</ele>
        <time>2018-11-18T08:47:17Z</time>
      </trkpt>
      <trkpt lat="48.44522" lon="2.67565">
        <ele>141.1</ele>
        <time>2018-11-18T08:47:18Z</time>
      </trkpt>
      <trkpt lat="48.4452" lon="2.67564">
        <ele>141.1</ele>
        <time>2018-11-18T08:47:19Z</time>
      </trkpt>
      <trkpt lat="48.44517" lon="2.67563">
        <ele>141.1</ele>
        <time>2018-11-18T08:47:20Z</time>
      </trkpt>
      <trkpt lat="48.44515" lon="2.67563">
        <ele>141.1</ele>
        <time>2018-11-18T08:47:21Z</time>
      </trkpt>
      <trkpt lat="48.44512" lon="2.67562">
        <ele>141.1</ele>
        <time>2018-11-18T08:47:22Z</time>
      </trkpt>
      <trkpt lat="48.4451" lon="2.67562">
        <ele>141.1</ele>
        <time>2018-11-18T08:47:23Z</time>
      </trkpt>
      <trkpt lat="48.44508" lon="2.67564">
        <ele>141.1</ele>
        <time>2018-11-18T08:47:24Z</time>
      </trkpt>
      <trkpt lat="48.44506" lon="2.67566">
        <ele>141.1</ele>
        <time>2018-11-18T08:47:25Z</time>
      </trkpt>
      <trkpt lat="48.44505" lon="2.67567">
        <ele>141.1</ele>
        <time>2018-11-18T08:47:26Z</time>
      </trkpt>
      <trkpt lat="48.44503" lon="2.67569">
        <ele>141.1</ele>
        <time>2018-11-18T08:47:27Z</time>
      </trkpt>
      <trkpt lat="48.44502" lon="2.6757">
        <ele>141.1</ele>
        <time>2018-11-18T08:47:28Z</time>
      </trkpt>
      <trkpt lat="48.44501" lon="2.67572">
        <ele>141.1</ele>
        <time>2018-11-18T08:47:29Z</time>
      </trkpt>
      <trkpt lat="48.445" lon="2.67574">
        <ele>141.1</ele>
        <time>2018-11-18T08:47:30Z</time>
      </trkpt>
      <trkpt lat="48.445" lon="2.67577">
        <ele>141.1</ele>
        <time>2018-11-18T08:47:31Z</time>
      </trkpt>
      <trkpt lat="48.445" lon="2.67579">
        <ele>141.1</ele>
        <time>2018-11-18T08:47:32Z</time>
      </trkpt>
      <trkpt lat="48.44501" lon="2.67582">
        <ele>141.2</ele>
        <time>2018-11-18T08:47:33Z</time>
      </trkpt>
      <trkpt lat="48.445" lon="2.67584">
        <ele>141.2</ele>
        <time>2018-11-18T08:47:34Z</time>
      </trkpt>
      <trkpt lat="48.445" lon="2.67586">
        <ele>141.2</ele>
        <time>2018-11-18T08:47:35Z</time>
      </trkpt>
      <trkpt lat="48.44499" lon="2.67588">
        <ele>141.2</ele>
        <time>2018-11-18T08:47:36Z</time>
      </trkpt>
      <trkpt lat="48.44498" lon="2.6759">
        <ele>141.2</ele>
        <time>2018-11-18T08:47:37Z</time>
      </trkpt>
      <trkpt lat="48.44498" lon="2.67593">
        <ele>141.2</ele>
        <time>2018-11-18T08:47:38Z</time>
      </trkpt>
      <trkpt lat="48.44497" lon="2.67595">
        <ele>141.2</ele>
        <time>2018-11-18T08:47:39Z</time>
      </trkpt>
      <trkpt lat="48.44497" lon="2.67596">
        <ele>141.2</ele>
        <time>2018-11-18T08:47:40Z</time>
      </trkpt>
      <trkpt lat="48.44496" lon="2.67597">
        <ele>141.2</ele>
        <time>2018-11-18T08:47:41Z</time>
      </trkpt>
      <trkpt lat="48.44496" lon="2.67598">
        <ele>141.2</ele>
        <time>2018-11-18T08:47:42Z</time>
      </trkpt>
      <trkpt lat="48.44496" lon="2.67599">
        <ele>141.2</ele>
        <time>2018-11-18T08:47:43Z</time>
      </trkpt>
      <trkpt lat="48.44495" lon="2.67599">
        <ele>141.2</ele>
        <time>2018-11-18T08:47:44Z</time>
      </trkpt>
      <trkpt lat="48.44495" lon="2.67599">
        <ele>141.2</ele>
        <time>2018-11-18T08:47:45Z</time>
      </trkpt>
      <trkpt lat="48.44495" lon="2.67599">
        <ele>141.2</ele>
        <time>2018-11-18T08:48:05Z</time>
      </trkpt>
      <trkpt lat="48.44495" lon="2.67599">
        <ele>141.2</ele>
        <time>2018-11-18T08:48:06Z</time>
      </trkpt>
      <trkpt lat="48.44495" lon="2.67599">
        <ele>141.2</ele>
        <time>2018-11-18T08:48:07Z</time>
      </trkpt>
      <trkpt lat="48.44495" lon="2.67599">
        <ele>141.2</ele>
        <time>2018-11-18T08:48:08Z</time>
      </trkpt>
      <trkpt lat="48.44495" lon="2.67599">
        <ele>141.2</ele>
        <time>2018-11-18T08:48:09Z</time>
      </trkpt>
      <trkpt lat="48.44495" lon="2.67599">
        <ele>141.2</ele>
        <time>2018-11-18T08:48:10Z</time>
      </trkpt>
      <trkpt lat="48.44496" lon="2.67599">
        <ele>141.2</ele>
        <time>2018-11-18T08:48:17Z</time>
      </trkpt>
      <trkpt lat="48.44497" lon="2.676">
        <ele>141.3</ele>
        <time>2018-11-18T08:48:18Z</time>
      </trkpt>
      <trkpt lat="48.44497" lon="2.67601">
        <ele>141.3</ele>
        <time>2018-11-18T08:48:19Z</time>
      </trkpt>
      <trkpt lat="48.44498" lon="2.67602">
        <ele>141.3</ele>
        <time>2018-11-18T08:48:20Z</time>
      </trkpt>
      <trkpt lat="48.44498" lon="2.67604">
        <ele>141.3</ele>
        <time>2018-11-18T08:48:21Z</time>
      </trkpt>
      <trkpt lat="48.44498" lon="2.67605">
        <ele>141.3</ele>
        <time>2018-11-18T08:48:22Z</time>
      </trkpt>
      <trkpt lat="48.44499" lon="2.67607">
        <ele>141.3</ele>
        <time>2018-11-18T08:48:23Z</time>
      </trkpt>
      <trkpt lat="48.44499" lon="2.67608">
        <ele>141.3</ele>
        <time>2018-11-18T08:48:24Z</time>
      </trkpt>
      <trkpt lat="48.44499" lon="2.67608">
        <ele>141.3</ele>
        <time>2018-11-18T08:48:25Z</time>
      </trkpt>
      <trkpt lat="48.44499" lon="2.67608">
        <ele>141.3</ele>
        <time>2018-11-18T08:48:26Z</time>
      </trkpt>
      <trkpt lat="48.44499" lon="2.67609">
        <ele>141.3</ele>
        <time>2018-11-18T08:48:27Z</time>
      </trkpt>
      <trkpt lat="48.44499" lon="2.67609">
        <ele>141.3</ele>
        <time>2018-11-18T08:48:28Z</time>
      </trkpt>
      <trkpt lat="48.44499" lon="2.6761">
        <ele>141.3</ele>
        <time>2018-11-18T08:48:29Z</time>
      </trkpt>
      <trkpt lat="48.44499" lon="2.67613">
        <ele>141.3</ele>
        <time>2018-11-18T08:48:30Z</time>
      </trkpt>
      <trkpt lat="48.44498" lon="2.67614">
        <ele>141.3</ele>
        <time>2018-11-18T08:48:31Z</time>
      </trkpt>
      <trkpt lat="48.44498" lon="2.67615">
        <ele>141.3</ele>
        <time>2018-11-18T08:48:32Z</time>
      </trkpt>
      <trkpt lat="48.44498" lon="2.67615">
        <ele>141.3</ele>
        <time>2018-11-18T08:48:33Z</time>
      </trkpt>
      <trkpt lat="48.44497" lon="2.67616">
        <ele>141.3</ele>
        <time>2018-11-18T08:48:34Z</time>
      </trkpt>
      <trkpt lat="48.44497" lon="2.67616">
        <ele>141.3</ele>
        <time>2018-11-18T08:48:35Z</time>
      </trkpt>
      <trkpt lat="48.44497" lon="2.67616">
        <ele>141.3</ele>
        <time>2018-11-18T08:48:36Z</time>
      </trkpt>
      <trkpt lat="48.44493" lon="2.6762">
        <ele>141.3</ele>
        <time>2018-11-18T08:48:53Z</time>
      </trkpt>
      <trkpt lat="48.44492" lon="2.67621">
        <ele>141.2</ele>
        <time>2018-11-18T08:48:54Z</time>
      </trkpt>
      <trkpt lat="48.44491" lon="2.67622">
        <ele>141.2</ele>
        <time>2018-11-18T08:48:55Z</time>
      </trkpt>
      <trkpt lat="48.4449" lon="2.67624">
        <ele>141.2</ele>
        <time>2018-11-18T08:48:56Z</time>
      </trkpt>
      <trkpt lat="48.44489" lon="2.67626">
        <ele>141.2</ele>
        <time>2018-11-18T08:48:57Z</time>
      </trkpt>
      <trkpt lat="48.44489" lon="2.67627">
        <ele>141.2</ele>
        <time>2018-11-18T08:48:58Z</time>
      </trkpt>
      <trkpt lat="48.44488" lon="2.67628">
        <ele>141.2</ele>
        <time>2018-11-18T08:48:59Z</time>
      </trkpt>
      <trkpt lat="48.44487" lon="2.6763">
        <ele>141.2</ele>
        <time>2018-11-18T08:49:00Z</time>
      </trkpt>
      <trkpt lat="48.44487" lon="2.67633">
        <ele>141.2</ele>
        <time>2018-11-18T08:49:01Z</time>
      </trkpt>
      <trkpt lat="48.44486" lon="2.67635">
        <ele>141.1</ele>
        <time>2018-11-18T08:49:02Z</time>
      </trkpt>
      <trkpt lat="48.44486" lon="2.67638">
        <ele>141.1</ele>
        <time>2018-11-18T08:49:03Z</time>
      </trkpt>
      <trkpt lat="48.44486" lon="2.67641">
        <ele>141.1</ele>
        <time>2018-11-18T08:49:04Z</time>
      </trkpt>
      <trkpt lat="48.44486" lon="2.67644">
        <ele>141.1</ele>
        <time>2018-11-18T08:49:05Z</time>
      </trkpt>
      <trkpt lat="48.44486" lon="2.67648">
        <ele>141.1</ele>
        <time>2018-11-18T08:49:06Z</time>
      </trkpt>
      <trkpt lat="48.44486" lon="2.67652">
        <ele>141</ele>
        <time>2018-11-18T08:49:07Z</time>
      </trkpt>
      <trkpt lat="48.44486" lon="2.67656">
        <ele>141</ele>
        <time>2018-11-18T08:49:08Z</time>
      </trkpt>
      <trkpt lat="48.44486" lon="2.67659">
        <ele>141</ele>
        <time>2018-11-18T08:49:09Z</time>
      </trkpt>
      <trkpt lat="48.44487" lon="2.67662">
        <ele>141</ele>
        <time>2018-11-18T08:49:10Z</time>
      </trkpt>
      <trkpt lat="48.44488" lon="2.67663">
        <ele>141</ele>
        <time>2018-11-18T08:49:11Z</time>
      </trkpt>
      <trkpt lat="48.44489" lon="2.67664">
        <ele>141</ele>
        <time>2018-11-18T08:49:12Z</time>
      </trkpt>
      <trkpt lat="48.4449" lon="2.67665">
        <ele>141</ele>
        <time>2018-11-18T08:49:13Z</time>
      </trkpt>
      <trkpt lat="48.4449" lon="2.67666">
        <ele>140.9</ele>
        <time>2018-11-18T08:49:14Z</time>
      </trkpt>
      <trkpt lat="48.44489" lon="2.67667">
        <ele>140.9</ele>
        <time>2018-11-18T08:49:15Z</time>
      </trkpt>
      <trkpt lat="48.44489" lon="2.67669">
        <ele>140.9</ele>
        <time>2018-11-18T08:49:16Z</time>
      </trkpt>
      <trkpt lat="48.44489" lon="2.67671">
        <ele>140.9</ele>
        <time>2018-11-18T08:49:17Z</time>
      </trkpt>
      <trkpt lat="48.44489" lon="2.67673">
        <ele>140.9</ele>
        <time>2018-11-18T08:49:18Z</time>
      </trkpt>
      <trkpt lat="48.44489" lon="2.67677">
        <ele>140.9</ele>
        <time>2018-11-18T08:49:19Z</time>
      </trkpt>
      <trkpt lat="48.44488" lon="2.6768">
        <ele>140.9</ele>
        <time>2018-11-18T08:49:20Z</time>
      </trkpt>
      <trkpt lat="48.44487" lon="2.67683">
        <ele>140.9</ele>
        <time>2018-11-18T08:49:21Z</time>
      </trkpt>
      <trkpt lat="48.44487" lon="2.67687">
        <ele>140.9</ele>
        <time>2018-11-18T08:49:22Z</time>
      </trkpt>
      <trkpt lat="48.44486" lon="2.67691">
        <ele>140.8</ele>
        <time>2018-11-18T08:49:23Z</time>
      </trkpt>
      <trkpt lat="48.44486" lon="2.67694">
        <ele>140.8</ele>
        <time>2018-11-18T08:49:24Z</time>
      </trkpt>
      <trkpt lat="48.44485" lon="2.67697">
        <ele>140.8</ele>
        <time>2018-11-18T08:49:25Z</time>
      </trkpt>
      <trkpt lat="48.44484" lon="2.677">
        <ele>140.8</ele>
        <time>2018-11-18T08:49:26Z</time>
      </trkpt>
      <trkpt lat="48.44484" lon="2.67703">
        <ele>140.8</ele>
        <time>2018-11-18T08:49:27Z</time>
      </trkpt>
      <trkpt lat="48.44483" lon="2.67706">
        <ele>140.8</ele>
        <time>2018-11-18T08:49:28Z</time>
      </trkpt>
      <trkpt lat="48.44482" lon="2.67709">
        <ele>140.8</ele>
        <time>2018-11-18T08:49:29Z</time>
      </trkpt>
      <trkpt lat="48.44482" lon="2.67713">
        <ele>140.7</ele>
        <time>2018-11-18T08:49:30Z</time>
      </trkpt>
      <trkpt lat="48.44481" lon="2.67716">
        <ele>140.7</ele>
        <time>2018-11-18T08:49:31Z</time>
      </trkpt>
      <trkpt lat="48.44481" lon="2.6772">
        <ele>140.7</ele>
        <time>2018-11-18T08:49:32Z</time>
      </trkpt>
      <trkpt lat="48.4448" lon="2.67724">
        <ele>140.7</ele>
        <time>2018-11-18T08:49:33Z</time>
      </trkpt>
      <trkpt lat="48.4448" lon="2.67728">
        <ele>140.7</ele>
        <time>2018-11-18T08:49:34Z</time>
      </trkpt>
      <trkpt lat="48.4448" lon="2.67731">
        <ele>140.7</ele>
        <time>2018-11-18T08:49:35Z</time>
      </trkpt>
      <trkpt lat="48.44481" lon="2.67734">
        <ele>140.7</ele>
        <time>2018-11-18T08:49:36Z</time>
      </trkpt>
      <trkpt lat="48.44482" lon="2.67735">
        <ele>140.7</ele>
        <time>2018-11-18T08:49:37Z</time>
      </trkpt>
      <trkpt lat="48.44482" lon="2.67737">
        <ele>140.7</ele>
        <time>2018-11-18T08:49:38Z</time>
      </trkpt>
      <trkpt lat="48.44483" lon="2.67738">
        <ele>140.7</ele>
        <time>2018-11-18T08:49:39Z</time>
      </trkpt>
      <trkpt lat="48.44483" lon="2.6774">
        <ele>140.7</ele>
        <time>2018-11-18T08:49:40Z</time>
      </trkpt>
      <trkpt lat="48.44483" lon="2.6774">
        <ele>140.7</ele>
        <time>2018-11-18T08:49:41Z</time>
      </trkpt>
      <trkpt lat="48.44484" lon="2.67742">
        <ele>140.7</ele>
        <time>2018-11-18T08:49:42Z</time>
      </trkpt>
      <trkpt lat="48.44484" lon="2.67744">
        <ele>140.7</ele>
        <time>2018-11-18T08:49:43Z</time>
      </trkpt>
      <trkpt lat="48.44484" lon="2.67745">
        <ele>140.7</ele>
        <time>2018-11-18T08:49:44Z</time>
      </trkpt>
      <trkpt lat="48.44484" lon="2.67747">
        <ele>140.7</ele>
        <time>2018-11-18T08:49:45Z</time>
      </trkpt>
      <trkpt lat="48.44484" lon="2.67748">
        <ele>140.7</ele>
        <time>2018-11-18T08:49:46Z</time>
      </trkpt>
      <trkpt lat="48.44484" lon="2.67749">
        <ele>140.7</ele>
        <time>2018-11-18T08:49:47Z</time>
      </trkpt>
      <trkpt lat="48.44483" lon="2.67749">
        <ele>140.7</ele>
        <time>2018-11-18T08:49:48Z</time>
      </trkpt>
      <trkpt lat="48.44483" lon="2.67749">
        <ele>140.7</ele>
        <time>2018-11-18T08:49:49Z</time>
      </trkpt>
      <trkpt lat="48.44483" lon="2.67749">
        <ele>140.7</ele>
        <time>2018-11-18T08:49:50Z</time>
      </trkpt>
      <trkpt lat="48.44483" lon="2.67749">
        <ele>140.7</ele>
        <time>2018-11-18T08:49:51Z</time>
      </trkpt>
      <trkpt lat="48.44483" lon="2.67749">
        <ele>140.7</ele>
        <time>2018-11-18T08:49:52Z</time>
      </trkpt>
      <trkpt lat="48.44483" lon="2.67749">
        <ele>140.7</ele>
        <time>2018-11-18T08:49:53Z</time>
      </trkpt>
      <trkpt lat="48.44483" lon="2.67749">
        <ele>140.7</ele>
        <time>2018-11-18T08:49:54Z</time>
      </trkpt>
      <trkpt lat="48.44485" lon="2.67752">
        <ele>140.7</ele>
        <time>2018-11-18T08:49:57Z</time>
      </trkpt>
      <trkpt lat="48.44486" lon="2.67753">
        <ele>140.7</ele>
        <time>2018-11-18T08:49:58Z</time>
      </trkpt>
      <trkpt lat="48.44487" lon="2.67753">
        <ele>140.7</ele>
        <time>2018-11-18T08:49:59Z</time>
      </trkpt>
      <trkpt lat="48.44488" lon="2.67754">
        <ele>140.7</ele>
        <time>2018-11-18T08:50:00Z</time>
      </trkpt>
      <trkpt lat="48.4449" lon="2.67754">
        <ele>140.7</ele>
        <time>2018-11-18T08:50:01Z</time>
      </trkpt>
      <trkpt lat="48.44491" lon="2.67755">
        <ele>140.7</ele>
        <time>2018-11-18T08:50:02Z</time>
      </trkpt>
      <trkpt lat="48.44492" lon="2.67755">
        <ele>140.7</ele>
        <time>2018-11-18T08:50:03Z</time>
      </trkpt>
      <trkpt lat="48.44494" lon="2.67755">
        <ele>140.7</ele>
        <time>2018-11-18T08:50:04Z</time>
      </trkpt>
      <trkpt lat="48.44495" lon="2.67755">
        <ele>140.8</ele>
        <time>2018-11-18T08:50:05Z</time>
      </trkpt>
      <trkpt lat="48.44497" lon="2.67755">
        <ele>140.8</ele>
        <time>2018-11-18T08:50:06Z</time>
      </trkpt>
      <trkpt lat="48.44498" lon="2.67755">
        <ele>140.8</ele>
        <time>2018-11-18T08:50:07Z</time>
      </trkpt>
      <trkpt lat="48.44499" lon="2.67755">
        <ele>140.8</ele>
        <time>2018-11-18T08:50:08Z</time>
      </trkpt>
      <trkpt lat="48.44501" lon="2.67755">
        <ele>140.8</ele>
        <time>2018-11-18T08:50:09Z</time>
      </trkpt>
      <trkpt lat="48.44503" lon="2.67755">
        <ele>140.8</ele>
        <time>2018-11-18T08:50:10Z</time>
      </trkpt>
      <trkpt lat="48.44505" lon="2.67755">
        <ele>140.8</ele>
        <time>2018-11-18T08:50:11Z</time>
      </trkpt>
      <trkpt lat="48.44506" lon="2.67755">
        <ele>140.8</ele>
        <time>2018-11-18T08:50:12Z</time>
      </trkpt>
      <trkpt lat="48.44508" lon="2.67755">
        <ele>140.8</ele>
        <time>2018-11-18T08:50:13Z</time>
      </trkpt>
      <trkpt lat="48.44511" lon="2.67756">
        <ele>140.9</ele>
        <time>2018-11-18T08:50:14Z</time>
      </trkpt>
      <trkpt lat="48.44513" lon="2.67758">
        <ele>140.9</ele>
        <time>2018-11-18T08:50:15Z</time>
      </trkpt>
      <trkpt lat="48.44515" lon="2.67759">
        <ele>140.9</ele>
        <time>2018-11-18T08:50:16Z</time>
      </trkpt>
      <trkpt lat="48.44517" lon="2.67761">
        <ele>140.9</ele>
        <time>2018-11-18T08:50:17Z</time>
      </trkpt>
      <trkpt lat="48.44519" lon="2.67762">
        <ele>140.9</ele>
        <time>2018-11-18T08:50:18Z</time>
      </trkpt>
      <trkpt lat="48.44521" lon="2.67764">
        <ele>140.9</ele>
        <time>2018-11-18T08:50:19Z</time>
      </trkpt>
      <trkpt lat="48.44523" lon="2.67765">
        <ele>140.9</ele>
        <time>2018-11-18T08:50:20Z</time>
      </trkpt>
      <trkpt lat="48.44526" lon="2.67765">
        <ele>141</ele>
        <time>2018-11-18T08:50:21Z</time>
      </trkpt>
      <trkpt lat="48.44529" lon="2.67764">
        <ele>141</ele>
        <time>2018-11-18T08:50:22Z</time>
      </trkpt>
      <trkpt lat="48.44532" lon="2.67763">
        <ele>141</ele>
        <time>2018-11-18T08:50:23Z</time>
      </trkpt>
      <trkpt lat="48.44535" lon="2.67761">
        <ele>141</ele>
        <time>2018-11-18T08:50:24Z</time>
      </trkpt>
      <trkpt lat="48.44537" lon="2.6776">
        <ele>141</ele>
        <time>2018-11-18T08:50:25Z</time>
      </trkpt>
      <trkpt lat="48.4454" lon="2.6776">
        <ele>141</ele>
        <time>2018-11-18T08:50:26Z</time>
      </trkpt>
      <trkpt lat="48.44543" lon="2.6776">
        <ele>141</ele>
        <time>2018-11-18T08:50:27Z</time>
      </trkpt>
      <trkpt lat="48.44545" lon="2.67761">
        <ele>141</ele>
        <time>2018-11-18T08:50:28Z</time>
      </trkpt>
      <trkpt lat="48.44546" lon="2.67763">
        <ele>141</ele>
        <time>2018-11-18T08:50:29Z</time>
      </trkpt>
      <trkpt lat="48.44547" lon="2.67765">
        <ele>141</ele>
        <time>2018-11-18T08:50:30Z</time>
      </trkpt>
      <trkpt lat="48.44548" lon="2.67767">
        <ele>141</ele>
        <time>2018-11-18T08:50:31Z</time>
      </trkpt>
      <trkpt lat="48.4455" lon="2.6777">
        <ele>141</ele>
        <time>2018-11-18T08:50:32Z</time>
      </trkpt>
      <trkpt lat="48.44551" lon="2.67773">
        <ele>141</ele>
        <time>2018-11-18T08:50:33Z</time>
      </trkpt>
      <trkpt lat="48.44553" lon="2.67776">
        <ele>141</ele>
        <time>2018-11-18T08:50:34Z</time>
      </trkpt>
      <trkpt lat="48.44554" lon="2.6778">
        <ele>141</ele>
        <time>2018-11-18T08:50:35Z</time>
      </trkpt>
      <trkpt lat="48.44555" lon="2.67785">
        <ele>141</ele>
        <time>2018-11-18T08:50:36Z</time>
      </trkpt>
      <trkpt lat="48.44556" lon="2.67791">
        <ele>141</ele>
        <time>2018-11-18T08:50:37Z</time>
      </trkpt>
      <trkpt lat="48.44556" lon="2.67797">
        <ele>141</ele>
        <time>2018-11-18T08:50:38Z</time>
      </trkpt>
      <trkpt lat="48.44555" lon="2.67804">
        <ele>141.1</ele>
        <time>2018-11-18T08:50:39Z</time>
      </trkpt>
      <trkpt lat="48.44554" lon="2.67809">
        <ele>141.1</ele>
        <time>2018-11-18T08:50:40Z</time>
      </trkpt>
      <trkpt lat="48.44554" lon="2.67813">
        <ele>141.1</ele>
        <time>2018-11-18T08:50:41Z</time>
      </trkpt>
      <trkpt lat="48.44554" lon="2.67819">
        <ele>141.2</ele>
        <time>2018-11-18T08:50:42Z</time>
      </trkpt>
      <trkpt lat="48.44556" lon="2.67827">
        <ele>141.3</ele>
        <time>2018-11-18T08:50:43Z</time>
      </trkpt>
      <trkpt lat="48.44558" lon="2.67836">
        <ele>141.4</ele>
        <time>2018-11-18T08:50:44Z</time>
      </trkpt>
      <trkpt lat="48.4456" lon="2.67844">
        <ele>141.6</ele>
        <time>2018-11-18T08:50:45Z</time>
      </trkpt>
      <trkpt lat="48.44559" lon="2.67846">
        <ele>141.6</ele>
        <time>2018-11-18T08:50:46Z</time>
      </trkpt>
      <trkpt lat="48.44558" lon="2.67848">
        <ele>141.7</ele>
        <time>2018-11-18T08:50:47Z</time>
      </trkpt>
      <trkpt lat="48.44558" lon="2.67849">
        <ele>141.7</ele>
        <time>2018-11-18T08:50:48Z</time>
      </trkpt>
      <trkpt lat="48.44557" lon="2.6785">
        <ele>141.7</ele>
        <time>2018-11-18T08:50:49Z</time>
      </trkpt>
      <trkpt lat="48.44558" lon="2.67851">
        <ele>141.7</ele>
        <time>2018-11-18T08:50:50Z</time>
      </trkpt>
      <trkpt lat="48.44557" lon="2.67852">
        <ele>141.8</ele>
        <time>2018-11-18T08:50:51Z</time>
      </trkpt>
      <trkpt lat="48.44557" lon="2.67853">
        <ele>141.8</ele>
        <time>2018-11-18T08:50:52Z</time>
      </trkpt>
      <trkpt lat="48.44558" lon="2.67853">
        <ele>141.8</ele>
        <time>2018-11-18T08:50:53Z</time>
      </trkpt>
      <trkpt lat="48.44559" lon="2.67854">
        <ele>141.8</ele>
        <time>2018-11-18T08:50:54Z</time>
      </trkpt>
      <trkpt lat="48.4456" lon="2.67856">
        <ele>141.8</ele>
        <time>2018-11-18T08:50:55Z</time>
      </trkpt>
      <trkpt lat="48.44561" lon="2.67857">
        <ele>141.8</ele>
        <time>2018-11-18T08:50:56Z</time>
      </trkpt>
      <trkpt lat="48.44561" lon="2.67859">
        <ele>141.8</ele>
        <time>2018-11-18T08:50:57Z</time>
      </trkpt>
      <trkpt lat="48.44561" lon="2.67861">
        <ele>141.8</ele>
        <time>2018-11-18T08:50:58Z</time>
      </trkpt>
      <trkpt lat="48.44561" lon="2.67862">
        <ele>141.8</ele>
        <time>2018-11-18T08:50:59Z</time>
      </trkpt>
      <trkpt lat="48.44561" lon="2.67864">
        <ele>141.8</ele>
        <time>2018-11-18T08:51:00Z</time>
      </trkpt>
      <trkpt lat="48.44561" lon="2.67865">
        <ele>141.8</ele>
        <time>2018-11-18T08:51:01Z</time>
      </trkpt>
      <trkpt lat="48.44561" lon="2.67866">
        <ele>141.8</ele>
        <time>2018-11-18T08:51:02Z</time>
      </trkpt>
      <trkpt lat="48.44561" lon="2.67868">
        <ele>141.9</ele>
        <time>2018-11-18T08:51:03Z</time>
      </trkpt>
      <trkpt lat="48.44562" lon="2.67869">
        <ele>141.9</ele>
        <time>2018-11-18T08:51:04Z</time>
      </trkpt>
      <trkpt lat="48.44563" lon="2.67871">
        <ele>141.9</ele>
        <time>2018-11-18T08:51:05Z</time>
      </trkpt>
      <trkpt lat="48.44564" lon="2.67872">
        <ele>141.8</ele>
        <time>2018-11-18T08:51:06Z</time>
      </trkpt>
      <trkpt lat="48.44564" lon="2.67874">
        <ele>141.8</ele>
        <time>2018-11-18T08:51:07Z</time>
      </trkpt>
      <trkpt lat="48.44565" lon="2.67876">
        <ele>141.8</ele>
        <time>2018-11-18T08:51:08Z</time>
      </trkpt>
      <trkpt lat="48.44566" lon="2.67877">
        <ele>141.8</ele>
        <time>2018-11-18T08:51:09Z</time>
      </trkpt>
      <trkpt lat="48.44567" lon="2.67878">
        <ele>141.7</ele>
        <time>2018-11-18T08:51:10Z</time>
      </trkpt>
      <trkpt lat="48.44568" lon="2.6788">
        <ele>141.7</ele>
        <time>2018-11-18T08:51:11Z</time>
      </trkpt>
      <trkpt lat="48.44569" lon="2.67882">
        <ele>141.7</ele>
        <time>2018-11-18T08:51:12Z</time>
      </trkpt>
      <trkpt lat="48.4457" lon="2.67884">
        <ele>141.6</ele>
        <time>2018-11-18T08:51:13Z</time>
      </trkpt>
      <trkpt lat="48.44571" lon="2.67886">
        <ele>141.6</ele>
        <time>2018-11-18T08:51:14Z</time>
      </trkpt>
      <trkpt lat="48.44572" lon="2.67889">
        <ele>141.5</ele>
        <time>2018-11-18T08:51:15Z</time>
      </trkpt>
      <trkpt lat="48.44573" lon="2.67891">
        <ele>141.5</ele>
        <time>2018-11-18T08:51:16Z</time>
      </trkpt>
      <trkpt lat="48.44573" lon="2.67893">
        <ele>141.4</ele>
        <time>2018-11-18T08:51:17Z</time>
      </trkpt>
      <trkpt lat="48.44574" lon="2.67895">
        <ele>141.3</ele>
        <time>2018-11-18T08:51:18Z</time>
      </trkpt>
      <trkpt lat="48.44574" lon="2.67897">
        <ele>141.2</ele>
        <time>2018-11-18T08:51:19Z</time>
      </trkpt>
      <trkpt lat="48.44575" lon="2.67899">
        <ele>141.2</ele>
        <time>2018-11-18T08:51:20Z</time>
      </trkpt>
      <trkpt lat="48.44575" lon="2.67901">
        <ele>141.1</ele>
        <time>2018-11-18T08:51:21Z</time>
      </trkpt>
      <trkpt lat="48.44576" lon="2.67904">
        <ele>141</ele>
        <time>2018-11-18T08:51:22Z</time>
      </trkpt>
      <trkpt lat="48.44576" lon="2.67906">
        <ele>140.9</ele>
        <time>2018-11-18T08:51:23Z</time>
      </trkpt>
      <trkpt lat="48.44576" lon="2.67909">
        <ele>140.8</ele>
        <time>2018-11-18T08:51:24Z</time>
      </trkpt>
      <trkpt lat="48.44577" lon="2.67912">
        <ele>140.7</ele>
        <time>2018-11-18T08:51:25Z</time>
      </trkpt>
      <trkpt lat="48.44577" lon="2.67915">
        <ele>140.3</ele>
        <time>2018-11-18T08:51:26Z</time>
      </trkpt>
      <trkpt lat="48.44577" lon="2.67917">
        <ele>140.3</ele>
        <time>2018-11-18T08:51:27Z</time>
      </trkpt>
      <trkpt lat="48.44578" lon="2.67919">
        <ele>140.3</ele>
        <time>2018-11-18T08:51:28Z</time>
      </trkpt>
      <trkpt lat="48.44579" lon="2.67922">
        <ele>140.3</ele>
        <time>2018-11-18T08:51:29Z</time>
      </trkpt>
      <trkpt lat="48.4458" lon="2.67924">
        <ele>140.3</ele>
        <time>2018-11-18T08:51:30Z</time>
      </trkpt>
      <trkpt lat="48.4458" lon="2.67926">
        <ele>140.3</ele>
        <time>2018-11-18T08:51:31Z</time>
      </trkpt>
      <trkpt lat="48.4458" lon="2.67929">
        <ele>140.3</ele>
        <time>2018-11-18T08:51:32Z</time>
      </trkpt>
      <trkpt lat="48.4458" lon="2.67932">
        <ele>140.3</ele>
        <time>2018-11-18T08:51:33Z</time>
      </trkpt>
      <trkpt lat="48.4458" lon="2.67935">
        <ele>140.3</ele>
        <time>2018-11-18T08:51:34Z</time>
      </trkpt>
      <trkpt lat="48.4458" lon="2.67937">
        <ele>140.3</ele>
        <time>2018-11-18T08:51:35Z</time>
      </trkpt>
      <trkpt lat="48.4458" lon="2.6794">
        <ele>140.3</ele>
        <time>2018-11-18T08:51:36Z</time>
      </trkpt>
      <trkpt lat="48.4458" lon="2.67944">
        <ele>140.3</ele>
        <time>2018-11-18T08:51:37Z</time>
      </trkpt>
      <trkpt lat="48.4458" lon="2.67947">
        <ele>140.3</ele>
        <time>2018-11-18T08:51:38Z</time>
      </trkpt>
      <trkpt lat="48.44581" lon="2.67951">
        <ele>140.4</ele>
        <time>2018-11-18T08:51:39Z</time>
      </trkpt>
      <trkpt lat="48.44582" lon="2.67954">
        <ele>140.4</ele>
        <time>2018-11-18T08:51:40Z</time>
      </trkpt>
      <trkpt lat="48.44583" lon="2.67957">
        <ele>140.4</ele>
        <time>2018-11-18T08:51:41Z</time>
      </trkpt>
      <trkpt lat="48.44584" lon="2.6796">
        <ele>140.4</ele>
        <time>2018-11-18T08:51:42Z</time>
      </trkpt>
      <trkpt lat="48.44585" lon="2.67964">
        <ele>140.4</ele>
        <time>2018-11-18T08:51:43Z</time>
      </trkpt>
      <trkpt lat="48.44587" lon="2.67967">
        <ele>140.4</ele>
        <time>2018-11-18T08:51:44Z</time>
      </trkpt>
      <trkpt lat="48.44588" lon="2.67971">
        <ele>140.4</ele>
        <time>2018-11-18T08:51:45Z</time>
      </trkpt>
      <trkpt lat="48.44588" lon="2.67976">
        <ele>140.4</ele>
        <time>2018-11-18T08:51:46Z</time>
      </trkpt>
      <trkpt lat="48.44588" lon="2.6798">
        <ele>140.4</ele>
        <time>2018-11-18T08:51:47Z</time>
      </trkpt>
      <trkpt lat="48.44588" lon="2.67984">
        <ele>140.4</ele>
        <time>2018-11-18T08:51:48Z</time>
      </trkpt>
      <trkpt lat="48.44586" lon="2.67988">
        <ele>140.4</ele>
        <time>2018-11-18T08:51:49Z</time>
      </trkpt>
      <trkpt lat="48.44585" lon="2.67991">
        <ele>140.4</ele>
        <time>2018-11-18T08:51:50Z</time>
      </trkpt>
      <trkpt lat="48.44583" lon="2.67994">
        <ele>140.4</ele>
        <time>2018-11-18T08:51:51Z</time>
      </trkpt>
      <trkpt lat="48.44581" lon="2.67996">
        <ele>140.4</ele>
        <time>2018-11-18T08:51:52Z</time>
      </trkpt>
      <trkpt lat="48.44579" lon="2.67997">
        <ele>140.4</ele>
        <time>2018-11-18T08:51:53Z</time>
      </trkpt>
      <trkpt lat="48.44577" lon="2.67998">
        <ele>140.5</ele>
        <time>2018-11-18T08:51:54Z</time>
      </trkpt>
      <trkpt lat="48.44575" lon="2.68001">
        <ele>140.5</ele>
        <time>2018-11-18T08:51:55Z</time>
      </trkpt>
      <trkpt lat="48.44573" lon="2.68004">
        <ele>140.6</ele>
        <time>2018-11-18T08:51:56Z</time>
      </trkpt>
      <trkpt lat="48.44571" lon="2.68006">
        <ele>140.6</ele>
        <time>2018-11-18T08:51:57Z</time>
      </trkpt>
      <trkpt lat="48.44569" lon="2.68007">
        <ele>140.6</ele>
        <time>2018-11-18T08:51:58Z</time>
      </trkpt>
      <trkpt lat="48.44566" lon="2.68008">
        <ele>140.7</ele>
        <time>2018-11-18T08:51:59Z</time>
      </trkpt>
      <trkpt lat="48.44563" lon="2.68009">
        <ele>140.8</ele>
        <time>2018-11-18T08:52:00Z</time>
      </trkpt>
      <trkpt lat="48.44559" lon="2.6801">
        <ele>140.7</ele>
        <time>2018-11-18T08:52:01Z</time>
      </trkpt>
      <trkpt lat="48.44556" lon="2.68009">
        <ele>140.7</ele>
        <time>2018-11-18T08:52:02Z</time>
      </trkpt>
      <trkpt lat="48.44553" lon="2.68009">
        <ele>140.7</ele>
        <time>2018-11-18T08:52:03Z</time>
      </trkpt>
      <trkpt lat="48.44551" lon="2.68009">
        <ele>140.6</ele>
        <time>2018-11-18T08:52:04Z</time>
      </trkpt>
      <trkpt lat="48.44548" lon="2.68008">
        <ele>140.6</ele>
        <time>2018-11-18T08:52:05Z</time>
      </trkpt>
      <trkpt lat="48.44545" lon="2.68008">
        <ele>140.6</ele>
        <time>2018-11-18T08:52:06Z</time>
      </trkpt>
      <trkpt lat="48.44543" lon="2.68008">
        <ele>140.6</ele>
        <time>2018-11-18T08:52:07Z</time>
      </trkpt>
      <trkpt lat="48.44541" lon="2.68008">
        <ele>140.6</ele>
        <time>2018-11-18T08:52:08Z</time>
      </trkpt>
      <trkpt lat="48.4454" lon="2.68008">
        <ele>140.6</ele>
        <time>2018-11-18T08:52:09Z</time>
      </trkpt>
      <trkpt lat="48.44537" lon="2.68008">
        <ele>140.6</ele>
        <time>2018-11-18T08:52:10Z</time>
      </trkpt>
      <trkpt lat="48.44535" lon="2.68008">
        <ele>140.5</ele>
        <time>2018-11-18T08:52:11Z</time>
      </trkpt>
      <trkpt lat="48.44531" lon="2.68009">
        <ele>140.5</ele>
        <time>2018-11-18T08:52:12Z</time>
      </trkpt>
      <trkpt lat="48.44528" lon="2.68009">
        <ele>140.5</ele>
        <time>2018-11-18T08:52:13Z</time>
      </trkpt>
      <trkpt lat="48.44524" lon="2.68009">
        <ele>140.4</ele>
        <time>2018-11-18T08:52:14Z</time>
      </trkpt>
      <trkpt lat="48.44521" lon="2.6801">
        <ele>140.4</ele>
        <time>2018-11-18T08:52:15Z</time>
      </trkpt>
      <trkpt lat="48.44518" lon="2.68011">
        <ele>140.3</ele>
        <time>2018-11-18T08:52:16Z</time>
      </trkpt>
      <trkpt lat="48.44515" lon="2.68012">
        <ele>140.3</ele>
        <time>2018-11-18T08:52:17Z</time>
      </trkpt>
      <trkpt lat="48.44511" lon="2.68012">
        <ele>140.2</ele>
        <time>2018-11-18T08:52:18Z</time>
      </trkpt>
      <trkpt lat="48.44508" lon="2.68013">
        <ele>140.2</ele>
        <time>2018-11-18T08:52:19Z</time>
      </trkpt>
      <trkpt lat="48.44505" lon="2.68015">
        <ele>140.1</ele>
        <time>2018-11-18T08:52:20Z</time>
      </trkpt>
      <trkpt lat="48.44503" lon="2.68016">
        <ele>140.1</ele>
        <time>2018-11-18T08:52:21Z</time>
      </trkpt>
      <trkpt lat="48.44501" lon="2.68017">
        <ele>140</ele>
        <time>2018-11-18T08:52:22Z</time>
      </trkpt>
      <trkpt lat="48.44499" lon="2.68019">
        <ele>140</ele>
        <time>2018-11-18T08:52:23Z</time>
      </trkpt>
      <trkpt lat="48.44497" lon="2.68021">
        <ele>140</ele>
        <time>2018-11-18T08:52:24Z</time>
      </trkpt>
      <trkpt lat="48.44495" lon="2.68023">
        <ele>140</ele>
        <time>2018-11-18T08:52:25Z</time>
      </trkpt>
      <trkpt lat="48.44493" lon="2.68025">
        <ele>140</ele>
        <time>2018-11-18T08:52:26Z</time>
      </trkpt>
      <trkpt lat="48.4449" lon="2.68027">
        <ele>140</ele>
        <time>2018-11-18T08:52:27Z</time>
      </trkpt>
      <trkpt lat="48.44486" lon="2.68028">
        <ele>140</ele>
        <time>2018-11-18T08:52:28Z</time>
      </trkpt>
      <trkpt lat="48.44484" lon="2.68029">
        <ele>140.1</ele>
        <time>2018-11-18T08:52:29Z</time>
      </trkpt>
      <trkpt lat="48.44482" lon="2.68029">
        <ele>140.1</ele>
        <time>2018-11-18T08:52:30Z</time>
      </trkpt>
      <trkpt lat="48.44482" lon="2.68029">
        <ele>140.1</ele>
        <time>2018-11-18T08:52:31Z</time>
      </trkpt>
      <trkpt lat="48.4448" lon="2.6803">
        <ele>140.1</ele>
        <time>2018-11-18T08:52:32Z</time>
      </trkpt>
      <trkpt lat="48.44479" lon="2.6803">
        <ele>140.1</ele>
        <time>2018-11-18T08:52:33Z</time>
      </trkpt>
      <trkpt lat="48.44478" lon="2.6803">
        <ele>140.2</ele>
        <time>2018-11-18T08:52:34Z</time>
      </trkpt>
      <trkpt lat="48.44477" lon="2.68031">
        <ele>140.2</ele>
        <time>2018-11-18T08:52:35Z</time>
      </trkpt>
      <trkpt lat="48.44477" lon="2.68032">
        <ele>140.2</ele>
        <time>2018-11-18T08:52:36Z</time>
      </trkpt>
      <trkpt lat="48.44477" lon="2.68032">
        <ele>140.2</ele>
        <time>2018-11-18T08:52:37Z</time>
      </trkpt>
      <trkpt lat="48.44477" lon="2.68032">
        <ele>140.2</ele>
        <time>2018-11-18T08:52:38Z</time>
      </trkpt>
      <trkpt lat="48.44477" lon="2.68032">
        <ele>140.2</ele>
        <time>2018-11-18T08:52:39Z</time>
      </trkpt>
      <trkpt lat="48.44477" lon="2.68032">
        <ele>140.2</ele>
        <time>2018-11-18T08:52:40Z</time>
      </trkpt>
      <trkpt lat="48.44477" lon="2.68032">
        <ele>140.2</ele>
        <time>2018-11-18T08:52:41Z</time>
      </trkpt>
      <trkpt lat="48.44475" lon="2.68035">
        <ele>140.2</ele>
        <time>2018-11-18T08:52:42Z</time>
      </trkpt>
      <trkpt lat="48.44475" lon="2.68036">
        <ele>140.3</ele>
        <time>2018-11-18T08:52:43Z</time>
      </trkpt>
      <trkpt lat="48.44473" lon="2.68037">
        <ele>140.3</ele>
        <time>2018-11-18T08:52:44Z</time>
      </trkpt>
      <trkpt lat="48.44473" lon="2.6804">
        <ele>140.3</ele>
        <time>2018-11-18T08:52:45Z</time>
      </trkpt>
      <trkpt lat="48.44471" lon="2.68043">
        <ele>140.3</ele>
        <time>2018-11-18T08:52:46Z</time>
      </trkpt>
      <trkpt lat="48.44469" lon="2.68046">
        <ele>140.3</ele>
        <time>2018-11-18T08:52:47Z</time>
      </trkpt>
      <trkpt lat="48.44468" lon="2.68049">
        <ele>140.2</ele>
        <time>2018-11-18T08:52:48Z</time>
      </trkpt>
      <trkpt lat="48.44466" lon="2.68052">
        <ele>140.2</ele>
        <time>2018-11-18T08:52:49Z</time>
      </trkpt>
      <trkpt lat="48.44465" lon="2.68055">
        <ele>140.1</ele>
        <time>2018-11-18T08:52:50Z</time>
      </trkpt>
      <trkpt lat="48.44464" lon="2.68058">
        <ele>140.1</ele>
        <time>2018-11-18T08:52:51Z</time>
      </trkpt>
      <trkpt lat="48.44462" lon="2.68063">
        <ele>140</ele>
        <time>2018-11-18T08:52:52Z</time>
      </trkpt>
      <trkpt lat="48.44461" lon="2.68069">
        <ele>139.8</ele>
        <time>2018-11-18T08:52:53Z</time>
      </trkpt>
      <trkpt lat="48.44459" lon="2.68077">
        <ele>139.6</ele>
        <time>2018-11-18T08:52:54Z</time>
      </trkpt>
      <trkpt lat="48.44456" lon="2.68084">
        <ele>139.4</ele>
        <time>2018-11-18T08:52:55Z</time>
      </trkpt>
      <trkpt lat="48.44453" lon="2.68091">
        <ele>139.3</ele>
        <time>2018-11-18T08:52:56Z</time>
      </trkpt>
      <trkpt lat="48.44451" lon="2.68097">
        <ele>139.2</ele>
        <time>2018-11-18T08:52:57Z</time>
      </trkpt>
      <trkpt lat="48.44449" lon="2.68103">
        <ele>139.2</ele>
        <time>2018-11-18T08:52:58Z</time>
      </trkpt>
      <trkpt lat="48.44447" lon="2.68109">
        <ele>139.2</ele>
        <time>2018-11-18T08:52:59Z</time>
      </trkpt>
      <trkpt lat="48.44445" lon="2.68114">
        <ele>139.2</ele>
        <time>2018-11-18T08:53:00Z</time>
      </trkpt>
      <trkpt lat="48.44444" lon="2.68118">
        <ele>139.3</ele>
        <time>2018-11-18T08:53:01Z</time>
      </trkpt>
      <trkpt lat="48.44442" lon="2.68122">
        <ele>139.3</ele>
        <time>2018-11-18T08:53:02Z</time>
      </trkpt>
      <trkpt lat="48.44441" lon="2.68126">
        <ele>139.4</ele>
        <time>2018-11-18T08:53:03Z</time>
      </trkpt>
      <trkpt lat="48.44439" lon="2.68129">
        <ele>139.4</ele>
        <time>2018-11-18T08:53:04Z</time>
      </trkpt>
      <trkpt lat="48.44438" lon="2.68132">
        <ele>139.5</ele>
        <time>2018-11-18T08:53:05Z</time>
      </trkpt>
      <trkpt lat="48.44438" lon="2.68135">
        <ele>139.5</ele>
        <time>2018-11-18T08:53:06Z</time>
      </trkpt>
      <trkpt lat="48.44437" lon="2.68139">
        <ele>139.5</ele>
        <time>2018-11-18T08:53:07Z</time>
      </trkpt>
      <trkpt lat="48.44437" lon="2.68144">
        <ele>139.6</ele>
        <time>2018-11-18T08:53:08Z</time>
      </trkpt>
      <trkpt lat="48.44436" lon="2.68149">
        <ele>139.6</ele>
        <time>2018-11-18T08:53:09Z</time>
      </trkpt>
      <trkpt lat="48.44435" lon="2.68155">
        <ele>139.7</ele>
        <time>2018-11-18T08:53:10Z</time>
      </trkpt>
      <trkpt lat="48.44434" lon="2.68161">
        <ele>139.7</ele>
        <time>2018-11-18T08:53:11Z</time>
      </trkpt>
      <trkpt lat="48.44432" lon="2.68167">
        <ele>139.7</ele>
        <time>2018-11-18T08:53:12Z</time>
      </trkpt>
      <trkpt lat="48.44431" lon="2.68174">
        <ele>139.6</ele>
        <time>2018-11-18T08:53:13Z</time>
      </trkpt>
      <trkpt lat="48.4443" lon="2.6818">
        <ele>139.5</ele>
        <time>2018-11-18T08:53:14Z</time>
      </trkpt>
      <trkpt lat="48.4443" lon="2.68186">
        <ele>139.5</ele>
        <time>2018-11-18T08:53:15Z</time>
      </trkpt>
      <trkpt lat="48.44429" lon="2.68191">
        <ele>139.4</ele>
        <time>2018-11-18T08:53:16Z</time>
      </trkpt>
      <trkpt lat="48.44428" lon="2.68197">
        <ele>139.4</ele>
        <time>2018-11-18T08:53:17Z</time>
      </trkpt>
      <trkpt lat="48.44427" lon="2.68202">
        <ele>139.3</ele>
        <time>2018-11-18T08:53:18Z</time>
      </trkpt>
      <trkpt lat="48.44426" lon="2.68206">
        <ele>139.2</ele>
        <time>2018-11-18T08:53:19Z</time>
      </trkpt>
      <trkpt lat="48.44424" lon="2.68211">
        <ele>139.1</ele>
        <time>2018-11-18T08:53:20Z</time>
      </trkpt>
      <trkpt lat="48.44421" lon="2.68214">
        <ele>139</ele>
        <time>2018-11-18T08:53:21Z</time>
      </trkpt>
      <trkpt lat="48.44417" lon="2.68216">
        <ele>139</ele>
        <time>2018-11-18T08:53:22Z</time>
      </trkpt>
      <trkpt lat="48.44414" lon="2.68217">
        <ele>138.9</ele>
        <time>2018-11-18T08:53:23Z</time>
      </trkpt>
      <trkpt lat="48.4441" lon="2.68219">
        <ele>138.9</ele>
        <time>2018-11-18T08:53:24Z</time>
      </trkpt>
      <trkpt lat="48.44408" lon="2.68221">
        <ele>138.9</ele>
        <time>2018-11-18T08:53:25Z</time>
      </trkpt>
      <trkpt lat="48.44405" lon="2.68224">
        <ele>138.9</ele>
        <time>2018-11-18T08:53:26Z</time>
      </trkpt>
      <trkpt lat="48.44403" lon="2.68226">
        <ele>138.9</ele>
        <time>2018-11-18T08:53:27Z</time>
      </trkpt>
      <trkpt lat="48.444" lon="2.68228">
        <ele>138.9</ele>
        <time>2018-11-18T08:53:28Z</time>
      </trkpt>
      <trkpt lat="48.44397" lon="2.68229">
        <ele>138.9</ele>
        <time>2018-11-18T08:53:29Z</time>
      </trkpt>
      <trkpt lat="48.44394" lon="2.6823">
        <ele>138.9</ele>
        <time>2018-11-18T08:53:30Z</time>
      </trkpt>
      <trkpt lat="48.44392" lon="2.68231">
        <ele>138.9</ele>
        <time>2018-11-18T08:53:31Z</time>
      </trkpt>
      <trkpt lat="48.44389" lon="2.68232">
        <ele>138.9</ele>
        <time>2018-11-18T08:53:32Z</time>
      </trkpt>
      <trkpt lat="48.44387" lon="2.68233">
        <ele>138.9</ele>
        <time>2018-11-18T08:53:33Z</time>
      </trkpt>
      <trkpt lat="48.44385" lon="2.68234">
        <ele>138.9</ele>
        <time>2018-11-18T08:53:34Z</time>
      </trkpt>
      <trkpt lat="48.44383" lon="2.68235">
        <ele>138.9</ele>
        <time>2018-11-18T08:53:35Z</time>
      </trkpt>
      <trkpt lat="48.4438" lon="2.68237">
        <ele>138.9</ele>
        <time>2018-11-18T08:53:36Z</time>
      </trkpt>
      <trkpt lat="48.44377" lon="2.68239">
        <ele>138.9</ele>
        <time>2018-11-18T08:53:37Z</time>
      </trkpt>
      <trkpt lat="48.44373" lon="2.6824">
        <ele>138.9</ele>
        <time>2018-11-18T08:53:38Z</time>
      </trkpt>
      <trkpt lat="48.44369" lon="2.68241">
        <ele>139</ele>
        <time>2018-11-18T08:53:39Z</time>
      </trkpt>
      <trkpt lat="48.44367" lon="2.68241">
        <ele>139</ele>
        <time>2018-11-18T08:53:40Z</time>
      </trkpt>
      <trkpt lat="48.44365" lon="2.68239">
        <ele>139</ele>
        <time>2018-11-18T08:53:41Z</time>
      </trkpt>
      <trkpt lat="48.44364" lon="2.68237">
        <ele>139</ele>
        <time>2018-11-18T08:53:42Z</time>
      </trkpt>
      <trkpt lat="48.44363" lon="2.68235">
        <ele>139.1</ele>
        <time>2018-11-18T08:53:43Z</time>
      </trkpt>
      <trkpt lat="48.44362" lon="2.68232">
        <ele>139.1</ele>
        <time>2018-11-18T08:53:44Z</time>
      </trkpt>
      <trkpt lat="48.4436" lon="2.68229">
        <ele>139.2</ele>
        <time>2018-11-18T08:53:45Z</time>
      </trkpt>
      <trkpt lat="48.44359" lon="2.68224">
        <ele>139.2</ele>
        <time>2018-11-18T08:53:46Z</time>
      </trkpt>
      <trkpt lat="48.44359" lon="2.6822">
        <ele>139.3</ele>
        <time>2018-11-18T08:53:47Z</time>
      </trkpt>
      <trkpt lat="48.44358" lon="2.68217">
        <ele>139.3</ele>
        <time>2018-11-18T08:53:48Z</time>
      </trkpt>
      <trkpt lat="48.44357" lon="2.68215">
        <ele>139.3</ele>
        <time>2018-11-18T08:53:49Z</time>
      </trkpt>
      <trkpt lat="48.44355" lon="2.68213">
        <ele>139.4</ele>
        <time>2018-11-18T08:53:50Z</time>
      </trkpt>
      <trkpt lat="48.44353" lon="2.68211">
        <ele>139.4</ele>
        <time>2018-11-18T08:53:51Z</time>
      </trkpt>
      <trkpt lat="48.44351" lon="2.6821">
        <ele>139.5</ele>
        <time>2018-11-18T08:53:52Z</time>
      </trkpt>
      <trkpt lat="48.44348" lon="2.68207">
        <ele>139.6</ele>
        <time>2018-11-18T08:53:53Z</time>
      </trkpt>
      <trkpt lat="48.44345" lon="2.68205">
        <ele>139.7</ele>
        <time>2018-11-18T08:53:54Z</time>
      </trkpt>
      <trkpt lat="48.44344" lon="2.68202">
        <ele>139.8</ele>
        <time>2018-11-18T08:53:55Z</time>
      </trkpt>
      <trkpt lat="48.44343" lon="2.682">
        <ele>139.9</ele>
        <time>2018-11-18T08:53:56Z</time>
      </trkpt>
      <trkpt lat="48.44342" lon="2.68197">
        <ele>140</ele>
        <time>2018-11-18T08:53:57Z</time>
      </trkpt>
      <trkpt lat="48.4434" lon="2.68194">
        <ele>140.1</ele>
        <time>2018-11-18T08:53:58Z</time>
      </trkpt>
      <trkpt lat="48.44338" lon="2.68192">
        <ele>140.2</ele>
        <time>2018-11-18T08:53:59Z</time>
      </trkpt>
      <trkpt lat="48.44337" lon="2.68191">
        <ele>140.2</ele>
        <time>2018-11-18T08:54:00Z</time>
      </trkpt>
      <trkpt lat="48.44336" lon="2.6819">
        <ele>140.3</ele>
        <time>2018-11-18T08:54:01Z</time>
      </trkpt>
      <trkpt lat="48.44334" lon="2.68188">
        <ele>140.3</ele>
        <time>2018-11-18T08:54:02Z</time>
      </trkpt>
      <trkpt lat="48.44331" lon="2.68185">
        <ele>140.4</ele>
        <time>2018-11-18T08:54:03Z</time>
      </trkpt>
      <trkpt lat="48.44329" lon="2.68181">
        <ele>140.5</ele>
        <time>2018-11-18T08:54:04Z</time>
      </trkpt>
      <trkpt lat="48.44328" lon="2.68177">
        <ele>140.6</ele>
        <time>2018-11-18T08:54:05Z</time>
      </trkpt>
      <trkpt lat="48.44327" lon="2.68173">
        <ele>140.7</ele>
        <time>2018-11-18T08:54:06Z</time>
      </trkpt>
      <trkpt lat="48.44326" lon="2.68171">
        <ele>140.7</ele>
        <time>2018-11-18T08:54:07Z</time>
      </trkpt>
      <trkpt lat="48.44325" lon="2.68168">
        <ele>140.8</ele>
        <time>2018-11-18T08:54:08Z</time>
      </trkpt>
      <trkpt lat="48.44324" lon="2.68165">
        <ele>140.8</ele>
        <time>2018-11-18T08:54:09Z</time>
      </trkpt>
      <trkpt lat="48.44322" lon="2.68163">
        <ele>140.9</ele>
        <time>2018-11-18T08:54:10Z</time>
      </trkpt>
      <trkpt lat="48.4432" lon="2.68161">
        <ele>140.9</ele>
        <time>2018-11-18T08:54:11Z</time>
      </trkpt>
      <trkpt lat="48.44318" lon="2.68158">
        <ele>141</ele>
        <time>2018-11-18T08:54:12Z</time>
      </trkpt>
      <trkpt lat="48.44316" lon="2.68154">
        <ele>141</ele>
        <time>2018-11-18T08:54:13Z</time>
      </trkpt>
      <trkpt lat="48.44315" lon="2.68151">
        <ele>141.1</ele>
        <time>2018-11-18T08:54:14Z</time>
      </trkpt>
      <trkpt lat="48.44315" lon="2.68148">
        <ele>141.1</ele>
        <time>2018-11-18T08:54:15Z</time>
      </trkpt>
      <trkpt lat="48.44315" lon="2.68145">
        <ele>141.2</ele>
        <time>2018-11-18T08:54:16Z</time>
      </trkpt>
      <trkpt lat="48.44313" lon="2.6814">
        <ele>141.2</ele>
        <time>2018-11-18T08:54:17Z</time>
      </trkpt>
      <trkpt lat="48.44312" lon="2.68136">
        <ele>141.3</ele>
        <time>2018-11-18T08:54:18Z</time>
      </trkpt>
      <trkpt lat="48.44312" lon="2.68132">
        <ele>141.3</ele>
        <time>2018-11-18T08:54:19Z</time>
      </trkpt>
      <trkpt lat="48.44311" lon="2.68128">
        <ele>141.3</ele>
        <time>2018-11-18T08:54:20Z</time>
      </trkpt>
      <trkpt lat="48.44311" lon="2.68125">
        <ele>141.4</ele>
        <time>2018-11-18T08:54:21Z</time>
      </trkpt>
      <trkpt lat="48.44311" lon="2.68121">
        <ele>141.4</ele>
        <time>2018-11-18T08:54:22Z</time>
      </trkpt>
      <trkpt lat="48.44311" lon="2.68118">
        <ele>141.4</ele>
        <time>2018-11-18T08:54:23Z</time>
      </trkpt>
      <trkpt lat="48.44311" lon="2.68115">
        <ele>141.4</ele>
        <time>2018-11-18T08:54:24Z</time>
      </trkpt>
      <trkpt lat="48.44311" lon="2.68111">
        <ele>141.5</ele>
        <time>2018-11-18T08:54:25Z</time>
      </trkpt>
      <trkpt lat="48.4431" lon="2.68107">
        <ele>141.5</ele>
        <time>2018-11-18T08:54:26Z</time>
      </trkpt>
      <trkpt lat="48.44309" lon="2.68102">
        <ele>141.6</ele>
        <time>2018-11-18T08:54:27Z</time>
      </trkpt>
      <trkpt lat="48.44308" lon="2.68098">
        <ele>141.6</ele>
        <time>2018-11-18T08:54:28Z</time>
      </trkpt>
      <trkpt lat="48.44307" lon="2.68094">
        <ele>141.7</ele>
        <time>2018-11-18T08:54:29Z</time>
      </trkpt>
      <trkpt lat="48.44306" lon="2.6809">
        <ele>141.7</ele>
        <time>2018-11-18T08:54:30Z</time>
      </trkpt>
      <trkpt lat="48.44304" lon="2.68086">
        <ele>141.8</ele>
        <time>2018-11-18T08:54:31Z</time>
      </trkpt>
      <trkpt lat="48.44302" lon="2.68082">
        <ele>141.8</ele>
        <time>2018-11-18T08:54:32Z</time>
      </trkpt>
      <trkpt lat="48.44302" lon="2.68077">
        <ele>141.8</ele>
        <time>2018-11-18T08:54:33Z</time>
      </trkpt>
      <trkpt lat="48.44301" lon="2.68072">
        <ele>141.8</ele>
        <time>2018-11-18T08:54:34Z</time>
      </trkpt>
      <trkpt lat="48.44301" lon="2.68069">
        <ele>141.8</ele>
        <time>2018-11-18T08:54:35Z</time>
      </trkpt>
      <trkpt lat="48.443" lon="2.68065">
        <ele>141.8</ele>
        <time>2018-11-18T08:54:36Z</time>
      </trkpt>
      <trkpt lat="48.44299" lon="2.68061">
        <ele>141.8</ele>
        <time>2018-11-18T08:54:37Z</time>
      </trkpt>
      <trkpt lat="48.44299" lon="2.68056">
        <ele>141.8</ele>
        <time>2018-11-18T08:54:38Z</time>
      </trkpt>
      <trkpt lat="48.443" lon="2.68052">
        <ele>142.1</ele>
        <time>2018-11-18T08:54:39Z</time>
      </trkpt>
      <trkpt lat="48.443" lon="2.68047">
        <ele>142.4</ele>
        <time>2018-11-18T08:54:40Z</time>
      </trkpt>
      <trkpt lat="48.44299" lon="2.68043">
        <ele>142.6</ele>
        <time>2018-11-18T08:54:41Z</time>
      </trkpt>
      <trkpt lat="48.44298" lon="2.68038">
        <ele>142.8</ele>
        <time>2018-11-18T08:54:42Z</time>
      </trkpt>
      <trkpt lat="48.44297" lon="2.68033">
        <ele>143.2</ele>
        <time>2018-11-18T08:54:43Z</time>
      </trkpt>
      <trkpt lat="48.44296" lon="2.68027">
        <ele>143.5</ele>
        <time>2018-11-18T08:54:44Z</time>
      </trkpt>
      <trkpt lat="48.44295" lon="2.68022">
        <ele>143.7</ele>
        <time>2018-11-18T08:54:45Z</time>
      </trkpt>
      <trkpt lat="48.44293" lon="2.68018">
        <ele>143.9</ele>
        <time>2018-11-18T08:54:46Z</time>
      </trkpt>
      <trkpt lat="48.44292" lon="2.68016">
        <ele>144.1</ele>
        <time>2018-11-18T08:54:47Z</time>
      </trkpt>
      <trkpt lat="48.44291" lon="2.68014">
        <ele>144.2</ele>
        <time>2018-11-18T08:54:48Z</time>
      </trkpt>
      <trkpt lat="48.44289" lon="2.68012">
        <ele>144.3</ele>
        <time>2018-11-18T08:54:49Z</time>
      </trkpt>
      <trkpt lat="48.44289" lon="2.68008">
        <ele>144.4</ele>
        <time>2018-11-18T08:54:50Z</time>
      </trkpt>
      <trkpt lat="48.44288" lon="2.68006">
        <ele>144.5</ele>
        <time>2018-11-18T08:54:51Z</time>
      </trkpt>
      <trkpt lat="48.44289" lon="2.68003">
        <ele>144.6</ele>
        <time>2018-11-18T08:54:52Z</time>
      </trkpt>
      <trkpt lat="48.44289" lon="2.67999">
        <ele>144.7</ele>
        <time>2018-11-18T08:54:53Z</time>
      </trkpt>
      <trkpt lat="48.44289" lon="2.67996">
        <ele>144.7</ele>
        <time>2018-11-18T08:54:54Z</time>
      </trkpt>
      <trkpt lat="48.4429" lon="2.67993">
        <ele>144.8</ele>
        <time>2018-11-18T08:54:55Z</time>
      </trkpt>
      <trkpt lat="48.44291" lon="2.6799">
        <ele>144.9</ele>
        <time>2018-11-18T08:54:56Z</time>
      </trkpt>
      <trkpt lat="48.44292" lon="2.67986">
        <ele>144.9</ele>
        <time>2018-11-18T08:54:57Z</time>
      </trkpt>
      <trkpt lat="48.44293" lon="2.67982">
        <ele>145</ele>
        <time>2018-11-18T08:54:58Z</time>
      </trkpt>
      <trkpt lat="48.44294" lon="2.67979">
        <ele>145</ele>
        <time>2018-11-18T08:54:59Z</time>
      </trkpt>
      <trkpt lat="48.44295" lon="2.67975">
        <ele>145.1</ele>
        <time>2018-11-18T08:55:00Z</time>
      </trkpt>
      <trkpt lat="48.44296" lon="2.67972">
        <ele>145.2</ele>
        <time>2018-11-18T08:55:01Z</time>
      </trkpt>
      <trkpt lat="48.44297" lon="2.67969">
        <ele>145.3</ele>
        <time>2018-11-18T08:55:02Z</time>
      </trkpt>
      <trkpt lat="48.44298" lon="2.67967">
        <ele>145.4</ele>
        <time>2018-11-18T08:55:03Z</time>
      </trkpt>
      <trkpt lat="48.443" lon="2.67964">
        <ele>145.5</ele>
        <time>2018-11-18T08:55:04Z</time>
      </trkpt>
      <trkpt lat="48.44302" lon="2.6796">
        <ele>145.6</ele>
        <time>2018-11-18T08:55:05Z</time>
      </trkpt>
      <trkpt lat="48.44304" lon="2.67957">
        <ele>145.7</ele>
        <time>2018-11-18T08:55:06Z</time>
      </trkpt>
      <trkpt lat="48.44305" lon="2.67954">
        <ele>145.8</ele>
        <time>2018-11-18T08:55:07Z</time>
      </trkpt>
      <trkpt lat="48.44307" lon="2.6795">
        <ele>145.9</ele>
        <time>2018-11-18T08:55:08Z</time>
      </trkpt>
      <trkpt lat="48.44309" lon="2.67946">
        <ele>146</ele>
        <time>2018-11-18T08:55:09Z</time>
      </trkpt>
      <trkpt lat="48.44311" lon="2.67942">
        <ele>146.2</ele>
        <time>2018-11-18T08:55:10Z</time>
      </trkpt>
      <trkpt lat="48.44313" lon="2.67939">
        <ele>146.4</ele>
        <time>2018-11-18T08:55:11Z</time>
      </trkpt>
      <trkpt lat="48.44314" lon="2.67934">
        <ele>146.5</ele>
        <time>2018-11-18T08:55:12Z</time>
      </trkpt>
      <trkpt lat="48.44316" lon="2.6793">
        <ele>146.5</ele>
        <time>2018-11-18T08:55:13Z</time>
      </trkpt>
      <trkpt lat="48.44317" lon="2.67926">
        <ele>146.6</ele>
        <time>2018-11-18T08:55:14Z</time>
      </trkpt>
      <trkpt lat="48.44318" lon="2.67921">
        <ele>146.6</ele>
        <time>2018-11-18T08:55:15Z</time>
      </trkpt>
      <trkpt lat="48.44319" lon="2.67917">
        <ele>146.6</ele>
        <time>2018-11-18T08:55:16Z</time>
      </trkpt>
      <trkpt lat="48.4432" lon="2.67913">
        <ele>146.6</ele>
        <time>2018-11-18T08:55:17Z</time>
      </trkpt>
      <trkpt lat="48.44321" lon="2.67908">
        <ele>146.5</ele>
        <time>2018-11-18T08:55:18Z</time>
      </trkpt>
      <trkpt lat="48.44321" lon="2.67905">
        <ele>146.5</ele>
        <time>2018-11-18T08:55:19Z</time>
      </trkpt>
      <trkpt lat="48.44321" lon="2.67901">
        <ele>146.5</ele>
        <time>2018-11-18T08:55:20Z</time>
      </trkpt>
      <trkpt lat="48.44321" lon="2.67897">
        <ele>146.4</ele>
        <time>2018-11-18T08:55:21Z</time>
      </trkpt>
      <trkpt lat="48.44321" lon="2.67893">
        <ele>146.3</ele>
        <time>2018-11-18T08:55:22Z</time>
      </trkpt>
      <trkpt lat="48.4432" lon="2.67889">
        <ele>146.2</ele>
        <time>2018-11-18T08:55:23Z</time>
      </trkpt>
      <trkpt lat="48.44319" lon="2.67884">
        <ele>146.2</ele>
        <time>2018-11-18T08:55:24Z</time>
      </trkpt>
      <trkpt lat="48.44318" lon="2.67879">
        <ele>146.1</ele>
        <time>2018-11-18T08:55:25Z</time>
      </trkpt>
      <trkpt lat="48.44317" lon="2.67875">
        <ele>146.1</ele>
        <time>2018-11-18T08:55:26Z</time>
      </trkpt>
      <trkpt lat="48.44316" lon="2.67871">
        <ele>146</ele>
        <time>2018-11-18T08:55:27Z</time>
      </trkpt>
      <trkpt lat="48.44315" lon="2.67866">
        <ele>146</ele>
        <time>2018-11-18T08:55:28Z</time>
      </trkpt>
      <trkpt lat="48.44315" lon="2.67862">
        <ele>146.1</ele>
        <time>2018-11-18T08:55:29Z</time>
      </trkpt>
      <trkpt lat="48.44314" lon="2.67857">
        <ele>146.1</ele>
        <time>2018-11-18T08:55:30Z</time>
      </trkpt>
      <trkpt lat="48.44314" lon="2.67853">
        <ele>146.2</ele>
        <time>2018-11-18T08:55:31Z</time>
      </trkpt>
      <trkpt lat="48.44313" lon="2.67848">
        <ele>146.3</ele>
        <time>2018-11-18T08:55:32Z</time>
      </trkpt>
      <trkpt lat="48.44313" lon="2.67844">
        <ele>146.3</ele>
        <time>2018-11-18T08:55:33Z</time>
      </trkpt>
      <trkpt lat="48.44313" lon="2.67841">
        <ele>146.4</ele>
        <time>2018-11-18T08:55:34Z</time>
      </trkpt>
      <trkpt lat="48.44313" lon="2.67838">
        <ele>146.5</ele>
        <time>2018-11-18T08:55:35Z</time>
      </trkpt>
      <trkpt lat="48.44313" lon="2.67835">
        <ele>146.5</ele>
        <time>2018-11-18T08:55:36Z</time>
      </trkpt>
      <trkpt lat="48.44312" lon="2.67832">
        <ele>146.5</ele>
        <time>2018-11-18T08:55:37Z</time>
      </trkpt>
      <trkpt lat="48.4431" lon="2.67831">
        <ele>146.5</ele>
        <time>2018-11-18T08:55:38Z</time>
      </trkpt>
      <trkpt lat="48.44307" lon="2.67831">
        <ele>146.5</ele>
        <time>2018-11-18T08:55:39Z</time>
      </trkpt>
      <trkpt lat="48.44303" lon="2.6783">
        <ele>146.5</ele>
        <time>2018-11-18T08:55:40Z</time>
      </trkpt>
      <trkpt lat="48.443" lon="2.67828">
        <ele>146.4</ele>
        <time>2018-11-18T08:55:41Z</time>
      </trkpt>
      <trkpt lat="48.44297" lon="2.67827">
        <ele>146.4</ele>
        <time>2018-11-18T08:55:42Z</time>
      </trkpt>
      <trkpt lat="48.44295" lon="2.67825">
        <ele>146.3</ele>
        <time>2018-11-18T08:55:43Z</time>
      </trkpt>
      <trkpt lat="48.44294" lon="2.67824">
        <ele>146.3</ele>
        <time>2018-11-18T08:55:44Z</time>
      </trkpt>
      <trkpt lat="48.44294" lon="2.67822">
        <ele>146.3</ele>
        <time>2018-11-18T08:55:45Z</time>
      </trkpt>
      <trkpt lat="48.44294" lon="2.67818">
        <ele>146.2</ele>
        <time>2018-11-18T08:55:46Z</time>
      </trkpt>
      <trkpt lat="48.44294" lon="2.67815">
        <ele>146.2</ele>
        <time>2018-11-18T08:55:47Z</time>
      </trkpt>
      <trkpt lat="48.44295" lon="2.67812">
        <ele>146.1</ele>
        <time>2018-11-18T08:55:48Z</time>
      </trkpt>
      <trkpt lat="48.44295" lon="2.67809">
        <ele>146.1</ele>
        <time>2018-11-18T08:55:49Z</time>
      </trkpt>
      <trkpt lat="48.44296" lon="2.67806">
        <ele>146.1</ele>
        <time>2018-11-18T08:55:50Z</time>
      </trkpt>
      <trkpt lat="48.44297" lon="2.678">
        <ele>146</ele>
        <time>2018-11-18T08:55:51Z</time>
      </trkpt>
      <trkpt lat="48.44297" lon="2.67794">
        <ele>146</ele>
        <time>2018-11-18T08:55:52Z</time>
      </trkpt>
      <trkpt lat="48.44297" lon="2.6779">
        <ele>146</ele>
        <time>2018-11-18T08:55:53Z</time>
      </trkpt>
      <trkpt lat="48.44298" lon="2.67787">
        <ele>146</ele>
        <time>2018-11-18T08:55:54Z</time>
      </trkpt>
      <trkpt lat="48.44298" lon="2.67785">
        <ele>145.9</ele>
        <time>2018-11-18T08:55:55Z</time>
      </trkpt>
      <trkpt lat="48.44298" lon="2.67782">
        <ele>145.9</ele>
        <time>2018-11-18T08:55:56Z</time>
      </trkpt>
      <trkpt lat="48.44299" lon="2.67778">
        <ele>145.9</ele>
        <time>2018-11-18T08:55:57Z</time>
      </trkpt>
      <trkpt lat="48.44298" lon="2.67774">
        <ele>145.9</ele>
        <time>2018-11-18T08:55:58Z</time>
      </trkpt>
      <trkpt lat="48.44298" lon="2.67771">
        <ele>145.9</ele>
        <time>2018-11-18T08:55:59Z</time>
      </trkpt>
      <trkpt lat="48.44297" lon="2.67768">
        <ele>145.9</ele>
        <time>2018-11-18T08:56:00Z</time>
      </trkpt>
      <trkpt lat="48.44296" lon="2.67765">
        <ele>145.8</ele>
        <time>2018-11-18T08:56:01Z</time>
      </trkpt>
      <trkpt lat="48.44296" lon="2.67762">
        <ele>145.8</ele>
        <time>2018-11-18T08:56:02Z</time>
      </trkpt>
      <trkpt lat="48.44295" lon="2.67759">
        <ele>145.7</ele>
        <time>2018-11-18T08:56:03Z</time>
      </trkpt>
      <trkpt lat="48.44295" lon="2.67756">
        <ele>145.7</ele>
        <time>2018-11-18T08:56:04Z</time>
      </trkpt>
      <trkpt lat="48.44294" lon="2.67754">
        <ele>145.6</ele>
        <time>2018-11-18T08:56:05Z</time>
      </trkpt>
      <trkpt lat="48.44294" lon="2.67754">
        <ele>145.6</ele>
        <time>2018-11-18T08:56:06Z</time>
      </trkpt>
      <trkpt lat="48.44294" lon="2.67753">
        <ele>145.6</ele>
        <time>2018-11-18T08:56:07Z</time>
      </trkpt>
      <trkpt lat="48.44294" lon="2.67753">
        <ele>145.6</ele>
        <time>2018-11-18T08:56:08Z</time>
      </trkpt>
      <trkpt lat="48.44294" lon="2.67753">
        <ele>145.6</ele>
        <time>2018-11-18T08:56:09Z</time>
      </trkpt>
      <trkpt lat="48.44294" lon="2.67753">
        <ele>145.6</ele>
        <time>2018-11-18T08:56:10Z</time>
      </trkpt>
      <trkpt lat="48.44294" lon="2.67753">
        <ele>145.6</ele>
        <time>2018-11-18T08:56:11Z</time>
      </trkpt>
      <trkpt lat="48.44294" lon="2.67753">
        <ele>145.6</ele>
        <time>2018-11-18T08:56:12Z</time>
      </trkpt>
      <trkpt lat="48.44294" lon="2.67753">
        <ele>145.6</ele>
        <time>2018-11-18T08:56:13Z</time>
      </trkpt>
      <trkpt lat="48.44294" lon="2.67753">
        <ele>145.6</ele>
        <time>2018-11-18T08:56:14Z</time>
      </trkpt>
      <trkpt lat="48.44294" lon="2.67753">
        <ele>145.6</ele>
        <time>2018-11-18T08:56:15Z</time>
      </trkpt>
      <trkpt lat="48.44295" lon="2.67757">
        <ele>145.5</ele>
        <time>2018-11-18T08:56:50Z</time>
      </trkpt>
      <trkpt lat="48.44296" lon="2.67759">
        <ele>145.4</ele>
        <time>2018-11-18T08:56:51Z</time>
      </trkpt>
      <trkpt lat="48.44297" lon="2.6776">
        <ele>145.4</ele>
        <time>2018-11-18T08:56:52Z</time>
      </trkpt>
      <trkpt lat="48.44298" lon="2.67761">
        <ele>145.3</ele>
        <time>2018-11-18T08:56:53Z</time>
      </trkpt>
      <trkpt lat="48.44298" lon="2.67762">
        <ele>145.3</ele>
        <time>2018-11-18T08:56:54Z</time>
      </trkpt>
      <trkpt lat="48.44298" lon="2.67762">
        <ele>145.3</ele>
        <time>2018-11-18T08:56:55Z</time>
      </trkpt>
      <trkpt lat="48.44298" lon="2.67763">
        <ele>145.3</ele>
        <time>2018-11-18T08:56:56Z</time>
      </trkpt>
      <trkpt lat="48.44298" lon="2.67763">
        <ele>145.3</ele>
        <time>2018-11-18T08:56:57Z</time>
      </trkpt>
      <trkpt lat="48.44299" lon="2.67763">
        <ele>145.3</ele>
        <time>2018-11-18T08:56:58Z</time>
      </trkpt>
      <trkpt lat="48.44299" lon="2.67763">
        <ele>145.3</ele>
        <time>2018-11-18T08:56:59Z</time>
      </trkpt>
      <trkpt lat="48.44299" lon="2.67762">
        <ele>145.2</ele>
        <time>2018-11-18T08:57:00Z</time>
      </trkpt>
      <trkpt lat="48.44299" lon="2.6776">
        <ele>145.2</ele>
        <time>2018-11-18T08:57:01Z</time>
      </trkpt>
      <trkpt lat="48.443" lon="2.67759">
        <ele>145.1</ele>
        <time>2018-11-18T08:57:02Z</time>
      </trkpt>
      <trkpt lat="48.44301" lon="2.67757">
        <ele>145.1</ele>
        <time>2018-11-18T08:57:03Z</time>
      </trkpt>
      <trkpt lat="48.44302" lon="2.67754">
        <ele>145</ele>
        <time>2018-11-18T08:57:04Z</time>
      </trkpt>
      <trkpt lat="48.44302" lon="2.67752">
        <ele>145</ele>
        <time>2018-11-18T08:57:05Z</time>
      </trkpt>
      <trkpt lat="48.44302" lon="2.6775">
        <ele>144.9</ele>
        <time>2018-11-18T08:57:06Z</time>
      </trkpt>
      <trkpt lat="48.44302" lon="2.67747">
        <ele>144.9</ele>
        <time>2018-11-18T08:57:07Z</time>
      </trkpt>
      <trkpt lat="48.44303" lon="2.67744">
        <ele>144.8</ele>
        <time>2018-11-18T08:57:08Z</time>
      </trkpt>
      <trkpt lat="48.44304" lon="2.67741">
        <ele>144.8</ele>
        <time>2018-11-18T08:57:09Z</time>
      </trkpt>
      <trkpt lat="48.44304" lon="2.67737">
        <ele>144.8</ele>
        <time>2018-11-18T08:57:10Z</time>
      </trkpt>
      <trkpt lat="48.44305" lon="2.67734">
        <ele>144.8</ele>
        <time>2018-11-18T08:57:11Z</time>
      </trkpt>
      <trkpt lat="48.44305" lon="2.67731">
        <ele>144.8</ele>
        <time>2018-11-18T08:57:12Z</time>
      </trkpt>
      <trkpt lat="48.44306" lon="2.67727">
        <ele>144.8</ele>
        <time>2018-11-18T08:57:13Z</time>
      </trkpt>
      <trkpt lat="48.44307" lon="2.67723">
        <ele>144.9</ele>
        <time>2018-11-18T08:57:14Z</time>
      </trkpt>
      <trkpt lat="48.44307" lon="2.6772">
        <ele>144.9</ele>
        <time>2018-11-18T08:57:15Z</time>
      </trkpt>
      <trkpt lat="48.44307" lon="2.67718">
        <ele>144.9</ele>
        <time>2018-11-18T08:57:16Z</time>
      </trkpt>
      <trkpt lat="48.44308" lon="2.67715">
        <ele>144.9</ele>
        <time>2018-11-18T08:57:17Z</time>
      </trkpt>
      <trkpt lat="48.44308" lon="2.67712">
        <ele>145</ele>
        <time>2018-11-18T08:57:18Z</time>
      </trkpt>
      <trkpt lat="48.44308" lon="2.6771">
        <ele>145</ele>
        <time>2018-11-18T08:57:19Z</time>
      </trkpt>
      <trkpt lat="48.44308" lon="2.67708">
        <ele>145</ele>
        <time>2018-11-18T08:57:20Z</time>
      </trkpt>
      <trkpt lat="48.44308" lon="2.67706">
        <ele>145</ele>
        <time>2018-11-18T08:57:21Z</time>
      </trkpt>
      <trkpt lat="48.44308" lon="2.67703">
        <ele>145</ele>
        <time>2018-11-18T08:57:22Z</time>
      </trkpt>
      <trkpt lat="48.44308" lon="2.67701">
        <ele>145</ele>
        <time>2018-11-18T08:57:23Z</time>
      </trkpt>
      <trkpt lat="48.44308" lon="2.67699">
        <ele>145</ele>
        <time>2018-11-18T08:57:24Z</time>
      </trkpt>
      <trkpt lat="48.44308" lon="2.67696">
        <ele>145</ele>
        <time>2018-11-18T08:57:25Z</time>
      </trkpt>
      <trkpt lat="48.44308" lon="2.67695">
        <ele>145</ele>
        <time>2018-11-18T08:57:26Z</time>
      </trkpt>
      <trkpt lat="48.44308" lon="2.67694">
        <ele>145</ele>
        <time>2018-11-18T08:57:27Z</time>
      </trkpt>
      <trkpt lat="48.44308" lon="2.67693">
        <ele>145</ele>
        <time>2018-11-18T08:57:28Z</time>
      </trkpt>
      <trkpt lat="48.44308" lon="2.67693">
        <ele>145</ele>
        <time>2018-11-18T08:57:29Z</time>
      </trkpt>
      <trkpt lat="48.44308" lon="2.67693">
        <ele>145</ele>
        <time>2018-11-18T08:57:30Z</time>
      </trkpt>
      <trkpt lat="48.44306" lon="2.67688">
        <ele>144.4</ele>
        <time>2018-11-18T08:58:08Z</time>
      </trkpt>
      <trkpt lat="48.44304" lon="2.67687">
        <ele>144.4</ele>
        <time>2018-11-18T08:58:09Z</time>
      </trkpt>
      <trkpt lat="48.44303" lon="2.67686">
        <ele>143.8</ele>
        <time>2018-11-18T08:58:10Z</time>
      </trkpt>
      <trkpt lat="48.44302" lon="2.67686">
        <ele>143.8</ele>
        <time>2018-11-18T08:58:11Z</time>
      </trkpt>
      <trkpt lat="48.44301" lon="2.67686">
        <ele>143.8</ele>
        <time>2018-11-18T08:58:12Z</time>
      </trkpt>
      <trkpt lat="48.443" lon="2.67687">
        <ele>143.2</ele>
        <time>2018-11-18T08:58:13Z</time>
      </trkpt>
      <trkpt lat="48.443" lon="2.67688">
        <ele>143.2</ele>
        <time>2018-11-18T08:58:14Z</time>
      </trkpt>
      <trkpt lat="48.443" lon="2.67689">
        <ele>143.2</ele>
        <time>2018-11-18T08:58:15Z</time>
      </trkpt>
      <trkpt lat="48.44298" lon="2.6769">
        <ele>143.2</ele>
        <time>2018-11-18T08:58:16Z</time>
      </trkpt>
      <trkpt lat="48.44298" lon="2.67692">
        <ele>142.6</ele>
        <time>2018-11-18T08:58:17Z</time>
      </trkpt>
      <trkpt lat="48.44297" lon="2.67694">
        <ele>142.5</ele>
        <time>2018-11-18T08:58:18Z</time>
      </trkpt>
      <trkpt lat="48.44296" lon="2.67696">
        <ele>142.5</ele>
        <time>2018-11-18T08:58:19Z</time>
      </trkpt>
      <trkpt lat="48.44296" lon="2.67697">
        <ele>142.5</ele>
        <time>2018-11-18T08:58:20Z</time>
      </trkpt>
      <trkpt lat="48.44296" lon="2.67699">
        <ele>142.5</ele>
        <time>2018-11-18T08:58:21Z</time>
      </trkpt>
      <trkpt lat="48.44295" lon="2.67699">
        <ele>142.5</ele>
        <time>2018-11-18T08:58:22Z</time>
      </trkpt>
      <trkpt lat="48.44295" lon="2.67701">
        <ele>141.9</ele>
        <time>2018-11-18T08:58:23Z</time>
      </trkpt>
      <trkpt lat="48.44295" lon="2.67702">
        <ele>141.9</ele>
        <time>2018-11-18T08:58:24Z</time>
      </trkpt>
      <trkpt lat="48.44294" lon="2.67703">
        <ele>141.9</ele>
        <time>2018-11-18T08:58:25Z</time>
      </trkpt>
      <trkpt lat="48.44293" lon="2.67705">
        <ele>141.9</ele>
        <time>2018-11-18T08:58:26Z</time>
      </trkpt>
      <trkpt lat="48.44293" lon="2.67706">
        <ele>141.8</ele>
        <time>2018-11-18T08:58:27Z</time>
      </trkpt>
      <trkpt lat="48.44293" lon="2.67708">
        <ele>141.8</ele>
        <time>2018-11-18T08:58:28Z</time>
      </trkpt>
      <trkpt lat="48.44292" lon="2.6771">
        <ele>141.8</ele>
        <time>2018-11-18T08:58:29Z</time>
      </trkpt>
      <trkpt lat="48.44292" lon="2.67711">
        <ele>141.2</ele>
        <time>2018-11-18T08:58:30Z</time>
      </trkpt>
      <trkpt lat="48.44293" lon="2.67712">
        <ele>141.8</ele>
        <time>2018-11-18T08:58:31Z</time>
      </trkpt>
      <trkpt lat="48.44293" lon="2.67712">
        <ele>141.8</ele>
        <time>2018-11-18T08:58:32Z</time>
      </trkpt>
      <trkpt lat="48.44292" lon="2.67712">
        <ele>141.8</ele>
        <time>2018-11-18T08:58:33Z</time>
      </trkpt>
      <trkpt lat="48.44292" lon="2.67712">
        <ele>141.2</ele>
        <time>2018-11-18T08:58:34Z</time>
      </trkpt>
      <trkpt lat="48.44292" lon="2.67712">
        <ele>141.2</ele>
        <time>2018-11-18T08:58:35Z</time>
      </trkpt>
      <trkpt lat="48.44291" lon="2.67709">
        <ele>141.2</ele>
        <time>2018-11-18T08:58:50Z</time>
      </trkpt>
      <trkpt lat="48.44291" lon="2.67708">
        <ele>141.2</ele>
        <time>2018-11-18T08:58:51Z</time>
      </trkpt>
      <trkpt lat="48.44291" lon="2.67707">
        <ele>141.2</ele>
        <time>2018-11-18T08:58:52Z</time>
      </trkpt>
      <trkpt lat="48.44291" lon="2.67705">
        <ele>141.2</ele>
        <time>2018-11-18T08:58:53Z</time>
      </trkpt>
      <trkpt lat="48.44291" lon="2.67703">
        <ele>141.2</ele>
        <time>2018-11-18T08:58:54Z</time>
      </trkpt>
      <trkpt lat="48.44291" lon="2.67701">
        <ele>141.2</ele>
        <time>2018-11-18T08:58:55Z</time>
      </trkpt>
      <trkpt lat="48.44291" lon="2.677">
        <ele>141.2</ele>
        <time>2018-11-18T08:58:56Z</time>
      </trkpt>
      <trkpt lat="48.44291" lon="2.677">
        <ele>141.1</ele>
        <time>2018-11-18T08:58:57Z</time>
      </trkpt>
      <trkpt lat="48.44292" lon="2.677">
        <ele>141.1</ele>
        <time>2018-11-18T08:58:58Z</time>
      </trkpt>
      <trkpt lat="48.44292" lon="2.677">
        <ele>141.1</ele>
        <time>2018-11-18T08:58:59Z</time>
      </trkpt>
      <trkpt lat="48.44292" lon="2.67701">
        <ele>141.1</ele>
        <time>2018-11-18T08:59:00Z</time>
      </trkpt>
      <trkpt lat="48.44291" lon="2.67701">
        <ele>141.1</ele>
        <time>2018-11-18T08:59:01Z</time>
      </trkpt>
      <trkpt lat="48.4429" lon="2.67701">
        <ele>141.1</ele>
        <time>2018-11-18T08:59:02Z</time>
      </trkpt>
      <trkpt lat="48.44288" lon="2.67702">
        <ele>140.5</ele>
        <time>2018-11-18T08:59:03Z</time>
      </trkpt>
      <trkpt lat="48.44287" lon="2.67702">
        <ele>139.9</ele>
        <time>2018-11-18T08:59:04Z</time>
      </trkpt>
      <trkpt lat="48.44286" lon="2.67701">
        <ele>139.9</ele>
        <time>2018-11-18T08:59:05Z</time>
      </trkpt>
      <trkpt lat="48.44286" lon="2.67701">
        <ele>139.9</ele>
        <time>2018-11-18T08:59:06Z</time>
      </trkpt>
      <trkpt lat="48.44286" lon="2.67701">
        <ele>139.8</ele>
        <time>2018-11-18T08:59:07Z</time>
      </trkpt>
      <trkpt lat="48.44286" lon="2.67701">
        <ele>139.8</ele>
        <time>2018-11-18T08:59:08Z</time>
      </trkpt>
      <trkpt lat="48.44286" lon="2.67701">
        <ele>139.8</ele>
        <time>2018-11-18T08:59:09Z</time>
      </trkpt>
      <trkpt lat="48.44284" lon="2.677">
        <ele>139.8</ele>
        <time>2018-11-18T08:59:11Z</time>
      </trkpt>
      <trkpt lat="48.44284" lon="2.677">
        <ele>139.2</ele>
        <time>2018-11-18T08:59:12Z</time>
      </trkpt>
      <trkpt lat="48.44283" lon="2.67699">
        <ele>139.2</ele>
        <time>2018-11-18T08:59:13Z</time>
      </trkpt>
      <trkpt lat="48.44283" lon="2.67699">
        <ele>139.2</ele>
        <time>2018-11-18T08:59:14Z</time>
      </trkpt>
      <trkpt lat="48.44283" lon="2.67698">
        <ele>139.1</ele>
        <time>2018-11-18T08:59:15Z</time>
      </trkpt>
      <trkpt lat="48.44283" lon="2.67697">
        <ele>139.2</ele>
        <time>2018-11-18T08:59:16Z</time>
      </trkpt>
      <trkpt lat="48.44283" lon="2.67696">
        <ele>139.1</ele>
        <time>2018-11-18T08:59:17Z</time>
      </trkpt>
      <trkpt lat="48.44283" lon="2.67696">
        <ele>139.1</ele>
        <time>2018-11-18T08:59:18Z</time>
      </trkpt>
      <trkpt lat="48.44283" lon="2.67696">
        <ele>139.1</ele>
        <time>2018-11-18T08:59:19Z</time>
      </trkpt>
      <trkpt lat="48.44283" lon="2.67695">
        <ele>139.1</ele>
        <time>2018-11-18T08:59:20Z</time>
      </trkpt>
      <trkpt lat="48.44283" lon="2.67695">
        <ele>139.1</ele>
        <time>2018-11-18T08:59:21Z</time>
      </trkpt>
      <trkpt lat="48.44283" lon="2.67695">
        <ele>139.1</ele>
        <time>2018-11-18T08:59:22Z</time>
      </trkpt>
      <trkpt lat="48.44283" lon="2.67692">
        <ele>139.1</ele>
        <time>2018-11-18T09:00:32Z</time>
      </trkpt>
      <trkpt lat="48.44284" lon="2.6769">
        <ele>139.1</ele>
        <time>2018-11-18T09:00:33Z</time>
      </trkpt>
      <trkpt lat="48.44284" lon="2.67688">
        <ele>139.8</ele>
        <time>2018-11-18T09:00:34Z</time>
      </trkpt>
      <trkpt lat="48.44284" lon="2.67687">
        <ele>139.8</ele>
        <time>2018-11-18T09:00:35Z</time>
      </trkpt>
      <trkpt lat="48.44284" lon="2.67686">
        <ele>139.8</ele>
        <time>2018-11-18T09:00:36Z</time>
      </trkpt>
      <trkpt lat="48.44284" lon="2.67685">
        <ele>139.8</ele>
        <time>2018-11-18T09:00:37Z</time>
      </trkpt>
      <trkpt lat="48.44284" lon="2.67684">
        <ele>139.2</ele>
        <time>2018-11-18T09:00:38Z</time>
      </trkpt>
      <trkpt lat="48.44284" lon="2.67684">
        <ele>139.2</ele>
        <time>2018-11-18T09:00:39Z</time>
      </trkpt>
      <trkpt lat="48.44284" lon="2.67683">
        <ele>139.2</ele>
        <time>2018-11-18T09:00:40Z</time>
      </trkpt>
      <trkpt lat="48.44284" lon="2.67683">
        <ele>139.8</ele>
        <time>2018-11-18T09:00:41Z</time>
      </trkpt>
      <trkpt lat="48.44284" lon="2.67683">
        <ele>139.8</ele>
        <time>2018-11-18T09:00:42Z</time>
      </trkpt>
      <trkpt lat="48.44282" lon="2.67681">
        <ele>139.2</ele>
        <time>2018-11-18T09:02:18Z</time>
      </trkpt>
      <trkpt lat="48.44281" lon="2.6768">
        <ele>138.6</ele>
        <time>2018-11-18T09:02:19Z</time>
      </trkpt>
      <trkpt lat="48.44279" lon="2.67679">
        <ele>138.6</ele>
        <time>2018-11-18T09:02:20Z</time>
      </trkpt>
      <trkpt lat="48.44279" lon="2.67679">
        <ele>138.6</ele>
        <time>2018-11-18T09:02:21Z</time>
      </trkpt>
      <trkpt lat="48.44278" lon="2.6768">
        <ele>138.6</ele>
        <time>2018-11-18T09:02:22Z</time>
      </trkpt>
      <trkpt lat="48.44278" lon="2.6768">
        <ele>138.6</ele>
        <time>2018-11-18T09:02:23Z</time>
      </trkpt>
      <trkpt lat="48.44278" lon="2.6768">
        <ele>138.6</ele>
        <time>2018-11-18T09:02:24Z</time>
      </trkpt>
      <trkpt lat="48.44278" lon="2.6768">
        <ele>138.6</ele>
        <time>2018-11-18T09:02:25Z</time>
      </trkpt>
      <trkpt lat="48.44278" lon="2.6768">
        <ele>138.6</ele>
        <time>2018-11-18T09:02:26Z</time>
      </trkpt>
      <trkpt lat="48.44279" lon="2.6768">
        <ele>138.6</ele>
        <time>2018-11-18T09:02:30Z</time>
      </trkpt>
      <trkpt lat="48.44281" lon="2.6768">
        <ele>138.4</ele>
        <time>2018-11-18T09:02:31Z</time>
      </trkpt>
      <trkpt lat="48.44282" lon="2.6768">
        <ele>139.2</ele>
        <time>2018-11-18T09:02:32Z</time>
      </trkpt>
      <trkpt lat="48.44283" lon="2.67679">
        <ele>139.2</ele>
        <time>2018-11-18T09:02:33Z</time>
      </trkpt>
      <trkpt lat="48.44285" lon="2.67678">
        <ele>139.8</ele>
        <time>2018-11-18T09:02:34Z</time>
      </trkpt>
      <trkpt lat="48.44286" lon="2.67676">
        <ele>139.8</ele>
        <time>2018-11-18T09:02:35Z</time>
      </trkpt>
      <trkpt lat="48.44287" lon="2.67675">
        <ele>140.6</ele>
        <time>2018-11-18T09:02:36Z</time>
      </trkpt>
      <trkpt lat="48.44288" lon="2.67675">
        <ele>140.6</ele>
        <time>2018-11-18T09:02:37Z</time>
      </trkpt>
      <trkpt lat="48.44288" lon="2.67674">
        <ele>140.6</ele>
        <time>2018-11-18T09:02:38Z</time>
      </trkpt>
      <trkpt lat="48.44289" lon="2.67674">
        <ele>140.5</ele>
        <time>2018-11-18T09:02:39Z</time>
      </trkpt>
      <trkpt lat="48.44289" lon="2.67674">
        <ele>140.5</ele>
        <time>2018-11-18T09:02:40Z</time>
      </trkpt>
      <trkpt lat="48.44289" lon="2.67674">
        <ele>140.5</ele>
        <time>2018-11-18T09:02:41Z</time>
      </trkpt>
      <trkpt lat="48.4429" lon="2.67668">
        <ele>141.2</ele>
        <time>2018-11-18T09:03:42Z</time>
      </trkpt>
      <trkpt lat="48.44291" lon="2.67667">
        <ele>141.4</ele>
        <time>2018-11-18T09:03:43Z</time>
      </trkpt>
      <trkpt lat="48.44291" lon="2.67665">
        <ele>141.4</ele>
        <time>2018-11-18T09:03:44Z</time>
      </trkpt>
      <trkpt lat="48.44291" lon="2.67663">
        <ele>141.5</ele>
        <time>2018-11-18T09:03:45Z</time>
      </trkpt>
      <trkpt lat="48.44292" lon="2.67661">
        <ele>141.5</ele>
        <time>2018-11-18T09:03:46Z</time>
      </trkpt>
      <trkpt lat="48.44293" lon="2.67658">
        <ele>142.1</ele>
        <time>2018-11-18T09:03:47Z</time>
      </trkpt>
      <trkpt lat="48.44294" lon="2.67655">
        <ele>142.1</ele>
        <time>2018-11-18T09:03:48Z</time>
      </trkpt>
      <trkpt lat="48.44295" lon="2.67652">
        <ele>142.2</ele>
        <time>2018-11-18T09:03:49Z</time>
      </trkpt>
      <trkpt lat="48.44295" lon="2.67648">
        <ele>142.7</ele>
        <time>2018-11-18T09:03:50Z</time>
      </trkpt>
      <trkpt lat="48.44296" lon="2.67645">
        <ele>142.8</ele>
        <time>2018-11-18T09:03:51Z</time>
      </trkpt>
      <trkpt lat="48.44296" lon="2.67641">
        <ele>142.8</ele>
        <time>2018-11-18T09:03:52Z</time>
      </trkpt>
      <trkpt lat="48.44295" lon="2.67637">
        <ele>142.8</ele>
        <time>2018-11-18T09:03:53Z</time>
      </trkpt>
      <trkpt lat="48.44295" lon="2.67633">
        <ele>142.2</ele>
        <time>2018-11-18T09:03:54Z</time>
      </trkpt>
      <trkpt lat="48.44295" lon="2.67629">
        <ele>142.2</ele>
        <time>2018-11-18T09:03:55Z</time>
      </trkpt>
      <trkpt lat="48.44294" lon="2.67626">
        <ele>142.1</ele>
        <time>2018-11-18T09:03:56Z</time>
      </trkpt>
      <trkpt lat="48.44294" lon="2.67622">
        <ele>142.1</ele>
        <time>2018-11-18T09:03:57Z</time>
      </trkpt>
      <trkpt lat="48.44294" lon="2.67618">
        <ele>142</ele>
        <time>2018-11-18T09:03:58Z</time>
      </trkpt>
      <trkpt lat="48.44293" lon="2.67614">
        <ele>142</ele>
        <time>2018-11-18T09:03:59Z</time>
      </trkpt>
      <trkpt lat="48.44294" lon="2.67611">
        <ele>142</ele>
        <time>2018-11-18T09:04:00Z</time>
      </trkpt>
      <trkpt lat="48.44293" lon="2.67608">
        <ele>142</ele>
        <time>2018-11-18T09:04:01Z</time>
      </trkpt>
      <trkpt lat="48.44293" lon="2.67606">
        <ele>142</ele>
        <time>2018-11-18T09:04:02Z</time>
      </trkpt>
      <trkpt lat="48.44293" lon="2.67605">
        <ele>142</ele>
        <time>2018-11-18T09:04:03Z</time>
      </trkpt>
      <trkpt lat="48.44292" lon="2.67605">
        <ele>141.5</ele>
        <time>2018-11-18T09:04:04Z</time>
      </trkpt>
      <trkpt lat="48.44292" lon="2.67604">
        <ele>141.5</ele>
        <time>2018-11-18T09:04:05Z</time>
      </trkpt>
      <trkpt lat="48.44291" lon="2.67603">
        <ele>141.5</ele>
        <time>2018-11-18T09:04:06Z</time>
      </trkpt>
      <trkpt lat="48.4429" lon="2.67602">
        <ele>141.5</ele>
        <time>2018-11-18T09:04:07Z</time>
      </trkpt>
      <trkpt lat="48.44289" lon="2.67602">
        <ele>141</ele>
        <time>2018-11-18T09:04:08Z</time>
      </trkpt>
      <trkpt lat="48.4429" lon="2.67602">
        <ele>141.5</ele>
        <time>2018-11-18T09:04:09Z</time>
      </trkpt>
      <trkpt lat="48.4429" lon="2.67603">
        <ele>141.5</ele>
        <time>2018-11-18T09:04:10Z</time>
      </trkpt>
      <trkpt lat="48.44291" lon="2.67603">
        <ele>141.4</ele>
        <time>2018-11-18T09:04:11Z</time>
      </trkpt>
      <trkpt lat="48.44292" lon="2.67605">
        <ele>141.4</ele>
        <time>2018-11-18T09:04:12Z</time>
      </trkpt>
      <trkpt lat="48.44292" lon="2.67607">
        <ele>141.4</ele>
        <time>2018-11-18T09:04:13Z</time>
      </trkpt>
      <trkpt lat="48.44293" lon="2.67608">
        <ele>141.9</ele>
        <time>2018-11-18T09:04:14Z</time>
      </trkpt>
      <trkpt lat="48.44293" lon="2.67609">
        <ele>141.9</ele>
        <time>2018-11-18T09:04:15Z</time>
      </trkpt>
      <trkpt lat="48.44294" lon="2.67609">
        <ele>141.9</ele>
        <time>2018-11-18T09:04:16Z</time>
      </trkpt>
      <trkpt lat="48.44294" lon="2.67607">
        <ele>141.9</ele>
        <time>2018-11-18T09:04:17Z</time>
      </trkpt>
      <trkpt lat="48.44294" lon="2.67607">
        <ele>141.9</ele>
        <time>2018-11-18T09:04:18Z</time>
      </trkpt>
      <trkpt lat="48.44295" lon="2.67606">
        <ele>141.9</ele>
        <time>2018-11-18T09:04:19Z</time>
      </trkpt>
      <trkpt lat="48.44295" lon="2.67606">
        <ele>141.9</ele>
        <time>2018-11-18T09:04:20Z</time>
      </trkpt>
      <trkpt lat="48.44295" lon="2.67605">
        <ele>142.5</ele>
        <time>2018-11-18T09:04:21Z</time>
      </trkpt>
      <trkpt lat="48.44295" lon="2.67602">
        <ele>141.9</ele>
        <time>2018-11-18T09:04:26Z</time>
      </trkpt>
      <trkpt lat="48.44294" lon="2.67602">
        <ele>141.9</ele>
        <time>2018-11-18T09:04:27Z</time>
      </trkpt>
      <trkpt lat="48.44294" lon="2.676">
        <ele>141.9</ele>
        <time>2018-11-18T09:04:28Z</time>
      </trkpt>
      <trkpt lat="48.44294" lon="2.67599">
        <ele>141.9</ele>
        <time>2018-11-18T09:04:29Z</time>
      </trkpt>
      <trkpt lat="48.44293" lon="2.67598">
        <ele>142</ele>
        <time>2018-11-18T09:04:30Z</time>
      </trkpt>
      <trkpt lat="48.44292" lon="2.67597">
        <ele>141.5</ele>
        <time>2018-11-18T09:04:31Z</time>
      </trkpt>
      <trkpt lat="48.44291" lon="2.67596">
        <ele>141.5</ele>
        <time>2018-11-18T09:04:32Z</time>
      </trkpt>
      <trkpt lat="48.4429" lon="2.67594">
        <ele>141.6</ele>
        <time>2018-11-18T09:04:33Z</time>
      </trkpt>
      <trkpt lat="48.4429" lon="2.67592">
        <ele>141.6</ele>
        <time>2018-11-18T09:04:34Z</time>
      </trkpt>
      <trkpt lat="48.44291" lon="2.6759">
        <ele>141.7</ele>
        <time>2018-11-18T09:04:35Z</time>
      </trkpt>
      <trkpt lat="48.44291" lon="2.67588">
        <ele>141.7</ele>
        <time>2018-11-18T09:04:36Z</time>
      </trkpt>
      <trkpt lat="48.44291" lon="2.67588">
        <ele>141.7</ele>
        <time>2018-11-18T09:04:37Z</time>
      </trkpt>
      <trkpt lat="48.44291" lon="2.67587">
        <ele>141.7</ele>
        <time>2018-11-18T09:04:38Z</time>
      </trkpt>
      <trkpt lat="48.44291" lon="2.67586">
        <ele>141.7</ele>
        <time>2018-11-18T09:04:39Z</time>
      </trkpt>
      <trkpt lat="48.4429" lon="2.67585">
        <ele>141.8</ele>
        <time>2018-11-18T09:04:40Z</time>
      </trkpt>
      <trkpt lat="48.4429" lon="2.67584">
        <ele>141.8</ele>
        <time>2018-11-18T09:04:41Z</time>
      </trkpt>
      <trkpt lat="48.44289" lon="2.67584">
        <ele>141.3</ele>
        <time>2018-11-18T09:04:42Z</time>
      </trkpt>
      <trkpt lat="48.44289" lon="2.67583">
        <ele>141.3</ele>
        <time>2018-11-18T09:04:43Z</time>
      </trkpt>
      <trkpt lat="48.44289" lon="2.67581">
        <ele>141.4</ele>
        <time>2018-11-18T09:04:44Z</time>
      </trkpt>
      <trkpt lat="48.44289" lon="2.67579">
        <ele>141.4</ele>
        <time>2018-11-18T09:04:45Z</time>
      </trkpt>
      <trkpt lat="48.44289" lon="2.67578">
        <ele>141.4</ele>
        <time>2018-11-18T09:04:46Z</time>
      </trkpt>
      <trkpt lat="48.44289" lon="2.67577">
        <ele>141.5</ele>
        <time>2018-11-18T09:04:47Z</time>
      </trkpt>
      <trkpt lat="48.44289" lon="2.67576">
        <ele>141.5</ele>
        <time>2018-11-18T09:04:48Z</time>
      </trkpt>
      <trkpt lat="48.44289" lon="2.67576">
        <ele>141.5</ele>
        <time>2018-11-18T09:04:49Z</time>
      </trkpt>
      <trkpt lat="48.44289" lon="2.67575">
        <ele>141.5</ele>
        <time>2018-11-18T09:04:50Z</time>
      </trkpt>
      <trkpt lat="48.44288" lon="2.67573">
        <ele>141.6</ele>
        <time>2018-11-18T09:04:51Z</time>
      </trkpt>
      <trkpt lat="48.44288" lon="2.67571">
        <ele>141.6</ele>
        <time>2018-11-18T09:04:52Z</time>
      </trkpt>
      <trkpt lat="48.44288" lon="2.67569">
        <ele>141.6</ele>
        <time>2018-11-18T09:04:53Z</time>
      </trkpt>
      <trkpt lat="48.44288" lon="2.67568">
        <ele>141.6</ele>
        <time>2018-11-18T09:04:54Z</time>
      </trkpt>
      <trkpt lat="48.44287" lon="2.67566">
        <ele>141.6</ele>
        <time>2018-11-18T09:04:55Z</time>
      </trkpt>
      <trkpt lat="48.44287" lon="2.67563">
        <ele>141.6</ele>
        <time>2018-11-18T09:04:56Z</time>
      </trkpt>
      <trkpt lat="48.44287" lon="2.67559">
        <ele>141.1</ele>
        <time>2018-11-18T09:04:57Z</time>
      </trkpt>
      <trkpt lat="48.44287" lon="2.67556">
        <ele>141.1</ele>
        <time>2018-11-18T09:04:58Z</time>
      </trkpt>
      <trkpt lat="48.44287" lon="2.67553">
        <ele>141.6</ele>
        <time>2018-11-18T09:04:59Z</time>
      </trkpt>
      <trkpt lat="48.44288" lon="2.67552">
        <ele>141.6</ele>
        <time>2018-11-18T09:05:00Z</time>
      </trkpt>
      <trkpt lat="48.44288" lon="2.6755">
        <ele>141.6</ele>
        <time>2018-11-18T09:05:01Z</time>
      </trkpt>
      <trkpt lat="48.44289" lon="2.67549">
        <ele>141.6</ele>
        <time>2018-11-18T09:05:02Z</time>
      </trkpt>
      <trkpt lat="48.44289" lon="2.67546">
        <ele>141.6</ele>
        <time>2018-11-18T09:05:03Z</time>
      </trkpt>
      <trkpt lat="48.44288" lon="2.67544">
        <ele>141.6</ele>
        <time>2018-11-18T09:05:04Z</time>
      </trkpt>
      <trkpt lat="48.44288" lon="2.67541">
        <ele>141.6</ele>
        <time>2018-11-18T09:05:05Z</time>
      </trkpt>
      <trkpt lat="48.44288" lon="2.67539">
        <ele>141.6</ele>
        <time>2018-11-18T09:05:06Z</time>
      </trkpt>
      <trkpt lat="48.44288" lon="2.67537">
        <ele>141.7</ele>
        <time>2018-11-18T09:05:07Z</time>
      </trkpt>
      <trkpt lat="48.44288" lon="2.67534">
        <ele>141.9</ele>
        <time>2018-11-18T09:05:08Z</time>
      </trkpt>
      <trkpt lat="48.44288" lon="2.67532">
        <ele>141.9</ele>
        <time>2018-11-18T09:05:09Z</time>
      </trkpt>
      <trkpt lat="48.44288" lon="2.6753">
        <ele>142</ele>
        <time>2018-11-18T09:05:10Z</time>
      </trkpt>
      <trkpt lat="48.44288" lon="2.67527">
        <ele>142</ele>
        <time>2018-11-18T09:05:11Z</time>
      </trkpt>
      <trkpt lat="48.44288" lon="2.67524">
        <ele>142.1</ele>
        <time>2018-11-18T09:05:12Z</time>
      </trkpt>
      <trkpt lat="48.44289" lon="2.6752">
        <ele>142.2</ele>
        <time>2018-11-18T09:05:13Z</time>
      </trkpt>
      <trkpt lat="48.4429" lon="2.67517">
        <ele>142.8</ele>
        <time>2018-11-18T09:05:14Z</time>
      </trkpt>
      <trkpt lat="48.4429" lon="2.67514">
        <ele>142.8</ele>
        <time>2018-11-18T09:05:15Z</time>
      </trkpt>
      <trkpt lat="48.4429" lon="2.67511">
        <ele>142.8</ele>
        <time>2018-11-18T09:05:16Z</time>
      </trkpt>
      <trkpt lat="48.44289" lon="2.67508">
        <ele>142.4</ele>
        <time>2018-11-18T09:05:17Z</time>
      </trkpt>
      <trkpt lat="48.44288" lon="2.67505">
        <ele>142.4</ele>
        <time>2018-11-18T09:05:18Z</time>
      </trkpt>
      <trkpt lat="48.44286" lon="2.67502">
        <ele>142</ele>
        <time>2018-11-18T09:05:19Z</time>
      </trkpt>
      <trkpt lat="48.44285" lon="2.67499">
        <ele>141.9</ele>
        <time>2018-11-18T09:05:20Z</time>
      </trkpt>
      <trkpt lat="48.44283" lon="2.67496">
        <ele>141.5</ele>
        <time>2018-11-18T09:05:21Z</time>
      </trkpt>
      <trkpt lat="48.44283" lon="2.67493">
        <ele>141.4</ele>
        <time>2018-11-18T09:05:22Z</time>
      </trkpt>
      <trkpt lat="48.44282" lon="2.67489">
        <ele>141.4</ele>
        <time>2018-11-18T09:05:23Z</time>
      </trkpt>
      <trkpt lat="48.44282" lon="2.67485">
        <ele>141.4</ele>
        <time>2018-11-18T09:05:24Z</time>
      </trkpt>
      <trkpt lat="48.44282" lon="2.67482">
        <ele>141.3</ele>
        <time>2018-11-18T09:05:25Z</time>
      </trkpt>
      <trkpt lat="48.44282" lon="2.67478">
        <ele>141.3</ele>
        <time>2018-11-18T09:05:26Z</time>
      </trkpt>
      <trkpt lat="48.44282" lon="2.67474">
        <ele>141.3</ele>
        <time>2018-11-18T09:05:27Z</time>
      </trkpt>
      <trkpt lat="48.44282" lon="2.67469">
        <ele>141.3</ele>
        <time>2018-11-18T09:05:28Z</time>
      </trkpt>
      <trkpt lat="48.44282" lon="2.67465">
        <ele>141.3</ele>
        <time>2018-11-18T09:05:29Z</time>
      </trkpt>
      <trkpt lat="48.44283" lon="2.67462">
        <ele>141.3</ele>
        <time>2018-11-18T09:05:30Z</time>
      </trkpt>
      <trkpt lat="48.44283" lon="2.67459">
        <ele>141.3</ele>
        <time>2018-11-18T09:05:31Z</time>
      </trkpt>
      <trkpt lat="48.44282" lon="2.67457">
        <ele>141.4</ele>
        <time>2018-11-18T09:05:32Z</time>
      </trkpt>
      <trkpt lat="48.44282" lon="2.67455">
        <ele>141.4</ele>
        <time>2018-11-18T09:05:33Z</time>
      </trkpt>
      <trkpt lat="48.44281" lon="2.67453">
        <ele>141.4</ele>
        <time>2018-11-18T09:05:34Z</time>
      </trkpt>
      <trkpt lat="48.44281" lon="2.67451">
        <ele>141.1</ele>
        <time>2018-11-18T09:05:35Z</time>
      </trkpt>
      <trkpt lat="48.44281" lon="2.67448">
        <ele>141.2</ele>
        <time>2018-11-18T09:05:36Z</time>
      </trkpt>
      <trkpt lat="48.4428" lon="2.67445">
        <ele>141.2</ele>
        <time>2018-11-18T09:05:37Z</time>
      </trkpt>
      <trkpt lat="48.44281" lon="2.67441">
        <ele>141.4</ele>
        <time>2018-11-18T09:05:38Z</time>
      </trkpt>
      <trkpt lat="48.44281" lon="2.67437">
        <ele>142</ele>
        <time>2018-11-18T09:05:39Z</time>
      </trkpt>
      <trkpt lat="48.44282" lon="2.67432">
        <ele>142.1</ele>
        <time>2018-11-18T09:05:40Z</time>
      </trkpt>
      <trkpt lat="48.44282" lon="2.67428">
        <ele>142.2</ele>
        <time>2018-11-18T09:05:41Z</time>
      </trkpt>
      <trkpt lat="48.44283" lon="2.67424">
        <ele>142.3</ele>
        <time>2018-11-18T09:05:42Z</time>
      </trkpt>
      <trkpt lat="48.44284" lon="2.67421">
        <ele>142.3</ele>
        <time>2018-11-18T09:05:43Z</time>
      </trkpt>
      <trkpt lat="48.44285" lon="2.67418">
        <ele>142.7</ele>
        <time>2018-11-18T09:05:44Z</time>
      </trkpt>
      <trkpt lat="48.44286" lon="2.67416">
        <ele>142.7</ele>
        <time>2018-11-18T09:05:45Z</time>
      </trkpt>
      <trkpt lat="48.44287" lon="2.67412">
        <ele>143.1</ele>
        <time>2018-11-18T09:05:46Z</time>
      </trkpt>
      <trkpt lat="48.44288" lon="2.67409">
        <ele>143.1</ele>
        <time>2018-11-18T09:05:47Z</time>
      </trkpt>
      <trkpt lat="48.44289" lon="2.67406">
        <ele>143.1</ele>
        <time>2018-11-18T09:05:48Z</time>
      </trkpt>
      <trkpt lat="48.44289" lon="2.67404">
        <ele>143.1</ele>
        <time>2018-11-18T09:05:49Z</time>
      </trkpt>
      <trkpt lat="48.4429" lon="2.67401">
        <ele>143.6</ele>
        <time>2018-11-18T09:05:50Z</time>
      </trkpt>
      <trkpt lat="48.44291" lon="2.67398">
        <ele>143.5</ele>
        <time>2018-11-18T09:05:51Z</time>
      </trkpt>
      <trkpt lat="48.44292" lon="2.67395">
        <ele>143.7</ele>
        <time>2018-11-18T09:05:52Z</time>
      </trkpt>
      <trkpt lat="48.44292" lon="2.67391">
        <ele>143.8</ele>
        <time>2018-11-18T09:05:53Z</time>
      </trkpt>
      <trkpt lat="48.44293" lon="2.67388">
        <ele>144.2</ele>
        <time>2018-11-18T09:05:54Z</time>
      </trkpt>
      <trkpt lat="48.44293" lon="2.67386">
        <ele>144.2</ele>
        <time>2018-11-18T09:05:55Z</time>
      </trkpt>
      <trkpt lat="48.44294" lon="2.67383">
        <ele>144.3</ele>
        <time>2018-11-18T09:05:56Z</time>
      </trkpt>
      <trkpt lat="48.44294" lon="2.6738">
        <ele>144.4</ele>
        <time>2018-11-18T09:05:57Z</time>
      </trkpt>
      <trkpt lat="48.44294" lon="2.67377">
        <ele>144.4</ele>
        <time>2018-11-18T09:05:58Z</time>
      </trkpt>
      <trkpt lat="48.44294" lon="2.67373">
        <ele>144.5</ele>
        <time>2018-11-18T09:05:59Z</time>
      </trkpt>
      <trkpt lat="48.44295" lon="2.67371">
        <ele>144.5</ele>
        <time>2018-11-18T09:06:00Z</time>
      </trkpt>
      <trkpt lat="48.44295" lon="2.67369">
        <ele>144.5</ele>
        <time>2018-11-18T09:06:01Z</time>
      </trkpt>
      <trkpt lat="48.44296" lon="2.67367">
        <ele>144.8</ele>
        <time>2018-11-18T09:06:02Z</time>
      </trkpt>
      <trkpt lat="48.44296" lon="2.67367">
        <ele>144.8</ele>
        <time>2018-11-18T09:06:03Z</time>
      </trkpt>
      <trkpt lat="48.44296" lon="2.67366">
        <ele>144.8</ele>
        <time>2018-11-18T09:06:04Z</time>
      </trkpt>
      <trkpt lat="48.44296" lon="2.67366">
        <ele>144.8</ele>
        <time>2018-11-18T09:06:05Z</time>
      </trkpt>
      <trkpt lat="48.44296" lon="2.67366">
        <ele>144.8</ele>
        <time>2018-11-18T09:06:06Z</time>
      </trkpt>
      <trkpt lat="48.44296" lon="2.67362">
        <ele>144.7</ele>
        <time>2018-11-18T09:06:16Z</time>
      </trkpt>
      <trkpt lat="48.44295" lon="2.67361">
        <ele>144.5</ele>
        <time>2018-11-18T09:06:17Z</time>
      </trkpt>
      <trkpt lat="48.44294" lon="2.67361">
        <ele>144.5</ele>
        <time>2018-11-18T09:06:18Z</time>
      </trkpt>
      <trkpt lat="48.44293" lon="2.67361">
        <ele>144.5</ele>
        <time>2018-11-18T09:06:19Z</time>
      </trkpt>
      <trkpt lat="48.44292" lon="2.6736">
        <ele>144.2</ele>
        <time>2018-11-18T09:06:20Z</time>
      </trkpt>
      <trkpt lat="48.44291" lon="2.67359">
        <ele>144.2</ele>
        <time>2018-11-18T09:06:21Z</time>
      </trkpt>
      <trkpt lat="48.4429" lon="2.67357">
        <ele>144.2</ele>
        <time>2018-11-18T09:06:22Z</time>
      </trkpt>
      <trkpt lat="48.44289" lon="2.67354">
        <ele>143.9</ele>
        <time>2018-11-18T09:06:23Z</time>
      </trkpt>
      <trkpt lat="48.44288" lon="2.67352">
        <ele>144</ele>
        <time>2018-11-18T09:06:24Z</time>
      </trkpt>
      <trkpt lat="48.44287" lon="2.67349">
        <ele>144</ele>
        <time>2018-11-18T09:06:25Z</time>
      </trkpt>
      <trkpt lat="48.44286" lon="2.67346">
        <ele>143.8</ele>
        <time>2018-11-18T09:06:26Z</time>
      </trkpt>
      <trkpt lat="48.44285" lon="2.67344">
        <ele>143.8</ele>
        <time>2018-11-18T09:06:27Z</time>
      </trkpt>
      <trkpt lat="48.44284" lon="2.67341">
        <ele>143.8</ele>
        <time>2018-11-18T09:06:28Z</time>
      </trkpt>
      <trkpt lat="48.44283" lon="2.67339">
        <ele>143.7</ele>
        <time>2018-11-18T09:06:29Z</time>
      </trkpt>
      <trkpt lat="48.44282" lon="2.67336">
        <ele>143.8</ele>
        <time>2018-11-18T09:06:30Z</time>
      </trkpt>
      <trkpt lat="48.44281" lon="2.67334">
        <ele>143.6</ele>
        <time>2018-11-18T09:06:31Z</time>
      </trkpt>
      <trkpt lat="48.44279" lon="2.67332">
        <ele>143.7</ele>
        <time>2018-11-18T09:06:32Z</time>
      </trkpt>
      <trkpt lat="48.44277" lon="2.6733">
        <ele>143.4</ele>
        <time>2018-11-18T09:06:33Z</time>
      </trkpt>
      <trkpt lat="48.44275" lon="2.67327">
        <ele>143.3</ele>
        <time>2018-11-18T09:06:34Z</time>
      </trkpt>
      <trkpt lat="48.44273" lon="2.67324">
        <ele>143.3</ele>
        <time>2018-11-18T09:06:35Z</time>
      </trkpt>
      <trkpt lat="48.44272" lon="2.67321">
        <ele>143.2</ele>
        <time>2018-11-18T09:06:36Z</time>
      </trkpt>
      <trkpt lat="48.44272" lon="2.67318">
        <ele>143.3</ele>
        <time>2018-11-18T09:06:37Z</time>
      </trkpt>
      <trkpt lat="48.44271" lon="2.67315">
        <ele>143.4</ele>
        <time>2018-11-18T09:06:38Z</time>
      </trkpt>
      <trkpt lat="48.4427" lon="2.67313">
        <ele>143.4</ele>
        <time>2018-11-18T09:06:39Z</time>
      </trkpt>
      <trkpt lat="48.44268" lon="2.6731">
        <ele>143.3</ele>
        <time>2018-11-18T09:06:40Z</time>
      </trkpt>
      <trkpt lat="48.44266" lon="2.67308">
        <ele>143.1</ele>
        <time>2018-11-18T09:06:41Z</time>
      </trkpt>
      <trkpt lat="48.44264" lon="2.67307">
        <ele>143.2</ele>
        <time>2018-11-18T09:06:42Z</time>
      </trkpt>
      <trkpt lat="48.44261" lon="2.67305">
        <ele>143</ele>
        <time>2018-11-18T09:06:43Z</time>
      </trkpt>
      <trkpt lat="48.44259" lon="2.67304">
        <ele>142.8</ele>
        <time>2018-11-18T09:06:44Z</time>
      </trkpt>
      <trkpt lat="48.44256" lon="2.67301">
        <ele>142.7</ele>
        <time>2018-11-18T09:06:45Z</time>
      </trkpt>
      <trkpt lat="48.44254" lon="2.67299">
        <ele>142.4</ele>
        <time>2018-11-18T09:06:46Z</time>
      </trkpt>
      <trkpt lat="48.44253" lon="2.67297">
        <ele>142.5</ele>
        <time>2018-11-18T09:06:47Z</time>
      </trkpt>
      <trkpt lat="48.44252" lon="2.67295">
        <ele>142.2</ele>
        <time>2018-11-18T09:06:48Z</time>
      </trkpt>
      <trkpt lat="48.44251" lon="2.67293">
        <ele>142.3</ele>
        <time>2018-11-18T09:06:49Z</time>
      </trkpt>
      <trkpt lat="48.4425" lon="2.67292">
        <ele>142.3</ele>
        <time>2018-11-18T09:06:50Z</time>
      </trkpt>
      <trkpt lat="48.4425" lon="2.67291">
        <ele>142.3</ele>
        <time>2018-11-18T09:06:51Z</time>
      </trkpt>
      <trkpt lat="48.44249" lon="2.67289">
        <ele>142.1</ele>
        <time>2018-11-18T09:06:52Z</time>
      </trkpt>
      <trkpt lat="48.44249" lon="2.67289">
        <ele>142.1</ele>
        <time>2018-11-18T09:06:53Z</time>
      </trkpt>
      <trkpt lat="48.44249" lon="2.67289">
        <ele>142.1</ele>
        <time>2018-11-18T09:06:54Z</time>
      </trkpt>
      <trkpt lat="48.44246" lon="2.67282">
        <ele>141.9</ele>
        <time>2018-11-18T09:06:57Z</time>
      </trkpt>
      <trkpt lat="48.44246" lon="2.6728">
        <ele>142.1</ele>
        <time>2018-11-18T09:06:58Z</time>
      </trkpt>
      <trkpt lat="48.44245" lon="2.67278">
        <ele>142.1</ele>
        <time>2018-11-18T09:06:59Z</time>
      </trkpt>
      <trkpt lat="48.44245" lon="2.67276">
        <ele>142.2</ele>
        <time>2018-11-18T09:07:00Z</time>
      </trkpt>
      <trkpt lat="48.44245" lon="2.67275">
        <ele>142.2</ele>
        <time>2018-11-18T09:07:01Z</time>
      </trkpt>
      <trkpt lat="48.44245" lon="2.67274">
        <ele>142.2</ele>
        <time>2018-11-18T09:07:02Z</time>
      </trkpt>
      <trkpt lat="48.44245" lon="2.67273">
        <ele>142.2</ele>
        <time>2018-11-18T09:07:03Z</time>
      </trkpt>
      <trkpt lat="48.44245" lon="2.67272">
        <ele>142.2</ele>
        <time>2018-11-18T09:07:04Z</time>
      </trkpt>
      <trkpt lat="48.44245" lon="2.67272">
        <ele>142.2</ele>
        <time>2018-11-18T09:07:05Z</time>
      </trkpt>
      <trkpt lat="48.44245" lon="2.67272">
        <ele>142.2</ele>
        <time>2018-11-18T09:07:06Z</time>
      </trkpt>
      <trkpt lat="48.44245" lon="2.67269">
        <ele>142.3</ele>
        <time>2018-11-18T09:07:43Z</time>
      </trkpt>
      <trkpt lat="48.44245" lon="2.67268">
        <ele>142.4</ele>
        <time>2018-11-18T09:07:44Z</time>
      </trkpt>
      <trkpt lat="48.44244" lon="2.67266">
        <ele>142.4</ele>
        <time>2018-11-18T09:07:45Z</time>
      </trkpt>
      <trkpt lat="48.44244" lon="2.67264">
        <ele>142.3</ele>
        <time>2018-11-18T09:07:46Z</time>
      </trkpt>
      <trkpt lat="48.44243" lon="2.67261">
        <ele>142.3</ele>
        <time>2018-11-18T09:07:47Z</time>
      </trkpt>
      <trkpt lat="48.44243" lon="2.67258">
        <ele>142.3</ele>
        <time>2018-11-18T09:07:48Z</time>
      </trkpt>
      <trkpt lat="48.44242" lon="2.67256">
        <ele>142.3</ele>
        <time>2018-11-18T09:07:49Z</time>
      </trkpt>
      <trkpt lat="48.44242" lon="2.67254">
        <ele>142.4</ele>
        <time>2018-11-18T09:07:50Z</time>
      </trkpt>
      <trkpt lat="48.44242" lon="2.67251">
        <ele>142.4</ele>
        <time>2018-11-18T09:07:51Z</time>
      </trkpt>
      <trkpt lat="48.44241" lon="2.67248">
        <ele>142.5</ele>
        <time>2018-11-18T09:07:52Z</time>
      </trkpt>
      <trkpt lat="48.44242" lon="2.67245">
        <ele>142.6</ele>
        <time>2018-11-18T09:07:53Z</time>
      </trkpt>
      <trkpt lat="48.44242" lon="2.67242">
        <ele>142.6</ele>
        <time>2018-11-18T09:07:54Z</time>
      </trkpt>
      <trkpt lat="48.44243" lon="2.67239">
        <ele>142.6</ele>
        <time>2018-11-18T09:07:55Z</time>
      </trkpt>
      <trkpt lat="48.44244" lon="2.67236">
        <ele>142.7</ele>
        <time>2018-11-18T09:07:56Z</time>
      </trkpt>
      <trkpt lat="48.44244" lon="2.67233">
        <ele>142.8</ele>
        <time>2018-11-18T09:07:57Z</time>
      </trkpt>
      <trkpt lat="48.44244" lon="2.67231">
        <ele>142.8</ele>
        <time>2018-11-18T09:07:58Z</time>
      </trkpt>
      <trkpt lat="48.44244" lon="2.67229">
        <ele>142.8</ele>
        <time>2018-11-18T09:07:59Z</time>
      </trkpt>
      <trkpt lat="48.44243" lon="2.67228">
        <ele>142.8</ele>
        <time>2018-11-18T09:08:00Z</time>
      </trkpt>
      <trkpt lat="48.44243" lon="2.67227">
        <ele>142.8</ele>
        <time>2018-11-18T09:08:01Z</time>
      </trkpt>
      <trkpt lat="48.44242" lon="2.67226">
        <ele>142.8</ele>
        <time>2018-11-18T09:08:02Z</time>
      </trkpt>
      <trkpt lat="48.44242" lon="2.67226">
        <ele>142.8</ele>
        <time>2018-11-18T09:08:03Z</time>
      </trkpt>
      <trkpt lat="48.44241" lon="2.67225">
        <ele>142.9</ele>
        <time>2018-11-18T09:08:04Z</time>
      </trkpt>
      <trkpt lat="48.44241" lon="2.67225">
        <ele>142.9</ele>
        <time>2018-11-18T09:08:05Z</time>
      </trkpt>
      <trkpt lat="48.44241" lon="2.67224">
        <ele>142.8</ele>
        <time>2018-11-18T09:08:06Z</time>
      </trkpt>
      <trkpt lat="48.44241" lon="2.67224">
        <ele>142.8</ele>
        <time>2018-11-18T09:08:07Z</time>
      </trkpt>
      <trkpt lat="48.44241" lon="2.67224">
        <ele>142.7</ele>
        <time>2018-11-18T09:08:08Z</time>
      </trkpt>
      <trkpt lat="48.44241" lon="2.67224">
        <ele>142.7</ele>
        <time>2018-11-18T09:08:09Z</time>
      </trkpt>
      <trkpt lat="48.4424" lon="2.67222">
        <ele>142.7</ele>
        <time>2018-11-18T09:08:12Z</time>
      </trkpt>
      <trkpt lat="48.4424" lon="2.67221">
        <ele>142.7</ele>
        <time>2018-11-18T09:08:13Z</time>
      </trkpt>
      <trkpt lat="48.4424" lon="2.67221">
        <ele>142.7</ele>
        <time>2018-11-18T09:08:14Z</time>
      </trkpt>
      <trkpt lat="48.44239" lon="2.67221">
        <ele>142.7</ele>
        <time>2018-11-18T09:08:15Z</time>
      </trkpt>
      <trkpt lat="48.44239" lon="2.67222">
        <ele>142.7</ele>
        <time>2018-11-18T09:08:16Z</time>
      </trkpt>
      <trkpt lat="48.44238" lon="2.67222">
        <ele>142.7</ele>
        <time>2018-11-18T09:08:17Z</time>
      </trkpt>
      <trkpt lat="48.44235" lon="2.67222">
        <ele>142.5</ele>
        <time>2018-11-18T09:08:24Z</time>
      </trkpt>
      <trkpt lat="48.44234" lon="2.67221">
        <ele>142.5</ele>
        <time>2018-11-18T09:08:25Z</time>
      </trkpt>
      <trkpt lat="48.44234" lon="2.67221">
        <ele>142.6</ele>
        <time>2018-11-18T09:08:26Z</time>
      </trkpt>
      <trkpt lat="48.44233" lon="2.6722">
        <ele>142.5</ele>
        <time>2018-11-18T09:08:27Z</time>
      </trkpt>
      <trkpt lat="48.44233" lon="2.6722">
        <ele>142.5</ele>
        <time>2018-11-18T09:08:28Z</time>
      </trkpt>
      <trkpt lat="48.44233" lon="2.6722">
        <ele>142.5</ele>
        <time>2018-11-18T09:08:29Z</time>
      </trkpt>
      <trkpt lat="48.4423" lon="2.67209">
        <ele>142.6</ele>
        <time>2018-11-18T09:08:42Z</time>
      </trkpt>
      <trkpt lat="48.4423" lon="2.67207">
        <ele>142.6</ele>
        <time>2018-11-18T09:08:43Z</time>
      </trkpt>
      <trkpt lat="48.4423" lon="2.67204">
        <ele>142.7</ele>
        <time>2018-11-18T09:08:44Z</time>
      </trkpt>
      <trkpt lat="48.44231" lon="2.67201">
        <ele>142.7</ele>
        <time>2018-11-18T09:08:45Z</time>
      </trkpt>
      <trkpt lat="48.44232" lon="2.67198">
        <ele>142.7</ele>
        <time>2018-11-18T09:08:46Z</time>
      </trkpt>
      <trkpt lat="48.44233" lon="2.67196">
        <ele>142.8</ele>
        <time>2018-11-18T09:08:47Z</time>
      </trkpt>
      <trkpt lat="48.44234" lon="2.67194">
        <ele>142.8</ele>
        <time>2018-11-18T09:08:48Z</time>
      </trkpt>
      <trkpt lat="48.44235" lon="2.67192">
        <ele>142.9</ele>
        <time>2018-11-18T09:08:49Z</time>
      </trkpt>
      <trkpt lat="48.44236" lon="2.67191">
        <ele>142.9</ele>
        <time>2018-11-18T09:08:50Z</time>
      </trkpt>
      <trkpt lat="48.44237" lon="2.67189">
        <ele>143</ele>
        <time>2018-11-18T09:08:51Z</time>
      </trkpt>
      <trkpt lat="48.44238" lon="2.67188">
        <ele>143</ele>
        <time>2018-11-18T09:08:52Z</time>
      </trkpt>
      <trkpt lat="48.44239" lon="2.67187">
        <ele>143</ele>
        <time>2018-11-18T09:08:53Z</time>
      </trkpt>
      <trkpt lat="48.4424" lon="2.67186">
        <ele>143.1</ele>
        <time>2018-11-18T09:08:54Z</time>
      </trkpt>
      <trkpt lat="48.44241" lon="2.67185">
        <ele>143.2</ele>
        <time>2018-11-18T09:08:55Z</time>
      </trkpt>
      <trkpt lat="48.44243" lon="2.67184">
        <ele>143.2</ele>
        <time>2018-11-18T09:08:56Z</time>
      </trkpt>
      <trkpt lat="48.44244" lon="2.67183">
        <ele>143.2</ele>
        <time>2018-11-18T09:08:57Z</time>
      </trkpt>
      <trkpt lat="48.44246" lon="2.67182">
        <ele>143.3</ele>
        <time>2018-11-18T09:08:58Z</time>
      </trkpt>
      <trkpt lat="48.44248" lon="2.67181">
        <ele>143.3</ele>
        <time>2018-11-18T09:08:59Z</time>
      </trkpt>
      <trkpt lat="48.44249" lon="2.6718">
        <ele>143.3</ele>
        <time>2018-11-18T09:09:00Z</time>
      </trkpt>
      <trkpt lat="48.44251" lon="2.6718">
        <ele>143.3</ele>
        <time>2018-11-18T09:09:01Z</time>
      </trkpt>
      <trkpt lat="48.44253" lon="2.67179">
        <ele>143.3</ele>
        <time>2018-11-18T09:09:02Z</time>
      </trkpt>
      <trkpt lat="48.44254" lon="2.67176">
        <ele>143.4</ele>
        <time>2018-11-18T09:09:03Z</time>
      </trkpt>
      <trkpt lat="48.44256" lon="2.67173">
        <ele>143.4</ele>
        <time>2018-11-18T09:09:04Z</time>
      </trkpt>
      <trkpt lat="48.44256" lon="2.6717">
        <ele>143.4</ele>
        <time>2018-11-18T09:09:05Z</time>
      </trkpt>
      <trkpt lat="48.44257" lon="2.67168">
        <ele>143.4</ele>
        <time>2018-11-18T09:09:06Z</time>
      </trkpt>
      <trkpt lat="48.44258" lon="2.67165">
        <ele>143.5</ele>
        <time>2018-11-18T09:09:07Z</time>
      </trkpt>
      <trkpt lat="48.44258" lon="2.67163">
        <ele>143.5</ele>
        <time>2018-11-18T09:09:08Z</time>
      </trkpt>
      <trkpt lat="48.44259" lon="2.67161">
        <ele>143.7</ele>
        <time>2018-11-18T09:09:09Z</time>
      </trkpt>
      <trkpt lat="48.44259" lon="2.67158">
        <ele>143.9</ele>
        <time>2018-11-18T09:09:10Z</time>
      </trkpt>
      <trkpt lat="48.4426" lon="2.67156">
        <ele>144.1</ele>
        <time>2018-11-18T09:09:11Z</time>
      </trkpt>
      <trkpt lat="48.44261" lon="2.67154">
        <ele>144.2</ele>
        <time>2018-11-18T09:09:12Z</time>
      </trkpt>
      <trkpt lat="48.44261" lon="2.67152">
        <ele>144.4</ele>
        <time>2018-11-18T09:09:13Z</time>
      </trkpt>
      <trkpt lat="48.44262" lon="2.67149">
        <ele>144.6</ele>
        <time>2018-11-18T09:09:14Z</time>
      </trkpt>
      <trkpt lat="48.44263" lon="2.67146">
        <ele>144.8</ele>
        <time>2018-11-18T09:09:15Z</time>
      </trkpt>
      <trkpt lat="48.44265" lon="2.67143">
        <ele>145.1</ele>
        <time>2018-11-18T09:09:16Z</time>
      </trkpt>
      <trkpt lat="48.44266" lon="2.67139">
        <ele>145.4</ele>
        <time>2018-11-18T09:09:17Z</time>
      </trkpt>
      <trkpt lat="48.44268" lon="2.67137">
        <ele>145.6</ele>
        <time>2018-11-18T09:09:18Z</time>
      </trkpt>
      <trkpt lat="48.4427" lon="2.67134">
        <ele>145.7</ele>
        <time>2018-11-18T09:09:19Z</time>
      </trkpt>
      <trkpt lat="48.44271" lon="2.67131">
        <ele>145.9</ele>
        <time>2018-11-18T09:09:20Z</time>
      </trkpt>
      <trkpt lat="48.44272" lon="2.67128">
        <ele>146</ele>
        <time>2018-11-18T09:09:21Z</time>
      </trkpt>
      <trkpt lat="48.44274" lon="2.67127">
        <ele>146</ele>
        <time>2018-11-18T09:09:22Z</time>
      </trkpt>
      <trkpt lat="48.44275" lon="2.67125">
        <ele>146.1</ele>
        <time>2018-11-18T09:09:23Z</time>
      </trkpt>
      <trkpt lat="48.44277" lon="2.67123">
        <ele>146.2</ele>
        <time>2018-11-18T09:09:24Z</time>
      </trkpt>
      <trkpt lat="48.44278" lon="2.67122">
        <ele>146.2</ele>
        <time>2018-11-18T09:09:25Z</time>
      </trkpt>
      <trkpt lat="48.44279" lon="2.67121">
        <ele>146.2</ele>
        <time>2018-11-18T09:09:26Z</time>
      </trkpt>
      <trkpt lat="48.4428" lon="2.6712">
        <ele>146.3</ele>
        <time>2018-11-18T09:09:27Z</time>
      </trkpt>
      <trkpt lat="48.4428" lon="2.67119">
        <ele>146.3</ele>
        <time>2018-11-18T09:09:28Z</time>
      </trkpt>
      <trkpt lat="48.44281" lon="2.67119">
        <ele>146.3</ele>
        <time>2018-11-18T09:09:29Z</time>
      </trkpt>
      <trkpt lat="48.44282" lon="2.67118">
        <ele>146.3</ele>
        <time>2018-11-18T09:09:30Z</time>
      </trkpt>
      <trkpt lat="48.44282" lon="2.67118">
        <ele>146.3</ele>
        <time>2018-11-18T09:09:31Z</time>
      </trkpt>
      <trkpt lat="48.44282" lon="2.67118">
        <ele>146.3</ele>
        <time>2018-11-18T09:09:32Z</time>
      </trkpt>
      <trkpt lat="48.44285" lon="2.67116">
        <ele>146.4</ele>
        <time>2018-11-18T09:09:34Z</time>
      </trkpt>
      <trkpt lat="48.44285" lon="2.67114">
        <ele>146.4</ele>
        <time>2018-11-18T09:09:35Z</time>
      </trkpt>
      <trkpt lat="48.44286" lon="2.67113">
        <ele>146.5</ele>
        <time>2018-11-18T09:09:36Z</time>
      </trkpt>
      <trkpt lat="48.44286" lon="2.67112">
        <ele>146.5</ele>
        <time>2018-11-18T09:09:37Z</time>
      </trkpt>
      <trkpt lat="48.44287" lon="2.67111">
        <ele>146.5</ele>
        <time>2018-11-18T09:09:38Z</time>
      </trkpt>
      <trkpt lat="48.44288" lon="2.6711">
        <ele>146.5</ele>
        <time>2018-11-18T09:09:39Z</time>
      </trkpt>
      <trkpt lat="48.44289" lon="2.67108">
        <ele>146.6</ele>
        <time>2018-11-18T09:09:40Z</time>
      </trkpt>
      <trkpt lat="48.4429" lon="2.67105">
        <ele>146.6</ele>
        <time>2018-11-18T09:09:41Z</time>
      </trkpt>
      <trkpt lat="48.4429" lon="2.67103">
        <ele>146.7</ele>
        <time>2018-11-18T09:09:42Z</time>
      </trkpt>
      <trkpt lat="48.44291" lon="2.671">
        <ele>146.7</ele>
        <time>2018-11-18T09:09:43Z</time>
      </trkpt>
      <trkpt lat="48.44293" lon="2.67097">
        <ele>146.8</ele>
        <time>2018-11-18T09:09:44Z</time>
      </trkpt>
      <trkpt lat="48.44294" lon="2.67092">
        <ele>146.8</ele>
        <time>2018-11-18T09:09:45Z</time>
      </trkpt>
      <trkpt lat="48.44296" lon="2.67088">
        <ele>146.9</ele>
        <time>2018-11-18T09:09:46Z</time>
      </trkpt>
      <trkpt lat="48.44298" lon="2.67085">
        <ele>146.9</ele>
        <time>2018-11-18T09:09:47Z</time>
      </trkpt>
      <trkpt lat="48.44301" lon="2.67081">
        <ele>146.9</ele>
        <time>2018-11-18T09:09:48Z</time>
      </trkpt>
      <trkpt lat="48.44303" lon="2.67077">
        <ele>146.9</ele>
        <time>2018-11-18T09:09:49Z</time>
      </trkpt>
      <trkpt lat="48.44305" lon="2.67074">
        <ele>146.9</ele>
        <time>2018-11-18T09:09:50Z</time>
      </trkpt>
      <trkpt lat="48.44308" lon="2.67071">
        <ele>146.9</ele>
        <time>2018-11-18T09:09:51Z</time>
      </trkpt>
      <trkpt lat="48.4431" lon="2.67069">
        <ele>146.8</ele>
        <time>2018-11-18T09:09:52Z</time>
      </trkpt>
      <trkpt lat="48.44312" lon="2.67067">
        <ele>146.8</ele>
        <time>2018-11-18T09:09:53Z</time>
      </trkpt>
      <trkpt lat="48.44314" lon="2.67065">
        <ele>146.7</ele>
        <time>2018-11-18T09:09:54Z</time>
      </trkpt>
      <trkpt lat="48.44316" lon="2.67063">
        <ele>146.7</ele>
        <time>2018-11-18T09:09:55Z</time>
      </trkpt>
      <trkpt lat="48.44319" lon="2.67061">
        <ele>146.6</ele>
        <time>2018-11-18T09:09:56Z</time>
      </trkpt>
      <trkpt lat="48.44321" lon="2.6706">
        <ele>146.5</ele>
        <time>2018-11-18T09:09:57Z</time>
      </trkpt>
      <trkpt lat="48.44323" lon="2.67059">
        <ele>146.5</ele>
        <time>2018-11-18T09:09:58Z</time>
      </trkpt>
      <trkpt lat="48.44325" lon="2.67058">
        <ele>146.4</ele>
        <time>2018-11-18T09:09:59Z</time>
      </trkpt>
      <trkpt lat="48.44327" lon="2.67058">
        <ele>146.3</ele>
        <time>2018-11-18T09:10:00Z</time>
      </trkpt>
      <trkpt lat="48.44329" lon="2.67057">
        <ele>146.2</ele>
        <time>2018-11-18T09:10:01Z</time>
      </trkpt>
      <trkpt lat="48.44331" lon="2.67057">
        <ele>146.1</ele>
        <time>2018-11-18T09:10:02Z</time>
      </trkpt>
      <trkpt lat="48.44333" lon="2.67057">
        <ele>146.1</ele>
        <time>2018-11-18T09:10:03Z</time>
      </trkpt>
      <trkpt lat="48.44335" lon="2.67057">
        <ele>146</ele>
        <time>2018-11-18T09:10:04Z</time>
      </trkpt>
      <trkpt lat="48.44337" lon="2.67057">
        <ele>145.9</ele>
        <time>2018-11-18T09:10:05Z</time>
      </trkpt>
      <trkpt lat="48.44339" lon="2.67055">
        <ele>145.8</ele>
        <time>2018-11-18T09:10:06Z</time>
      </trkpt>
      <trkpt lat="48.44341" lon="2.67054">
        <ele>145.7</ele>
        <time>2018-11-18T09:10:07Z</time>
      </trkpt>
      <trkpt lat="48.44343" lon="2.67052">
        <ele>145.6</ele>
        <time>2018-11-18T09:10:08Z</time>
      </trkpt>
      <trkpt lat="48.44344" lon="2.67049">
        <ele>145.5</ele>
        <time>2018-11-18T09:10:09Z</time>
      </trkpt>
      <trkpt lat="48.44345" lon="2.67046">
        <ele>145.4</ele>
        <time>2018-11-18T09:10:10Z</time>
      </trkpt>
      <trkpt lat="48.44346" lon="2.67042">
        <ele>145.4</ele>
        <time>2018-11-18T09:10:11Z</time>
      </trkpt>
      <trkpt lat="48.44347" lon="2.67038">
        <ele>145.3</ele>
        <time>2018-11-18T09:10:12Z</time>
      </trkpt>
      <trkpt lat="48.44347" lon="2.67034">
        <ele>145.2</ele>
        <time>2018-11-18T09:10:13Z</time>
      </trkpt>
      <trkpt lat="48.44346" lon="2.6703">
        <ele>144.5</ele>
        <time>2018-11-18T09:10:14Z</time>
      </trkpt>
      <trkpt lat="48.44347" lon="2.67027">
        <ele>144.4</ele>
        <time>2018-11-18T09:10:15Z</time>
      </trkpt>
      <trkpt lat="48.44346" lon="2.67023">
        <ele>144.2</ele>
        <time>2018-11-18T09:10:16Z</time>
      </trkpt>
      <trkpt lat="48.44346" lon="2.67021">
        <ele>144.2</ele>
        <time>2018-11-18T09:10:17Z</time>
      </trkpt>
      <trkpt lat="48.44344" lon="2.67018">
        <ele>144.1</ele>
        <time>2018-11-18T09:10:18Z</time>
      </trkpt>
      <trkpt lat="48.44342" lon="2.67016">
        <ele>144</ele>
        <time>2018-11-18T09:10:19Z</time>
      </trkpt>
      <trkpt lat="48.4434" lon="2.67015">
        <ele>144</ele>
        <time>2018-11-18T09:10:20Z</time>
      </trkpt>
      <trkpt lat="48.44338" lon="2.67014">
        <ele>143.9</ele>
        <time>2018-11-18T09:10:21Z</time>
      </trkpt>
      <trkpt lat="48.44336" lon="2.67012">
        <ele>143.9</ele>
        <time>2018-11-18T09:10:22Z</time>
      </trkpt>
      <trkpt lat="48.44334" lon="2.67011">
        <ele>144</ele>
        <time>2018-11-18T09:10:23Z</time>
      </trkpt>
      <trkpt lat="48.44332" lon="2.6701">
        <ele>144</ele>
        <time>2018-11-18T09:10:24Z</time>
      </trkpt>
      <trkpt lat="48.4433" lon="2.67011">
        <ele>144</ele>
        <time>2018-11-18T09:10:25Z</time>
      </trkpt>
      <trkpt lat="48.44328" lon="2.67012">
        <ele>144</ele>
        <time>2018-11-18T09:10:26Z</time>
      </trkpt>
      <trkpt lat="48.44327" lon="2.67013">
        <ele>144</ele>
        <time>2018-11-18T09:10:27Z</time>
      </trkpt>
      <trkpt lat="48.44326" lon="2.67015">
        <ele>144</ele>
        <time>2018-11-18T09:10:28Z</time>
      </trkpt>
      <trkpt lat="48.44325" lon="2.67017">
        <ele>144</ele>
        <time>2018-11-18T09:10:29Z</time>
      </trkpt>
      <trkpt lat="48.44324" lon="2.6702">
        <ele>144</ele>
        <time>2018-11-18T09:10:30Z</time>
      </trkpt>
      <trkpt lat="48.44323" lon="2.67022">
        <ele>143.9</ele>
        <time>2018-11-18T09:10:31Z</time>
      </trkpt>
      <trkpt lat="48.44322" lon="2.67025">
        <ele>143.9</ele>
        <time>2018-11-18T09:10:32Z</time>
      </trkpt>
      <trkpt lat="48.44321" lon="2.67026">
        <ele>143.9</ele>
        <time>2018-11-18T09:10:33Z</time>
      </trkpt>
      <trkpt lat="48.4432" lon="2.67028">
        <ele>143.9</ele>
        <time>2018-11-18T09:10:34Z</time>
      </trkpt>
      <trkpt lat="48.44319" lon="2.6703">
        <ele>143.8</ele>
        <time>2018-11-18T09:10:35Z</time>
      </trkpt>
      <trkpt lat="48.44317" lon="2.67032">
        <ele>143.8</ele>
        <time>2018-11-18T09:10:36Z</time>
      </trkpt>
      <trkpt lat="48.44315" lon="2.67033">
        <ele>143.8</ele>
        <time>2018-11-18T09:10:37Z</time>
      </trkpt>
      <trkpt lat="48.44313" lon="2.67035">
        <ele>143.8</ele>
        <time>2018-11-18T09:10:38Z</time>
      </trkpt>
      <trkpt lat="48.44312" lon="2.67036">
        <ele>143.7</ele>
        <time>2018-11-18T09:10:39Z</time>
      </trkpt>
      <trkpt lat="48.44311" lon="2.67039">
        <ele>143.7</ele>
        <time>2018-11-18T09:10:40Z</time>
      </trkpt>
      <trkpt lat="48.4431" lon="2.67041">
        <ele>143.7</ele>
        <time>2018-11-18T09:10:41Z</time>
      </trkpt>
      <trkpt lat="48.44309" lon="2.67043">
        <ele>143.8</ele>
        <time>2018-11-18T09:10:42Z</time>
      </trkpt>
      <trkpt lat="48.44309" lon="2.67045">
        <ele>143.8</ele>
        <time>2018-11-18T09:10:43Z</time>
      </trkpt>
      <trkpt lat="48.44308" lon="2.67047">
        <ele>143.8</ele>
        <time>2018-11-18T09:10:44Z</time>
      </trkpt>
      <trkpt lat="48.44307" lon="2.6705">
        <ele>143.8</ele>
        <time>2018-11-18T09:10:45Z</time>
      </trkpt>
      <trkpt lat="48.44306" lon="2.67052">
        <ele>143.9</ele>
        <time>2018-11-18T09:10:46Z</time>
      </trkpt>
      <trkpt lat="48.44305" lon="2.67053">
        <ele>143.9</ele>
        <time>2018-11-18T09:10:47Z</time>
      </trkpt>
      <trkpt lat="48.44304" lon="2.67054">
        <ele>143.9</ele>
        <time>2018-11-18T09:10:48Z</time>
      </trkpt>
      <trkpt lat="48.44302" lon="2.67055">
        <ele>144</ele>
        <time>2018-11-18T09:10:49Z</time>
      </trkpt>
      <trkpt lat="48.443" lon="2.67055">
        <ele>144</ele>
        <time>2018-11-18T09:10:50Z</time>
      </trkpt>
      <trkpt lat="48.44299" lon="2.67055">
        <ele>144</ele>
        <time>2018-11-18T09:10:51Z</time>
      </trkpt>
      <trkpt lat="48.44298" lon="2.67054">
        <ele>144</ele>
        <time>2018-11-18T09:10:52Z</time>
      </trkpt>
      <trkpt lat="48.44296" lon="2.67052">
        <ele>144</ele>
        <time>2018-11-18T09:10:53Z</time>
      </trkpt>
      <trkpt lat="48.44295" lon="2.67051">
        <ele>144</ele>
        <time>2018-11-18T09:10:54Z</time>
      </trkpt>
      <trkpt lat="48.44293" lon="2.67051">
        <ele>143.9</ele>
        <time>2018-11-18T09:10:55Z</time>
      </trkpt>
      <trkpt lat="48.44291" lon="2.6705">
        <ele>143.9</ele>
        <time>2018-11-18T09:10:56Z</time>
      </trkpt>
      <trkpt lat="48.44289" lon="2.6705">
        <ele>143.8</ele>
        <time>2018-11-18T09:10:57Z</time>
      </trkpt>
      <trkpt lat="48.44287" lon="2.67051">
        <ele>143.8</ele>
        <time>2018-11-18T09:10:58Z</time>
      </trkpt>
      <trkpt lat="48.44285" lon="2.67052">
        <ele>143.7</ele>
        <time>2018-11-18T09:10:59Z</time>
      </trkpt>
      <trkpt lat="48.44282" lon="2.67052">
        <ele>143.7</ele>
        <time>2018-11-18T09:11:00Z</time>
      </trkpt>
      <trkpt lat="48.44281" lon="2.67051">
        <ele>143.6</ele>
        <time>2018-11-18T09:11:01Z</time>
      </trkpt>
      <trkpt lat="48.44279" lon="2.67049">
        <ele>143.5</ele>
        <time>2018-11-18T09:11:02Z</time>
      </trkpt>
      <trkpt lat="48.44278" lon="2.67047">
        <ele>143.4</ele>
        <time>2018-11-18T09:11:03Z</time>
      </trkpt>
      <trkpt lat="48.44276" lon="2.67044">
        <ele>143.3</ele>
        <time>2018-11-18T09:11:04Z</time>
      </trkpt>
      <trkpt lat="48.44275" lon="2.6704">
        <ele>143.2</ele>
        <time>2018-11-18T09:11:05Z</time>
      </trkpt>
      <trkpt lat="48.44274" lon="2.67037">
        <ele>143.1</ele>
        <time>2018-11-18T09:11:06Z</time>
      </trkpt>
      <trkpt lat="48.44273" lon="2.67034">
        <ele>143</ele>
        <time>2018-11-18T09:11:07Z</time>
      </trkpt>
      <trkpt lat="48.44272" lon="2.67031">
        <ele>143</ele>
        <time>2018-11-18T09:11:08Z</time>
      </trkpt>
      <trkpt lat="48.4427" lon="2.67029">
        <ele>142.9</ele>
        <time>2018-11-18T09:11:09Z</time>
      </trkpt>
      <trkpt lat="48.44269" lon="2.67026">
        <ele>142.9</ele>
        <time>2018-11-18T09:11:10Z</time>
      </trkpt>
      <trkpt lat="48.44268" lon="2.67024">
        <ele>142.9</ele>
        <time>2018-11-18T09:11:11Z</time>
      </trkpt>
      <trkpt lat="48.44266" lon="2.67023">
        <ele>142.9</ele>
        <time>2018-11-18T09:11:12Z</time>
      </trkpt>
      <trkpt lat="48.44264" lon="2.67023">
        <ele>142.8</ele>
        <time>2018-11-18T09:11:13Z</time>
      </trkpt>
      <trkpt lat="48.44261" lon="2.67024">
        <ele>142.8</ele>
        <time>2018-11-18T09:11:14Z</time>
      </trkpt>
      <trkpt lat="48.44259" lon="2.67025">
        <ele>142.8</ele>
        <time>2018-11-18T09:11:15Z</time>
      </trkpt>
      <trkpt lat="48.44257" lon="2.67025">
        <ele>142.7</ele>
        <time>2018-11-18T09:11:16Z</time>
      </trkpt>
      <trkpt lat="48.44256" lon="2.67024">
        <ele>142.6</ele>
        <time>2018-11-18T09:11:17Z</time>
      </trkpt>
      <trkpt lat="48.44255" lon="2.67021">
        <ele>142.6</ele>
        <time>2018-11-18T09:11:18Z</time>
      </trkpt>
      <trkpt lat="48.44254" lon="2.67017">
        <ele>142.4</ele>
        <time>2018-11-18T09:11:19Z</time>
      </trkpt>
      <trkpt lat="48.44253" lon="2.67014">
        <ele>142.3</ele>
        <time>2018-11-18T09:11:20Z</time>
      </trkpt>
      <trkpt lat="48.44253" lon="2.6701">
        <ele>142.1</ele>
        <time>2018-11-18T09:11:21Z</time>
      </trkpt>
      <trkpt lat="48.44251" lon="2.67007">
        <ele>141.9</ele>
        <time>2018-11-18T09:11:22Z</time>
      </trkpt>
      <trkpt lat="48.4425" lon="2.67005">
        <ele>141.7</ele>
        <time>2018-11-18T09:11:23Z</time>
      </trkpt>
      <trkpt lat="48.44248" lon="2.67004">
        <ele>141.5</ele>
        <time>2018-11-18T09:11:24Z</time>
      </trkpt>
      <trkpt lat="48.44245" lon="2.67003">
        <ele>141.2</ele>
        <time>2018-11-18T09:11:25Z</time>
      </trkpt>
      <trkpt lat="48.44242" lon="2.67003">
        <ele>140.9</ele>
        <time>2018-11-18T09:11:26Z</time>
      </trkpt>
      <trkpt lat="48.4424" lon="2.67003">
        <ele>140.7</ele>
        <time>2018-11-18T09:11:27Z</time>
      </trkpt>
      <trkpt lat="48.44238" lon="2.67003">
        <ele>140.5</ele>
        <time>2018-11-18T09:11:28Z</time>
      </trkpt>
      <trkpt lat="48.44236" lon="2.67003">
        <ele>140.3</ele>
        <time>2018-11-18T09:11:29Z</time>
      </trkpt>
      <trkpt lat="48.44234" lon="2.67005">
        <ele>140.1</ele>
        <time>2018-11-18T09:11:30Z</time>
      </trkpt>
      <trkpt lat="48.44232" lon="2.67006">
        <ele>139.9</ele>
        <time>2018-11-18T09:11:31Z</time>
      </trkpt>
      <trkpt lat="48.44231" lon="2.67008">
        <ele>139.8</ele>
        <time>2018-11-18T09:11:32Z</time>
      </trkpt>
      <trkpt lat="48.4423" lon="2.67009">
        <ele>139.7</ele>
        <time>2018-11-18T09:11:33Z</time>
      </trkpt>
      <trkpt lat="48.4423" lon="2.67011">
        <ele>139.6</ele>
        <time>2018-11-18T09:11:34Z</time>
      </trkpt>
      <trkpt lat="48.44229" lon="2.67013">
        <ele>139.5</ele>
        <time>2018-11-18T09:11:35Z</time>
      </trkpt>
      <trkpt lat="48.44229" lon="2.67014">
        <ele>139.5</ele>
        <time>2018-11-18T09:11:36Z</time>
      </trkpt>
      <trkpt lat="48.44228" lon="2.67016">
        <ele>139.4</ele>
        <time>2018-11-18T09:11:37Z</time>
      </trkpt>
      <trkpt lat="48.44228" lon="2.67018">
        <ele>139.4</ele>
        <time>2018-11-18T09:11:38Z</time>
      </trkpt>
      <trkpt lat="48.44228" lon="2.6702">
        <ele>139.4</ele>
        <time>2018-11-18T09:11:39Z</time>
      </trkpt>
      <trkpt lat="48.44227" lon="2.67022">
        <ele>139.4</ele>
        <time>2018-11-18T09:11:40Z</time>
      </trkpt>
      <trkpt lat="48.44227" lon="2.67025">
        <ele>141.3</ele>
        <time>2018-11-18T09:11:41Z</time>
      </trkpt>
      <trkpt lat="48.44227" lon="2.67028">
        <ele>141.4</ele>
        <time>2018-11-18T09:11:42Z</time>
      </trkpt>
      <trkpt lat="48.44227" lon="2.67031">
        <ele>141.4</ele>
        <time>2018-11-18T09:11:43Z</time>
      </trkpt>
      <trkpt lat="48.44228" lon="2.67033">
        <ele>141.5</ele>
        <time>2018-11-18T09:11:44Z</time>
      </trkpt>
      <trkpt lat="48.44228" lon="2.67035">
        <ele>141.6</ele>
        <time>2018-11-18T09:11:45Z</time>
      </trkpt>
      <trkpt lat="48.44228" lon="2.67036">
        <ele>141.6</ele>
        <time>2018-11-18T09:11:46Z</time>
      </trkpt>
      <trkpt lat="48.44229" lon="2.67038">
        <ele>141.7</ele>
        <time>2018-11-18T09:11:47Z</time>
      </trkpt>
      <trkpt lat="48.44229" lon="2.67038">
        <ele>141.7</ele>
        <time>2018-11-18T09:11:48Z</time>
      </trkpt>
      <trkpt lat="48.4423" lon="2.67039">
        <ele>141.8</ele>
        <time>2018-11-18T09:11:49Z</time>
      </trkpt>
      <trkpt lat="48.44231" lon="2.67041">
        <ele>141.9</ele>
        <time>2018-11-18T09:11:50Z</time>
      </trkpt>
      <trkpt lat="48.44232" lon="2.67042">
        <ele>141.9</ele>
        <time>2018-11-18T09:11:51Z</time>
      </trkpt>
      <trkpt lat="48.44232" lon="2.67045">
        <ele>142</ele>
        <time>2018-11-18T09:11:52Z</time>
      </trkpt>
      <trkpt lat="48.44232" lon="2.67047">
        <ele>141.9</ele>
        <time>2018-11-18T09:11:53Z</time>
      </trkpt>
      <trkpt lat="48.44231" lon="2.67049">
        <ele>141.9</ele>
        <time>2018-11-18T09:11:54Z</time>
      </trkpt>
      <trkpt lat="48.4423" lon="2.67051">
        <ele>141.8</ele>
        <time>2018-11-18T09:11:55Z</time>
      </trkpt>
      <trkpt lat="48.44229" lon="2.67052">
        <ele>141.8</ele>
        <time>2018-11-18T09:11:56Z</time>
      </trkpt>
      <trkpt lat="48.44227" lon="2.67052">
        <ele>141.8</ele>
        <time>2018-11-18T09:11:57Z</time>
      </trkpt>
      <trkpt lat="48.44226" lon="2.67053">
        <ele>141.7</ele>
        <time>2018-11-18T09:11:58Z</time>
      </trkpt>
      <trkpt lat="48.44225" lon="2.67052">
        <ele>141.7</ele>
        <time>2018-11-18T09:11:59Z</time>
      </trkpt>
      <trkpt lat="48.44224" lon="2.67051">
        <ele>141.6</ele>
        <time>2018-11-18T09:12:00Z</time>
      </trkpt>
      <trkpt lat="48.44222" lon="2.67049">
        <ele>141.6</ele>
        <time>2018-11-18T09:12:01Z</time>
      </trkpt>
      <trkpt lat="48.44221" lon="2.67048">
        <ele>141.5</ele>
        <time>2018-11-18T09:12:02Z</time>
      </trkpt>
      <trkpt lat="48.4422" lon="2.67046">
        <ele>141.5</ele>
        <time>2018-11-18T09:12:03Z</time>
      </trkpt>
      <trkpt lat="48.44219" lon="2.67044">
        <ele>141.4</ele>
        <time>2018-11-18T09:12:04Z</time>
      </trkpt>
      <trkpt lat="48.44218" lon="2.67041">
        <ele>141.3</ele>
        <time>2018-11-18T09:12:05Z</time>
      </trkpt>
      <trkpt lat="48.44217" lon="2.67039">
        <ele>141.3</ele>
        <time>2018-11-18T09:12:06Z</time>
      </trkpt>
      <trkpt lat="48.44216" lon="2.67037">
        <ele>141.2</ele>
        <time>2018-11-18T09:12:07Z</time>
      </trkpt>
      <trkpt lat="48.44216" lon="2.67035">
        <ele>141.2</ele>
        <time>2018-11-18T09:12:08Z</time>
      </trkpt>
      <trkpt lat="48.44214" lon="2.67033">
        <ele>141.2</ele>
        <time>2018-11-18T09:12:09Z</time>
      </trkpt>
      <trkpt lat="48.44213" lon="2.67031">
        <ele>141.1</ele>
        <time>2018-11-18T09:12:10Z</time>
      </trkpt>
      <trkpt lat="48.44212" lon="2.67029">
        <ele>141.1</ele>
        <time>2018-11-18T09:12:11Z</time>
      </trkpt>
      <trkpt lat="48.44212" lon="2.67025">
        <ele>141</ele>
        <time>2018-11-18T09:12:12Z</time>
      </trkpt>
      <trkpt lat="48.44212" lon="2.67022">
        <ele>141</ele>
        <time>2018-11-18T09:12:13Z</time>
      </trkpt>
      <trkpt lat="48.44212" lon="2.6702">
        <ele>140.9</ele>
        <time>2018-11-18T09:12:14Z</time>
      </trkpt>
      <trkpt lat="48.44212" lon="2.67018">
        <ele>140.9</ele>
        <time>2018-11-18T09:12:15Z</time>
      </trkpt>
      <trkpt lat="48.44211" lon="2.67015">
        <ele>140.9</ele>
        <time>2018-11-18T09:12:16Z</time>
      </trkpt>
      <trkpt lat="48.4421" lon="2.67013">
        <ele>140.8</ele>
        <time>2018-11-18T09:12:17Z</time>
      </trkpt>
      <trkpt lat="48.44209" lon="2.67011">
        <ele>140.8</ele>
        <time>2018-11-18T09:12:18Z</time>
      </trkpt>
      <trkpt lat="48.44208" lon="2.67009">
        <ele>140.7</ele>
        <time>2018-11-18T09:12:19Z</time>
      </trkpt>
      <trkpt lat="48.44206" lon="2.67007">
        <ele>140.7</ele>
        <time>2018-11-18T09:12:20Z</time>
      </trkpt>
      <trkpt lat="48.44205" lon="2.67005">
        <ele>140.7</ele>
        <time>2018-11-18T09:12:21Z</time>
      </trkpt>
      <trkpt lat="48.44204" lon="2.67002">
        <ele>140.6</ele>
        <time>2018-11-18T09:12:22Z</time>
      </trkpt>
      <trkpt lat="48.44203" lon="2.66999">
        <ele>140.6</ele>
        <time>2018-11-18T09:12:23Z</time>
      </trkpt>
      <trkpt lat="48.44202" lon="2.66997">
        <ele>140.5</ele>
        <time>2018-11-18T09:12:24Z</time>
      </trkpt>
      <trkpt lat="48.44201" lon="2.66994">
        <ele>140.5</ele>
        <time>2018-11-18T09:12:25Z</time>
      </trkpt>
      <trkpt lat="48.44201" lon="2.66992">
        <ele>140.6</ele>
        <time>2018-11-18T09:12:26Z</time>
      </trkpt>
      <trkpt lat="48.44201" lon="2.66989">
        <ele>140.6</ele>
        <time>2018-11-18T09:12:27Z</time>
      </trkpt>
      <trkpt lat="48.442" lon="2.66987">
        <ele>140.6</ele>
        <time>2018-11-18T09:12:28Z</time>
      </trkpt>
      <trkpt lat="48.44199" lon="2.66985">
        <ele>140.6</ele>
        <time>2018-11-18T09:12:29Z</time>
      </trkpt>
      <trkpt lat="48.44199" lon="2.66983">
        <ele>140.7</ele>
        <time>2018-11-18T09:12:30Z</time>
      </trkpt>
      <trkpt lat="48.44198" lon="2.6698">
        <ele>140.7</ele>
        <time>2018-11-18T09:12:31Z</time>
      </trkpt>
      <trkpt lat="48.44197" lon="2.66978">
        <ele>140.7</ele>
        <time>2018-11-18T09:12:32Z</time>
      </trkpt>
      <trkpt lat="48.44195" lon="2.66976">
        <ele>140.7</ele>
        <time>2018-11-18T09:12:33Z</time>
      </trkpt>
      <trkpt lat="48.44194" lon="2.66975">
        <ele>140.7</ele>
        <time>2018-11-18T09:12:34Z</time>
      </trkpt>
      <trkpt lat="48.44194" lon="2.66973">
        <ele>140.8</ele>
        <time>2018-11-18T09:12:35Z</time>
      </trkpt>
      <trkpt lat="48.44193" lon="2.66969">
        <ele>140.8</ele>
        <time>2018-11-18T09:12:36Z</time>
      </trkpt>
      <trkpt lat="48.44193" lon="2.66966">
        <ele>140.9</ele>
        <time>2018-11-18T09:12:37Z</time>
      </trkpt>
      <trkpt lat="48.44194" lon="2.66963">
        <ele>140.9</ele>
        <time>2018-11-18T09:12:38Z</time>
      </trkpt>
      <trkpt lat="48.44193" lon="2.6696">
        <ele>141</ele>
        <time>2018-11-18T09:12:39Z</time>
      </trkpt>
      <trkpt lat="48.44192" lon="2.66956">
        <ele>141</ele>
        <time>2018-11-18T09:12:40Z</time>
      </trkpt>
      <trkpt lat="48.44191" lon="2.66953">
        <ele>141.1</ele>
        <time>2018-11-18T09:12:41Z</time>
      </trkpt>
      <trkpt lat="48.44191" lon="2.66949">
        <ele>141.1</ele>
        <time>2018-11-18T09:12:42Z</time>
      </trkpt>
      <trkpt lat="48.4419" lon="2.66946">
        <ele>141.2</ele>
        <time>2018-11-18T09:12:43Z</time>
      </trkpt>
      <trkpt lat="48.44189" lon="2.66944">
        <ele>141.3</ele>
        <time>2018-11-18T09:12:44Z</time>
      </trkpt>
      <trkpt lat="48.44188" lon="2.66941">
        <ele>141.3</ele>
        <time>2018-11-18T09:12:45Z</time>
      </trkpt>
      <trkpt lat="48.44186" lon="2.66939">
        <ele>141.4</ele>
        <time>2018-11-18T09:12:46Z</time>
      </trkpt>
      <trkpt lat="48.44185" lon="2.66936">
        <ele>141.4</ele>
        <time>2018-11-18T09:12:47Z</time>
      </trkpt>
      <trkpt lat="48.44184" lon="2.66933">
        <ele>141.5</ele>
        <time>2018-11-18T09:12:48Z</time>
      </trkpt>
      <trkpt lat="48.44183" lon="2.6693">
        <ele>141.5</ele>
        <time>2018-11-18T09:12:49Z</time>
      </trkpt>
      <trkpt lat="48.44182" lon="2.66927">
        <ele>141.5</ele>
        <time>2018-11-18T09:12:50Z</time>
      </trkpt>
      <trkpt lat="48.44181" lon="2.66925">
        <ele>141.6</ele>
        <time>2018-11-18T09:12:51Z</time>
      </trkpt>
      <trkpt lat="48.44179" lon="2.66922">
        <ele>141.5</ele>
        <time>2018-11-18T09:12:52Z</time>
      </trkpt>
      <trkpt lat="48.44177" lon="2.6692">
        <ele>141.5</ele>
        <time>2018-11-18T09:12:53Z</time>
      </trkpt>
      <trkpt lat="48.44175" lon="2.66917">
        <ele>141.5</ele>
        <time>2018-11-18T09:12:54Z</time>
      </trkpt>
      <trkpt lat="48.44173" lon="2.66915">
        <ele>141.4</ele>
        <time>2018-11-18T09:12:55Z</time>
      </trkpt>
      <trkpt lat="48.4417" lon="2.66912">
        <ele>141.3</ele>
        <time>2018-11-18T09:12:56Z</time>
      </trkpt>
      <trkpt lat="48.44167" lon="2.6691">
        <ele>141.2</ele>
        <time>2018-11-18T09:12:57Z</time>
      </trkpt>
      <trkpt lat="48.44165" lon="2.66908">
        <ele>141.1</ele>
        <time>2018-11-18T09:12:58Z</time>
      </trkpt>
      <trkpt lat="48.44162" lon="2.66906">
        <ele>140.8</ele>
        <time>2018-11-18T09:12:59Z</time>
      </trkpt>
      <trkpt lat="48.44159" lon="2.66904">
        <ele>140.9</ele>
        <time>2018-11-18T09:13:00Z</time>
      </trkpt>
      <trkpt lat="48.44157" lon="2.66902">
        <ele>140.9</ele>
        <time>2018-11-18T09:13:01Z</time>
      </trkpt>
      <trkpt lat="48.44154" lon="2.669">
        <ele>140.9</ele>
        <time>2018-11-18T09:13:02Z</time>
      </trkpt>
      <trkpt lat="48.44151" lon="2.66898">
        <ele>141</ele>
        <time>2018-11-18T09:13:03Z</time>
      </trkpt>
      <trkpt lat="48.44148" lon="2.66896">
        <ele>141</ele>
        <time>2018-11-18T09:13:04Z</time>
      </trkpt>
      <trkpt lat="48.44146" lon="2.66895">
        <ele>141</ele>
        <time>2018-11-18T09:13:05Z</time>
      </trkpt>
      <trkpt lat="48.44144" lon="2.66893">
        <ele>141.1</ele>
        <time>2018-11-18T09:13:06Z</time>
      </trkpt>
      <trkpt lat="48.44141" lon="2.6689">
        <ele>141.1</ele>
        <time>2018-11-18T09:13:07Z</time>
      </trkpt>
      <trkpt lat="48.44139" lon="2.66888">
        <ele>140.9</ele>
        <time>2018-11-18T09:13:08Z</time>
      </trkpt>
      <trkpt lat="48.44137" lon="2.66885">
        <ele>140.9</ele>
        <time>2018-11-18T09:13:09Z</time>
      </trkpt>
      <trkpt lat="48.44134" lon="2.66882">
        <ele>140.8</ele>
        <time>2018-11-18T09:13:10Z</time>
      </trkpt>
      <trkpt lat="48.44132" lon="2.6688">
        <ele>140.8</ele>
        <time>2018-11-18T09:13:11Z</time>
      </trkpt>
      <trkpt lat="48.44129" lon="2.66879">
        <ele>140.7</ele>
        <time>2018-11-18T09:13:12Z</time>
      </trkpt>
      <trkpt lat="48.44153" lon="2.66802">
        <ele>137.17578125</ele>
      </trkpt>
      <trkpt lat="48.44145" lon="2.66647">
        <ele>134.66796875</ele>
      </trkpt>
      <trkpt lat="48.44145" lon="2.6665">
        <ele>134.76171875</ele>
      </trkpt>
      <trkpt lat="48.44142" lon="2.66593">
        <ele>133.83203125</ele>
      </trkpt>
      <trkpt lat="48.44104" lon="2.6639">
        <ele>122.66796875</ele>
      </trkpt>
      <trkpt lat="48.44095" lon="2.66382">
        <ele>122.796875</ele>
      </trkpt>
      <trkpt lat="48.44081" lon="2.66442">
        <ele>130.6875</ele>
      </trkpt>
      <trkpt lat="48.44034" lon="2.66416">
        <ele>129.56640625</ele>
      </trkpt>
      <trkpt lat="48.43993" lon="2.66364">
        <ele>126.88671875</ele>
      </trkpt>
      <trkpt lat="48.43977" lon="2.6633">
        <ele>125.85546875</ele>
      </trkpt>
      <trkpt lat="48.44014" lon="2.66307">
        <ele>118.83984375</ele>
      </trkpt>
      <trkpt lat="48.44016" lon="2.66307">
        <ele>118.578125</ele>
      </trkpt>
      <trkpt lat="48.44039" lon="2.6626">
        <ele>114.609375</ele>
      </trkpt>
      <trkpt lat="48.44109" lon="2.66182">
        <ele>108.8828125</ele>
      </trkpt>
      <trkpt lat="48.44108" lon="2.66182">
        <ele>108.921875</ele>
      </trkpt>
      <trkpt lat="48.44156" lon="2.65951">
        <ele>103</ele>
      </trkpt>
      <trkpt lat="48.44171" lon="2.65946">
        <ele>103.39453125</ele>
      </trkpt>
      <trkpt lat="48.44171" lon="2.65923">
        <ele>103.39453125</ele>
      </trkpt>
      <trkpt lat="48.44205" lon="2.65933">
        <ele>105.25</ele>
      </trkpt>
      <trkpt lat="48.44205" lon="2.65951">
        <ele>105.29296875</ele>
      </trkpt>
      <trkpt lat="48.44244" lon="2.65954">
        <ele>112.28125</ele>
      </trkpt>
      <trkpt lat="48.44257" lon="2.65995">
        <ele>115.16796875</ele>
      </trkpt>
      <trkpt lat="48.44282" lon="2.65987">
        <ele>119.66796875</ele>
      </trkpt>
      <trkpt lat="48.44298" lon="2.66">
        <ele>122.9453125</ele>
      </trkpt>
      <trkpt lat="48.44316" lon="2.65993">
        <ele>125.45703125</ele>
      </trkpt>
      <trkpt lat="48.44336" lon="2.66">
        <ele>127.75</ele>
      </trkpt>
      <trkpt lat="48.44352" lon="2.66042">
        <ele>128.22265625</ele>
      </trkpt>
      <trkpt lat="48.44334" lon="2.66132">
        <ele>131.32421875</ele>
      </trkpt>
      <trkpt lat="48.44366" lon="2.6623">
        <ele>134.43359375</ele>
      </trkpt>
      <trkpt lat="48.44463" lon="2.66315">
        <ele>136.94140625</ele>
      </trkpt>
      <trkpt lat="48.44528" lon="2.66144">
        <ele>135</ele>
      </trkpt>
      <trkpt lat="48.44528" lon="2.66148">
        <ele>135</ele>
      </trkpt>
      <trkpt lat="48.44556" lon="2.66079">
        <ele>134.77734375</ele>
      </trkpt>
      <trkpt lat="48.44614" lon="2.65957">
        <ele>130.828125</ele>
      </trkpt>
      <trkpt lat="48.44642" lon="2.65874">
        <ele>125.9765625</ele>
      </trkpt>
      <trkpt lat="48.44667" lon="2.65806">
        <ele>122.64453125</ele>
      </trkpt>
      <trkpt lat="48.44736" lon="2.65448">
        <ele>119.60546875</ele>
      </trkpt>
      <trkpt lat="48.44734" lon="2.65261">
        <ele>131.234375</ele>
      </trkpt>
      <trkpt lat="48.44784" lon="2.6524">
        <ele>134.5</ele>
      </trkpt>
      <trkpt lat="48.44811" lon="2.65258">
        <ele>135.359375</ele>
      </trkpt>
      <trkpt lat="48.44829" lon="2.65247">
        <ele>136</ele>
      </trkpt>
      <trkpt lat="48.44776" lon="2.65095">
        <ele>135.4375</ele>
      </trkpt>
      <trkpt lat="48.44786" lon="2.65037">
        <ele>135.578125</ele>
      </trkpt>
      <trkpt lat="48.44916" lon="2.64706">
        <ele>135</ele>
      </trkpt>
      <trkpt lat="48.44956" lon="2.64706">
        <ele>135.69140625</ele>
      </trkpt>
      <trkpt lat="48.44935" lon="2.64639">
        <ele>134.81640625</ele>
      </trkpt>
      <trkpt lat="48.44905" lon="2.64616">
        <ele>131.54296875</ele>
      </trkpt>
      <trkpt lat="48.44891" lon="2.6453">
        <ele>130.0859375</ele>
      </trkpt>
      <trkpt lat="48.44891" lon="2.64523">
        <ele>130.0859375</ele>
      </trkpt>
      <trkpt lat="48.44875" lon="2.64511">
        <ele>128.296875</ele>
      </trkpt>
      <trkpt lat="48.44838" lon="2.64573">
        <ele>122.359375</ele>
      </trkpt>
      <trkpt lat="48.44819" lon="2.64558">
        <ele>119.0859375</ele>
      </trkpt>
      <trkpt lat="48.44805" lon="2.64515">
        <ele>119.35546875</ele>
      </trkpt>
      <trkpt lat="48.44776" lon="2.64534">
        <ele>113.6875</ele>
      </trkpt>
      <trkpt lat="48.44692" lon="2.64452">
        <ele>105.8671875</ele>
      </trkpt>
      <trkpt lat="48.44644" lon="2.64468">
        <ele>99.01171875</ele>
      </trkpt>
      <trkpt lat="48.44638" lon="2.64437">
        <ele>98.7109375</ele>
      </trkpt>
      <trkpt lat="48.44657" lon="2.64398">
        <ele>101.5546875</ele>
      </trkpt>
      <trkpt lat="48.44625" lon="2.64371">
        <ele>98.36328125</ele>
      </trkpt>
      <trkpt lat="48.44587" lon="2.64367">
        <ele>96.39453125</ele>
      </trkpt>
      <trkpt lat="48.44606" lon="2.64293">
        <ele>100.8828125</ele>
      </trkpt>
      <trkpt lat="48.44595" lon="2.64117">
        <ele>96.08203125</ele>
      </trkpt>
      <trkpt lat="48.44619" lon="2.64078">
        <ele>96.3359375</ele>
      </trkpt>
      <trkpt lat="48.44611" lon="2.64039">
        <ele>93.52734375</ele>
      </trkpt>
      <trkpt lat="48.44619" lon="2.63961">
        <ele>89.95703125</ele>
      </trkpt>
      <trkpt lat="48.44652" lon="2.63934">
        <ele>89.41796875</ele>
      </trkpt>
      <trkpt lat="48.44657" lon="2.63934">
        <ele>89.41796875</ele>
      </trkpt>
      <trkpt lat="48.44687" lon="2.63872">
        <ele>88.16796875</ele>
      </trkpt>
      <trkpt lat="48.44654" lon="2.63837">
        <ele>87.8203125</ele>
      </trkpt>
      <trkpt lat="48.44654" lon="2.63833">
        <ele>87.8203125</ele>
      </trkpt>
      <trkpt lat="48.44606" lon="2.63778">
        <ele>86.26953125</ele>
      </trkpt>
      <trkpt lat="48.44544" lon="2.63692">
        <ele>86</ele>
      </trkpt>
      <trkpt lat="48.44452" lon="2.6347">
        <ele>86</ele>
      </trkpt>
      <trkpt lat="48.44371" lon="2.63174">
        <ele>86.25</ele>
      </trkpt>
      <trkpt lat="48.44328" lon="2.6303">
        <ele>85</ele>
      </trkpt>
      <trkpt lat="48.44269" lon="2.62956">
        <ele>85</ele>
      </trkpt>
      <trkpt lat="48.44096" lon="2.62438">
        <ele>82.50390625</ele>
      </trkpt>
      <trkpt lat="48.44064" lon="2.62457">
        <ele>82.44140625</ele>
      </trkpt>
      <trkpt lat="48.43999" lon="2.62449">
        <ele>83</ele>
      </trkpt>
      <trkpt lat="48.43954" lon="2.62496">
        <ele>84.03515625</ele>
      </trkpt>
      <trkpt lat="48.43935" lon="2.62539">
        <ele>86.26171875</ele>
      </trkpt>
      <trkpt lat="48.43924" lon="2.62566">
        <ele>87.703125</ele>
      </trkpt>
      <trkpt lat="48.43905" lon="2.62558">
        <ele>87.86328125</ele>
      </trkpt>
      <trkpt lat="48.43897" lon="2.62504">
        <ele>85.41015625</ele>
      </trkpt>
      <trkpt lat="48.43854" lon="2.62519">
        <ele>87.45703125</ele>
      </trkpt>
      <trkpt lat="48.4383" lon="2.62551">
        <ele>89.09375</ele>
      </trkpt>
      <trkpt lat="48.43805" lon="2.62543">
        <ele>89.1328125</ele>
      </trkpt>
      <trkpt lat="48.43805" lon="2.62508">
        <ele>87.796875</ele>
      </trkpt>
      <trkpt lat="48.43816" lon="2.62473">
        <ele>86.14453125</ele>
      </trkpt>
      <trkpt lat="48.43803" lon="2.62438">
        <ele>85.4375</ele>
      </trkpt>
      <trkpt lat="48.43768" lon="2.62445">
        <ele>86.91015625</ele>
      </trkpt>
      <trkpt lat="48.43727" lon="2.62449">
        <ele>87.9296875</ele>
      </trkpt>
      <trkpt lat="48.43706" lon="2.6248">
        <ele>88.03515625</ele>
      </trkpt>
      <trkpt lat="48.43689" lon="2.62551">
        <ele>89.68359375</ele>
      </trkpt>
      <trkpt lat="48.43676" lon="2.62613">
        <ele>90.640625</ele>
      </trkpt>
      <trkpt lat="48.43663" lon="2.62675">
        <ele>90.453125</ele>
      </trkpt>
      <trkpt lat="48.43663" lon="2.62745">
        <ele>94.578125</ele>
      </trkpt>
      <trkpt lat="48.43625" lon="2.62964">
        <ele>105.66796875</ele>
      </trkpt>
      <trkpt lat="48.43649" lon="2.63018">
        <ele>108.828125</ele>
      </trkpt>
      <trkpt lat="48.43676" lon="2.63073">
        <ele>112.10546875</ele>
      </trkpt>
      <trkpt lat="48.43673" lon="2.63139">
        <ele>116.8671875</ele>
      </trkpt>
      <trkpt lat="48.43673" lon="2.63194">
        <ele>120.90234375</ele>
      </trkpt>
      <trkpt lat="48.43716" lon="2.63233">
        <ele>126.9609375</ele>
      </trkpt>
      <trkpt lat="48.43719" lon="2.63233">
        <ele>127.25390625</ele>
      </trkpt>
      <trkpt lat="48.43757" lon="2.63264">
        <ele>127.1171875</ele>
      </trkpt>
      <trkpt lat="48.43808" lon="2.63244">
        <ele>120.46484375</ele>
      </trkpt>
      <trkpt lat="48.43846" lon="2.63237">
        <ele>113.44921875</ele>
      </trkpt>
      <trkpt lat="48.43857" lon="2.63295">
        <ele>107.34375</ele>
      </trkpt>
      <trkpt lat="48.43889" lon="2.63342">
        <ele>97.6171875</ele>
      </trkpt>
      <trkpt lat="48.43924" lon="2.6333">
        <ele>92.46484375</ele>
      </trkpt>
      <trkpt lat="48.43962" lon="2.63307">
        <ele>87.703125</ele>
      </trkpt>
      <trkpt lat="48.44016" lon="2.63388">
        <ele>84.1875</ele>
      </trkpt>
      <trkpt lat="48.43967" lon="2.63767">
        <ele>84.35546875</ele>
      </trkpt>
      <trkpt lat="48.43889" lon="2.64254">
        <ele>87</ele>
      </trkpt>
      <trkpt lat="48.43824" lon="2.64289">
        <ele>88.08203125</ele>
      </trkpt>
      <trkpt lat="48.43754" lon="2.64371">
        <ele>90.51953125</ele>
      </trkpt>
      <trkpt lat="48.43698" lon="2.64351">
        <ele>93.76953125</ele>
      </trkpt>
      <trkpt lat="48.43619" lon="2.64406">
        <ele>93.78125</ele>
      </trkpt>
      <trkpt lat="48.43549" lon="2.64593">
        <ele>93.16015625</ele>
      </trkpt>
      <trkpt lat="48.43369" lon="2.6469">
        <ele>93</ele>
      </trkpt>
      <trkpt lat="48.43099" lon="2.64866">
        <ele>94.25</ele>
      </trkpt>
      <trkpt lat="48.43024" lon="2.65045">
        <ele>98.9765625</ele>
      </trkpt>
      <trkpt lat="48.42989" lon="2.65162">
        <ele>104.17578125</ele>
      </trkpt>
      <trkpt lat="48.42983" lon="2.65306">
        <ele>112.515625</ele>
      </trkpt>
      <trkpt lat="48.43021" lon="2.65446">
        <ele>117.10546875</ele>
      </trkpt>
      <trkpt lat="48.43035" lon="2.65497">
        <ele>120.83984375</ele>
      </trkpt>
      <trkpt lat="48.43021" lon="2.65516">
        <ele>118.01171875</ele>
      </trkpt>
      <trkpt lat="48.43021" lon="2.65625">
        <ele>125.33203125</ele>
      </trkpt>
      <trkpt lat="48.42981" lon="2.65774">
        <ele>130.14453125</ele>
      </trkpt>
      <trkpt lat="48.42954" lon="2.6589">
        <ele>133.890625</ele>
      </trkpt>
      <trkpt lat="48.42814" lon="2.65968">
        <ele>135.8515625</ele>
      </trkpt>
      <trkpt lat="48.42784" lon="2.66397">
        <ele>137</ele>
      </trkpt>
      <trkpt lat="48.43056" lon="2.66502">
        <ele>138</ele>
      </trkpt>
      <trkpt lat="48.43056" lon="2.66572">
        <ele>137</ele>
      </trkpt>
      <trkpt lat="48.43068" lon="2.66603">
        <ele>143.8</ele>
        <time>2018-11-18T09:19:08Z</time>
      </trkpt>
      <trkpt lat="48.43066" lon="2.66607">
        <ele>143.8</ele>
        <time>2018-11-18T09:19:09Z</time>
      </trkpt>
      <trkpt lat="48.43063" lon="2.66611">
        <ele>143.8</ele>
        <time>2018-11-18T09:19:10Z</time>
      </trkpt>
      <trkpt lat="48.4306" lon="2.66615">
        <ele>143.7</ele>
        <time>2018-11-18T09:19:11Z</time>
      </trkpt>
      <trkpt lat="48.43056" lon="2.6662">
        <ele>143.6</ele>
        <time>2018-11-18T09:19:12Z</time>
      </trkpt>
      <trkpt lat="48.43053" lon="2.66626">
        <ele>143</ele>
        <time>2018-11-18T09:19:13Z</time>
      </trkpt>
      <trkpt lat="48.43049" lon="2.66631">
        <ele>142.5</ele>
        <time>2018-11-18T09:19:14Z</time>
      </trkpt>
      <trkpt lat="48.43046" lon="2.66637">
        <ele>142</ele>
        <time>2018-11-18T09:19:15Z</time>
      </trkpt>
      <trkpt lat="48.43043" lon="2.66642">
        <ele>141.6</ele>
        <time>2018-11-18T09:19:16Z</time>
      </trkpt>
      <trkpt lat="48.4304" lon="2.66647">
        <ele>141.2</ele>
        <time>2018-11-18T09:19:17Z</time>
      </trkpt>
      <trkpt lat="48.43036" lon="2.66653">
        <ele>140.6</ele>
        <time>2018-11-18T09:19:18Z</time>
      </trkpt>
      <trkpt lat="48.43032" lon="2.66658">
        <ele>140.3</ele>
        <time>2018-11-18T09:19:19Z</time>
      </trkpt>
      <trkpt lat="48.43028" lon="2.66663">
        <ele>140.2</ele>
        <time>2018-11-18T09:19:20Z</time>
      </trkpt>
      <trkpt lat="48.43024" lon="2.66668">
        <ele>140</ele>
        <time>2018-11-18T09:19:21Z</time>
      </trkpt>
      <trkpt lat="48.4302" lon="2.66672">
        <ele>139.9</ele>
        <time>2018-11-18T09:19:22Z</time>
      </trkpt>
      <trkpt lat="48.43017" lon="2.66675">
        <ele>139.7</ele>
        <time>2018-11-18T09:19:23Z</time>
      </trkpt>
      <trkpt lat="48.43015" lon="2.66679">
        <ele>139.6</ele>
        <time>2018-11-18T09:19:24Z</time>
      </trkpt>
      <trkpt lat="48.43013" lon="2.66683">
        <ele>139.2</ele>
        <time>2018-11-18T09:19:25Z</time>
      </trkpt>
      <trkpt lat="48.43012" lon="2.66687">
        <ele>138.4</ele>
        <time>2018-11-18T09:19:26Z</time>
      </trkpt>
      <trkpt lat="48.43011" lon="2.6669">
        <ele>137.7</ele>
        <time>2018-11-18T09:19:27Z</time>
      </trkpt>
      <trkpt lat="48.4301" lon="2.66693">
        <ele>137.1</ele>
        <time>2018-11-18T09:19:28Z</time>
      </trkpt>
      <trkpt lat="48.43009" lon="2.66697">
        <ele>136.6</ele>
        <time>2018-11-18T09:19:29Z</time>
      </trkpt>
      <trkpt lat="48.43009" lon="2.66701">
        <ele>136.1</ele>
        <time>2018-11-18T09:19:30Z</time>
      </trkpt>
      <trkpt lat="48.43009" lon="2.66705">
        <ele>135.5</ele>
        <time>2018-11-18T09:19:31Z</time>
      </trkpt>
      <trkpt lat="48.43008" lon="2.66711">
        <ele>134.8</ele>
        <time>2018-11-18T09:19:32Z</time>
      </trkpt>
      <trkpt lat="48.43009" lon="2.66716">
        <ele>134.4</ele>
        <time>2018-11-18T09:19:33Z</time>
      </trkpt>
      <trkpt lat="48.4301" lon="2.6672">
        <ele>134.2</ele>
        <time>2018-11-18T09:19:34Z</time>
      </trkpt>
      <trkpt lat="48.43011" lon="2.66723">
        <ele>134</ele>
        <time>2018-11-18T09:19:35Z</time>
      </trkpt>
      <trkpt lat="48.43011" lon="2.66725">
        <ele>133.8</ele>
        <time>2018-11-18T09:19:36Z</time>
      </trkpt>
      <trkpt lat="48.43011" lon="2.66727">
        <ele>133.7</ele>
        <time>2018-11-18T09:19:37Z</time>
      </trkpt>
      <trkpt lat="48.43011" lon="2.6673">
        <ele>133.6</ele>
        <time>2018-11-18T09:19:38Z</time>
      </trkpt>
      <trkpt lat="48.43012" lon="2.66733">
        <ele>133.5</ele>
        <time>2018-11-18T09:19:39Z</time>
      </trkpt>
      <trkpt lat="48.43012" lon="2.66736">
        <ele>133.5</ele>
        <time>2018-11-18T09:19:40Z</time>
      </trkpt>
      <trkpt lat="48.43012" lon="2.6674">
        <ele>133.5</ele>
        <time>2018-11-18T09:19:41Z</time>
      </trkpt>
      <trkpt lat="48.4301" lon="2.66743">
        <ele>133.5</ele>
        <time>2018-11-18T09:19:42Z</time>
      </trkpt>
      <trkpt lat="48.43008" lon="2.66746">
        <ele>133.5</ele>
        <time>2018-11-18T09:19:43Z</time>
      </trkpt>
      <trkpt lat="48.43007" lon="2.66749">
        <ele>133.5</ele>
        <time>2018-11-18T09:19:44Z</time>
      </trkpt>
      <trkpt lat="48.43005" lon="2.66752">
        <ele>133.5</ele>
        <time>2018-11-18T09:19:45Z</time>
      </trkpt>
      <trkpt lat="48.43004" lon="2.66755">
        <ele>133.4</ele>
        <time>2018-11-18T09:19:46Z</time>
      </trkpt>
      <trkpt lat="48.43003" lon="2.66758">
        <ele>133.4</ele>
        <time>2018-11-18T09:19:47Z</time>
      </trkpt>
      <trkpt lat="48.43002" lon="2.66762">
        <ele>133.3</ele>
        <time>2018-11-18T09:19:48Z</time>
      </trkpt>
      <trkpt lat="48.43001" lon="2.66765">
        <ele>133.2</ele>
        <time>2018-11-18T09:19:49Z</time>
      </trkpt>
      <trkpt lat="48.43" lon="2.66768">
        <ele>133.1</ele>
        <time>2018-11-18T09:19:50Z</time>
      </trkpt>
      <trkpt lat="48.42999" lon="2.66771">
        <ele>132.9</ele>
        <time>2018-11-18T09:19:51Z</time>
      </trkpt>
      <trkpt lat="48.42999" lon="2.66773">
        <ele>132.7</ele>
        <time>2018-11-18T09:19:52Z</time>
      </trkpt>
      <trkpt lat="48.42999" lon="2.66776">
        <ele>132.5</ele>
        <time>2018-11-18T09:19:53Z</time>
      </trkpt>
      <trkpt lat="48.42999" lon="2.66778">
        <ele>132.4</ele>
        <time>2018-11-18T09:19:54Z</time>
      </trkpt>
      <trkpt lat="48.43" lon="2.6678">
        <ele>132.2</ele>
        <time>2018-11-18T09:19:55Z</time>
      </trkpt>
      <trkpt lat="48.43" lon="2.66783">
        <ele>131.9</ele>
        <time>2018-11-18T09:19:56Z</time>
      </trkpt>
      <trkpt lat="48.43" lon="2.66786">
        <ele>131.5</ele>
        <time>2018-11-18T09:19:57Z</time>
      </trkpt>
      <trkpt lat="48.43" lon="2.66789">
        <ele>131.2</ele>
        <time>2018-11-18T09:19:58Z</time>
      </trkpt>
      <trkpt lat="48.42999" lon="2.66793">
        <ele>131</ele>
        <time>2018-11-18T09:19:59Z</time>
      </trkpt>
      <trkpt lat="48.42998" lon="2.66795">
        <ele>130.8</ele>
        <time>2018-11-18T09:20:00Z</time>
      </trkpt>
      <trkpt lat="48.42997" lon="2.66796">
        <ele>130.7</ele>
        <time>2018-11-18T09:20:01Z</time>
      </trkpt>
      <trkpt lat="48.42996" lon="2.66798">
        <ele>130.4</ele>
        <time>2018-11-18T09:20:02Z</time>
      </trkpt>
      <trkpt lat="48.42995" lon="2.66799">
        <ele>130.1</ele>
        <time>2018-11-18T09:20:03Z</time>
      </trkpt>
      <trkpt lat="48.42993" lon="2.66799">
        <ele>129.8</ele>
        <time>2018-11-18T09:20:04Z</time>
      </trkpt>
      <trkpt lat="48.42992" lon="2.66799">
        <ele>129.5</ele>
        <time>2018-11-18T09:20:05Z</time>
      </trkpt>
      <trkpt lat="48.42991" lon="2.668">
        <ele>129.2</ele>
        <time>2018-11-18T09:20:06Z</time>
      </trkpt>
      <trkpt lat="48.42991" lon="2.668">
        <ele>129.1</ele>
        <time>2018-11-18T09:20:07Z</time>
      </trkpt>
      <trkpt lat="48.4299" lon="2.66799">
        <ele>128.7</ele>
        <time>2018-11-18T09:20:08Z</time>
      </trkpt>
      <trkpt lat="48.42988" lon="2.66797">
        <ele>128.3</ele>
        <time>2018-11-18T09:20:09Z</time>
      </trkpt>
      <trkpt lat="48.42987" lon="2.66794">
        <ele>127.7</ele>
        <time>2018-11-18T09:20:10Z</time>
      </trkpt>
      <trkpt lat="48.42986" lon="2.66792">
        <ele>127.2</ele>
        <time>2018-11-18T09:20:11Z</time>
      </trkpt>
      <trkpt lat="48.42985" lon="2.66791">
        <ele>126.9</ele>
        <time>2018-11-18T09:20:12Z</time>
      </trkpt>
      <trkpt lat="48.42984" lon="2.66791">
        <ele>127.4</ele>
        <time>2018-11-18T09:20:13Z</time>
      </trkpt>
      <trkpt lat="48.42982" lon="2.66791">
        <ele>128.1</ele>
        <time>2018-11-18T09:20:14Z</time>
      </trkpt>
      <trkpt lat="48.42979" lon="2.6679">
        <ele>128.9</ele>
        <time>2018-11-18T09:20:15Z</time>
      </trkpt>
      <trkpt lat="48.42977" lon="2.6679">
        <ele>129.5</ele>
        <time>2018-11-18T09:20:16Z</time>
      </trkpt>
      <trkpt lat="48.42976" lon="2.66791">
        <ele>129.8</ele>
        <time>2018-11-18T09:20:17Z</time>
      </trkpt>
      <trkpt lat="48.42974" lon="2.66791">
        <ele>130.1</ele>
        <time>2018-11-18T09:20:18Z</time>
      </trkpt>
      <trkpt lat="48.42973" lon="2.66791">
        <ele>130.4</ele>
        <time>2018-11-18T09:20:19Z</time>
      </trkpt>
      <trkpt lat="48.42972" lon="2.66791">
        <ele>130.5</ele>
        <time>2018-11-18T09:20:20Z</time>
      </trkpt>
      <trkpt lat="48.42972" lon="2.66791">
        <ele>130.6</ele>
        <time>2018-11-18T09:20:21Z</time>
      </trkpt>
      <trkpt lat="48.42971" lon="2.66792">
        <ele>130.8</ele>
        <time>2018-11-18T09:20:22Z</time>
      </trkpt>
      <trkpt lat="48.4297" lon="2.66792">
        <ele>131</ele>
        <time>2018-11-18T09:20:23Z</time>
      </trkpt>
      <trkpt lat="48.4297" lon="2.66793">
        <ele>131.1</ele>
        <time>2018-11-18T09:20:24Z</time>
      </trkpt>
      <trkpt lat="48.42969" lon="2.66793">
        <ele>131.3</ele>
        <time>2018-11-18T09:20:25Z</time>
      </trkpt>
      <trkpt lat="48.42968" lon="2.66793">
        <ele>131.6</ele>
        <time>2018-11-18T09:20:26Z</time>
      </trkpt>
      <trkpt lat="48.42967" lon="2.66793">
        <ele>131.8</ele>
        <time>2018-11-18T09:20:27Z</time>
      </trkpt>
      <trkpt lat="48.42967" lon="2.66793">
        <ele>132</ele>
        <time>2018-11-18T09:20:28Z</time>
      </trkpt>
      <trkpt lat="48.42966" lon="2.66793">
        <ele>132.2</ele>
        <time>2018-11-18T09:20:29Z</time>
      </trkpt>
      <trkpt lat="48.42966" lon="2.66793">
        <ele>132.2</ele>
        <time>2018-11-18T09:20:30Z</time>
      </trkpt>
      <trkpt lat="48.42966" lon="2.66793">
        <ele>132.3</ele>
        <time>2018-11-18T09:20:31Z</time>
      </trkpt>
      <trkpt lat="48.42966" lon="2.66793">
        <ele>132.3</ele>
        <time>2018-11-18T09:20:32Z</time>
      </trkpt>
      <trkpt lat="48.42966" lon="2.66793">
        <ele>132.3</ele>
        <time>2018-11-18T09:20:33Z</time>
      </trkpt>
      <trkpt lat="48.42966" lon="2.66793">
        <ele>132.3</ele>
        <time>2018-11-18T09:20:34Z</time>
      </trkpt>
      <trkpt lat="48.42966" lon="2.66793">
        <ele>132.3</ele>
        <time>2018-11-18T09:20:35Z</time>
      </trkpt>
      <trkpt lat="48.42966" lon="2.66793">
        <ele>132.3</ele>
        <time>2018-11-18T09:20:36Z</time>
      </trkpt>
      <trkpt lat="48.42966" lon="2.66793">
        <ele>132.3</ele>
        <time>2018-11-18T09:20:37Z</time>
      </trkpt>
      <trkpt lat="48.42964" lon="2.66793">
        <ele>132.7</ele>
        <time>2018-11-18T09:20:38Z</time>
      </trkpt>
      <trkpt lat="48.42963" lon="2.66793">
        <ele>133</ele>
        <time>2018-11-18T09:20:39Z</time>
      </trkpt>
      <trkpt lat="48.42962" lon="2.66792">
        <ele>133.2</ele>
        <time>2018-11-18T09:20:40Z</time>
      </trkpt>
      <trkpt lat="48.42961" lon="2.66792">
        <ele>133.4</ele>
        <time>2018-11-18T09:20:41Z</time>
      </trkpt>
      <trkpt lat="48.42961" lon="2.66791">
        <ele>133.5</ele>
        <time>2018-11-18T09:20:42Z</time>
      </trkpt>
      <trkpt lat="48.4296" lon="2.66791">
        <ele>133.6</ele>
        <time>2018-11-18T09:20:43Z</time>
      </trkpt>
      <trkpt lat="48.42959" lon="2.66792">
        <ele>133.8</ele>
        <time>2018-11-18T09:20:44Z</time>
      </trkpt>
      <trkpt lat="48.42958" lon="2.66792">
        <ele>134</ele>
        <time>2018-11-18T09:20:45Z</time>
      </trkpt>
      <trkpt lat="48.42957" lon="2.66792">
        <ele>134.2</ele>
        <time>2018-11-18T09:20:46Z</time>
      </trkpt>
      <trkpt lat="48.42955" lon="2.6679">
        <ele>134.4</ele>
        <time>2018-11-18T09:20:47Z</time>
      </trkpt>
      <trkpt lat="48.42954" lon="2.66789">
        <ele>134.6</ele>
        <time>2018-11-18T09:20:48Z</time>
      </trkpt>
      <trkpt lat="48.42953" lon="2.66787">
        <ele>134.7</ele>
        <time>2018-11-18T09:20:49Z</time>
      </trkpt>
      <trkpt lat="48.42952" lon="2.66786">
        <ele>134.9</ele>
        <time>2018-11-18T09:20:50Z</time>
      </trkpt>
      <trkpt lat="48.42951" lon="2.66784">
        <ele>135</ele>
        <time>2018-11-18T09:20:51Z</time>
      </trkpt>
      <trkpt lat="48.4295" lon="2.66783">
        <ele>135.2</ele>
        <time>2018-11-18T09:20:52Z</time>
      </trkpt>
      <trkpt lat="48.42948" lon="2.66783">
        <ele>135.2</ele>
        <time>2018-11-18T09:20:53Z</time>
      </trkpt>
      <trkpt lat="48.42946" lon="2.66784">
        <ele>135.3</ele>
        <time>2018-11-18T09:20:54Z</time>
      </trkpt>
      <trkpt lat="48.42944" lon="2.66785">
        <ele>135.4</ele>
        <time>2018-11-18T09:20:55Z</time>
      </trkpt>
      <trkpt lat="48.42943" lon="2.66785">
        <ele>135.5</ele>
        <time>2018-11-18T09:20:56Z</time>
      </trkpt>
      <trkpt lat="48.42941" lon="2.66783">
        <ele>135.5</ele>
        <time>2018-11-18T09:20:57Z</time>
      </trkpt>
      <trkpt lat="48.42939" lon="2.66781">
        <ele>135.5</ele>
        <time>2018-11-18T09:20:58Z</time>
      </trkpt>
      <trkpt lat="48.42938" lon="2.66779">
        <ele>135.5</ele>
        <time>2018-11-18T09:20:59Z</time>
      </trkpt>
      <trkpt lat="48.42936" lon="2.66777">
        <ele>135.5</ele>
        <time>2018-11-18T09:21:00Z</time>
      </trkpt>
      <trkpt lat="48.42934" lon="2.66775">
        <ele>135.5</ele>
        <time>2018-11-18T09:21:01Z</time>
      </trkpt>
      <trkpt lat="48.42933" lon="2.66773">
        <ele>135.5</ele>
        <time>2018-11-18T09:21:02Z</time>
      </trkpt>
      <trkpt lat="48.42931" lon="2.66771">
        <ele>135.5</ele>
        <time>2018-11-18T09:21:03Z</time>
      </trkpt>
      <trkpt lat="48.42929" lon="2.66769">
        <ele>135.6</ele>
        <time>2018-11-18T09:21:04Z</time>
      </trkpt>
      <trkpt lat="48.42927" lon="2.66769">
        <ele>135.6</ele>
        <time>2018-11-18T09:21:05Z</time>
      </trkpt>
      <trkpt lat="48.42925" lon="2.66768">
        <ele>135.7</ele>
        <time>2018-11-18T09:21:06Z</time>
      </trkpt>
      <trkpt lat="48.42923" lon="2.66766">
        <ele>135.8</ele>
        <time>2018-11-18T09:21:07Z</time>
      </trkpt>
      <trkpt lat="48.42922" lon="2.66764">
        <ele>136</ele>
        <time>2018-11-18T09:21:08Z</time>
      </trkpt>
      <trkpt lat="48.42921" lon="2.66762">
        <ele>136.2</ele>
        <time>2018-11-18T09:21:09Z</time>
      </trkpt>
      <trkpt lat="48.42921" lon="2.66759">
        <ele>136.3</ele>
        <time>2018-11-18T09:21:10Z</time>
      </trkpt>
      <trkpt lat="48.42921" lon="2.66756">
        <ele>136.5</ele>
        <time>2018-11-18T09:21:11Z</time>
      </trkpt>
      <trkpt lat="48.42919" lon="2.66751">
        <ele>136.8</ele>
        <time>2018-11-18T09:21:12Z</time>
      </trkpt>
      <trkpt lat="48.42919" lon="2.66748">
        <ele>137</ele>
        <time>2018-11-18T09:21:13Z</time>
      </trkpt>
      <trkpt lat="48.42917" lon="2.66744">
        <ele>137.3</ele>
        <time>2018-11-18T09:21:14Z</time>
      </trkpt>
      <trkpt lat="48.42915" lon="2.6674">
        <ele>137.6</ele>
        <time>2018-11-18T09:21:15Z</time>
      </trkpt>
      <trkpt lat="48.42913" lon="2.66736">
        <ele>137.9</ele>
        <time>2018-11-18T09:21:16Z</time>
      </trkpt>
      <trkpt lat="48.4291" lon="2.66732">
        <ele>138.4</ele>
        <time>2018-11-18T09:21:17Z</time>
      </trkpt>
      <trkpt lat="48.42908" lon="2.66728">
        <ele>138.8</ele>
        <time>2018-11-18T09:21:18Z</time>
      </trkpt>
      <trkpt lat="48.42905" lon="2.66724">
        <ele>139.4</ele>
        <time>2018-11-18T09:21:19Z</time>
      </trkpt>
      <trkpt lat="48.42901" lon="2.66719">
        <ele>140</ele>
        <time>2018-11-18T09:21:20Z</time>
      </trkpt>
      <trkpt lat="48.42898" lon="2.66715">
        <ele>140.5</ele>
        <time>2018-11-18T09:21:21Z</time>
      </trkpt>
      <trkpt lat="48.42896" lon="2.66711">
        <ele>140.8</ele>
        <time>2018-11-18T09:21:22Z</time>
      </trkpt>
      <trkpt lat="48.42894" lon="2.66707">
        <ele>141.1</ele>
        <time>2018-11-18T09:21:23Z</time>
      </trkpt>
      <trkpt lat="48.42892" lon="2.66702">
        <ele>141.4</ele>
        <time>2018-11-18T09:21:24Z</time>
      </trkpt>
      <trkpt lat="48.42889" lon="2.66697">
        <ele>141.6</ele>
        <time>2018-11-18T09:21:25Z</time>
      </trkpt>
      <trkpt lat="48.42887" lon="2.66693">
        <ele>141.8</ele>
        <time>2018-11-18T09:21:26Z</time>
      </trkpt>
      <trkpt lat="48.42886" lon="2.66689">
        <ele>142</ele>
        <time>2018-11-18T09:21:27Z</time>
      </trkpt>
      <trkpt lat="48.42883" lon="2.66685">
        <ele>142.1</ele>
        <time>2018-11-18T09:21:28Z</time>
      </trkpt>
      <trkpt lat="48.42881" lon="2.66681">
        <ele>142.3</ele>
        <time>2018-11-18T09:21:29Z</time>
      </trkpt>
      <trkpt lat="48.42879" lon="2.66678">
        <ele>142.4</ele>
        <time>2018-11-18T09:21:30Z</time>
      </trkpt>
      <trkpt lat="48.42877" lon="2.66675">
        <ele>142.5</ele>
        <time>2018-11-18T09:21:31Z</time>
      </trkpt>
      <trkpt lat="48.42875" lon="2.66674">
        <ele>142.6</ele>
        <time>2018-11-18T09:21:32Z</time>
      </trkpt>
      <trkpt lat="48.42873" lon="2.66671">
        <ele>142.8</ele>
        <time>2018-11-18T09:21:33Z</time>
      </trkpt>
      <trkpt lat="48.42871" lon="2.66669">
        <ele>142.8</ele>
        <time>2018-11-18T09:21:34Z</time>
      </trkpt>
      <trkpt lat="48.42869" lon="2.66667">
        <ele>142.8</ele>
        <time>2018-11-18T09:21:35Z</time>
      </trkpt>
      <trkpt lat="48.42867" lon="2.66666">
        <ele>142.9</ele>
        <time>2018-11-18T09:21:36Z</time>
      </trkpt>
      <trkpt lat="48.42865" lon="2.66666">
        <ele>142.9</ele>
        <time>2018-11-18T09:21:37Z</time>
      </trkpt>
      <trkpt lat="48.42863" lon="2.66666">
        <ele>142.9</ele>
        <time>2018-11-18T09:21:38Z</time>
      </trkpt>
      <trkpt lat="48.4286" lon="2.66667">
        <ele>142.9</ele>
        <time>2018-11-18T09:21:39Z</time>
      </trkpt>
      <trkpt lat="48.42857" lon="2.66667">
        <ele>142.9</ele>
        <time>2018-11-18T09:21:40Z</time>
      </trkpt>
      <trkpt lat="48.42855" lon="2.66667">
        <ele>142.9</ele>
        <time>2018-11-18T09:21:41Z</time>
      </trkpt>
      <trkpt lat="48.42852" lon="2.66667">
        <ele>142.9</ele>
        <time>2018-11-18T09:21:42Z</time>
      </trkpt>
      <trkpt lat="48.42849" lon="2.66665">
        <ele>142.9</ele>
        <time>2018-11-18T09:21:43Z</time>
      </trkpt>
      <trkpt lat="48.42846" lon="2.66665">
        <ele>142.9</ele>
        <time>2018-11-18T09:21:44Z</time>
      </trkpt>
      <trkpt lat="48.42843" lon="2.66665">
        <ele>142.8</ele>
        <time>2018-11-18T09:21:45Z</time>
      </trkpt>
      <trkpt lat="48.4284" lon="2.66664">
        <ele>142.8</ele>
        <time>2018-11-18T09:21:46Z</time>
      </trkpt>
      <trkpt lat="48.42837" lon="2.66664">
        <ele>142.7</ele>
        <time>2018-11-18T09:21:47Z</time>
      </trkpt>
      <trkpt lat="48.42835" lon="2.66664">
        <ele>142.7</ele>
        <time>2018-11-18T09:21:48Z</time>
      </trkpt>
      <trkpt lat="48.42832" lon="2.66664">
        <ele>142.7</ele>
        <time>2018-11-18T09:21:49Z</time>
      </trkpt>
      <trkpt lat="48.4283" lon="2.66663">
        <ele>142.7</ele>
        <time>2018-11-18T09:21:50Z</time>
      </trkpt>
      <trkpt lat="48.42828" lon="2.66663">
        <ele>142.6</ele>
        <time>2018-11-18T09:21:51Z</time>
      </trkpt>
      <trkpt lat="48.42827" lon="2.66664">
        <ele>142.6</ele>
        <time>2018-11-18T09:21:52Z</time>
      </trkpt>
      <trkpt lat="48.42827" lon="2.66667">
        <ele>141.3</ele>
        <time>2018-11-18T09:21:53Z</time>
      </trkpt>
      <trkpt lat="48.42827" lon="2.66669">
        <ele>141.2</ele>
        <time>2018-11-18T09:21:54Z</time>
      </trkpt>
      <trkpt lat="48.42827" lon="2.6667">
        <ele>141.2</ele>
        <time>2018-11-18T09:21:55Z</time>
      </trkpt>
      <trkpt lat="48.42827" lon="2.66673">
        <ele>141.1</ele>
        <time>2018-11-18T09:21:56Z</time>
      </trkpt>
      <trkpt lat="48.42827" lon="2.66677">
        <ele>140.8</ele>
        <time>2018-11-18T09:21:57Z</time>
      </trkpt>
      <trkpt lat="48.42828" lon="2.66681">
        <ele>140.5</ele>
        <time>2018-11-18T09:21:58Z</time>
      </trkpt>
      <trkpt lat="48.4283" lon="2.66685">
        <ele>140.2</ele>
        <time>2018-11-18T09:21:59Z</time>
      </trkpt>
      <trkpt lat="48.42832" lon="2.6669">
        <ele>139.9</ele>
        <time>2018-11-18T09:22:00Z</time>
      </trkpt>
      <trkpt lat="48.42834" lon="2.66694">
        <ele>139.6</ele>
        <time>2018-11-18T09:22:01Z</time>
      </trkpt>
      <trkpt lat="48.42837" lon="2.66699">
        <ele>139.2</ele>
        <time>2018-11-18T09:22:02Z</time>
      </trkpt>
      <trkpt lat="48.42838" lon="2.66704">
        <ele>138.9</ele>
        <time>2018-11-18T09:22:03Z</time>
      </trkpt>
      <trkpt lat="48.4284" lon="2.66709">
        <ele>138.5</ele>
        <time>2018-11-18T09:22:04Z</time>
      </trkpt>
      <trkpt lat="48.4284" lon="2.66712">
        <ele>138.3</ele>
        <time>2018-11-18T09:22:05Z</time>
      </trkpt>
      <trkpt lat="48.4284" lon="2.66714">
        <ele>138.2</ele>
        <time>2018-11-18T09:22:06Z</time>
      </trkpt>
      <trkpt lat="48.4284" lon="2.66715">
        <ele>138.1</ele>
        <time>2018-11-18T09:22:07Z</time>
      </trkpt>
      <trkpt lat="48.4284" lon="2.66715">
        <ele>138.1</ele>
        <time>2018-11-18T09:22:08Z</time>
      </trkpt>
      <trkpt lat="48.4284" lon="2.66715">
        <ele>138.1</ele>
        <time>2018-11-18T09:22:09Z</time>
      </trkpt>
      <trkpt lat="48.4284" lon="2.66715">
        <ele>138.1</ele>
        <time>2018-11-18T09:22:10Z</time>
      </trkpt>
      <trkpt lat="48.4284" lon="2.66715">
        <ele>138.1</ele>
        <time>2018-11-18T09:22:11Z</time>
      </trkpt>
      <trkpt lat="48.4284" lon="2.66715">
        <ele>138.1</ele>
        <time>2018-11-18T09:22:12Z</time>
      </trkpt>
      <trkpt lat="48.4284" lon="2.66715">
        <ele>138.1</ele>
        <time>2018-11-18T09:22:13Z</time>
      </trkpt>
      <trkpt lat="48.4284" lon="2.66715">
        <ele>138.1</ele>
        <time>2018-11-18T09:22:14Z</time>
      </trkpt>
      <trkpt lat="48.4284" lon="2.66715">
        <ele>138.1</ele>
        <time>2018-11-18T09:22:15Z</time>
      </trkpt>
      <trkpt lat="48.4284" lon="2.6672">
        <ele>137.7</ele>
        <time>2018-11-18T09:22:19Z</time>
      </trkpt>
      <trkpt lat="48.4284" lon="2.6672">
        <ele>137.7</ele>
        <time>2018-11-18T09:22:20Z</time>
      </trkpt>
      <trkpt lat="48.4284" lon="2.66721">
        <ele>137.7</ele>
        <time>2018-11-18T09:22:21Z</time>
      </trkpt>
      <trkpt lat="48.4284" lon="2.66721">
        <ele>137.7</ele>
        <time>2018-11-18T09:22:22Z</time>
      </trkpt>
      <trkpt lat="48.4284" lon="2.66721">
        <ele>137.7</ele>
        <time>2018-11-18T09:22:23Z</time>
      </trkpt>
      <trkpt lat="48.4284" lon="2.66721">
        <ele>137.7</ele>
        <time>2018-11-18T09:22:24Z</time>
      </trkpt>
      <trkpt lat="48.4284" lon="2.66725">
        <ele>137.3</ele>
        <time>2018-11-18T09:22:32Z</time>
      </trkpt>
      <trkpt lat="48.4284" lon="2.66726">
        <ele>137.2</ele>
        <time>2018-11-18T09:22:33Z</time>
      </trkpt>
      <trkpt lat="48.4284" lon="2.66726">
        <ele>137.2</ele>
        <time>2018-11-18T09:22:34Z</time>
      </trkpt>
      <trkpt lat="48.4284" lon="2.66726">
        <ele>137.1</ele>
        <time>2018-11-18T09:22:35Z</time>
      </trkpt>
      <trkpt lat="48.4284" lon="2.66727">
        <ele>137.1</ele>
        <time>2018-11-18T09:22:36Z</time>
      </trkpt>
      <trkpt lat="48.4284" lon="2.66727">
        <ele>137.1</ele>
        <time>2018-11-18T09:22:37Z</time>
      </trkpt>
      <trkpt lat="48.4284" lon="2.66727">
        <ele>137.1</ele>
        <time>2018-11-18T09:22:38Z</time>
      </trkpt>
      <trkpt lat="48.4284" lon="2.6673">
        <ele>136.8</ele>
        <time>2018-11-18T09:22:57Z</time>
      </trkpt>
      <trkpt lat="48.4284" lon="2.66731">
        <ele>136.7</ele>
        <time>2018-11-18T09:22:58Z</time>
      </trkpt>
      <trkpt lat="48.42841" lon="2.66732">
        <ele>136.5</ele>
        <time>2018-11-18T09:22:59Z</time>
      </trkpt>
      <trkpt lat="48.42841" lon="2.66734">
        <ele>136.3</ele>
        <time>2018-11-18T09:23:00Z</time>
      </trkpt>
      <trkpt lat="48.42841" lon="2.66736">
        <ele>136</ele>
        <time>2018-11-18T09:23:01Z</time>
      </trkpt>
      <trkpt lat="48.42841" lon="2.66738">
        <ele>135.7</ele>
        <time>2018-11-18T09:23:02Z</time>
      </trkpt>
      <trkpt lat="48.42841" lon="2.6674">
        <ele>135.4</ele>
        <time>2018-11-18T09:23:03Z</time>
      </trkpt>
      <trkpt lat="48.42841" lon="2.66742">
        <ele>135.1</ele>
        <time>2018-11-18T09:23:04Z</time>
      </trkpt>
      <trkpt lat="48.42841" lon="2.66745">
        <ele>134.8</ele>
        <time>2018-11-18T09:23:05Z</time>
      </trkpt>
      <trkpt lat="48.42841" lon="2.66747">
        <ele>134.5</ele>
        <time>2018-11-18T09:23:06Z</time>
      </trkpt>
      <trkpt lat="48.42842" lon="2.66749">
        <ele>134.3</ele>
        <time>2018-11-18T09:23:07Z</time>
      </trkpt>
      <trkpt lat="48.42842" lon="2.66751">
        <ele>134</ele>
        <time>2018-11-18T09:23:08Z</time>
      </trkpt>
      <trkpt lat="48.42842" lon="2.66754">
        <ele>133.6</ele>
        <time>2018-11-18T09:23:09Z</time>
      </trkpt>
      <trkpt lat="48.42843" lon="2.66759">
        <ele>133</ele>
        <time>2018-11-18T09:23:10Z</time>
      </trkpt>
      <trkpt lat="48.42844" lon="2.66764">
        <ele>132.3</ele>
        <time>2018-11-18T09:23:11Z</time>
      </trkpt>
      <trkpt lat="48.42845" lon="2.66769">
        <ele>131.7</ele>
        <time>2018-11-18T09:23:12Z</time>
      </trkpt>
      <trkpt lat="48.42847" lon="2.66774">
        <ele>131</ele>
        <time>2018-11-18T09:23:13Z</time>
      </trkpt>
      <trkpt lat="48.42849" lon="2.66778">
        <ele>130.6</ele>
        <time>2018-11-18T09:23:14Z</time>
      </trkpt>
      <trkpt lat="48.4285" lon="2.66781">
        <ele>130.2</ele>
        <time>2018-11-18T09:23:15Z</time>
      </trkpt>
      <trkpt lat="48.4285" lon="2.66785">
        <ele>129.8</ele>
        <time>2018-11-18T09:23:16Z</time>
      </trkpt>
      <trkpt lat="48.42851" lon="2.66789">
        <ele>129.3</ele>
        <time>2018-11-18T09:23:17Z</time>
      </trkpt>
      <trkpt lat="48.42852" lon="2.66794">
        <ele>128.7</ele>
        <time>2018-11-18T09:23:18Z</time>
      </trkpt>
      <trkpt lat="48.42853" lon="2.668">
        <ele>128.1</ele>
        <time>2018-11-18T09:23:19Z</time>
      </trkpt>
      <trkpt lat="48.42855" lon="2.66806">
        <ele>127.6</ele>
        <time>2018-11-18T09:23:20Z</time>
      </trkpt>
      <trkpt lat="48.42857" lon="2.66811">
        <ele>127.1</ele>
        <time>2018-11-18T09:23:21Z</time>
      </trkpt>
      <trkpt lat="48.42858" lon="2.66816">
        <ele>126.8</ele>
        <time>2018-11-18T09:23:22Z</time>
      </trkpt>
      <trkpt lat="48.42859" lon="2.66821">
        <ele>126.4</ele>
        <time>2018-11-18T09:23:23Z</time>
      </trkpt>
      <trkpt lat="48.4286" lon="2.66825">
        <ele>126.2</ele>
        <time>2018-11-18T09:23:24Z</time>
      </trkpt>
      <trkpt lat="48.42861" lon="2.6683">
        <ele>125.8</ele>
        <time>2018-11-18T09:23:25Z</time>
      </trkpt>
      <trkpt lat="48.42862" lon="2.66836">
        <ele>125.5</ele>
        <time>2018-11-18T09:23:26Z</time>
      </trkpt>
      <trkpt lat="48.42863" lon="2.66842">
        <ele>125.1</ele>
        <time>2018-11-18T09:23:27Z</time>
      </trkpt>
      <trkpt lat="48.42863" lon="2.66849">
        <ele>124.5</ele>
        <time>2018-11-18T09:23:28Z</time>
      </trkpt>
      <trkpt lat="48.42863" lon="2.66855">
        <ele>124.1</ele>
        <time>2018-11-18T09:23:29Z</time>
      </trkpt>
      <trkpt lat="48.42863" lon="2.66861">
        <ele>123.6</ele>
        <time>2018-11-18T09:23:30Z</time>
      </trkpt>
      <trkpt lat="48.42864" lon="2.66867">
        <ele>123.3</ele>
        <time>2018-11-18T09:23:31Z</time>
      </trkpt>
      <trkpt lat="48.42864" lon="2.66871">
        <ele>122.9</ele>
        <time>2018-11-18T09:23:32Z</time>
      </trkpt>
      <trkpt lat="48.42864" lon="2.66875">
        <ele>122.7</ele>
        <time>2018-11-18T09:23:33Z</time>
      </trkpt>
      <trkpt lat="48.42864" lon="2.6688">
        <ele>122.4</ele>
        <time>2018-11-18T09:23:34Z</time>
      </trkpt>
      <trkpt lat="48.42864" lon="2.66884">
        <ele>122.1</ele>
        <time>2018-11-18T09:23:35Z</time>
      </trkpt>
      <trkpt lat="48.42864" lon="2.66889">
        <ele>121.7</ele>
        <time>2018-11-18T09:23:36Z</time>
      </trkpt>
      <trkpt lat="48.42865" lon="2.66894">
        <ele>121.4</ele>
        <time>2018-11-18T09:23:37Z</time>
      </trkpt>
      <trkpt lat="48.42865" lon="2.66901">
        <ele>120.9</ele>
        <time>2018-11-18T09:23:38Z</time>
      </trkpt>
      <trkpt lat="48.42866" lon="2.66906">
        <ele>120.6</ele>
        <time>2018-11-18T09:23:39Z</time>
      </trkpt>
      <trkpt lat="48.42866" lon="2.66912">
        <ele>120.2</ele>
        <time>2018-11-18T09:23:40Z</time>
      </trkpt>
      <trkpt lat="48.42867" lon="2.66918">
        <ele>119.8</ele>
        <time>2018-11-18T09:23:41Z</time>
      </trkpt>
      <trkpt lat="48.42868" lon="2.66925">
        <ele>119.4</ele>
        <time>2018-11-18T09:23:42Z</time>
      </trkpt>
      <trkpt lat="48.42869" lon="2.66931">
        <ele>119</ele>
        <time>2018-11-18T09:23:43Z</time>
      </trkpt>
      <trkpt lat="48.42871" lon="2.66937">
        <ele>118.6</ele>
        <time>2018-11-18T09:23:44Z</time>
      </trkpt>
      <trkpt lat="48.42873" lon="2.66946">
        <ele>118.1</ele>
        <time>2018-11-18T09:23:45Z</time>
      </trkpt>
      <trkpt lat="48.42874" lon="2.66954">
        <ele>117.6</ele>
        <time>2018-11-18T09:23:46Z</time>
      </trkpt>
      <trkpt lat="48.42876" lon="2.66961">
        <ele>117.2</ele>
        <time>2018-11-18T09:23:47Z</time>
      </trkpt>
      <trkpt lat="48.42878" lon="2.6697">
        <ele>116.9</ele>
        <time>2018-11-18T09:23:48Z</time>
      </trkpt>
      <trkpt lat="48.42881" lon="2.66979">
        <ele>116.5</ele>
        <time>2018-11-18T09:23:49Z</time>
      </trkpt>
      <trkpt lat="48.42884" lon="2.66987">
        <ele>116.1</ele>
        <time>2018-11-18T09:23:50Z</time>
      </trkpt>
      <trkpt lat="48.42887" lon="2.66994">
        <ele>115.9</ele>
        <time>2018-11-18T09:23:51Z</time>
      </trkpt>
      <trkpt lat="48.4289" lon="2.67">
        <ele>115.6</ele>
        <time>2018-11-18T09:23:52Z</time>
      </trkpt>
      <trkpt lat="48.42893" lon="2.67006">
        <ele>115.3</ele>
        <time>2018-11-18T09:23:53Z</time>
      </trkpt>
      <trkpt lat="48.42896" lon="2.67011">
        <ele>115.1</ele>
        <time>2018-11-18T09:23:54Z</time>
      </trkpt>
      <trkpt lat="48.42898" lon="2.67015">
        <ele>114.9</ele>
        <time>2018-11-18T09:23:55Z</time>
      </trkpt>
      <trkpt lat="48.429" lon="2.6702">
        <ele>114.7</ele>
        <time>2018-11-18T09:23:56Z</time>
      </trkpt>
      <trkpt lat="48.42903" lon="2.67024">
        <ele>114.4</ele>
        <time>2018-11-18T09:23:57Z</time>
      </trkpt>
      <trkpt lat="48.42906" lon="2.67028">
        <ele>114.1</ele>
        <time>2018-11-18T09:23:58Z</time>
      </trkpt>
      <trkpt lat="48.42908" lon="2.67033">
        <ele>113.9</ele>
        <time>2018-11-18T09:23:59Z</time>
      </trkpt>
      <trkpt lat="48.4291" lon="2.67038">
        <ele>113.7</ele>
        <time>2018-11-18T09:24:00Z</time>
      </trkpt>
      <trkpt lat="48.42912" lon="2.67042">
        <ele>113.5</ele>
        <time>2018-11-18T09:24:01Z</time>
      </trkpt>
      <trkpt lat="48.42914" lon="2.67045">
        <ele>113.3</ele>
        <time>2018-11-18T09:24:02Z</time>
      </trkpt>
      <trkpt lat="48.42917" lon="2.67049">
        <ele>113.1</ele>
        <time>2018-11-18T09:24:03Z</time>
      </trkpt>
      <trkpt lat="48.4292" lon="2.67052">
        <ele>112.8</ele>
        <time>2018-11-18T09:24:04Z</time>
      </trkpt>
      <trkpt lat="48.42923" lon="2.67057">
        <ele>112.7</ele>
        <time>2018-11-18T09:24:05Z</time>
      </trkpt>
      <trkpt lat="48.42926" lon="2.67062">
        <ele>112.5</ele>
        <time>2018-11-18T09:24:06Z</time>
      </trkpt>
      <trkpt lat="48.4293" lon="2.67068">
        <ele>112.3</ele>
        <time>2018-11-18T09:24:07Z</time>
      </trkpt>
      <trkpt lat="48.42933" lon="2.67074">
        <ele>112.1</ele>
        <time>2018-11-18T09:24:08Z</time>
      </trkpt>
      <trkpt lat="48.42936" lon="2.6708">
        <ele>111.8</ele>
        <time>2018-11-18T09:24:09Z</time>
      </trkpt>
      <trkpt lat="48.42937" lon="2.67085">
        <ele>111.5</ele>
        <time>2018-11-18T09:24:10Z</time>
      </trkpt>
      <trkpt lat="48.42939" lon="2.6709">
        <ele>111.2</ele>
        <time>2018-11-18T09:24:11Z</time>
      </trkpt>
      <trkpt lat="48.42942" lon="2.67094">
        <ele>110.9</ele>
        <time>2018-11-18T09:24:12Z</time>
      </trkpt>
      <trkpt lat="48.42943" lon="2.67099">
        <ele>110.7</ele>
        <time>2018-11-18T09:24:13Z</time>
      </trkpt>
      <trkpt lat="48.42946" lon="2.67104">
        <ele>110.4</ele>
        <time>2018-11-18T09:24:14Z</time>
      </trkpt>
      <trkpt lat="48.42948" lon="2.67108">
        <ele>110.2</ele>
        <time>2018-11-18T09:24:15Z</time>
      </trkpt>
      <trkpt lat="48.42951" lon="2.67113">
        <ele>109.9</ele>
        <time>2018-11-18T09:24:16Z</time>
      </trkpt>
      <trkpt lat="48.42954" lon="2.67118">
        <ele>109.6</ele>
        <time>2018-11-18T09:24:17Z</time>
      </trkpt>
      <trkpt lat="48.42956" lon="2.67124">
        <ele>109.3</ele>
        <time>2018-11-18T09:24:18Z</time>
      </trkpt>
      <trkpt lat="48.4296" lon="2.67128">
        <ele>109.1</ele>
        <time>2018-11-18T09:24:19Z</time>
      </trkpt>
      <trkpt lat="48.42964" lon="2.67133">
        <ele>108.8</ele>
        <time>2018-11-18T09:24:20Z</time>
      </trkpt>
      <trkpt lat="48.42966" lon="2.67137">
        <ele>108.7</ele>
        <time>2018-11-18T09:24:21Z</time>
      </trkpt>
      <trkpt lat="48.42969" lon="2.67142">
        <ele>108.6</ele>
        <time>2018-11-18T09:24:22Z</time>
      </trkpt>
      <trkpt lat="48.42972" lon="2.67147">
        <ele>108.5</ele>
        <time>2018-11-18T09:24:23Z</time>
      </trkpt>
      <trkpt lat="48.42976" lon="2.6715">
        <ele>108.3</ele>
        <time>2018-11-18T09:24:24Z</time>
      </trkpt>
      <trkpt lat="48.42979" lon="2.67154">
        <ele>108.2</ele>
        <time>2018-11-18T09:24:25Z</time>
      </trkpt>
      <trkpt lat="48.42983" lon="2.67158">
        <ele>108.1</ele>
        <time>2018-11-18T09:24:26Z</time>
      </trkpt>
      <trkpt lat="48.42986" lon="2.67162">
        <ele>107.9</ele>
        <time>2018-11-18T09:24:27Z</time>
      </trkpt>
      <trkpt lat="48.4299" lon="2.67166">
        <ele>107.8</ele>
        <time>2018-11-18T09:24:28Z</time>
      </trkpt>
      <trkpt lat="48.42993" lon="2.67167">
        <ele>107.7</ele>
        <time>2018-11-18T09:24:29Z</time>
      </trkpt>
      <trkpt lat="48.42995" lon="2.67168">
        <ele>107.7</ele>
        <time>2018-11-18T09:24:30Z</time>
      </trkpt>
      <trkpt lat="48.42997" lon="2.67167">
        <ele>107.6</ele>
        <time>2018-11-18T09:24:31Z</time>
      </trkpt>
      <trkpt lat="48.42999" lon="2.67167">
        <ele>107.5</ele>
        <time>2018-11-18T09:24:32Z</time>
      </trkpt>
      <trkpt lat="48.43001" lon="2.67169">
        <ele>107.5</ele>
        <time>2018-11-18T09:24:33Z</time>
      </trkpt>
      <trkpt lat="48.43002" lon="2.67172">
        <ele>107.4</ele>
        <time>2018-11-18T09:24:34Z</time>
      </trkpt>
      <trkpt lat="48.43003" lon="2.67175">
        <ele>107.3</ele>
        <time>2018-11-18T09:24:35Z</time>
      </trkpt>
      <trkpt lat="48.43004" lon="2.67179">
        <ele>107.1</ele>
        <time>2018-11-18T09:24:36Z</time>
      </trkpt>
      <trkpt lat="48.43005" lon="2.67182">
        <ele>107</ele>
        <time>2018-11-18T09:24:37Z</time>
      </trkpt>
      <trkpt lat="48.43007" lon="2.67185">
        <ele>106.8</ele>
        <time>2018-11-18T09:24:38Z</time>
      </trkpt>
      <trkpt lat="48.43009" lon="2.67188">
        <ele>106.7</ele>
        <time>2018-11-18T09:24:39Z</time>
      </trkpt>
      <trkpt lat="48.43012" lon="2.67191">
        <ele>106.5</ele>
        <time>2018-11-18T09:24:40Z</time>
      </trkpt>
      <trkpt lat="48.43014" lon="2.67194">
        <ele>106.4</ele>
        <time>2018-11-18T09:24:41Z</time>
      </trkpt>
      <trkpt lat="48.43017" lon="2.67198">
        <ele>106.3</ele>
        <time>2018-11-18T09:24:42Z</time>
      </trkpt>
      <trkpt lat="48.4302" lon="2.67201">
        <ele>106.2</ele>
        <time>2018-11-18T09:24:43Z</time>
      </trkpt>
      <trkpt lat="48.43023" lon="2.67205">
        <ele>106</ele>
        <time>2018-11-18T09:24:44Z</time>
      </trkpt>
      <trkpt lat="48.43026" lon="2.67208">
        <ele>106</ele>
        <time>2018-11-18T09:24:45Z</time>
      </trkpt>
      <trkpt lat="48.43028" lon="2.67211">
        <ele>105.9</ele>
        <time>2018-11-18T09:24:46Z</time>
      </trkpt>
      <trkpt lat="48.4303" lon="2.67214">
        <ele>105.9</ele>
        <time>2018-11-18T09:24:47Z</time>
      </trkpt>
      <trkpt lat="48.43032" lon="2.67217">
        <ele>105.8</ele>
        <time>2018-11-18T09:24:48Z</time>
      </trkpt>
      <trkpt lat="48.43035" lon="2.6722">
        <ele>105.7</ele>
        <time>2018-11-18T09:24:49Z</time>
      </trkpt>
      <trkpt lat="48.43037" lon="2.67223">
        <ele>105.6</ele>
        <time>2018-11-18T09:24:50Z</time>
      </trkpt>
      <trkpt lat="48.4304" lon="2.67226">
        <ele>105.6</ele>
        <time>2018-11-18T09:24:51Z</time>
      </trkpt>
      <trkpt lat="48.43042" lon="2.67229">
        <ele>105.5</ele>
        <time>2018-11-18T09:24:52Z</time>
      </trkpt>
      <trkpt lat="48.43044" lon="2.67232">
        <ele>105.5</ele>
        <time>2018-11-18T09:24:53Z</time>
      </trkpt>
      <trkpt lat="48.43045" lon="2.67235">
        <ele>105.4</ele>
        <time>2018-11-18T09:24:54Z</time>
      </trkpt>
      <trkpt lat="48.43047" lon="2.67239">
        <ele>105.4</ele>
        <time>2018-11-18T09:24:55Z</time>
      </trkpt>
      <trkpt lat="48.4305" lon="2.67242">
        <ele>105.3</ele>
        <time>2018-11-18T09:24:56Z</time>
      </trkpt>
      <trkpt lat="48.43053" lon="2.67246">
        <ele>105.3</ele>
        <time>2018-11-18T09:24:57Z</time>
      </trkpt>
      <trkpt lat="48.43055" lon="2.67251">
        <ele>105.2</ele>
        <time>2018-11-18T09:24:58Z</time>
      </trkpt>
      <trkpt lat="48.43058" lon="2.67255">
        <ele>105.2</ele>
        <time>2018-11-18T09:24:59Z</time>
      </trkpt>
      <trkpt lat="48.43061" lon="2.67259">
        <ele>105.1</ele>
        <time>2018-11-18T09:25:00Z</time>
      </trkpt>
      <trkpt lat="48.43063" lon="2.67262">
        <ele>105.1</ele>
        <time>2018-11-18T09:25:01Z</time>
      </trkpt>
      <trkpt lat="48.43065" lon="2.67265">
        <ele>105.1</ele>
        <time>2018-11-18T09:25:02Z</time>
      </trkpt>
      <trkpt lat="48.43067" lon="2.67269">
        <ele>105.1</ele>
        <time>2018-11-18T09:25:03Z</time>
      </trkpt>
      <trkpt lat="48.43069" lon="2.67272">
        <ele>105.1</ele>
        <time>2018-11-18T09:25:04Z</time>
      </trkpt>
      <trkpt lat="48.43072" lon="2.67275">
        <ele>105</ele>
        <time>2018-11-18T09:25:05Z</time>
      </trkpt>
      <trkpt lat="48.43074" lon="2.67279">
        <ele>105</ele>
        <time>2018-11-18T09:25:06Z</time>
      </trkpt>
      <trkpt lat="48.43077" lon="2.67283">
        <ele>105</ele>
        <time>2018-11-18T09:25:07Z</time>
      </trkpt>
      <trkpt lat="48.43079" lon="2.67287">
        <ele>105</ele>
        <time>2018-11-18T09:25:08Z</time>
      </trkpt>
      <trkpt lat="48.43082" lon="2.6729">
        <ele>105</ele>
        <time>2018-11-18T09:25:09Z</time>
      </trkpt>
      <trkpt lat="48.43084" lon="2.67294">
        <ele>104.9</ele>
        <time>2018-11-18T09:25:10Z</time>
      </trkpt>
      <trkpt lat="48.43087" lon="2.67299">
        <ele>104.9</ele>
        <time>2018-11-18T09:25:11Z</time>
      </trkpt>
      <trkpt lat="48.4309" lon="2.67303">
        <ele>104.9</ele>
        <time>2018-11-18T09:25:12Z</time>
      </trkpt>
      <trkpt lat="48.43093" lon="2.67307">
        <ele>104.8</ele>
        <time>2018-11-18T09:25:13Z</time>
      </trkpt>
      <trkpt lat="48.43095" lon="2.67312">
        <ele>104.8</ele>
        <time>2018-11-18T09:25:14Z</time>
      </trkpt>
      <trkpt lat="48.43098" lon="2.67317">
        <ele>104.8</ele>
        <time>2018-11-18T09:25:15Z</time>
      </trkpt>
      <trkpt lat="48.431" lon="2.67322">
        <ele>104.7</ele>
        <time>2018-11-18T09:25:16Z</time>
      </trkpt>
      <trkpt lat="48.43103" lon="2.67326">
        <ele>104.7</ele>
        <time>2018-11-18T09:25:17Z</time>
      </trkpt>
      <trkpt lat="48.43105" lon="2.67331">
        <ele>104.7</ele>
        <time>2018-11-18T09:25:18Z</time>
      </trkpt>
      <trkpt lat="48.43107" lon="2.67336">
        <ele>104.7</ele>
        <time>2018-11-18T09:25:19Z</time>
      </trkpt>
      <trkpt lat="48.4311" lon="2.67341">
        <ele>104.7</ele>
        <time>2018-11-18T09:25:20Z</time>
      </trkpt>
      <trkpt lat="48.43113" lon="2.67346">
        <ele>104.7</ele>
        <time>2018-11-18T09:25:21Z</time>
      </trkpt>
      <trkpt lat="48.43115" lon="2.6735">
        <ele>104.7</ele>
        <time>2018-11-18T09:25:22Z</time>
      </trkpt>
      <trkpt lat="48.43117" lon="2.67355">
        <ele>104.7</ele>
        <time>2018-11-18T09:25:23Z</time>
      </trkpt>
      <trkpt lat="48.4312" lon="2.6736">
        <ele>104.8</ele>
        <time>2018-11-18T09:25:24Z</time>
      </trkpt>
      <trkpt lat="48.43122" lon="2.67364">
        <ele>104.8</ele>
        <time>2018-11-18T09:25:25Z</time>
      </trkpt>
      <trkpt lat="48.43124" lon="2.67368">
        <ele>104.8</ele>
        <time>2018-11-18T09:25:26Z</time>
      </trkpt>
      <trkpt lat="48.43126" lon="2.67372">
        <ele>104.8</ele>
        <time>2018-11-18T09:25:27Z</time>
      </trkpt>
      <trkpt lat="48.43128" lon="2.67376">
        <ele>104.8</ele>
        <time>2018-11-18T09:25:28Z</time>
      </trkpt>
      <trkpt lat="48.43131" lon="2.6738">
        <ele>104.8</ele>
        <time>2018-11-18T09:25:29Z</time>
      </trkpt>
      <trkpt lat="48.43133" lon="2.67385">
        <ele>104.9</ele>
        <time>2018-11-18T09:25:30Z</time>
      </trkpt>
      <trkpt lat="48.43136" lon="2.6739">
        <ele>104.9</ele>
        <time>2018-11-18T09:25:31Z</time>
      </trkpt>
      <trkpt lat="48.43138" lon="2.67395">
        <ele>104.9</ele>
        <time>2018-11-18T09:25:32Z</time>
      </trkpt>
      <trkpt lat="48.4314" lon="2.674">
        <ele>105</ele>
        <time>2018-11-18T09:25:33Z</time>
      </trkpt>
      <trkpt lat="48.43142" lon="2.67405">
        <ele>105</ele>
        <time>2018-11-18T09:25:34Z</time>
      </trkpt>
      <trkpt lat="48.43144" lon="2.67409">
        <ele>105</ele>
        <time>2018-11-18T09:25:35Z</time>
      </trkpt>
      <trkpt lat="48.43146" lon="2.67414">
        <ele>105</ele>
        <time>2018-11-18T09:25:36Z</time>
      </trkpt>
      <trkpt lat="48.43148" lon="2.67418">
        <ele>105.1</ele>
        <time>2018-11-18T09:25:37Z</time>
      </trkpt>
      <trkpt lat="48.43151" lon="2.67422">
        <ele>105.1</ele>
        <time>2018-11-18T09:25:38Z</time>
      </trkpt>
      <trkpt lat="48.43153" lon="2.67426">
        <ele>105.1</ele>
        <time>2018-11-18T09:25:39Z</time>
      </trkpt>
      <trkpt lat="48.43154" lon="2.6743">
        <ele>105.1</ele>
        <time>2018-11-18T09:25:40Z</time>
      </trkpt>
      <trkpt lat="48.43156" lon="2.67434">
        <ele>105.1</ele>
        <time>2018-11-18T09:25:41Z</time>
      </trkpt>
      <trkpt lat="48.43158" lon="2.67438">
        <ele>105.1</ele>
        <time>2018-11-18T09:25:42Z</time>
      </trkpt>
      <trkpt lat="48.4316" lon="2.67442">
        <ele>105.2</ele>
        <time>2018-11-18T09:25:43Z</time>
      </trkpt>
      <trkpt lat="48.43162" lon="2.67447">
        <ele>105.2</ele>
        <time>2018-11-18T09:25:44Z</time>
      </trkpt>
      <trkpt lat="48.43164" lon="2.67451">
        <ele>105.3</ele>
        <time>2018-11-18T09:25:45Z</time>
      </trkpt>
      <trkpt lat="48.43166" lon="2.67455">
        <ele>105.3</ele>
        <time>2018-11-18T09:25:46Z</time>
      </trkpt>
      <trkpt lat="48.43168" lon="2.67461">
        <ele>105.3</ele>
        <time>2018-11-18T09:25:47Z</time>
      </trkpt>
      <trkpt lat="48.43169" lon="2.67465">
        <ele>105.4</ele>
        <time>2018-11-18T09:25:48Z</time>
      </trkpt>
      <trkpt lat="48.43171" lon="2.67469">
        <ele>105.4</ele>
        <time>2018-11-18T09:25:49Z</time>
      </trkpt>
      <trkpt lat="48.43173" lon="2.67474">
        <ele>105.5</ele>
        <time>2018-11-18T09:25:50Z</time>
      </trkpt>
      <trkpt lat="48.43175" lon="2.67479">
        <ele>105.5</ele>
        <time>2018-11-18T09:25:51Z</time>
      </trkpt>
      <trkpt lat="48.43176" lon="2.67485">
        <ele>105.6</ele>
        <time>2018-11-18T09:25:52Z</time>
      </trkpt>
      <trkpt lat="48.43178" lon="2.67491">
        <ele>105.6</ele>
        <time>2018-11-18T09:25:53Z</time>
      </trkpt>
      <trkpt lat="48.43178" lon="2.67497">
        <ele>105.7</ele>
        <time>2018-11-18T09:25:54Z</time>
      </trkpt>
      <trkpt lat="48.43179" lon="2.67503">
        <ele>105.7</ele>
        <time>2018-11-18T09:25:55Z</time>
      </trkpt>
      <trkpt lat="48.4318" lon="2.67509">
        <ele>105.7</ele>
        <time>2018-11-18T09:25:56Z</time>
      </trkpt>
      <trkpt lat="48.43182" lon="2.67515">
        <ele>105.7</ele>
        <time>2018-11-18T09:25:57Z</time>
      </trkpt>
      <trkpt lat="48.43185" lon="2.6752">
        <ele>105.7</ele>
        <time>2018-11-18T09:25:58Z</time>
      </trkpt>
      <trkpt lat="48.43186" lon="2.67526">
        <ele>105.7</ele>
        <time>2018-11-18T09:25:59Z</time>
      </trkpt>
      <trkpt lat="48.43188" lon="2.67532">
        <ele>105.7</ele>
        <time>2018-11-18T09:26:00Z</time>
      </trkpt>
      <trkpt lat="48.43189" lon="2.67539">
        <ele>105.7</ele>
        <time>2018-11-18T09:26:01Z</time>
      </trkpt>
      <trkpt lat="48.43189" lon="2.67544">
        <ele>105.7</ele>
        <time>2018-11-18T09:26:02Z</time>
      </trkpt>
      <trkpt lat="48.4319" lon="2.6755">
        <ele>105.7</ele>
        <time>2018-11-18T09:26:03Z</time>
      </trkpt>
      <trkpt lat="48.43191" lon="2.67556">
        <ele>105.7</ele>
        <time>2018-11-18T09:26:04Z</time>
      </trkpt>
      <trkpt lat="48.43193" lon="2.67561">
        <ele>105.7</ele>
        <time>2018-11-18T09:26:05Z</time>
      </trkpt>
      <trkpt lat="48.43194" lon="2.67566">
        <ele>105.6</ele>
        <time>2018-11-18T09:26:06Z</time>
      </trkpt>
      <trkpt lat="48.43195" lon="2.67572">
        <ele>105.6</ele>
        <time>2018-11-18T09:26:07Z</time>
      </trkpt>
      <trkpt lat="48.43196" lon="2.67577">
        <ele>105.5</ele>
        <time>2018-11-18T09:26:08Z</time>
      </trkpt>
      <trkpt lat="48.43196" lon="2.67581">
        <ele>105.5</ele>
        <time>2018-11-18T09:26:09Z</time>
      </trkpt>
      <trkpt lat="48.43196" lon="2.67586">
        <ele>105.5</ele>
        <time>2018-11-18T09:26:10Z</time>
      </trkpt>
      <trkpt lat="48.43196" lon="2.67591">
        <ele>105.4</ele>
        <time>2018-11-18T09:26:11Z</time>
      </trkpt>
      <trkpt lat="48.43197" lon="2.67595">
        <ele>105.4</ele>
        <time>2018-11-18T09:26:12Z</time>
      </trkpt>
      <trkpt lat="48.43196" lon="2.67599">
        <ele>105.4</ele>
        <time>2018-11-18T09:26:13Z</time>
      </trkpt>
      <trkpt lat="48.43196" lon="2.67602">
        <ele>105.3</ele>
        <time>2018-11-18T09:26:14Z</time>
      </trkpt>
      <trkpt lat="48.43196" lon="2.67606">
        <ele>105.3</ele>
        <time>2018-11-18T09:26:15Z</time>
      </trkpt>
      <trkpt lat="48.43195" lon="2.67609">
        <ele>105.3</ele>
        <time>2018-11-18T09:26:16Z</time>
      </trkpt>
      <trkpt lat="48.43194" lon="2.67614">
        <ele>105.2</ele>
        <time>2018-11-18T09:26:17Z</time>
      </trkpt>
      <trkpt lat="48.43193" lon="2.6762">
        <ele>105.2</ele>
        <time>2018-11-18T09:26:18Z</time>
      </trkpt>
      <trkpt lat="48.43192" lon="2.67625">
        <ele>105.1</ele>
        <time>2018-11-18T09:26:19Z</time>
      </trkpt>
      <trkpt lat="48.43192" lon="2.67631">
        <ele>105.1</ele>
        <time>2018-11-18T09:26:20Z</time>
      </trkpt>
      <trkpt lat="48.43191" lon="2.67637">
        <ele>105</ele>
        <time>2018-11-18T09:26:21Z</time>
      </trkpt>
      <trkpt lat="48.43191" lon="2.67643">
        <ele>105</ele>
        <time>2018-11-18T09:26:22Z</time>
      </trkpt>
      <trkpt lat="48.4319" lon="2.6765">
        <ele>104.9</ele>
        <time>2018-11-18T09:26:23Z</time>
      </trkpt>
      <trkpt lat="48.4319" lon="2.67656">
        <ele>104.8</ele>
        <time>2018-11-18T09:26:24Z</time>
      </trkpt>
      <trkpt lat="48.4319" lon="2.67662">
        <ele>104.7</ele>
        <time>2018-11-18T09:26:25Z</time>
      </trkpt>
      <trkpt lat="48.4319" lon="2.67668">
        <ele>104.7</ele>
        <time>2018-11-18T09:26:26Z</time>
      </trkpt>
      <trkpt lat="48.4319" lon="2.67675">
        <ele>104.6</ele>
        <time>2018-11-18T09:26:27Z</time>
      </trkpt>
      <trkpt lat="48.4319" lon="2.67681">
        <ele>104.5</ele>
        <time>2018-11-18T09:26:28Z</time>
      </trkpt>
      <trkpt lat="48.4319" lon="2.67686">
        <ele>104.4</ele>
        <time>2018-11-18T09:26:29Z</time>
      </trkpt>
      <trkpt lat="48.43189" lon="2.67691">
        <ele>104.3</ele>
        <time>2018-11-18T09:26:30Z</time>
      </trkpt>
      <trkpt lat="48.43189" lon="2.67696">
        <ele>104.2</ele>
        <time>2018-11-18T09:26:31Z</time>
      </trkpt>
      <trkpt lat="48.43189" lon="2.67702">
        <ele>104.2</ele>
        <time>2018-11-18T09:26:32Z</time>
      </trkpt>
      <trkpt lat="48.43189" lon="2.67708">
        <ele>104.1</ele>
        <time>2018-11-18T09:26:33Z</time>
      </trkpt>
      <trkpt lat="48.43189" lon="2.67713">
        <ele>104.1</ele>
        <time>2018-11-18T09:26:34Z</time>
      </trkpt>
      <trkpt lat="48.43188" lon="2.67718">
        <ele>104</ele>
        <time>2018-11-18T09:26:35Z</time>
      </trkpt>
      <trkpt lat="48.43188" lon="2.67723">
        <ele>104</ele>
        <time>2018-11-18T09:26:36Z</time>
      </trkpt>
      <trkpt lat="48.43188" lon="2.67729">
        <ele>104</ele>
        <time>2018-11-18T09:26:37Z</time>
      </trkpt>
      <trkpt lat="48.43187" lon="2.67734">
        <ele>104</ele>
        <time>2018-11-18T09:26:38Z</time>
      </trkpt>
      <trkpt lat="48.43187" lon="2.67739">
        <ele>104</ele>
        <time>2018-11-18T09:26:39Z</time>
      </trkpt>
      <trkpt lat="48.43187" lon="2.67745">
        <ele>104</ele>
        <time>2018-11-18T09:26:40Z</time>
      </trkpt>
      <trkpt lat="48.43186" lon="2.67751">
        <ele>104</ele>
        <time>2018-11-18T09:26:41Z</time>
      </trkpt>
      <trkpt lat="48.43186" lon="2.67757">
        <ele>104</ele>
        <time>2018-11-18T09:26:42Z</time>
      </trkpt>
      <trkpt lat="48.43185" lon="2.67764">
        <ele>104</ele>
        <time>2018-11-18T09:26:43Z</time>
      </trkpt>
      <trkpt lat="48.43184" lon="2.67771">
        <ele>103.9</ele>
        <time>2018-11-18T09:26:44Z</time>
      </trkpt>
      <trkpt lat="48.43183" lon="2.67776">
        <ele>103.9</ele>
        <time>2018-11-18T09:26:45Z</time>
      </trkpt>
      <trkpt lat="48.43183" lon="2.67781">
        <ele>103.9</ele>
        <time>2018-11-18T09:26:46Z</time>
      </trkpt>
      <trkpt lat="48.43182" lon="2.67786">
        <ele>103.9</ele>
        <time>2018-11-18T09:26:47Z</time>
      </trkpt>
      <trkpt lat="48.43181" lon="2.67791">
        <ele>103.9</ele>
        <time>2018-11-18T09:26:48Z</time>
      </trkpt>
      <trkpt lat="48.43181" lon="2.67796">
        <ele>103.9</ele>
        <time>2018-11-18T09:26:49Z</time>
      </trkpt>
      <trkpt lat="48.4318" lon="2.67801">
        <ele>103.9</ele>
        <time>2018-11-18T09:26:50Z</time>
      </trkpt>
      <trkpt lat="48.4318" lon="2.67807">
        <ele>103.9</ele>
        <time>2018-11-18T09:26:51Z</time>
      </trkpt>
      <trkpt lat="48.43181" lon="2.67813">
        <ele>103.8</ele>
        <time>2018-11-18T09:26:52Z</time>
      </trkpt>
      <trkpt lat="48.43181" lon="2.67818">
        <ele>103.8</ele>
        <time>2018-11-18T09:26:53Z</time>
      </trkpt>
      <trkpt lat="48.43181" lon="2.67824">
        <ele>103.8</ele>
        <time>2018-11-18T09:26:54Z</time>
      </trkpt>
      <trkpt lat="48.4318" lon="2.6783">
        <ele>103.9</ele>
        <time>2018-11-18T09:26:55Z</time>
      </trkpt>
      <trkpt lat="48.4318" lon="2.67836">
        <ele>103.9</ele>
        <time>2018-11-18T09:26:56Z</time>
      </trkpt>
      <trkpt lat="48.43179" lon="2.67841">
        <ele>103.9</ele>
        <time>2018-11-18T09:26:57Z</time>
      </trkpt>
      <trkpt lat="48.43178" lon="2.67846">
        <ele>104</ele>
        <time>2018-11-18T09:26:58Z</time>
      </trkpt>
      <trkpt lat="48.43177" lon="2.67851">
        <ele>104</ele>
        <time>2018-11-18T09:26:59Z</time>
      </trkpt>
      <trkpt lat="48.43176" lon="2.67855">
        <ele>104.1</ele>
        <time>2018-11-18T09:27:00Z</time>
      </trkpt>
      <trkpt lat="48.43175" lon="2.67859">
        <ele>104.1</ele>
        <time>2018-11-18T09:27:01Z</time>
      </trkpt>
      <trkpt lat="48.43173" lon="2.67864">
        <ele>104.2</ele>
        <time>2018-11-18T09:27:02Z</time>
      </trkpt>
      <trkpt lat="48.43172" lon="2.67868">
        <ele>104.3</ele>
        <time>2018-11-18T09:27:03Z</time>
      </trkpt>
      <trkpt lat="48.4317" lon="2.67872">
        <ele>104.4</ele>
        <time>2018-11-18T09:27:04Z</time>
      </trkpt>
      <trkpt lat="48.43168" lon="2.67877">
        <ele>104.5</ele>
        <time>2018-11-18T09:27:05Z</time>
      </trkpt>
      <trkpt lat="48.43166" lon="2.67882">
        <ele>104.6</ele>
        <time>2018-11-18T09:27:06Z</time>
      </trkpt>
      <trkpt lat="48.43164" lon="2.67887">
        <ele>104.7</ele>
        <time>2018-11-18T09:27:07Z</time>
      </trkpt>
      <trkpt lat="48.43162" lon="2.67892">
        <ele>104.7</ele>
        <time>2018-11-18T09:27:08Z</time>
      </trkpt>
      <trkpt lat="48.4316" lon="2.67896">
        <ele>104.8</ele>
        <time>2018-11-18T09:27:09Z</time>
      </trkpt>
      <trkpt lat="48.43157" lon="2.67901">
        <ele>104.8</ele>
        <time>2018-11-18T09:27:10Z</time>
      </trkpt>
      <trkpt lat="48.43155" lon="2.67905">
        <ele>104.9</ele>
        <time>2018-11-18T09:27:11Z</time>
      </trkpt>
      <trkpt lat="48.43152" lon="2.6791">
        <ele>104.9</ele>
        <time>2018-11-18T09:27:12Z</time>
      </trkpt>
      <trkpt lat="48.43151" lon="2.67915">
        <ele>104.9</ele>
        <time>2018-11-18T09:27:13Z</time>
      </trkpt>
      <trkpt lat="48.43151" lon="2.6792">
        <ele>105</ele>
        <time>2018-11-18T09:27:14Z</time>
      </trkpt>
      <trkpt lat="48.43151" lon="2.67924">
        <ele>105</ele>
        <time>2018-11-18T09:27:15Z</time>
      </trkpt>
      <trkpt lat="48.43153" lon="2.67928">
        <ele>105</ele>
        <time>2018-11-18T09:27:16Z</time>
      </trkpt>
      <trkpt lat="48.43154" lon="2.67932">
        <ele>105.1</ele>
        <time>2018-11-18T09:27:17Z</time>
      </trkpt>
      <trkpt lat="48.43155" lon="2.67937">
        <ele>105.1</ele>
        <time>2018-11-18T09:27:18Z</time>
      </trkpt>
      <trkpt lat="48.43157" lon="2.67941">
        <ele>105.1</ele>
        <time>2018-11-18T09:27:19Z</time>
      </trkpt>
      <trkpt lat="48.43159" lon="2.67945">
        <ele>103.2</ele>
        <time>2018-11-18T09:27:20Z</time>
      </trkpt>
      <trkpt lat="48.43161" lon="2.6795">
        <ele>103</ele>
        <time>2018-11-18T09:27:21Z</time>
      </trkpt>
      <trkpt lat="48.43163" lon="2.67953">
        <ele>102.8</ele>
        <time>2018-11-18T09:27:22Z</time>
      </trkpt>
      <trkpt lat="48.43166" lon="2.67957">
        <ele>102.6</ele>
        <time>2018-11-18T09:27:23Z</time>
      </trkpt>
      <trkpt lat="48.43169" lon="2.67959">
        <ele>102.5</ele>
        <time>2018-11-18T09:27:24Z</time>
      </trkpt>
      <trkpt lat="48.43172" lon="2.67961">
        <ele>102.3</ele>
        <time>2018-11-18T09:27:25Z</time>
      </trkpt>
      <trkpt lat="48.43175" lon="2.67964">
        <ele>102.2</ele>
        <time>2018-11-18T09:27:26Z</time>
      </trkpt>
      <trkpt lat="48.43178" lon="2.67967">
        <ele>102</ele>
        <time>2018-11-18T09:27:27Z</time>
      </trkpt>
      <trkpt lat="48.4318" lon="2.67971">
        <ele>101.9</ele>
        <time>2018-11-18T09:27:28Z</time>
      </trkpt>
      <trkpt lat="48.43183" lon="2.67974">
        <ele>101.7</ele>
        <time>2018-11-18T09:27:29Z</time>
      </trkpt>
      <trkpt lat="48.43186" lon="2.67978">
        <ele>101.5</ele>
        <time>2018-11-18T09:27:30Z</time>
      </trkpt>
      <trkpt lat="48.43188" lon="2.67981">
        <ele>101.3</ele>
        <time>2018-11-18T09:27:31Z</time>
      </trkpt>
      <trkpt lat="48.4319" lon="2.67984">
        <ele>101.1</ele>
        <time>2018-11-18T09:27:32Z</time>
      </trkpt>
      <trkpt lat="48.43193" lon="2.67987">
        <ele>101.1</ele>
        <time>2018-11-18T09:27:33Z</time>
      </trkpt>
      <trkpt lat="48.43195" lon="2.67992">
        <ele>101</ele>
        <time>2018-11-18T09:27:34Z</time>
      </trkpt>
      <trkpt lat="48.43197" lon="2.67996">
        <ele>100.9</ele>
        <time>2018-11-18T09:27:35Z</time>
      </trkpt>
      <trkpt lat="48.43198" lon="2.68001">
        <ele>100.8</ele>
        <time>2018-11-18T09:27:36Z</time>
      </trkpt>
      <trkpt lat="48.432" lon="2.68007">
        <ele>100.7</ele>
        <time>2018-11-18T09:27:37Z</time>
      </trkpt>
      <trkpt lat="48.43202" lon="2.68011">
        <ele>100.7</ele>
        <time>2018-11-18T09:27:38Z</time>
      </trkpt>
      <trkpt lat="48.43203" lon="2.68015">
        <ele>100.6</ele>
        <time>2018-11-18T09:27:39Z</time>
      </trkpt>
      <trkpt lat="48.43206" lon="2.68019">
        <ele>100.6</ele>
        <time>2018-11-18T09:27:40Z</time>
      </trkpt>
      <trkpt lat="48.43208" lon="2.68022">
        <ele>100.6</ele>
        <time>2018-11-18T09:27:41Z</time>
      </trkpt>
      <trkpt lat="48.4321" lon="2.68026">
        <ele>100.6</ele>
        <time>2018-11-18T09:27:42Z</time>
      </trkpt>
      <trkpt lat="48.43212" lon="2.68029">
        <ele>100.6</ele>
        <time>2018-11-18T09:27:43Z</time>
      </trkpt>
      <trkpt lat="48.43214" lon="2.68032">
        <ele>100.6</ele>
        <time>2018-11-18T09:27:44Z</time>
      </trkpt>
      <trkpt lat="48.43215" lon="2.68036">
        <ele>100.6</ele>
        <time>2018-11-18T09:27:45Z</time>
      </trkpt>
      <trkpt lat="48.43217" lon="2.68039">
        <ele>100.6</ele>
        <time>2018-11-18T09:27:46Z</time>
      </trkpt>
      <trkpt lat="48.43219" lon="2.68043">
        <ele>100.6</ele>
        <time>2018-11-18T09:27:47Z</time>
      </trkpt>
      <trkpt lat="48.4322" lon="2.68046">
        <ele>100.7</ele>
        <time>2018-11-18T09:27:48Z</time>
      </trkpt>
      <trkpt lat="48.43222" lon="2.68049">
        <ele>100.7</ele>
        <time>2018-11-18T09:27:49Z</time>
      </trkpt>
      <trkpt lat="48.43223" lon="2.68052">
        <ele>100.7</ele>
        <time>2018-11-18T09:27:50Z</time>
      </trkpt>
      <trkpt lat="48.43224" lon="2.68055">
        <ele>100.7</ele>
        <time>2018-11-18T09:27:51Z</time>
      </trkpt>
      <trkpt lat="48.43226" lon="2.68059">
        <ele>100.8</ele>
        <time>2018-11-18T09:27:52Z</time>
      </trkpt>
      <trkpt lat="48.43228" lon="2.68063">
        <ele>100.8</ele>
        <time>2018-11-18T09:27:53Z</time>
      </trkpt>
      <trkpt lat="48.4323" lon="2.68067">
        <ele>100.9</ele>
        <time>2018-11-18T09:27:54Z</time>
      </trkpt>
      <trkpt lat="48.43232" lon="2.68072">
        <ele>101</ele>
        <time>2018-11-18T09:27:55Z</time>
      </trkpt>
      <trkpt lat="48.43235" lon="2.68076">
        <ele>101</ele>
        <time>2018-11-18T09:27:56Z</time>
      </trkpt>
      <trkpt lat="48.43236" lon="2.6808">
        <ele>101</ele>
        <time>2018-11-18T09:27:57Z</time>
      </trkpt>
      <trkpt lat="48.43238" lon="2.68083">
        <ele>101.1</ele>
        <time>2018-11-18T09:27:58Z</time>
      </trkpt>
      <trkpt lat="48.4324" lon="2.68087">
        <ele>101.1</ele>
        <time>2018-11-18T09:27:59Z</time>
      </trkpt>
      <trkpt lat="48.43242" lon="2.68092">
        <ele>101.1</ele>
        <time>2018-11-18T09:28:00Z</time>
      </trkpt>
      <trkpt lat="48.43244" lon="2.68096">
        <ele>101</ele>
        <time>2018-11-18T09:28:01Z</time>
      </trkpt>
      <trkpt lat="48.43246" lon="2.681">
        <ele>101</ele>
        <time>2018-11-18T09:28:02Z</time>
      </trkpt>
      <trkpt lat="48.43248" lon="2.68105">
        <ele>101</ele>
        <time>2018-11-18T09:28:03Z</time>
      </trkpt>
      <trkpt lat="48.43251" lon="2.6811">
        <ele>100.9</ele>
        <time>2018-11-18T09:28:04Z</time>
      </trkpt>
      <trkpt lat="48.43253" lon="2.68115">
        <ele>100.8</ele>
        <time>2018-11-18T09:28:05Z</time>
      </trkpt>
      <trkpt lat="48.43255" lon="2.68121">
        <ele>100.8</ele>
        <time>2018-11-18T09:28:06Z</time>
      </trkpt>
      <trkpt lat="48.43257" lon="2.68127">
        <ele>100.7</ele>
        <time>2018-11-18T09:28:07Z</time>
      </trkpt>
      <trkpt lat="48.4326" lon="2.68133">
        <ele>100.6</ele>
        <time>2018-11-18T09:28:08Z</time>
      </trkpt>
      <trkpt lat="48.43262" lon="2.68139">
        <ele>100.5</ele>
        <time>2018-11-18T09:28:09Z</time>
      </trkpt>
      <trkpt lat="48.43264" lon="2.68145">
        <ele>100.4</ele>
        <time>2018-11-18T09:28:10Z</time>
      </trkpt>
      <trkpt lat="48.43265" lon="2.68151">
        <ele>100.3</ele>
        <time>2018-11-18T09:28:11Z</time>
      </trkpt>
      <trkpt lat="48.43265" lon="2.68158">
        <ele>100.2</ele>
        <time>2018-11-18T09:28:12Z</time>
      </trkpt>
      <trkpt lat="48.43264" lon="2.68163">
        <ele>100.2</ele>
        <time>2018-11-18T09:28:13Z</time>
      </trkpt>
      <trkpt lat="48.43264" lon="2.68167">
        <ele>100.1</ele>
        <time>2018-11-18T09:28:14Z</time>
      </trkpt>
      <trkpt lat="48.43264" lon="2.68172">
        <ele>100</ele>
        <time>2018-11-18T09:28:15Z</time>
      </trkpt>
      <trkpt lat="48.43263" lon="2.68177">
        <ele>99.9</ele>
        <time>2018-11-18T09:28:16Z</time>
      </trkpt>
      <trkpt lat="48.43262" lon="2.68183">
        <ele>99.7</ele>
        <time>2018-11-18T09:28:17Z</time>
      </trkpt>
      <trkpt lat="48.43262" lon="2.6819">
        <ele>99.6</ele>
        <time>2018-11-18T09:28:18Z</time>
      </trkpt>
      <trkpt lat="48.43261" lon="2.68196">
        <ele>99.7</ele>
        <time>2018-11-18T09:28:19Z</time>
      </trkpt>
      <trkpt lat="48.4326" lon="2.68202">
        <ele>99.7</ele>
        <time>2018-11-18T09:28:20Z</time>
      </trkpt>
      <trkpt lat="48.43259" lon="2.68207">
        <ele>99.8</ele>
        <time>2018-11-18T09:28:21Z</time>
      </trkpt>
      <trkpt lat="48.43258" lon="2.68212">
        <ele>99.8</ele>
        <time>2018-11-18T09:28:22Z</time>
      </trkpt>
      <trkpt lat="48.43257" lon="2.68217">
        <ele>99.9</ele>
        <time>2018-11-18T09:28:23Z</time>
      </trkpt>
      <trkpt lat="48.43256" lon="2.68223">
        <ele>99.9</ele>
        <time>2018-11-18T09:28:24Z</time>
      </trkpt>
      <trkpt lat="48.43255" lon="2.6823">
        <ele>100</ele>
        <time>2018-11-18T09:28:25Z</time>
      </trkpt>
      <trkpt lat="48.43254" lon="2.68242">
        <ele>99.9</ele>
        <time>2018-11-18T09:28:26Z</time>
      </trkpt>
      <trkpt lat="48.43254" lon="2.68252">
        <ele>99.6</ele>
        <time>2018-11-18T09:28:27Z</time>
      </trkpt>
      <trkpt lat="48.43251" lon="2.68261">
        <ele>100.1</ele>
        <time>2018-11-18T09:28:28Z</time>
      </trkpt>
      <trkpt lat="48.4325" lon="2.68269">
        <ele>99.9</ele>
        <time>2018-11-18T09:28:29Z</time>
      </trkpt>
      <trkpt lat="48.43249" lon="2.68275">
        <ele>100.6</ele>
        <time>2018-11-18T09:28:30Z</time>
      </trkpt>
      <trkpt lat="48.43248" lon="2.68282">
        <ele>100.5</ele>
        <time>2018-11-18T09:28:31Z</time>
      </trkpt>
      <trkpt lat="48.43246" lon="2.68288">
        <ele>101.2</ele>
        <time>2018-11-18T09:28:32Z</time>
      </trkpt>
      <trkpt lat="48.43245" lon="2.68294">
        <ele>101.2</ele>
        <time>2018-11-18T09:28:33Z</time>
      </trkpt>
      <trkpt lat="48.43243" lon="2.68299">
        <ele>101.3</ele>
        <time>2018-11-18T09:28:34Z</time>
      </trkpt>
      <trkpt lat="48.43242" lon="2.68305">
        <ele>101.4</ele>
        <time>2018-11-18T09:28:35Z</time>
      </trkpt>
      <trkpt lat="48.4324" lon="2.6831">
        <ele>101.5</ele>
        <time>2018-11-18T09:28:36Z</time>
      </trkpt>
      <trkpt lat="48.43239" lon="2.68315">
        <ele>101.6</ele>
        <time>2018-11-18T09:28:37Z</time>
      </trkpt>
      <trkpt lat="48.43238" lon="2.68321">
        <ele>101.7</ele>
        <time>2018-11-18T09:28:38Z</time>
      </trkpt>
      <trkpt lat="48.43237" lon="2.68326">
        <ele>101.8</ele>
        <time>2018-11-18T09:28:39Z</time>
      </trkpt>
      <trkpt lat="48.43235" lon="2.68331">
        <ele>101.9</ele>
        <time>2018-11-18T09:28:40Z</time>
      </trkpt>
      <trkpt lat="48.43234" lon="2.68335">
        <ele>102</ele>
        <time>2018-11-18T09:28:41Z</time>
      </trkpt>
      <trkpt lat="48.43233" lon="2.68339">
        <ele>102.1</ele>
        <time>2018-11-18T09:28:42Z</time>
      </trkpt>
      <trkpt lat="48.43232" lon="2.68345">
        <ele>102.4</ele>
        <time>2018-11-18T09:28:43Z</time>
      </trkpt>
      <trkpt lat="48.43232" lon="2.68349">
        <ele>102.6</ele>
        <time>2018-11-18T09:28:44Z</time>
      </trkpt>
      <trkpt lat="48.43231" lon="2.68353">
        <ele>102.7</ele>
        <time>2018-11-18T09:28:45Z</time>
      </trkpt>
      <trkpt lat="48.43229" lon="2.68356">
        <ele>102.8</ele>
        <time>2018-11-18T09:28:46Z</time>
      </trkpt>
      <trkpt lat="48.43228" lon="2.68359">
        <ele>102.9</ele>
        <time>2018-11-18T09:28:47Z</time>
      </trkpt>
      <trkpt lat="48.43226" lon="2.68362">
        <ele>103</ele>
        <time>2018-11-18T09:28:48Z</time>
      </trkpt>
      <trkpt lat="48.43225" lon="2.68364">
        <ele>103.1</ele>
        <time>2018-11-18T09:28:49Z</time>
      </trkpt>
      <trkpt lat="48.43223" lon="2.68367">
        <ele>103.3</ele>
        <time>2018-11-18T09:28:50Z</time>
      </trkpt>
      <trkpt lat="48.43221" lon="2.68369">
        <ele>103.4</ele>
        <time>2018-11-18T09:28:51Z</time>
      </trkpt>
      <trkpt lat="48.43219" lon="2.68372">
        <ele>103.6</ele>
        <time>2018-11-18T09:28:52Z</time>
      </trkpt>
      <trkpt lat="48.43217" lon="2.68375">
        <ele>104</ele>
        <time>2018-11-18T09:28:53Z</time>
      </trkpt>
      <trkpt lat="48.43215" lon="2.68378">
        <ele>104.2</ele>
        <time>2018-11-18T09:28:54Z</time>
      </trkpt>
      <trkpt lat="48.43213" lon="2.68381">
        <ele>104.4</ele>
        <time>2018-11-18T09:28:55Z</time>
      </trkpt>
      <trkpt lat="48.43212" lon="2.68383">
        <ele>104.5</ele>
        <time>2018-11-18T09:28:56Z</time>
      </trkpt>
      <trkpt lat="48.4321" lon="2.68386">
        <ele>104.7</ele>
        <time>2018-11-18T09:28:57Z</time>
      </trkpt>
      <trkpt lat="48.43208" lon="2.68389">
        <ele>104.9</ele>
        <time>2018-11-18T09:28:58Z</time>
      </trkpt>
      <trkpt lat="48.43206" lon="2.68391">
        <ele>105.1</ele>
        <time>2018-11-18T09:28:59Z</time>
      </trkpt>
      <trkpt lat="48.43204" lon="2.68394">
        <ele>105.3</ele>
        <time>2018-11-18T09:29:00Z</time>
      </trkpt>
      <trkpt lat="48.43202" lon="2.68396">
        <ele>105.5</ele>
        <time>2018-11-18T09:29:01Z</time>
      </trkpt>
      <trkpt lat="48.432" lon="2.68398">
        <ele>105.6</ele>
        <time>2018-11-18T09:29:02Z</time>
      </trkpt>
      <trkpt lat="48.43197" lon="2.684">
        <ele>105.8</ele>
        <time>2018-11-18T09:29:03Z</time>
      </trkpt>
      <trkpt lat="48.43195" lon="2.68402">
        <ele>106</ele>
        <time>2018-11-18T09:29:04Z</time>
      </trkpt>
      <trkpt lat="48.43194" lon="2.68405">
        <ele>106.1</ele>
        <time>2018-11-18T09:29:05Z</time>
      </trkpt>
      <trkpt lat="48.43193" lon="2.68407">
        <ele>106.3</ele>
        <time>2018-11-18T09:29:06Z</time>
      </trkpt>
      <trkpt lat="48.43191" lon="2.68409">
        <ele>106.5</ele>
        <time>2018-11-18T09:29:07Z</time>
      </trkpt>
      <trkpt lat="48.43189" lon="2.68411">
        <ele>106.7</ele>
        <time>2018-11-18T09:29:08Z</time>
      </trkpt>
      <trkpt lat="48.43188" lon="2.68413">
        <ele>106.9</ele>
        <time>2018-11-18T09:29:09Z</time>
      </trkpt>
      <trkpt lat="48.43187" lon="2.68416">
        <ele>107.1</ele>
        <time>2018-11-18T09:29:10Z</time>
      </trkpt>
      <trkpt lat="48.43186" lon="2.68418">
        <ele>107.3</ele>
        <time>2018-11-18T09:29:11Z</time>
      </trkpt>
      <trkpt lat="48.43185" lon="2.6842">
        <ele>107.4</ele>
        <time>2018-11-18T09:29:12Z</time>
      </trkpt>
      <trkpt lat="48.43183" lon="2.68423">
        <ele>107.6</ele>
        <time>2018-11-18T09:29:13Z</time>
      </trkpt>
      <trkpt lat="48.43182" lon="2.68425">
        <ele>107.8</ele>
        <time>2018-11-18T09:29:14Z</time>
      </trkpt>
      <trkpt lat="48.4318" lon="2.68428">
        <ele>107.9</ele>
        <time>2018-11-18T09:29:15Z</time>
      </trkpt>
      <trkpt lat="48.43178" lon="2.6843">
        <ele>108.4</ele>
        <time>2018-11-18T09:29:16Z</time>
      </trkpt>
      <trkpt lat="48.43177" lon="2.68432">
        <ele>108.4</ele>
        <time>2018-11-18T09:29:17Z</time>
      </trkpt>
      <trkpt lat="48.43177" lon="2.68435">
        <ele>108.4</ele>
        <time>2018-11-18T09:29:18Z</time>
      </trkpt>
      <trkpt lat="48.43178" lon="2.68439">
        <ele>108.4</ele>
        <time>2018-11-18T09:29:19Z</time>
      </trkpt>
      <trkpt lat="48.43178" lon="2.68443">
        <ele>108.4</ele>
        <time>2018-11-18T09:29:20Z</time>
      </trkpt>
      <trkpt lat="48.43177" lon="2.68448">
        <ele>108.4</ele>
        <time>2018-11-18T09:29:21Z</time>
      </trkpt>
      <trkpt lat="48.43176" lon="2.68453">
        <ele>108.4</ele>
        <time>2018-11-18T09:29:22Z</time>
      </trkpt>
      <trkpt lat="48.43175" lon="2.68458">
        <ele>108.4</ele>
        <time>2018-11-18T09:29:23Z</time>
      </trkpt>
      <trkpt lat="48.43174" lon="2.68463">
        <ele>108.5</ele>
        <time>2018-11-18T09:29:24Z</time>
      </trkpt>
      <trkpt lat="48.43172" lon="2.68468">
        <ele>108.5</ele>
        <time>2018-11-18T09:29:25Z</time>
      </trkpt>
      <trkpt lat="48.43171" lon="2.68472">
        <ele>108.5</ele>
        <time>2018-11-18T09:29:26Z</time>
      </trkpt>
      <trkpt lat="48.4317" lon="2.68476">
        <ele>108.6</ele>
        <time>2018-11-18T09:29:27Z</time>
      </trkpt>
      <trkpt lat="48.43169" lon="2.6848">
        <ele>108.6</ele>
        <time>2018-11-18T09:29:28Z</time>
      </trkpt>
      <trkpt lat="48.43168" lon="2.68484">
        <ele>108.6</ele>
        <time>2018-11-18T09:29:29Z</time>
      </trkpt>
      <trkpt lat="48.43167" lon="2.68487">
        <ele>108.6</ele>
        <time>2018-11-18T09:29:30Z</time>
      </trkpt>
      <trkpt lat="48.43166" lon="2.6849">
        <ele>108.6</ele>
        <time>2018-11-18T09:29:31Z</time>
      </trkpt>
      <trkpt lat="48.43165" lon="2.68494">
        <ele>108.7</ele>
        <time>2018-11-18T09:29:32Z</time>
      </trkpt>
      <trkpt lat="48.43164" lon="2.68498">
        <ele>108.7</ele>
        <time>2018-11-18T09:29:33Z</time>
      </trkpt>
      <trkpt lat="48.43163" lon="2.68502">
        <ele>108.7</ele>
        <time>2018-11-18T09:29:34Z</time>
      </trkpt>
      <trkpt lat="48.43162" lon="2.68506">
        <ele>108.8</ele>
        <time>2018-11-18T09:29:35Z</time>
      </trkpt>
      <trkpt lat="48.43161" lon="2.6851">
        <ele>108.8</ele>
        <time>2018-11-18T09:29:36Z</time>
      </trkpt>
      <trkpt lat="48.4316" lon="2.68515">
        <ele>108.9</ele>
        <time>2018-11-18T09:29:37Z</time>
      </trkpt>
      <trkpt lat="48.43158" lon="2.68518">
        <ele>108.9</ele>
        <time>2018-11-18T09:29:38Z</time>
      </trkpt>
      <trkpt lat="48.43157" lon="2.68522">
        <ele>108.9</ele>
        <time>2018-11-18T09:29:39Z</time>
      </trkpt>
      <trkpt lat="48.43156" lon="2.68526">
        <ele>109</ele>
        <time>2018-11-18T09:29:40Z</time>
      </trkpt>
      <trkpt lat="48.43155" lon="2.68529">
        <ele>109</ele>
        <time>2018-11-18T09:29:41Z</time>
      </trkpt>
      <trkpt lat="48.43154" lon="2.68532">
        <ele>109</ele>
        <time>2018-11-18T09:29:42Z</time>
      </trkpt>
      <trkpt lat="48.43153" lon="2.68535">
        <ele>109.1</ele>
        <time>2018-11-18T09:29:43Z</time>
      </trkpt>
      <trkpt lat="48.43151" lon="2.68537">
        <ele>109.1</ele>
        <time>2018-11-18T09:29:44Z</time>
      </trkpt>
      <trkpt lat="48.4315" lon="2.68539">
        <ele>109.1</ele>
        <time>2018-11-18T09:29:45Z</time>
      </trkpt>
      <trkpt lat="48.43149" lon="2.6854">
        <ele>109.1</ele>
        <time>2018-11-18T09:29:46Z</time>
      </trkpt>
      <trkpt lat="48.43148" lon="2.68541">
        <ele>109.2</ele>
        <time>2018-11-18T09:29:47Z</time>
      </trkpt>
      <trkpt lat="48.43147" lon="2.68541">
        <ele>109.2</ele>
        <time>2018-11-18T09:29:48Z</time>
      </trkpt>
      <trkpt lat="48.43146" lon="2.68542">
        <ele>109.2</ele>
        <time>2018-11-18T09:29:49Z</time>
      </trkpt>
      <trkpt lat="48.43146" lon="2.68543">
        <ele>109.2</ele>
        <time>2018-11-18T09:29:50Z</time>
      </trkpt>
      <trkpt lat="48.43146" lon="2.68543">
        <ele>109.2</ele>
        <time>2018-11-18T09:29:51Z</time>
      </trkpt>
      <trkpt lat="48.43145" lon="2.68543">
        <ele>109.2</ele>
        <time>2018-11-18T09:29:52Z</time>
      </trkpt>
      <trkpt lat="48.43145" lon="2.68543">
        <ele>109.2</ele>
        <time>2018-11-18T09:29:53Z</time>
      </trkpt>
      <trkpt lat="48.43145" lon="2.68543">
        <ele>109.2</ele>
        <time>2018-11-18T09:30:20Z</time>
      </trkpt>
      <trkpt lat="48.43144" lon="2.68544">
        <ele>109.3</ele>
        <time>2018-11-18T09:30:21Z</time>
      </trkpt>
      <trkpt lat="48.43144" lon="2.68546">
        <ele>109.3</ele>
        <time>2018-11-18T09:30:22Z</time>
      </trkpt>
      <trkpt lat="48.43143" lon="2.68548">
        <ele>109.4</ele>
        <time>2018-11-18T09:30:23Z</time>
      </trkpt>
      <trkpt lat="48.43142" lon="2.68549">
        <ele>109.4</ele>
        <time>2018-11-18T09:30:24Z</time>
      </trkpt>
      <trkpt lat="48.43141" lon="2.68552">
        <ele>109.5</ele>
        <time>2018-11-18T09:30:25Z</time>
      </trkpt>
      <trkpt lat="48.4314" lon="2.68555">
        <ele>109.6</ele>
        <time>2018-11-18T09:30:26Z</time>
      </trkpt>
      <trkpt lat="48.4314" lon="2.68557">
        <ele>109.7</ele>
        <time>2018-11-18T09:30:27Z</time>
      </trkpt>
      <trkpt lat="48.43139" lon="2.68559">
        <ele>109.7</ele>
        <time>2018-11-18T09:30:28Z</time>
      </trkpt>
      <trkpt lat="48.43139" lon="2.68562">
        <ele>109.8</ele>
        <time>2018-11-18T09:30:29Z</time>
      </trkpt>
      <trkpt lat="48.43138" lon="2.68565">
        <ele>109.9</ele>
        <time>2018-11-18T09:30:30Z</time>
      </trkpt>
      <trkpt lat="48.43137" lon="2.68567">
        <ele>109.9</ele>
        <time>2018-11-18T09:30:31Z</time>
      </trkpt>
      <trkpt lat="48.43136" lon="2.68569">
        <ele>110</ele>
        <time>2018-11-18T09:30:32Z</time>
      </trkpt>
      <trkpt lat="48.43135" lon="2.68571">
        <ele>110.1</ele>
        <time>2018-11-18T09:30:33Z</time>
      </trkpt>
      <trkpt lat="48.43134" lon="2.68573">
        <ele>110.2</ele>
        <time>2018-11-18T09:30:34Z</time>
      </trkpt>
      <trkpt lat="48.43133" lon="2.68575">
        <ele>110.3</ele>
        <time>2018-11-18T09:30:35Z</time>
      </trkpt>
      <trkpt lat="48.43132" lon="2.68576">
        <ele>110.4</ele>
        <time>2018-11-18T09:30:36Z</time>
      </trkpt>
      <trkpt lat="48.4313" lon="2.68577">
        <ele>110.4</ele>
        <time>2018-11-18T09:30:37Z</time>
      </trkpt>
      <trkpt lat="48.43128" lon="2.68578">
        <ele>110.5</ele>
        <time>2018-11-18T09:30:38Z</time>
      </trkpt>
      <trkpt lat="48.43127" lon="2.68579">
        <ele>110.6</ele>
        <time>2018-11-18T09:30:39Z</time>
      </trkpt>
      <trkpt lat="48.43125" lon="2.6858">
        <ele>110.7</ele>
        <time>2018-11-18T09:30:40Z</time>
      </trkpt>
      <trkpt lat="48.43124" lon="2.68581">
        <ele>110.8</ele>
        <time>2018-11-18T09:30:41Z</time>
      </trkpt>
      <trkpt lat="48.43122" lon="2.68584">
        <ele>110.9</ele>
        <time>2018-11-18T09:30:42Z</time>
      </trkpt>
      <trkpt lat="48.43121" lon="2.68586">
        <ele>110.9</ele>
        <time>2018-11-18T09:30:43Z</time>
      </trkpt>
      <trkpt lat="48.4312" lon="2.68589">
        <ele>111</ele>
        <time>2018-11-18T09:30:44Z</time>
      </trkpt>
      <trkpt lat="48.43118" lon="2.68592">
        <ele>111</ele>
        <time>2018-11-18T09:30:45Z</time>
      </trkpt>
      <trkpt lat="48.43117" lon="2.68596">
        <ele>111.1</ele>
        <time>2018-11-18T09:30:46Z</time>
      </trkpt>
      <trkpt lat="48.43116" lon="2.686">
        <ele>111.1</ele>
        <time>2018-11-18T09:30:47Z</time>
      </trkpt>
      <trkpt lat="48.43114" lon="2.68603">
        <ele>111.1</ele>
        <time>2018-11-18T09:30:48Z</time>
      </trkpt>
      <trkpt lat="48.43114" lon="2.68606">
        <ele>111.1</ele>
        <time>2018-11-18T09:30:49Z</time>
      </trkpt>
      <trkpt lat="48.43113" lon="2.68609">
        <ele>111</ele>
        <time>2018-11-18T09:30:50Z</time>
      </trkpt>
      <trkpt lat="48.43112" lon="2.68613">
        <ele>111</ele>
        <time>2018-11-18T09:30:51Z</time>
      </trkpt>
      <trkpt lat="48.4311" lon="2.68617">
        <ele>110.9</ele>
        <time>2018-11-18T09:30:52Z</time>
      </trkpt>
      <trkpt lat="48.43109" lon="2.68622">
        <ele>110.8</ele>
        <time>2018-11-18T09:30:53Z</time>
      </trkpt>
      <trkpt lat="48.43108" lon="2.68627">
        <ele>110.7</ele>
        <time>2018-11-18T09:30:54Z</time>
      </trkpt>
      <trkpt lat="48.43106" lon="2.68633">
        <ele>110.6</ele>
        <time>2018-11-18T09:30:55Z</time>
      </trkpt>
      <trkpt lat="48.43103" lon="2.68637">
        <ele>110.5</ele>
        <time>2018-11-18T09:30:56Z</time>
      </trkpt>
      <trkpt lat="48.431" lon="2.6864">
        <ele>110.5</ele>
        <time>2018-11-18T09:30:57Z</time>
      </trkpt>
      <trkpt lat="48.43097" lon="2.68642">
        <ele>110.5</ele>
        <time>2018-11-18T09:30:58Z</time>
      </trkpt>
      <trkpt lat="48.43094" lon="2.68643">
        <ele>110.5</ele>
        <time>2018-11-18T09:30:59Z</time>
      </trkpt>
      <trkpt lat="48.43092" lon="2.68644">
        <ele>110.6</ele>
        <time>2018-11-18T09:31:00Z</time>
      </trkpt>
      <trkpt lat="48.4309" lon="2.68646">
        <ele>110.6</ele>
        <time>2018-11-18T09:31:01Z</time>
      </trkpt>
      <trkpt lat="48.43088" lon="2.68648">
        <ele>111.1</ele>
        <time>2018-11-18T09:31:02Z</time>
      </trkpt>
      <trkpt lat="48.43086" lon="2.68649">
        <ele>111.3</ele>
        <time>2018-11-18T09:31:03Z</time>
      </trkpt>
      <trkpt lat="48.43084" lon="2.68651">
        <ele>111.4</ele>
        <time>2018-11-18T09:31:04Z</time>
      </trkpt>
      <trkpt lat="48.43082" lon="2.68652">
        <ele>111.6</ele>
        <time>2018-11-18T09:31:05Z</time>
      </trkpt>
      <trkpt lat="48.4308" lon="2.68654">
        <ele>111.8</ele>
        <time>2018-11-18T09:31:06Z</time>
      </trkpt>
      <trkpt lat="48.43077" lon="2.68656">
        <ele>112</ele>
        <time>2018-11-18T09:31:07Z</time>
      </trkpt>
      <trkpt lat="48.43076" lon="2.68657">
        <ele>112.1</ele>
        <time>2018-11-18T09:31:08Z</time>
      </trkpt>
      <trkpt lat="48.43074" lon="2.68658">
        <ele>112.3</ele>
        <time>2018-11-18T09:31:09Z</time>
      </trkpt>
      <trkpt lat="48.43072" lon="2.68659">
        <ele>112.4</ele>
        <time>2018-11-18T09:31:10Z</time>
      </trkpt>
      <trkpt lat="48.4307" lon="2.68659">
        <ele>112.6</ele>
        <time>2018-11-18T09:31:11Z</time>
      </trkpt>
      <trkpt lat="48.43068" lon="2.6866">
        <ele>112.7</ele>
        <time>2018-11-18T09:31:12Z</time>
      </trkpt>
      <trkpt lat="48.43066" lon="2.6866">
        <ele>113</ele>
        <time>2018-11-18T09:31:13Z</time>
      </trkpt>
      <trkpt lat="48.43064" lon="2.6866">
        <ele>113.2</ele>
        <time>2018-11-18T09:31:14Z</time>
      </trkpt>
      <trkpt lat="48.43063" lon="2.68661">
        <ele>113.4</ele>
        <time>2018-11-18T09:31:15Z</time>
      </trkpt>
      <trkpt lat="48.43061" lon="2.68661">
        <ele>113.7</ele>
        <time>2018-11-18T09:31:16Z</time>
      </trkpt>
      <trkpt lat="48.43059" lon="2.6866">
        <ele>113.9</ele>
        <time>2018-11-18T09:31:17Z</time>
      </trkpt>
      <trkpt lat="48.43057" lon="2.68661">
        <ele>114.1</ele>
        <time>2018-11-18T09:31:18Z</time>
      </trkpt>
      <trkpt lat="48.43055" lon="2.68661">
        <ele>114.3</ele>
        <time>2018-11-18T09:31:19Z</time>
      </trkpt>
      <trkpt lat="48.43053" lon="2.68661">
        <ele>114.5</ele>
        <time>2018-11-18T09:31:20Z</time>
      </trkpt>
      <trkpt lat="48.43051" lon="2.68662">
        <ele>114.7</ele>
        <time>2018-11-18T09:31:21Z</time>
      </trkpt>
      <trkpt lat="48.43049" lon="2.68662">
        <ele>114.9</ele>
        <time>2018-11-18T09:31:22Z</time>
      </trkpt>
      <trkpt lat="48.43047" lon="2.68663">
        <ele>115.1</ele>
        <time>2018-11-18T09:31:23Z</time>
      </trkpt>
      <trkpt lat="48.43045" lon="2.68663">
        <ele>115.3</ele>
        <time>2018-11-18T09:31:24Z</time>
      </trkpt>
      <trkpt lat="48.43043" lon="2.68663">
        <ele>115.6</ele>
        <time>2018-11-18T09:31:25Z</time>
      </trkpt>
      <trkpt lat="48.43041" lon="2.68664">
        <ele>115.8</ele>
        <time>2018-11-18T09:31:26Z</time>
      </trkpt>
      <trkpt lat="48.43039" lon="2.68664">
        <ele>115.9</ele>
        <time>2018-11-18T09:31:27Z</time>
      </trkpt>
      <trkpt lat="48.43038" lon="2.68665">
        <ele>116.1</ele>
        <time>2018-11-18T09:31:28Z</time>
      </trkpt>
      <trkpt lat="48.43036" lon="2.68665">
        <ele>116.2</ele>
        <time>2018-11-18T09:31:29Z</time>
      </trkpt>
      <trkpt lat="48.43034" lon="2.68666">
        <ele>116.4</ele>
        <time>2018-11-18T09:31:30Z</time>
      </trkpt>
      <trkpt lat="48.43032" lon="2.68666">
        <ele>116.6</ele>
        <time>2018-11-18T09:31:31Z</time>
      </trkpt>
      <trkpt lat="48.43031" lon="2.68667">
        <ele>116.7</ele>
        <time>2018-11-18T09:31:32Z</time>
      </trkpt>
      <trkpt lat="48.43029" lon="2.68667">
        <ele>116.9</ele>
        <time>2018-11-18T09:31:33Z</time>
      </trkpt>
      <trkpt lat="48.43027" lon="2.68667">
        <ele>117</ele>
        <time>2018-11-18T09:31:34Z</time>
      </trkpt>
      <trkpt lat="48.43025" lon="2.68667">
        <ele>117.2</ele>
        <time>2018-11-18T09:31:35Z</time>
      </trkpt>
      <trkpt lat="48.43024" lon="2.68668">
        <ele>117.3</ele>
        <time>2018-11-18T09:31:36Z</time>
      </trkpt>
      <trkpt lat="48.43022" lon="2.68668">
        <ele>117.5</ele>
        <time>2018-11-18T09:31:37Z</time>
      </trkpt>
      <trkpt lat="48.4302" lon="2.68669">
        <ele>117.6</ele>
        <time>2018-11-18T09:31:38Z</time>
      </trkpt>
      <trkpt lat="48.43018" lon="2.68669">
        <ele>117.8</ele>
        <time>2018-11-18T09:31:39Z</time>
      </trkpt>
      <trkpt lat="48.43017" lon="2.6867">
        <ele>117.9</ele>
        <time>2018-11-18T09:31:40Z</time>
      </trkpt>
      <trkpt lat="48.43015" lon="2.6867">
        <ele>118</ele>
        <time>2018-11-18T09:31:41Z</time>
      </trkpt>
      <trkpt lat="48.43014" lon="2.6867">
        <ele>118</ele>
        <time>2018-11-18T09:31:42Z</time>
      </trkpt>
      <trkpt lat="48.43012" lon="2.6867">
        <ele>118.2</ele>
        <time>2018-11-18T09:31:43Z</time>
      </trkpt>
      <trkpt lat="48.4301" lon="2.6867">
        <ele>118.3</ele>
        <time>2018-11-18T09:31:44Z</time>
      </trkpt>
      <trkpt lat="48.43008" lon="2.68671">
        <ele>118.4</ele>
        <time>2018-11-18T09:31:45Z</time>
      </trkpt>
      <trkpt lat="48.43006" lon="2.68671">
        <ele>118.5</ele>
        <time>2018-11-18T09:31:46Z</time>
      </trkpt>
      <trkpt lat="48.43004" lon="2.68671">
        <ele>118.7</ele>
        <time>2018-11-18T09:31:47Z</time>
      </trkpt>
      <trkpt lat="48.43002" lon="2.68671">
        <ele>118.8</ele>
        <time>2018-11-18T09:31:48Z</time>
      </trkpt>
      <trkpt lat="48.43001" lon="2.68672">
        <ele>118.8</ele>
        <time>2018-11-18T09:31:49Z</time>
      </trkpt>
      <trkpt lat="48.42998" lon="2.68672">
        <ele>119</ele>
        <time>2018-11-18T09:31:50Z</time>
      </trkpt>
      <trkpt lat="48.42996" lon="2.68672">
        <ele>119.1</ele>
        <time>2018-11-18T09:31:51Z</time>
      </trkpt>
      <trkpt lat="48.42995" lon="2.68672">
        <ele>119.2</ele>
        <time>2018-11-18T09:31:52Z</time>
      </trkpt>
      <trkpt lat="48.42993" lon="2.68672">
        <ele>119.3</ele>
        <time>2018-11-18T09:31:53Z</time>
      </trkpt>
      <trkpt lat="48.42991" lon="2.68672">
        <ele>119.4</ele>
        <time>2018-11-18T09:31:54Z</time>
      </trkpt>
      <trkpt lat="48.42989" lon="2.68673">
        <ele>119.6</ele>
        <time>2018-11-18T09:31:55Z</time>
      </trkpt>
      <trkpt lat="48.42986" lon="2.68673">
        <ele>119.7</ele>
        <time>2018-11-18T09:31:56Z</time>
      </trkpt>
      <trkpt lat="48.42985" lon="2.68673">
        <ele>119.9</ele>
        <time>2018-11-18T09:31:57Z</time>
      </trkpt>
      <trkpt lat="48.42983" lon="2.68674">
        <ele>120</ele>
        <time>2018-11-18T09:31:58Z</time>
      </trkpt>
      <trkpt lat="48.42981" lon="2.68674">
        <ele>120.1</ele>
        <time>2018-11-18T09:31:59Z</time>
      </trkpt>
      <trkpt lat="48.42979" lon="2.68675">
        <ele>120.3</ele>
        <time>2018-11-18T09:32:00Z</time>
      </trkpt>
      <trkpt lat="48.42978" lon="2.68675">
        <ele>120.4</ele>
        <time>2018-11-18T09:32:01Z</time>
      </trkpt>
      <trkpt lat="48.42976" lon="2.68676">
        <ele>120.5</ele>
        <time>2018-11-18T09:32:02Z</time>
      </trkpt>
      <trkpt lat="48.42974" lon="2.68676">
        <ele>120.7</ele>
        <time>2018-11-18T09:32:03Z</time>
      </trkpt>
      <trkpt lat="48.42972" lon="2.68676">
        <ele>120.8</ele>
        <time>2018-11-18T09:32:04Z</time>
      </trkpt>
      <trkpt lat="48.4297" lon="2.68676">
        <ele>121</ele>
        <time>2018-11-18T09:32:05Z</time>
      </trkpt>
      <trkpt lat="48.42968" lon="2.68677">
        <ele>121.1</ele>
        <time>2018-11-18T09:32:06Z</time>
      </trkpt>
      <trkpt lat="48.42966" lon="2.68677">
        <ele>121.3</ele>
        <time>2018-11-18T09:32:07Z</time>
      </trkpt>
      <trkpt lat="48.42965" lon="2.68677">
        <ele>121.4</ele>
        <time>2018-11-18T09:32:08Z</time>
      </trkpt>
      <trkpt lat="48.42963" lon="2.68677">
        <ele>121.6</ele>
        <time>2018-11-18T09:32:09Z</time>
      </trkpt>
      <trkpt lat="48.42961" lon="2.68677">
        <ele>121.7</ele>
        <time>2018-11-18T09:32:10Z</time>
      </trkpt>
      <trkpt lat="48.4296" lon="2.68677">
        <ele>121.8</ele>
        <time>2018-11-18T09:32:11Z</time>
      </trkpt>
      <trkpt lat="48.42958" lon="2.68677">
        <ele>122</ele>
        <time>2018-11-18T09:32:12Z</time>
      </trkpt>
      <trkpt lat="48.42956" lon="2.68677">
        <ele>122.2</ele>
        <time>2018-11-18T09:32:13Z</time>
      </trkpt>
      <trkpt lat="48.42954" lon="2.68677">
        <ele>122.4</ele>
        <time>2018-11-18T09:32:14Z</time>
      </trkpt>
      <trkpt lat="48.42953" lon="2.68677">
        <ele>122.6</ele>
        <time>2018-11-18T09:32:15Z</time>
      </trkpt>
      <trkpt lat="48.42951" lon="2.68678">
        <ele>122.8</ele>
        <time>2018-11-18T09:32:16Z</time>
      </trkpt>
      <trkpt lat="48.42949" lon="2.68678">
        <ele>123</ele>
        <time>2018-11-18T09:32:17Z</time>
      </trkpt>
      <trkpt lat="48.42948" lon="2.68678">
        <ele>123.2</ele>
        <time>2018-11-18T09:32:18Z</time>
      </trkpt>
      <trkpt lat="48.42946" lon="2.68678">
        <ele>123.3</ele>
        <time>2018-11-18T09:32:19Z</time>
      </trkpt>
      <trkpt lat="48.42945" lon="2.68679">
        <ele>123.5</ele>
        <time>2018-11-18T09:32:20Z</time>
      </trkpt>
      <trkpt lat="48.42944" lon="2.68679">
        <ele>123.7</ele>
        <time>2018-11-18T09:32:21Z</time>
      </trkpt>
      <trkpt lat="48.42942" lon="2.68679">
        <ele>123.8</ele>
        <time>2018-11-18T09:32:22Z</time>
      </trkpt>
      <trkpt lat="48.42941" lon="2.68678">
        <ele>124</ele>
        <time>2018-11-18T09:32:23Z</time>
      </trkpt>
      <trkpt lat="48.4294" lon="2.68679">
        <ele>124.2</ele>
        <time>2018-11-18T09:32:24Z</time>
      </trkpt>
      <trkpt lat="48.42938" lon="2.68679">
        <ele>124.3</ele>
        <time>2018-11-18T09:32:25Z</time>
      </trkpt>
      <trkpt lat="48.42937" lon="2.68679">
        <ele>124.5</ele>
        <time>2018-11-18T09:32:26Z</time>
      </trkpt>
      <trkpt lat="48.42936" lon="2.68679">
        <ele>124.6</ele>
        <time>2018-11-18T09:32:27Z</time>
      </trkpt>
      <trkpt lat="48.42935" lon="2.68679">
        <ele>124.8</ele>
        <time>2018-11-18T09:32:28Z</time>
      </trkpt>
      <trkpt lat="48.42934" lon="2.6868">
        <ele>124.9</ele>
        <time>2018-11-18T09:32:29Z</time>
      </trkpt>
      <trkpt lat="48.42933" lon="2.6868">
        <ele>125.1</ele>
        <time>2018-11-18T09:32:30Z</time>
      </trkpt>
      <trkpt lat="48.42931" lon="2.6868">
        <ele>125.2</ele>
        <time>2018-11-18T09:32:31Z</time>
      </trkpt>
      <trkpt lat="48.4293" lon="2.6868">
        <ele>125.4</ele>
        <time>2018-11-18T09:32:32Z</time>
      </trkpt>
      <trkpt lat="48.42929" lon="2.68681">
        <ele>125.6</ele>
        <time>2018-11-18T09:32:33Z</time>
      </trkpt>
      <trkpt lat="48.42927" lon="2.68681">
        <ele>125.9</ele>
        <time>2018-11-18T09:32:34Z</time>
      </trkpt>
      <trkpt lat="48.42925" lon="2.68682">
        <ele>126.1</ele>
        <time>2018-11-18T09:32:35Z</time>
      </trkpt>
      <trkpt lat="48.42924" lon="2.68682">
        <ele>126.2</ele>
        <time>2018-11-18T09:32:36Z</time>
      </trkpt>
      <trkpt lat="48.42923" lon="2.68681">
        <ele>126.4</ele>
        <time>2018-11-18T09:32:37Z</time>
      </trkpt>
      <trkpt lat="48.42922" lon="2.68681">
        <ele>126.6</ele>
        <time>2018-11-18T09:32:38Z</time>
      </trkpt>
      <trkpt lat="48.42921" lon="2.68681">
        <ele>126.8</ele>
        <time>2018-11-18T09:32:39Z</time>
      </trkpt>
      <trkpt lat="48.4292" lon="2.68681">
        <ele>126.9</ele>
        <time>2018-11-18T09:32:40Z</time>
      </trkpt>
      <trkpt lat="48.42919" lon="2.68682">
        <ele>127.1</ele>
        <time>2018-11-18T09:32:41Z</time>
      </trkpt>
      <trkpt lat="48.42918" lon="2.68682">
        <ele>127.2</ele>
        <time>2018-11-18T09:32:42Z</time>
      </trkpt>
      <trkpt lat="48.42916" lon="2.68683">
        <ele>127.4</ele>
        <time>2018-11-18T09:32:43Z</time>
      </trkpt>
      <trkpt lat="48.42915" lon="2.68683">
        <ele>127.6</ele>
        <time>2018-11-18T09:32:44Z</time>
      </trkpt>
      <trkpt lat="48.42914" lon="2.68683">
        <ele>127.8</ele>
        <time>2018-11-18T09:32:45Z</time>
      </trkpt>
      <trkpt lat="48.42913" lon="2.68684">
        <ele>128</ele>
        <time>2018-11-18T09:32:46Z</time>
      </trkpt>
      <trkpt lat="48.42911" lon="2.68684">
        <ele>128.2</ele>
        <time>2018-11-18T09:32:47Z</time>
      </trkpt>
      <trkpt lat="48.4291" lon="2.68683">
        <ele>128.4</ele>
        <time>2018-11-18T09:32:48Z</time>
      </trkpt>
      <trkpt lat="48.42909" lon="2.68683">
        <ele>128.6</ele>
        <time>2018-11-18T09:32:49Z</time>
      </trkpt>
      <trkpt lat="48.42907" lon="2.68683">
        <ele>128.7</ele>
        <time>2018-11-18T09:32:50Z</time>
      </trkpt>
      <trkpt lat="48.42906" lon="2.68683">
        <ele>128.9</ele>
        <time>2018-11-18T09:32:51Z</time>
      </trkpt>
      <trkpt lat="48.42905" lon="2.68683">
        <ele>129</ele>
        <time>2018-11-18T09:32:52Z</time>
      </trkpt>
      <trkpt lat="48.42904" lon="2.68682">
        <ele>129.2</ele>
        <time>2018-11-18T09:32:53Z</time>
      </trkpt>
      <trkpt lat="48.42903" lon="2.68682">
        <ele>129.3</ele>
        <time>2018-11-18T09:32:54Z</time>
      </trkpt>
      <trkpt lat="48.42902" lon="2.68681">
        <ele>129.5</ele>
        <time>2018-11-18T09:32:55Z</time>
      </trkpt>
      <trkpt lat="48.42901" lon="2.68681">
        <ele>129.6</ele>
        <time>2018-11-18T09:32:56Z</time>
      </trkpt>
      <trkpt lat="48.429" lon="2.68681">
        <ele>129.7</ele>
        <time>2018-11-18T09:32:57Z</time>
      </trkpt>
      <trkpt lat="48.42899" lon="2.6868">
        <ele>129.8</ele>
        <time>2018-11-18T09:32:58Z</time>
      </trkpt>
      <trkpt lat="48.42898" lon="2.6868">
        <ele>129.9</ele>
        <time>2018-11-18T09:32:59Z</time>
      </trkpt>
      <trkpt lat="48.42897" lon="2.68679">
        <ele>130</ele>
        <time>2018-11-18T09:33:00Z</time>
      </trkpt>
      <trkpt lat="48.42895" lon="2.68679">
        <ele>130.2</ele>
        <time>2018-11-18T09:33:01Z</time>
      </trkpt>
      <trkpt lat="48.42894" lon="2.68678">
        <ele>130.3</ele>
        <time>2018-11-18T09:33:02Z</time>
      </trkpt>
      <trkpt lat="48.42893" lon="2.68678">
        <ele>130.4</ele>
        <time>2018-11-18T09:33:03Z</time>
      </trkpt>
      <trkpt lat="48.42892" lon="2.68678">
        <ele>130.5</ele>
        <time>2018-11-18T09:33:04Z</time>
      </trkpt>
      <trkpt lat="48.42891" lon="2.68678">
        <ele>130.6</ele>
        <time>2018-11-18T09:33:05Z</time>
      </trkpt>
      <trkpt lat="48.4289" lon="2.68677">
        <ele>130.8</ele>
        <time>2018-11-18T09:33:06Z</time>
      </trkpt>
      <trkpt lat="48.42889" lon="2.68677">
        <ele>130.9</ele>
        <time>2018-11-18T09:33:07Z</time>
      </trkpt>
      <trkpt lat="48.42887" lon="2.68677">
        <ele>131.1</ele>
        <time>2018-11-18T09:33:08Z</time>
      </trkpt>
      <trkpt lat="48.42887" lon="2.68676">
        <ele>131.2</ele>
        <time>2018-11-18T09:33:09Z</time>
      </trkpt>
      <trkpt lat="48.42886" lon="2.68676">
        <ele>131.2</ele>
        <time>2018-11-18T09:33:10Z</time>
      </trkpt>
      <trkpt lat="48.42884" lon="2.68675">
        <ele>131.3</ele>
        <time>2018-11-18T09:33:11Z</time>
      </trkpt>
      <trkpt lat="48.42883" lon="2.68674">
        <ele>131.4</ele>
        <time>2018-11-18T09:33:12Z</time>
      </trkpt>
      <trkpt lat="48.42882" lon="2.68673">
        <ele>131.5</ele>
        <time>2018-11-18T09:33:13Z</time>
      </trkpt>
      <trkpt lat="48.42881" lon="2.68673">
        <ele>131.6</ele>
        <time>2018-11-18T09:33:14Z</time>
      </trkpt>
      <trkpt lat="48.4288" lon="2.68672">
        <ele>131.6</ele>
        <time>2018-11-18T09:33:15Z</time>
      </trkpt>
      <trkpt lat="48.42879" lon="2.68671">
        <ele>131.7</ele>
        <time>2018-11-18T09:33:16Z</time>
      </trkpt>
      <trkpt lat="48.42877" lon="2.6867">
        <ele>131.8</ele>
        <time>2018-11-18T09:33:17Z</time>
      </trkpt>
      <trkpt lat="48.42877" lon="2.68669">
        <ele>131.9</ele>
        <time>2018-11-18T09:33:18Z</time>
      </trkpt>
      <trkpt lat="48.42875" lon="2.68668">
        <ele>132</ele>
        <time>2018-11-18T09:33:19Z</time>
      </trkpt>
      <trkpt lat="48.42874" lon="2.68667">
        <ele>132.1</ele>
        <time>2018-11-18T09:33:20Z</time>
      </trkpt>
      <trkpt lat="48.42873" lon="2.68666">
        <ele>132.1</ele>
        <time>2018-11-18T09:33:21Z</time>
      </trkpt>
      <trkpt lat="48.42872" lon="2.68666">
        <ele>132.2</ele>
        <time>2018-11-18T09:33:22Z</time>
      </trkpt>
      <trkpt lat="48.42871" lon="2.68665">
        <ele>132.3</ele>
        <time>2018-11-18T09:33:23Z</time>
      </trkpt>
      <trkpt lat="48.4287" lon="2.68664">
        <ele>132.4</ele>
        <time>2018-11-18T09:33:24Z</time>
      </trkpt>
      <trkpt lat="48.4287" lon="2.68662">
        <ele>132.5</ele>
        <time>2018-11-18T09:33:25Z</time>
      </trkpt>
      <trkpt lat="48.42869" lon="2.68661">
        <ele>132.6</ele>
        <time>2018-11-18T09:33:26Z</time>
      </trkpt>
      <trkpt lat="48.42868" lon="2.6866">
        <ele>132.7</ele>
        <time>2018-11-18T09:33:27Z</time>
      </trkpt>
      <trkpt lat="48.42867" lon="2.68658">
        <ele>132.8</ele>
        <time>2018-11-18T09:33:28Z</time>
      </trkpt>
      <trkpt lat="48.42867" lon="2.68657">
        <ele>133</ele>
        <time>2018-11-18T09:33:29Z</time>
      </trkpt>
      <trkpt lat="48.42866" lon="2.68656">
        <ele>133.1</ele>
        <time>2018-11-18T09:33:30Z</time>
      </trkpt>
      <trkpt lat="48.42865" lon="2.68654">
        <ele>133.2</ele>
        <time>2018-11-18T09:33:31Z</time>
      </trkpt>
      <trkpt lat="48.42865" lon="2.68653">
        <ele>133.3</ele>
        <time>2018-11-18T09:33:32Z</time>
      </trkpt>
      <trkpt lat="48.42864" lon="2.68652">
        <ele>133.5</ele>
        <time>2018-11-18T09:33:33Z</time>
      </trkpt>
      <trkpt lat="48.42863" lon="2.6865">
        <ele>133.6</ele>
        <time>2018-11-18T09:33:34Z</time>
      </trkpt>
      <trkpt lat="48.42862" lon="2.68649">
        <ele>133.8</ele>
        <time>2018-11-18T09:33:35Z</time>
      </trkpt>
      <trkpt lat="48.42861" lon="2.68648">
        <ele>134</ele>
        <time>2018-11-18T09:33:36Z</time>
      </trkpt>
      <trkpt lat="48.4286" lon="2.68647">
        <ele>134.1</ele>
        <time>2018-11-18T09:33:37Z</time>
      </trkpt>
      <trkpt lat="48.42859" lon="2.68646">
        <ele>134.3</ele>
        <time>2018-11-18T09:33:38Z</time>
      </trkpt>
      <trkpt lat="48.42859" lon="2.68645">
        <ele>134.4</ele>
        <time>2018-11-18T09:33:39Z</time>
      </trkpt>
      <trkpt lat="48.42858" lon="2.68644">
        <ele>134.6</ele>
        <time>2018-11-18T09:33:40Z</time>
      </trkpt>
      <trkpt lat="48.42858" lon="2.68644">
        <ele>134.7</ele>
        <time>2018-11-18T09:33:41Z</time>
      </trkpt>
      <trkpt lat="48.42857" lon="2.68643">
        <ele>134.7</ele>
        <time>2018-11-18T09:33:42Z</time>
      </trkpt>
      <trkpt lat="48.42857" lon="2.68643">
        <ele>134.7</ele>
        <time>2018-11-18T09:33:43Z</time>
      </trkpt>
      <trkpt lat="48.42857" lon="2.68643">
        <ele>134.7</ele>
        <time>2018-11-18T09:33:44Z</time>
      </trkpt>
      <trkpt lat="48.42855" lon="2.68642">
        <ele>134.9</ele>
        <time>2018-11-18T09:33:45Z</time>
      </trkpt>
      <trkpt lat="48.42855" lon="2.68642">
        <ele>135</ele>
        <time>2018-11-18T09:33:46Z</time>
      </trkpt>
      <trkpt lat="48.42854" lon="2.68642">
        <ele>135.1</ele>
        <time>2018-11-18T09:33:47Z</time>
      </trkpt>
      <trkpt lat="48.42853" lon="2.68641">
        <ele>135.1</ele>
        <time>2018-11-18T09:33:48Z</time>
      </trkpt>
      <trkpt lat="48.42853" lon="2.68641">
        <ele>135.2</ele>
        <time>2018-11-18T09:33:49Z</time>
      </trkpt>
      <trkpt lat="48.42852" lon="2.68641">
        <ele>135.3</ele>
        <time>2018-11-18T09:33:50Z</time>
      </trkpt>
      <trkpt lat="48.42851" lon="2.68641">
        <ele>135.4</ele>
        <time>2018-11-18T09:33:51Z</time>
      </trkpt>
      <trkpt lat="48.4285" lon="2.68641">
        <ele>135.4</ele>
        <time>2018-11-18T09:33:52Z</time>
      </trkpt>
      <trkpt lat="48.4285" lon="2.68641">
        <ele>135.5</ele>
        <time>2018-11-18T09:33:53Z</time>
      </trkpt>
      <trkpt lat="48.42849" lon="2.68641">
        <ele>135.6</ele>
        <time>2018-11-18T09:33:54Z</time>
      </trkpt>
      <trkpt lat="48.42848" lon="2.68642">
        <ele>135.7</ele>
        <time>2018-11-18T09:33:55Z</time>
      </trkpt>
      <trkpt lat="48.42847" lon="2.68642">
        <ele>135.8</ele>
        <time>2018-11-18T09:33:56Z</time>
      </trkpt>
      <trkpt lat="48.42847" lon="2.68642">
        <ele>135.8</ele>
        <time>2018-11-18T09:33:57Z</time>
      </trkpt>
      <trkpt lat="48.42846" lon="2.68642">
        <ele>135.9</ele>
        <time>2018-11-18T09:33:58Z</time>
      </trkpt>
      <trkpt lat="48.42845" lon="2.68642">
        <ele>136</ele>
        <time>2018-11-18T09:33:59Z</time>
      </trkpt>
      <trkpt lat="48.42845" lon="2.68643">
        <ele>136.1</ele>
        <time>2018-11-18T09:34:00Z</time>
      </trkpt>
      <trkpt lat="48.42844" lon="2.68643">
        <ele>136.2</ele>
        <time>2018-11-18T09:34:01Z</time>
      </trkpt>
      <trkpt lat="48.42844" lon="2.68643">
        <ele>136.3</ele>
        <time>2018-11-18T09:34:02Z</time>
      </trkpt>
      <trkpt lat="48.42843" lon="2.68643">
        <ele>136.4</ele>
        <time>2018-11-18T09:34:03Z</time>
      </trkpt>
      <trkpt lat="48.42842" lon="2.68643">
        <ele>136.5</ele>
        <time>2018-11-18T09:34:04Z</time>
      </trkpt>
      <trkpt lat="48.42841" lon="2.68643">
        <ele>136.5</ele>
        <time>2018-11-18T09:34:05Z</time>
      </trkpt>
      <trkpt lat="48.42841" lon="2.68643">
        <ele>136.7</ele>
        <time>2018-11-18T09:34:06Z</time>
      </trkpt>
      <trkpt lat="48.4284" lon="2.68643">
        <ele>136.8</ele>
        <time>2018-11-18T09:34:07Z</time>
      </trkpt>
      <trkpt lat="48.42839" lon="2.68643">
        <ele>136.9</ele>
        <time>2018-11-18T09:34:08Z</time>
      </trkpt>
      <trkpt lat="48.42838" lon="2.68643">
        <ele>136.9</ele>
        <time>2018-11-18T09:34:09Z</time>
      </trkpt>
      <trkpt lat="48.42838" lon="2.68643">
        <ele>137</ele>
        <time>2018-11-18T09:34:10Z</time>
      </trkpt>
      <trkpt lat="48.42837" lon="2.68642">
        <ele>137.1</ele>
        <time>2018-11-18T09:34:11Z</time>
      </trkpt>
      <trkpt lat="48.42836" lon="2.68642">
        <ele>137.1</ele>
        <time>2018-11-18T09:34:12Z</time>
      </trkpt>
      <trkpt lat="48.42836" lon="2.68641">
        <ele>137.2</ele>
        <time>2018-11-18T09:34:13Z</time>
      </trkpt>
      <trkpt lat="48.42834" lon="2.6864">
        <ele>137.4</ele>
        <time>2018-11-18T09:34:14Z</time>
      </trkpt>
      <trkpt lat="48.42834" lon="2.6864">
        <ele>137.4</ele>
        <time>2018-11-18T09:34:15Z</time>
      </trkpt>
      <trkpt lat="48.42833" lon="2.68639">
        <ele>137.5</ele>
        <time>2018-11-18T09:34:16Z</time>
      </trkpt>
      <trkpt lat="48.42832" lon="2.68639">
        <ele>137.6</ele>
        <time>2018-11-18T09:34:17Z</time>
      </trkpt>
      <trkpt lat="48.42832" lon="2.68639">
        <ele>137.6</ele>
        <time>2018-11-18T09:34:18Z</time>
      </trkpt>
      <trkpt lat="48.42831" lon="2.68638">
        <ele>137.7</ele>
        <time>2018-11-18T09:34:19Z</time>
      </trkpt>
      <trkpt lat="48.42831" lon="2.68638">
        <ele>137.7</ele>
        <time>2018-11-18T09:34:20Z</time>
      </trkpt>
      <trkpt lat="48.4283" lon="2.68637">
        <ele>137.8</ele>
        <time>2018-11-18T09:34:21Z</time>
      </trkpt>
      <trkpt lat="48.4283" lon="2.68636">
        <ele>137.8</ele>
        <time>2018-11-18T09:34:22Z</time>
      </trkpt>
      <trkpt lat="48.42829" lon="2.68635">
        <ele>137.9</ele>
        <time>2018-11-18T09:34:23Z</time>
      </trkpt>
      <trkpt lat="48.42828" lon="2.68635">
        <ele>138</ele>
        <time>2018-11-18T09:34:24Z</time>
      </trkpt>
      <trkpt lat="48.42827" lon="2.68634">
        <ele>138</ele>
        <time>2018-11-18T09:34:25Z</time>
      </trkpt>
      <trkpt lat="48.42827" lon="2.68634">
        <ele>138.1</ele>
        <time>2018-11-18T09:34:26Z</time>
      </trkpt>
      <trkpt lat="48.42826" lon="2.68633">
        <ele>138.1</ele>
        <time>2018-11-18T09:34:27Z</time>
      </trkpt>
      <trkpt lat="48.42825" lon="2.68633">
        <ele>138.1</ele>
        <time>2018-11-18T09:34:28Z</time>
      </trkpt>
      <trkpt lat="48.42824" lon="2.68633">
        <ele>138.2</ele>
        <time>2018-11-18T09:34:29Z</time>
      </trkpt>
      <trkpt lat="48.42823" lon="2.68633">
        <ele>138.2</ele>
        <time>2018-11-18T09:34:30Z</time>
      </trkpt>
      <trkpt lat="48.42822" lon="2.68632">
        <ele>138.2</ele>
        <time>2018-11-18T09:34:31Z</time>
      </trkpt>
      <trkpt lat="48.42822" lon="2.68632">
        <ele>138.2</ele>
        <time>2018-11-18T09:34:32Z</time>
      </trkpt>
      <trkpt lat="48.42821" lon="2.68632">
        <ele>138.3</ele>
        <time>2018-11-18T09:34:33Z</time>
      </trkpt>
      <trkpt lat="48.4282" lon="2.68631">
        <ele>138.3</ele>
        <time>2018-11-18T09:34:34Z</time>
      </trkpt>
      <trkpt lat="48.42819" lon="2.68631">
        <ele>138.3</ele>
        <time>2018-11-18T09:34:35Z</time>
      </trkpt>
      <trkpt lat="48.42818" lon="2.68631">
        <ele>138.4</ele>
        <time>2018-11-18T09:34:36Z</time>
      </trkpt>
      <trkpt lat="48.42817" lon="2.68631">
        <ele>138.4</ele>
        <time>2018-11-18T09:34:37Z</time>
      </trkpt>
      <trkpt lat="48.42816" lon="2.6863">
        <ele>138.4</ele>
        <time>2018-11-18T09:34:38Z</time>
      </trkpt>
      <trkpt lat="48.42815" lon="2.6863">
        <ele>138.4</ele>
        <time>2018-11-18T09:34:39Z</time>
      </trkpt>
      <trkpt lat="48.42814" lon="2.68629">
        <ele>138.5</ele>
        <time>2018-11-18T09:34:40Z</time>
      </trkpt>
      <trkpt lat="48.42813" lon="2.68629">
        <ele>138.5</ele>
        <time>2018-11-18T09:34:41Z</time>
      </trkpt>
      <trkpt lat="48.42812" lon="2.68629">
        <ele>138.6</ele>
        <time>2018-11-18T09:34:42Z</time>
      </trkpt>
      <trkpt lat="48.42811" lon="2.68628">
        <ele>138.6</ele>
        <time>2018-11-18T09:34:43Z</time>
      </trkpt>
      <trkpt lat="48.42811" lon="2.68627">
        <ele>138.6</ele>
        <time>2018-11-18T09:34:44Z</time>
      </trkpt>
      <trkpt lat="48.42811" lon="2.68626">
        <ele>138.6</ele>
        <time>2018-11-18T09:34:45Z</time>
      </trkpt>
      <trkpt lat="48.42811" lon="2.68626">
        <ele>138.6</ele>
        <time>2018-11-18T09:34:46Z</time>
      </trkpt>
      <trkpt lat="48.42811" lon="2.68626">
        <ele>138.6</ele>
        <time>2018-11-18T09:34:47Z</time>
      </trkpt>
      <trkpt lat="48.42811" lon="2.68626">
        <ele>138.6</ele>
        <time>2018-11-18T09:34:48Z</time>
      </trkpt>
      <trkpt lat="48.42811" lon="2.68626">
        <ele>138.6</ele>
        <time>2018-11-18T09:34:49Z</time>
      </trkpt>
      <trkpt lat="48.42811" lon="2.68626">
        <ele>138.6</ele>
        <time>2018-11-18T09:34:50Z</time>
      </trkpt>
      <trkpt lat="48.42811" lon="2.68626">
        <ele>138.6</ele>
        <time>2018-11-18T09:34:51Z</time>
      </trkpt>
      <trkpt lat="48.42811" lon="2.68626">
        <ele>138.6</ele>
        <time>2018-11-18T09:34:52Z</time>
      </trkpt>
      <trkpt lat="48.42811" lon="2.68626">
        <ele>138.6</ele>
        <time>2018-11-18T09:34:53Z</time>
      </trkpt>
      <trkpt lat="48.42811" lon="2.68626">
        <ele>138.6</ele>
        <time>2018-11-18T09:34:54Z</time>
      </trkpt>
      <trkpt lat="48.42807" lon="2.68633">
        <ele>138.8</ele>
        <time>2018-11-18T09:43:32Z</time>
      </trkpt>
      <trkpt lat="48.42805" lon="2.68633">
        <ele>138.9</ele>
        <time>2018-11-18T09:43:33Z</time>
      </trkpt>
      <trkpt lat="48.42804" lon="2.68633">
        <ele>138.9</ele>
        <time>2018-11-18T09:43:34Z</time>
      </trkpt>
      <trkpt lat="48.42803" lon="2.68633">
        <ele>139</ele>
        <time>2018-11-18T09:43:35Z</time>
      </trkpt>
      <trkpt lat="48.42801" lon="2.68634">
        <ele>139.1</ele>
        <time>2018-11-18T09:43:36Z</time>
      </trkpt>
      <trkpt lat="48.428" lon="2.68633">
        <ele>139.1</ele>
        <time>2018-11-18T09:43:37Z</time>
      </trkpt>
      <trkpt lat="48.42798" lon="2.68633">
        <ele>139.2</ele>
        <time>2018-11-18T09:43:38Z</time>
      </trkpt>
      <trkpt lat="48.42797" lon="2.68633">
        <ele>139.2</ele>
        <time>2018-11-18T09:43:39Z</time>
      </trkpt>
      <trkpt lat="48.42795" lon="2.68634">
        <ele>139.3</ele>
        <time>2018-11-18T09:43:40Z</time>
      </trkpt>
      <trkpt lat="48.42793" lon="2.68634">
        <ele>139.3</ele>
        <time>2018-11-18T09:43:41Z</time>
      </trkpt>
      <trkpt lat="48.42792" lon="2.68634">
        <ele>139.4</ele>
        <time>2018-11-18T09:43:42Z</time>
      </trkpt>
      <trkpt lat="48.4279" lon="2.68634">
        <ele>139.4</ele>
        <time>2018-11-18T09:43:43Z</time>
      </trkpt>
      <trkpt lat="48.42788" lon="2.68634">
        <ele>139.5</ele>
        <time>2018-11-18T09:43:44Z</time>
      </trkpt>
      <trkpt lat="48.42787" lon="2.68634">
        <ele>139.5</ele>
        <time>2018-11-18T09:43:45Z</time>
      </trkpt>
      <trkpt lat="48.42785" lon="2.68633">
        <ele>139.6</ele>
        <time>2018-11-18T09:43:46Z</time>
      </trkpt>
      <trkpt lat="48.42783" lon="2.68633">
        <ele>139.6</ele>
        <time>2018-11-18T09:43:47Z</time>
      </trkpt>
      <trkpt lat="48.42781" lon="2.68633">
        <ele>139.7</ele>
        <time>2018-11-18T09:43:48Z</time>
      </trkpt>
      <trkpt lat="48.42779" lon="2.68633">
        <ele>139.8</ele>
        <time>2018-11-18T09:43:49Z</time>
      </trkpt>
      <trkpt lat="48.42778" lon="2.68633">
        <ele>139.9</ele>
        <time>2018-11-18T09:43:50Z</time>
      </trkpt>
      <trkpt lat="48.42776" lon="2.68633">
        <ele>140</ele>
        <time>2018-11-18T09:43:51Z</time>
      </trkpt>
      <trkpt lat="48.42774" lon="2.68633">
        <ele>140.1</ele>
        <time>2018-11-18T09:43:52Z</time>
      </trkpt>
      <trkpt lat="48.42772" lon="2.68633">
        <ele>140.2</ele>
        <time>2018-11-18T09:43:53Z</time>
      </trkpt>
      <trkpt lat="48.4277" lon="2.68632">
        <ele>140.3</ele>
        <time>2018-11-18T09:43:54Z</time>
      </trkpt>
      <trkpt lat="48.42768" lon="2.68632">
        <ele>140.4</ele>
        <time>2018-11-18T09:43:55Z</time>
      </trkpt>
      <trkpt lat="48.42766" lon="2.68632">
        <ele>140.5</ele>
        <time>2018-11-18T09:43:56Z</time>
      </trkpt>
      <trkpt lat="48.42764" lon="2.68632">
        <ele>140.6</ele>
        <time>2018-11-18T09:43:57Z</time>
      </trkpt>
      <trkpt lat="48.42762" lon="2.68631">
        <ele>140.6</ele>
        <time>2018-11-18T09:43:58Z</time>
      </trkpt>
      <trkpt lat="48.42761" lon="2.68631">
        <ele>140.7</ele>
        <time>2018-11-18T09:43:59Z</time>
      </trkpt>
      <trkpt lat="48.42759" lon="2.68631">
        <ele>140.8</ele>
        <time>2018-11-18T09:44:00Z</time>
      </trkpt>
      <trkpt lat="48.42757" lon="2.68631">
        <ele>140.9</ele>
        <time>2018-11-18T09:44:01Z</time>
      </trkpt>
      <trkpt lat="48.42755" lon="2.6863">
        <ele>141</ele>
        <time>2018-11-18T09:44:02Z</time>
      </trkpt>
      <trkpt lat="48.42753" lon="2.6863">
        <ele>141</ele>
        <time>2018-11-18T09:44:03Z</time>
      </trkpt>
      <trkpt lat="48.42752" lon="2.6863">
        <ele>141.1</ele>
        <time>2018-11-18T09:44:04Z</time>
      </trkpt>
      <trkpt lat="48.42749" lon="2.68629">
        <ele>141.2</ele>
        <time>2018-11-18T09:44:05Z</time>
      </trkpt>
      <trkpt lat="48.42747" lon="2.68629">
        <ele>141.3</ele>
        <time>2018-11-18T09:44:06Z</time>
      </trkpt>
      <trkpt lat="48.42745" lon="2.68628">
        <ele>141.4</ele>
        <time>2018-11-18T09:44:07Z</time>
      </trkpt>
      <trkpt lat="48.42743" lon="2.68628">
        <ele>141.5</ele>
        <time>2018-11-18T09:44:08Z</time>
      </trkpt>
      <trkpt lat="48.42742" lon="2.68628">
        <ele>141.5</ele>
        <time>2018-11-18T09:44:09Z</time>
      </trkpt>
      <trkpt lat="48.4274" lon="2.68628">
        <ele>141.6</ele>
        <time>2018-11-18T09:44:10Z</time>
      </trkpt>
      <trkpt lat="48.42738" lon="2.68627">
        <ele>141.7</ele>
        <time>2018-11-18T09:44:11Z</time>
      </trkpt>
      <trkpt lat="48.42736" lon="2.68627">
        <ele>141.8</ele>
        <time>2018-11-18T09:44:12Z</time>
      </trkpt>
      <trkpt lat="48.42733" lon="2.68626">
        <ele>141.9</ele>
        <time>2018-11-18T09:44:13Z</time>
      </trkpt>
      <trkpt lat="48.42731" lon="2.68625">
        <ele>142</ele>
        <time>2018-11-18T09:44:14Z</time>
      </trkpt>
      <trkpt lat="48.42729" lon="2.68625">
        <ele>142.2</ele>
        <time>2018-11-18T09:44:15Z</time>
      </trkpt>
      <trkpt lat="48.42726" lon="2.68624">
        <ele>142.3</ele>
        <time>2018-11-18T09:44:16Z</time>
      </trkpt>
      <trkpt lat="48.42724" lon="2.68624">
        <ele>142.4</ele>
        <time>2018-11-18T09:44:17Z</time>
      </trkpt>
      <trkpt lat="48.42721" lon="2.68623">
        <ele>142.5</ele>
        <time>2018-11-18T09:44:18Z</time>
      </trkpt>
      <trkpt lat="48.42719" lon="2.68623">
        <ele>142.6</ele>
        <time>2018-11-18T09:44:19Z</time>
      </trkpt>
      <trkpt lat="48.42716" lon="2.68623">
        <ele>142.7</ele>
        <time>2018-11-18T09:44:20Z</time>
      </trkpt>
      <trkpt lat="48.42713" lon="2.68622">
        <ele>142.8</ele>
        <time>2018-11-18T09:44:21Z</time>
      </trkpt>
      <trkpt lat="48.4271" lon="2.68622">
        <ele>142.9</ele>
        <time>2018-11-18T09:44:22Z</time>
      </trkpt>
      <trkpt lat="48.42707" lon="2.68621">
        <ele>143</ele>
        <time>2018-11-18T09:44:23Z</time>
      </trkpt>
      <trkpt lat="48.42704" lon="2.6862">
        <ele>143</ele>
        <time>2018-11-18T09:44:24Z</time>
      </trkpt>
      <trkpt lat="48.42701" lon="2.68619">
        <ele>143.1</ele>
        <time>2018-11-18T09:44:25Z</time>
      </trkpt>
      <trkpt lat="48.42697" lon="2.68618">
        <ele>143.2</ele>
        <time>2018-11-18T09:44:26Z</time>
      </trkpt>
      <trkpt lat="48.42694" lon="2.68617">
        <ele>143.3</ele>
        <time>2018-11-18T09:44:27Z</time>
      </trkpt>
      <trkpt lat="48.4269" lon="2.68616">
        <ele>143.4</ele>
        <time>2018-11-18T09:44:28Z</time>
      </trkpt>
      <trkpt lat="48.42686" lon="2.68614">
        <ele>143.6</ele>
        <time>2018-11-18T09:44:29Z</time>
      </trkpt>
      <trkpt lat="48.42683" lon="2.68613">
        <ele>143.7</ele>
        <time>2018-11-18T09:44:30Z</time>
      </trkpt>
      <trkpt lat="48.4268" lon="2.68612">
        <ele>143.8</ele>
        <time>2018-11-18T09:44:31Z</time>
      </trkpt>
      <trkpt lat="48.42676" lon="2.68611">
        <ele>143.9</ele>
        <time>2018-11-18T09:44:32Z</time>
      </trkpt>
      <trkpt lat="48.42672" lon="2.68609">
        <ele>144</ele>
        <time>2018-11-18T09:44:33Z</time>
      </trkpt>
      <trkpt lat="48.42668" lon="2.68608">
        <ele>144.1</ele>
        <time>2018-11-18T09:44:34Z</time>
      </trkpt>
      <trkpt lat="48.42664" lon="2.68606">
        <ele>144.2</ele>
        <time>2018-11-18T09:44:35Z</time>
      </trkpt>
      <trkpt lat="48.4266" lon="2.68605">
        <ele>144.4</ele>
        <time>2018-11-18T09:44:36Z</time>
      </trkpt>
      <trkpt lat="48.42657" lon="2.68604">
        <ele>144.5</ele>
        <time>2018-11-18T09:44:37Z</time>
      </trkpt>
      <trkpt lat="48.42653" lon="2.68602">
        <ele>144.6</ele>
        <time>2018-11-18T09:44:38Z</time>
      </trkpt>
      <trkpt lat="48.42649" lon="2.68601">
        <ele>144.8</ele>
        <time>2018-11-18T09:44:39Z</time>
      </trkpt>
      <trkpt lat="48.42646" lon="2.686">
        <ele>145</ele>
        <time>2018-11-18T09:44:40Z</time>
      </trkpt>
      <trkpt lat="48.42643" lon="2.68599">
        <ele>145.2</ele>
        <time>2018-11-18T09:44:41Z</time>
      </trkpt>
      <trkpt lat="48.42639" lon="2.68598">
        <ele>145.3</ele>
        <time>2018-11-18T09:44:42Z</time>
      </trkpt>
      <trkpt lat="48.42635" lon="2.68597">
        <ele>145.5</ele>
        <time>2018-11-18T09:44:43Z</time>
      </trkpt>
      <trkpt lat="48.42631" lon="2.68595">
        <ele>145.6</ele>
        <time>2018-11-18T09:44:44Z</time>
      </trkpt>
      <trkpt lat="48.42628" lon="2.68594">
        <ele>145.7</ele>
        <time>2018-11-18T09:44:45Z</time>
      </trkpt>
      <trkpt lat="48.42624" lon="2.68593">
        <ele>145.8</ele>
        <time>2018-11-18T09:44:46Z</time>
      </trkpt>
      <trkpt lat="48.42621" lon="2.68591">
        <ele>145.9</ele>
        <time>2018-11-18T09:44:47Z</time>
      </trkpt>
      <trkpt lat="48.42618" lon="2.6859">
        <ele>146</ele>
        <time>2018-11-18T09:44:48Z</time>
      </trkpt>
      <trkpt lat="48.42614" lon="2.68589">
        <ele>146</ele>
        <time>2018-11-18T09:44:49Z</time>
      </trkpt>
      <trkpt lat="48.42611" lon="2.68588">
        <ele>146.1</ele>
        <time>2018-11-18T09:44:50Z</time>
      </trkpt>
      <trkpt lat="48.42606" lon="2.68585">
        <ele>146.2</ele>
        <time>2018-11-18T09:44:51Z</time>
      </trkpt>
      <trkpt lat="48.42601" lon="2.68584">
        <ele>146.3</ele>
        <time>2018-11-18T09:44:52Z</time>
      </trkpt>
      <trkpt lat="48.42598" lon="2.68583">
        <ele>146.4</ele>
        <time>2018-11-18T09:44:53Z</time>
      </trkpt>
      <trkpt lat="48.42594" lon="2.68583">
        <ele>146.4</ele>
        <time>2018-11-18T09:44:54Z</time>
      </trkpt>
      <trkpt lat="48.42591" lon="2.68582">
        <ele>146.5</ele>
        <time>2018-11-18T09:44:55Z</time>
      </trkpt>
      <trkpt lat="48.42587" lon="2.68583">
        <ele>146.6</ele>
        <time>2018-11-18T09:44:56Z</time>
      </trkpt>
      <trkpt lat="48.42584" lon="2.68585">
        <ele>146.6</ele>
        <time>2018-11-18T09:44:57Z</time>
      </trkpt>
      <trkpt lat="48.42582" lon="2.68588">
        <ele>147</ele>
        <time>2018-11-18T09:44:58Z</time>
      </trkpt>
      <trkpt lat="48.42581" lon="2.6859">
        <ele>147</ele>
        <time>2018-11-18T09:44:59Z</time>
      </trkpt>
      <trkpt lat="48.4258" lon="2.68592">
        <ele>147</ele>
        <time>2018-11-18T09:45:00Z</time>
      </trkpt>
      <trkpt lat="48.4258" lon="2.68595">
        <ele>147</ele>
        <time>2018-11-18T09:45:01Z</time>
      </trkpt>
      <trkpt lat="48.42579" lon="2.68599">
        <ele>147</ele>
        <time>2018-11-18T09:45:02Z</time>
      </trkpt>
      <trkpt lat="48.42579" lon="2.68603">
        <ele>147</ele>
        <time>2018-11-18T09:45:03Z</time>
      </trkpt>
      <trkpt lat="48.42578" lon="2.68606">
        <ele>147.1</ele>
        <time>2018-11-18T09:45:04Z</time>
      </trkpt>
      <trkpt lat="48.42578" lon="2.6861">
        <ele>147.1</ele>
        <time>2018-11-18T09:45:05Z</time>
      </trkpt>
      <trkpt lat="48.42577" lon="2.68613">
        <ele>147.1</ele>
        <time>2018-11-18T09:45:06Z</time>
      </trkpt>
      <trkpt lat="48.42576" lon="2.68617">
        <ele>147.1</ele>
        <time>2018-11-18T09:45:07Z</time>
      </trkpt>
      <trkpt lat="48.42575" lon="2.68621">
        <ele>147.1</ele>
        <time>2018-11-18T09:45:08Z</time>
      </trkpt>
      <trkpt lat="48.42575" lon="2.68627">
        <ele>147.1</ele>
        <time>2018-11-18T09:45:09Z</time>
      </trkpt>
      <trkpt lat="48.42574" lon="2.68632">
        <ele>147.2</ele>
        <time>2018-11-18T09:45:10Z</time>
      </trkpt>
      <trkpt lat="48.42573" lon="2.68637">
        <ele>147.2</ele>
        <time>2018-11-18T09:45:11Z</time>
      </trkpt>
      <trkpt lat="48.42573" lon="2.68641">
        <ele>147.2</ele>
        <time>2018-11-18T09:45:12Z</time>
      </trkpt>
      <trkpt lat="48.42572" lon="2.68646">
        <ele>147.2</ele>
        <time>2018-11-18T09:45:13Z</time>
      </trkpt>
      <trkpt lat="48.42571" lon="2.68652">
        <ele>147.2</ele>
        <time>2018-11-18T09:45:14Z</time>
      </trkpt>
      <trkpt lat="48.42571" lon="2.68658">
        <ele>147.3</ele>
        <time>2018-11-18T09:45:15Z</time>
      </trkpt>
      <trkpt lat="48.4257" lon="2.68664">
        <ele>147.3</ele>
        <time>2018-11-18T09:45:16Z</time>
      </trkpt>
      <trkpt lat="48.42569" lon="2.68669">
        <ele>147.3</ele>
        <time>2018-11-18T09:45:17Z</time>
      </trkpt>
      <trkpt lat="48.42569" lon="2.68675">
        <ele>147.4</ele>
        <time>2018-11-18T09:45:18Z</time>
      </trkpt>
      <trkpt lat="48.42568" lon="2.68681">
        <ele>147.4</ele>
        <time>2018-11-18T09:45:19Z</time>
      </trkpt>
      <trkpt lat="48.42568" lon="2.68687">
        <ele>147.4</ele>
        <time>2018-11-18T09:45:20Z</time>
      </trkpt>
      <trkpt lat="48.42567" lon="2.68693">
        <ele>147.5</ele>
        <time>2018-11-18T09:45:21Z</time>
      </trkpt>
      <trkpt lat="48.42567" lon="2.68699">
        <ele>147.5</ele>
        <time>2018-11-18T09:45:22Z</time>
      </trkpt>
      <trkpt lat="48.42566" lon="2.68704">
        <ele>147.6</ele>
        <time>2018-11-18T09:45:23Z</time>
      </trkpt>
      <trkpt lat="48.42566" lon="2.6871">
        <ele>147.6</ele>
        <time>2018-11-18T09:45:24Z</time>
      </trkpt>
      <trkpt lat="48.42565" lon="2.68715">
        <ele>147.7</ele>
        <time>2018-11-18T09:45:25Z</time>
      </trkpt>
      <trkpt lat="48.42564" lon="2.68721">
        <ele>147.7</ele>
        <time>2018-11-18T09:45:26Z</time>
      </trkpt>
      <trkpt lat="48.42564" lon="2.68726">
        <ele>147.7</ele>
        <time>2018-11-18T09:45:27Z</time>
      </trkpt>
      <trkpt lat="48.42564" lon="2.68731">
        <ele>147.8</ele>
        <time>2018-11-18T09:45:28Z</time>
      </trkpt>
      <trkpt lat="48.42563" lon="2.68736">
        <ele>147.8</ele>
        <time>2018-11-18T09:45:29Z</time>
      </trkpt>
      <trkpt lat="48.42563" lon="2.68742">
        <ele>147.8</ele>
        <time>2018-11-18T09:45:30Z</time>
      </trkpt>
      <trkpt lat="48.42563" lon="2.68746">
        <ele>147.8</ele>
        <time>2018-11-18T09:45:31Z</time>
      </trkpt>
      <trkpt lat="48.42562" lon="2.68752">
        <ele>147.8</ele>
        <time>2018-11-18T09:45:32Z</time>
      </trkpt>
      <trkpt lat="48.42562" lon="2.68758">
        <ele>147.9</ele>
        <time>2018-11-18T09:45:33Z</time>
      </trkpt>
      <trkpt lat="48.42562" lon="2.68764">
        <ele>147.9</ele>
        <time>2018-11-18T09:45:34Z</time>
      </trkpt>
      <trkpt lat="48.42561" lon="2.6877">
        <ele>147.9</ele>
        <time>2018-11-18T09:45:35Z</time>
      </trkpt>
      <trkpt lat="48.42561" lon="2.68775">
        <ele>147.9</ele>
        <time>2018-11-18T09:45:36Z</time>
      </trkpt>
      <trkpt lat="48.4256" lon="2.6878">
        <ele>147.9</ele>
        <time>2018-11-18T09:45:37Z</time>
      </trkpt>
      <trkpt lat="48.4256" lon="2.68786">
        <ele>147.9</ele>
        <time>2018-11-18T09:45:38Z</time>
      </trkpt>
      <trkpt lat="48.4256" lon="2.68791">
        <ele>147.9</ele>
        <time>2018-11-18T09:45:39Z</time>
      </trkpt>
      <trkpt lat="48.4256" lon="2.68796">
        <ele>147.9</ele>
        <time>2018-11-18T09:45:40Z</time>
      </trkpt>
      <trkpt lat="48.4256" lon="2.68802">
        <ele>148</ele>
        <time>2018-11-18T09:45:41Z</time>
      </trkpt>
      <trkpt lat="48.4256" lon="2.68808">
        <ele>148</ele>
        <time>2018-11-18T09:45:42Z</time>
      </trkpt>
      <trkpt lat="48.4256" lon="2.68813">
        <ele>148</ele>
        <time>2018-11-18T09:45:43Z</time>
      </trkpt>
      <trkpt lat="48.4256" lon="2.68818">
        <ele>148</ele>
        <time>2018-11-18T09:45:44Z</time>
      </trkpt>
      <trkpt lat="48.42559" lon="2.68823">
        <ele>148</ele>
        <time>2018-11-18T09:45:45Z</time>
      </trkpt>
      <trkpt lat="48.42559" lon="2.68829">
        <ele>148</ele>
        <time>2018-11-18T09:45:46Z</time>
      </trkpt>
      <trkpt lat="48.42559" lon="2.68835">
        <ele>148.1</ele>
        <time>2018-11-18T09:45:47Z</time>
      </trkpt>
      <trkpt lat="48.42558" lon="2.68841">
        <ele>148.1</ele>
        <time>2018-11-18T09:45:48Z</time>
      </trkpt>
      <trkpt lat="48.42558" lon="2.68848">
        <ele>148.1</ele>
        <time>2018-11-18T09:45:49Z</time>
      </trkpt>
      <trkpt lat="48.42557" lon="2.68854">
        <ele>148.1</ele>
        <time>2018-11-18T09:45:50Z</time>
      </trkpt>
      <trkpt lat="48.42557" lon="2.6886">
        <ele>148.2</ele>
        <time>2018-11-18T09:45:51Z</time>
      </trkpt>
      <trkpt lat="48.42557" lon="2.68867">
        <ele>148.2</ele>
        <time>2018-11-18T09:45:52Z</time>
      </trkpt>
      <trkpt lat="48.42556" lon="2.68873">
        <ele>148.2</ele>
        <time>2018-11-18T09:45:53Z</time>
      </trkpt>
      <trkpt lat="48.42556" lon="2.68879">
        <ele>148.3</ele>
        <time>2018-11-18T09:45:54Z</time>
      </trkpt>
      <trkpt lat="48.42556" lon="2.68885">
        <ele>148.3</ele>
        <time>2018-11-18T09:45:55Z</time>
      </trkpt>
      <trkpt lat="48.42555" lon="2.68891">
        <ele>148.3</ele>
        <time>2018-11-18T09:45:56Z</time>
      </trkpt>
      <trkpt lat="48.42555" lon="2.68897">
        <ele>148.4</ele>
        <time>2018-11-18T09:45:57Z</time>
      </trkpt>
      <trkpt lat="48.42555" lon="2.68903">
        <ele>148.4</ele>
        <time>2018-11-18T09:45:58Z</time>
      </trkpt>
      <trkpt lat="48.42555" lon="2.68908">
        <ele>148.4</ele>
        <time>2018-11-18T09:45:59Z</time>
      </trkpt>
      <trkpt lat="48.42554" lon="2.68916">
        <ele>148.5</ele>
        <time>2018-11-18T09:46:00Z</time>
      </trkpt>
      <trkpt lat="48.42553" lon="2.68922">
        <ele>148.5</ele>
        <time>2018-11-18T09:46:01Z</time>
      </trkpt>
      <trkpt lat="48.42553" lon="2.68927">
        <ele>148.5</ele>
        <time>2018-11-18T09:46:02Z</time>
      </trkpt>
      <trkpt lat="48.42552" lon="2.68933">
        <ele>148.5</ele>
        <time>2018-11-18T09:46:03Z</time>
      </trkpt>
      <trkpt lat="48.42552" lon="2.6894">
        <ele>148.6</ele>
        <time>2018-11-18T09:46:04Z</time>
      </trkpt>
      <trkpt lat="48.42552" lon="2.68946">
        <ele>148.6</ele>
        <time>2018-11-18T09:46:05Z</time>
      </trkpt>
      <trkpt lat="48.42552" lon="2.68952">
        <ele>148.6</ele>
        <time>2018-11-18T09:46:06Z</time>
      </trkpt>
      <trkpt lat="48.42552" lon="2.68958">
        <ele>148.6</ele>
        <time>2018-11-18T09:46:07Z</time>
      </trkpt>
      <trkpt lat="48.42551" lon="2.68964">
        <ele>148.6</ele>
        <time>2018-11-18T09:46:08Z</time>
      </trkpt>
      <trkpt lat="48.42551" lon="2.6897">
        <ele>148.6</ele>
        <time>2018-11-18T09:46:09Z</time>
      </trkpt>
      <trkpt lat="48.42551" lon="2.68977">
        <ele>148.6</ele>
        <time>2018-11-18T09:46:10Z</time>
      </trkpt>
      <trkpt lat="48.42551" lon="2.68984">
        <ele>148.6</ele>
        <time>2018-11-18T09:46:11Z</time>
      </trkpt>
      <trkpt lat="48.4255" lon="2.68991">
        <ele>148.7</ele>
        <time>2018-11-18T09:46:12Z</time>
      </trkpt>
      <trkpt lat="48.4255" lon="2.68998">
        <ele>148.7</ele>
        <time>2018-11-18T09:46:13Z</time>
      </trkpt>
      <trkpt lat="48.42549" lon="2.69005">
        <ele>148.7</ele>
        <time>2018-11-18T09:46:14Z</time>
      </trkpt>
      <trkpt lat="48.42548" lon="2.69012">
        <ele>148.7</ele>
        <time>2018-11-18T09:46:15Z</time>
      </trkpt>
      <trkpt lat="48.42548" lon="2.69018">
        <ele>148.6</ele>
        <time>2018-11-18T09:46:16Z</time>
      </trkpt>
      <trkpt lat="48.42548" lon="2.69024">
        <ele>148.6</ele>
        <time>2018-11-18T09:46:17Z</time>
      </trkpt>
      <trkpt lat="48.42548" lon="2.69031">
        <ele>148.6</ele>
        <time>2018-11-18T09:46:18Z</time>
      </trkpt>
      <trkpt lat="48.42548" lon="2.69038">
        <ele>148.6</ele>
        <time>2018-11-18T09:46:19Z</time>
      </trkpt>
      <trkpt lat="48.42548" lon="2.69045">
        <ele>148.6</ele>
        <time>2018-11-18T09:46:20Z</time>
      </trkpt>
      <trkpt lat="48.42548" lon="2.69052">
        <ele>148.6</ele>
        <time>2018-11-18T09:46:21Z</time>
      </trkpt>
      <trkpt lat="48.42547" lon="2.69059">
        <ele>148.6</ele>
        <time>2018-11-18T09:46:22Z</time>
      </trkpt>
      <trkpt lat="48.42547" lon="2.69067">
        <ele>148.5</ele>
        <time>2018-11-18T09:46:23Z</time>
      </trkpt>
      <trkpt lat="48.42547" lon="2.69074">
        <ele>148.5</ele>
        <time>2018-11-18T09:46:24Z</time>
      </trkpt>
      <trkpt lat="48.42547" lon="2.69082">
        <ele>148.5</ele>
        <time>2018-11-18T09:46:25Z</time>
      </trkpt>
      <trkpt lat="48.42547" lon="2.6909">
        <ele>148.5</ele>
        <time>2018-11-18T09:46:26Z</time>
      </trkpt>
      <trkpt lat="48.42547" lon="2.69097">
        <ele>148.4</ele>
        <time>2018-11-18T09:46:27Z</time>
      </trkpt>
      <trkpt lat="48.42546" lon="2.69106">
        <ele>148.4</ele>
        <time>2018-11-18T09:46:28Z</time>
      </trkpt>
      <trkpt lat="48.42546" lon="2.69114">
        <ele>148.4</ele>
        <time>2018-11-18T09:46:29Z</time>
      </trkpt>
      <trkpt lat="48.42545" lon="2.69122">
        <ele>148.4</ele>
        <time>2018-11-18T09:46:30Z</time>
      </trkpt>
      <trkpt lat="48.42545" lon="2.69131">
        <ele>148.3</ele>
        <time>2018-11-18T09:46:31Z</time>
      </trkpt>
      <trkpt lat="48.42544" lon="2.69139">
        <ele>148.1</ele>
        <time>2018-11-18T09:46:32Z</time>
      </trkpt>
      <trkpt lat="48.42544" lon="2.69148">
        <ele>148</ele>
        <time>2018-11-18T09:46:33Z</time>
      </trkpt>
      <trkpt lat="48.42544" lon="2.69155">
        <ele>147.9</ele>
        <time>2018-11-18T09:46:34Z</time>
      </trkpt>
      <trkpt lat="48.42543" lon="2.69162">
        <ele>147.8</ele>
        <time>2018-11-18T09:46:35Z</time>
      </trkpt>
      <trkpt lat="48.42543" lon="2.69169">
        <ele>147.7</ele>
        <time>2018-11-18T09:46:36Z</time>
      </trkpt>
      <trkpt lat="48.42543" lon="2.69176">
        <ele>147.6</ele>
        <time>2018-11-18T09:46:37Z</time>
      </trkpt>
      <trkpt lat="48.42543" lon="2.69183">
        <ele>147.5</ele>
        <time>2018-11-18T09:46:38Z</time>
      </trkpt>
      <trkpt lat="48.42543" lon="2.69191">
        <ele>147.3</ele>
        <time>2018-11-18T09:46:39Z</time>
      </trkpt>
      <trkpt lat="48.42543" lon="2.69199">
        <ele>147.1</ele>
        <time>2018-11-18T09:46:40Z</time>
      </trkpt>
      <trkpt lat="48.42542" lon="2.69211">
        <ele>146.8</ele>
        <time>2018-11-18T09:46:41Z</time>
      </trkpt>
      <trkpt lat="48.42541" lon="2.69222">
        <ele>146.7</ele>
        <time>2018-11-18T09:46:42Z</time>
      </trkpt>
      <trkpt lat="48.42541" lon="2.6923">
        <ele>146.6</ele>
        <time>2018-11-18T09:46:43Z</time>
      </trkpt>
      <trkpt lat="48.4254" lon="2.69239">
        <ele>146.5</ele>
        <time>2018-11-18T09:46:44Z</time>
      </trkpt>
      <trkpt lat="48.4254" lon="2.69247">
        <ele>146.4</ele>
        <time>2018-11-18T09:46:45Z</time>
      </trkpt>
      <trkpt lat="48.42539" lon="2.69254">
        <ele>146.3</ele>
        <time>2018-11-18T09:46:46Z</time>
      </trkpt>
      <trkpt lat="48.42539" lon="2.69262">
        <ele>146.2</ele>
        <time>2018-11-18T09:46:47Z</time>
      </trkpt>
      <trkpt lat="48.42539" lon="2.69269">
        <ele>146.1</ele>
        <time>2018-11-18T09:46:48Z</time>
      </trkpt>
      <trkpt lat="48.42539" lon="2.69276">
        <ele>146</ele>
        <time>2018-11-18T09:46:49Z</time>
      </trkpt>
      <trkpt lat="48.42539" lon="2.69282">
        <ele>146</ele>
        <time>2018-11-18T09:46:50Z</time>
      </trkpt>
      <trkpt lat="48.42538" lon="2.69289">
        <ele>145.9</ele>
        <time>2018-11-18T09:46:51Z</time>
      </trkpt>
      <trkpt lat="48.42538" lon="2.69296">
        <ele>145.8</ele>
        <time>2018-11-18T09:46:52Z</time>
      </trkpt>
      <trkpt lat="48.42538" lon="2.69304">
        <ele>145.7</ele>
        <time>2018-11-18T09:46:53Z</time>
      </trkpt>
      <trkpt lat="48.42537" lon="2.69311">
        <ele>145.6</ele>
        <time>2018-11-18T09:46:54Z</time>
      </trkpt>
      <trkpt lat="48.42537" lon="2.69318">
        <ele>145.6</ele>
        <time>2018-11-18T09:46:55Z</time>
      </trkpt>
      <trkpt lat="48.42537" lon="2.69324">
        <ele>145.5</ele>
        <time>2018-11-18T09:46:56Z</time>
      </trkpt>
      <trkpt lat="48.42537" lon="2.69332">
        <ele>145.4</ele>
        <time>2018-11-18T09:46:57Z</time>
      </trkpt>
      <trkpt lat="48.42536" lon="2.69339">
        <ele>145.4</ele>
        <time>2018-11-18T09:46:58Z</time>
      </trkpt>
      <trkpt lat="48.42536" lon="2.69347">
        <ele>145.4</ele>
        <time>2018-11-18T09:46:59Z</time>
      </trkpt>
      <trkpt lat="48.42535" lon="2.69354">
        <ele>145.4</ele>
        <time>2018-11-18T09:47:00Z</time>
      </trkpt>
      <trkpt lat="48.42535" lon="2.69361">
        <ele>145.3</ele>
        <time>2018-11-18T09:47:01Z</time>
      </trkpt>
      <trkpt lat="48.42534" lon="2.69369">
        <ele>145.3</ele>
        <time>2018-11-18T09:47:02Z</time>
      </trkpt>
      <trkpt lat="48.42531" lon="2.69376">
        <ele>145.3</ele>
        <time>2018-11-18T09:47:03Z</time>
      </trkpt>
      <trkpt lat="48.42527" lon="2.69382">
        <ele>145.3</ele>
        <time>2018-11-18T09:47:04Z</time>
      </trkpt>
      <trkpt lat="48.42523" lon="2.69386">
        <ele>145.3</ele>
        <time>2018-11-18T09:47:05Z</time>
      </trkpt>
      <trkpt lat="48.42518" lon="2.6939">
        <ele>145</ele>
        <time>2018-11-18T09:47:06Z</time>
      </trkpt>
      <trkpt lat="48.42513" lon="2.69393">
        <ele>144.9</ele>
        <time>2018-11-18T09:47:07Z</time>
      </trkpt>
      <trkpt lat="48.42508" lon="2.69398">
        <ele>144.8</ele>
        <time>2018-11-18T09:47:08Z</time>
      </trkpt>
      <trkpt lat="48.42502" lon="2.69401">
        <ele>144.8</ele>
        <time>2018-11-18T09:47:09Z</time>
      </trkpt>
      <trkpt lat="48.42496" lon="2.69404">
        <ele>144.8</ele>
        <time>2018-11-18T09:47:10Z</time>
      </trkpt>
      <trkpt lat="48.4249" lon="2.69408">
        <ele>144.7</ele>
        <time>2018-11-18T09:47:11Z</time>
      </trkpt>
      <trkpt lat="48.42485" lon="2.69413">
        <ele>144.5</ele>
        <time>2018-11-18T09:47:12Z</time>
      </trkpt>
      <trkpt lat="48.42482" lon="2.6942">
        <ele>144.1</ele>
        <time>2018-11-18T09:47:13Z</time>
      </trkpt>
      <trkpt lat="48.4248" lon="2.69428">
        <ele>143.3</ele>
        <time>2018-11-18T09:47:14Z</time>
      </trkpt>
      <trkpt lat="48.42479" lon="2.69435">
        <ele>143.4</ele>
        <time>2018-11-18T09:47:15Z</time>
      </trkpt>
      <trkpt lat="48.42479" lon="2.69442">
        <ele>143.4</ele>
        <time>2018-11-18T09:47:16Z</time>
      </trkpt>
      <trkpt lat="48.42479" lon="2.69449">
        <ele>143.4</ele>
        <time>2018-11-18T09:47:17Z</time>
      </trkpt>
      <trkpt lat="48.42479" lon="2.69455">
        <ele>143.5</ele>
        <time>2018-11-18T09:47:18Z</time>
      </trkpt>
      <trkpt lat="48.42479" lon="2.69461">
        <ele>143.5</ele>
        <time>2018-11-18T09:47:19Z</time>
      </trkpt>
      <trkpt lat="48.42479" lon="2.69467">
        <ele>143.5</ele>
        <time>2018-11-18T09:47:20Z</time>
      </trkpt>
      <trkpt lat="48.42479" lon="2.69473">
        <ele>143.6</ele>
        <time>2018-11-18T09:47:21Z</time>
      </trkpt>
      <trkpt lat="48.42479" lon="2.69478">
        <ele>143.6</ele>
        <time>2018-11-18T09:47:22Z</time>
      </trkpt>
      <trkpt lat="48.42479" lon="2.69484">
        <ele>143.6</ele>
        <time>2018-11-18T09:47:23Z</time>
      </trkpt>
      <trkpt lat="48.42479" lon="2.6949">
        <ele>143.7</ele>
        <time>2018-11-18T09:47:24Z</time>
      </trkpt>
      <trkpt lat="48.42479" lon="2.69497">
        <ele>143.7</ele>
        <time>2018-11-18T09:47:25Z</time>
      </trkpt>
      <trkpt lat="48.42478" lon="2.69504">
        <ele>143.7</ele>
        <time>2018-11-18T09:47:26Z</time>
      </trkpt>
      <trkpt lat="48.42478" lon="2.6951">
        <ele>143.8</ele>
        <time>2018-11-18T09:47:27Z</time>
      </trkpt>
      <trkpt lat="48.42478" lon="2.69516">
        <ele>143.8</ele>
        <time>2018-11-18T09:47:28Z</time>
      </trkpt>
      <trkpt lat="48.42478" lon="2.69523">
        <ele>143.9</ele>
        <time>2018-11-18T09:47:29Z</time>
      </trkpt>
      <trkpt lat="48.42478" lon="2.69529">
        <ele>143.9</ele>
        <time>2018-11-18T09:47:30Z</time>
      </trkpt>
      <trkpt lat="48.42478" lon="2.69534">
        <ele>143.9</ele>
        <time>2018-11-18T09:47:31Z</time>
      </trkpt>
      <trkpt lat="48.42478" lon="2.6954">
        <ele>143.9</ele>
        <time>2018-11-18T09:47:32Z</time>
      </trkpt>
      <trkpt lat="48.42478" lon="2.69546">
        <ele>144</ele>
        <time>2018-11-18T09:47:33Z</time>
      </trkpt>
      <trkpt lat="48.42478" lon="2.69553">
        <ele>144</ele>
        <time>2018-11-18T09:47:34Z</time>
      </trkpt>
      <trkpt lat="48.42478" lon="2.6956">
        <ele>144</ele>
        <time>2018-11-18T09:47:35Z</time>
      </trkpt>
      <trkpt lat="48.42478" lon="2.69567">
        <ele>144</ele>
        <time>2018-11-18T09:47:36Z</time>
      </trkpt>
      <trkpt lat="48.42478" lon="2.69574">
        <ele>144</ele>
        <time>2018-11-18T09:47:37Z</time>
      </trkpt>
      <trkpt lat="48.42478" lon="2.69581">
        <ele>144</ele>
        <time>2018-11-18T09:47:38Z</time>
      </trkpt>
      <trkpt lat="48.42478" lon="2.69588">
        <ele>144</ele>
        <time>2018-11-18T09:47:39Z</time>
      </trkpt>
      <trkpt lat="48.42478" lon="2.69595">
        <ele>144</ele>
        <time>2018-11-18T09:47:40Z</time>
      </trkpt>
      <trkpt lat="48.42477" lon="2.69602">
        <ele>144</ele>
        <time>2018-11-18T09:47:41Z</time>
      </trkpt>
      <trkpt lat="48.42477" lon="2.69609">
        <ele>143.9</ele>
        <time>2018-11-18T09:47:42Z</time>
      </trkpt>
      <trkpt lat="48.42477" lon="2.69617">
        <ele>143.8</ele>
        <time>2018-11-18T09:47:43Z</time>
      </trkpt>
      <trkpt lat="48.42477" lon="2.69625">
        <ele>143.8</ele>
        <time>2018-11-18T09:47:44Z</time>
      </trkpt>
      <trkpt lat="48.42477" lon="2.69632">
        <ele>143.7</ele>
        <time>2018-11-18T09:47:45Z</time>
      </trkpt>
      <trkpt lat="48.42477" lon="2.69638">
        <ele>143.6</ele>
        <time>2018-11-18T09:47:46Z</time>
      </trkpt>
      <trkpt lat="48.42477" lon="2.69645">
        <ele>143.6</ele>
        <time>2018-11-18T09:47:47Z</time>
      </trkpt>
      <trkpt lat="48.42477" lon="2.69652">
        <ele>143.5</ele>
        <time>2018-11-18T09:47:48Z</time>
      </trkpt>
      <trkpt lat="48.42477" lon="2.6966">
        <ele>143.5</ele>
        <time>2018-11-18T09:47:49Z</time>
      </trkpt>
      <trkpt lat="48.42477" lon="2.69667">
        <ele>143.4</ele>
        <time>2018-11-18T09:47:50Z</time>
      </trkpt>
      <trkpt lat="48.42477" lon="2.69675">
        <ele>143.3</ele>
        <time>2018-11-18T09:47:51Z</time>
      </trkpt>
      <trkpt lat="48.42477" lon="2.69683">
        <ele>143.3</ele>
        <time>2018-11-18T09:47:52Z</time>
      </trkpt>
      <trkpt lat="48.42477" lon="2.69691">
        <ele>143.2</ele>
        <time>2018-11-18T09:47:53Z</time>
      </trkpt>
      <trkpt lat="48.42477" lon="2.69699">
        <ele>143.2</ele>
        <time>2018-11-18T09:47:54Z</time>
      </trkpt>
      <trkpt lat="48.42477" lon="2.69707">
        <ele>143.2</ele>
        <time>2018-11-18T09:47:55Z</time>
      </trkpt>
      <trkpt lat="48.42477" lon="2.69715">
        <ele>143.2</ele>
        <time>2018-11-18T09:47:56Z</time>
      </trkpt>
      <trkpt lat="48.42475" lon="2.69724">
        <ele>143.1</ele>
        <time>2018-11-18T09:47:57Z</time>
      </trkpt>
      <trkpt lat="48.42472" lon="2.69736">
        <ele>143</ele>
        <time>2018-11-18T09:47:58Z</time>
      </trkpt>
      <trkpt lat="48.42467" lon="2.69743">
        <ele>142.8</ele>
        <time>2018-11-18T09:47:59Z</time>
      </trkpt>
      <trkpt lat="48.42463" lon="2.69747">
        <ele>142.7</ele>
        <time>2018-11-18T09:48:00Z</time>
      </trkpt>
      <trkpt lat="48.4246" lon="2.69749">
        <ele>142.7</ele>
        <time>2018-11-18T09:48:01Z</time>
      </trkpt>
      <trkpt lat="48.42456" lon="2.69751">
        <ele>142.6</ele>
        <time>2018-11-18T09:48:02Z</time>
      </trkpt>
      <trkpt lat="48.42453" lon="2.69753">
        <ele>142.5</ele>
        <time>2018-11-18T09:48:03Z</time>
      </trkpt>
      <trkpt lat="48.42449" lon="2.69754">
        <ele>142.5</ele>
        <time>2018-11-18T09:48:04Z</time>
      </trkpt>
      <trkpt lat="48.42445" lon="2.69754">
        <ele>142.4</ele>
        <time>2018-11-18T09:48:05Z</time>
      </trkpt>
      <trkpt lat="48.42442" lon="2.69752">
        <ele>142.2</ele>
        <time>2018-11-18T09:48:06Z</time>
      </trkpt>
      <trkpt lat="48.42439" lon="2.69753">
        <ele>142.1</ele>
        <time>2018-11-18T09:48:07Z</time>
      </trkpt>
      <trkpt lat="48.42436" lon="2.69754">
        <ele>142.2</ele>
        <time>2018-11-18T09:48:08Z</time>
      </trkpt>
      <trkpt lat="48.42434" lon="2.69755">
        <ele>142.1</ele>
        <time>2018-11-18T09:48:09Z</time>
      </trkpt>
      <trkpt lat="48.4243" lon="2.69756">
        <ele>141.9</ele>
        <time>2018-11-18T09:48:10Z</time>
      </trkpt>
      <trkpt lat="48.42427" lon="2.69759">
        <ele>141.9</ele>
        <time>2018-11-18T09:48:11Z</time>
      </trkpt>
      <trkpt lat="48.42424" lon="2.69761">
        <ele>141.8</ele>
        <time>2018-11-18T09:48:12Z</time>
      </trkpt>
      <trkpt lat="48.42421" lon="2.69762">
        <ele>141.7</ele>
        <time>2018-11-18T09:48:13Z</time>
      </trkpt>
      <trkpt lat="48.42419" lon="2.69761">
        <ele>141.5</ele>
        <time>2018-11-18T09:48:14Z</time>
      </trkpt>
      <trkpt lat="48.42416" lon="2.69761">
        <ele>141.3</ele>
        <time>2018-11-18T09:48:15Z</time>
      </trkpt>
      <trkpt lat="48.42412" lon="2.69761">
        <ele>141.1</ele>
        <time>2018-11-18T09:48:16Z</time>
      </trkpt>
      <trkpt lat="48.42408" lon="2.69762">
        <ele>141.2</ele>
        <time>2018-11-18T09:48:17Z</time>
      </trkpt>
      <trkpt lat="48.42404" lon="2.69762">
        <ele>140.9</ele>
        <time>2018-11-18T09:48:18Z</time>
      </trkpt>
      <trkpt lat="48.42401" lon="2.69762">
        <ele>140.8</ele>
        <time>2018-11-18T09:48:19Z</time>
      </trkpt>
      <trkpt lat="48.42397" lon="2.69764">
        <ele>140.6</ele>
        <time>2018-11-18T09:48:20Z</time>
      </trkpt>
      <trkpt lat="48.42394" lon="2.69765">
        <ele>140.5</ele>
        <time>2018-11-18T09:48:21Z</time>
      </trkpt>
      <trkpt lat="48.4239" lon="2.69767">
        <ele>140.2</ele>
        <time>2018-11-18T09:48:22Z</time>
      </trkpt>
      <trkpt lat="48.42387" lon="2.69769">
        <ele>140</ele>
        <time>2018-11-18T09:48:23Z</time>
      </trkpt>
      <trkpt lat="48.42384" lon="2.6977">
        <ele>139.7</ele>
        <time>2018-11-18T09:48:24Z</time>
      </trkpt>
      <trkpt lat="48.42381" lon="2.6977">
        <ele>139.5</ele>
        <time>2018-11-18T09:48:25Z</time>
      </trkpt>
      <trkpt lat="48.42378" lon="2.69772">
        <ele>139.3</ele>
        <time>2018-11-18T09:48:26Z</time>
      </trkpt>
      <trkpt lat="48.42376" lon="2.69773">
        <ele>139</ele>
        <time>2018-11-18T09:48:27Z</time>
      </trkpt>
      <trkpt lat="48.42373" lon="2.69775">
        <ele>139</ele>
        <time>2018-11-18T09:48:28Z</time>
      </trkpt>
      <trkpt lat="48.42371" lon="2.69777">
        <ele>138.7</ele>
        <time>2018-11-18T09:48:29Z</time>
      </trkpt>
      <trkpt lat="48.42369" lon="2.69778">
        <ele>138.4</ele>
        <time>2018-11-18T09:48:30Z</time>
      </trkpt>
      <trkpt lat="48.42367" lon="2.69779">
        <ele>138.1</ele>
        <time>2018-11-18T09:48:31Z</time>
      </trkpt>
      <trkpt lat="48.42365" lon="2.69779">
        <ele>138.1</ele>
        <time>2018-11-18T09:48:32Z</time>
      </trkpt>
      <trkpt lat="48.42364" lon="2.69781">
        <ele>137.7</ele>
        <time>2018-11-18T09:48:33Z</time>
      </trkpt>
      <trkpt lat="48.42362" lon="2.69784">
        <ele>137.3</ele>
        <time>2018-11-18T09:48:34Z</time>
      </trkpt>
      <trkpt lat="48.4236" lon="2.69786">
        <ele>137.3</ele>
        <time>2018-11-18T09:48:35Z</time>
      </trkpt>
      <trkpt lat="48.42358" lon="2.69787">
        <ele>136.8</ele>
        <time>2018-11-18T09:48:36Z</time>
      </trkpt>
      <trkpt lat="48.42355" lon="2.69788">
        <ele>136.5</ele>
        <time>2018-11-18T09:48:37Z</time>
      </trkpt>
      <trkpt lat="48.42353" lon="2.69789">
        <ele>136.2</ele>
        <time>2018-11-18T09:48:38Z</time>
      </trkpt>
      <trkpt lat="48.42351" lon="2.6979">
        <ele>136.1</ele>
        <time>2018-11-18T09:48:39Z</time>
      </trkpt>
      <trkpt lat="48.42349" lon="2.69791">
        <ele>135.8</ele>
        <time>2018-11-18T09:48:40Z</time>
      </trkpt>
      <trkpt lat="48.42346" lon="2.69791">
        <ele>135.5</ele>
        <time>2018-11-18T09:48:41Z</time>
      </trkpt>
      <trkpt lat="48.42342" lon="2.69789">
        <ele>135.2</ele>
        <time>2018-11-18T09:48:42Z</time>
      </trkpt>
      <trkpt lat="48.42338" lon="2.69786">
        <ele>134.6</ele>
        <time>2018-11-18T09:48:43Z</time>
      </trkpt>
      <trkpt lat="48.42333" lon="2.69782">
        <ele>133.9</ele>
        <time>2018-11-18T09:48:44Z</time>
      </trkpt>
      <trkpt lat="48.42329" lon="2.69778">
        <ele>133.5</ele>
        <time>2018-11-18T09:48:45Z</time>
      </trkpt>
      <trkpt lat="48.42325" lon="2.69774">
        <ele>132.8</ele>
        <time>2018-11-18T09:48:46Z</time>
      </trkpt>
      <trkpt lat="48.4232" lon="2.69769">
        <ele>132.4</ele>
        <time>2018-11-18T09:48:47Z</time>
      </trkpt>
      <trkpt lat="48.42316" lon="2.69764">
        <ele>131.6</ele>
        <time>2018-11-18T09:48:48Z</time>
      </trkpt>
      <trkpt lat="48.42311" lon="2.6976">
        <ele>131.1</ele>
        <time>2018-11-18T09:48:49Z</time>
      </trkpt>
      <trkpt lat="48.42307" lon="2.69758">
        <ele>130.3</ele>
        <time>2018-11-18T09:48:50Z</time>
      </trkpt>
      <trkpt lat="48.42304" lon="2.69757">
        <ele>129.6</ele>
        <time>2018-11-18T09:48:51Z</time>
      </trkpt>
      <trkpt lat="48.42302" lon="2.69756">
        <ele>129.1</ele>
        <time>2018-11-18T09:48:52Z</time>
      </trkpt>
      <trkpt lat="48.42299" lon="2.69755">
        <ele>128.6</ele>
        <time>2018-11-18T09:48:53Z</time>
      </trkpt>
      <trkpt lat="48.42296" lon="2.69754">
        <ele>128.1</ele>
        <time>2018-11-18T09:48:54Z</time>
      </trkpt>
      <trkpt lat="48.42292" lon="2.69753">
        <ele>127.6</ele>
        <time>2018-11-18T09:48:55Z</time>
      </trkpt>
      <trkpt lat="48.42287" lon="2.69752">
        <ele>126.4</ele>
        <time>2018-11-18T09:48:56Z</time>
      </trkpt>
      <trkpt lat="48.42283" lon="2.6975">
        <ele>125.8</ele>
        <time>2018-11-18T09:48:57Z</time>
      </trkpt>
      <trkpt lat="48.42279" lon="2.69748">
        <ele>124.4</ele>
        <time>2018-11-18T09:48:58Z</time>
      </trkpt>
      <trkpt lat="48.42275" lon="2.69747">
        <ele>123.8</ele>
        <time>2018-11-18T09:48:59Z</time>
      </trkpt>
      <trkpt lat="48.42272" lon="2.69746">
        <ele>123.2</ele>
        <time>2018-11-18T09:49:00Z</time>
      </trkpt>
      <trkpt lat="48.42269" lon="2.69746">
        <ele>122.6</ele>
        <time>2018-11-18T09:49:01Z</time>
      </trkpt>
      <trkpt lat="48.42265" lon="2.69746">
        <ele>121.6</ele>
        <time>2018-11-18T09:49:02Z</time>
      </trkpt>
      <trkpt lat="48.42261" lon="2.69746">
        <ele>121.1</ele>
        <time>2018-11-18T09:49:03Z</time>
      </trkpt>
      <trkpt lat="48.42259" lon="2.69747">
        <ele>120.7</ele>
        <time>2018-11-18T09:49:04Z</time>
      </trkpt>
      <trkpt lat="48.42256" lon="2.69749">
        <ele>120.4</ele>
        <time>2018-11-18T09:49:05Z</time>
      </trkpt>
      <trkpt lat="48.42253" lon="2.6975">
        <ele>120</ele>
        <time>2018-11-18T09:49:06Z</time>
      </trkpt>
      <trkpt lat="48.4225" lon="2.69752">
        <ele>119.6</ele>
        <time>2018-11-18T09:49:07Z</time>
      </trkpt>
      <trkpt lat="48.42245" lon="2.69752">
        <ele>119.1</ele>
        <time>2018-11-18T09:49:08Z</time>
      </trkpt>
      <trkpt lat="48.42242" lon="2.69753">
        <ele>118.6</ele>
        <time>2018-11-18T09:49:09Z</time>
      </trkpt>
      <trkpt lat="48.42239" lon="2.69754">
        <ele>118.1</ele>
        <time>2018-11-18T09:49:10Z</time>
      </trkpt>
      <trkpt lat="48.42235" lon="2.69754">
        <ele>117.6</ele>
        <time>2018-11-18T09:49:11Z</time>
      </trkpt>
      <trkpt lat="48.42231" lon="2.69756">
        <ele>117.2</ele>
        <time>2018-11-18T09:49:12Z</time>
      </trkpt>
      <trkpt lat="48.42228" lon="2.69758">
        <ele>117</ele>
        <time>2018-11-18T09:49:13Z</time>
      </trkpt>
      <trkpt lat="48.42225" lon="2.69759">
        <ele>116.8</ele>
        <time>2018-11-18T09:49:14Z</time>
      </trkpt>
      <trkpt lat="48.42222" lon="2.6976">
        <ele>116.6</ele>
        <time>2018-11-18T09:49:15Z</time>
      </trkpt>
      <trkpt lat="48.42218" lon="2.6976">
        <ele>116.4</ele>
        <time>2018-11-18T09:49:16Z</time>
      </trkpt>
      <trkpt lat="48.42214" lon="2.69761">
        <ele>116.2</ele>
        <time>2018-11-18T09:49:17Z</time>
      </trkpt>
      <trkpt lat="48.42211" lon="2.69762">
        <ele>115.9</ele>
        <time>2018-11-18T09:49:18Z</time>
      </trkpt>
      <trkpt lat="48.42207" lon="2.69764">
        <ele>115.7</ele>
        <time>2018-11-18T09:49:19Z</time>
      </trkpt>
      <trkpt lat="48.42204" lon="2.69766">
        <ele>115.4</ele>
        <time>2018-11-18T09:49:20Z</time>
      </trkpt>
      <trkpt lat="48.42201" lon="2.69768">
        <ele>115.2</ele>
        <time>2018-11-18T09:49:21Z</time>
      </trkpt>
      <trkpt lat="48.42198" lon="2.6977">
        <ele>115</ele>
        <time>2018-11-18T09:49:22Z</time>
      </trkpt>
      <trkpt lat="48.42197" lon="2.69772">
        <ele>114.9</ele>
        <time>2018-11-18T09:49:23Z</time>
      </trkpt>
      <trkpt lat="48.42195" lon="2.69774">
        <ele>114.8</ele>
        <time>2018-11-18T09:49:24Z</time>
      </trkpt>
      <trkpt lat="48.42194" lon="2.69776">
        <ele>114.7</ele>
        <time>2018-11-18T09:49:25Z</time>
      </trkpt>
      <trkpt lat="48.42193" lon="2.69779">
        <ele>114.5</ele>
        <time>2018-11-18T09:49:26Z</time>
      </trkpt>
      <trkpt lat="48.42191" lon="2.69782">
        <ele>114.4</ele>
        <time>2018-11-18T09:49:27Z</time>
      </trkpt>
      <trkpt lat="48.42188" lon="2.69784">
        <ele>114.2</ele>
        <time>2018-11-18T09:49:28Z</time>
      </trkpt>
      <trkpt lat="48.42186" lon="2.69786">
        <ele>113.9</ele>
        <time>2018-11-18T09:49:29Z</time>
      </trkpt>
      <trkpt lat="48.42183" lon="2.69789">
        <ele>113.5</ele>
        <time>2018-11-18T09:49:30Z</time>
      </trkpt>
      <trkpt lat="48.42181" lon="2.69791">
        <ele>113.2</ele>
        <time>2018-11-18T09:49:31Z</time>
      </trkpt>
      <trkpt lat="48.42178" lon="2.69793">
        <ele>113</ele>
        <time>2018-11-18T09:49:32Z</time>
      </trkpt>
      <trkpt lat="48.42175" lon="2.69795">
        <ele>112.7</ele>
        <time>2018-11-18T09:49:33Z</time>
      </trkpt>
      <trkpt lat="48.42171" lon="2.69797">
        <ele>112.4</ele>
        <time>2018-11-18T09:49:34Z</time>
      </trkpt>
      <trkpt lat="48.42168" lon="2.69798">
        <ele>112.1</ele>
        <time>2018-11-18T09:49:35Z</time>
      </trkpt>
      <trkpt lat="48.42164" lon="2.698">
        <ele>111.8</ele>
        <time>2018-11-18T09:49:36Z</time>
      </trkpt>
      <trkpt lat="48.4216" lon="2.69802">
        <ele>111.6</ele>
        <time>2018-11-18T09:49:37Z</time>
      </trkpt>
      <trkpt lat="48.42156" lon="2.69806">
        <ele>111.4</ele>
        <time>2018-11-18T09:49:38Z</time>
      </trkpt>
      <trkpt lat="48.42153" lon="2.6981">
        <ele>111.3</ele>
        <time>2018-11-18T09:49:39Z</time>
      </trkpt>
      <trkpt lat="48.4215" lon="2.69813">
        <ele>111.1</ele>
        <time>2018-11-18T09:49:40Z</time>
      </trkpt>
      <trkpt lat="48.42146" lon="2.69816">
        <ele>111</ele>
        <time>2018-11-18T09:49:41Z</time>
      </trkpt>
      <trkpt lat="48.42143" lon="2.69818">
        <ele>110.9</ele>
        <time>2018-11-18T09:49:42Z</time>
      </trkpt>
      <trkpt lat="48.4214" lon="2.6982">
        <ele>110.9</ele>
        <time>2018-11-18T09:49:43Z</time>
      </trkpt>
      <trkpt lat="48.42137" lon="2.69823">
        <ele>110.9</ele>
        <time>2018-11-18T09:49:44Z</time>
      </trkpt>
      <trkpt lat="48.42129" lon="2.69829">
        <ele>110.8</ele>
        <time>2018-11-18T09:49:45Z</time>
      </trkpt>
      <trkpt lat="48.42121" lon="2.69834">
        <ele>110.8</ele>
        <time>2018-11-18T09:49:46Z</time>
      </trkpt>
      <trkpt lat="48.42116" lon="2.69839">
        <ele>110.7</ele>
        <time>2018-11-18T09:49:47Z</time>
      </trkpt>
      <trkpt lat="48.42112" lon="2.69845">
        <ele>110.3</ele>
        <time>2018-11-18T09:49:48Z</time>
      </trkpt>
      <trkpt lat="48.42109" lon="2.69851">
        <ele>110.2</ele>
        <time>2018-11-18T09:49:49Z</time>
      </trkpt>
      <trkpt lat="48.42107" lon="2.69855">
        <ele>110.2</ele>
        <time>2018-11-18T09:49:50Z</time>
      </trkpt>
      <trkpt lat="48.42105" lon="2.69859">
        <ele>110.1</ele>
        <time>2018-11-18T09:49:51Z</time>
      </trkpt>
      <trkpt lat="48.42103" lon="2.69862">
        <ele>110.1</ele>
        <time>2018-11-18T09:49:52Z</time>
      </trkpt>
      <trkpt lat="48.42101" lon="2.69865">
        <ele>110.1</ele>
        <time>2018-11-18T09:49:53Z</time>
      </trkpt>
      <trkpt lat="48.42099" lon="2.69866">
        <ele>110</ele>
        <time>2018-11-18T09:49:54Z</time>
      </trkpt>
      <trkpt lat="48.42097" lon="2.69868">
        <ele>110</ele>
        <time>2018-11-18T09:49:55Z</time>
      </trkpt>
      <trkpt lat="48.42095" lon="2.69869">
        <ele>109.9</ele>
        <time>2018-11-18T09:49:56Z</time>
      </trkpt>
      <trkpt lat="48.42093" lon="2.69871">
        <ele>109.9</ele>
        <time>2018-11-18T09:49:57Z</time>
      </trkpt>
      <trkpt lat="48.42092" lon="2.69873">
        <ele>109.9</ele>
        <time>2018-11-18T09:49:58Z</time>
      </trkpt>
      <trkpt lat="48.42091" lon="2.69875">
        <ele>110</ele>
        <time>2018-11-18T09:49:59Z</time>
      </trkpt>
      <trkpt lat="48.4209" lon="2.69878">
        <ele>110.1</ele>
        <time>2018-11-18T09:50:00Z</time>
      </trkpt>
      <trkpt lat="48.42089" lon="2.69881">
        <ele>110.2</ele>
        <time>2018-11-18T09:50:01Z</time>
      </trkpt>
      <trkpt lat="48.42089" lon="2.69883">
        <ele>110.3</ele>
        <time>2018-11-18T09:50:02Z</time>
      </trkpt>
      <trkpt lat="48.42088" lon="2.69885">
        <ele>110.4</ele>
        <time>2018-11-18T09:50:03Z</time>
      </trkpt>
      <trkpt lat="48.42087" lon="2.69887">
        <ele>110.5</ele>
        <time>2018-11-18T09:50:04Z</time>
      </trkpt>
      <trkpt lat="48.42087" lon="2.6989">
        <ele>110.5</ele>
        <time>2018-11-18T09:50:05Z</time>
      </trkpt>
      <trkpt lat="48.42086" lon="2.69893">
        <ele>110.6</ele>
        <time>2018-11-18T09:50:06Z</time>
      </trkpt>
      <trkpt lat="48.42086" lon="2.69896">
        <ele>110.7</ele>
        <time>2018-11-18T09:50:07Z</time>
      </trkpt>
      <trkpt lat="48.42086" lon="2.69899">
        <ele>110.8</ele>
        <time>2018-11-18T09:50:08Z</time>
      </trkpt>
      <trkpt lat="48.42085" lon="2.69902">
        <ele>110.8</ele>
        <time>2018-11-18T09:50:09Z</time>
      </trkpt>
      <trkpt lat="48.42085" lon="2.69905">
        <ele>110.9</ele>
        <time>2018-11-18T09:50:10Z</time>
      </trkpt>
      <trkpt lat="48.42084" lon="2.69908">
        <ele>110.9</ele>
        <time>2018-11-18T09:50:11Z</time>
      </trkpt>
      <trkpt lat="48.42083" lon="2.69911">
        <ele>110.9</ele>
        <time>2018-11-18T09:50:12Z</time>
      </trkpt>
      <trkpt lat="48.42083" lon="2.69914">
        <ele>110.9</ele>
        <time>2018-11-18T09:50:13Z</time>
      </trkpt>
      <trkpt lat="48.42082" lon="2.69917">
        <ele>111</ele>
        <time>2018-11-18T09:50:14Z</time>
      </trkpt>
      <trkpt lat="48.42081" lon="2.6992">
        <ele>111</ele>
        <time>2018-11-18T09:50:15Z</time>
      </trkpt>
      <trkpt lat="48.4208" lon="2.69923">
        <ele>111</ele>
        <time>2018-11-18T09:50:16Z</time>
      </trkpt>
      <trkpt lat="48.4208" lon="2.69926">
        <ele>111</ele>
        <time>2018-11-18T09:50:17Z</time>
      </trkpt>
      <trkpt lat="48.42079" lon="2.69929">
        <ele>111</ele>
        <time>2018-11-18T09:50:18Z</time>
      </trkpt>
      <trkpt lat="48.42078" lon="2.69933">
        <ele>110.9</ele>
        <time>2018-11-18T09:50:19Z</time>
      </trkpt>
      <trkpt lat="48.42077" lon="2.69937">
        <ele>110.9</ele>
        <time>2018-11-18T09:50:20Z</time>
      </trkpt>
      <trkpt lat="48.42077" lon="2.6994">
        <ele>110.9</ele>
        <time>2018-11-18T09:50:21Z</time>
      </trkpt>
      <trkpt lat="48.42076" lon="2.69943">
        <ele>110.9</ele>
        <time>2018-11-18T09:50:22Z</time>
      </trkpt>
      <trkpt lat="48.42076" lon="2.69946">
        <ele>110.9</ele>
        <time>2018-11-18T09:50:23Z</time>
      </trkpt>
      <trkpt lat="48.42075" lon="2.6995">
        <ele>110.8</ele>
        <time>2018-11-18T09:50:24Z</time>
      </trkpt>
      <trkpt lat="48.42074" lon="2.69953">
        <ele>110.8</ele>
        <time>2018-11-18T09:50:25Z</time>
      </trkpt>
      <trkpt lat="48.42074" lon="2.69957">
        <ele>110.8</ele>
        <time>2018-11-18T09:50:26Z</time>
      </trkpt>
      <trkpt lat="48.42073" lon="2.6996">
        <ele>110.7</ele>
        <time>2018-11-18T09:50:27Z</time>
      </trkpt>
      <trkpt lat="48.42074" lon="2.69963">
        <ele>110.7</ele>
        <time>2018-11-18T09:50:28Z</time>
      </trkpt>
      <trkpt lat="48.42074" lon="2.69966">
        <ele>110.6</ele>
        <time>2018-11-18T09:50:29Z</time>
      </trkpt>
      <trkpt lat="48.42075" lon="2.69969">
        <ele>110.6</ele>
        <time>2018-11-18T09:50:30Z</time>
      </trkpt>
      <trkpt lat="48.42076" lon="2.69971">
        <ele>110.6</ele>
        <time>2018-11-18T09:50:31Z</time>
      </trkpt>
      <trkpt lat="48.42076" lon="2.69974">
        <ele>110.5</ele>
        <time>2018-11-18T09:50:32Z</time>
      </trkpt>
      <trkpt lat="48.42077" lon="2.69976">
        <ele>110.5</ele>
        <time>2018-11-18T09:50:33Z</time>
      </trkpt>
      <trkpt lat="48.42078" lon="2.69978">
        <ele>110.5</ele>
        <time>2018-11-18T09:50:34Z</time>
      </trkpt>
      <trkpt lat="48.42079" lon="2.6998">
        <ele>110.5</ele>
        <time>2018-11-18T09:50:35Z</time>
      </trkpt>
      <trkpt lat="48.4208" lon="2.69983">
        <ele>110.7</ele>
        <time>2018-11-18T09:50:36Z</time>
      </trkpt>
      <trkpt lat="48.42081" lon="2.69985">
        <ele>110.7</ele>
        <time>2018-11-18T09:50:37Z</time>
      </trkpt>
      <trkpt lat="48.42082" lon="2.69987">
        <ele>110.7</ele>
        <time>2018-11-18T09:50:38Z</time>
      </trkpt>
      <trkpt lat="48.42083" lon="2.69989">
        <ele>110.8</ele>
        <time>2018-11-18T09:50:39Z</time>
      </trkpt>
      <trkpt lat="48.42085" lon="2.6999">
        <ele>110.8</ele>
        <time>2018-11-18T09:50:40Z</time>
      </trkpt>
      <trkpt lat="48.42087" lon="2.6999">
        <ele>110.8</ele>
        <time>2018-11-18T09:50:41Z</time>
      </trkpt>
      <trkpt lat="48.42088" lon="2.6999">
        <ele>110.8</ele>
        <time>2018-11-18T09:50:42Z</time>
      </trkpt>
      <trkpt lat="48.42091" lon="2.69992">
        <ele>110.9</ele>
        <time>2018-11-18T09:50:43Z</time>
      </trkpt>
      <trkpt lat="48.42098" lon="2.70001">
        <ele>111</ele>
        <time>2018-11-18T09:50:44Z</time>
      </trkpt>
      <trkpt lat="48.42105" lon="2.70009">
        <ele>111.1</ele>
        <time>2018-11-18T09:50:45Z</time>
      </trkpt>
      <trkpt lat="48.42108" lon="2.70012">
        <ele>111.3</ele>
        <time>2018-11-18T09:50:46Z</time>
      </trkpt>
      <trkpt lat="48.42107" lon="2.70014">
        <ele>111.3</ele>
        <time>2018-11-18T09:50:47Z</time>
      </trkpt>
      <trkpt lat="48.42108" lon="2.70015">
        <ele>111.3</ele>
        <time>2018-11-18T09:50:48Z</time>
      </trkpt>
      <trkpt lat="48.42108" lon="2.70016">
        <ele>111.4</ele>
        <time>2018-11-18T09:50:49Z</time>
      </trkpt>
      <trkpt lat="48.42108" lon="2.70018">
        <ele>111.4</ele>
        <time>2018-11-18T09:50:50Z</time>
      </trkpt>
      <trkpt lat="48.42109" lon="2.70019">
        <ele>111.5</ele>
        <time>2018-11-18T09:50:51Z</time>
      </trkpt>
      <trkpt lat="48.4211" lon="2.70021">
        <ele>111.5</ele>
        <time>2018-11-18T09:50:52Z</time>
      </trkpt>
      <trkpt lat="48.42111" lon="2.70022">
        <ele>111.6</ele>
        <time>2018-11-18T09:50:53Z</time>
      </trkpt>
      <trkpt lat="48.42113" lon="2.70022">
        <ele>111.7</ele>
        <time>2018-11-18T09:50:54Z</time>
      </trkpt>
      <trkpt lat="48.42114" lon="2.70023">
        <ele>111.8</ele>
        <time>2018-11-18T09:50:55Z</time>
      </trkpt>
      <trkpt lat="48.42115" lon="2.70024">
        <ele>111.9</ele>
        <time>2018-11-18T09:50:56Z</time>
      </trkpt>
      <trkpt lat="48.42115" lon="2.70025">
        <ele>111.9</ele>
        <time>2018-11-18T09:50:57Z</time>
      </trkpt>
      <trkpt lat="48.42116" lon="2.70026">
        <ele>112</ele>
        <time>2018-11-18T09:50:58Z</time>
      </trkpt>
      <trkpt lat="48.42117" lon="2.70027">
        <ele>112.1</ele>
        <time>2018-11-18T09:50:59Z</time>
      </trkpt>
      <trkpt lat="48.42118" lon="2.70028">
        <ele>112.2</ele>
        <time>2018-11-18T09:51:00Z</time>
      </trkpt>
      <trkpt lat="48.42119" lon="2.7003">
        <ele>112.3</ele>
        <time>2018-11-18T09:51:01Z</time>
      </trkpt>
      <trkpt lat="48.4212" lon="2.70031">
        <ele>112.3</ele>
        <time>2018-11-18T09:51:02Z</time>
      </trkpt>
      <trkpt lat="48.42122" lon="2.70032">
        <ele>112.4</ele>
        <time>2018-11-18T09:51:03Z</time>
      </trkpt>
      <trkpt lat="48.42123" lon="2.70033">
        <ele>112.5</ele>
        <time>2018-11-18T09:51:04Z</time>
      </trkpt>
      <trkpt lat="48.42124" lon="2.70034">
        <ele>112.6</ele>
        <time>2018-11-18T09:51:05Z</time>
      </trkpt>
      <trkpt lat="48.42125" lon="2.70034">
        <ele>112.6</ele>
        <time>2018-11-18T09:51:06Z</time>
      </trkpt>
      <trkpt lat="48.42126" lon="2.70035">
        <ele>112.7</ele>
        <time>2018-11-18T09:51:07Z</time>
      </trkpt>
      <trkpt lat="48.42127" lon="2.70036">
        <ele>112.8</ele>
        <time>2018-11-18T09:51:08Z</time>
      </trkpt>
      <trkpt lat="48.42129" lon="2.70037">
        <ele>112.8</ele>
        <time>2018-11-18T09:51:09Z</time>
      </trkpt>
      <trkpt lat="48.4213" lon="2.70038">
        <ele>112.9</ele>
        <time>2018-11-18T09:51:10Z</time>
      </trkpt>
      <trkpt lat="48.42131" lon="2.70039">
        <ele>113</ele>
        <time>2018-11-18T09:51:11Z</time>
      </trkpt>
      <trkpt lat="48.42132" lon="2.7004">
        <ele>113</ele>
        <time>2018-11-18T09:51:12Z</time>
      </trkpt>
      <trkpt lat="48.42133" lon="2.70041">
        <ele>113.1</ele>
        <time>2018-11-18T09:51:13Z</time>
      </trkpt>
      <trkpt lat="48.42134" lon="2.70042">
        <ele>113.2</ele>
        <time>2018-11-18T09:51:14Z</time>
      </trkpt>
      <trkpt lat="48.42135" lon="2.70043">
        <ele>113.2</ele>
        <time>2018-11-18T09:51:15Z</time>
      </trkpt>
      <trkpt lat="48.42136" lon="2.70043">
        <ele>113.2</ele>
        <time>2018-11-18T09:51:16Z</time>
      </trkpt>
      <trkpt lat="48.42137" lon="2.70042">
        <ele>113.3</ele>
        <time>2018-11-18T09:51:17Z</time>
      </trkpt>
      <trkpt lat="48.42138" lon="2.70042">
        <ele>113.3</ele>
        <time>2018-11-18T09:51:18Z</time>
      </trkpt>
      <trkpt lat="48.42139" lon="2.70043">
        <ele>113.4</ele>
        <time>2018-11-18T09:51:19Z</time>
      </trkpt>
      <trkpt lat="48.4214" lon="2.70043">
        <ele>113.4</ele>
        <time>2018-11-18T09:51:20Z</time>
      </trkpt>
      <trkpt lat="48.42141" lon="2.70044">
        <ele>113.5</ele>
        <time>2018-11-18T09:51:21Z</time>
      </trkpt>
      <trkpt lat="48.42142" lon="2.70045">
        <ele>113.6</ele>
        <time>2018-11-18T09:51:22Z</time>
      </trkpt>
      <trkpt lat="48.42144" lon="2.70046">
        <ele>113.6</ele>
        <time>2018-11-18T09:51:23Z</time>
      </trkpt>
      <trkpt lat="48.42145" lon="2.70047">
        <ele>113.7</ele>
        <time>2018-11-18T09:51:24Z</time>
      </trkpt>
      <trkpt lat="48.42146" lon="2.70047">
        <ele>113.8</ele>
        <time>2018-11-18T09:51:25Z</time>
      </trkpt>
      <trkpt lat="48.42146" lon="2.70048">
        <ele>113.8</ele>
        <time>2018-11-18T09:51:26Z</time>
      </trkpt>
      <trkpt lat="48.42147" lon="2.7005">
        <ele>113.9</ele>
        <time>2018-11-18T09:51:27Z</time>
      </trkpt>
      <trkpt lat="48.42147" lon="2.70051">
        <ele>114</ele>
        <time>2018-11-18T09:51:28Z</time>
      </trkpt>
      <trkpt lat="48.42148" lon="2.70052">
        <ele>114</ele>
        <time>2018-11-18T09:51:29Z</time>
      </trkpt>
      <trkpt lat="48.42148" lon="2.70054">
        <ele>114.1</ele>
        <time>2018-11-18T09:51:30Z</time>
      </trkpt>
      <trkpt lat="48.42148" lon="2.70055">
        <ele>114.2</ele>
        <time>2018-11-18T09:51:31Z</time>
      </trkpt>
      <trkpt lat="48.42148" lon="2.70057">
        <ele>114.2</ele>
        <time>2018-11-18T09:51:32Z</time>
      </trkpt>
      <trkpt lat="48.42149" lon="2.7006">
        <ele>114.4</ele>
        <time>2018-11-18T09:51:33Z</time>
      </trkpt>
      <trkpt lat="48.42149" lon="2.70062">
        <ele>114.5</ele>
        <time>2018-11-18T09:51:34Z</time>
      </trkpt>
      <trkpt lat="48.42149" lon="2.70064">
        <ele>114.6</ele>
        <time>2018-11-18T09:51:35Z</time>
      </trkpt>
      <trkpt lat="48.42149" lon="2.70066">
        <ele>114.6</ele>
        <time>2018-11-18T09:51:36Z</time>
      </trkpt>
      <trkpt lat="48.42149" lon="2.70068">
        <ele>114.7</ele>
        <time>2018-11-18T09:51:37Z</time>
      </trkpt>
      <trkpt lat="48.42149" lon="2.7007">
        <ele>114.8</ele>
        <time>2018-11-18T09:51:38Z</time>
      </trkpt>
      <trkpt lat="48.42149" lon="2.70072">
        <ele>114.9</ele>
        <time>2018-11-18T09:51:39Z</time>
      </trkpt>
      <trkpt lat="48.42149" lon="2.70073">
        <ele>115</ele>
        <time>2018-11-18T09:51:40Z</time>
      </trkpt>
      <trkpt lat="48.4215" lon="2.70075">
        <ele>115.1</ele>
        <time>2018-11-18T09:51:41Z</time>
      </trkpt>
      <trkpt lat="48.4215" lon="2.70075">
        <ele>115.1</ele>
        <time>2018-11-18T09:51:42Z</time>
      </trkpt>
      <trkpt lat="48.4215" lon="2.70075">
        <ele>115.1</ele>
        <time>2018-11-18T09:51:43Z</time>
      </trkpt>
      <trkpt lat="48.4215" lon="2.70076">
        <ele>115.1</ele>
        <time>2018-11-18T09:51:44Z</time>
      </trkpt>
      <trkpt lat="48.4215" lon="2.70076">
        <ele>115.1</ele>
        <time>2018-11-18T09:51:45Z</time>
      </trkpt>
      <trkpt lat="48.4215" lon="2.70078">
        <ele>115.2</ele>
        <time>2018-11-18T09:51:46Z</time>
      </trkpt>
      <trkpt lat="48.4215" lon="2.70079">
        <ele>115.2</ele>
        <time>2018-11-18T09:51:47Z</time>
      </trkpt>
      <trkpt lat="48.4215" lon="2.70079">
        <ele>115.2</ele>
        <time>2018-11-18T09:51:48Z</time>
      </trkpt>
      <trkpt lat="48.42151" lon="2.70079">
        <ele>115.2</ele>
        <time>2018-11-18T09:51:49Z</time>
      </trkpt>
      <trkpt lat="48.42151" lon="2.70079">
        <ele>115.2</ele>
        <time>2018-11-18T09:51:50Z</time>
      </trkpt>
      <trkpt lat="48.42151" lon="2.70079">
        <ele>115.2</ele>
        <time>2018-11-18T09:51:51Z</time>
      </trkpt>
      <trkpt lat="48.42151" lon="2.70081">
        <ele>115.3</ele>
        <time>2018-11-18T09:51:52Z</time>
      </trkpt>
      <trkpt lat="48.42151" lon="2.70083">
        <ele>115.4</ele>
        <time>2018-11-18T09:51:53Z</time>
      </trkpt>
      <trkpt lat="48.42151" lon="2.70084">
        <ele>115.4</ele>
        <time>2018-11-18T09:51:54Z</time>
      </trkpt>
      <trkpt lat="48.42151" lon="2.70085">
        <ele>115.5</ele>
        <time>2018-11-18T09:51:55Z</time>
      </trkpt>
      <trkpt lat="48.42151" lon="2.70087">
        <ele>115.5</ele>
        <time>2018-11-18T09:51:56Z</time>
      </trkpt>
      <trkpt lat="48.42151" lon="2.70087">
        <ele>115.6</ele>
        <time>2018-11-18T09:51:57Z</time>
      </trkpt>
      <trkpt lat="48.42151" lon="2.70089">
        <ele>115.6</ele>
        <time>2018-11-18T09:51:58Z</time>
      </trkpt>
      <trkpt lat="48.42151" lon="2.70091">
        <ele>115.7</ele>
        <time>2018-11-18T09:51:59Z</time>
      </trkpt>
      <trkpt lat="48.4215" lon="2.70092">
        <ele>115.8</ele>
        <time>2018-11-18T09:52:00Z</time>
      </trkpt>
      <trkpt lat="48.4215" lon="2.70093">
        <ele>115.8</ele>
        <time>2018-11-18T09:52:01Z</time>
      </trkpt>
      <trkpt lat="48.4215" lon="2.70094">
        <ele>115.8</ele>
        <time>2018-11-18T09:52:02Z</time>
      </trkpt>
      <trkpt lat="48.4215" lon="2.70094">
        <ele>115.8</ele>
        <time>2018-11-18T09:52:03Z</time>
      </trkpt>
      <trkpt lat="48.4215" lon="2.70094">
        <ele>115.8</ele>
        <time>2018-11-18T09:52:04Z</time>
      </trkpt>
      <trkpt lat="48.4215" lon="2.70094">
        <ele>115.8</ele>
        <time>2018-11-18T09:52:05Z</time>
      </trkpt>
      <trkpt lat="48.4215" lon="2.70094">
        <ele>115.8</ele>
        <time>2018-11-18T09:52:06Z</time>
      </trkpt>
      <trkpt lat="48.4215" lon="2.70094">
        <ele>115.8</ele>
        <time>2018-11-18T09:52:07Z</time>
      </trkpt>
      <trkpt lat="48.4215" lon="2.70094">
        <ele>115.8</ele>
        <time>2018-11-18T09:52:08Z</time>
      </trkpt>
      <trkpt lat="48.4215" lon="2.70094">
        <ele>115.8</ele>
        <time>2018-11-18T09:52:09Z</time>
      </trkpt>
      <trkpt lat="48.4215" lon="2.70094">
        <ele>115.8</ele>
        <time>2018-11-18T09:52:10Z</time>
      </trkpt>
      <trkpt lat="48.42148" lon="2.70097">
        <ele>116</ele>
        <time>2018-11-18T09:52:15Z</time>
      </trkpt>
      <trkpt lat="48.42148" lon="2.70098">
        <ele>116.1</ele>
        <time>2018-11-18T09:52:16Z</time>
      </trkpt>
      <trkpt lat="48.42148" lon="2.70099">
        <ele>116.1</ele>
        <time>2018-11-18T09:52:17Z</time>
      </trkpt>
      <trkpt lat="48.42148" lon="2.70099">
        <ele>116.1</ele>
        <time>2018-11-18T09:52:18Z</time>
      </trkpt>
      <trkpt lat="48.42148" lon="2.701">
        <ele>116.1</ele>
        <time>2018-11-18T09:52:19Z</time>
      </trkpt>
      <trkpt lat="48.42148" lon="2.70102">
        <ele>116.2</ele>
        <time>2018-11-18T09:52:20Z</time>
      </trkpt>
      <trkpt lat="48.42148" lon="2.70103">
        <ele>116.2</ele>
        <time>2018-11-18T09:52:21Z</time>
      </trkpt>
      <trkpt lat="48.42148" lon="2.70104">
        <ele>116.3</ele>
        <time>2018-11-18T09:52:22Z</time>
      </trkpt>
      <trkpt lat="48.42148" lon="2.70106">
        <ele>116.3</ele>
        <time>2018-11-18T09:52:23Z</time>
      </trkpt>
      <trkpt lat="48.42148" lon="2.70108">
        <ele>116.4</ele>
        <time>2018-11-18T09:52:24Z</time>
      </trkpt>
      <trkpt lat="48.42148" lon="2.7011">
        <ele>116.4</ele>
        <time>2018-11-18T09:52:25Z</time>
      </trkpt>
      <trkpt lat="48.42148" lon="2.70111">
        <ele>116.5</ele>
        <time>2018-11-18T09:52:26Z</time>
      </trkpt>
      <trkpt lat="48.42148" lon="2.70113">
        <ele>116.5</ele>
        <time>2018-11-18T09:52:27Z</time>
      </trkpt>
      <trkpt lat="48.42148" lon="2.70115">
        <ele>116.6</ele>
        <time>2018-11-18T09:52:28Z</time>
      </trkpt>
      <trkpt lat="48.42148" lon="2.70118">
        <ele>116.6</ele>
        <time>2018-11-18T09:52:29Z</time>
      </trkpt>
      <trkpt lat="48.42148" lon="2.7012">
        <ele>116.7</ele>
        <time>2018-11-18T09:52:30Z</time>
      </trkpt>
      <trkpt lat="48.42148" lon="2.70122">
        <ele>116.7</ele>
        <time>2018-11-18T09:52:31Z</time>
      </trkpt>
      <trkpt lat="48.42148" lon="2.70125">
        <ele>116.8</ele>
        <time>2018-11-18T09:52:32Z</time>
      </trkpt>
      <trkpt lat="48.42147" lon="2.70126">
        <ele>116.8</ele>
        <time>2018-11-18T09:52:33Z</time>
      </trkpt>
      <trkpt lat="48.42147" lon="2.70128">
        <ele>116.9</ele>
        <time>2018-11-18T09:52:34Z</time>
      </trkpt>
      <trkpt lat="48.42146" lon="2.7013">
        <ele>116.9</ele>
        <time>2018-11-18T09:52:35Z</time>
      </trkpt>
      <trkpt lat="48.42145" lon="2.70132">
        <ele>117</ele>
        <time>2018-11-18T09:52:36Z</time>
      </trkpt>
      <trkpt lat="48.42145" lon="2.70133">
        <ele>117</ele>
        <time>2018-11-18T09:52:37Z</time>
      </trkpt>
      <trkpt lat="48.42144" lon="2.70135">
        <ele>117.1</ele>
        <time>2018-11-18T09:52:38Z</time>
      </trkpt>
      <trkpt lat="48.42144" lon="2.70137">
        <ele>117.1</ele>
        <time>2018-11-18T09:52:39Z</time>
      </trkpt>
      <trkpt lat="48.42144" lon="2.70139">
        <ele>117.2</ele>
        <time>2018-11-18T09:52:40Z</time>
      </trkpt>
      <trkpt lat="48.42144" lon="2.7014">
        <ele>117.3</ele>
        <time>2018-11-18T09:52:41Z</time>
      </trkpt>
      <trkpt lat="48.42144" lon="2.70142">
        <ele>117.3</ele>
        <time>2018-11-18T09:52:42Z</time>
      </trkpt>
      <trkpt lat="48.42143" lon="2.70144">
        <ele>117.4</ele>
        <time>2018-11-18T09:52:43Z</time>
      </trkpt>
      <trkpt lat="48.42143" lon="2.70146">
        <ele>117.4</ele>
        <time>2018-11-18T09:52:44Z</time>
      </trkpt>
      <trkpt lat="48.42143" lon="2.70148">
        <ele>117.5</ele>
        <time>2018-11-18T09:52:45Z</time>
      </trkpt>
      <trkpt lat="48.42142" lon="2.7015">
        <ele>117.6</ele>
        <time>2018-11-18T09:52:46Z</time>
      </trkpt>
      <trkpt lat="48.42142" lon="2.70151">
        <ele>117.7</ele>
        <time>2018-11-18T09:52:47Z</time>
      </trkpt>
      <trkpt lat="48.42142" lon="2.70153">
        <ele>117.8</ele>
        <time>2018-11-18T09:52:48Z</time>
      </trkpt>
      <trkpt lat="48.42141" lon="2.70155">
        <ele>117.9</ele>
        <time>2018-11-18T09:52:49Z</time>
      </trkpt>
      <trkpt lat="48.42141" lon="2.70157">
        <ele>118.1</ele>
        <time>2018-11-18T09:52:50Z</time>
      </trkpt>
      <trkpt lat="48.42141" lon="2.7016">
        <ele>118.2</ele>
        <time>2018-11-18T09:52:51Z</time>
      </trkpt>
      <trkpt lat="48.42141" lon="2.70161">
        <ele>118.3</ele>
        <time>2018-11-18T09:52:52Z</time>
      </trkpt>
      <trkpt lat="48.42142" lon="2.70162">
        <ele>118.4</ele>
        <time>2018-11-18T09:52:53Z</time>
      </trkpt>
      <trkpt lat="48.42142" lon="2.70163">
        <ele>118.5</ele>
        <time>2018-11-18T09:52:54Z</time>
      </trkpt>
      <trkpt lat="48.42143" lon="2.70163">
        <ele>118.6</ele>
        <time>2018-11-18T09:52:55Z</time>
      </trkpt>
      <trkpt lat="48.42144" lon="2.70164">
        <ele>118.7</ele>
        <time>2018-11-18T09:52:56Z</time>
      </trkpt>
      <trkpt lat="48.42145" lon="2.70164">
        <ele>118.8</ele>
        <time>2018-11-18T09:52:57Z</time>
      </trkpt>
      <trkpt lat="48.42146" lon="2.70163">
        <ele>118.9</ele>
        <time>2018-11-18T09:52:58Z</time>
      </trkpt>
      <trkpt lat="48.42147" lon="2.70164">
        <ele>119</ele>
        <time>2018-11-18T09:52:59Z</time>
      </trkpt>
      <trkpt lat="48.42147" lon="2.70164">
        <ele>119.1</ele>
        <time>2018-11-18T09:53:00Z</time>
      </trkpt>
      <trkpt lat="48.42148" lon="2.70164">
        <ele>119.2</ele>
        <time>2018-11-18T09:53:01Z</time>
      </trkpt>
      <trkpt lat="48.42149" lon="2.70165">
        <ele>119.3</ele>
        <time>2018-11-18T09:53:02Z</time>
      </trkpt>
      <trkpt lat="48.42151" lon="2.70166">
        <ele>119.5</ele>
        <time>2018-11-18T09:53:03Z</time>
      </trkpt>
      <trkpt lat="48.42152" lon="2.70167">
        <ele>119.6</ele>
        <time>2018-11-18T09:53:04Z</time>
      </trkpt>
      <trkpt lat="48.42152" lon="2.70168">
        <ele>119.7</ele>
        <time>2018-11-18T09:53:05Z</time>
      </trkpt>
      <trkpt lat="48.42153" lon="2.70169">
        <ele>119.9</ele>
        <time>2018-11-18T09:53:06Z</time>
      </trkpt>
      <trkpt lat="48.42154" lon="2.70171">
        <ele>120</ele>
        <time>2018-11-18T09:53:07Z</time>
      </trkpt>
      <trkpt lat="48.42155" lon="2.70173">
        <ele>120.2</ele>
        <time>2018-11-18T09:53:08Z</time>
      </trkpt>
      <trkpt lat="48.42155" lon="2.70176">
        <ele>120.4</ele>
        <time>2018-11-18T09:53:09Z</time>
      </trkpt>
      <trkpt lat="48.42155" lon="2.70178">
        <ele>120.6</ele>
        <time>2018-11-18T09:53:10Z</time>
      </trkpt>
      <trkpt lat="48.42155" lon="2.7018">
        <ele>120.8</ele>
        <time>2018-11-18T09:53:11Z</time>
      </trkpt>
      <trkpt lat="48.42155" lon="2.70182">
        <ele>121</ele>
        <time>2018-11-18T09:53:12Z</time>
      </trkpt>
      <trkpt lat="48.42156" lon="2.70183">
        <ele>121.1</ele>
        <time>2018-11-18T09:53:13Z</time>
      </trkpt>
      <trkpt lat="48.42157" lon="2.70184">
        <ele>121.3</ele>
        <time>2018-11-18T09:53:14Z</time>
      </trkpt>
      <trkpt lat="48.42158" lon="2.70185">
        <ele>121.4</ele>
        <time>2018-11-18T09:53:15Z</time>
      </trkpt>
      <trkpt lat="48.42159" lon="2.70185">
        <ele>121.6</ele>
        <time>2018-11-18T09:53:16Z</time>
      </trkpt>
      <trkpt lat="48.4216" lon="2.70185">
        <ele>121.7</ele>
        <time>2018-11-18T09:53:17Z</time>
      </trkpt>
      <trkpt lat="48.42161" lon="2.70184">
        <ele>121.8</ele>
        <time>2018-11-18T09:53:18Z</time>
      </trkpt>
      <trkpt lat="48.42162" lon="2.70184">
        <ele>121.9</ele>
        <time>2018-11-18T09:53:19Z</time>
      </trkpt>
      <trkpt lat="48.42163" lon="2.70184">
        <ele>122.1</ele>
        <time>2018-11-18T09:53:20Z</time>
      </trkpt>
      <trkpt lat="48.42164" lon="2.70183">
        <ele>122.2</ele>
        <time>2018-11-18T09:53:21Z</time>
      </trkpt>
      <trkpt lat="48.42164" lon="2.70183">
        <ele>122.3</ele>
        <time>2018-11-18T09:53:22Z</time>
      </trkpt>
      <trkpt lat="48.42165" lon="2.70182">
        <ele>122.4</ele>
        <time>2018-11-18T09:53:23Z</time>
      </trkpt>
      <trkpt lat="48.42166" lon="2.70182">
        <ele>122.6</ele>
        <time>2018-11-18T09:53:24Z</time>
      </trkpt>
      <trkpt lat="48.42167" lon="2.70181">
        <ele>122.7</ele>
        <time>2018-11-18T09:53:25Z</time>
      </trkpt>
      <trkpt lat="48.42167" lon="2.70181">
        <ele>122.8</ele>
        <time>2018-11-18T09:53:26Z</time>
      </trkpt>
      <trkpt lat="48.42168" lon="2.70181">
        <ele>122.9</ele>
        <time>2018-11-18T09:53:27Z</time>
      </trkpt>
      <trkpt lat="48.42169" lon="2.70181">
        <ele>123</ele>
        <time>2018-11-18T09:53:28Z</time>
      </trkpt>
      <trkpt lat="48.4217" lon="2.70181">
        <ele>123.1</ele>
        <time>2018-11-18T09:53:29Z</time>
      </trkpt>
      <trkpt lat="48.42171" lon="2.70181">
        <ele>123.3</ele>
        <time>2018-11-18T09:53:30Z</time>
      </trkpt>
      <trkpt lat="48.42172" lon="2.70181">
        <ele>123.4</ele>
        <time>2018-11-18T09:53:31Z</time>
      </trkpt>
      <trkpt lat="48.42173" lon="2.70182">
        <ele>123.5</ele>
        <time>2018-11-18T09:53:32Z</time>
      </trkpt>
      <trkpt lat="48.42174" lon="2.70183">
        <ele>123.7</ele>
        <time>2018-11-18T09:53:33Z</time>
      </trkpt>
      <trkpt lat="48.42175" lon="2.70184">
        <ele>123.8</ele>
        <time>2018-11-18T09:53:34Z</time>
      </trkpt>
      <trkpt lat="48.42176" lon="2.70186">
        <ele>124</ele>
        <time>2018-11-18T09:53:35Z</time>
      </trkpt>
      <trkpt lat="48.42177" lon="2.70187">
        <ele>124.2</ele>
        <time>2018-11-18T09:53:36Z</time>
      </trkpt>
      <trkpt lat="48.42177" lon="2.70188">
        <ele>124.3</ele>
        <time>2018-11-18T09:53:37Z</time>
      </trkpt>
      <trkpt lat="48.42178" lon="2.70189">
        <ele>124.4</ele>
        <time>2018-11-18T09:53:38Z</time>
      </trkpt>
      <trkpt lat="48.42179" lon="2.70189">
        <ele>124.5</ele>
        <time>2018-11-18T09:53:39Z</time>
      </trkpt>
      <trkpt lat="48.42181" lon="2.7019">
        <ele>124.6</ele>
        <time>2018-11-18T09:53:40Z</time>
      </trkpt>
      <trkpt lat="48.42182" lon="2.70191">
        <ele>124.7</ele>
        <time>2018-11-18T09:53:41Z</time>
      </trkpt>
      <trkpt lat="48.42183" lon="2.70191">
        <ele>124.8</ele>
        <time>2018-11-18T09:53:42Z</time>
      </trkpt>
      <trkpt lat="48.42184" lon="2.70192">
        <ele>124.9</ele>
        <time>2018-11-18T09:53:43Z</time>
      </trkpt>
      <trkpt lat="48.42184" lon="2.70193">
        <ele>125</ele>
        <time>2018-11-18T09:53:44Z</time>
      </trkpt>
      <trkpt lat="48.42185" lon="2.70195">
        <ele>125.1</ele>
        <time>2018-11-18T09:53:45Z</time>
      </trkpt>
      <trkpt lat="48.42185" lon="2.70196">
        <ele>125.1</ele>
        <time>2018-11-18T09:53:46Z</time>
      </trkpt>
      <trkpt lat="48.42185" lon="2.70197">
        <ele>125.2</ele>
        <time>2018-11-18T09:53:47Z</time>
      </trkpt>
      <trkpt lat="48.42185" lon="2.70198">
        <ele>125.3</ele>
        <time>2018-11-18T09:53:48Z</time>
      </trkpt>
      <trkpt lat="48.42185" lon="2.70199">
        <ele>125.3</ele>
        <time>2018-11-18T09:53:49Z</time>
      </trkpt>
      <trkpt lat="48.42185" lon="2.702">
        <ele>125.4</ele>
        <time>2018-11-18T09:53:50Z</time>
      </trkpt>
      <trkpt lat="48.42184" lon="2.70202">
        <ele>125.5</ele>
        <time>2018-11-18T09:53:51Z</time>
      </trkpt>
      <trkpt lat="48.42184" lon="2.70203">
        <ele>125.5</ele>
        <time>2018-11-18T09:53:52Z</time>
      </trkpt>
      <trkpt lat="48.42184" lon="2.70205">
        <ele>125.6</ele>
        <time>2018-11-18T09:53:53Z</time>
      </trkpt>
      <trkpt lat="48.42184" lon="2.70207">
        <ele>125.7</ele>
        <time>2018-11-18T09:53:54Z</time>
      </trkpt>
      <trkpt lat="48.42184" lon="2.70209">
        <ele>125.8</ele>
        <time>2018-11-18T09:53:55Z</time>
      </trkpt>
      <trkpt lat="48.42184" lon="2.7021">
        <ele>125.9</ele>
        <time>2018-11-18T09:53:56Z</time>
      </trkpt>
      <trkpt lat="48.42183" lon="2.70212">
        <ele>126</ele>
        <time>2018-11-18T09:53:57Z</time>
      </trkpt>
      <trkpt lat="48.42183" lon="2.70213">
        <ele>126.1</ele>
        <time>2018-11-18T09:53:58Z</time>
      </trkpt>
      <trkpt lat="48.42183" lon="2.70215">
        <ele>126.2</ele>
        <time>2018-11-18T09:53:59Z</time>
      </trkpt>
      <trkpt lat="48.42183" lon="2.70217">
        <ele>126.3</ele>
        <time>2018-11-18T09:54:00Z</time>
      </trkpt>
      <trkpt lat="48.42183" lon="2.70219">
        <ele>126.5</ele>
        <time>2018-11-18T09:54:01Z</time>
      </trkpt>
      <trkpt lat="48.42183" lon="2.7022">
        <ele>126.6</ele>
        <time>2018-11-18T09:54:02Z</time>
      </trkpt>
      <trkpt lat="48.42183" lon="2.70222">
        <ele>126.7</ele>
        <time>2018-11-18T09:54:03Z</time>
      </trkpt>
      <trkpt lat="48.42183" lon="2.70223">
        <ele>126.8</ele>
        <time>2018-11-18T09:54:04Z</time>
      </trkpt>
      <trkpt lat="48.42183" lon="2.70225">
        <ele>126.9</ele>
        <time>2018-11-18T09:54:05Z</time>
      </trkpt>
      <trkpt lat="48.42183" lon="2.70226">
        <ele>127</ele>
        <time>2018-11-18T09:54:06Z</time>
      </trkpt>
      <trkpt lat="48.42183" lon="2.70228">
        <ele>127.1</ele>
        <time>2018-11-18T09:54:07Z</time>
      </trkpt>
      <trkpt lat="48.42182" lon="2.7023">
        <ele>127.2</ele>
        <time>2018-11-18T09:54:08Z</time>
      </trkpt>
      <trkpt lat="48.42182" lon="2.70231">
        <ele>127.2</ele>
        <time>2018-11-18T09:54:09Z</time>
      </trkpt>
      <trkpt lat="48.42182" lon="2.70233">
        <ele>127.3</ele>
        <time>2018-11-18T09:54:10Z</time>
      </trkpt>
      <trkpt lat="48.42182" lon="2.70235">
        <ele>127.4</ele>
        <time>2018-11-18T09:54:11Z</time>
      </trkpt>
      <trkpt lat="48.42182" lon="2.70236">
        <ele>127.5</ele>
        <time>2018-11-18T09:54:12Z</time>
      </trkpt>
      <trkpt lat="48.42182" lon="2.70238">
        <ele>128.4</ele>
        <time>2018-11-18T09:54:13Z</time>
      </trkpt>
      <trkpt lat="48.42181" lon="2.70239">
        <ele>128.4</ele>
        <time>2018-11-18T09:54:14Z</time>
      </trkpt>
      <trkpt lat="48.42181" lon="2.7024">
        <ele>128.5</ele>
        <time>2018-11-18T09:54:15Z</time>
      </trkpt>
      <trkpt lat="48.42181" lon="2.70242">
        <ele>128.5</ele>
        <time>2018-11-18T09:54:16Z</time>
      </trkpt>
      <trkpt lat="48.4218" lon="2.70243">
        <ele>128.6</ele>
        <time>2018-11-18T09:54:17Z</time>
      </trkpt>
      <trkpt lat="48.4218" lon="2.70244">
        <ele>128.6</ele>
        <time>2018-11-18T09:54:18Z</time>
      </trkpt>
      <trkpt lat="48.42179" lon="2.70246">
        <ele>128.7</ele>
        <time>2018-11-18T09:54:19Z</time>
      </trkpt>
      <trkpt lat="48.42178" lon="2.70247">
        <ele>128.7</ele>
        <time>2018-11-18T09:54:20Z</time>
      </trkpt>
      <trkpt lat="48.42178" lon="2.70249">
        <ele>128.8</ele>
        <time>2018-11-18T09:54:21Z</time>
      </trkpt>
      <trkpt lat="48.42177" lon="2.70252">
        <ele>128.8</ele>
        <time>2018-11-18T09:54:22Z</time>
      </trkpt>
      <trkpt lat="48.42177" lon="2.70254">
        <ele>128.9</ele>
        <time>2018-11-18T09:54:23Z</time>
      </trkpt>
      <trkpt lat="48.42177" lon="2.70256">
        <ele>129</ele>
        <time>2018-11-18T09:54:24Z</time>
      </trkpt>
      <trkpt lat="48.42177" lon="2.70258">
        <ele>129</ele>
        <time>2018-11-18T09:54:25Z</time>
      </trkpt>
      <trkpt lat="48.42177" lon="2.70259">
        <ele>129</ele>
        <time>2018-11-18T09:54:26Z</time>
      </trkpt>
      <trkpt lat="48.42177" lon="2.70261">
        <ele>129.1</ele>
        <time>2018-11-18T09:54:27Z</time>
      </trkpt>
      <trkpt lat="48.42177" lon="2.70263">
        <ele>129.1</ele>
        <time>2018-11-18T09:54:28Z</time>
      </trkpt>
      <trkpt lat="48.42177" lon="2.70265">
        <ele>129.1</ele>
        <time>2018-11-18T09:54:29Z</time>
      </trkpt>
      <trkpt lat="48.42178" lon="2.70268">
        <ele>129.2</ele>
        <time>2018-11-18T09:54:30Z</time>
      </trkpt>
      <trkpt lat="48.42178" lon="2.7027">
        <ele>129.2</ele>
        <time>2018-11-18T09:54:31Z</time>
      </trkpt>
      <trkpt lat="48.42179" lon="2.70272">
        <ele>129.3</ele>
        <time>2018-11-18T09:54:32Z</time>
      </trkpt>
      <trkpt lat="48.4218" lon="2.70274">
        <ele>129.3</ele>
        <time>2018-11-18T09:54:33Z</time>
      </trkpt>
      <trkpt lat="48.42181" lon="2.70276">
        <ele>129.3</ele>
        <time>2018-11-18T09:54:34Z</time>
      </trkpt>
      <trkpt lat="48.42182" lon="2.70277">
        <ele>129.4</ele>
        <time>2018-11-18T09:54:35Z</time>
      </trkpt>
      <trkpt lat="48.42184" lon="2.70278">
        <ele>129.4</ele>
        <time>2018-11-18T09:54:36Z</time>
      </trkpt>
      <trkpt lat="48.42184" lon="2.70279">
        <ele>129.4</ele>
        <time>2018-11-18T09:54:37Z</time>
      </trkpt>
      <trkpt lat="48.42185" lon="2.70281">
        <ele>129.4</ele>
        <time>2018-11-18T09:54:38Z</time>
      </trkpt>
      <trkpt lat="48.42186" lon="2.70282">
        <ele>129.5</ele>
        <time>2018-11-18T09:54:39Z</time>
      </trkpt>
      <trkpt lat="48.42187" lon="2.70284">
        <ele>129.5</ele>
        <time>2018-11-18T09:54:40Z</time>
      </trkpt>
      <trkpt lat="48.42187" lon="2.70286">
        <ele>129.5</ele>
        <time>2018-11-18T09:54:41Z</time>
      </trkpt>
      <trkpt lat="48.42188" lon="2.70288">
        <ele>129.6</ele>
        <time>2018-11-18T09:54:42Z</time>
      </trkpt>
      <trkpt lat="48.42189" lon="2.70289">
        <ele>129.6</ele>
        <time>2018-11-18T09:54:43Z</time>
      </trkpt>
      <trkpt lat="48.42189" lon="2.70291">
        <ele>129.6</ele>
        <time>2018-11-18T09:54:44Z</time>
      </trkpt>
      <trkpt lat="48.4219" lon="2.70294">
        <ele>129.7</ele>
        <time>2018-11-18T09:54:45Z</time>
      </trkpt>
      <trkpt lat="48.42191" lon="2.70297">
        <ele>129.7</ele>
        <time>2018-11-18T09:54:46Z</time>
      </trkpt>
      <trkpt lat="48.42193" lon="2.70301">
        <ele>129.8</ele>
        <time>2018-11-18T09:54:47Z</time>
      </trkpt>
      <trkpt lat="48.42194" lon="2.70305">
        <ele>129.9</ele>
        <time>2018-11-18T09:54:48Z</time>
      </trkpt>
      <trkpt lat="48.42196" lon="2.70308">
        <ele>130</ele>
        <time>2018-11-18T09:54:49Z</time>
      </trkpt>
      <trkpt lat="48.42198" lon="2.70309">
        <ele>130.1</ele>
        <time>2018-11-18T09:54:50Z</time>
      </trkpt>
      <trkpt lat="48.42199" lon="2.70311">
        <ele>130.2</ele>
        <time>2018-11-18T09:54:51Z</time>
      </trkpt>
      <trkpt lat="48.422" lon="2.70312">
        <ele>130.2</ele>
        <time>2018-11-18T09:54:52Z</time>
      </trkpt>
      <trkpt lat="48.42201" lon="2.70314">
        <ele>130.2</ele>
        <time>2018-11-18T09:54:53Z</time>
      </trkpt>
      <trkpt lat="48.42201" lon="2.70315">
        <ele>130.3</ele>
        <time>2018-11-18T09:54:54Z</time>
      </trkpt>
      <trkpt lat="48.42201" lon="2.70315">
        <ele>130.3</ele>
        <time>2018-11-18T09:54:55Z</time>
      </trkpt>
      <trkpt lat="48.42202" lon="2.70316">
        <ele>130.3</ele>
        <time>2018-11-18T09:54:56Z</time>
      </trkpt>
      <trkpt lat="48.42202" lon="2.70316">
        <ele>130.3</ele>
        <time>2018-11-18T09:54:57Z</time>
      </trkpt>
      <trkpt lat="48.42202" lon="2.70316">
        <ele>130.3</ele>
        <time>2018-11-18T09:54:58Z</time>
      </trkpt>
      <trkpt lat="48.42204" lon="2.70319">
        <ele>130.3</ele>
        <time>2018-11-18T09:55:14Z</time>
      </trkpt>
      <trkpt lat="48.42205" lon="2.7032">
        <ele>130.3</ele>
        <time>2018-11-18T09:55:15Z</time>
      </trkpt>
      <trkpt lat="48.42206" lon="2.70321">
        <ele>130.3</ele>
        <time>2018-11-18T09:55:16Z</time>
      </trkpt>
      <trkpt lat="48.42207" lon="2.70324">
        <ele>130.4</ele>
        <time>2018-11-18T09:55:17Z</time>
      </trkpt>
      <trkpt lat="48.42208" lon="2.70326">
        <ele>130.4</ele>
        <time>2018-11-18T09:55:18Z</time>
      </trkpt>
      <trkpt lat="48.42208" lon="2.70329">
        <ele>130.4</ele>
        <time>2018-11-18T09:55:19Z</time>
      </trkpt>
      <trkpt lat="48.42208" lon="2.70333">
        <ele>130.4</ele>
        <time>2018-11-18T09:55:20Z</time>
      </trkpt>
      <trkpt lat="48.42207" lon="2.70338">
        <ele>130.3</ele>
        <time>2018-11-18T09:55:21Z</time>
      </trkpt>
      <trkpt lat="48.42207" lon="2.70341">
        <ele>130.3</ele>
        <time>2018-11-18T09:55:22Z</time>
      </trkpt>
      <trkpt lat="48.42207" lon="2.70344">
        <ele>130.3</ele>
        <time>2018-11-18T09:55:23Z</time>
      </trkpt>
      <trkpt lat="48.42207" lon="2.70347">
        <ele>130.3</ele>
        <time>2018-11-18T09:55:24Z</time>
      </trkpt>
      <trkpt lat="48.42208" lon="2.70348">
        <ele>130.3</ele>
        <time>2018-11-18T09:55:25Z</time>
      </trkpt>
      <trkpt lat="48.42208" lon="2.7035">
        <ele>130.2</ele>
        <time>2018-11-18T09:55:26Z</time>
      </trkpt>
      <trkpt lat="48.42208" lon="2.70352">
        <ele>130.2</ele>
        <time>2018-11-18T09:55:27Z</time>
      </trkpt>
      <trkpt lat="48.42208" lon="2.70354">
        <ele>130.2</ele>
        <time>2018-11-18T09:55:28Z</time>
      </trkpt>
      <trkpt lat="48.42209" lon="2.70357">
        <ele>130.2</ele>
        <time>2018-11-18T09:55:29Z</time>
      </trkpt>
      <trkpt lat="48.42209" lon="2.7036">
        <ele>130.2</ele>
        <time>2018-11-18T09:55:30Z</time>
      </trkpt>
      <trkpt lat="48.42209" lon="2.70364">
        <ele>130.1</ele>
        <time>2018-11-18T09:55:31Z</time>
      </trkpt>
      <trkpt lat="48.42209" lon="2.70368">
        <ele>130.1</ele>
        <time>2018-11-18T09:55:32Z</time>
      </trkpt>
      <trkpt lat="48.42208" lon="2.70373">
        <ele>130.1</ele>
        <time>2018-11-18T09:55:33Z</time>
      </trkpt>
      <trkpt lat="48.42208" lon="2.70378">
        <ele>130.2</ele>
        <time>2018-11-18T09:55:34Z</time>
      </trkpt>
      <trkpt lat="48.42208" lon="2.70382">
        <ele>130.3</ele>
        <time>2018-11-18T09:55:35Z</time>
      </trkpt>
      <trkpt lat="48.42207" lon="2.70385">
        <ele>130.4</ele>
        <time>2018-11-18T09:55:36Z</time>
      </trkpt>
      <trkpt lat="48.42206" lon="2.70388">
        <ele>130.5</ele>
        <time>2018-11-18T09:55:37Z</time>
      </trkpt>
      <trkpt lat="48.42205" lon="2.7039">
        <ele>130.7</ele>
        <time>2018-11-18T09:55:38Z</time>
      </trkpt>
      <trkpt lat="48.42203" lon="2.70393">
        <ele>130.8</ele>
        <time>2018-11-18T09:55:39Z</time>
      </trkpt>
      <trkpt lat="48.42202" lon="2.70395">
        <ele>131.1</ele>
        <time>2018-11-18T09:55:40Z</time>
      </trkpt>
      <trkpt lat="48.422" lon="2.70398">
        <ele>131.3</ele>
        <time>2018-11-18T09:55:41Z</time>
      </trkpt>
      <trkpt lat="48.42199" lon="2.70401">
        <ele>131.6</ele>
        <time>2018-11-18T09:55:42Z</time>
      </trkpt>
      <trkpt lat="48.42198" lon="2.70403">
        <ele>131.9</ele>
        <time>2018-11-18T09:55:43Z</time>
      </trkpt>
      <trkpt lat="48.42197" lon="2.70406">
        <ele>132.1</ele>
        <time>2018-11-18T09:55:44Z</time>
      </trkpt>
      <trkpt lat="48.42196" lon="2.70408">
        <ele>132.3</ele>
        <time>2018-11-18T09:55:45Z</time>
      </trkpt>
      <trkpt lat="48.42195" lon="2.70411">
        <ele>132.5</ele>
        <time>2018-11-18T09:55:46Z</time>
      </trkpt>
      <trkpt lat="48.42194" lon="2.70413">
        <ele>132.8</ele>
        <time>2018-11-18T09:55:47Z</time>
      </trkpt>
      <trkpt lat="48.42193" lon="2.70416">
        <ele>133</ele>
        <time>2018-11-18T09:55:48Z</time>
      </trkpt>
      <trkpt lat="48.42191" lon="2.70418">
        <ele>133.3</ele>
        <time>2018-11-18T09:55:49Z</time>
      </trkpt>
      <trkpt lat="48.4219" lon="2.7042">
        <ele>133.5</ele>
        <time>2018-11-18T09:55:50Z</time>
      </trkpt>
      <trkpt lat="48.42189" lon="2.70422">
        <ele>133.8</ele>
        <time>2018-11-18T09:55:51Z</time>
      </trkpt>
      <trkpt lat="48.42188" lon="2.70423">
        <ele>134</ele>
        <time>2018-11-18T09:55:52Z</time>
      </trkpt>
      <trkpt lat="48.42187" lon="2.70425">
        <ele>134.1</ele>
        <time>2018-11-18T09:55:53Z</time>
      </trkpt>
      <trkpt lat="48.42186" lon="2.70426">
        <ele>134.2</ele>
        <time>2018-11-18T09:55:54Z</time>
      </trkpt>
      <trkpt lat="48.42185" lon="2.70428">
        <ele>134.4</ele>
        <time>2018-11-18T09:55:55Z</time>
      </trkpt>
      <trkpt lat="48.42184" lon="2.7043">
        <ele>134.6</ele>
        <time>2018-11-18T09:55:56Z</time>
      </trkpt>
      <trkpt lat="48.42183" lon="2.70433">
        <ele>134.8</ele>
        <time>2018-11-18T09:55:57Z</time>
      </trkpt>
      <trkpt lat="48.42183" lon="2.70437">
        <ele>135.1</ele>
        <time>2018-11-18T09:55:58Z</time>
      </trkpt>
      <trkpt lat="48.42183" lon="2.70442">
        <ele>135.3</ele>
        <time>2018-11-18T09:55:59Z</time>
      </trkpt>
      <trkpt lat="48.42183" lon="2.70447">
        <ele>135.5</ele>
        <time>2018-11-18T09:56:00Z</time>
      </trkpt>
      <trkpt lat="48.42184" lon="2.70452">
        <ele>135.6</ele>
        <time>2018-11-18T09:56:01Z</time>
      </trkpt>
      <trkpt lat="48.42183" lon="2.70455">
        <ele>135.7</ele>
        <time>2018-11-18T09:56:02Z</time>
      </trkpt>
      <trkpt lat="48.42183" lon="2.70458">
        <ele>135.7</ele>
        <time>2018-11-18T09:56:03Z</time>
      </trkpt>
      <trkpt lat="48.42182" lon="2.7046">
        <ele>135.7</ele>
        <time>2018-11-18T09:56:04Z</time>
      </trkpt>
      <trkpt lat="48.42181" lon="2.70462">
        <ele>135.6</ele>
        <time>2018-11-18T09:56:05Z</time>
      </trkpt>
      <trkpt lat="48.42179" lon="2.70465">
        <ele>135.6</ele>
        <time>2018-11-18T09:56:06Z</time>
      </trkpt>
      <trkpt lat="48.42178" lon="2.70467">
        <ele>135.6</ele>
        <time>2018-11-18T09:56:07Z</time>
      </trkpt>
      <trkpt lat="48.42177" lon="2.70469">
        <ele>135.6</ele>
        <time>2018-11-18T09:56:08Z</time>
      </trkpt>
      <trkpt lat="48.42175" lon="2.70473">
        <ele>135.6</ele>
        <time>2018-11-18T09:56:09Z</time>
      </trkpt>
      <trkpt lat="48.42172" lon="2.70478">
        <ele>135.6</ele>
        <time>2018-11-18T09:56:10Z</time>
      </trkpt>
      <trkpt lat="48.42171" lon="2.70482">
        <ele>135.6</ele>
        <time>2018-11-18T09:56:11Z</time>
      </trkpt>
      <trkpt lat="48.4217" lon="2.70484">
        <ele>135.6</ele>
        <time>2018-11-18T09:56:12Z</time>
      </trkpt>
      <trkpt lat="48.42169" lon="2.70487">
        <ele>135.6</ele>
        <time>2018-11-18T09:56:13Z</time>
      </trkpt>
      <trkpt lat="48.42168" lon="2.70491">
        <ele>135.6</ele>
        <time>2018-11-18T09:56:14Z</time>
      </trkpt>
      <trkpt lat="48.42168" lon="2.70494">
        <ele>135.6</ele>
        <time>2018-11-18T09:56:15Z</time>
      </trkpt>
      <trkpt lat="48.42168" lon="2.70496">
        <ele>135.7</ele>
        <time>2018-11-18T09:56:16Z</time>
      </trkpt>
      <trkpt lat="48.42167" lon="2.70498">
        <ele>135.7</ele>
        <time>2018-11-18T09:56:17Z</time>
      </trkpt>
      <trkpt lat="48.42167" lon="2.705">
        <ele>135.7</ele>
        <time>2018-11-18T09:56:18Z</time>
      </trkpt>
      <trkpt lat="48.42166" lon="2.70501">
        <ele>135.7</ele>
        <time>2018-11-18T09:56:19Z</time>
      </trkpt>
      <trkpt lat="48.42166" lon="2.70503">
        <ele>135.7</ele>
        <time>2018-11-18T09:56:20Z</time>
      </trkpt>
      <trkpt lat="48.42165" lon="2.70505">
        <ele>135.8</ele>
        <time>2018-11-18T09:56:21Z</time>
      </trkpt>
      <trkpt lat="48.42165" lon="2.70507">
        <ele>135.8</ele>
        <time>2018-11-18T09:56:22Z</time>
      </trkpt>
      <trkpt lat="48.42165" lon="2.70508">
        <ele>135.8</ele>
        <time>2018-11-18T09:56:23Z</time>
      </trkpt>
      <trkpt lat="48.42165" lon="2.70509">
        <ele>135.8</ele>
        <time>2018-11-18T09:56:24Z</time>
      </trkpt>
      <trkpt lat="48.42165" lon="2.70509">
        <ele>135.8</ele>
        <time>2018-11-18T09:56:25Z</time>
      </trkpt>
      <trkpt lat="48.42165" lon="2.70508">
        <ele>135.8</ele>
        <time>2018-11-18T09:56:26Z</time>
      </trkpt>
      <trkpt lat="48.42165" lon="2.70508">
        <ele>135.8</ele>
        <time>2018-11-18T09:56:27Z</time>
      </trkpt>
      <trkpt lat="48.42165" lon="2.70508">
        <ele>135.8</ele>
        <time>2018-11-18T09:56:28Z</time>
      </trkpt>
      <trkpt lat="48.42165" lon="2.70508">
        <ele>135.8</ele>
        <time>2018-11-18T09:56:29Z</time>
      </trkpt>
      <trkpt lat="48.42165" lon="2.70508">
        <ele>135.8</ele>
        <time>2018-11-18T09:56:30Z</time>
      </trkpt>
      <trkpt lat="48.42165" lon="2.70508">
        <ele>135.8</ele>
        <time>2018-11-18T09:56:31Z</time>
      </trkpt>
      <trkpt lat="48.42165" lon="2.70508">
        <ele>135.8</ele>
        <time>2018-11-18T09:56:32Z</time>
      </trkpt>
      <trkpt lat="48.42166" lon="2.70509">
        <ele>135.8</ele>
        <time>2018-11-18T09:57:03Z</time>
      </trkpt>
      <trkpt lat="48.42166" lon="2.7051">
        <ele>135.8</ele>
        <time>2018-11-18T09:57:04Z</time>
      </trkpt>
      <trkpt lat="48.42167" lon="2.70509">
        <ele>135.9</ele>
        <time>2018-11-18T09:57:05Z</time>
      </trkpt>
      <trkpt lat="48.42168" lon="2.70509">
        <ele>135.9</ele>
        <time>2018-11-18T09:57:06Z</time>
      </trkpt>
      <trkpt lat="48.42169" lon="2.70509">
        <ele>135.9</ele>
        <time>2018-11-18T09:57:07Z</time>
      </trkpt>
      <trkpt lat="48.42169" lon="2.70508">
        <ele>135.9</ele>
        <time>2018-11-18T09:57:08Z</time>
      </trkpt>
      <trkpt lat="48.4217" lon="2.70508">
        <ele>135.9</ele>
        <time>2018-11-18T09:57:09Z</time>
      </trkpt>
      <trkpt lat="48.42171" lon="2.70507">
        <ele>135.9</ele>
        <time>2018-11-18T09:57:10Z</time>
      </trkpt>
      <trkpt lat="48.42171" lon="2.70507">
        <ele>135.9</ele>
        <time>2018-11-18T09:57:11Z</time>
      </trkpt>
      <trkpt lat="48.42172" lon="2.70505">
        <ele>135.9</ele>
        <time>2018-11-18T09:57:12Z</time>
      </trkpt>
      <trkpt lat="48.42172" lon="2.70505">
        <ele>135.9</ele>
        <time>2018-11-18T09:57:13Z</time>
      </trkpt>
      <trkpt lat="48.42173" lon="2.70505">
        <ele>135.9</ele>
        <time>2018-11-18T09:57:14Z</time>
      </trkpt>
      <trkpt lat="48.42173" lon="2.70505">
        <ele>135.9</ele>
        <time>2018-11-18T09:57:15Z</time>
      </trkpt>
      <trkpt lat="48.42173" lon="2.70505">
        <ele>135.9</ele>
        <time>2018-11-18T09:57:16Z</time>
      </trkpt>
      <trkpt lat="48.42173" lon="2.70505">
        <ele>135.9</ele>
        <time>2018-11-18T09:57:17Z</time>
      </trkpt>
      <trkpt lat="48.42174" lon="2.70505">
        <ele>135.9</ele>
        <time>2018-11-18T09:57:34Z</time>
      </trkpt>
      <trkpt lat="48.42174" lon="2.70505">
        <ele>135.9</ele>
        <time>2018-11-18T09:57:35Z</time>
      </trkpt>
      <trkpt lat="48.42175" lon="2.70505">
        <ele>136</ele>
        <time>2018-11-18T09:57:36Z</time>
      </trkpt>
      <trkpt lat="48.42175" lon="2.70505">
        <ele>136</ele>
        <time>2018-11-18T09:57:37Z</time>
      </trkpt>
      <trkpt lat="48.42175" lon="2.70505">
        <ele>136</ele>
        <time>2018-11-18T09:57:38Z</time>
      </trkpt>
      <trkpt lat="48.42175" lon="2.70505">
        <ele>136</ele>
        <time>2018-11-18T09:57:39Z</time>
      </trkpt>
      <trkpt lat="48.42175" lon="2.70505">
        <ele>136</ele>
        <time>2018-11-18T09:57:40Z</time>
      </trkpt>
      <trkpt lat="48.42175" lon="2.70505">
        <ele>136</ele>
        <time>2018-11-18T09:57:41Z</time>
      </trkpt>
      <trkpt lat="48.42173" lon="2.70506">
        <ele>136</ele>
        <time>2018-11-18T09:58:20Z</time>
      </trkpt>
      <trkpt lat="48.42172" lon="2.70507">
        <ele>136</ele>
        <time>2018-11-18T09:58:21Z</time>
      </trkpt>
      <trkpt lat="48.42171" lon="2.70508">
        <ele>136</ele>
        <time>2018-11-18T09:58:22Z</time>
      </trkpt>
      <trkpt lat="48.42169" lon="2.70509">
        <ele>136</ele>
        <time>2018-11-18T09:58:23Z</time>
      </trkpt>
      <trkpt lat="48.42168" lon="2.70511">
        <ele>136</ele>
        <time>2018-11-18T09:58:24Z</time>
      </trkpt>
      <trkpt lat="48.42169" lon="2.70512">
        <ele>136</ele>
        <time>2018-11-18T09:58:25Z</time>
      </trkpt>
      <trkpt lat="48.4217" lon="2.70512">
        <ele>136</ele>
        <time>2018-11-18T09:58:26Z</time>
      </trkpt>
      <trkpt lat="48.4217" lon="2.70512">
        <ele>136</ele>
        <time>2018-11-18T09:58:27Z</time>
      </trkpt>
      <trkpt lat="48.42171" lon="2.70511">
        <ele>136</ele>
        <time>2018-11-18T09:58:28Z</time>
      </trkpt>
      <trkpt lat="48.42172" lon="2.70509">
        <ele>136</ele>
        <time>2018-11-18T09:58:29Z</time>
      </trkpt>
      <trkpt lat="48.42173" lon="2.70507">
        <ele>136</ele>
        <time>2018-11-18T09:58:30Z</time>
      </trkpt>
      <trkpt lat="48.42173" lon="2.70506">
        <ele>136</ele>
        <time>2018-11-18T09:58:31Z</time>
      </trkpt>
      <trkpt lat="48.42174" lon="2.70506">
        <ele>136</ele>
        <time>2018-11-18T09:58:32Z</time>
      </trkpt>
      <trkpt lat="48.42174" lon="2.70506">
        <ele>136</ele>
        <time>2018-11-18T09:58:33Z</time>
      </trkpt>
      <trkpt lat="48.42174" lon="2.70506">
        <ele>136</ele>
        <time>2018-11-18T09:58:34Z</time>
      </trkpt>
      <trkpt lat="48.42174" lon="2.70506">
        <ele>136</ele>
        <time>2018-11-18T09:58:35Z</time>
      </trkpt>
      <trkpt lat="48.42174" lon="2.70506">
        <ele>136</ele>
        <time>2018-11-18T09:58:36Z</time>
      </trkpt>
      <trkpt lat="48.42174" lon="2.70507">
        <ele>136</ele>
        <time>2018-11-18T09:58:43Z</time>
      </trkpt>
      <trkpt lat="48.42174" lon="2.70506">
        <ele>136</ele>
        <time>2018-11-18T09:58:44Z</time>
      </trkpt>
      <trkpt lat="48.42174" lon="2.70506">
        <ele>136</ele>
        <time>2018-11-18T09:58:45Z</time>
      </trkpt>
      <trkpt lat="48.42174" lon="2.70506">
        <ele>136</ele>
        <time>2018-11-18T09:58:46Z</time>
      </trkpt>
      <trkpt lat="48.42174" lon="2.70506">
        <ele>136</ele>
        <time>2018-11-18T09:58:47Z</time>
      </trkpt>
      <trkpt lat="48.42174" lon="2.70506">
        <ele>136</ele>
        <time>2018-11-18T09:58:48Z</time>
      </trkpt>
      <trkpt lat="48.42168" lon="2.70519">
        <ele>135.9</ele>
        <time>2018-11-18T10:01:48Z</time>
      </trkpt>
      <trkpt lat="48.42168" lon="2.70521">
        <ele>135.8</ele>
        <time>2018-11-18T10:01:49Z</time>
      </trkpt>
      <trkpt lat="48.42168" lon="2.70523">
        <ele>135.7</ele>
        <time>2018-11-18T10:01:50Z</time>
      </trkpt>
      <trkpt lat="48.42168" lon="2.70526">
        <ele>135.7</ele>
        <time>2018-11-18T10:01:51Z</time>
      </trkpt>
      <trkpt lat="48.42168" lon="2.70528">
        <ele>135.6</ele>
        <time>2018-11-18T10:01:52Z</time>
      </trkpt>
      <trkpt lat="48.42167" lon="2.70531">
        <ele>135.5</ele>
        <time>2018-11-18T10:01:53Z</time>
      </trkpt>
      <trkpt lat="48.42166" lon="2.70534">
        <ele>135.5</ele>
        <time>2018-11-18T10:01:54Z</time>
      </trkpt>
      <trkpt lat="48.42165" lon="2.70537">
        <ele>135.4</ele>
        <time>2018-11-18T10:01:55Z</time>
      </trkpt>
      <trkpt lat="48.42164" lon="2.70539">
        <ele>135.3</ele>
        <time>2018-11-18T10:01:56Z</time>
      </trkpt>
      <trkpt lat="48.42164" lon="2.70542">
        <ele>135.2</ele>
        <time>2018-11-18T10:01:57Z</time>
      </trkpt>
      <trkpt lat="48.42164" lon="2.70546">
        <ele>135.1</ele>
        <time>2018-11-18T10:01:58Z</time>
      </trkpt>
      <trkpt lat="48.42165" lon="2.7055">
        <ele>135.1</ele>
        <time>2018-11-18T10:01:59Z</time>
      </trkpt>
      <trkpt lat="48.42165" lon="2.70553">
        <ele>135.7</ele>
        <time>2018-11-18T10:02:00Z</time>
      </trkpt>
      <trkpt lat="48.42166" lon="2.70557">
        <ele>135.7</ele>
        <time>2018-11-18T10:02:01Z</time>
      </trkpt>
      <trkpt lat="48.42166" lon="2.70559">
        <ele>135.7</ele>
        <time>2018-11-18T10:02:02Z</time>
      </trkpt>
      <trkpt lat="48.42165" lon="2.70562">
        <ele>135.7</ele>
        <time>2018-11-18T10:02:03Z</time>
      </trkpt>
      <trkpt lat="48.42164" lon="2.70566">
        <ele>135.7</ele>
        <time>2018-11-18T10:02:04Z</time>
      </trkpt>
      <trkpt lat="48.42163" lon="2.70569">
        <ele>135.7</ele>
        <time>2018-11-18T10:02:05Z</time>
      </trkpt>
      <trkpt lat="48.42163" lon="2.70573">
        <ele>135.8</ele>
        <time>2018-11-18T10:02:06Z</time>
      </trkpt>
      <trkpt lat="48.42164" lon="2.70576">
        <ele>135.8</ele>
        <time>2018-11-18T10:02:07Z</time>
      </trkpt>
      <trkpt lat="48.42165" lon="2.70579">
        <ele>135.8</ele>
        <time>2018-11-18T10:02:08Z</time>
      </trkpt>
      <trkpt lat="48.42165" lon="2.70582">
        <ele>135.8</ele>
        <time>2018-11-18T10:02:09Z</time>
      </trkpt>
      <trkpt lat="48.42165" lon="2.70586">
        <ele>135.8</ele>
        <time>2018-11-18T10:02:10Z</time>
      </trkpt>
      <trkpt lat="48.42166" lon="2.7059">
        <ele>135.9</ele>
        <time>2018-11-18T10:02:11Z</time>
      </trkpt>
      <trkpt lat="48.42166" lon="2.70593">
        <ele>135.9</ele>
        <time>2018-11-18T10:02:12Z</time>
      </trkpt>
      <trkpt lat="48.42166" lon="2.70597">
        <ele>135.9</ele>
        <time>2018-11-18T10:02:13Z</time>
      </trkpt>
      <trkpt lat="48.42165" lon="2.706">
        <ele>135.9</ele>
        <time>2018-11-18T10:02:14Z</time>
      </trkpt>
      <trkpt lat="48.42166" lon="2.70604">
        <ele>135.9</ele>
        <time>2018-11-18T10:02:15Z</time>
      </trkpt>
      <trkpt lat="48.42167" lon="2.70607">
        <ele>135.9</ele>
        <time>2018-11-18T10:02:16Z</time>
      </trkpt>
      <trkpt lat="48.42168" lon="2.7061">
        <ele>135.9</ele>
        <time>2018-11-18T10:02:17Z</time>
      </trkpt>
      <trkpt lat="48.42169" lon="2.70613">
        <ele>135.9</ele>
        <time>2018-11-18T10:02:18Z</time>
      </trkpt>
      <trkpt lat="48.4217" lon="2.70616">
        <ele>135.9</ele>
        <time>2018-11-18T10:02:19Z</time>
      </trkpt>
      <trkpt lat="48.4217" lon="2.70619">
        <ele>135.9</ele>
        <time>2018-11-18T10:02:20Z</time>
      </trkpt>
      <trkpt lat="48.4217" lon="2.70623">
        <ele>135.9</ele>
        <time>2018-11-18T10:02:21Z</time>
      </trkpt>
      <trkpt lat="48.42169" lon="2.70627">
        <ele>135.9</ele>
        <time>2018-11-18T10:02:22Z</time>
      </trkpt>
      <trkpt lat="48.42168" lon="2.70632">
        <ele>135.9</ele>
        <time>2018-11-18T10:02:23Z</time>
      </trkpt>
      <trkpt lat="48.42168" lon="2.70636">
        <ele>135.9</ele>
        <time>2018-11-18T10:02:24Z</time>
      </trkpt>
      <trkpt lat="48.42168" lon="2.7064">
        <ele>135.9</ele>
        <time>2018-11-18T10:02:25Z</time>
      </trkpt>
      <trkpt lat="48.42168" lon="2.70644">
        <ele>135.8</ele>
        <time>2018-11-18T10:02:26Z</time>
      </trkpt>
      <trkpt lat="48.42168" lon="2.70648">
        <ele>135.8</ele>
        <time>2018-11-18T10:02:27Z</time>
      </trkpt>
      <trkpt lat="48.42169" lon="2.70652">
        <ele>135.8</ele>
        <time>2018-11-18T10:02:28Z</time>
      </trkpt>
      <trkpt lat="48.4217" lon="2.70656">
        <ele>135.8</ele>
        <time>2018-11-18T10:02:29Z</time>
      </trkpt>
      <trkpt lat="48.42171" lon="2.70658">
        <ele>135.8</ele>
        <time>2018-11-18T10:02:30Z</time>
      </trkpt>
      <trkpt lat="48.42172" lon="2.7066">
        <ele>135.8</ele>
        <time>2018-11-18T10:02:31Z</time>
      </trkpt>
      <trkpt lat="48.42174" lon="2.70661">
        <ele>135.7</ele>
        <time>2018-11-18T10:02:32Z</time>
      </trkpt>
      <trkpt lat="48.42176" lon="2.70661">
        <ele>135.7</ele>
        <time>2018-11-18T10:02:33Z</time>
      </trkpt>
      <trkpt lat="48.42178" lon="2.70662">
        <ele>135.7</ele>
        <time>2018-11-18T10:02:34Z</time>
      </trkpt>
      <trkpt lat="48.4218" lon="2.70663">
        <ele>135.7</ele>
        <time>2018-11-18T10:02:35Z</time>
      </trkpt>
      <trkpt lat="48.42182" lon="2.70665">
        <ele>135.7</ele>
        <time>2018-11-18T10:02:36Z</time>
      </trkpt>
      <trkpt lat="48.42185" lon="2.70667">
        <ele>135.7</ele>
        <time>2018-11-18T10:02:37Z</time>
      </trkpt>
      <trkpt lat="48.42188" lon="2.7067">
        <ele>135.7</ele>
        <time>2018-11-18T10:02:38Z</time>
      </trkpt>
      <trkpt lat="48.42191" lon="2.70672">
        <ele>135.7</ele>
        <time>2018-11-18T10:02:39Z</time>
      </trkpt>
      <trkpt lat="48.42194" lon="2.70674">
        <ele>135.6</ele>
        <time>2018-11-18T10:02:40Z</time>
      </trkpt>
      <trkpt lat="48.42196" lon="2.70677">
        <ele>135.6</ele>
        <time>2018-11-18T10:02:41Z</time>
      </trkpt>
      <trkpt lat="48.42198" lon="2.70679">
        <ele>135.6</ele>
        <time>2018-11-18T10:02:42Z</time>
      </trkpt>
      <trkpt lat="48.42199" lon="2.70683">
        <ele>135.6</ele>
        <time>2018-11-18T10:02:43Z</time>
      </trkpt>
      <trkpt lat="48.422" lon="2.70687">
        <ele>135.6</ele>
        <time>2018-11-18T10:02:44Z</time>
      </trkpt>
      <trkpt lat="48.42201" lon="2.70691">
        <ele>135.6</ele>
        <time>2018-11-18T10:02:45Z</time>
      </trkpt>
      <trkpt lat="48.42202" lon="2.70695">
        <ele>135.6</ele>
        <time>2018-11-18T10:02:46Z</time>
      </trkpt>
      <trkpt lat="48.42203" lon="2.707">
        <ele>135.6</ele>
        <time>2018-11-18T10:02:47Z</time>
      </trkpt>
      <trkpt lat="48.42205" lon="2.70704">
        <ele>135.5</ele>
        <time>2018-11-18T10:02:48Z</time>
      </trkpt>
      <trkpt lat="48.42207" lon="2.70708">
        <ele>135.5</ele>
        <time>2018-11-18T10:02:49Z</time>
      </trkpt>
      <trkpt lat="48.42208" lon="2.70714">
        <ele>135.4</ele>
        <time>2018-11-18T10:02:50Z</time>
      </trkpt>
      <trkpt lat="48.42209" lon="2.70718">
        <ele>135.3</ele>
        <time>2018-11-18T10:02:51Z</time>
      </trkpt>
      <trkpt lat="48.4221" lon="2.70724">
        <ele>135.1</ele>
        <time>2018-11-18T10:02:52Z</time>
      </trkpt>
      <trkpt lat="48.4221" lon="2.70729">
        <ele>135</ele>
        <time>2018-11-18T10:02:53Z</time>
      </trkpt>
      <trkpt lat="48.42209" lon="2.70733">
        <ele>134.9</ele>
        <time>2018-11-18T10:02:54Z</time>
      </trkpt>
      <trkpt lat="48.42208" lon="2.70736">
        <ele>134.8</ele>
        <time>2018-11-18T10:02:55Z</time>
      </trkpt>
      <trkpt lat="48.42207" lon="2.70737">
        <ele>134.7</ele>
        <time>2018-11-18T10:02:56Z</time>
      </trkpt>
      <trkpt lat="48.42206" lon="2.70739">
        <ele>134.6</ele>
        <time>2018-11-18T10:02:57Z</time>
      </trkpt>
      <trkpt lat="48.42205" lon="2.70741">
        <ele>134.5</ele>
        <time>2018-11-18T10:02:58Z</time>
      </trkpt>
      <trkpt lat="48.42204" lon="2.70744">
        <ele>134.3</ele>
        <time>2018-11-18T10:02:59Z</time>
      </trkpt>
      <trkpt lat="48.42202" lon="2.70745">
        <ele>134.2</ele>
        <time>2018-11-18T10:03:00Z</time>
      </trkpt>
      <trkpt lat="48.42201" lon="2.70747">
        <ele>134.1</ele>
        <time>2018-11-18T10:03:01Z</time>
      </trkpt>
      <trkpt lat="48.42198" lon="2.70748">
        <ele>133.9</ele>
        <time>2018-11-18T10:03:02Z</time>
      </trkpt>
      <trkpt lat="48.42195" lon="2.70749">
        <ele>133.7</ele>
        <time>2018-11-18T10:03:03Z</time>
      </trkpt>
      <trkpt lat="48.42193" lon="2.7075">
        <ele>133.5</ele>
        <time>2018-11-18T10:03:04Z</time>
      </trkpt>
      <trkpt lat="48.42192" lon="2.70751">
        <ele>133.5</ele>
        <time>2018-11-18T10:03:05Z</time>
      </trkpt>
      <trkpt lat="48.42192" lon="2.70751">
        <ele>133.4</ele>
        <time>2018-11-18T10:03:06Z</time>
      </trkpt>
      <trkpt lat="48.42192" lon="2.70752">
        <ele>133.4</ele>
        <time>2018-11-18T10:03:07Z</time>
      </trkpt>
      <trkpt lat="48.42192" lon="2.70753">
        <ele>133.4</ele>
        <time>2018-11-18T10:03:08Z</time>
      </trkpt>
      <trkpt lat="48.42191" lon="2.70755">
        <ele>133.3</ele>
        <time>2018-11-18T10:03:09Z</time>
      </trkpt>
      <trkpt lat="48.42191" lon="2.70757">
        <ele>133.2</ele>
        <time>2018-11-18T10:03:10Z</time>
      </trkpt>
      <trkpt lat="48.42191" lon="2.70758">
        <ele>133.2</ele>
        <time>2018-11-18T10:03:11Z</time>
      </trkpt>
      <trkpt lat="48.42191" lon="2.7076">
        <ele>133.1</ele>
        <time>2018-11-18T10:03:12Z</time>
      </trkpt>
      <trkpt lat="48.42192" lon="2.70761">
        <ele>133</ele>
        <time>2018-11-18T10:03:13Z</time>
      </trkpt>
      <trkpt lat="48.42191" lon="2.70763">
        <ele>133</ele>
        <time>2018-11-18T10:03:14Z</time>
      </trkpt>
      <trkpt lat="48.42191" lon="2.70765">
        <ele>132.9</ele>
        <time>2018-11-18T10:03:15Z</time>
      </trkpt>
      <trkpt lat="48.42191" lon="2.70766">
        <ele>132.8</ele>
        <time>2018-11-18T10:03:16Z</time>
      </trkpt>
      <trkpt lat="48.4219" lon="2.70769">
        <ele>132.7</ele>
        <time>2018-11-18T10:03:17Z</time>
      </trkpt>
      <trkpt lat="48.4219" lon="2.70772">
        <ele>132.5</ele>
        <time>2018-11-18T10:03:18Z</time>
      </trkpt>
      <trkpt lat="48.42188" lon="2.70775">
        <ele>132.4</ele>
        <time>2018-11-18T10:03:19Z</time>
      </trkpt>
      <trkpt lat="48.42187" lon="2.70779">
        <ele>132.2</ele>
        <time>2018-11-18T10:03:20Z</time>
      </trkpt>
      <trkpt lat="48.42186" lon="2.70783">
        <ele>132.1</ele>
        <time>2018-11-18T10:03:21Z</time>
      </trkpt>
      <trkpt lat="48.42186" lon="2.70786">
        <ele>132.1</ele>
        <time>2018-11-18T10:03:22Z</time>
      </trkpt>
      <trkpt lat="48.42187" lon="2.70788">
        <ele>132</ele>
        <time>2018-11-18T10:03:23Z</time>
      </trkpt>
      <trkpt lat="48.42188" lon="2.70791">
        <ele>131.9</ele>
        <time>2018-11-18T10:03:24Z</time>
      </trkpt>
      <trkpt lat="48.42189" lon="2.70793">
        <ele>131.9</ele>
        <time>2018-11-18T10:03:25Z</time>
      </trkpt>
      <trkpt lat="48.42191" lon="2.70795">
        <ele>131.8</ele>
        <time>2018-11-18T10:03:26Z</time>
      </trkpt>
      <trkpt lat="48.42193" lon="2.70799">
        <ele>131.8</ele>
        <time>2018-11-18T10:03:27Z</time>
      </trkpt>
      <trkpt lat="48.42195" lon="2.70802">
        <ele>131.8</ele>
        <time>2018-11-18T10:03:28Z</time>
      </trkpt>
      <trkpt lat="48.42196" lon="2.70805">
        <ele>131.8</ele>
        <time>2018-11-18T10:03:29Z</time>
      </trkpt>
      <trkpt lat="48.42197" lon="2.70808">
        <ele>131.9</ele>
        <time>2018-11-18T10:03:30Z</time>
      </trkpt>
      <trkpt lat="48.42198" lon="2.70812">
        <ele>131.9</ele>
        <time>2018-11-18T10:03:31Z</time>
      </trkpt>
      <trkpt lat="48.42198" lon="2.70815">
        <ele>132</ele>
        <time>2018-11-18T10:03:32Z</time>
      </trkpt>
      <trkpt lat="48.42199" lon="2.70819">
        <ele>132.1</ele>
        <time>2018-11-18T10:03:33Z</time>
      </trkpt>
      <trkpt lat="48.422" lon="2.70823">
        <ele>132.2</ele>
        <time>2018-11-18T10:03:34Z</time>
      </trkpt>
      <trkpt lat="48.42201" lon="2.70827">
        <ele>132.3</ele>
        <time>2018-11-18T10:03:35Z</time>
      </trkpt>
      <trkpt lat="48.42202" lon="2.70831">
        <ele>132.4</ele>
        <time>2018-11-18T10:03:36Z</time>
      </trkpt>
      <trkpt lat="48.42204" lon="2.70835">
        <ele>132.5</ele>
        <time>2018-11-18T10:03:37Z</time>
      </trkpt>
      <trkpt lat="48.42205" lon="2.70838">
        <ele>132.6</ele>
        <time>2018-11-18T10:03:38Z</time>
      </trkpt>
      <trkpt lat="48.42206" lon="2.70841">
        <ele>132.8</ele>
        <time>2018-11-18T10:03:39Z</time>
      </trkpt>
      <trkpt lat="48.42208" lon="2.70844">
        <ele>133</ele>
        <time>2018-11-18T10:03:40Z</time>
      </trkpt>
      <trkpt lat="48.42209" lon="2.70846">
        <ele>133.2</ele>
        <time>2018-11-18T10:03:41Z</time>
      </trkpt>
      <trkpt lat="48.42211" lon="2.70849">
        <ele>133.4</ele>
        <time>2018-11-18T10:03:42Z</time>
      </trkpt>
      <trkpt lat="48.42213" lon="2.70851">
        <ele>133.6</ele>
        <time>2018-11-18T10:03:43Z</time>
      </trkpt>
      <trkpt lat="48.42215" lon="2.70853">
        <ele>133.9</ele>
        <time>2018-11-18T10:03:44Z</time>
      </trkpt>
      <trkpt lat="48.42218" lon="2.70855">
        <ele>134.1</ele>
        <time>2018-11-18T10:03:45Z</time>
      </trkpt>
      <trkpt lat="48.42221" lon="2.70856">
        <ele>134.3</ele>
        <time>2018-11-18T10:03:46Z</time>
      </trkpt>
      <trkpt lat="48.42223" lon="2.70857">
        <ele>134.5</ele>
        <time>2018-11-18T10:03:47Z</time>
      </trkpt>
      <trkpt lat="48.42225" lon="2.70858">
        <ele>134.6</ele>
        <time>2018-11-18T10:03:48Z</time>
      </trkpt>
      <trkpt lat="48.42226" lon="2.70858">
        <ele>134.7</ele>
        <time>2018-11-18T10:03:49Z</time>
      </trkpt>
      <trkpt lat="48.42228" lon="2.70857">
        <ele>134.8</ele>
        <time>2018-11-18T10:03:50Z</time>
      </trkpt>
      <trkpt lat="48.4223" lon="2.70858">
        <ele>135</ele>
        <time>2018-11-18T10:03:51Z</time>
      </trkpt>
      <trkpt lat="48.42231" lon="2.70858">
        <ele>135</ele>
        <time>2018-11-18T10:03:52Z</time>
      </trkpt>
      <trkpt lat="48.42233" lon="2.70859">
        <ele>135.1</ele>
        <time>2018-11-18T10:03:53Z</time>
      </trkpt>
      <trkpt lat="48.42234" lon="2.70859">
        <ele>135.2</ele>
        <time>2018-11-18T10:03:54Z</time>
      </trkpt>
      <trkpt lat="48.42235" lon="2.7086">
        <ele>135.2</ele>
        <time>2018-11-18T10:03:55Z</time>
      </trkpt>
      <trkpt lat="48.42237" lon="2.70861">
        <ele>135.3</ele>
        <time>2018-11-18T10:03:56Z</time>
      </trkpt>
      <trkpt lat="48.42239" lon="2.70862">
        <ele>135.4</ele>
        <time>2018-11-18T10:03:57Z</time>
      </trkpt>
      <trkpt lat="48.42241" lon="2.70864">
        <ele>135.5</ele>
        <time>2018-11-18T10:03:58Z</time>
      </trkpt>
      <trkpt lat="48.42244" lon="2.70866">
        <ele>135.5</ele>
        <time>2018-11-18T10:03:59Z</time>
      </trkpt>
      <trkpt lat="48.42246" lon="2.70868">
        <ele>135.6</ele>
        <time>2018-11-18T10:04:00Z</time>
      </trkpt>
      <trkpt lat="48.42249" lon="2.70869">
        <ele>135.7</ele>
        <time>2018-11-18T10:04:01Z</time>
      </trkpt>
      <trkpt lat="48.42251" lon="2.70871">
        <ele>135.7</ele>
        <time>2018-11-18T10:04:02Z</time>
      </trkpt>
      <trkpt lat="48.42254" lon="2.70872">
        <ele>135.8</ele>
        <time>2018-11-18T10:04:03Z</time>
      </trkpt>
      <trkpt lat="48.42257" lon="2.70874">
        <ele>135.8</ele>
        <time>2018-11-18T10:04:04Z</time>
      </trkpt>
      <trkpt lat="48.42261" lon="2.70876">
        <ele>135.8</ele>
        <time>2018-11-18T10:04:05Z</time>
      </trkpt>
      <trkpt lat="48.42264" lon="2.70877">
        <ele>135.9</ele>
        <time>2018-11-18T10:04:06Z</time>
      </trkpt>
      <trkpt lat="48.42266" lon="2.70878">
        <ele>135.9</ele>
        <time>2018-11-18T10:04:07Z</time>
      </trkpt>
      <trkpt lat="48.42269" lon="2.70878">
        <ele>136</ele>
        <time>2018-11-18T10:04:08Z</time>
      </trkpt>
      <trkpt lat="48.42272" lon="2.70879">
        <ele>136</ele>
        <time>2018-11-18T10:04:09Z</time>
      </trkpt>
      <trkpt lat="48.42275" lon="2.70879">
        <ele>136.1</ele>
        <time>2018-11-18T10:04:10Z</time>
      </trkpt>
      <trkpt lat="48.42278" lon="2.70882">
        <ele>136.2</ele>
        <time>2018-11-18T10:04:11Z</time>
      </trkpt>
      <trkpt lat="48.42282" lon="2.70885">
        <ele>136.3</ele>
        <time>2018-11-18T10:04:12Z</time>
      </trkpt>
      <trkpt lat="48.42285" lon="2.7089">
        <ele>136.4</ele>
        <time>2018-11-18T10:04:13Z</time>
      </trkpt>
      <trkpt lat="48.42288" lon="2.70895">
        <ele>136.6</ele>
        <time>2018-11-18T10:04:14Z</time>
      </trkpt>
      <trkpt lat="48.4229" lon="2.70899">
        <ele>136.8</ele>
        <time>2018-11-18T10:04:15Z</time>
      </trkpt>
      <trkpt lat="48.42293" lon="2.70903">
        <ele>137</ele>
        <time>2018-11-18T10:04:16Z</time>
      </trkpt>
      <trkpt lat="48.42295" lon="2.70906">
        <ele>137.1</ele>
        <time>2018-11-18T10:04:17Z</time>
      </trkpt>
      <trkpt lat="48.42298" lon="2.70908">
        <ele>137.2</ele>
        <time>2018-11-18T10:04:18Z</time>
      </trkpt>
      <trkpt lat="48.423" lon="2.70909">
        <ele>137.4</ele>
        <time>2018-11-18T10:04:19Z</time>
      </trkpt>
      <trkpt lat="48.42303" lon="2.70909">
        <ele>137.5</ele>
        <time>2018-11-18T10:04:20Z</time>
      </trkpt>
      <trkpt lat="48.42305" lon="2.70909">
        <ele>137.6</ele>
        <time>2018-11-18T10:04:21Z</time>
      </trkpt>
      <trkpt lat="48.42307" lon="2.70908">
        <ele>137.7</ele>
        <time>2018-11-18T10:04:22Z</time>
      </trkpt>
      <trkpt lat="48.42309" lon="2.70908">
        <ele>137.8</ele>
        <time>2018-11-18T10:04:23Z</time>
      </trkpt>
      <trkpt lat="48.42311" lon="2.70907">
        <ele>137.8</ele>
        <time>2018-11-18T10:04:24Z</time>
      </trkpt>
      <trkpt lat="48.42314" lon="2.70906">
        <ele>137.9</ele>
        <time>2018-11-18T10:04:25Z</time>
      </trkpt>
      <trkpt lat="48.42317" lon="2.70905">
        <ele>138</ele>
        <time>2018-11-18T10:04:26Z</time>
      </trkpt>
      <trkpt lat="48.42319" lon="2.70904">
        <ele>138.1</ele>
        <time>2018-11-18T10:04:27Z</time>
      </trkpt>
      <trkpt lat="48.42322" lon="2.70903">
        <ele>138.2</ele>
        <time>2018-11-18T10:04:28Z</time>
      </trkpt>
      <trkpt lat="48.42325" lon="2.70902">
        <ele>138.3</ele>
        <time>2018-11-18T10:04:29Z</time>
      </trkpt>
      <trkpt lat="48.42327" lon="2.709">
        <ele>138.3</ele>
        <time>2018-11-18T10:04:30Z</time>
      </trkpt>
      <trkpt lat="48.42329" lon="2.709">
        <ele>138.4</ele>
        <time>2018-11-18T10:04:31Z</time>
      </trkpt>
      <trkpt lat="48.42332" lon="2.70899">
        <ele>138.4</ele>
        <time>2018-11-18T10:04:32Z</time>
      </trkpt>
      <trkpt lat="48.42336" lon="2.70899">
        <ele>138.5</ele>
        <time>2018-11-18T10:04:33Z</time>
      </trkpt>
      <trkpt lat="48.42339" lon="2.70898">
        <ele>138.6</ele>
        <time>2018-11-18T10:04:34Z</time>
      </trkpt>
      <trkpt lat="48.42342" lon="2.70897">
        <ele>138.6</ele>
        <time>2018-11-18T10:04:35Z</time>
      </trkpt>
      <trkpt lat="48.42345" lon="2.70897">
        <ele>138.7</ele>
        <time>2018-11-18T10:04:36Z</time>
      </trkpt>
      <trkpt lat="48.42348" lon="2.70896">
        <ele>138.7</ele>
        <time>2018-11-18T10:04:37Z</time>
      </trkpt>
      <trkpt lat="48.4235" lon="2.70895">
        <ele>138.7</ele>
        <time>2018-11-18T10:04:38Z</time>
      </trkpt>
      <trkpt lat="48.42353" lon="2.70893">
        <ele>138.8</ele>
        <time>2018-11-18T10:04:39Z</time>
      </trkpt>
      <trkpt lat="48.42355" lon="2.70891">
        <ele>138.8</ele>
        <time>2018-11-18T10:04:40Z</time>
      </trkpt>
      <trkpt lat="48.42358" lon="2.70889">
        <ele>138.9</ele>
        <time>2018-11-18T10:04:41Z</time>
      </trkpt>
      <trkpt lat="48.42361" lon="2.70886">
        <ele>139</ele>
        <time>2018-11-18T10:04:42Z</time>
      </trkpt>
      <trkpt lat="48.42364" lon="2.70883">
        <ele>139.1</ele>
        <time>2018-11-18T10:04:43Z</time>
      </trkpt>
      <trkpt lat="48.42367" lon="2.7088">
        <ele>139.2</ele>
        <time>2018-11-18T10:04:44Z</time>
      </trkpt>
      <trkpt lat="48.4237" lon="2.70879">
        <ele>139.3</ele>
        <time>2018-11-18T10:04:45Z</time>
      </trkpt>
      <trkpt lat="48.42372" lon="2.70878">
        <ele>139.3</ele>
        <time>2018-11-18T10:04:46Z</time>
      </trkpt>
      <trkpt lat="48.42374" lon="2.70876">
        <ele>139.4</ele>
        <time>2018-11-18T10:04:47Z</time>
      </trkpt>
      <trkpt lat="48.42376" lon="2.70874">
        <ele>139.5</ele>
        <time>2018-11-18T10:04:48Z</time>
      </trkpt>
      <trkpt lat="48.42378" lon="2.70873">
        <ele>139.6</ele>
        <time>2018-11-18T10:04:49Z</time>
      </trkpt>
      <trkpt lat="48.42379" lon="2.70872">
        <ele>139.6</ele>
        <time>2018-11-18T10:04:50Z</time>
      </trkpt>
      <trkpt lat="48.42381" lon="2.7087">
        <ele>139.7</ele>
        <time>2018-11-18T10:04:51Z</time>
      </trkpt>
      <trkpt lat="48.42382" lon="2.70869">
        <ele>139.7</ele>
        <time>2018-11-18T10:04:52Z</time>
      </trkpt>
      <trkpt lat="48.42384" lon="2.70868">
        <ele>139.8</ele>
        <time>2018-11-18T10:04:53Z</time>
      </trkpt>
      <trkpt lat="48.42386" lon="2.70868">
        <ele>139.8</ele>
        <time>2018-11-18T10:04:54Z</time>
      </trkpt>
      <trkpt lat="48.42388" lon="2.70867">
        <ele>139.9</ele>
        <time>2018-11-18T10:04:55Z</time>
      </trkpt>
      <trkpt lat="48.4239" lon="2.70866">
        <ele>139.9</ele>
        <time>2018-11-18T10:04:56Z</time>
      </trkpt>
      <trkpt lat="48.42392" lon="2.70866">
        <ele>140</ele>
        <time>2018-11-18T10:04:57Z</time>
      </trkpt>
      <trkpt lat="48.42394" lon="2.70866">
        <ele>140.1</ele>
        <time>2018-11-18T10:04:58Z</time>
      </trkpt>
      <trkpt lat="48.42396" lon="2.70866">
        <ele>140.1</ele>
        <time>2018-11-18T10:04:59Z</time>
      </trkpt>
      <trkpt lat="48.42398" lon="2.70866">
        <ele>140.1</ele>
        <time>2018-11-18T10:05:00Z</time>
      </trkpt>
      <trkpt lat="48.42398" lon="2.70865">
        <ele>140.2</ele>
        <time>2018-11-18T10:05:01Z</time>
      </trkpt>
      <trkpt lat="48.42399" lon="2.70865">
        <ele>140.2</ele>
        <time>2018-11-18T10:05:02Z</time>
      </trkpt>
      <trkpt lat="48.424" lon="2.70864">
        <ele>140.2</ele>
        <time>2018-11-18T10:05:03Z</time>
      </trkpt>
      <trkpt lat="48.424" lon="2.70864">
        <ele>140.2</ele>
        <time>2018-11-18T10:05:04Z</time>
      </trkpt>
      <trkpt lat="48.424" lon="2.70864">
        <ele>140.2</ele>
        <time>2018-11-18T10:05:05Z</time>
      </trkpt>
      <trkpt lat="48.42404" lon="2.70862">
        <ele>140.3</ele>
        <time>2018-11-18T10:05:14Z</time>
      </trkpt>
      <trkpt lat="48.42405" lon="2.70861">
        <ele>140.3</ele>
        <time>2018-11-18T10:05:15Z</time>
      </trkpt>
      <trkpt lat="48.42406" lon="2.70861">
        <ele>140.4</ele>
        <time>2018-11-18T10:05:16Z</time>
      </trkpt>
      <trkpt lat="48.42407" lon="2.7086">
        <ele>140.4</ele>
        <time>2018-11-18T10:05:17Z</time>
      </trkpt>
      <trkpt lat="48.42408" lon="2.70859">
        <ele>140.4</ele>
        <time>2018-11-18T10:05:18Z</time>
      </trkpt>
      <trkpt lat="48.42409" lon="2.70859">
        <ele>140.4</ele>
        <time>2018-11-18T10:05:19Z</time>
      </trkpt>
      <trkpt lat="48.4241" lon="2.70857">
        <ele>140.4</ele>
        <time>2018-11-18T10:05:20Z</time>
      </trkpt>
      <trkpt lat="48.42411" lon="2.70856">
        <ele>140.5</ele>
        <time>2018-11-18T10:05:21Z</time>
      </trkpt>
      <trkpt lat="48.42412" lon="2.70855">
        <ele>140.5</ele>
        <time>2018-11-18T10:05:22Z</time>
      </trkpt>
      <trkpt lat="48.42413" lon="2.70853">
        <ele>140.5</ele>
        <time>2018-11-18T10:05:23Z</time>
      </trkpt>
      <trkpt lat="48.42414" lon="2.70852">
        <ele>140.6</ele>
        <time>2018-11-18T10:05:24Z</time>
      </trkpt>
      <trkpt lat="48.42415" lon="2.70849">
        <ele>140.6</ele>
        <time>2018-11-18T10:05:25Z</time>
      </trkpt>
      <trkpt lat="48.42415" lon="2.70846">
        <ele>141</ele>
        <time>2018-11-18T10:05:26Z</time>
      </trkpt>
      <trkpt lat="48.42416" lon="2.70843">
        <ele>141.1</ele>
        <time>2018-11-18T10:05:27Z</time>
      </trkpt>
      <trkpt lat="48.42416" lon="2.7084">
        <ele>141.1</ele>
        <time>2018-11-18T10:05:28Z</time>
      </trkpt>
      <trkpt lat="48.42415" lon="2.70836">
        <ele>141.2</ele>
        <time>2018-11-18T10:05:29Z</time>
      </trkpt>
      <trkpt lat="48.42415" lon="2.70834">
        <ele>141.3</ele>
        <time>2018-11-18T10:05:30Z</time>
      </trkpt>
      <trkpt lat="48.42414" lon="2.70832">
        <ele>141.3</ele>
        <time>2018-11-18T10:05:31Z</time>
      </trkpt>
      <trkpt lat="48.42413" lon="2.70829">
        <ele>141.4</ele>
        <time>2018-11-18T10:05:32Z</time>
      </trkpt>
      <trkpt lat="48.42413" lon="2.70827">
        <ele>141.4</ele>
        <time>2018-11-18T10:05:33Z</time>
      </trkpt>
      <trkpt lat="48.42413" lon="2.70825">
        <ele>141.5</ele>
        <time>2018-11-18T10:05:34Z</time>
      </trkpt>
      <trkpt lat="48.42413" lon="2.70823">
        <ele>141.5</ele>
        <time>2018-11-18T10:05:35Z</time>
      </trkpt>
      <trkpt lat="48.42414" lon="2.70822">
        <ele>141.5</ele>
        <time>2018-11-18T10:05:36Z</time>
      </trkpt>
      <trkpt lat="48.42415" lon="2.70821">
        <ele>141.6</ele>
        <time>2018-11-18T10:05:37Z</time>
      </trkpt>
      <trkpt lat="48.42417" lon="2.7082">
        <ele>141.6</ele>
        <time>2018-11-18T10:05:38Z</time>
      </trkpt>
      <trkpt lat="48.42418" lon="2.70821">
        <ele>141.7</ele>
        <time>2018-11-18T10:05:39Z</time>
      </trkpt>
      <trkpt lat="48.42419" lon="2.70822">
        <ele>141.7</ele>
        <time>2018-11-18T10:05:40Z</time>
      </trkpt>
      <trkpt lat="48.4242" lon="2.70823">
        <ele>141.7</ele>
        <time>2018-11-18T10:05:41Z</time>
      </trkpt>
      <trkpt lat="48.42421" lon="2.70824">
        <ele>141.8</ele>
        <time>2018-11-18T10:05:42Z</time>
      </trkpt>
      <trkpt lat="48.42422" lon="2.70825">
        <ele>141.7</ele>
        <time>2018-11-18T10:05:43Z</time>
      </trkpt>
      <trkpt lat="48.42423" lon="2.70826">
        <ele>141.6</ele>
        <time>2018-11-18T10:05:44Z</time>
      </trkpt>
      <trkpt lat="48.42424" lon="2.70827">
        <ele>141.5</ele>
        <time>2018-11-18T10:05:45Z</time>
      </trkpt>
      <trkpt lat="48.42425" lon="2.70828">
        <ele>141.4</ele>
        <time>2018-11-18T10:05:46Z</time>
      </trkpt>
      <trkpt lat="48.42427" lon="2.70829">
        <ele>141.3</ele>
        <time>2018-11-18T10:05:47Z</time>
      </trkpt>
      <trkpt lat="48.42427" lon="2.7083">
        <ele>141.1</ele>
        <time>2018-11-18T10:05:48Z</time>
      </trkpt>
      <trkpt lat="48.42428" lon="2.70832">
        <ele>141</ele>
        <time>2018-11-18T10:05:49Z</time>
      </trkpt>
      <trkpt lat="48.4243" lon="2.70833">
        <ele>141</ele>
        <time>2018-11-18T10:05:50Z</time>
      </trkpt>
      <trkpt lat="48.42431" lon="2.70834">
        <ele>140.9</ele>
        <time>2018-11-18T10:05:51Z</time>
      </trkpt>
      <trkpt lat="48.42431" lon="2.70835">
        <ele>140.9</ele>
        <time>2018-11-18T10:05:52Z</time>
      </trkpt>
      <trkpt lat="48.42432" lon="2.70836">
        <ele>140.9</ele>
        <time>2018-11-18T10:05:53Z</time>
      </trkpt>
      <trkpt lat="48.42434" lon="2.70837">
        <ele>140.8</ele>
        <time>2018-11-18T10:05:54Z</time>
      </trkpt>
      <trkpt lat="48.42435" lon="2.70837">
        <ele>140.8</ele>
        <time>2018-11-18T10:05:55Z</time>
      </trkpt>
      <trkpt lat="48.42435" lon="2.70838">
        <ele>140.8</ele>
        <time>2018-11-18T10:05:56Z</time>
      </trkpt>
      <trkpt lat="48.42435" lon="2.70838">
        <ele>140.8</ele>
        <time>2018-11-18T10:05:57Z</time>
      </trkpt>
      <trkpt lat="48.42435" lon="2.70838">
        <ele>140.8</ele>
        <time>2018-11-18T10:05:58Z</time>
      </trkpt>
      <trkpt lat="48.42437" lon="2.70839">
        <ele>140.7</ele>
        <time>2018-11-18T10:06:11Z</time>
      </trkpt>
      <trkpt lat="48.42437" lon="2.7084">
        <ele>140.7</ele>
        <time>2018-11-18T10:06:12Z</time>
      </trkpt>
      <trkpt lat="48.42439" lon="2.70841">
        <ele>140.6</ele>
        <time>2018-11-18T10:06:13Z</time>
      </trkpt>
      <trkpt lat="48.4244" lon="2.70842">
        <ele>140.6</ele>
        <time>2018-11-18T10:06:14Z</time>
      </trkpt>
      <trkpt lat="48.42442" lon="2.70843">
        <ele>140.5</ele>
        <time>2018-11-18T10:06:15Z</time>
      </trkpt>
      <trkpt lat="48.42444" lon="2.70844">
        <ele>140.6</ele>
        <time>2018-11-18T10:06:16Z</time>
      </trkpt>
      <trkpt lat="48.42445" lon="2.70846">
        <ele>140.8</ele>
        <time>2018-11-18T10:06:17Z</time>
      </trkpt>
      <trkpt lat="48.42447" lon="2.70848">
        <ele>141</ele>
        <time>2018-11-18T10:06:18Z</time>
      </trkpt>
      <trkpt lat="48.42448" lon="2.70849">
        <ele>141.2</ele>
        <time>2018-11-18T10:06:19Z</time>
      </trkpt>
      <trkpt lat="48.4245" lon="2.70851">
        <ele>141.4</ele>
        <time>2018-11-18T10:06:20Z</time>
      </trkpt>
      <trkpt lat="48.42452" lon="2.70853">
        <ele>141.6</ele>
        <time>2018-11-18T10:06:21Z</time>
      </trkpt>
      <trkpt lat="48.42454" lon="2.70854">
        <ele>141.8</ele>
        <time>2018-11-18T10:06:22Z</time>
      </trkpt>
      <trkpt lat="48.42456" lon="2.70856">
        <ele>142</ele>
        <time>2018-11-18T10:06:23Z</time>
      </trkpt>
      <trkpt lat="48.42458" lon="2.70858">
        <ele>142.2</ele>
        <time>2018-11-18T10:06:24Z</time>
      </trkpt>
      <trkpt lat="48.4246" lon="2.7086">
        <ele>142.4</ele>
        <time>2018-11-18T10:06:25Z</time>
      </trkpt>
      <trkpt lat="48.42462" lon="2.70862">
        <ele>142.6</ele>
        <time>2018-11-18T10:06:26Z</time>
      </trkpt>
      <trkpt lat="48.42464" lon="2.70864">
        <ele>142.8</ele>
        <time>2018-11-18T10:06:27Z</time>
      </trkpt>
      <trkpt lat="48.42466" lon="2.70866">
        <ele>143</ele>
        <time>2018-11-18T10:06:28Z</time>
      </trkpt>
      <trkpt lat="48.42468" lon="2.70868">
        <ele>143.1</ele>
        <time>2018-11-18T10:06:29Z</time>
      </trkpt>
      <trkpt lat="48.4247" lon="2.7087">
        <ele>143.3</ele>
        <time>2018-11-18T10:06:30Z</time>
      </trkpt>
      <trkpt lat="48.42472" lon="2.70872">
        <ele>143.5</ele>
        <time>2018-11-18T10:06:31Z</time>
      </trkpt>
      <trkpt lat="48.42474" lon="2.70874">
        <ele>143.6</ele>
        <time>2018-11-18T10:06:32Z</time>
      </trkpt>
      <trkpt lat="48.42476" lon="2.70876">
        <ele>143.7</ele>
        <time>2018-11-18T10:06:33Z</time>
      </trkpt>
      <trkpt lat="48.42478" lon="2.70878">
        <ele>143.9</ele>
        <time>2018-11-18T10:06:34Z</time>
      </trkpt>
      <trkpt lat="48.42481" lon="2.7088">
        <ele>144</ele>
        <time>2018-11-18T10:06:35Z</time>
      </trkpt>
      <trkpt lat="48.42483" lon="2.70882">
        <ele>144.1</ele>
        <time>2018-11-18T10:06:36Z</time>
      </trkpt>
      <trkpt lat="48.42484" lon="2.70884">
        <ele>144.1</ele>
        <time>2018-11-18T10:06:37Z</time>
      </trkpt>
      <trkpt lat="48.42486" lon="2.70886">
        <ele>144.2</ele>
        <time>2018-11-18T10:06:38Z</time>
      </trkpt>
      <trkpt lat="48.42489" lon="2.70889">
        <ele>144.4</ele>
        <time>2018-11-18T10:06:39Z</time>
      </trkpt>
      <trkpt lat="48.42491" lon="2.70891">
        <ele>144.5</ele>
        <time>2018-11-18T10:06:40Z</time>
      </trkpt>
      <trkpt lat="48.42493" lon="2.70893">
        <ele>144.5</ele>
        <time>2018-11-18T10:06:41Z</time>
      </trkpt>
      <trkpt lat="48.42496" lon="2.70896">
        <ele>145.1</ele>
        <time>2018-11-18T10:06:42Z</time>
      </trkpt>
      <trkpt lat="48.42498" lon="2.70899">
        <ele>145.3</ele>
        <time>2018-11-18T10:06:43Z</time>
      </trkpt>
      <trkpt lat="48.425" lon="2.70902">
        <ele>145.4</ele>
        <time>2018-11-18T10:06:44Z</time>
      </trkpt>
      <trkpt lat="48.42501" lon="2.70904">
        <ele>145.6</ele>
        <time>2018-11-18T10:06:45Z</time>
      </trkpt>
      <trkpt lat="48.42502" lon="2.70905">
        <ele>145.6</ele>
        <time>2018-11-18T10:06:46Z</time>
      </trkpt>
      <trkpt lat="48.42502" lon="2.70906">
        <ele>145.9</ele>
        <time>2018-11-18T10:06:47Z</time>
      </trkpt>
      <trkpt lat="48.42504" lon="2.70909">
        <ele>146.1</ele>
        <time>2018-11-18T10:06:48Z</time>
      </trkpt>
      <trkpt lat="48.42506" lon="2.70911">
        <ele>146.3</ele>
        <time>2018-11-18T10:06:49Z</time>
      </trkpt>
      <trkpt lat="48.42508" lon="2.70914">
        <ele>146.5</ele>
        <time>2018-11-18T10:06:50Z</time>
      </trkpt>
      <trkpt lat="48.4251" lon="2.70916">
        <ele>146.8</ele>
        <time>2018-11-18T10:06:51Z</time>
      </trkpt>
      <trkpt lat="48.42512" lon="2.70919">
        <ele>147</ele>
        <time>2018-11-18T10:06:52Z</time>
      </trkpt>
      <trkpt lat="48.42514" lon="2.70921">
        <ele>147.2</ele>
        <time>2018-11-18T10:06:53Z</time>
      </trkpt>
      <trkpt lat="48.42516" lon="2.70923">
        <ele>147.5</ele>
        <time>2018-11-18T10:06:54Z</time>
      </trkpt>
      <trkpt lat="48.42519" lon="2.70925">
        <ele>147.7</ele>
        <time>2018-11-18T10:06:55Z</time>
      </trkpt>
      <trkpt lat="48.42521" lon="2.70927">
        <ele>147.9</ele>
        <time>2018-11-18T10:06:56Z</time>
      </trkpt>
      <trkpt lat="48.42523" lon="2.7093">
        <ele>148.1</ele>
        <time>2018-11-18T10:06:57Z</time>
      </trkpt>
      <trkpt lat="48.42525" lon="2.70932">
        <ele>148.3</ele>
        <time>2018-11-18T10:06:58Z</time>
      </trkpt>
      <trkpt lat="48.42527" lon="2.70935">
        <ele>148.8</ele>
        <time>2018-11-18T10:06:59Z</time>
      </trkpt>
      <trkpt lat="48.42528" lon="2.70938">
        <ele>148.8</ele>
        <time>2018-11-18T10:07:00Z</time>
      </trkpt>
      <trkpt lat="48.4253" lon="2.70941">
        <ele>148.9</ele>
        <time>2018-11-18T10:07:01Z</time>
      </trkpt>
      <trkpt lat="48.42531" lon="2.70944">
        <ele>149</ele>
        <time>2018-11-18T10:07:02Z</time>
      </trkpt>
      <trkpt lat="48.42533" lon="2.70945">
        <ele>149</ele>
        <time>2018-11-18T10:07:03Z</time>
      </trkpt>
      <trkpt lat="48.42535" lon="2.70947">
        <ele>149.1</ele>
        <time>2018-11-18T10:07:04Z</time>
      </trkpt>
      <trkpt lat="48.42537" lon="2.70948">
        <ele>149.2</ele>
        <time>2018-11-18T10:07:05Z</time>
      </trkpt>
      <trkpt lat="48.42538" lon="2.7095">
        <ele>149.2</ele>
        <time>2018-11-18T10:07:06Z</time>
      </trkpt>
      <trkpt lat="48.4254" lon="2.70951">
        <ele>152</ele>
        <time>2018-11-18T10:07:07Z</time>
      </trkpt>
      <trkpt lat="48.42541" lon="2.70953">
        <ele>152.2</ele>
        <time>2018-11-18T10:07:08Z</time>
      </trkpt>
      <trkpt lat="48.42543" lon="2.70955">
        <ele>152.5</ele>
        <time>2018-11-18T10:07:09Z</time>
      </trkpt>
      <trkpt lat="48.42545" lon="2.70957">
        <ele>152.8</ele>
        <time>2018-11-18T10:07:10Z</time>
      </trkpt>
      <trkpt lat="48.42546" lon="2.70959">
        <ele>153</ele>
        <time>2018-11-18T10:07:11Z</time>
      </trkpt>
      <trkpt lat="48.42546" lon="2.70962">
        <ele>153.2</ele>
        <time>2018-11-18T10:07:12Z</time>
      </trkpt>
      <trkpt lat="48.42545" lon="2.70966">
        <ele>153.4</ele>
        <time>2018-11-18T10:07:13Z</time>
      </trkpt>
      <trkpt lat="48.42545" lon="2.70969">
        <ele>153.5</ele>
        <time>2018-11-18T10:07:14Z</time>
      </trkpt>
      <trkpt lat="48.42544" lon="2.70972">
        <ele>153.7</ele>
        <time>2018-11-18T10:07:15Z</time>
      </trkpt>
      <trkpt lat="48.42543" lon="2.70976">
        <ele>153.9</ele>
        <time>2018-11-18T10:07:16Z</time>
      </trkpt>
      <trkpt lat="48.42541" lon="2.70981">
        <ele>154.1</ele>
        <time>2018-11-18T10:07:17Z</time>
      </trkpt>
      <trkpt lat="48.4254" lon="2.70984">
        <ele>154.3</ele>
        <time>2018-11-18T10:07:18Z</time>
      </trkpt>
      <trkpt lat="48.4254" lon="2.70988">
        <ele>154.5</ele>
        <time>2018-11-18T10:07:19Z</time>
      </trkpt>
      <trkpt lat="48.4254" lon="2.7099">
        <ele>154.6</ele>
        <time>2018-11-18T10:07:20Z</time>
      </trkpt>
      <trkpt lat="48.4254" lon="2.70994">
        <ele>154.7</ele>
        <time>2018-11-18T10:07:21Z</time>
      </trkpt>
      <trkpt lat="48.4254" lon="2.70999">
        <ele>154.9</ele>
        <time>2018-11-18T10:07:22Z</time>
      </trkpt>
      <trkpt lat="48.4254" lon="2.71005">
        <ele>155.1</ele>
        <time>2018-11-18T10:07:23Z</time>
      </trkpt>
      <trkpt lat="48.4254" lon="2.7101">
        <ele>155.2</ele>
        <time>2018-11-18T10:07:24Z</time>
      </trkpt>
      <trkpt lat="48.42542" lon="2.71014">
        <ele>154.8</ele>
        <time>2018-11-18T10:07:25Z</time>
      </trkpt>
      <trkpt lat="48.42543" lon="2.71018">
        <ele>154.4</ele>
        <time>2018-11-18T10:07:26Z</time>
      </trkpt>
      <trkpt lat="48.42543" lon="2.71024">
        <ele>154.1</ele>
        <time>2018-11-18T10:07:27Z</time>
      </trkpt>
      <trkpt lat="48.42543" lon="2.71029">
        <ele>153.8</ele>
        <time>2018-11-18T10:07:28Z</time>
      </trkpt>
      <trkpt lat="48.42544" lon="2.71034">
        <ele>153.4</ele>
        <time>2018-11-18T10:07:29Z</time>
      </trkpt>
      <trkpt lat="48.42544" lon="2.71039">
        <ele>153.5</ele>
        <time>2018-11-18T10:07:30Z</time>
      </trkpt>
      <trkpt lat="48.42544" lon="2.71045">
        <ele>153.5</ele>
        <time>2018-11-18T10:07:31Z</time>
      </trkpt>
      <trkpt lat="48.42544" lon="2.71051">
        <ele>153.6</ele>
        <time>2018-11-18T10:07:32Z</time>
      </trkpt>
      <trkpt lat="48.42545" lon="2.71057">
        <ele>153.7</ele>
        <time>2018-11-18T10:07:33Z</time>
      </trkpt>
      <trkpt lat="48.42546" lon="2.71063">
        <ele>153.9</ele>
        <time>2018-11-18T10:07:34Z</time>
      </trkpt>
      <trkpt lat="48.42547" lon="2.71068">
        <ele>153.2</ele>
        <time>2018-11-18T10:07:35Z</time>
      </trkpt>
      <trkpt lat="48.42546" lon="2.71074">
        <ele>152.5</ele>
        <time>2018-11-18T10:07:36Z</time>
      </trkpt>
      <trkpt lat="48.42545" lon="2.7108">
        <ele>151.8</ele>
        <time>2018-11-18T10:07:37Z</time>
      </trkpt>
      <trkpt lat="48.42543" lon="2.71085">
        <ele>151</ele>
        <time>2018-11-18T10:07:38Z</time>
      </trkpt>
      <trkpt lat="48.42542" lon="2.71089">
        <ele>150.5</ele>
        <time>2018-11-18T10:07:39Z</time>
      </trkpt>
      <trkpt lat="48.4254" lon="2.71094">
        <ele>150.2</ele>
        <time>2018-11-18T10:07:40Z</time>
      </trkpt>
      <trkpt lat="48.42538" lon="2.71097">
        <ele>150</ele>
        <time>2018-11-18T10:07:41Z</time>
      </trkpt>
      <trkpt lat="48.42537" lon="2.71102">
        <ele>149.8</ele>
        <time>2018-11-18T10:07:42Z</time>
      </trkpt>
      <trkpt lat="48.42536" lon="2.71107">
        <ele>149.6</ele>
        <time>2018-11-18T10:07:43Z</time>
      </trkpt>
      <trkpt lat="48.42536" lon="2.71112">
        <ele>149.4</ele>
        <time>2018-11-18T10:07:44Z</time>
      </trkpt>
      <trkpt lat="48.42536" lon="2.71117">
        <ele>149.4</ele>
        <time>2018-11-18T10:07:45Z</time>
      </trkpt>
      <trkpt lat="48.42536" lon="2.71122">
        <ele>149.3</ele>
        <time>2018-11-18T10:07:46Z</time>
      </trkpt>
      <trkpt lat="48.42537" lon="2.71126">
        <ele>149.2</ele>
        <time>2018-11-18T10:07:47Z</time>
      </trkpt>
      <trkpt lat="48.42538" lon="2.71131">
        <ele>149.1</ele>
        <time>2018-11-18T10:07:48Z</time>
      </trkpt>
      <trkpt lat="48.42538" lon="2.71136">
        <ele>149</ele>
        <time>2018-11-18T10:07:49Z</time>
      </trkpt>
      <trkpt lat="48.42539" lon="2.71142">
        <ele>149</ele>
        <time>2018-11-18T10:07:50Z</time>
      </trkpt>
      <trkpt lat="48.42539" lon="2.71147">
        <ele>149</ele>
        <time>2018-11-18T10:07:51Z</time>
      </trkpt>
      <trkpt lat="48.42539" lon="2.71152">
        <ele>149</ele>
        <time>2018-11-18T10:07:52Z</time>
      </trkpt>
      <trkpt lat="48.42539" lon="2.71158">
        <ele>149</ele>
        <time>2018-11-18T10:07:53Z</time>
      </trkpt>
      <trkpt lat="48.42539" lon="2.71165">
        <ele>149</ele>
        <time>2018-11-18T10:07:54Z</time>
      </trkpt>
      <trkpt lat="48.42538" lon="2.71171">
        <ele>149</ele>
        <time>2018-11-18T10:07:55Z</time>
      </trkpt>
      <trkpt lat="48.42537" lon="2.71176">
        <ele>149.1</ele>
        <time>2018-11-18T10:07:56Z</time>
      </trkpt>
      <trkpt lat="48.42536" lon="2.7118">
        <ele>149.1</ele>
        <time>2018-11-18T10:07:57Z</time>
      </trkpt>
      <trkpt lat="48.42535" lon="2.71185">
        <ele>149.2</ele>
        <time>2018-11-18T10:07:58Z</time>
      </trkpt>
      <trkpt lat="48.42534" lon="2.71191">
        <ele>149.2</ele>
        <time>2018-11-18T10:07:59Z</time>
      </trkpt>
      <trkpt lat="48.42533" lon="2.71195">
        <ele>149.3</ele>
        <time>2018-11-18T10:08:00Z</time>
      </trkpt>
      <trkpt lat="48.42532" lon="2.71199">
        <ele>149.4</ele>
        <time>2018-11-18T10:08:01Z</time>
      </trkpt>
      <trkpt lat="48.42531" lon="2.71203">
        <ele>149.5</ele>
        <time>2018-11-18T10:08:02Z</time>
      </trkpt>
      <trkpt lat="48.4253" lon="2.71208">
        <ele>149.7</ele>
        <time>2018-11-18T10:08:03Z</time>
      </trkpt>
      <trkpt lat="48.42529" lon="2.71213">
        <ele>149.8</ele>
        <time>2018-11-18T10:08:04Z</time>
      </trkpt>
      <trkpt lat="48.42527" lon="2.7122">
        <ele>150.1</ele>
        <time>2018-11-18T10:08:05Z</time>
      </trkpt>
      <trkpt lat="48.42526" lon="2.71227">
        <ele>150.3</ele>
        <time>2018-11-18T10:08:06Z</time>
      </trkpt>
      <trkpt lat="48.42524" lon="2.71234">
        <ele>150.5</ele>
        <time>2018-11-18T10:08:07Z</time>
      </trkpt>
      <trkpt lat="48.42523" lon="2.7124">
        <ele>150.6</ele>
        <time>2018-11-18T10:08:08Z</time>
      </trkpt>
      <trkpt lat="48.42522" lon="2.71245">
        <ele>150.7</ele>
        <time>2018-11-18T10:08:09Z</time>
      </trkpt>
      <trkpt lat="48.4252" lon="2.71248">
        <ele>150.7</ele>
        <time>2018-11-18T10:08:10Z</time>
      </trkpt>
      <trkpt lat="48.42519" lon="2.71251">
        <ele>150.8</ele>
        <time>2018-11-18T10:08:11Z</time>
      </trkpt>
      <trkpt lat="48.42518" lon="2.71253">
        <ele>150.8</ele>
        <time>2018-11-18T10:08:12Z</time>
      </trkpt>
      <trkpt lat="48.42517" lon="2.71256">
        <ele>150.9</ele>
        <time>2018-11-18T10:08:13Z</time>
      </trkpt>
      <trkpt lat="48.42516" lon="2.7126">
        <ele>150.9</ele>
        <time>2018-11-18T10:08:14Z</time>
      </trkpt>
      <trkpt lat="48.42515" lon="2.71263">
        <ele>151</ele>
        <time>2018-11-18T10:08:15Z</time>
      </trkpt>
      <trkpt lat="48.42513" lon="2.71267">
        <ele>151.1</ele>
        <time>2018-11-18T10:08:16Z</time>
      </trkpt>
      <trkpt lat="48.42512" lon="2.7127">
        <ele>151.1</ele>
        <time>2018-11-18T10:08:17Z</time>
      </trkpt>
      <trkpt lat="48.42511" lon="2.71273">
        <ele>151.2</ele>
        <time>2018-11-18T10:08:18Z</time>
      </trkpt>
      <trkpt lat="48.42511" lon="2.71277">
        <ele>151.3</ele>
        <time>2018-11-18T10:08:19Z</time>
      </trkpt>
      <trkpt lat="48.4251" lon="2.71282">
        <ele>151.4</ele>
        <time>2018-11-18T10:08:20Z</time>
      </trkpt>
      <trkpt lat="48.42509" lon="2.71286">
        <ele>151.5</ele>
        <time>2018-11-18T10:08:21Z</time>
      </trkpt>
      <trkpt lat="48.42508" lon="2.71289">
        <ele>151.6</ele>
        <time>2018-11-18T10:08:22Z</time>
      </trkpt>
      <trkpt lat="48.42507" lon="2.71293">
        <ele>151.7</ele>
        <time>2018-11-18T10:08:23Z</time>
      </trkpt>
      <trkpt lat="48.42506" lon="2.71296">
        <ele>151.7</ele>
        <time>2018-11-18T10:08:24Z</time>
      </trkpt>
      <trkpt lat="48.42506" lon="2.71302">
        <ele>151.8</ele>
        <time>2018-11-18T10:08:25Z</time>
      </trkpt>
      <trkpt lat="48.42505" lon="2.71308">
        <ele>152</ele>
        <time>2018-11-18T10:08:26Z</time>
      </trkpt>
      <trkpt lat="48.42504" lon="2.71316">
        <ele>152.1</ele>
        <time>2018-11-18T10:08:27Z</time>
      </trkpt>
      <trkpt lat="48.42503" lon="2.71322">
        <ele>152.2</ele>
        <time>2018-11-18T10:08:28Z</time>
      </trkpt>
      <trkpt lat="48.42503" lon="2.71326">
        <ele>152.2</ele>
        <time>2018-11-18T10:08:29Z</time>
      </trkpt>
      <trkpt lat="48.42502" lon="2.71329">
        <ele>152.3</ele>
        <time>2018-11-18T10:08:30Z</time>
      </trkpt>
      <trkpt lat="48.42501" lon="2.71331">
        <ele>152.3</ele>
        <time>2018-11-18T10:08:31Z</time>
      </trkpt>
      <trkpt lat="48.425" lon="2.71334">
        <ele>152.4</ele>
        <time>2018-11-18T10:08:32Z</time>
      </trkpt>
      <trkpt lat="48.42499" lon="2.71336">
        <ele>152.4</ele>
        <time>2018-11-18T10:08:33Z</time>
      </trkpt>
      <trkpt lat="48.42498" lon="2.71338">
        <ele>152.4</ele>
        <time>2018-11-18T10:08:34Z</time>
      </trkpt>
      <trkpt lat="48.42496" lon="2.71339">
        <ele>152.5</ele>
        <time>2018-11-18T10:08:35Z</time>
      </trkpt>
      <trkpt lat="48.42494" lon="2.71341">
        <ele>152.5</ele>
        <time>2018-11-18T10:08:36Z</time>
      </trkpt>
      <trkpt lat="48.42492" lon="2.71341">
        <ele>152.6</ele>
        <time>2018-11-18T10:08:37Z</time>
      </trkpt>
      <trkpt lat="48.4249" lon="2.71342">
        <ele>152.6</ele>
        <time>2018-11-18T10:08:38Z</time>
      </trkpt>
      <trkpt lat="48.42488" lon="2.71342">
        <ele>152.7</ele>
        <time>2018-11-18T10:08:39Z</time>
      </trkpt>
      <trkpt lat="48.42486" lon="2.71342">
        <ele>152.8</ele>
        <time>2018-11-18T10:08:40Z</time>
      </trkpt>
      <trkpt lat="48.42484" lon="2.71342">
        <ele>152.8</ele>
        <time>2018-11-18T10:08:41Z</time>
      </trkpt>
      <trkpt lat="48.42482" lon="2.71342">
        <ele>152.9</ele>
        <time>2018-11-18T10:08:42Z</time>
      </trkpt>
      <trkpt lat="48.4248" lon="2.71342">
        <ele>153</ele>
        <time>2018-11-18T10:08:43Z</time>
      </trkpt>
      <trkpt lat="48.42477" lon="2.71342">
        <ele>153.1</ele>
        <time>2018-11-18T10:08:44Z</time>
      </trkpt>
      <trkpt lat="48.42475" lon="2.71345">
        <ele>153.3</ele>
        <time>2018-11-18T10:08:45Z</time>
      </trkpt>
      <trkpt lat="48.42473" lon="2.71348">
        <ele>153.5</ele>
        <time>2018-11-18T10:08:46Z</time>
      </trkpt>
      <trkpt lat="48.42471" lon="2.71354">
        <ele>153.7</ele>
        <time>2018-11-18T10:08:47Z</time>
      </trkpt>
      <trkpt lat="48.42469" lon="2.71362">
        <ele>153.9</ele>
        <time>2018-11-18T10:08:48Z</time>
      </trkpt>
      <trkpt lat="48.42468" lon="2.71368">
        <ele>154</ele>
        <time>2018-11-18T10:08:49Z</time>
      </trkpt>
      <trkpt lat="48.42467" lon="2.71371">
        <ele>154.1</ele>
        <time>2018-11-18T10:08:50Z</time>
      </trkpt>
      <trkpt lat="48.42466" lon="2.71374">
        <ele>154.1</ele>
        <time>2018-11-18T10:08:51Z</time>
      </trkpt>
      <trkpt lat="48.42465" lon="2.71375">
        <ele>154.1</ele>
        <time>2018-11-18T10:08:52Z</time>
      </trkpt>
      <trkpt lat="48.42464" lon="2.71377">
        <ele>154.1</ele>
        <time>2018-11-18T10:08:53Z</time>
      </trkpt>
      <trkpt lat="48.42463" lon="2.71378">
        <ele>154.2</ele>
        <time>2018-11-18T10:08:54Z</time>
      </trkpt>
      <trkpt lat="48.42461" lon="2.7138">
        <ele>154.2</ele>
        <time>2018-11-18T10:08:55Z</time>
      </trkpt>
      <trkpt lat="48.4246" lon="2.71382">
        <ele>154.2</ele>
        <time>2018-11-18T10:08:56Z</time>
      </trkpt>
      <trkpt lat="48.42458" lon="2.71384">
        <ele>154.2</ele>
        <time>2018-11-18T10:08:57Z</time>
      </trkpt>
      <trkpt lat="48.42457" lon="2.71386">
        <ele>154.2</ele>
        <time>2018-11-18T10:08:58Z</time>
      </trkpt>
      <trkpt lat="48.42455" lon="2.71388">
        <ele>154.2</ele>
        <time>2018-11-18T10:08:59Z</time>
      </trkpt>
      <trkpt lat="48.42454" lon="2.7139">
        <ele>154.2</ele>
        <time>2018-11-18T10:09:00Z</time>
      </trkpt>
      <trkpt lat="48.42452" lon="2.71392">
        <ele>154.3</ele>
        <time>2018-11-18T10:09:01Z</time>
      </trkpt>
      <trkpt lat="48.42452" lon="2.71394">
        <ele>154.3</ele>
        <time>2018-11-18T10:09:02Z</time>
      </trkpt>
      <trkpt lat="48.42451" lon="2.71397">
        <ele>154.3</ele>
        <time>2018-11-18T10:09:03Z</time>
      </trkpt>
      <trkpt lat="48.42452" lon="2.71399">
        <ele>154.3</ele>
        <time>2018-11-18T10:09:04Z</time>
      </trkpt>
      <trkpt lat="48.42451" lon="2.71402">
        <ele>154.4</ele>
        <time>2018-11-18T10:09:05Z</time>
      </trkpt>
      <trkpt lat="48.4245" lon="2.71403">
        <ele>154.4</ele>
        <time>2018-11-18T10:09:06Z</time>
      </trkpt>
      <trkpt lat="48.42449" lon="2.71405">
        <ele>154.4</ele>
        <time>2018-11-18T10:09:07Z</time>
      </trkpt>
      <trkpt lat="48.42447" lon="2.71406">
        <ele>154.5</ele>
        <time>2018-11-18T10:09:08Z</time>
      </trkpt>
      <trkpt lat="48.42445" lon="2.71407">
        <ele>154.6</ele>
        <time>2018-11-18T10:09:09Z</time>
      </trkpt>
      <trkpt lat="48.42443" lon="2.71407">
        <ele>154.6</ele>
        <time>2018-11-18T10:09:10Z</time>
      </trkpt>
      <trkpt lat="48.42442" lon="2.71406">
        <ele>154.6</ele>
        <time>2018-11-18T10:09:11Z</time>
      </trkpt>
      <trkpt lat="48.42441" lon="2.71405">
        <ele>154.7</ele>
        <time>2018-11-18T10:09:12Z</time>
      </trkpt>
      <trkpt lat="48.4244" lon="2.71404">
        <ele>154.7</ele>
        <time>2018-11-18T10:09:13Z</time>
      </trkpt>
      <trkpt lat="48.42439" lon="2.71402">
        <ele>154.7</ele>
        <time>2018-11-18T10:09:14Z</time>
      </trkpt>
      <trkpt lat="48.42438" lon="2.71401">
        <ele>154.7</ele>
        <time>2018-11-18T10:09:15Z</time>
      </trkpt>
      <trkpt lat="48.42436" lon="2.714">
        <ele>154.8</ele>
        <time>2018-11-18T10:09:16Z</time>
      </trkpt>
      <trkpt lat="48.42433" lon="2.71401">
        <ele>154.8</ele>
        <time>2018-11-18T10:09:17Z</time>
      </trkpt>
      <trkpt lat="48.42427" lon="2.71402">
        <ele>154.8</ele>
        <time>2018-11-18T10:09:18Z</time>
      </trkpt>
      <trkpt lat="48.42422" lon="2.71405">
        <ele>154.8</ele>
        <time>2018-11-18T10:09:19Z</time>
      </trkpt>
      <trkpt lat="48.42418" lon="2.71407">
        <ele>154.8</ele>
        <time>2018-11-18T10:09:20Z</time>
      </trkpt>
      <trkpt lat="48.42418" lon="2.71407">
        <ele>154.8</ele>
        <time>2018-11-18T10:09:21Z</time>
      </trkpt>
      <trkpt lat="48.42417" lon="2.71407">
        <ele>154.8</ele>
        <time>2018-11-18T10:09:22Z</time>
      </trkpt>
      <trkpt lat="48.42417" lon="2.71407">
        <ele>154.8</ele>
        <time>2018-11-18T10:09:23Z</time>
      </trkpt>
      <trkpt lat="48.42417" lon="2.71407">
        <ele>154.8</ele>
        <time>2018-11-18T10:09:24Z</time>
      </trkpt>
      <trkpt lat="48.42417" lon="2.71407">
        <ele>154.8</ele>
        <time>2018-11-18T10:09:25Z</time>
      </trkpt>
      <trkpt lat="48.42417" lon="2.71407">
        <ele>154.8</ele>
        <time>2018-11-18T10:09:26Z</time>
      </trkpt>
      <trkpt lat="48.42417" lon="2.71407">
        <ele>154.8</ele>
        <time>2018-11-18T10:09:27Z</time>
      </trkpt>
      <trkpt lat="48.42417" lon="2.71407">
        <ele>154.8</ele>
        <time>2018-11-18T10:09:28Z</time>
      </trkpt>
      <trkpt lat="48.42417" lon="2.71407">
        <ele>154.8</ele>
        <time>2018-11-18T10:09:29Z</time>
      </trkpt>
      <trkpt lat="48.4242" lon="2.71421">
        <ele>155.2</ele>
        <time>2018-11-18T10:10:18Z</time>
      </trkpt>
      <trkpt lat="48.42421" lon="2.71424">
        <ele>155.2</ele>
        <time>2018-11-18T10:10:19Z</time>
      </trkpt>
      <trkpt lat="48.42423" lon="2.71428">
        <ele>155.4</ele>
        <time>2018-11-18T10:10:20Z</time>
      </trkpt>
      <trkpt lat="48.42424" lon="2.71432">
        <ele>155.4</ele>
        <time>2018-11-18T10:10:21Z</time>
      </trkpt>
      <trkpt lat="48.42426" lon="2.71437">
        <ele>155.6</ele>
        <time>2018-11-18T10:10:22Z</time>
      </trkpt>
      <trkpt lat="48.42428" lon="2.71442">
        <ele>155.8</ele>
        <time>2018-11-18T10:10:23Z</time>
      </trkpt>
      <trkpt lat="48.4243" lon="2.71449">
        <ele>155.9</ele>
        <time>2018-11-18T10:10:24Z</time>
      </trkpt>
      <trkpt lat="48.42431" lon="2.71457">
        <ele>156.1</ele>
        <time>2018-11-18T10:10:25Z</time>
      </trkpt>
      <trkpt lat="48.42431" lon="2.71465">
        <ele>156.1</ele>
        <time>2018-11-18T10:10:26Z</time>
      </trkpt>
      <trkpt lat="48.4243" lon="2.7147">
        <ele>155.9</ele>
        <time>2018-11-18T10:10:27Z</time>
      </trkpt>
      <trkpt lat="48.42427" lon="2.71474">
        <ele>155.9</ele>
        <time>2018-11-18T10:10:28Z</time>
      </trkpt>
      <trkpt lat="48.42425" lon="2.71477">
        <ele>155.7</ele>
        <time>2018-11-18T10:10:29Z</time>
      </trkpt>
      <trkpt lat="48.42423" lon="2.7148">
        <ele>155.6</ele>
        <time>2018-11-18T10:10:30Z</time>
      </trkpt>
      <trkpt lat="48.42421" lon="2.71484">
        <ele>155.4</ele>
        <time>2018-11-18T10:10:31Z</time>
      </trkpt>
      <trkpt lat="48.4242" lon="2.71488">
        <ele>155.4</ele>
        <time>2018-11-18T10:10:32Z</time>
      </trkpt>
      <trkpt lat="48.42418" lon="2.71492">
        <ele>155.3</ele>
        <time>2018-11-18T10:10:33Z</time>
      </trkpt>
      <trkpt lat="48.42418" lon="2.71498">
        <ele>155.3</ele>
        <time>2018-11-18T10:10:34Z</time>
      </trkpt>
      <trkpt lat="48.42417" lon="2.71505">
        <ele>155.5</ele>
        <time>2018-11-18T10:10:35Z</time>
      </trkpt>
      <trkpt lat="48.42416" lon="2.71509">
        <ele>155.5</ele>
        <time>2018-11-18T10:10:36Z</time>
      </trkpt>
      <trkpt lat="48.42415" lon="2.71512">
        <ele>155.3</ele>
        <time>2018-11-18T10:10:37Z</time>
      </trkpt>
      <trkpt lat="48.42414" lon="2.71515">
        <ele>155.4</ele>
        <time>2018-11-18T10:10:38Z</time>
      </trkpt>
      <trkpt lat="48.42414" lon="2.71517">
        <ele>155.4</ele>
        <time>2018-11-18T10:10:39Z</time>
      </trkpt>
      <trkpt lat="48.42413" lon="2.7152">
        <ele>155.4</ele>
        <time>2018-11-18T10:10:40Z</time>
      </trkpt>
      <trkpt lat="48.42413" lon="2.71522">
        <ele>155.4</ele>
        <time>2018-11-18T10:10:41Z</time>
      </trkpt>
      <trkpt lat="48.42413" lon="2.71525">
        <ele>155.4</ele>
        <time>2018-11-18T10:10:42Z</time>
      </trkpt>
      <trkpt lat="48.42418" lon="2.71535">
        <ele>155.7</ele>
        <time>2018-11-18T10:10:47Z</time>
      </trkpt>
      <trkpt lat="48.42419" lon="2.71535">
        <ele>155.7</ele>
        <time>2018-11-18T10:10:48Z</time>
      </trkpt>
      <trkpt lat="48.4242" lon="2.71535">
        <ele>155.7</ele>
        <time>2018-11-18T10:10:49Z</time>
      </trkpt>
      <trkpt lat="48.42421" lon="2.71536">
        <ele>155.7</ele>
        <time>2018-11-18T10:10:50Z</time>
      </trkpt>
      <trkpt lat="48.42423" lon="2.71535">
        <ele>155.7</ele>
        <time>2018-11-18T10:10:51Z</time>
      </trkpt>
      <trkpt lat="48.42424" lon="2.71535">
        <ele>155.7</ele>
        <time>2018-11-18T10:10:52Z</time>
      </trkpt>
      <trkpt lat="48.42426" lon="2.71535">
        <ele>155.8</ele>
        <time>2018-11-18T10:10:53Z</time>
      </trkpt>
      <trkpt lat="48.42427" lon="2.71535">
        <ele>155.7</ele>
        <time>2018-11-18T10:10:54Z</time>
      </trkpt>
      <trkpt lat="48.42429" lon="2.71535">
        <ele>155.8</ele>
        <time>2018-11-18T10:10:55Z</time>
      </trkpt>
      <trkpt lat="48.42431" lon="2.71535">
        <ele>155.8</ele>
        <time>2018-11-18T10:10:56Z</time>
      </trkpt>
      <trkpt lat="48.42434" lon="2.71536">
        <ele>155.8</ele>
        <time>2018-11-18T10:10:57Z</time>
      </trkpt>
      <trkpt lat="48.42436" lon="2.71537">
        <ele>155.8</ele>
        <time>2018-11-18T10:10:58Z</time>
      </trkpt>
      <trkpt lat="48.42437" lon="2.71537">
        <ele>155.8</ele>
        <time>2018-11-18T10:10:59Z</time>
      </trkpt>
      <trkpt lat="48.42439" lon="2.71537">
        <ele>155.8</ele>
        <time>2018-11-18T10:11:00Z</time>
      </trkpt>
      <trkpt lat="48.42441" lon="2.71537">
        <ele>155.8</ele>
        <time>2018-11-18T10:11:01Z</time>
      </trkpt>
      <trkpt lat="48.42443" lon="2.71536">
        <ele>155.8</ele>
        <time>2018-11-18T10:11:02Z</time>
      </trkpt>
      <trkpt lat="48.42444" lon="2.71535">
        <ele>155.8</ele>
        <time>2018-11-18T10:11:03Z</time>
      </trkpt>
      <trkpt lat="48.42446" lon="2.71534">
        <ele>155.8</ele>
        <time>2018-11-18T10:11:04Z</time>
      </trkpt>
      <trkpt lat="48.42447" lon="2.71533">
        <ele>155.9</ele>
        <time>2018-11-18T10:11:05Z</time>
      </trkpt>
      <trkpt lat="48.42453" lon="2.71528">
        <ele>156</ele>
        <time>2018-11-18T10:11:08Z</time>
      </trkpt>
      <trkpt lat="48.42455" lon="2.71525">
        <ele>156.1</ele>
        <time>2018-11-18T10:11:09Z</time>
      </trkpt>
      <trkpt lat="48.42456" lon="2.71523">
        <ele>156.1</ele>
        <time>2018-11-18T10:11:10Z</time>
      </trkpt>
      <trkpt lat="48.42459" lon="2.7152">
        <ele>156.2</ele>
        <time>2018-11-18T10:11:11Z</time>
      </trkpt>
      <trkpt lat="48.42461" lon="2.71517">
        <ele>156.2</ele>
        <time>2018-11-18T10:11:12Z</time>
      </trkpt>
      <trkpt lat="48.42463" lon="2.71515">
        <ele>156.3</ele>
        <time>2018-11-18T10:11:13Z</time>
      </trkpt>
      <trkpt lat="48.42464" lon="2.71512">
        <ele>156.3</ele>
        <time>2018-11-18T10:11:14Z</time>
      </trkpt>
      <trkpt lat="48.42466" lon="2.71509">
        <ele>156.4</ele>
        <time>2018-11-18T10:11:15Z</time>
      </trkpt>
      <trkpt lat="48.42468" lon="2.71506">
        <ele>156.4</ele>
        <time>2018-11-18T10:11:16Z</time>
      </trkpt>
      <trkpt lat="48.42469" lon="2.71503">
        <ele>156.4</ele>
        <time>2018-11-18T10:11:17Z</time>
      </trkpt>
      <trkpt lat="48.4247" lon="2.715">
        <ele>156.5</ele>
        <time>2018-11-18T10:11:18Z</time>
      </trkpt>
      <trkpt lat="48.42471" lon="2.71497">
        <ele>156.5</ele>
        <time>2018-11-18T10:11:19Z</time>
      </trkpt>
      <trkpt lat="48.42473" lon="2.71494">
        <ele>156.6</ele>
        <time>2018-11-18T10:11:20Z</time>
      </trkpt>
      <trkpt lat="48.42476" lon="2.71491">
        <ele>156.6</ele>
        <time>2018-11-18T10:11:21Z</time>
      </trkpt>
      <trkpt lat="48.42477" lon="2.71487">
        <ele>156.7</ele>
        <time>2018-11-18T10:11:22Z</time>
      </trkpt>
      <trkpt lat="48.42479" lon="2.71484">
        <ele>156.8</ele>
        <time>2018-11-18T10:11:23Z</time>
      </trkpt>
      <trkpt lat="48.42481" lon="2.7148">
        <ele>156.9</ele>
        <time>2018-11-18T10:11:24Z</time>
      </trkpt>
      <trkpt lat="48.42483" lon="2.71476">
        <ele>157</ele>
        <time>2018-11-18T10:11:25Z</time>
      </trkpt>
      <trkpt lat="48.42485" lon="2.71472">
        <ele>157</ele>
        <time>2018-11-18T10:11:26Z</time>
      </trkpt>
      <trkpt lat="48.42487" lon="2.71469">
        <ele>157.1</ele>
        <time>2018-11-18T10:11:27Z</time>
      </trkpt>
      <trkpt lat="48.42489" lon="2.71465">
        <ele>157.1</ele>
        <time>2018-11-18T10:11:28Z</time>
      </trkpt>
      <trkpt lat="48.42491" lon="2.71462">
        <ele>157.2</ele>
        <time>2018-11-18T10:11:29Z</time>
      </trkpt>
      <trkpt lat="48.42493" lon="2.71459">
        <ele>157.2</ele>
        <time>2018-11-18T10:11:30Z</time>
      </trkpt>
      <trkpt lat="48.42494" lon="2.71456">
        <ele>157.3</ele>
        <time>2018-11-18T10:11:31Z</time>
      </trkpt>
      <trkpt lat="48.42496" lon="2.71453">
        <ele>157.3</ele>
        <time>2018-11-18T10:11:32Z</time>
      </trkpt>
      <trkpt lat="48.42499" lon="2.71449">
        <ele>157.4</ele>
        <time>2018-11-18T10:11:33Z</time>
      </trkpt>
      <trkpt lat="48.42501" lon="2.71446">
        <ele>157.5</ele>
        <time>2018-11-18T10:11:34Z</time>
      </trkpt>
      <trkpt lat="48.42503" lon="2.71442">
        <ele>157.6</ele>
        <time>2018-11-18T10:11:35Z</time>
      </trkpt>
      <trkpt lat="48.42505" lon="2.71438">
        <ele>157.6</ele>
        <time>2018-11-18T10:11:36Z</time>
      </trkpt>
      <trkpt lat="48.42507" lon="2.71435">
        <ele>157.7</ele>
        <time>2018-11-18T10:11:37Z</time>
      </trkpt>
      <trkpt lat="48.42509" lon="2.71431">
        <ele>157.7</ele>
        <time>2018-11-18T10:11:38Z</time>
      </trkpt>
      <trkpt lat="48.42511" lon="2.71427">
        <ele>157.8</ele>
        <time>2018-11-18T10:11:39Z</time>
      </trkpt>
      <trkpt lat="48.42514" lon="2.71423">
        <ele>157.9</ele>
        <time>2018-11-18T10:11:40Z</time>
      </trkpt>
      <trkpt lat="48.42517" lon="2.71419">
        <ele>158</ele>
        <time>2018-11-18T10:11:41Z</time>
      </trkpt>
      <trkpt lat="48.42519" lon="2.71415">
        <ele>158.1</ele>
        <time>2018-11-18T10:11:42Z</time>
      </trkpt>
      <trkpt lat="48.42521" lon="2.71411">
        <ele>158.2</ele>
        <time>2018-11-18T10:11:43Z</time>
      </trkpt>
      <trkpt lat="48.42523" lon="2.71407">
        <ele>158.2</ele>
        <time>2018-11-18T10:11:44Z</time>
      </trkpt>
      <trkpt lat="48.42526" lon="2.71404">
        <ele>158.3</ele>
        <time>2018-11-18T10:11:45Z</time>
      </trkpt>
      <trkpt lat="48.42528" lon="2.71401">
        <ele>158.3</ele>
        <time>2018-11-18T10:11:46Z</time>
      </trkpt>
      <trkpt lat="48.4253" lon="2.71399">
        <ele>158.4</ele>
        <time>2018-11-18T10:11:47Z</time>
      </trkpt>
      <trkpt lat="48.42532" lon="2.71399">
        <ele>158.4</ele>
        <time>2018-11-18T10:11:48Z</time>
      </trkpt>
      <trkpt lat="48.42535" lon="2.71401">
        <ele>158.4</ele>
        <time>2018-11-18T10:11:49Z</time>
      </trkpt>
      <trkpt lat="48.42537" lon="2.71402">
        <ele>158.4</ele>
        <time>2018-11-18T10:11:50Z</time>
      </trkpt>
      <trkpt lat="48.42539" lon="2.71404">
        <ele>158.4</ele>
        <time>2018-11-18T10:11:51Z</time>
      </trkpt>
      <trkpt lat="48.42542" lon="2.71406">
        <ele>159.3</ele>
        <time>2018-11-18T10:11:52Z</time>
      </trkpt>
      <trkpt lat="48.42543" lon="2.71408">
        <ele>159.4</ele>
        <time>2018-11-18T10:11:53Z</time>
      </trkpt>
      <trkpt lat="48.42545" lon="2.7141">
        <ele>159.5</ele>
        <time>2018-11-18T10:11:54Z</time>
      </trkpt>
      <trkpt lat="48.42548" lon="2.71412">
        <ele>159.6</ele>
        <time>2018-11-18T10:11:55Z</time>
      </trkpt>
      <trkpt lat="48.4255" lon="2.71414">
        <ele>159.7</ele>
        <time>2018-11-18T10:11:56Z</time>
      </trkpt>
      <trkpt lat="48.42553" lon="2.71416">
        <ele>159.8</ele>
        <time>2018-11-18T10:11:57Z</time>
      </trkpt>
      <trkpt lat="48.42556" lon="2.71418">
        <ele>159.9</ele>
        <time>2018-11-18T10:11:58Z</time>
      </trkpt>
      <trkpt lat="48.4256" lon="2.7142">
        <ele>160</ele>
        <time>2018-11-18T10:11:59Z</time>
      </trkpt>
      <trkpt lat="48.42563" lon="2.71421">
        <ele>160.1</ele>
        <time>2018-11-18T10:12:00Z</time>
      </trkpt>
      <trkpt lat="48.42566" lon="2.71423">
        <ele>160.2</ele>
        <time>2018-11-18T10:12:01Z</time>
      </trkpt>
      <trkpt lat="48.4257" lon="2.71424">
        <ele>160.3</ele>
        <time>2018-11-18T10:12:02Z</time>
      </trkpt>
      <trkpt lat="48.42572" lon="2.71425">
        <ele>160.3</ele>
        <time>2018-11-18T10:12:03Z</time>
      </trkpt>
      <trkpt lat="48.42576" lon="2.71427">
        <ele>160.3</ele>
        <time>2018-11-18T10:12:04Z</time>
      </trkpt>
      <trkpt lat="48.42579" lon="2.71428">
        <ele>160.3</ele>
        <time>2018-11-18T10:12:05Z</time>
      </trkpt>
      <trkpt lat="48.42582" lon="2.7143">
        <ele>160.3</ele>
        <time>2018-11-18T10:12:06Z</time>
      </trkpt>
      <trkpt lat="48.42586" lon="2.71432">
        <ele>160.2</ele>
        <time>2018-11-18T10:12:07Z</time>
      </trkpt>
      <trkpt lat="48.42589" lon="2.71434">
        <ele>160.1</ele>
        <time>2018-11-18T10:12:08Z</time>
      </trkpt>
      <trkpt lat="48.42593" lon="2.71437">
        <ele>160.1</ele>
        <time>2018-11-18T10:12:09Z</time>
      </trkpt>
      <trkpt lat="48.42596" lon="2.7144">
        <ele>160</ele>
        <time>2018-11-18T10:12:10Z</time>
      </trkpt>
      <trkpt lat="48.426" lon="2.71442">
        <ele>159.9</ele>
        <time>2018-11-18T10:12:11Z</time>
      </trkpt>
      <trkpt lat="48.42603" lon="2.71444">
        <ele>159.8</ele>
        <time>2018-11-18T10:12:12Z</time>
      </trkpt>
      <trkpt lat="48.42605" lon="2.71447">
        <ele>159.6</ele>
        <time>2018-11-18T10:12:13Z</time>
      </trkpt>
      <trkpt lat="48.42608" lon="2.71449">
        <ele>159.5</ele>
        <time>2018-11-18T10:12:14Z</time>
      </trkpt>
      <trkpt lat="48.42611" lon="2.71451">
        <ele>159.4</ele>
        <time>2018-11-18T10:12:15Z</time>
      </trkpt>
      <trkpt lat="48.42615" lon="2.71454">
        <ele>159.2</ele>
        <time>2018-11-18T10:12:16Z</time>
      </trkpt>
      <trkpt lat="48.42618" lon="2.71457">
        <ele>159.1</ele>
        <time>2018-11-18T10:12:17Z</time>
      </trkpt>
      <trkpt lat="48.42622" lon="2.7146">
        <ele>159</ele>
        <time>2018-11-18T10:12:18Z</time>
      </trkpt>
      <trkpt lat="48.42625" lon="2.71463">
        <ele>158.8</ele>
        <time>2018-11-18T10:12:19Z</time>
      </trkpt>
      <trkpt lat="48.42628" lon="2.71466">
        <ele>158.7</ele>
        <time>2018-11-18T10:12:20Z</time>
      </trkpt>
      <trkpt lat="48.42631" lon="2.71469">
        <ele>158.6</ele>
        <time>2018-11-18T10:12:21Z</time>
      </trkpt>
      <trkpt lat="48.42635" lon="2.71473">
        <ele>158.4</ele>
        <time>2018-11-18T10:12:22Z</time>
      </trkpt>
      <trkpt lat="48.42638" lon="2.71476">
        <ele>158.3</ele>
        <time>2018-11-18T10:12:23Z</time>
      </trkpt>
      <trkpt lat="48.42642" lon="2.7148">
        <ele>158.2</ele>
        <time>2018-11-18T10:12:24Z</time>
      </trkpt>
      <trkpt lat="48.42646" lon="2.71483">
        <ele>158.1</ele>
        <time>2018-11-18T10:12:25Z</time>
      </trkpt>
      <trkpt lat="48.4265" lon="2.71486">
        <ele>158</ele>
        <time>2018-11-18T10:12:26Z</time>
      </trkpt>
      <trkpt lat="48.42653" lon="2.71488">
        <ele>157.9</ele>
        <time>2018-11-18T10:12:27Z</time>
      </trkpt>
      <trkpt lat="48.42656" lon="2.7149">
        <ele>157.9</ele>
        <time>2018-11-18T10:12:28Z</time>
      </trkpt>
      <trkpt lat="48.4266" lon="2.71493">
        <ele>157.8</ele>
        <time>2018-11-18T10:12:29Z</time>
      </trkpt>
      <trkpt lat="48.42663" lon="2.71497">
        <ele>157.7</ele>
        <time>2018-11-18T10:12:30Z</time>
      </trkpt>
      <trkpt lat="48.42666" lon="2.71503">
        <ele>157.6</ele>
        <time>2018-11-18T10:12:31Z</time>
      </trkpt>
      <trkpt lat="48.42668" lon="2.71508">
        <ele>157.5</ele>
        <time>2018-11-18T10:12:32Z</time>
      </trkpt>
      <trkpt lat="48.42669" lon="2.71514">
        <ele>157.5</ele>
        <time>2018-11-18T10:12:33Z</time>
      </trkpt>
      <trkpt lat="48.4267" lon="2.7152">
        <ele>157.4</ele>
        <time>2018-11-18T10:12:34Z</time>
      </trkpt>
      <trkpt lat="48.42672" lon="2.71526">
        <ele>157.4</ele>
        <time>2018-11-18T10:12:35Z</time>
      </trkpt>
      <trkpt lat="48.42674" lon="2.71532">
        <ele>157.3</ele>
        <time>2018-11-18T10:12:36Z</time>
      </trkpt>
      <trkpt lat="48.42676" lon="2.71539">
        <ele>157.1</ele>
        <time>2018-11-18T10:12:37Z</time>
      </trkpt>
      <trkpt lat="48.42679" lon="2.71545">
        <ele>157.1</ele>
        <time>2018-11-18T10:12:38Z</time>
      </trkpt>
      <trkpt lat="48.42682" lon="2.71551">
        <ele>157</ele>
        <time>2018-11-18T10:12:39Z</time>
      </trkpt>
      <trkpt lat="48.42685" lon="2.71557">
        <ele>156.9</ele>
        <time>2018-11-18T10:12:40Z</time>
      </trkpt>
      <trkpt lat="48.42689" lon="2.71562">
        <ele>156.8</ele>
        <time>2018-11-18T10:12:41Z</time>
      </trkpt>
      <trkpt lat="48.42693" lon="2.71566">
        <ele>156.6</ele>
        <time>2018-11-18T10:12:42Z</time>
      </trkpt>
      <trkpt lat="48.42697" lon="2.7157">
        <ele>156.5</ele>
        <time>2018-11-18T10:12:43Z</time>
      </trkpt>
      <trkpt lat="48.42702" lon="2.71574">
        <ele>156.4</ele>
        <time>2018-11-18T10:12:44Z</time>
      </trkpt>
      <trkpt lat="48.42705" lon="2.71578">
        <ele>156.4</ele>
        <time>2018-11-18T10:12:45Z</time>
      </trkpt>
      <trkpt lat="48.42709" lon="2.71583">
        <ele>156.3</ele>
        <time>2018-11-18T10:12:46Z</time>
      </trkpt>
      <trkpt lat="48.42713" lon="2.71588">
        <ele>156.2</ele>
        <time>2018-11-18T10:12:47Z</time>
      </trkpt>
      <trkpt lat="48.42716" lon="2.71591">
        <ele>156.1</ele>
        <time>2018-11-18T10:12:48Z</time>
      </trkpt>
      <trkpt lat="48.4272" lon="2.71594">
        <ele>156.1</ele>
        <time>2018-11-18T10:12:49Z</time>
      </trkpt>
      <trkpt lat="48.42725" lon="2.71597">
        <ele>156</ele>
        <time>2018-11-18T10:12:50Z</time>
      </trkpt>
      <trkpt lat="48.4273" lon="2.716">
        <ele>155.8</ele>
        <time>2018-11-18T10:12:51Z</time>
      </trkpt>
      <trkpt lat="48.42734" lon="2.71601">
        <ele>155.8</ele>
        <time>2018-11-18T10:12:52Z</time>
      </trkpt>
      <trkpt lat="48.42738" lon="2.71603">
        <ele>155.6</ele>
        <time>2018-11-18T10:12:53Z</time>
      </trkpt>
      <trkpt lat="48.42742" lon="2.71605">
        <ele>155.5</ele>
        <time>2018-11-18T10:12:54Z</time>
      </trkpt>
      <trkpt lat="48.42746" lon="2.71609">
        <ele>155.3</ele>
        <time>2018-11-18T10:12:55Z</time>
      </trkpt>
      <trkpt lat="48.4275" lon="2.71612">
        <ele>155.1</ele>
        <time>2018-11-18T10:12:56Z</time>
      </trkpt>
      <trkpt lat="48.42753" lon="2.71617">
        <ele>155</ele>
        <time>2018-11-18T10:12:57Z</time>
      </trkpt>
      <trkpt lat="48.42756" lon="2.71621">
        <ele>154.8</ele>
        <time>2018-11-18T10:12:58Z</time>
      </trkpt>
      <trkpt lat="48.42759" lon="2.71625">
        <ele>154.7</ele>
        <time>2018-11-18T10:12:59Z</time>
      </trkpt>
      <trkpt lat="48.42762" lon="2.71629">
        <ele>154.6</ele>
        <time>2018-11-18T10:13:00Z</time>
      </trkpt>
      <trkpt lat="48.42764" lon="2.71633">
        <ele>154.5</ele>
        <time>2018-11-18T10:13:01Z</time>
      </trkpt>
      <trkpt lat="48.42766" lon="2.71637">
        <ele>154.3</ele>
        <time>2018-11-18T10:13:02Z</time>
      </trkpt>
      <trkpt lat="48.42769" lon="2.71642">
        <ele>154.3</ele>
        <time>2018-11-18T10:13:03Z</time>
      </trkpt>
      <trkpt lat="48.42772" lon="2.71647">
        <ele>154.2</ele>
        <time>2018-11-18T10:13:04Z</time>
      </trkpt>
      <trkpt lat="48.42774" lon="2.71652">
        <ele>154.1</ele>
        <time>2018-11-18T10:13:05Z</time>
      </trkpt>
      <trkpt lat="48.42777" lon="2.71657">
        <ele>154.2</ele>
        <time>2018-11-18T10:13:06Z</time>
      </trkpt>
      <trkpt lat="48.42779" lon="2.71662">
        <ele>154.2</ele>
        <time>2018-11-18T10:13:07Z</time>
      </trkpt>
      <trkpt lat="48.42781" lon="2.71667">
        <ele>154.3</ele>
        <time>2018-11-18T10:13:08Z</time>
      </trkpt>
      <trkpt lat="48.42783" lon="2.71672">
        <ele>154.3</ele>
        <time>2018-11-18T10:13:09Z</time>
      </trkpt>
      <trkpt lat="48.42784" lon="2.71677">
        <ele>154.2</ele>
        <time>2018-11-18T10:13:10Z</time>
      </trkpt>
      <trkpt lat="48.42784" lon="2.71682">
        <ele>154.2</ele>
        <time>2018-11-18T10:13:11Z</time>
      </trkpt>
      <trkpt lat="48.42783" lon="2.71687">
        <ele>154.2</ele>
        <time>2018-11-18T10:13:12Z</time>
      </trkpt>
      <trkpt lat="48.42781" lon="2.71693">
        <ele>154.2</ele>
        <time>2018-11-18T10:13:13Z</time>
      </trkpt>
      <trkpt lat="48.4278" lon="2.71697">
        <ele>154.2</ele>
        <time>2018-11-18T10:13:14Z</time>
      </trkpt>
      <trkpt lat="48.42779" lon="2.71702">
        <ele>154.2</ele>
        <time>2018-11-18T10:13:15Z</time>
      </trkpt>
      <trkpt lat="48.42778" lon="2.71707">
        <ele>154.2</ele>
        <time>2018-11-18T10:13:16Z</time>
      </trkpt>
      <trkpt lat="48.42779" lon="2.71712">
        <ele>154.1</ele>
        <time>2018-11-18T10:13:17Z</time>
      </trkpt>
      <trkpt lat="48.4278" lon="2.71717">
        <ele>154.1</ele>
        <time>2018-11-18T10:13:18Z</time>
      </trkpt>
      <trkpt lat="48.4278" lon="2.71723">
        <ele>154</ele>
        <time>2018-11-18T10:13:19Z</time>
      </trkpt>
      <trkpt lat="48.42781" lon="2.71729">
        <ele>154</ele>
        <time>2018-11-18T10:13:20Z</time>
      </trkpt>
      <trkpt lat="48.42781" lon="2.71734">
        <ele>153.9</ele>
        <time>2018-11-18T10:13:21Z</time>
      </trkpt>
      <trkpt lat="48.42782" lon="2.7174">
        <ele>153.8</ele>
        <time>2018-11-18T10:13:22Z</time>
      </trkpt>
      <trkpt lat="48.42783" lon="2.71747">
        <ele>153.7</ele>
        <time>2018-11-18T10:13:23Z</time>
      </trkpt>
      <trkpt lat="48.42784" lon="2.71753">
        <ele>153.5</ele>
        <time>2018-11-18T10:13:24Z</time>
      </trkpt>
      <trkpt lat="48.42785" lon="2.7176">
        <ele>153.3</ele>
        <time>2018-11-18T10:13:25Z</time>
      </trkpt>
      <trkpt lat="48.42788" lon="2.71767">
        <ele>153.1</ele>
        <time>2018-11-18T10:13:26Z</time>
      </trkpt>
      <trkpt lat="48.4279" lon="2.71772">
        <ele>152.9</ele>
        <time>2018-11-18T10:13:27Z</time>
      </trkpt>
      <trkpt lat="48.42792" lon="2.71778">
        <ele>152.7</ele>
        <time>2018-11-18T10:13:28Z</time>
      </trkpt>
      <trkpt lat="48.42794" lon="2.71784">
        <ele>152.5</ele>
        <time>2018-11-18T10:13:29Z</time>
      </trkpt>
      <trkpt lat="48.42795" lon="2.7179">
        <ele>152.3</ele>
        <time>2018-11-18T10:13:30Z</time>
      </trkpt>
      <trkpt lat="48.42796" lon="2.71797">
        <ele>152.2</ele>
        <time>2018-11-18T10:13:31Z</time>
      </trkpt>
      <trkpt lat="48.42796" lon="2.71803">
        <ele>152.2</ele>
        <time>2018-11-18T10:13:32Z</time>
      </trkpt>
      <trkpt lat="48.42796" lon="2.7181">
        <ele>152.2</ele>
        <time>2018-11-18T10:13:33Z</time>
      </trkpt>
      <trkpt lat="48.42796" lon="2.71816">
        <ele>151.7</ele>
        <time>2018-11-18T10:13:34Z</time>
      </trkpt>
      <trkpt lat="48.42796" lon="2.71822">
        <ele>151.5</ele>
        <time>2018-11-18T10:13:35Z</time>
      </trkpt>
      <trkpt lat="48.42796" lon="2.71829">
        <ele>151.2</ele>
        <time>2018-11-18T10:13:36Z</time>
      </trkpt>
      <trkpt lat="48.42794" lon="2.71835">
        <ele>151</ele>
        <time>2018-11-18T10:13:37Z</time>
      </trkpt>
      <trkpt lat="48.42793" lon="2.71841">
        <ele>150.8</ele>
        <time>2018-11-18T10:13:38Z</time>
      </trkpt>
      <trkpt lat="48.42791" lon="2.71847">
        <ele>150.5</ele>
        <time>2018-11-18T10:13:39Z</time>
      </trkpt>
      <trkpt lat="48.42789" lon="2.71853">
        <ele>150.3</ele>
        <time>2018-11-18T10:13:40Z</time>
      </trkpt>
      <trkpt lat="48.42786" lon="2.71858">
        <ele>150</ele>
        <time>2018-11-18T10:13:41Z</time>
      </trkpt>
      <trkpt lat="48.42784" lon="2.71863">
        <ele>149.8</ele>
        <time>2018-11-18T10:13:42Z</time>
      </trkpt>
      <trkpt lat="48.42782" lon="2.71868">
        <ele>149.7</ele>
        <time>2018-11-18T10:13:43Z</time>
      </trkpt>
      <trkpt lat="48.42779" lon="2.71872">
        <ele>149.6</ele>
        <time>2018-11-18T10:13:44Z</time>
      </trkpt>
      <trkpt lat="48.42777" lon="2.71876">
        <ele>149.4</ele>
        <time>2018-11-18T10:13:45Z</time>
      </trkpt>
      <trkpt lat="48.42775" lon="2.71879">
        <ele>149.3</ele>
        <time>2018-11-18T10:13:46Z</time>
      </trkpt>
      <trkpt lat="48.42773" lon="2.71882">
        <ele>149.1</ele>
        <time>2018-11-18T10:13:47Z</time>
      </trkpt>
      <trkpt lat="48.42772" lon="2.71885">
        <ele>149</ele>
        <time>2018-11-18T10:13:48Z</time>
      </trkpt>
      <trkpt lat="48.4277" lon="2.71888">
        <ele>148.9</ele>
        <time>2018-11-18T10:13:49Z</time>
      </trkpt>
      <trkpt lat="48.42768" lon="2.71892">
        <ele>148.8</ele>
        <time>2018-11-18T10:13:50Z</time>
      </trkpt>
      <trkpt lat="48.42766" lon="2.71895">
        <ele>148.7</ele>
        <time>2018-11-18T10:13:51Z</time>
      </trkpt>
      <trkpt lat="48.42763" lon="2.71898">
        <ele>148.5</ele>
        <time>2018-11-18T10:13:52Z</time>
      </trkpt>
      <trkpt lat="48.42761" lon="2.71901">
        <ele>148.4</ele>
        <time>2018-11-18T10:13:53Z</time>
      </trkpt>
      <trkpt lat="48.42759" lon="2.71904">
        <ele>148.3</ele>
        <time>2018-11-18T10:13:54Z</time>
      </trkpt>
      <trkpt lat="48.42757" lon="2.71907">
        <ele>148.2</ele>
        <time>2018-11-18T10:13:55Z</time>
      </trkpt>
      <trkpt lat="48.42755" lon="2.7191">
        <ele>148.1</ele>
        <time>2018-11-18T10:13:56Z</time>
      </trkpt>
      <trkpt lat="48.42752" lon="2.71914">
        <ele>147.9</ele>
        <time>2018-11-18T10:13:57Z</time>
      </trkpt>
      <trkpt lat="48.4275" lon="2.71918">
        <ele>147.8</ele>
        <time>2018-11-18T10:13:58Z</time>
      </trkpt>
      <trkpt lat="48.42748" lon="2.71922">
        <ele>147.6</ele>
        <time>2018-11-18T10:13:59Z</time>
      </trkpt>
      <trkpt lat="48.42746" lon="2.71925">
        <ele>147.5</ele>
        <time>2018-11-18T10:14:00Z</time>
      </trkpt>
      <trkpt lat="48.42743" lon="2.71929">
        <ele>147.3</ele>
        <time>2018-11-18T10:14:01Z</time>
      </trkpt>
      <trkpt lat="48.42741" lon="2.71932">
        <ele>147.2</ele>
        <time>2018-11-18T10:14:02Z</time>
      </trkpt>
      <trkpt lat="48.42739" lon="2.71935">
        <ele>147</ele>
        <time>2018-11-18T10:14:03Z</time>
      </trkpt>
      <trkpt lat="48.42737" lon="2.71937">
        <ele>146.9</ele>
        <time>2018-11-18T10:14:04Z</time>
      </trkpt>
      <trkpt lat="48.42735" lon="2.7194">
        <ele>146.7</ele>
        <time>2018-11-18T10:14:05Z</time>
      </trkpt>
      <trkpt lat="48.42732" lon="2.71943">
        <ele>146.6</ele>
        <time>2018-11-18T10:14:06Z</time>
      </trkpt>
      <trkpt lat="48.42729" lon="2.71947">
        <ele>146.4</ele>
        <time>2018-11-18T10:14:07Z</time>
      </trkpt>
      <trkpt lat="48.42727" lon="2.71951">
        <ele>146.2</ele>
        <time>2018-11-18T10:14:08Z</time>
      </trkpt>
      <trkpt lat="48.42724" lon="2.71954">
        <ele>146.1</ele>
        <time>2018-11-18T10:14:09Z</time>
      </trkpt>
      <trkpt lat="48.42722" lon="2.71957">
        <ele>146</ele>
        <time>2018-11-18T10:14:10Z</time>
      </trkpt>
      <trkpt lat="48.4272" lon="2.71959">
        <ele>145.9</ele>
        <time>2018-11-18T10:14:11Z</time>
      </trkpt>
      <trkpt lat="48.42718" lon="2.71962">
        <ele>145.8</ele>
        <time>2018-11-18T10:14:12Z</time>
      </trkpt>
      <trkpt lat="48.42716" lon="2.71964">
        <ele>145.7</ele>
        <time>2018-11-18T10:14:13Z</time>
      </trkpt>
      <trkpt lat="48.42715" lon="2.71966">
        <ele>145.6</ele>
        <time>2018-11-18T10:14:14Z</time>
      </trkpt>
      <trkpt lat="48.42713" lon="2.71968">
        <ele>145.4</ele>
        <time>2018-11-18T10:14:15Z</time>
      </trkpt>
      <trkpt lat="48.42711" lon="2.71969">
        <ele>145.5</ele>
        <time>2018-11-18T10:14:16Z</time>
      </trkpt>
      <trkpt lat="48.42709" lon="2.7197">
        <ele>145.5</ele>
        <time>2018-11-18T10:14:17Z</time>
      </trkpt>
      <trkpt lat="48.42707" lon="2.71971">
        <ele>145.5</ele>
        <time>2018-11-18T10:14:18Z</time>
      </trkpt>
      <trkpt lat="48.42704" lon="2.71972">
        <ele>145.6</ele>
        <time>2018-11-18T10:14:19Z</time>
      </trkpt>
      <trkpt lat="48.42702" lon="2.71972">
        <ele>145.4</ele>
        <time>2018-11-18T10:14:20Z</time>
      </trkpt>
      <trkpt lat="48.427" lon="2.71973">
        <ele>145.5</ele>
        <time>2018-11-18T10:14:21Z</time>
      </trkpt>
      <trkpt lat="48.42698" lon="2.71974">
        <ele>145.5</ele>
        <time>2018-11-18T10:14:22Z</time>
      </trkpt>
      <trkpt lat="48.42697" lon="2.71976">
        <ele>145.2</ele>
        <time>2018-11-18T10:14:23Z</time>
      </trkpt>
      <trkpt lat="48.42695" lon="2.71979">
        <ele>145.2</ele>
        <time>2018-11-18T10:14:24Z</time>
      </trkpt>
      <trkpt lat="48.42695" lon="2.7198">
        <ele>144.8</ele>
        <time>2018-11-18T10:14:25Z</time>
      </trkpt>
      <trkpt lat="48.42695" lon="2.71981">
        <ele>144.8</ele>
        <time>2018-11-18T10:14:26Z</time>
      </trkpt>
      <trkpt lat="48.42696" lon="2.71983">
        <ele>144.8</ele>
        <time>2018-11-18T10:14:27Z</time>
      </trkpt>
      <trkpt lat="48.42696" lon="2.71986">
        <ele>144.5</ele>
        <time>2018-11-18T10:14:28Z</time>
      </trkpt>
      <trkpt lat="48.42696" lon="2.7199">
        <ele>144.1</ele>
        <time>2018-11-18T10:14:29Z</time>
      </trkpt>
      <trkpt lat="48.42695" lon="2.71994">
        <ele>143.7</ele>
        <time>2018-11-18T10:14:30Z</time>
      </trkpt>
      <trkpt lat="48.42693" lon="2.71998">
        <ele>143.5</ele>
        <time>2018-11-18T10:14:31Z</time>
      </trkpt>
      <trkpt lat="48.42691" lon="2.72001">
        <ele>143.5</ele>
        <time>2018-11-18T10:14:32Z</time>
      </trkpt>
      <trkpt lat="48.42688" lon="2.72005">
        <ele>143.3</ele>
        <time>2018-11-18T10:14:33Z</time>
      </trkpt>
      <trkpt lat="48.42685" lon="2.72008">
        <ele>143</ele>
        <time>2018-11-18T10:14:34Z</time>
      </trkpt>
      <trkpt lat="48.42682" lon="2.72013">
        <ele>142.8</ele>
        <time>2018-11-18T10:14:35Z</time>
      </trkpt>
      <trkpt lat="48.4268" lon="2.72017">
        <ele>142.6</ele>
        <time>2018-11-18T10:14:36Z</time>
      </trkpt>
      <trkpt lat="48.42679" lon="2.7202">
        <ele>142.3</ele>
        <time>2018-11-18T10:14:37Z</time>
      </trkpt>
      <trkpt lat="48.42678" lon="2.72025">
        <ele>142.1</ele>
        <time>2018-11-18T10:14:38Z</time>
      </trkpt>
      <trkpt lat="48.42678" lon="2.7203">
        <ele>141.9</ele>
        <time>2018-11-18T10:14:39Z</time>
      </trkpt>
      <trkpt lat="48.42679" lon="2.72034">
        <ele>141.6</ele>
        <time>2018-11-18T10:14:40Z</time>
      </trkpt>
      <trkpt lat="48.42679" lon="2.72038">
        <ele>141.4</ele>
        <time>2018-11-18T10:14:41Z</time>
      </trkpt>
      <trkpt lat="48.4268" lon="2.72042">
        <ele>141.3</ele>
        <time>2018-11-18T10:14:42Z</time>
      </trkpt>
      <trkpt lat="48.42678" lon="2.72045">
        <ele>141.1</ele>
        <time>2018-11-18T10:14:43Z</time>
      </trkpt>
      <trkpt lat="48.42677" lon="2.72049">
        <ele>140.9</ele>
        <time>2018-11-18T10:14:44Z</time>
      </trkpt>
      <trkpt lat="48.42676" lon="2.72054">
        <ele>140.8</ele>
        <time>2018-11-18T10:14:45Z</time>
      </trkpt>
      <trkpt lat="48.42675" lon="2.72059">
        <ele>140.6</ele>
        <time>2018-11-18T10:14:46Z</time>
      </trkpt>
      <trkpt lat="48.42674" lon="2.72064">
        <ele>140.4</ele>
        <time>2018-11-18T10:14:47Z</time>
      </trkpt>
      <trkpt lat="48.42674" lon="2.72068">
        <ele>140.2</ele>
        <time>2018-11-18T10:14:48Z</time>
      </trkpt>
      <trkpt lat="48.42675" lon="2.72071">
        <ele>140</ele>
        <time>2018-11-18T10:14:49Z</time>
      </trkpt>
      <trkpt lat="48.42675" lon="2.72075">
        <ele>139.8</ele>
        <time>2018-11-18T10:14:50Z</time>
      </trkpt>
      <trkpt lat="48.42674" lon="2.72079">
        <ele>139.7</ele>
        <time>2018-11-18T10:14:51Z</time>
      </trkpt>
      <trkpt lat="48.42673" lon="2.72082">
        <ele>139.3</ele>
        <time>2018-11-18T10:14:52Z</time>
      </trkpt>
      <trkpt lat="48.42671" lon="2.72084">
        <ele>138.8</ele>
        <time>2018-11-18T10:14:53Z</time>
      </trkpt>
      <trkpt lat="48.42668" lon="2.72086">
        <ele>138.7</ele>
        <time>2018-11-18T10:14:54Z</time>
      </trkpt>
      <trkpt lat="48.42665" lon="2.72089">
        <ele>138.1</ele>
        <time>2018-11-18T10:14:55Z</time>
      </trkpt>
      <trkpt lat="48.42663" lon="2.72092">
        <ele>138</ele>
        <time>2018-11-18T10:14:56Z</time>
      </trkpt>
      <trkpt lat="48.4266" lon="2.72096">
        <ele>137.5</ele>
        <time>2018-11-18T10:14:57Z</time>
      </trkpt>
      <trkpt lat="48.42658" lon="2.72099">
        <ele>137</ele>
        <time>2018-11-18T10:14:58Z</time>
      </trkpt>
      <trkpt lat="48.42656" lon="2.72101">
        <ele>136.6</ele>
        <time>2018-11-18T10:14:59Z</time>
      </trkpt>
      <trkpt lat="48.42653" lon="2.72103">
        <ele>136.6</ele>
        <time>2018-11-18T10:15:00Z</time>
      </trkpt>
      <trkpt lat="48.42652" lon="2.72106">
        <ele>136.2</ele>
        <time>2018-11-18T10:15:01Z</time>
      </trkpt>
      <trkpt lat="48.42651" lon="2.72108">
        <ele>136.2</ele>
        <time>2018-11-18T10:15:02Z</time>
      </trkpt>
      <trkpt lat="48.42649" lon="2.7211">
        <ele>135.8</ele>
        <time>2018-11-18T10:15:03Z</time>
      </trkpt>
      <trkpt lat="48.42647" lon="2.72113">
        <ele>135.8</ele>
        <time>2018-11-18T10:15:04Z</time>
      </trkpt>
      <trkpt lat="48.42646" lon="2.72116">
        <ele>135.4</ele>
        <time>2018-11-18T10:15:05Z</time>
      </trkpt>
      <trkpt lat="48.42644" lon="2.72119">
        <ele>135</ele>
        <time>2018-11-18T10:15:06Z</time>
      </trkpt>
      <trkpt lat="48.42642" lon="2.72122">
        <ele>135</ele>
        <time>2018-11-18T10:15:07Z</time>
      </trkpt>
      <trkpt lat="48.42639" lon="2.72124">
        <ele>134.6</ele>
        <time>2018-11-18T10:15:08Z</time>
      </trkpt>
      <trkpt lat="48.42637" lon="2.72127">
        <ele>134.3</ele>
        <time>2018-11-18T10:15:09Z</time>
      </trkpt>
      <trkpt lat="48.42634" lon="2.7213">
        <ele>134.1</ele>
        <time>2018-11-18T10:15:10Z</time>
      </trkpt>
      <trkpt lat="48.42632" lon="2.72131">
        <ele>133.8</ele>
        <time>2018-11-18T10:15:11Z</time>
      </trkpt>
      <trkpt lat="48.42629" lon="2.72133">
        <ele>133.6</ele>
        <time>2018-11-18T10:15:12Z</time>
      </trkpt>
      <trkpt lat="48.42627" lon="2.72136">
        <ele>133.4</ele>
        <time>2018-11-18T10:15:13Z</time>
      </trkpt>
      <trkpt lat="48.42626" lon="2.72139">
        <ele>133.3</ele>
        <time>2018-11-18T10:15:14Z</time>
      </trkpt>
      <trkpt lat="48.42626" lon="2.72141">
        <ele>133.1</ele>
        <time>2018-11-18T10:15:15Z</time>
      </trkpt>
      <trkpt lat="48.42625" lon="2.72144">
        <ele>132.9</ele>
        <time>2018-11-18T10:15:16Z</time>
      </trkpt>
      <trkpt lat="48.42624" lon="2.72149">
        <ele>132.8</ele>
        <time>2018-11-18T10:15:17Z</time>
      </trkpt>
      <trkpt lat="48.42624" lon="2.72153">
        <ele>132.5</ele>
        <time>2018-11-18T10:15:18Z</time>
      </trkpt>
      <trkpt lat="48.42623" lon="2.72156">
        <ele>132.5</ele>
        <time>2018-11-18T10:15:19Z</time>
      </trkpt>
      <trkpt lat="48.42623" lon="2.72159">
        <ele>132.4</ele>
        <time>2018-11-18T10:15:20Z</time>
      </trkpt>
      <trkpt lat="48.42622" lon="2.72162">
        <ele>132.3</ele>
        <time>2018-11-18T10:15:21Z</time>
      </trkpt>
      <trkpt lat="48.42621" lon="2.72166">
        <ele>132</ele>
        <time>2018-11-18T10:15:22Z</time>
      </trkpt>
      <trkpt lat="48.42619" lon="2.7217">
        <ele>131.8</ele>
        <time>2018-11-18T10:15:23Z</time>
      </trkpt>
      <trkpt lat="48.42618" lon="2.72173">
        <ele>131.6</ele>
        <time>2018-11-18T10:15:24Z</time>
      </trkpt>
      <trkpt lat="48.42616" lon="2.72176">
        <ele>131.4</ele>
        <time>2018-11-18T10:15:25Z</time>
      </trkpt>
      <trkpt lat="48.42614" lon="2.72179">
        <ele>131</ele>
        <time>2018-11-18T10:15:26Z</time>
      </trkpt>
      <trkpt lat="48.42611" lon="2.72184">
        <ele>130.5</ele>
        <time>2018-11-18T10:15:27Z</time>
      </trkpt>
      <trkpt lat="48.42609" lon="2.72188">
        <ele>130</ele>
        <time>2018-11-18T10:15:28Z</time>
      </trkpt>
      <trkpt lat="48.42607" lon="2.72191">
        <ele>130</ele>
        <time>2018-11-18T10:15:29Z</time>
      </trkpt>
      <trkpt lat="48.42605" lon="2.72193">
        <ele>129.5</ele>
        <time>2018-11-18T10:15:30Z</time>
      </trkpt>
      <trkpt lat="48.42603" lon="2.72195">
        <ele>129</ele>
        <time>2018-11-18T10:15:31Z</time>
      </trkpt>
      <trkpt lat="48.42601" lon="2.72197">
        <ele>128.8</ele>
        <time>2018-11-18T10:15:32Z</time>
      </trkpt>
      <trkpt lat="48.42599" lon="2.72199">
        <ele>128.5</ele>
        <time>2018-11-18T10:15:33Z</time>
      </trkpt>
      <trkpt lat="48.42597" lon="2.72203">
        <ele>128.4</ele>
        <time>2018-11-18T10:15:34Z</time>
      </trkpt>
      <trkpt lat="48.42595" lon="2.72206">
        <ele>127.9</ele>
        <time>2018-11-18T10:15:35Z</time>
      </trkpt>
      <trkpt lat="48.42592" lon="2.7221">
        <ele>127.5</ele>
        <time>2018-11-18T10:15:36Z</time>
      </trkpt>
      <trkpt lat="48.42589" lon="2.72213">
        <ele>127.1</ele>
        <time>2018-11-18T10:15:37Z</time>
      </trkpt>
      <trkpt lat="48.42587" lon="2.72217">
        <ele>126.8</ele>
        <time>2018-11-18T10:15:38Z</time>
      </trkpt>
      <trkpt lat="48.42586" lon="2.72221">
        <ele>126.5</ele>
        <time>2018-11-18T10:15:39Z</time>
      </trkpt>
      <trkpt lat="48.42586" lon="2.72226">
        <ele>126.3</ele>
        <time>2018-11-18T10:15:40Z</time>
      </trkpt>
      <trkpt lat="48.42586" lon="2.72231">
        <ele>126.1</ele>
        <time>2018-11-18T10:15:41Z</time>
      </trkpt>
      <trkpt lat="48.42586" lon="2.72236">
        <ele>125.9</ele>
        <time>2018-11-18T10:15:42Z</time>
      </trkpt>
      <trkpt lat="48.42586" lon="2.72241">
        <ele>125.8</ele>
        <time>2018-11-18T10:15:43Z</time>
      </trkpt>
      <trkpt lat="48.42587" lon="2.72246">
        <ele>125.7</ele>
        <time>2018-11-18T10:15:44Z</time>
      </trkpt>
      <trkpt lat="48.42589" lon="2.72248">
        <ele>125.5</ele>
        <time>2018-11-18T10:15:45Z</time>
      </trkpt>
      <trkpt lat="48.42591" lon="2.72249">
        <ele>125.7</ele>
        <time>2018-11-18T10:15:46Z</time>
      </trkpt>
      <trkpt lat="48.42592" lon="2.72248">
        <ele>125.7</ele>
        <time>2018-11-18T10:15:47Z</time>
      </trkpt>
      <trkpt lat="48.42594" lon="2.72245">
        <ele>126</ele>
        <time>2018-11-18T10:15:48Z</time>
      </trkpt>
      <trkpt lat="48.42595" lon="2.72242">
        <ele>126.1</ele>
        <time>2018-11-18T10:15:49Z</time>
      </trkpt>
      <trkpt lat="48.42596" lon="2.72239">
        <ele>126.3</ele>
        <time>2018-11-18T10:15:50Z</time>
      </trkpt>
      <trkpt lat="48.42597" lon="2.72236">
        <ele>126.4</ele>
        <time>2018-11-18T10:15:51Z</time>
      </trkpt>
      <trkpt lat="48.42597" lon="2.72233">
        <ele>126.6</ele>
        <time>2018-11-18T10:15:52Z</time>
      </trkpt>
      <trkpt lat="48.42598" lon="2.72231">
        <ele>126.6</ele>
        <time>2018-11-18T10:15:53Z</time>
      </trkpt>
      <trkpt lat="48.42599" lon="2.72229">
        <ele>126.9</ele>
        <time>2018-11-18T10:15:54Z</time>
      </trkpt>
      <trkpt lat="48.426" lon="2.72226">
        <ele>126.9</ele>
        <time>2018-11-18T10:15:55Z</time>
      </trkpt>
      <trkpt lat="48.42602" lon="2.72224">
        <ele>127.3</ele>
        <time>2018-11-18T10:15:56Z</time>
      </trkpt>
      <trkpt lat="48.42604" lon="2.72222">
        <ele>127.3</ele>
        <time>2018-11-18T10:15:57Z</time>
      </trkpt>
      <trkpt lat="48.42606" lon="2.72221">
        <ele>127.4</ele>
        <time>2018-11-18T10:15:58Z</time>
      </trkpt>
      <trkpt lat="48.42609" lon="2.72219">
        <ele>127.8</ele>
        <time>2018-11-18T10:15:59Z</time>
      </trkpt>
      <trkpt lat="48.42611" lon="2.72217">
        <ele>128</ele>
        <time>2018-11-18T10:16:00Z</time>
      </trkpt>
      <trkpt lat="48.42613" lon="2.72214">
        <ele>128.4</ele>
        <time>2018-11-18T10:16:01Z</time>
      </trkpt>
      <trkpt lat="48.42614" lon="2.72211">
        <ele>128.7</ele>
        <time>2018-11-18T10:16:02Z</time>
      </trkpt>
      <trkpt lat="48.42616" lon="2.72208">
        <ele>129.2</ele>
        <time>2018-11-18T10:16:03Z</time>
      </trkpt>
      <trkpt lat="48.42618" lon="2.72205">
        <ele>129.2</ele>
        <time>2018-11-18T10:16:04Z</time>
      </trkpt>
      <trkpt lat="48.4262" lon="2.72203">
        <ele>129.7</ele>
        <time>2018-11-18T10:16:05Z</time>
      </trkpt>
      <trkpt lat="48.42622" lon="2.72201">
        <ele>129.8</ele>
        <time>2018-11-18T10:16:06Z</time>
      </trkpt>
      <trkpt lat="48.42624" lon="2.72199">
        <ele>130</ele>
        <time>2018-11-18T10:16:07Z</time>
      </trkpt>
      <trkpt lat="48.42627" lon="2.72197">
        <ele>130.3</ele>
        <time>2018-11-18T10:16:08Z</time>
      </trkpt>
      <trkpt lat="48.42628" lon="2.72194">
        <ele>130.8</ele>
        <time>2018-11-18T10:16:09Z</time>
      </trkpt>
      <trkpt lat="48.4263" lon="2.72191">
        <ele>130.9</ele>
        <time>2018-11-18T10:16:10Z</time>
      </trkpt>
      <trkpt lat="48.42631" lon="2.72187">
        <ele>131.2</ele>
        <time>2018-11-18T10:16:11Z</time>
      </trkpt>
      <trkpt lat="48.42633" lon="2.72185">
        <ele>131.6</ele>
        <time>2018-11-18T10:16:12Z</time>
      </trkpt>
      <trkpt lat="48.42634" lon="2.72182">
        <ele>131.9</ele>
        <time>2018-11-18T10:16:13Z</time>
      </trkpt>
      <trkpt lat="48.42636" lon="2.72179">
        <ele>132</ele>
        <time>2018-11-18T10:16:14Z</time>
      </trkpt>
      <trkpt lat="48.42638" lon="2.72178">
        <ele>132</ele>
        <time>2018-11-18T10:16:15Z</time>
      </trkpt>
      <trkpt lat="48.4264" lon="2.72178">
        <ele>132.1</ele>
        <time>2018-11-18T10:16:16Z</time>
      </trkpt>
      <trkpt lat="48.42642" lon="2.7218">
        <ele>132.2</ele>
        <time>2018-11-18T10:16:17Z</time>
      </trkpt>
      <trkpt lat="48.42644" lon="2.72182">
        <ele>132</ele>
        <time>2018-11-18T10:16:18Z</time>
      </trkpt>
      <trkpt lat="48.42647" lon="2.72184">
        <ele>132</ele>
        <time>2018-11-18T10:16:19Z</time>
      </trkpt>
      <trkpt lat="48.4265" lon="2.72184">
        <ele>132.1</ele>
        <time>2018-11-18T10:16:20Z</time>
      </trkpt>
      <trkpt lat="48.42652" lon="2.72186">
        <ele>132.1</ele>
        <time>2018-11-18T10:16:21Z</time>
      </trkpt>
      <trkpt lat="48.42655" lon="2.72188">
        <ele>131.9</ele>
        <time>2018-11-18T10:16:22Z</time>
      </trkpt>
      <trkpt lat="48.42656" lon="2.7219">
        <ele>132</ele>
        <time>2018-11-18T10:16:23Z</time>
      </trkpt>
      <trkpt lat="48.42657" lon="2.72194">
        <ele>131.7</ele>
        <time>2018-11-18T10:16:24Z</time>
      </trkpt>
      <trkpt lat="48.42659" lon="2.72198">
        <ele>131.5</ele>
        <time>2018-11-18T10:16:25Z</time>
      </trkpt>
      <trkpt lat="48.4266" lon="2.72202">
        <ele>131.3</ele>
        <time>2018-11-18T10:16:26Z</time>
      </trkpt>
      <trkpt lat="48.42661" lon="2.72206">
        <ele>131</ele>
        <time>2018-11-18T10:16:27Z</time>
      </trkpt>
      <trkpt lat="48.42663" lon="2.72207">
        <ele>131</ele>
        <time>2018-11-18T10:16:28Z</time>
      </trkpt>
      <trkpt lat="48.42664" lon="2.72207">
        <ele>131.1</ele>
        <time>2018-11-18T10:16:29Z</time>
      </trkpt>
      <trkpt lat="48.42666" lon="2.72208">
        <ele>131.1</ele>
        <time>2018-11-18T10:16:30Z</time>
      </trkpt>
      <trkpt lat="48.42668" lon="2.72208">
        <ele>130.8</ele>
        <time>2018-11-18T10:16:31Z</time>
      </trkpt>
      <trkpt lat="48.4267" lon="2.72209">
        <ele>130.9</ele>
        <time>2018-11-18T10:16:32Z</time>
      </trkpt>
      <trkpt lat="48.42671" lon="2.72211">
        <ele>130.8</ele>
        <time>2018-11-18T10:16:33Z</time>
      </trkpt>
      <trkpt lat="48.42673" lon="2.72212">
        <ele>130.5</ele>
        <time>2018-11-18T10:16:34Z</time>
      </trkpt>
      <trkpt lat="48.42675" lon="2.72214">
        <ele>130.5</ele>
        <time>2018-11-18T10:16:35Z</time>
      </trkpt>
      <trkpt lat="48.42677" lon="2.72214">
        <ele>130.6</ele>
        <time>2018-11-18T10:16:36Z</time>
      </trkpt>
      <trkpt lat="48.42679" lon="2.72214">
        <ele>130.6</ele>
        <time>2018-11-18T10:16:37Z</time>
      </trkpt>
      <trkpt lat="48.4268" lon="2.72214">
        <ele>130.6</ele>
        <time>2018-11-18T10:16:38Z</time>
      </trkpt>
      <trkpt lat="48.42682" lon="2.72215">
        <ele>130.6</ele>
        <time>2018-11-18T10:16:39Z</time>
      </trkpt>
      <trkpt lat="48.42684" lon="2.72216">
        <ele>130.7</ele>
        <time>2018-11-18T10:16:40Z</time>
      </trkpt>
      <trkpt lat="48.42686" lon="2.72216">
        <ele>130.3</ele>
        <time>2018-11-18T10:16:41Z</time>
      </trkpt>
      <trkpt lat="48.42689" lon="2.72216">
        <ele>130.4</ele>
        <time>2018-11-18T10:16:42Z</time>
      </trkpt>
      <trkpt lat="48.4269" lon="2.72216">
        <ele>130.8</ele>
        <time>2018-11-18T10:16:43Z</time>
      </trkpt>
      <trkpt lat="48.42692" lon="2.72216">
        <ele>130.4</ele>
        <time>2018-11-18T10:16:44Z</time>
      </trkpt>
      <trkpt lat="48.42694" lon="2.72217">
        <ele>130.5</ele>
        <time>2018-11-18T10:16:45Z</time>
      </trkpt>
      <trkpt lat="48.42696" lon="2.72216">
        <ele>130.9</ele>
        <time>2018-11-18T10:16:46Z</time>
      </trkpt>
      <trkpt lat="48.42698" lon="2.72215">
        <ele>130.9</ele>
        <time>2018-11-18T10:16:47Z</time>
      </trkpt>
      <trkpt lat="48.42699" lon="2.72215">
        <ele>130.9</ele>
        <time>2018-11-18T10:16:48Z</time>
      </trkpt>
      <trkpt lat="48.42701" lon="2.72214">
        <ele>131</ele>
        <time>2018-11-18T10:16:49Z</time>
      </trkpt>
      <trkpt lat="48.42705" lon="2.72214">
        <ele>131</ele>
        <time>2018-11-18T10:16:50Z</time>
      </trkpt>
      <trkpt lat="48.42709" lon="2.72214">
        <ele>131</ele>
        <time>2018-11-18T10:16:51Z</time>
      </trkpt>
      <trkpt lat="48.42714" lon="2.72213">
        <ele>131</ele>
        <time>2018-11-18T10:16:52Z</time>
      </trkpt>
      <trkpt lat="48.42718" lon="2.72212">
        <ele>131</ele>
        <time>2018-11-18T10:16:53Z</time>
      </trkpt>
      <trkpt lat="48.42722" lon="2.72211">
        <ele>131.4</ele>
        <time>2018-11-18T10:16:54Z</time>
      </trkpt>
      <trkpt lat="48.42725" lon="2.72209">
        <ele>131.3</ele>
        <time>2018-11-18T10:16:55Z</time>
      </trkpt>
      <trkpt lat="48.42728" lon="2.72207">
        <ele>131.7</ele>
        <time>2018-11-18T10:16:56Z</time>
      </trkpt>
      <trkpt lat="48.42732" lon="2.72206">
        <ele>131.7</ele>
        <time>2018-11-18T10:16:57Z</time>
      </trkpt>
      <trkpt lat="48.42735" lon="2.72207">
        <ele>131.7</ele>
        <time>2018-11-18T10:16:58Z</time>
      </trkpt>
      <trkpt lat="48.42738" lon="2.72208">
        <ele>131.2</ele>
        <time>2018-11-18T10:16:59Z</time>
      </trkpt>
      <trkpt lat="48.42741" lon="2.72211">
        <ele>131.2</ele>
        <time>2018-11-18T10:17:00Z</time>
      </trkpt>
      <trkpt lat="48.42744" lon="2.72213">
        <ele>130.7</ele>
        <time>2018-11-18T10:17:01Z</time>
      </trkpt>
      <trkpt lat="48.42746" lon="2.72215">
        <ele>130.7</ele>
        <time>2018-11-18T10:17:02Z</time>
      </trkpt>
      <trkpt lat="48.42749" lon="2.72216">
        <ele>130.7</ele>
        <time>2018-11-18T10:17:03Z</time>
      </trkpt>
      <trkpt lat="48.42751" lon="2.72217">
        <ele>130.3</ele>
        <time>2018-11-18T10:17:04Z</time>
      </trkpt>
      <trkpt lat="48.42753" lon="2.72217">
        <ele>130.3</ele>
        <time>2018-11-18T10:17:05Z</time>
      </trkpt>
      <trkpt lat="48.42756" lon="2.72218">
        <ele>130.2</ele>
        <time>2018-11-18T10:17:06Z</time>
      </trkpt>
      <trkpt lat="48.42759" lon="2.72218">
        <ele>130.2</ele>
        <time>2018-11-18T10:17:07Z</time>
      </trkpt>
      <trkpt lat="48.42762" lon="2.72217">
        <ele>130.2</ele>
        <time>2018-11-18T10:17:08Z</time>
      </trkpt>
      <trkpt lat="48.42764" lon="2.72216">
        <ele>130.6</ele>
        <time>2018-11-18T10:17:09Z</time>
      </trkpt>
      <trkpt lat="48.42766" lon="2.72215">
        <ele>130.6</ele>
        <time>2018-11-18T10:17:10Z</time>
      </trkpt>
      <trkpt lat="48.42768" lon="2.72212">
        <ele>130.5</ele>
        <time>2018-11-18T10:17:11Z</time>
      </trkpt>
      <trkpt lat="48.4277" lon="2.7221">
        <ele>130.9</ele>
        <time>2018-11-18T10:17:12Z</time>
      </trkpt>
      <trkpt lat="48.42772" lon="2.72207">
        <ele>131.4</ele>
        <time>2018-11-18T10:17:13Z</time>
      </trkpt>
      <trkpt lat="48.42773" lon="2.72204">
        <ele>131.3</ele>
        <time>2018-11-18T10:17:14Z</time>
      </trkpt>
      <trkpt lat="48.42774" lon="2.722">
        <ele>131.8</ele>
        <time>2018-11-18T10:17:15Z</time>
      </trkpt>
      <trkpt lat="48.42774" lon="2.72197">
        <ele>132.2</ele>
        <time>2018-11-18T10:17:16Z</time>
      </trkpt>
      <trkpt lat="48.42775" lon="2.72193">
        <ele>132.7</ele>
        <time>2018-11-18T10:17:17Z</time>
      </trkpt>
      <trkpt lat="48.42776" lon="2.72189">
        <ele>133.2</ele>
        <time>2018-11-18T10:17:18Z</time>
      </trkpt>
      <trkpt lat="48.42777" lon="2.72185">
        <ele>133.7</ele>
        <time>2018-11-18T10:17:19Z</time>
      </trkpt>
      <trkpt lat="48.42779" lon="2.7218">
        <ele>134.1</ele>
        <time>2018-11-18T10:17:20Z</time>
      </trkpt>
      <trkpt lat="48.42781" lon="2.72175">
        <ele>134.5</ele>
        <time>2018-11-18T10:17:21Z</time>
      </trkpt>
      <trkpt lat="48.42782" lon="2.7217">
        <ele>135</ele>
        <time>2018-11-18T10:17:22Z</time>
      </trkpt>
      <trkpt lat="48.42783" lon="2.72166">
        <ele>135.4</ele>
        <time>2018-11-18T10:17:23Z</time>
      </trkpt>
      <trkpt lat="48.42783" lon="2.72163">
        <ele>135.9</ele>
        <time>2018-11-18T10:17:24Z</time>
      </trkpt>
      <trkpt lat="48.42785" lon="2.72162">
        <ele>135.7</ele>
        <time>2018-11-18T10:17:25Z</time>
      </trkpt>
      <trkpt lat="48.42787" lon="2.72163">
        <ele>135.6</ele>
        <time>2018-11-18T10:17:26Z</time>
      </trkpt>
      <trkpt lat="48.42788" lon="2.72165">
        <ele>135.2</ele>
        <time>2018-11-18T10:17:27Z</time>
      </trkpt>
      <trkpt lat="48.42789" lon="2.72167">
        <ele>135</ele>
        <time>2018-11-18T10:17:28Z</time>
      </trkpt>
      <trkpt lat="48.42791" lon="2.72169">
        <ele>135</ele>
        <time>2018-11-18T10:17:29Z</time>
      </trkpt>
      <trkpt lat="48.42793" lon="2.7217">
        <ele>134.6</ele>
        <time>2018-11-18T10:17:30Z</time>
      </trkpt>
      <trkpt lat="48.42796" lon="2.72172">
        <ele>134.5</ele>
        <time>2018-11-18T10:17:31Z</time>
      </trkpt>
      <trkpt lat="48.42798" lon="2.72176">
        <ele>134.2</ele>
        <time>2018-11-18T10:17:32Z</time>
      </trkpt>
      <trkpt lat="48.42801" lon="2.72179">
        <ele>133.9</ele>
        <time>2018-11-18T10:17:33Z</time>
      </trkpt>
      <trkpt lat="48.42804" lon="2.72182">
        <ele>133.7</ele>
        <time>2018-11-18T10:17:34Z</time>
      </trkpt>
      <trkpt lat="48.42807" lon="2.72186">
        <ele>133.8</ele>
        <time>2018-11-18T10:17:35Z</time>
      </trkpt>
      <trkpt lat="48.4281" lon="2.7219">
        <ele>133.7</ele>
        <time>2018-11-18T10:17:36Z</time>
      </trkpt>
      <trkpt lat="48.42812" lon="2.72194">
        <ele>133.6</ele>
        <time>2018-11-18T10:17:37Z</time>
      </trkpt>
      <trkpt lat="48.42815" lon="2.72197">
        <ele>133.3</ele>
        <time>2018-11-18T10:17:38Z</time>
      </trkpt>
      <trkpt lat="48.42816" lon="2.72201">
        <ele>133.3</ele>
        <time>2018-11-18T10:17:39Z</time>
      </trkpt>
      <trkpt lat="48.42817" lon="2.72204">
        <ele>133.3</ele>
        <time>2018-11-18T10:17:40Z</time>
      </trkpt>
      <trkpt lat="48.42818" lon="2.72209">
        <ele>133.3</ele>
        <time>2018-11-18T10:17:41Z</time>
      </trkpt>
      <trkpt lat="48.42819" lon="2.72212">
        <ele>133.3</ele>
        <time>2018-11-18T10:17:42Z</time>
      </trkpt>
      <trkpt lat="48.42819" lon="2.72217">
        <ele>133.1</ele>
        <time>2018-11-18T10:17:43Z</time>
      </trkpt>
      <trkpt lat="48.42821" lon="2.72221">
        <ele>133</ele>
        <time>2018-11-18T10:17:44Z</time>
      </trkpt>
      <trkpt lat="48.42822" lon="2.72226">
        <ele>132.8</ele>
        <time>2018-11-18T10:17:45Z</time>
      </trkpt>
      <trkpt lat="48.42822" lon="2.72231">
        <ele>132.5</ele>
        <time>2018-11-18T10:17:46Z</time>
      </trkpt>
      <trkpt lat="48.42823" lon="2.72235">
        <ele>132.2</ele>
        <time>2018-11-18T10:17:47Z</time>
      </trkpt>
      <trkpt lat="48.42823" lon="2.72239">
        <ele>131.9</ele>
        <time>2018-11-18T10:17:48Z</time>
      </trkpt>
      <trkpt lat="48.42823" lon="2.72244">
        <ele>131.5</ele>
        <time>2018-11-18T10:17:49Z</time>
      </trkpt>
      <trkpt lat="48.42824" lon="2.72248">
        <ele>131.1</ele>
        <time>2018-11-18T10:17:50Z</time>
      </trkpt>
      <trkpt lat="48.42824" lon="2.72254">
        <ele>130.7</ele>
        <time>2018-11-18T10:17:51Z</time>
      </trkpt>
      <trkpt lat="48.42824" lon="2.7226">
        <ele>130.2</ele>
        <time>2018-11-18T10:17:52Z</time>
      </trkpt>
      <trkpt lat="48.42824" lon="2.72266">
        <ele>129.8</ele>
        <time>2018-11-18T10:17:53Z</time>
      </trkpt>
      <trkpt lat="48.42824" lon="2.72272">
        <ele>129.4</ele>
        <time>2018-11-18T10:17:54Z</time>
      </trkpt>
      <trkpt lat="48.42824" lon="2.72278">
        <ele>129.1</ele>
        <time>2018-11-18T10:17:55Z</time>
      </trkpt>
      <trkpt lat="48.42824" lon="2.72285">
        <ele>128.7</ele>
        <time>2018-11-18T10:17:56Z</time>
      </trkpt>
      <trkpt lat="48.42824" lon="2.72291">
        <ele>128.4</ele>
        <time>2018-11-18T10:17:57Z</time>
      </trkpt>
      <trkpt lat="48.42825" lon="2.72297">
        <ele>128.2</ele>
        <time>2018-11-18T10:17:58Z</time>
      </trkpt>
      <trkpt lat="48.42825" lon="2.72303">
        <ele>127.9</ele>
        <time>2018-11-18T10:17:59Z</time>
      </trkpt>
      <trkpt lat="48.42825" lon="2.72309">
        <ele>127.6</ele>
        <time>2018-11-18T10:18:00Z</time>
      </trkpt>
      <trkpt lat="48.42825" lon="2.72317">
        <ele>127.4</ele>
        <time>2018-11-18T10:18:01Z</time>
      </trkpt>
      <trkpt lat="48.42826" lon="2.72325">
        <ele>127.3</ele>
        <time>2018-11-18T10:18:02Z</time>
      </trkpt>
      <trkpt lat="48.42826" lon="2.72333">
        <ele>127.1</ele>
        <time>2018-11-18T10:18:03Z</time>
      </trkpt>
      <trkpt lat="48.42827" lon="2.7234">
        <ele>127</ele>
        <time>2018-11-18T10:18:04Z</time>
      </trkpt>
      <trkpt lat="48.42827" lon="2.72349">
        <ele>126.9</ele>
        <time>2018-11-18T10:18:05Z</time>
      </trkpt>
      <trkpt lat="48.42828" lon="2.72357">
        <ele>126.6</ele>
        <time>2018-11-18T10:18:06Z</time>
      </trkpt>
      <trkpt lat="48.42828" lon="2.72365">
        <ele>126.4</ele>
        <time>2018-11-18T10:18:07Z</time>
      </trkpt>
      <trkpt lat="48.42828" lon="2.72373">
        <ele>126</ele>
        <time>2018-11-18T10:18:08Z</time>
      </trkpt>
      <trkpt lat="48.42828" lon="2.72381">
        <ele>125.7</ele>
        <time>2018-11-18T10:18:09Z</time>
      </trkpt>
      <trkpt lat="48.42828" lon="2.72389">
        <ele>125.3</ele>
        <time>2018-11-18T10:18:10Z</time>
      </trkpt>
      <trkpt lat="48.42828" lon="2.72397">
        <ele>124.9</ele>
        <time>2018-11-18T10:18:11Z</time>
      </trkpt>
      <trkpt lat="48.42828" lon="2.72404">
        <ele>124.6</ele>
        <time>2018-11-18T10:18:12Z</time>
      </trkpt>
      <trkpt lat="48.42828" lon="2.72412">
        <ele>124.3</ele>
        <time>2018-11-18T10:18:13Z</time>
      </trkpt>
      <trkpt lat="48.42828" lon="2.72419">
        <ele>124</ele>
        <time>2018-11-18T10:18:14Z</time>
      </trkpt>
      <trkpt lat="48.42828" lon="2.72427">
        <ele>123.6</ele>
        <time>2018-11-18T10:18:15Z</time>
      </trkpt>
      <trkpt lat="48.42829" lon="2.72434">
        <ele>123.4</ele>
        <time>2018-11-18T10:18:16Z</time>
      </trkpt>
      <trkpt lat="48.42829" lon="2.72439">
        <ele>123.2</ele>
        <time>2018-11-18T10:18:17Z</time>
      </trkpt>
      <trkpt lat="48.42829" lon="2.72445">
        <ele>123.1</ele>
        <time>2018-11-18T10:18:18Z</time>
      </trkpt>
      <trkpt lat="48.4283" lon="2.7245">
        <ele>123</ele>
        <time>2018-11-18T10:18:19Z</time>
      </trkpt>
      <trkpt lat="48.4283" lon="2.72457">
        <ele>122.9</ele>
        <time>2018-11-18T10:18:20Z</time>
      </trkpt>
      <trkpt lat="48.42829" lon="2.72464">
        <ele>122.7</ele>
        <time>2018-11-18T10:18:21Z</time>
      </trkpt>
      <trkpt lat="48.42829" lon="2.7247">
        <ele>122.6</ele>
        <time>2018-11-18T10:18:22Z</time>
      </trkpt>
      <trkpt lat="48.42829" lon="2.72476">
        <ele>122.5</ele>
        <time>2018-11-18T10:18:23Z</time>
      </trkpt>
      <trkpt lat="48.4283" lon="2.72483">
        <ele>122.3</ele>
        <time>2018-11-18T10:18:24Z</time>
      </trkpt>
      <trkpt lat="48.4283" lon="2.72489">
        <ele>122</ele>
        <time>2018-11-18T10:18:25Z</time>
      </trkpt>
      <trkpt lat="48.4283" lon="2.72496">
        <ele>121.8</ele>
        <time>2018-11-18T10:18:26Z</time>
      </trkpt>
      <trkpt lat="48.42831" lon="2.72502">
        <ele>121.5</ele>
        <time>2018-11-18T10:18:27Z</time>
      </trkpt>
      <trkpt lat="48.42831" lon="2.7251">
        <ele>121.2</ele>
        <time>2018-11-18T10:18:28Z</time>
      </trkpt>
      <trkpt lat="48.42831" lon="2.72516">
        <ele>120.9</ele>
        <time>2018-11-18T10:18:29Z</time>
      </trkpt>
      <trkpt lat="48.42831" lon="2.72523">
        <ele>120.5</ele>
        <time>2018-11-18T10:18:30Z</time>
      </trkpt>
      <trkpt lat="48.42831" lon="2.72529">
        <ele>120.1</ele>
        <time>2018-11-18T10:18:31Z</time>
      </trkpt>
      <trkpt lat="48.42831" lon="2.72536">
        <ele>119.6</ele>
        <time>2018-11-18T10:18:32Z</time>
      </trkpt>
      <trkpt lat="48.42832" lon="2.72542">
        <ele>119.1</ele>
        <time>2018-11-18T10:18:33Z</time>
      </trkpt>
      <trkpt lat="48.42832" lon="2.72549">
        <ele>118.6</ele>
        <time>2018-11-18T10:18:34Z</time>
      </trkpt>
      <trkpt lat="48.42832" lon="2.72556">
        <ele>118</ele>
        <time>2018-11-18T10:18:35Z</time>
      </trkpt>
      <trkpt lat="48.42832" lon="2.72561">
        <ele>117.5</ele>
        <time>2018-11-18T10:18:36Z</time>
      </trkpt>
      <trkpt lat="48.42833" lon="2.72567">
        <ele>117</ele>
        <time>2018-11-18T10:18:37Z</time>
      </trkpt>
      <trkpt lat="48.42834" lon="2.72573">
        <ele>116.4</ele>
        <time>2018-11-18T10:18:38Z</time>
      </trkpt>
      <trkpt lat="48.42836" lon="2.72578">
        <ele>115.9</ele>
        <time>2018-11-18T10:18:39Z</time>
      </trkpt>
      <trkpt lat="48.42838" lon="2.72582">
        <ele>115.4</ele>
        <time>2018-11-18T10:18:40Z</time>
      </trkpt>
      <trkpt lat="48.42841" lon="2.72586">
        <ele>113.1</ele>
        <time>2018-11-18T10:18:41Z</time>
      </trkpt>
      <trkpt lat="48.42844" lon="2.72589">
        <ele>113.2</ele>
        <time>2018-11-18T10:18:42Z</time>
      </trkpt>
      <trkpt lat="48.42847" lon="2.72592">
        <ele>113.3</ele>
        <time>2018-11-18T10:18:43Z</time>
      </trkpt>
      <trkpt lat="48.4285" lon="2.72595">
        <ele>113.4</ele>
        <time>2018-11-18T10:18:44Z</time>
      </trkpt>
      <trkpt lat="48.42852" lon="2.72596">
        <ele>113.5</ele>
        <time>2018-11-18T10:18:45Z</time>
      </trkpt>
      <trkpt lat="48.42854" lon="2.72597">
        <ele>113.6</ele>
        <time>2018-11-18T10:18:46Z</time>
      </trkpt>
      <trkpt lat="48.42856" lon="2.72597">
        <ele>113.6</ele>
        <time>2018-11-18T10:18:47Z</time>
      </trkpt>
      <trkpt lat="48.42859" lon="2.72597">
        <ele>113.7</ele>
        <time>2018-11-18T10:18:48Z</time>
      </trkpt>
      <trkpt lat="48.42862" lon="2.72596">
        <ele>113.8</ele>
        <time>2018-11-18T10:18:49Z</time>
      </trkpt>
      <trkpt lat="48.42865" lon="2.72596">
        <ele>113.9</ele>
        <time>2018-11-18T10:18:50Z</time>
      </trkpt>
      <trkpt lat="48.42868" lon="2.72595">
        <ele>114</ele>
        <time>2018-11-18T10:18:51Z</time>
      </trkpt>
      <trkpt lat="48.4287" lon="2.72596">
        <ele>114.1</ele>
        <time>2018-11-18T10:18:52Z</time>
      </trkpt>
      <trkpt lat="48.42873" lon="2.72596">
        <ele>114.2</ele>
        <time>2018-11-18T10:18:53Z</time>
      </trkpt>
      <trkpt lat="48.42877" lon="2.72596">
        <ele>114.3</ele>
        <time>2018-11-18T10:18:54Z</time>
      </trkpt>
      <trkpt lat="48.4288" lon="2.72595">
        <ele>114.5</ele>
        <time>2018-11-18T10:18:55Z</time>
      </trkpt>
      <trkpt lat="48.42883" lon="2.72594">
        <ele>114.6</ele>
        <time>2018-11-18T10:18:56Z</time>
      </trkpt>
      <trkpt lat="48.42886" lon="2.72594">
        <ele>114.7</ele>
        <time>2018-11-18T10:18:57Z</time>
      </trkpt>
      <trkpt lat="48.4289" lon="2.72594">
        <ele>114.9</ele>
        <time>2018-11-18T10:18:58Z</time>
      </trkpt>
      <trkpt lat="48.42892" lon="2.72593">
        <ele>115</ele>
        <time>2018-11-18T10:18:59Z</time>
      </trkpt>
      <trkpt lat="48.42895" lon="2.72593">
        <ele>115</ele>
        <time>2018-11-18T10:19:00Z</time>
      </trkpt>
      <trkpt lat="48.42898" lon="2.72593">
        <ele>115.1</ele>
        <time>2018-11-18T10:19:01Z</time>
      </trkpt>
      <trkpt lat="48.42901" lon="2.72592">
        <ele>115.2</ele>
        <time>2018-11-18T10:19:02Z</time>
      </trkpt>
      <trkpt lat="48.42905" lon="2.72592">
        <ele>115.4</ele>
        <time>2018-11-18T10:19:03Z</time>
      </trkpt>
      <trkpt lat="48.4291" lon="2.72592">
        <ele>115.5</ele>
        <time>2018-11-18T10:19:04Z</time>
      </trkpt>
      <trkpt lat="48.42913" lon="2.72593">
        <ele>115.7</ele>
        <time>2018-11-18T10:19:05Z</time>
      </trkpt>
      <trkpt lat="48.42917" lon="2.72592">
        <ele>115.8</ele>
        <time>2018-11-18T10:19:06Z</time>
      </trkpt>
      <trkpt lat="48.42921" lon="2.72591">
        <ele>115.9</ele>
        <time>2018-11-18T10:19:07Z</time>
      </trkpt>
      <trkpt lat="48.42925" lon="2.7259">
        <ele>115.9</ele>
        <time>2018-11-18T10:19:08Z</time>
      </trkpt>
      <trkpt lat="48.42928" lon="2.72589">
        <ele>116</ele>
        <time>2018-11-18T10:19:09Z</time>
      </trkpt>
      <trkpt lat="48.42931" lon="2.72588">
        <ele>116.1</ele>
        <time>2018-11-18T10:19:10Z</time>
      </trkpt>
      <trkpt lat="48.42935" lon="2.72587">
        <ele>116.2</ele>
        <time>2018-11-18T10:19:11Z</time>
      </trkpt>
      <trkpt lat="48.42938" lon="2.72587">
        <ele>116.3</ele>
        <time>2018-11-18T10:19:12Z</time>
      </trkpt>
      <trkpt lat="48.42941" lon="2.72587">
        <ele>116.3</ele>
        <time>2018-11-18T10:19:13Z</time>
      </trkpt>
      <trkpt lat="48.42945" lon="2.72587">
        <ele>116.4</ele>
        <time>2018-11-18T10:19:14Z</time>
      </trkpt>
      <trkpt lat="48.42949" lon="2.72586">
        <ele>116.5</ele>
        <time>2018-11-18T10:19:15Z</time>
      </trkpt>
      <trkpt lat="48.42953" lon="2.72586">
        <ele>116.6</ele>
        <time>2018-11-18T10:19:16Z</time>
      </trkpt>
      <trkpt lat="48.42958" lon="2.72586">
        <ele>116.8</ele>
        <time>2018-11-18T10:19:17Z</time>
      </trkpt>
      <trkpt lat="48.42961" lon="2.72587">
        <ele>116.9</ele>
        <time>2018-11-18T10:19:18Z</time>
      </trkpt>
      <trkpt lat="48.42965" lon="2.72587">
        <ele>117.1</ele>
        <time>2018-11-18T10:19:19Z</time>
      </trkpt>
      <trkpt lat="48.42969" lon="2.72588">
        <ele>117.2</ele>
        <time>2018-11-18T10:19:20Z</time>
      </trkpt>
      <trkpt lat="48.42972" lon="2.72589">
        <ele>117.3</ele>
        <time>2018-11-18T10:19:21Z</time>
      </trkpt>
      <trkpt lat="48.42975" lon="2.72589">
        <ele>117.3</ele>
        <time>2018-11-18T10:19:22Z</time>
      </trkpt>
      <trkpt lat="48.42978" lon="2.72589">
        <ele>117.4</ele>
        <time>2018-11-18T10:19:23Z</time>
      </trkpt>
      <trkpt lat="48.42981" lon="2.72588">
        <ele>117.5</ele>
        <time>2018-11-18T10:19:24Z</time>
      </trkpt>
      <trkpt lat="48.42984" lon="2.72588">
        <ele>117.5</ele>
        <time>2018-11-18T10:19:25Z</time>
      </trkpt>
      <trkpt lat="48.42986" lon="2.72588">
        <ele>117.6</ele>
        <time>2018-11-18T10:19:26Z</time>
      </trkpt>
      <trkpt lat="48.42989" lon="2.72587">
        <ele>117.7</ele>
        <time>2018-11-18T10:19:27Z</time>
      </trkpt>
      <trkpt lat="48.42991" lon="2.72588">
        <ele>117.8</ele>
        <time>2018-11-18T10:19:28Z</time>
      </trkpt>
      <trkpt lat="48.42994" lon="2.72589">
        <ele>117.9</ele>
        <time>2018-11-18T10:19:29Z</time>
      </trkpt>
      <trkpt lat="48.42997" lon="2.72589">
        <ele>118</ele>
        <time>2018-11-18T10:19:30Z</time>
      </trkpt>
      <trkpt lat="48.43" lon="2.72589">
        <ele>118.1</ele>
        <time>2018-11-18T10:19:31Z</time>
      </trkpt>
      <trkpt lat="48.43003" lon="2.72589">
        <ele>118.2</ele>
        <time>2018-11-18T10:19:32Z</time>
      </trkpt>
      <trkpt lat="48.43005" lon="2.72589">
        <ele>118.3</ele>
        <time>2018-11-18T10:19:33Z</time>
      </trkpt>
      <trkpt lat="48.43008" lon="2.72589">
        <ele>118.4</ele>
        <time>2018-11-18T10:19:34Z</time>
      </trkpt>
      <trkpt lat="48.43011" lon="2.72589">
        <ele>118.4</ele>
        <time>2018-11-18T10:19:35Z</time>
      </trkpt>
      <trkpt lat="48.43014" lon="2.72589">
        <ele>118.5</ele>
        <time>2018-11-18T10:19:36Z</time>
      </trkpt>
      <trkpt lat="48.43017" lon="2.72589">
        <ele>118.6</ele>
        <time>2018-11-18T10:19:37Z</time>
      </trkpt>
      <trkpt lat="48.4302" lon="2.72589">
        <ele>118.7</ele>
        <time>2018-11-18T10:19:38Z</time>
      </trkpt>
      <trkpt lat="48.43023" lon="2.72589">
        <ele>118.8</ele>
        <time>2018-11-18T10:19:39Z</time>
      </trkpt>
      <trkpt lat="48.43026" lon="2.72588">
        <ele>118.9</ele>
        <time>2018-11-18T10:19:40Z</time>
      </trkpt>
      <trkpt lat="48.4303" lon="2.72587">
        <ele>118.9</ele>
        <time>2018-11-18T10:19:41Z</time>
      </trkpt>
      <trkpt lat="48.43032" lon="2.72586">
        <ele>119</ele>
        <time>2018-11-18T10:19:42Z</time>
      </trkpt>
      <trkpt lat="48.43035" lon="2.72585">
        <ele>119.1</ele>
        <time>2018-11-18T10:19:43Z</time>
      </trkpt>
      <trkpt lat="48.43036" lon="2.72585">
        <ele>119.1</ele>
        <time>2018-11-18T10:19:44Z</time>
      </trkpt>
      <trkpt lat="48.43038" lon="2.72584">
        <ele>119.1</ele>
        <time>2018-11-18T10:19:45Z</time>
      </trkpt>
      <trkpt lat="48.43039" lon="2.72585">
        <ele>119.2</ele>
        <time>2018-11-18T10:19:46Z</time>
      </trkpt>
      <trkpt lat="48.43041" lon="2.72584">
        <ele>119.2</ele>
        <time>2018-11-18T10:19:47Z</time>
      </trkpt>
      <trkpt lat="48.43044" lon="2.72584">
        <ele>119.3</ele>
        <time>2018-11-18T10:19:48Z</time>
      </trkpt>
      <trkpt lat="48.43046" lon="2.72584">
        <ele>119.3</ele>
        <time>2018-11-18T10:19:49Z</time>
      </trkpt>
      <trkpt lat="48.4305" lon="2.72584">
        <ele>119.4</ele>
        <time>2018-11-18T10:19:50Z</time>
      </trkpt>
      <trkpt lat="48.43054" lon="2.72585">
        <ele>119.5</ele>
        <time>2018-11-18T10:19:51Z</time>
      </trkpt>
      <trkpt lat="48.43058" lon="2.72585">
        <ele>119.6</ele>
        <time>2018-11-18T10:19:52Z</time>
      </trkpt>
      <trkpt lat="48.43061" lon="2.72584">
        <ele>119.6</ele>
        <time>2018-11-18T10:19:53Z</time>
      </trkpt>
      <trkpt lat="48.43065" lon="2.72583">
        <ele>119.7</ele>
        <time>2018-11-18T10:19:54Z</time>
      </trkpt>
      <trkpt lat="48.43068" lon="2.72582">
        <ele>119.7</ele>
        <time>2018-11-18T10:19:55Z</time>
      </trkpt>
      <trkpt lat="48.43072" lon="2.72581">
        <ele>119.8</ele>
        <time>2018-11-18T10:19:56Z</time>
      </trkpt>
      <trkpt lat="48.43075" lon="2.72581">
        <ele>119.8</ele>
        <time>2018-11-18T10:19:57Z</time>
      </trkpt>
      <trkpt lat="48.43078" lon="2.72581">
        <ele>119.8</ele>
        <time>2018-11-18T10:19:58Z</time>
      </trkpt>
      <trkpt lat="48.43081" lon="2.72582">
        <ele>119.9</ele>
        <time>2018-11-18T10:19:59Z</time>
      </trkpt>
      <trkpt lat="48.43084" lon="2.72581">
        <ele>119.9</ele>
        <time>2018-11-18T10:20:00Z</time>
      </trkpt>
      <trkpt lat="48.43087" lon="2.7258">
        <ele>119.9</ele>
        <time>2018-11-18T10:20:01Z</time>
      </trkpt>
      <trkpt lat="48.4309" lon="2.72579">
        <ele>119.9</ele>
        <time>2018-11-18T10:20:02Z</time>
      </trkpt>
      <trkpt lat="48.43093" lon="2.72579">
        <ele>119.9</ele>
        <time>2018-11-18T10:20:03Z</time>
      </trkpt>
      <trkpt lat="48.43096" lon="2.72579">
        <ele>119.9</ele>
        <time>2018-11-18T10:20:04Z</time>
      </trkpt>
      <trkpt lat="48.43098" lon="2.72578">
        <ele>119.9</ele>
        <time>2018-11-18T10:20:05Z</time>
      </trkpt>
      <trkpt lat="48.43101" lon="2.72578">
        <ele>119.9</ele>
        <time>2018-11-18T10:20:06Z</time>
      </trkpt>
      <trkpt lat="48.43105" lon="2.72578">
        <ele>119.9</ele>
        <time>2018-11-18T10:20:07Z</time>
      </trkpt>
      <trkpt lat="48.43108" lon="2.72578">
        <ele>119.9</ele>
        <time>2018-11-18T10:20:08Z</time>
      </trkpt>
      <trkpt lat="48.43112" lon="2.72578">
        <ele>119.8</ele>
        <time>2018-11-18T10:20:09Z</time>
      </trkpt>
      <trkpt lat="48.43116" lon="2.72578">
        <ele>119.8</ele>
        <time>2018-11-18T10:20:10Z</time>
      </trkpt>
      <trkpt lat="48.4312" lon="2.72577">
        <ele>119.8</ele>
        <time>2018-11-18T10:20:11Z</time>
      </trkpt>
      <trkpt lat="48.43123" lon="2.72577">
        <ele>119.7</ele>
        <time>2018-11-18T10:20:12Z</time>
      </trkpt>
      <trkpt lat="48.43127" lon="2.72577">
        <ele>119.7</ele>
        <time>2018-11-18T10:20:13Z</time>
      </trkpt>
      <trkpt lat="48.4313" lon="2.72578">
        <ele>119.6</ele>
        <time>2018-11-18T10:20:14Z</time>
      </trkpt>
      <trkpt lat="48.43134" lon="2.72579">
        <ele>119.6</ele>
        <time>2018-11-18T10:20:15Z</time>
      </trkpt>
      <trkpt lat="48.43138" lon="2.72578">
        <ele>119.4</ele>
        <time>2018-11-18T10:20:16Z</time>
      </trkpt>
      <trkpt lat="48.43142" lon="2.72577">
        <ele>119.3</ele>
        <time>2018-11-18T10:20:17Z</time>
      </trkpt>
      <trkpt lat="48.43146" lon="2.72575">
        <ele>119.2</ele>
        <time>2018-11-18T10:20:18Z</time>
      </trkpt>
      <trkpt lat="48.43149" lon="2.72573">
        <ele>119.1</ele>
        <time>2018-11-18T10:20:19Z</time>
      </trkpt>
      <trkpt lat="48.43152" lon="2.72571">
        <ele>119</ele>
        <time>2018-11-18T10:20:20Z</time>
      </trkpt>
      <trkpt lat="48.43156" lon="2.72571">
        <ele>119</ele>
        <time>2018-11-18T10:20:21Z</time>
      </trkpt>
      <trkpt lat="48.4316" lon="2.72572">
        <ele>118.9</ele>
        <time>2018-11-18T10:20:22Z</time>
      </trkpt>
      <trkpt lat="48.43164" lon="2.72575">
        <ele>118.7</ele>
        <time>2018-11-18T10:20:23Z</time>
      </trkpt>
      <trkpt lat="48.43169" lon="2.72578">
        <ele>118.6</ele>
        <time>2018-11-18T10:20:24Z</time>
      </trkpt>
      <trkpt lat="48.43173" lon="2.72582">
        <ele>118.5</ele>
        <time>2018-11-18T10:20:25Z</time>
      </trkpt>
      <trkpt lat="48.43178" lon="2.72586">
        <ele>118.3</ele>
        <time>2018-11-18T10:20:26Z</time>
      </trkpt>
      <trkpt lat="48.43182" lon="2.72588">
        <ele>117.7</ele>
        <time>2018-11-18T10:20:27Z</time>
      </trkpt>
      <trkpt lat="48.43186" lon="2.7259">
        <ele>117.4</ele>
        <time>2018-11-18T10:20:28Z</time>
      </trkpt>
      <trkpt lat="48.43189" lon="2.72592">
        <ele>117.2</ele>
        <time>2018-11-18T10:20:29Z</time>
      </trkpt>
      <trkpt lat="48.43191" lon="2.72593">
        <ele>117</ele>
        <time>2018-11-18T10:20:30Z</time>
      </trkpt>
      <trkpt lat="48.43193" lon="2.72594">
        <ele>116.9</ele>
        <time>2018-11-18T10:20:31Z</time>
      </trkpt>
      <trkpt lat="48.43194" lon="2.72594">
        <ele>116.8</ele>
        <time>2018-11-18T10:20:32Z</time>
      </trkpt>
      <trkpt lat="48.43196" lon="2.72594">
        <ele>116.7</ele>
        <time>2018-11-18T10:20:33Z</time>
      </trkpt>
      <trkpt lat="48.43199" lon="2.72594">
        <ele>116.6</ele>
        <time>2018-11-18T10:20:34Z</time>
      </trkpt>
      <trkpt lat="48.43201" lon="2.72594">
        <ele>116.5</ele>
        <time>2018-11-18T10:20:35Z</time>
      </trkpt>
      <trkpt lat="48.43203" lon="2.72594">
        <ele>116.4</ele>
        <time>2018-11-18T10:20:36Z</time>
      </trkpt>
      <trkpt lat="48.43205" lon="2.72594">
        <ele>116.3</ele>
        <time>2018-11-18T10:20:37Z</time>
      </trkpt>
      <trkpt lat="48.43208" lon="2.72593">
        <ele>116.2</ele>
        <time>2018-11-18T10:20:38Z</time>
      </trkpt>
      <trkpt lat="48.43211" lon="2.72592">
        <ele>116.1</ele>
        <time>2018-11-18T10:20:39Z</time>
      </trkpt>
      <trkpt lat="48.43214" lon="2.72591">
        <ele>116.1</ele>
        <time>2018-11-18T10:20:40Z</time>
      </trkpt>
      <trkpt lat="48.43217" lon="2.72591">
        <ele>116.1</ele>
        <time>2018-11-18T10:20:41Z</time>
      </trkpt>
      <trkpt lat="48.43219" lon="2.72592">
        <ele>116</ele>
        <time>2018-11-18T10:20:42Z</time>
      </trkpt>
      <trkpt lat="48.43222" lon="2.72593">
        <ele>116</ele>
        <time>2018-11-18T10:20:43Z</time>
      </trkpt>
      <trkpt lat="48.43225" lon="2.72594">
        <ele>116.1</ele>
        <time>2018-11-18T10:20:44Z</time>
      </trkpt>
      <trkpt lat="48.43228" lon="2.72596">
        <ele>116.1</ele>
        <time>2018-11-18T10:20:45Z</time>
      </trkpt>
      <trkpt lat="48.43232" lon="2.72598">
        <ele>116.2</ele>
        <time>2018-11-18T10:20:46Z</time>
      </trkpt>
      <trkpt lat="48.43236" lon="2.726">
        <ele>116.3</ele>
        <time>2018-11-18T10:20:47Z</time>
      </trkpt>
      <trkpt lat="48.4324" lon="2.72601">
        <ele>116.5</ele>
        <time>2018-11-18T10:20:48Z</time>
      </trkpt>
      <trkpt lat="48.43243" lon="2.72602">
        <ele>116.6</ele>
        <time>2018-11-18T10:20:49Z</time>
      </trkpt>
      <trkpt lat="48.43245" lon="2.72604">
        <ele>116.7</ele>
        <time>2018-11-18T10:20:50Z</time>
      </trkpt>
      <trkpt lat="48.43248" lon="2.72605">
        <ele>116.8</ele>
        <time>2018-11-18T10:20:51Z</time>
      </trkpt>
      <trkpt lat="48.43251" lon="2.72605">
        <ele>117</ele>
        <time>2018-11-18T10:20:52Z</time>
      </trkpt>
      <trkpt lat="48.43253" lon="2.72605">
        <ele>117.1</ele>
        <time>2018-11-18T10:20:53Z</time>
      </trkpt>
      <trkpt lat="48.43255" lon="2.72605">
        <ele>117.3</ele>
        <time>2018-11-18T10:20:54Z</time>
      </trkpt>
      <trkpt lat="48.43258" lon="2.72605">
        <ele>117.4</ele>
        <time>2018-11-18T10:20:55Z</time>
      </trkpt>
      <trkpt lat="48.43261" lon="2.72606">
        <ele>117.6</ele>
        <time>2018-11-18T10:20:56Z</time>
      </trkpt>
      <trkpt lat="48.43264" lon="2.72607">
        <ele>117.8</ele>
        <time>2018-11-18T10:20:57Z</time>
      </trkpt>
      <trkpt lat="48.43267" lon="2.72607">
        <ele>118</ele>
        <time>2018-11-18T10:20:58Z</time>
      </trkpt>
      <trkpt lat="48.43269" lon="2.72608">
        <ele>118.2</ele>
        <time>2018-11-18T10:20:59Z</time>
      </trkpt>
      <trkpt lat="48.43272" lon="2.72608">
        <ele>118.3</ele>
        <time>2018-11-18T10:21:00Z</time>
      </trkpt>
      <trkpt lat="48.43274" lon="2.72609">
        <ele>118.5</ele>
        <time>2018-11-18T10:21:01Z</time>
      </trkpt>
      <trkpt lat="48.43276" lon="2.72611">
        <ele>118.7</ele>
        <time>2018-11-18T10:21:02Z</time>
      </trkpt>
      <trkpt lat="48.43278" lon="2.72612">
        <ele>118.9</ele>
        <time>2018-11-18T10:21:03Z</time>
      </trkpt>
      <trkpt lat="48.43279" lon="2.72612">
        <ele>119</ele>
        <time>2018-11-18T10:21:04Z</time>
      </trkpt>
      <trkpt lat="48.43281" lon="2.72612">
        <ele>119.2</ele>
        <time>2018-11-18T10:21:05Z</time>
      </trkpt>
      <trkpt lat="48.43283" lon="2.72613">
        <ele>119.3</ele>
        <time>2018-11-18T10:21:06Z</time>
      </trkpt>
      <trkpt lat="48.43284" lon="2.72614">
        <ele>119.5</ele>
        <time>2018-11-18T10:21:07Z</time>
      </trkpt>
      <trkpt lat="48.43286" lon="2.72615">
        <ele>119.6</ele>
        <time>2018-11-18T10:21:08Z</time>
      </trkpt>
      <trkpt lat="48.43287" lon="2.72615">
        <ele>119.8</ele>
        <time>2018-11-18T10:21:09Z</time>
      </trkpt>
      <trkpt lat="48.43289" lon="2.72616">
        <ele>120</ele>
        <time>2018-11-18T10:21:10Z</time>
      </trkpt>
      <trkpt lat="48.43291" lon="2.72617">
        <ele>120.2</ele>
        <time>2018-11-18T10:21:11Z</time>
      </trkpt>
      <trkpt lat="48.43293" lon="2.72618">
        <ele>120.4</ele>
        <time>2018-11-18T10:21:12Z</time>
      </trkpt>
      <trkpt lat="48.43296" lon="2.72618">
        <ele>120.7</ele>
        <time>2018-11-18T10:21:13Z</time>
      </trkpt>
      <trkpt lat="48.43298" lon="2.72619">
        <ele>120.9</ele>
        <time>2018-11-18T10:21:14Z</time>
      </trkpt>
      <trkpt lat="48.43299" lon="2.72619">
        <ele>121</ele>
        <time>2018-11-18T10:21:15Z</time>
      </trkpt>
      <trkpt lat="48.43301" lon="2.72619">
        <ele>121.2</ele>
        <time>2018-11-18T10:21:16Z</time>
      </trkpt>
      <trkpt lat="48.43303" lon="2.7262">
        <ele>121.4</ele>
        <time>2018-11-18T10:21:17Z</time>
      </trkpt>
      <trkpt lat="48.43304" lon="2.7262">
        <ele>121.6</ele>
        <time>2018-11-18T10:21:18Z</time>
      </trkpt>
      <trkpt lat="48.43306" lon="2.72621">
        <ele>121.8</ele>
        <time>2018-11-18T10:21:19Z</time>
      </trkpt>
      <trkpt lat="48.43307" lon="2.72621">
        <ele>121.9</ele>
        <time>2018-11-18T10:21:20Z</time>
      </trkpt>
      <trkpt lat="48.43309" lon="2.72622">
        <ele>122.1</ele>
        <time>2018-11-18T10:21:21Z</time>
      </trkpt>
      <trkpt lat="48.43311" lon="2.72622">
        <ele>122.3</ele>
        <time>2018-11-18T10:21:22Z</time>
      </trkpt>
      <trkpt lat="48.43312" lon="2.72622">
        <ele>122.5</ele>
        <time>2018-11-18T10:21:30Z</time>
      </trkpt>
      <trkpt lat="48.43314" lon="2.72623">
        <ele>122.6</ele>
        <time>2018-11-18T10:21:31Z</time>
      </trkpt>
      <trkpt lat="48.43316" lon="2.72623">
        <ele>122.8</ele>
        <time>2018-11-18T10:21:32Z</time>
      </trkpt>
      <trkpt lat="48.43317" lon="2.72624">
        <ele>123</ele>
        <time>2018-11-18T10:21:33Z</time>
      </trkpt>
      <trkpt lat="48.43319" lon="2.72624">
        <ele>123.1</ele>
        <time>2018-11-18T10:21:34Z</time>
      </trkpt>
      <trkpt lat="48.4332" lon="2.72625">
        <ele>123.3</ele>
        <time>2018-11-18T10:21:35Z</time>
      </trkpt>
      <trkpt lat="48.43322" lon="2.72625">
        <ele>123.4</ele>
        <time>2018-11-18T10:21:36Z</time>
      </trkpt>
      <trkpt lat="48.43324" lon="2.72625">
        <ele>123.5</ele>
        <time>2018-11-18T10:21:37Z</time>
      </trkpt>
      <trkpt lat="48.43326" lon="2.72626">
        <ele>123.8</ele>
        <time>2018-11-18T10:21:38Z</time>
      </trkpt>
      <trkpt lat="48.43328" lon="2.72626">
        <ele>123.9</ele>
        <time>2018-11-18T10:21:39Z</time>
      </trkpt>
      <trkpt lat="48.4333" lon="2.72627">
        <ele>124</ele>
        <time>2018-11-18T10:21:40Z</time>
      </trkpt>
      <trkpt lat="48.43331" lon="2.72628">
        <ele>124.1</ele>
        <time>2018-11-18T10:21:41Z</time>
      </trkpt>
      <trkpt lat="48.43333" lon="2.72628">
        <ele>124.2</ele>
        <time>2018-11-18T10:21:42Z</time>
      </trkpt>
      <trkpt lat="48.43335" lon="2.72629">
        <ele>124.3</ele>
        <time>2018-11-18T10:21:43Z</time>
      </trkpt>
      <trkpt lat="48.43337" lon="2.72629">
        <ele>124.5</ele>
        <time>2018-11-18T10:21:44Z</time>
      </trkpt>
      <trkpt lat="48.43337" lon="2.72628">
        <ele>124.5</ele>
        <time>2018-11-18T10:21:45Z</time>
      </trkpt>
      <trkpt lat="48.43338" lon="2.72628">
        <ele>124.5</ele>
        <time>2018-11-18T10:21:46Z</time>
      </trkpt>
      <trkpt lat="48.43338" lon="2.72627">
        <ele>124.6</ele>
        <time>2018-11-18T10:21:47Z</time>
      </trkpt>
      <trkpt lat="48.43339" lon="2.72626">
        <ele>124.6</ele>
        <time>2018-11-18T10:21:48Z</time>
      </trkpt>
      <trkpt lat="48.43339" lon="2.72625">
        <ele>124.7</ele>
        <time>2018-11-18T10:21:49Z</time>
      </trkpt>
      <trkpt lat="48.4334" lon="2.72624">
        <ele>124.7</ele>
        <time>2018-11-18T10:21:58Z</time>
      </trkpt>
      <trkpt lat="48.4334" lon="2.72623">
        <ele>124.7</ele>
        <time>2018-11-18T10:21:59Z</time>
      </trkpt>
      <trkpt lat="48.43341" lon="2.72623">
        <ele>124.8</ele>
        <time>2018-11-18T10:22:00Z</time>
      </trkpt>
      <trkpt lat="48.43342" lon="2.72622">
        <ele>124.8</ele>
        <time>2018-11-18T10:22:01Z</time>
      </trkpt>
      <trkpt lat="48.43342" lon="2.72621">
        <ele>124.8</ele>
        <time>2018-11-18T10:22:02Z</time>
      </trkpt>
      <trkpt lat="48.43343" lon="2.7262">
        <ele>124.9</ele>
        <time>2018-11-18T10:22:03Z</time>
      </trkpt>
      <trkpt lat="48.43343" lon="2.72619">
        <ele>124.9</ele>
        <time>2018-11-18T10:22:04Z</time>
      </trkpt>
      <trkpt lat="48.43344" lon="2.72619">
        <ele>124.9</ele>
        <time>2018-11-18T10:22:05Z</time>
      </trkpt>
      <trkpt lat="48.43344" lon="2.72618">
        <ele>125</ele>
        <time>2018-11-18T10:22:06Z</time>
      </trkpt>
      <trkpt lat="48.43345" lon="2.72617">
        <ele>125</ele>
        <time>2018-11-18T10:22:07Z</time>
      </trkpt>
      <trkpt lat="48.43346" lon="2.72616">
        <ele>125</ele>
        <time>2018-11-18T10:22:08Z</time>
      </trkpt>
      <trkpt lat="48.43346" lon="2.72615">
        <ele>125.1</ele>
        <time>2018-11-18T10:22:09Z</time>
      </trkpt>
      <trkpt lat="48.43347" lon="2.72615">
        <ele>125.1</ele>
        <time>2018-11-18T10:22:10Z</time>
      </trkpt>
      <trkpt lat="48.43347" lon="2.72614">
        <ele>125.1</ele>
        <time>2018-11-18T10:22:11Z</time>
      </trkpt>
      <trkpt lat="48.43348" lon="2.72613">
        <ele>125.2</ele>
        <time>2018-11-18T10:22:12Z</time>
      </trkpt>
      <trkpt lat="48.43348" lon="2.72612">
        <ele>125.2</ele>
        <time>2018-11-18T10:22:13Z</time>
      </trkpt>
      <trkpt lat="48.43349" lon="2.7261">
        <ele>125.2</ele>
        <time>2018-11-18T10:22:14Z</time>
      </trkpt>
      <trkpt lat="48.4335" lon="2.72609">
        <ele>125.4</ele>
        <time>2018-11-18T10:22:15Z</time>
      </trkpt>
      <trkpt lat="48.4335" lon="2.72609">
        <ele>125.4</ele>
        <time>2018-11-18T10:22:16Z</time>
      </trkpt>
      <trkpt lat="48.4335" lon="2.7261">
        <ele>125.3</ele>
        <time>2018-11-18T10:22:17Z</time>
      </trkpt>
      <trkpt lat="48.43351" lon="2.72611">
        <ele>125.3</ele>
        <time>2018-11-18T10:22:18Z</time>
      </trkpt>
      <trkpt lat="48.43351" lon="2.72611">
        <ele>125.3</ele>
        <time>2018-11-18T10:22:19Z</time>
      </trkpt>
      <trkpt lat="48.43352" lon="2.72612">
        <ele>125.3</ele>
        <time>2018-11-18T10:22:20Z</time>
      </trkpt>
      <trkpt lat="48.43352" lon="2.72612">
        <ele>125.3</ele>
        <time>2018-11-18T10:22:21Z</time>
      </trkpt>
      <trkpt lat="48.43352" lon="2.72613">
        <ele>125.3</ele>
        <time>2018-11-18T10:22:22Z</time>
      </trkpt>
      <trkpt lat="48.43353" lon="2.72613">
        <ele>125.3</ele>
        <time>2018-11-18T10:22:23Z</time>
      </trkpt>
      <trkpt lat="48.43353" lon="2.72614">
        <ele>125.3</ele>
        <time>2018-11-18T10:22:24Z</time>
      </trkpt>
      <trkpt lat="48.43353" lon="2.72615">
        <ele>125.3</ele>
        <time>2018-11-18T10:22:25Z</time>
      </trkpt>
      <trkpt lat="48.43354" lon="2.72615">
        <ele>125.3</ele>
        <time>2018-11-18T10:22:26Z</time>
      </trkpt>
      <trkpt lat="48.43354" lon="2.72616">
        <ele>125.2</ele>
        <time>2018-11-18T10:22:27Z</time>
      </trkpt>
      <trkpt lat="48.43354" lon="2.72616">
        <ele>125.2</ele>
        <time>2018-11-18T10:22:35Z</time>
      </trkpt>
      <trkpt lat="48.43355" lon="2.72617">
        <ele>125.2</ele>
        <time>2018-11-18T10:22:36Z</time>
      </trkpt>
      <trkpt lat="48.43355" lon="2.72617">
        <ele>125.2</ele>
        <time>2018-11-18T10:22:37Z</time>
      </trkpt>
      <trkpt lat="48.43355" lon="2.72618">
        <ele>125.2</ele>
        <time>2018-11-18T10:22:38Z</time>
      </trkpt>
      <trkpt lat="48.43356" lon="2.72621">
        <ele>125.2</ele>
        <time>2018-11-18T10:22:39Z</time>
      </trkpt>
      <trkpt lat="48.43356" lon="2.72623">
        <ele>125.2</ele>
        <time>2018-11-18T10:22:40Z</time>
      </trkpt>
      <trkpt lat="48.43357" lon="2.72625">
        <ele>125.1</ele>
        <time>2018-11-18T10:22:41Z</time>
      </trkpt>
      <trkpt lat="48.43357" lon="2.72626">
        <ele>125.1</ele>
        <time>2018-11-18T10:22:42Z</time>
      </trkpt>
      <trkpt lat="48.43357" lon="2.72629">
        <ele>125.1</ele>
        <time>2018-11-18T10:22:43Z</time>
      </trkpt>
      <trkpt lat="48.43357" lon="2.72631">
        <ele>125.1</ele>
        <time>2018-11-18T10:22:44Z</time>
      </trkpt>
      <trkpt lat="48.43357" lon="2.72633">
        <ele>125.1</ele>
        <time>2018-11-18T10:22:45Z</time>
      </trkpt>
      <trkpt lat="48.43358" lon="2.72635">
        <ele>125.1</ele>
        <time>2018-11-18T10:22:46Z</time>
      </trkpt>
      <trkpt lat="48.43358" lon="2.72637">
        <ele>125.1</ele>
        <time>2018-11-18T10:22:47Z</time>
      </trkpt>
      <trkpt lat="48.43359" lon="2.72639">
        <ele>125.1</ele>
        <time>2018-11-18T10:22:48Z</time>
      </trkpt>
      <trkpt lat="48.43359" lon="2.72642">
        <ele>125.1</ele>
        <time>2018-11-18T10:22:49Z</time>
      </trkpt>
      <trkpt lat="48.4336" lon="2.72644">
        <ele>125.1</ele>
        <time>2018-11-18T10:22:50Z</time>
      </trkpt>
      <trkpt lat="48.4336" lon="2.72645">
        <ele>125.1</ele>
        <time>2018-11-18T10:22:51Z</time>
      </trkpt>
      <trkpt lat="48.43361" lon="2.72647">
        <ele>125.1</ele>
        <time>2018-11-18T10:22:52Z</time>
      </trkpt>
      <trkpt lat="48.43362" lon="2.72649">
        <ele>125.1</ele>
        <time>2018-11-18T10:22:53Z</time>
      </trkpt>
      <trkpt lat="48.43363" lon="2.72651">
        <ele>125.1</ele>
        <time>2018-11-18T10:22:54Z</time>
      </trkpt>
      <trkpt lat="48.43364" lon="2.72652">
        <ele>125.1</ele>
        <time>2018-11-18T10:22:55Z</time>
      </trkpt>
      <trkpt lat="48.43364" lon="2.72654">
        <ele>125.1</ele>
        <time>2018-11-18T10:22:56Z</time>
      </trkpt>
      <trkpt lat="48.43365" lon="2.72655">
        <ele>125.1</ele>
        <time>2018-11-18T10:22:57Z</time>
      </trkpt>
      <trkpt lat="48.43366" lon="2.72657">
        <ele>125.1</ele>
        <time>2018-11-18T10:22:58Z</time>
      </trkpt>
      <trkpt lat="48.43367" lon="2.72658">
        <ele>125.2</ele>
        <time>2018-11-18T10:22:59Z</time>
      </trkpt>
      <trkpt lat="48.43368" lon="2.72658">
        <ele>125.2</ele>
        <time>2018-11-18T10:23:00Z</time>
      </trkpt>
      <trkpt lat="48.4337" lon="2.7266">
        <ele>125.2</ele>
        <time>2018-11-18T10:23:01Z</time>
      </trkpt>
      <trkpt lat="48.43371" lon="2.72661">
        <ele>125.3</ele>
        <time>2018-11-18T10:23:02Z</time>
      </trkpt>
      <trkpt lat="48.43372" lon="2.72662">
        <ele>125.3</ele>
        <time>2018-11-18T10:23:03Z</time>
      </trkpt>
      <trkpt lat="48.43373" lon="2.72663">
        <ele>125.3</ele>
        <time>2018-11-18T10:23:04Z</time>
      </trkpt>
      <trkpt lat="48.43375" lon="2.72663">
        <ele>125.3</ele>
        <time>2018-11-18T10:23:05Z</time>
      </trkpt>
      <trkpt lat="48.43376" lon="2.72663">
        <ele>125.4</ele>
        <time>2018-11-18T10:23:06Z</time>
      </trkpt>
      <trkpt lat="48.43377" lon="2.72664">
        <ele>125.4</ele>
        <time>2018-11-18T10:23:07Z</time>
      </trkpt>
      <trkpt lat="48.43378" lon="2.72663">
        <ele>125.4</ele>
        <time>2018-11-18T10:23:08Z</time>
      </trkpt>
      <trkpt lat="48.43379" lon="2.72663">
        <ele>125.5</ele>
        <time>2018-11-18T10:23:09Z</time>
      </trkpt>
      <trkpt lat="48.43381" lon="2.72663">
        <ele>125.5</ele>
        <time>2018-11-18T10:23:10Z</time>
      </trkpt>
      <trkpt lat="48.43382" lon="2.72662">
        <ele>125.6</ele>
        <time>2018-11-18T10:23:11Z</time>
      </trkpt>
      <trkpt lat="48.43383" lon="2.72661">
        <ele>125.6</ele>
        <time>2018-11-18T10:23:12Z</time>
      </trkpt>
      <trkpt lat="48.43385" lon="2.72661">
        <ele>125.6</ele>
        <time>2018-11-18T10:23:13Z</time>
      </trkpt>
      <trkpt lat="48.43386" lon="2.7266">
        <ele>125.7</ele>
        <time>2018-11-18T10:23:14Z</time>
      </trkpt>
      <trkpt lat="48.43388" lon="2.72659">
        <ele>125.7</ele>
        <time>2018-11-18T10:23:15Z</time>
      </trkpt>
      <trkpt lat="48.43389" lon="2.72658">
        <ele>125.7</ele>
        <time>2018-11-18T10:23:16Z</time>
      </trkpt>
      <trkpt lat="48.4339" lon="2.72657">
        <ele>125.8</ele>
        <time>2018-11-18T10:23:17Z</time>
      </trkpt>
      <trkpt lat="48.43391" lon="2.72655">
        <ele>125.8</ele>
        <time>2018-11-18T10:23:18Z</time>
      </trkpt>
      <trkpt lat="48.43392" lon="2.72654">
        <ele>125.8</ele>
        <time>2018-11-18T10:23:19Z</time>
      </trkpt>
      <trkpt lat="48.43393" lon="2.72652">
        <ele>125.8</ele>
        <time>2018-11-18T10:23:20Z</time>
      </trkpt>
      <trkpt lat="48.43394" lon="2.7265">
        <ele>125.9</ele>
        <time>2018-11-18T10:23:21Z</time>
      </trkpt>
      <trkpt lat="48.43395" lon="2.72648">
        <ele>125.9</ele>
        <time>2018-11-18T10:23:22Z</time>
      </trkpt>
      <trkpt lat="48.43396" lon="2.72646">
        <ele>125.9</ele>
        <time>2018-11-18T10:23:23Z</time>
      </trkpt>
      <trkpt lat="48.43397" lon="2.72644">
        <ele>126</ele>
        <time>2018-11-18T10:23:24Z</time>
      </trkpt>
      <trkpt lat="48.43398" lon="2.72643">
        <ele>126</ele>
        <time>2018-11-18T10:23:25Z</time>
      </trkpt>
      <trkpt lat="48.43399" lon="2.72641">
        <ele>126</ele>
        <time>2018-11-18T10:23:26Z</time>
      </trkpt>
      <trkpt lat="48.434" lon="2.72639">
        <ele>126.1</ele>
        <time>2018-11-18T10:23:27Z</time>
      </trkpt>
      <trkpt lat="48.434" lon="2.72638">
        <ele>126.1</ele>
        <time>2018-11-18T10:23:28Z</time>
      </trkpt>
      <trkpt lat="48.43401" lon="2.72636">
        <ele>126.1</ele>
        <time>2018-11-18T10:23:29Z</time>
      </trkpt>
      <trkpt lat="48.43401" lon="2.72634">
        <ele>126.2</ele>
        <time>2018-11-18T10:23:30Z</time>
      </trkpt>
      <trkpt lat="48.43402" lon="2.72633">
        <ele>126.2</ele>
        <time>2018-11-18T10:23:31Z</time>
      </trkpt>
      <trkpt lat="48.43402" lon="2.72631">
        <ele>126.2</ele>
        <time>2018-11-18T10:23:32Z</time>
      </trkpt>
      <trkpt lat="48.43402" lon="2.72629">
        <ele>126.2</ele>
        <time>2018-11-18T10:23:33Z</time>
      </trkpt>
      <trkpt lat="48.43402" lon="2.72627">
        <ele>126.3</ele>
        <time>2018-11-18T10:23:34Z</time>
      </trkpt>
      <trkpt lat="48.43402" lon="2.72625">
        <ele>126.3</ele>
        <time>2018-11-18T10:23:35Z</time>
      </trkpt>
      <trkpt lat="48.43403" lon="2.72623">
        <ele>126.3</ele>
        <time>2018-11-18T10:23:36Z</time>
      </trkpt>
      <trkpt lat="48.43403" lon="2.72621">
        <ele>126.4</ele>
        <time>2018-11-18T10:23:37Z</time>
      </trkpt>
      <trkpt lat="48.43403" lon="2.72619">
        <ele>126.4</ele>
        <time>2018-11-18T10:23:38Z</time>
      </trkpt>
      <trkpt lat="48.43403" lon="2.72617">
        <ele>126.4</ele>
        <time>2018-11-18T10:23:39Z</time>
      </trkpt>
      <trkpt lat="48.43402" lon="2.72615">
        <ele>126.4</ele>
        <time>2018-11-18T10:23:40Z</time>
      </trkpt>
      <trkpt lat="48.43402" lon="2.72613">
        <ele>126.5</ele>
        <time>2018-11-18T10:23:41Z</time>
      </trkpt>
      <trkpt lat="48.43402" lon="2.72612">
        <ele>126.5</ele>
        <time>2018-11-18T10:23:42Z</time>
      </trkpt>
      <trkpt lat="48.43402" lon="2.7261">
        <ele>126.5</ele>
        <time>2018-11-18T10:23:43Z</time>
      </trkpt>
      <trkpt lat="48.43402" lon="2.72608">
        <ele>126.5</ele>
        <time>2018-11-18T10:23:44Z</time>
      </trkpt>
      <trkpt lat="48.43402" lon="2.72606">
        <ele>126.6</ele>
        <time>2018-11-18T10:23:45Z</time>
      </trkpt>
      <trkpt lat="48.43402" lon="2.72604">
        <ele>126.6</ele>
        <time>2018-11-18T10:23:46Z</time>
      </trkpt>
      <trkpt lat="48.43401" lon="2.72602">
        <ele>126.6</ele>
        <time>2018-11-18T10:23:47Z</time>
      </trkpt>
      <trkpt lat="48.43401" lon="2.726">
        <ele>126.7</ele>
        <time>2018-11-18T10:23:48Z</time>
      </trkpt>
      <trkpt lat="48.434" lon="2.72598">
        <ele>126.7</ele>
        <time>2018-11-18T10:23:49Z</time>
      </trkpt>
      <trkpt lat="48.434" lon="2.72596">
        <ele>126.7</ele>
        <time>2018-11-18T10:23:50Z</time>
      </trkpt>
      <trkpt lat="48.434" lon="2.72595">
        <ele>126.7</ele>
        <time>2018-11-18T10:23:51Z</time>
      </trkpt>
      <trkpt lat="48.434" lon="2.72593">
        <ele>126.7</ele>
        <time>2018-11-18T10:23:52Z</time>
      </trkpt>
      <trkpt lat="48.43401" lon="2.72592">
        <ele>126.7</ele>
        <time>2018-11-18T10:23:53Z</time>
      </trkpt>
      <trkpt lat="48.43402" lon="2.72592">
        <ele>126.7</ele>
        <time>2018-11-18T10:23:54Z</time>
      </trkpt>
      <trkpt lat="48.43402" lon="2.72591">
        <ele>126.7</ele>
        <time>2018-11-18T10:23:55Z</time>
      </trkpt>
      <trkpt lat="48.43402" lon="2.72591">
        <ele>126.7</ele>
        <time>2018-11-18T10:23:56Z</time>
      </trkpt>
      <trkpt lat="48.43404" lon="2.72588">
        <ele>126.7</ele>
        <time>2018-11-18T10:23:57Z</time>
      </trkpt>
      <trkpt lat="48.43405" lon="2.72586">
        <ele>126.7</ele>
        <time>2018-11-18T10:23:58Z</time>
      </trkpt>
      <trkpt lat="48.43405" lon="2.72583">
        <ele>126.7</ele>
        <time>2018-11-18T10:23:59Z</time>
      </trkpt>
      <trkpt lat="48.43405" lon="2.72581">
        <ele>126.7</ele>
        <time>2018-11-18T10:24:00Z</time>
      </trkpt>
      <trkpt lat="48.43405" lon="2.72579">
        <ele>126.7</ele>
        <time>2018-11-18T10:24:01Z</time>
      </trkpt>
      <trkpt lat="48.43404" lon="2.72578">
        <ele>126.7</ele>
        <time>2018-11-18T10:24:02Z</time>
      </trkpt>
      <trkpt lat="48.43404" lon="2.72577">
        <ele>126.7</ele>
        <time>2018-11-18T10:24:03Z</time>
      </trkpt>
      <trkpt lat="48.43404" lon="2.72576">
        <ele>126.7</ele>
        <time>2018-11-18T10:24:04Z</time>
      </trkpt>
      <trkpt lat="48.43404" lon="2.72576">
        <ele>126.7</ele>
        <time>2018-11-18T10:24:05Z</time>
      </trkpt>
      <trkpt lat="48.43404" lon="2.72572">
        <ele>126.7</ele>
        <time>2018-11-18T10:24:06Z</time>
      </trkpt>
      <trkpt lat="48.43404" lon="2.7257">
        <ele>125.5</ele>
        <time>2018-11-18T10:24:07Z</time>
      </trkpt>
      <trkpt lat="48.43405" lon="2.7257">
        <ele>125.4</ele>
        <time>2018-11-18T10:24:08Z</time>
      </trkpt>
      <trkpt lat="48.43405" lon="2.7257">
        <ele>125.4</ele>
        <time>2018-11-18T10:24:09Z</time>
      </trkpt>
      <trkpt lat="48.43406" lon="2.72569">
        <ele>125.4</ele>
        <time>2018-11-18T10:24:10Z</time>
      </trkpt>
      <trkpt lat="48.43406" lon="2.72569">
        <ele>125.3</ele>
        <time>2018-11-18T10:24:11Z</time>
      </trkpt>
      <trkpt lat="48.43406" lon="2.72569">
        <ele>125.3</ele>
        <time>2018-11-18T10:24:12Z</time>
      </trkpt>
      <trkpt lat="48.43407" lon="2.72569">
        <ele>125.3</ele>
        <time>2018-11-18T10:24:13Z</time>
      </trkpt>
      <trkpt lat="48.43407" lon="2.72569">
        <ele>125.2</ele>
        <time>2018-11-18T10:24:14Z</time>
      </trkpt>
      <trkpt lat="48.43408" lon="2.72569">
        <ele>125.2</ele>
        <time>2018-11-18T10:24:15Z</time>
      </trkpt>
      <trkpt lat="48.43408" lon="2.72569">
        <ele>125.2</ele>
        <time>2018-11-18T10:24:16Z</time>
      </trkpt>
      <trkpt lat="48.43408" lon="2.72569">
        <ele>125.1</ele>
        <time>2018-11-18T10:24:17Z</time>
      </trkpt>
      <trkpt lat="48.43409" lon="2.72568">
        <ele>125.1</ele>
        <time>2018-11-18T10:24:18Z</time>
      </trkpt>
      <trkpt lat="48.43409" lon="2.72568">
        <ele>125.1</ele>
        <time>2018-11-18T10:24:19Z</time>
      </trkpt>
      <trkpt lat="48.43409" lon="2.72568">
        <ele>125</ele>
        <time>2018-11-18T10:24:20Z</time>
      </trkpt>
      <trkpt lat="48.4341" lon="2.72568">
        <ele>125</ele>
        <time>2018-11-18T10:24:21Z</time>
      </trkpt>
      <trkpt lat="48.4341" lon="2.72568">
        <ele>124.9</ele>
        <time>2018-11-18T10:24:22Z</time>
      </trkpt>
      <trkpt lat="48.43411" lon="2.72568">
        <ele>124.9</ele>
        <time>2018-11-18T10:24:23Z</time>
      </trkpt>
      <trkpt lat="48.43411" lon="2.72568">
        <ele>124.9</ele>
        <time>2018-11-18T10:24:24Z</time>
      </trkpt>
      <trkpt lat="48.43411" lon="2.72567">
        <ele>124.8</ele>
        <time>2018-11-18T10:24:25Z</time>
      </trkpt>
      <trkpt lat="48.43412" lon="2.72567">
        <ele>124.8</ele>
        <time>2018-11-18T10:24:26Z</time>
      </trkpt>
      <trkpt lat="48.43412" lon="2.72567">
        <ele>124.8</ele>
        <time>2018-11-18T10:24:27Z</time>
      </trkpt>
      <trkpt lat="48.43413" lon="2.72567">
        <ele>124.7</ele>
        <time>2018-11-18T10:24:28Z</time>
      </trkpt>
      <trkpt lat="48.43414" lon="2.72565">
        <ele>124.5</ele>
        <time>2018-11-18T10:24:29Z</time>
      </trkpt>
      <trkpt lat="48.43416" lon="2.72562">
        <ele>124.3</ele>
        <time>2018-11-18T10:24:30Z</time>
      </trkpt>
      <trkpt lat="48.43417" lon="2.7256">
        <ele>124.2</ele>
        <time>2018-11-18T10:24:31Z</time>
      </trkpt>
      <trkpt lat="48.4342" lon="2.72558">
        <ele>123.9</ele>
        <time>2018-11-18T10:24:32Z</time>
      </trkpt>
      <trkpt lat="48.43422" lon="2.72557">
        <ele>123.7</ele>
        <time>2018-11-18T10:24:33Z</time>
      </trkpt>
      <trkpt lat="48.43423" lon="2.72557">
        <ele>123.6</ele>
        <time>2018-11-18T10:24:34Z</time>
      </trkpt>
      <trkpt lat="48.43423" lon="2.72557">
        <ele>123.6</ele>
        <time>2018-11-18T10:24:35Z</time>
      </trkpt>
      <trkpt lat="48.43423" lon="2.72557">
        <ele>123.6</ele>
        <time>2018-11-18T10:24:36Z</time>
      </trkpt>
      <trkpt lat="48.43423" lon="2.72557">
        <ele>123.6</ele>
        <time>2018-11-18T10:24:37Z</time>
      </trkpt>
      <trkpt lat="48.43423" lon="2.72557">
        <ele>123.6</ele>
        <time>2018-11-18T10:24:38Z</time>
      </trkpt>
      <trkpt lat="48.43423" lon="2.72557">
        <ele>123.6</ele>
        <time>2018-11-18T10:24:39Z</time>
      </trkpt>
      <trkpt lat="48.43423" lon="2.72557">
        <ele>123.6</ele>
        <time>2018-11-18T10:24:40Z</time>
      </trkpt>
      <trkpt lat="48.43423" lon="2.72557">
        <ele>123.6</ele>
        <time>2018-11-18T10:24:41Z</time>
      </trkpt>
      <trkpt lat="48.43423" lon="2.72557">
        <ele>123.6</ele>
        <time>2018-11-18T10:24:42Z</time>
      </trkpt>
      <trkpt lat="48.43423" lon="2.72557">
        <ele>123.6</ele>
        <time>2018-11-18T10:24:43Z</time>
      </trkpt>
      <trkpt lat="48.43425" lon="2.72562">
        <ele>123.1</ele>
        <time>2018-11-18T10:25:14Z</time>
      </trkpt>
      <trkpt lat="48.43426" lon="2.72566">
        <ele>122.7</ele>
        <time>2018-11-18T10:25:15Z</time>
      </trkpt>
      <trkpt lat="48.43427" lon="2.72569">
        <ele>122.3</ele>
        <time>2018-11-18T10:25:16Z</time>
      </trkpt>
      <trkpt lat="48.43428" lon="2.72573">
        <ele>122</ele>
        <time>2018-11-18T10:25:17Z</time>
      </trkpt>
      <trkpt lat="48.43429" lon="2.72576">
        <ele>121.8</ele>
        <time>2018-11-18T10:25:18Z</time>
      </trkpt>
      <trkpt lat="48.43431" lon="2.72579">
        <ele>121.5</ele>
        <time>2018-11-18T10:25:19Z</time>
      </trkpt>
      <trkpt lat="48.43432" lon="2.72582">
        <ele>121.3</ele>
        <time>2018-11-18T10:25:20Z</time>
      </trkpt>
      <trkpt lat="48.43433" lon="2.72586">
        <ele>121</ele>
        <time>2018-11-18T10:25:21Z</time>
      </trkpt>
      <trkpt lat="48.43434" lon="2.72589">
        <ele>120.8</ele>
        <time>2018-11-18T10:25:22Z</time>
      </trkpt>
      <trkpt lat="48.43435" lon="2.72592">
        <ele>120.7</ele>
        <time>2018-11-18T10:25:23Z</time>
      </trkpt>
      <trkpt lat="48.43436" lon="2.72595">
        <ele>120.5</ele>
        <time>2018-11-18T10:25:24Z</time>
      </trkpt>
      <trkpt lat="48.43438" lon="2.72598">
        <ele>120.3</ele>
        <time>2018-11-18T10:25:25Z</time>
      </trkpt>
      <trkpt lat="48.43439" lon="2.726">
        <ele>120.1</ele>
        <time>2018-11-18T10:25:26Z</time>
      </trkpt>
      <trkpt lat="48.43441" lon="2.72602">
        <ele>119.9</ele>
        <time>2018-11-18T10:25:27Z</time>
      </trkpt>
      <trkpt lat="48.43443" lon="2.72603">
        <ele>119.7</ele>
        <time>2018-11-18T10:25:28Z</time>
      </trkpt>
      <trkpt lat="48.43445" lon="2.72604">
        <ele>119.5</ele>
        <time>2018-11-18T10:25:29Z</time>
      </trkpt>
      <trkpt lat="48.43448" lon="2.72605">
        <ele>119.3</ele>
        <time>2018-11-18T10:25:30Z</time>
      </trkpt>
      <trkpt lat="48.4345" lon="2.72608">
        <ele>119</ele>
        <time>2018-11-18T10:25:31Z</time>
      </trkpt>
      <trkpt lat="48.43452" lon="2.72611">
        <ele>118.8</ele>
        <time>2018-11-18T10:25:32Z</time>
      </trkpt>
      <trkpt lat="48.43453" lon="2.72615">
        <ele>118.5</ele>
        <time>2018-11-18T10:25:33Z</time>
      </trkpt>
      <trkpt lat="48.43455" lon="2.72618">
        <ele>118.2</ele>
        <time>2018-11-18T10:25:34Z</time>
      </trkpt>
      <trkpt lat="48.43458" lon="2.7262">
        <ele>118</ele>
        <time>2018-11-18T10:25:35Z</time>
      </trkpt>
      <trkpt lat="48.43461" lon="2.72623">
        <ele>117.6</ele>
        <time>2018-11-18T10:25:36Z</time>
      </trkpt>
      <trkpt lat="48.43463" lon="2.72627">
        <ele>117.3</ele>
        <time>2018-11-18T10:25:37Z</time>
      </trkpt>
      <trkpt lat="48.43465" lon="2.72631">
        <ele>116.9</ele>
        <time>2018-11-18T10:25:38Z</time>
      </trkpt>
      <trkpt lat="48.43467" lon="2.72636">
        <ele>116.6</ele>
        <time>2018-11-18T10:25:39Z</time>
      </trkpt>
      <trkpt lat="48.43469" lon="2.7264">
        <ele>116.2</ele>
        <time>2018-11-18T10:25:40Z</time>
      </trkpt>
      <trkpt lat="48.43472" lon="2.72644">
        <ele>115.8</ele>
        <time>2018-11-18T10:25:41Z</time>
      </trkpt>
      <trkpt lat="48.43475" lon="2.72648">
        <ele>115.4</ele>
        <time>2018-11-18T10:25:42Z</time>
      </trkpt>
      <trkpt lat="48.43478" lon="2.72651">
        <ele>115.1</ele>
        <time>2018-11-18T10:25:43Z</time>
      </trkpt>
      <trkpt lat="48.43481" lon="2.72652">
        <ele>114.7</ele>
        <time>2018-11-18T10:25:44Z</time>
      </trkpt>
      <trkpt lat="48.43484" lon="2.72654">
        <ele>114.3</ele>
        <time>2018-11-18T10:25:45Z</time>
      </trkpt>
      <trkpt lat="48.43487" lon="2.72654">
        <ele>114</ele>
        <time>2018-11-18T10:25:46Z</time>
      </trkpt>
      <trkpt lat="48.4349" lon="2.72655">
        <ele>113.7</ele>
        <time>2018-11-18T10:25:47Z</time>
      </trkpt>
      <trkpt lat="48.43493" lon="2.72657">
        <ele>113.3</ele>
        <time>2018-11-18T10:25:48Z</time>
      </trkpt>
      <trkpt lat="48.43495" lon="2.72659">
        <ele>113</ele>
        <time>2018-11-18T10:25:49Z</time>
      </trkpt>
      <trkpt lat="48.43497" lon="2.72661">
        <ele>112.7</ele>
        <time>2018-11-18T10:25:50Z</time>
      </trkpt>
      <trkpt lat="48.435" lon="2.72662">
        <ele>112.4</ele>
        <time>2018-11-18T10:25:51Z</time>
      </trkpt>
      <trkpt lat="48.43504" lon="2.72664">
        <ele>112.1</ele>
        <time>2018-11-18T10:25:52Z</time>
      </trkpt>
      <trkpt lat="48.43507" lon="2.72666">
        <ele>111.8</ele>
        <time>2018-11-18T10:25:53Z</time>
      </trkpt>
      <trkpt lat="48.43511" lon="2.72669">
        <ele>111.6</ele>
        <time>2018-11-18T10:25:54Z</time>
      </trkpt>
      <trkpt lat="48.43514" lon="2.72671">
        <ele>111.3</ele>
        <time>2018-11-18T10:25:55Z</time>
      </trkpt>
      <trkpt lat="48.43517" lon="2.72673">
        <ele>111.1</ele>
        <time>2018-11-18T10:25:56Z</time>
      </trkpt>
      <trkpt lat="48.43519" lon="2.72675">
        <ele>110.9</ele>
        <time>2018-11-18T10:25:57Z</time>
      </trkpt>
      <trkpt lat="48.43522" lon="2.72679">
        <ele>110.7</ele>
        <time>2018-11-18T10:25:58Z</time>
      </trkpt>
      <trkpt lat="48.43524" lon="2.72684">
        <ele>110.5</ele>
        <time>2018-11-18T10:25:59Z</time>
      </trkpt>
      <trkpt lat="48.43527" lon="2.72687">
        <ele>110.3</ele>
        <time>2018-11-18T10:26:00Z</time>
      </trkpt>
      <trkpt lat="48.43529" lon="2.72689">
        <ele>110.2</ele>
        <time>2018-11-18T10:26:01Z</time>
      </trkpt>
      <trkpt lat="48.43537" lon="2.72704">
        <ele>109.7</ele>
        <time>2018-11-18T10:26:14Z</time>
      </trkpt>
      <trkpt lat="48.43538" lon="2.72707">
        <ele>109.7</ele>
        <time>2018-11-18T10:26:15Z</time>
      </trkpt>
      <trkpt lat="48.43538" lon="2.72707">
        <ele>109.6</ele>
        <time>2018-11-18T10:26:16Z</time>
      </trkpt>
      <trkpt lat="48.43538" lon="2.72708">
        <ele>109.6</ele>
        <time>2018-11-18T10:26:17Z</time>
      </trkpt>
      <trkpt lat="48.43538" lon="2.72708">
        <ele>109.6</ele>
        <time>2018-11-18T10:26:18Z</time>
      </trkpt>
      <trkpt lat="48.43538" lon="2.72708">
        <ele>109.6</ele>
        <time>2018-11-18T10:26:19Z</time>
      </trkpt>
      <trkpt lat="48.43543" lon="2.72711">
        <ele>109.8</ele>
        <time>2018-11-18T10:26:25Z</time>
      </trkpt>
      <trkpt lat="48.43544" lon="2.72712">
        <ele>109.8</ele>
        <time>2018-11-18T10:26:26Z</time>
      </trkpt>
      <trkpt lat="48.43544" lon="2.72713">
        <ele>109.8</ele>
        <time>2018-11-18T10:26:27Z</time>
      </trkpt>
      <trkpt lat="48.43545" lon="2.72713">
        <ele>109.8</ele>
        <time>2018-11-18T10:26:28Z</time>
      </trkpt>
      <trkpt lat="48.43545" lon="2.72713">
        <ele>109.9</ele>
        <time>2018-11-18T10:26:29Z</time>
      </trkpt>
      <trkpt lat="48.43545" lon="2.72713">
        <ele>109.9</ele>
        <time>2018-11-18T10:26:30Z</time>
      </trkpt>
      <trkpt lat="48.43545" lon="2.72713">
        <ele>109.9</ele>
        <time>2018-11-18T10:26:31Z</time>
      </trkpt>
      <trkpt lat="48.43548" lon="2.72717">
        <ele>110</ele>
        <time>2018-11-18T10:26:41Z</time>
      </trkpt>
      <trkpt lat="48.43549" lon="2.72718">
        <ele>110</ele>
        <time>2018-11-18T10:26:42Z</time>
      </trkpt>
      <trkpt lat="48.4355" lon="2.72721">
        <ele>110.1</ele>
        <time>2018-11-18T10:26:43Z</time>
      </trkpt>
      <trkpt lat="48.4355" lon="2.72724">
        <ele>110.1</ele>
        <time>2018-11-18T10:26:44Z</time>
      </trkpt>
      <trkpt lat="48.4355" lon="2.72727">
        <ele>110.1</ele>
        <time>2018-11-18T10:26:45Z</time>
      </trkpt>
      <trkpt lat="48.43551" lon="2.7273">
        <ele>110.1</ele>
        <time>2018-11-18T10:26:46Z</time>
      </trkpt>
      <trkpt lat="48.43552" lon="2.72733">
        <ele>110</ele>
        <time>2018-11-18T10:26:47Z</time>
      </trkpt>
      <trkpt lat="48.43553" lon="2.72735">
        <ele>110</ele>
        <time>2018-11-18T10:26:48Z</time>
      </trkpt>
      <trkpt lat="48.43554" lon="2.72737">
        <ele>109.9</ele>
        <time>2018-11-18T10:26:49Z</time>
      </trkpt>
      <trkpt lat="48.43555" lon="2.72739">
        <ele>109.9</ele>
        <time>2018-11-18T10:26:50Z</time>
      </trkpt>
      <trkpt lat="48.43557" lon="2.72741">
        <ele>109.8</ele>
        <time>2018-11-18T10:26:51Z</time>
      </trkpt>
      <trkpt lat="48.43558" lon="2.72744">
        <ele>109.7</ele>
        <time>2018-11-18T10:26:52Z</time>
      </trkpt>
      <trkpt lat="48.43561" lon="2.72744">
        <ele>109.6</ele>
        <time>2018-11-18T10:26:53Z</time>
      </trkpt>
      <trkpt lat="48.43563" lon="2.72746">
        <ele>109.4</ele>
        <time>2018-11-18T10:26:54Z</time>
      </trkpt>
      <trkpt lat="48.43567" lon="2.72747">
        <ele>109.2</ele>
        <time>2018-11-18T10:26:55Z</time>
      </trkpt>
      <trkpt lat="48.43571" lon="2.72749">
        <ele>108.8</ele>
        <time>2018-11-18T10:26:56Z</time>
      </trkpt>
      <trkpt lat="48.43574" lon="2.72748">
        <ele>108.6</ele>
        <time>2018-11-18T10:26:57Z</time>
      </trkpt>
      <trkpt lat="48.43577" lon="2.72746">
        <ele>108.4</ele>
        <time>2018-11-18T10:26:58Z</time>
      </trkpt>
      <trkpt lat="48.43579" lon="2.72745">
        <ele>108.3</ele>
        <time>2018-11-18T10:26:59Z</time>
      </trkpt>
      <trkpt lat="48.43581" lon="2.72744">
        <ele>108.2</ele>
        <time>2018-11-18T10:27:00Z</time>
      </trkpt>
      <trkpt lat="48.43582" lon="2.72742">
        <ele>108.1</ele>
        <time>2018-11-18T10:27:01Z</time>
      </trkpt>
      <trkpt lat="48.43584" lon="2.7274">
        <ele>106.7</ele>
        <time>2018-11-18T10:27:02Z</time>
      </trkpt>
      <trkpt lat="48.43586" lon="2.72738">
        <ele>106.6</ele>
        <time>2018-11-18T10:27:03Z</time>
      </trkpt>
      <trkpt lat="48.43587" lon="2.72736">
        <ele>106.5</ele>
        <time>2018-11-18T10:27:04Z</time>
      </trkpt>
      <trkpt lat="48.43588" lon="2.72734">
        <ele>106.5</ele>
        <time>2018-11-18T10:27:05Z</time>
      </trkpt>
      <trkpt lat="48.43589" lon="2.72732">
        <ele>106.4</ele>
        <time>2018-11-18T10:27:06Z</time>
      </trkpt>
      <trkpt lat="48.4359" lon="2.7273">
        <ele>106.4</ele>
        <time>2018-11-18T10:27:07Z</time>
      </trkpt>
      <trkpt lat="48.4359" lon="2.72728">
        <ele>106.4</ele>
        <time>2018-11-18T10:27:08Z</time>
      </trkpt>
      <trkpt lat="48.43591" lon="2.72725">
        <ele>106.4</ele>
        <time>2018-11-18T10:27:09Z</time>
      </trkpt>
      <trkpt lat="48.43592" lon="2.72723">
        <ele>106.4</ele>
        <time>2018-11-18T10:27:10Z</time>
      </trkpt>
      <trkpt lat="48.43592" lon="2.72721">
        <ele>106.4</ele>
        <time>2018-11-18T10:27:11Z</time>
      </trkpt>
      <trkpt lat="48.43592" lon="2.72718">
        <ele>106.5</ele>
        <time>2018-11-18T10:27:12Z</time>
      </trkpt>
      <trkpt lat="48.43593" lon="2.72715">
        <ele>106.5</ele>
        <time>2018-11-18T10:27:13Z</time>
      </trkpt>
      <trkpt lat="48.43594" lon="2.72713">
        <ele>106.6</ele>
        <time>2018-11-18T10:27:14Z</time>
      </trkpt>
      <trkpt lat="48.43594" lon="2.7271">
        <ele>106.6</ele>
        <time>2018-11-18T10:27:15Z</time>
      </trkpt>
      <trkpt lat="48.43595" lon="2.72707">
        <ele>106.7</ele>
        <time>2018-11-18T10:27:16Z</time>
      </trkpt>
      <trkpt lat="48.43595" lon="2.72704">
        <ele>106.8</ele>
        <time>2018-11-18T10:27:17Z</time>
      </trkpt>
      <trkpt lat="48.43596" lon="2.72702">
        <ele>106.9</ele>
        <time>2018-11-18T10:27:18Z</time>
      </trkpt>
      <trkpt lat="48.43596" lon="2.72699">
        <ele>106.9</ele>
        <time>2018-11-18T10:27:19Z</time>
      </trkpt>
      <trkpt lat="48.43596" lon="2.72697">
        <ele>107</ele>
        <time>2018-11-18T10:27:20Z</time>
      </trkpt>
      <trkpt lat="48.43597" lon="2.72694">
        <ele>107</ele>
        <time>2018-11-18T10:27:21Z</time>
      </trkpt>
      <trkpt lat="48.43597" lon="2.72691">
        <ele>107.1</ele>
        <time>2018-11-18T10:27:22Z</time>
      </trkpt>
      <trkpt lat="48.43597" lon="2.72688">
        <ele>107.2</ele>
        <time>2018-11-18T10:27:23Z</time>
      </trkpt>
      <trkpt lat="48.43597" lon="2.72686">
        <ele>107.3</ele>
        <time>2018-11-18T10:27:24Z</time>
      </trkpt>
      <trkpt lat="48.43597" lon="2.72683">
        <ele>107.4</ele>
        <time>2018-11-18T10:27:25Z</time>
      </trkpt>
      <trkpt lat="48.43597" lon="2.72681">
        <ele>107.4</ele>
        <time>2018-11-18T10:27:26Z</time>
      </trkpt>
      <trkpt lat="48.43598" lon="2.72679">
        <ele>107.5</ele>
        <time>2018-11-18T10:27:27Z</time>
      </trkpt>
      <trkpt lat="48.43598" lon="2.72677">
        <ele>107.6</ele>
        <time>2018-11-18T10:27:28Z</time>
      </trkpt>
      <trkpt lat="48.43599" lon="2.72674">
        <ele>107.7</ele>
        <time>2018-11-18T10:27:29Z</time>
      </trkpt>
      <trkpt lat="48.43599" lon="2.72672">
        <ele>107.7</ele>
        <time>2018-11-18T10:27:30Z</time>
      </trkpt>
      <trkpt lat="48.43599" lon="2.72669">
        <ele>107.8</ele>
        <time>2018-11-18T10:27:31Z</time>
      </trkpt>
      <trkpt lat="48.43599" lon="2.72668">
        <ele>107.8</ele>
        <time>2018-11-18T10:27:32Z</time>
      </trkpt>
      <trkpt lat="48.43599" lon="2.72668">
        <ele>107.8</ele>
        <time>2018-11-18T10:27:33Z</time>
      </trkpt>
      <trkpt lat="48.43599" lon="2.72668">
        <ele>107.9</ele>
        <time>2018-11-18T10:27:34Z</time>
      </trkpt>
      <trkpt lat="48.43599" lon="2.72668">
        <ele>107.9</ele>
        <time>2018-11-18T10:27:35Z</time>
      </trkpt>
      <trkpt lat="48.43599" lon="2.72668">
        <ele>107.9</ele>
        <time>2018-11-18T10:27:36Z</time>
      </trkpt>
      <trkpt lat="48.43598" lon="2.72664">
        <ele>107.9</ele>
        <time>2018-11-18T10:27:58Z</time>
      </trkpt>
      <trkpt lat="48.43599" lon="2.72662">
        <ele>108</ele>
        <time>2018-11-18T10:27:59Z</time>
      </trkpt>
      <trkpt lat="48.43599" lon="2.72659">
        <ele>108.1</ele>
        <time>2018-11-18T10:28:00Z</time>
      </trkpt>
      <trkpt lat="48.43599" lon="2.72657">
        <ele>108.1</ele>
        <time>2018-11-18T10:28:01Z</time>
      </trkpt>
      <trkpt lat="48.43599" lon="2.72654">
        <ele>108.2</ele>
        <time>2018-11-18T10:28:02Z</time>
      </trkpt>
      <trkpt lat="48.43599" lon="2.72652">
        <ele>108.2</ele>
        <time>2018-11-18T10:28:03Z</time>
      </trkpt>
      <trkpt lat="48.436" lon="2.72649">
        <ele>108.3</ele>
        <time>2018-11-18T10:28:04Z</time>
      </trkpt>
      <trkpt lat="48.436" lon="2.72647">
        <ele>108.3</ele>
        <time>2018-11-18T10:28:05Z</time>
      </trkpt>
      <trkpt lat="48.436" lon="2.72644">
        <ele>108.3</ele>
        <time>2018-11-18T10:28:06Z</time>
      </trkpt>
      <trkpt lat="48.43601" lon="2.72642">
        <ele>108.4</ele>
        <time>2018-11-18T10:28:07Z</time>
      </trkpt>
      <trkpt lat="48.436" lon="2.72639">
        <ele>108.4</ele>
        <time>2018-11-18T10:28:08Z</time>
      </trkpt>
      <trkpt lat="48.436" lon="2.72636">
        <ele>108.4</ele>
        <time>2018-11-18T10:28:09Z</time>
      </trkpt>
      <trkpt lat="48.436" lon="2.72633">
        <ele>108.4</ele>
        <time>2018-11-18T10:28:10Z</time>
      </trkpt>
      <trkpt lat="48.436" lon="2.7263">
        <ele>108.4</ele>
        <time>2018-11-18T10:28:11Z</time>
      </trkpt>
      <trkpt lat="48.436" lon="2.72627">
        <ele>108.5</ele>
        <time>2018-11-18T10:28:12Z</time>
      </trkpt>
      <trkpt lat="48.43601" lon="2.72624">
        <ele>108.5</ele>
        <time>2018-11-18T10:28:13Z</time>
      </trkpt>
      <trkpt lat="48.43601" lon="2.72621">
        <ele>108.5</ele>
        <time>2018-11-18T10:28:14Z</time>
      </trkpt>
      <trkpt lat="48.43601" lon="2.72618">
        <ele>108.5</ele>
        <time>2018-11-18T10:28:15Z</time>
      </trkpt>
      <trkpt lat="48.43601" lon="2.72615">
        <ele>108.6</ele>
        <time>2018-11-18T10:28:16Z</time>
      </trkpt>
      <trkpt lat="48.43602" lon="2.72612">
        <ele>108.6</ele>
        <time>2018-11-18T10:28:17Z</time>
      </trkpt>
      <trkpt lat="48.43602" lon="2.72609">
        <ele>108.6</ele>
        <time>2018-11-18T10:28:18Z</time>
      </trkpt>
      <trkpt lat="48.43602" lon="2.72605">
        <ele>108.6</ele>
        <time>2018-11-18T10:28:19Z</time>
      </trkpt>
      <trkpt lat="48.43602" lon="2.72602">
        <ele>108.7</ele>
        <time>2018-11-18T10:28:20Z</time>
      </trkpt>
      <trkpt lat="48.43602" lon="2.72599">
        <ele>108.7</ele>
        <time>2018-11-18T10:28:21Z</time>
      </trkpt>
      <trkpt lat="48.43603" lon="2.72595">
        <ele>108.7</ele>
        <time>2018-11-18T10:28:22Z</time>
      </trkpt>
      <trkpt lat="48.43603" lon="2.72592">
        <ele>108.7</ele>
        <time>2018-11-18T10:28:23Z</time>
      </trkpt>
      <trkpt lat="48.43604" lon="2.72587">
        <ele>108.8</ele>
        <time>2018-11-18T10:28:24Z</time>
      </trkpt>
      <trkpt lat="48.43604" lon="2.72582">
        <ele>108.8</ele>
        <time>2018-11-18T10:28:25Z</time>
      </trkpt>
      <trkpt lat="48.43604" lon="2.72578">
        <ele>108.8</ele>
        <time>2018-11-18T10:28:26Z</time>
      </trkpt>
      <trkpt lat="48.43605" lon="2.72573">
        <ele>108.7</ele>
        <time>2018-11-18T10:28:27Z</time>
      </trkpt>
      <trkpt lat="48.43605" lon="2.72569">
        <ele>108.7</ele>
        <time>2018-11-18T10:28:28Z</time>
      </trkpt>
      <trkpt lat="48.43605" lon="2.72564">
        <ele>108.7</ele>
        <time>2018-11-18T10:28:29Z</time>
      </trkpt>
      <trkpt lat="48.43606" lon="2.7256">
        <ele>108.6</ele>
        <time>2018-11-18T10:28:30Z</time>
      </trkpt>
      <trkpt lat="48.43606" lon="2.72557">
        <ele>108.6</ele>
        <time>2018-11-18T10:28:31Z</time>
      </trkpt>
      <trkpt lat="48.43606" lon="2.72553">
        <ele>108.5</ele>
        <time>2018-11-18T10:28:32Z</time>
      </trkpt>
      <trkpt lat="48.43606" lon="2.72549">
        <ele>108.5</ele>
        <time>2018-11-18T10:28:33Z</time>
      </trkpt>
      <trkpt lat="48.43606" lon="2.72545">
        <ele>108.5</ele>
        <time>2018-11-18T10:28:34Z</time>
      </trkpt>
      <trkpt lat="48.43606" lon="2.7254">
        <ele>108.4</ele>
        <time>2018-11-18T10:28:35Z</time>
      </trkpt>
      <trkpt lat="48.43607" lon="2.72536">
        <ele>108.4</ele>
        <time>2018-11-18T10:28:36Z</time>
      </trkpt>
      <trkpt lat="48.43608" lon="2.72533">
        <ele>108.4</ele>
        <time>2018-11-18T10:28:37Z</time>
      </trkpt>
      <trkpt lat="48.43608" lon="2.72529">
        <ele>108.4</ele>
        <time>2018-11-18T10:28:38Z</time>
      </trkpt>
      <trkpt lat="48.43609" lon="2.72525">
        <ele>108.4</ele>
        <time>2018-11-18T10:28:39Z</time>
      </trkpt>
      <trkpt lat="48.4361" lon="2.7252">
        <ele>108.4</ele>
        <time>2018-11-18T10:28:40Z</time>
      </trkpt>
      <trkpt lat="48.4361" lon="2.72515">
        <ele>108.4</ele>
        <time>2018-11-18T10:28:41Z</time>
      </trkpt>
      <trkpt lat="48.43611" lon="2.7251">
        <ele>108.4</ele>
        <time>2018-11-18T10:28:42Z</time>
      </trkpt>
      <trkpt lat="48.43612" lon="2.72504">
        <ele>108.4</ele>
        <time>2018-11-18T10:28:43Z</time>
      </trkpt>
      <trkpt lat="48.43612" lon="2.72499">
        <ele>108.4</ele>
        <time>2018-11-18T10:28:44Z</time>
      </trkpt>
      <trkpt lat="48.43613" lon="2.72493">
        <ele>108.3</ele>
        <time>2018-11-18T10:28:45Z</time>
      </trkpt>
      <trkpt lat="48.43614" lon="2.72488">
        <ele>108.3</ele>
        <time>2018-11-18T10:28:46Z</time>
      </trkpt>
      <trkpt lat="48.43614" lon="2.72483">
        <ele>108.3</ele>
        <time>2018-11-18T10:28:47Z</time>
      </trkpt>
      <trkpt lat="48.43615" lon="2.72478">
        <ele>108.3</ele>
        <time>2018-11-18T10:28:48Z</time>
      </trkpt>
      <trkpt lat="48.43616" lon="2.72472">
        <ele>108.3</ele>
        <time>2018-11-18T10:28:49Z</time>
      </trkpt>
      <trkpt lat="48.43616" lon="2.72466">
        <ele>108.3</ele>
        <time>2018-11-18T10:28:50Z</time>
      </trkpt>
      <trkpt lat="48.43617" lon="2.7246">
        <ele>108.3</ele>
        <time>2018-11-18T10:28:51Z</time>
      </trkpt>
      <trkpt lat="48.43618" lon="2.72455">
        <ele>108.2</ele>
        <time>2018-11-18T10:28:52Z</time>
      </trkpt>
      <trkpt lat="48.43619" lon="2.72449">
        <ele>108.2</ele>
        <time>2018-11-18T10:28:53Z</time>
      </trkpt>
      <trkpt lat="48.43619" lon="2.72444">
        <ele>108.1</ele>
        <time>2018-11-18T10:28:54Z</time>
      </trkpt>
      <trkpt lat="48.4362" lon="2.72439">
        <ele>108</ele>
        <time>2018-11-18T10:28:55Z</time>
      </trkpt>
      <trkpt lat="48.4362" lon="2.72435">
        <ele>107.8</ele>
        <time>2018-11-18T10:28:56Z</time>
      </trkpt>
      <trkpt lat="48.43621" lon="2.72431">
        <ele>107.7</ele>
        <time>2018-11-18T10:28:57Z</time>
      </trkpt>
      <trkpt lat="48.43622" lon="2.72426">
        <ele>107.5</ele>
        <time>2018-11-18T10:28:58Z</time>
      </trkpt>
      <trkpt lat="48.43623" lon="2.72421">
        <ele>107.3</ele>
        <time>2018-11-18T10:28:59Z</time>
      </trkpt>
      <trkpt lat="48.43624" lon="2.72416">
        <ele>107.1</ele>
        <time>2018-11-18T10:29:00Z</time>
      </trkpt>
      <trkpt lat="48.43623" lon="2.7241">
        <ele>106.8</ele>
        <time>2018-11-18T10:29:01Z</time>
      </trkpt>
      <trkpt lat="48.43622" lon="2.72406">
        <ele>106.6</ele>
        <time>2018-11-18T10:29:02Z</time>
      </trkpt>
      <trkpt lat="48.43622" lon="2.72403">
        <ele>106.5</ele>
        <time>2018-11-18T10:29:03Z</time>
      </trkpt>
      <trkpt lat="48.4362" lon="2.724">
        <ele>106.3</ele>
        <time>2018-11-18T10:29:04Z</time>
      </trkpt>
      <trkpt lat="48.4362" lon="2.72395">
        <ele>106.2</ele>
        <time>2018-11-18T10:29:05Z</time>
      </trkpt>
      <trkpt lat="48.43619" lon="2.7239">
        <ele>106.1</ele>
        <time>2018-11-18T10:29:06Z</time>
      </trkpt>
      <trkpt lat="48.43617" lon="2.72386">
        <ele>106.1</ele>
        <time>2018-11-18T10:29:07Z</time>
      </trkpt>
      <trkpt lat="48.43616" lon="2.72383">
        <ele>106</ele>
        <time>2018-11-18T10:29:08Z</time>
      </trkpt>
      <trkpt lat="48.43614" lon="2.7238">
        <ele>106.1</ele>
        <time>2018-11-18T10:29:09Z</time>
      </trkpt>
      <trkpt lat="48.43611" lon="2.72378">
        <ele>106.1</ele>
        <time>2018-11-18T10:29:10Z</time>
      </trkpt>
      <trkpt lat="48.43608" lon="2.72376">
        <ele>106.3</ele>
        <time>2018-11-18T10:29:11Z</time>
      </trkpt>
      <trkpt lat="48.43606" lon="2.72374">
        <ele>106.3</ele>
        <time>2018-11-18T10:29:12Z</time>
      </trkpt>
      <trkpt lat="48.43603" lon="2.72373">
        <ele>106.5</ele>
        <time>2018-11-18T10:29:13Z</time>
      </trkpt>
      <trkpt lat="48.436" lon="2.72372">
        <ele>106.6</ele>
        <time>2018-11-18T10:29:14Z</time>
      </trkpt>
      <trkpt lat="48.43597" lon="2.72372">
        <ele>106.8</ele>
        <time>2018-11-18T10:29:15Z</time>
      </trkpt>
      <trkpt lat="48.43594" lon="2.72372">
        <ele>107</ele>
        <time>2018-11-18T10:29:16Z</time>
      </trkpt>
      <trkpt lat="48.43591" lon="2.72371">
        <ele>107.1</ele>
        <time>2018-11-18T10:29:17Z</time>
      </trkpt>
      <trkpt lat="48.43588" lon="2.72371">
        <ele>107.3</ele>
        <time>2018-11-18T10:29:18Z</time>
      </trkpt>
      <trkpt lat="48.43586" lon="2.7237">
        <ele>107.4</ele>
        <time>2018-11-18T10:29:19Z</time>
      </trkpt>
      <trkpt lat="48.43584" lon="2.7237">
        <ele>107.4</ele>
        <time>2018-11-18T10:29:20Z</time>
      </trkpt>
      <trkpt lat="48.43581" lon="2.7237">
        <ele>107.6</ele>
        <time>2018-11-18T10:29:21Z</time>
      </trkpt>
      <trkpt lat="48.43579" lon="2.7237">
        <ele>107.8</ele>
        <time>2018-11-18T10:29:22Z</time>
      </trkpt>
      <trkpt lat="48.43577" lon="2.72371">
        <ele>108</ele>
        <time>2018-11-18T10:29:23Z</time>
      </trkpt>
      <trkpt lat="48.43575" lon="2.72372">
        <ele>108</ele>
        <time>2018-11-18T10:29:24Z</time>
      </trkpt>
      <trkpt lat="48.43573" lon="2.72372">
        <ele>108.2</ele>
        <time>2018-11-18T10:29:25Z</time>
      </trkpt>
      <trkpt lat="48.43571" lon="2.72371">
        <ele>108.4</ele>
        <time>2018-11-18T10:29:26Z</time>
      </trkpt>
      <trkpt lat="48.4357" lon="2.72369">
        <ele>108.4</ele>
        <time>2018-11-18T10:29:27Z</time>
      </trkpt>
      <trkpt lat="48.43568" lon="2.72367">
        <ele>108.6</ele>
        <time>2018-11-18T10:29:28Z</time>
      </trkpt>
      <trkpt lat="48.43566" lon="2.72366">
        <ele>108.6</ele>
        <time>2018-11-18T10:29:29Z</time>
      </trkpt>
      <trkpt lat="48.43564" lon="2.72366">
        <ele>108.7</ele>
        <time>2018-11-18T10:29:30Z</time>
      </trkpt>
      <trkpt lat="48.43562" lon="2.72366">
        <ele>108.9</ele>
        <time>2018-11-18T10:29:31Z</time>
      </trkpt>
      <trkpt lat="48.43561" lon="2.72365">
        <ele>108.9</ele>
        <time>2018-11-18T10:29:32Z</time>
      </trkpt>
      <trkpt lat="48.4356" lon="2.72363">
        <ele>109.1</ele>
        <time>2018-11-18T10:29:33Z</time>
      </trkpt>
      <trkpt lat="48.43558" lon="2.72362">
        <ele>109.2</ele>
        <time>2018-11-18T10:29:34Z</time>
      </trkpt>
      <trkpt lat="48.43556" lon="2.72361">
        <ele>109.3</ele>
        <time>2018-11-18T10:29:35Z</time>
      </trkpt>
      <trkpt lat="48.43554" lon="2.72359">
        <ele>109.5</ele>
        <time>2018-11-18T10:29:36Z</time>
      </trkpt>
      <trkpt lat="48.43551" lon="2.72358">
        <ele>109.7</ele>
        <time>2018-11-18T10:29:37Z</time>
      </trkpt>
      <trkpt lat="48.4355" lon="2.72357">
        <ele>109.7</ele>
        <time>2018-11-18T10:29:38Z</time>
      </trkpt>
      <trkpt lat="48.43548" lon="2.72356">
        <ele>109.8</ele>
        <time>2018-11-18T10:29:39Z</time>
      </trkpt>
      <trkpt lat="48.43546" lon="2.72355">
        <ele>109.9</ele>
        <time>2018-11-18T10:29:40Z</time>
      </trkpt>
      <trkpt lat="48.43543" lon="2.72354">
        <ele>110</ele>
        <time>2018-11-18T10:29:41Z</time>
      </trkpt>
      <trkpt lat="48.4354" lon="2.72353">
        <ele>110</ele>
        <time>2018-11-18T10:29:42Z</time>
      </trkpt>
      <trkpt lat="48.43537" lon="2.72352">
        <ele>110</ele>
        <time>2018-11-18T10:29:43Z</time>
      </trkpt>
      <trkpt lat="48.43534" lon="2.72351">
        <ele>110</ele>
        <time>2018-11-18T10:29:44Z</time>
      </trkpt>
      <trkpt lat="48.43533" lon="2.7235">
        <ele>110</ele>
        <time>2018-11-18T10:29:45Z</time>
      </trkpt>
      <trkpt lat="48.43532" lon="2.72347">
        <ele>110</ele>
        <time>2018-11-18T10:29:46Z</time>
      </trkpt>
      <trkpt lat="48.43532" lon="2.72344">
        <ele>109.9</ele>
        <time>2018-11-18T10:29:47Z</time>
      </trkpt>
      <trkpt lat="48.43532" lon="2.72342">
        <ele>109.9</ele>
        <time>2018-11-18T10:29:48Z</time>
      </trkpt>
      <trkpt lat="48.43534" lon="2.72341">
        <ele>109.9</ele>
        <time>2018-11-18T10:29:49Z</time>
      </trkpt>
      <trkpt lat="48.43535" lon="2.7234">
        <ele>109.9</ele>
        <time>2018-11-18T10:29:50Z</time>
      </trkpt>
      <trkpt lat="48.43537" lon="2.72341">
        <ele>109.8</ele>
        <time>2018-11-18T10:29:51Z</time>
      </trkpt>
      <trkpt lat="48.43539" lon="2.7234">
        <ele>109.8</ele>
        <time>2018-11-18T10:29:52Z</time>
      </trkpt>
      <trkpt lat="48.4354" lon="2.72336">
        <ele>109.8</ele>
        <time>2018-11-18T10:29:53Z</time>
      </trkpt>
      <trkpt lat="48.4354" lon="2.72332">
        <ele>109.8</ele>
        <time>2018-11-18T10:29:54Z</time>
      </trkpt>
      <trkpt lat="48.43541" lon="2.72328">
        <ele>109.8</ele>
        <time>2018-11-18T10:29:55Z</time>
      </trkpt>
      <trkpt lat="48.43541" lon="2.72325">
        <ele>109.7</ele>
        <time>2018-11-18T10:29:56Z</time>
      </trkpt>
      <trkpt lat="48.43542" lon="2.72322">
        <ele>109.8</ele>
        <time>2018-11-18T10:29:57Z</time>
      </trkpt>
      <trkpt lat="48.43543" lon="2.72319">
        <ele>109.8</ele>
        <time>2018-11-18T10:29:58Z</time>
      </trkpt>
      <trkpt lat="48.43544" lon="2.72315">
        <ele>109.8</ele>
        <time>2018-11-18T10:29:59Z</time>
      </trkpt>
      <trkpt lat="48.43545" lon="2.72311">
        <ele>109.8</ele>
        <time>2018-11-18T10:30:00Z</time>
      </trkpt>
      <trkpt lat="48.43546" lon="2.72308">
        <ele>109.8</ele>
        <time>2018-11-18T10:30:01Z</time>
      </trkpt>
      <trkpt lat="48.43546" lon="2.72305">
        <ele>109.9</ele>
        <time>2018-11-18T10:30:02Z</time>
      </trkpt>
      <trkpt lat="48.43547" lon="2.72302">
        <ele>109.8</ele>
        <time>2018-11-18T10:30:03Z</time>
      </trkpt>
      <trkpt lat="48.43546" lon="2.72299">
        <ele>110</ele>
        <time>2018-11-18T10:30:04Z</time>
      </trkpt>
      <trkpt lat="48.43545" lon="2.72297">
        <ele>110</ele>
        <time>2018-11-18T10:30:05Z</time>
      </trkpt>
      <trkpt lat="48.43544" lon="2.72296">
        <ele>110</ele>
        <time>2018-11-18T10:30:06Z</time>
      </trkpt>
      <trkpt lat="48.43542" lon="2.72294">
        <ele>110.2</ele>
        <time>2018-11-18T10:30:07Z</time>
      </trkpt>
      <trkpt lat="48.4354" lon="2.72293">
        <ele>110.3</ele>
        <time>2018-11-18T10:30:08Z</time>
      </trkpt>
      <trkpt lat="48.43538" lon="2.72293">
        <ele>110.3</ele>
        <time>2018-11-18T10:30:09Z</time>
      </trkpt>
      <trkpt lat="48.43537" lon="2.72291">
        <ele>110.4</ele>
        <time>2018-11-18T10:30:10Z</time>
      </trkpt>
      <trkpt lat="48.43536" lon="2.72288">
        <ele>110.4</ele>
        <time>2018-11-18T10:30:11Z</time>
      </trkpt>
      <trkpt lat="48.43536" lon="2.72285">
        <ele>110.4</ele>
        <time>2018-11-18T10:30:12Z</time>
      </trkpt>
      <trkpt lat="48.43535" lon="2.72281">
        <ele>110.4</ele>
        <time>2018-11-18T10:30:13Z</time>
      </trkpt>
      <trkpt lat="48.43536" lon="2.72278">
        <ele>110.4</ele>
        <time>2018-11-18T10:30:14Z</time>
      </trkpt>
      <trkpt lat="48.43536" lon="2.72276">
        <ele>110.3</ele>
        <time>2018-11-18T10:30:15Z</time>
      </trkpt>
      <trkpt lat="48.43537" lon="2.72274">
        <ele>110.3</ele>
        <time>2018-11-18T10:30:16Z</time>
      </trkpt>
      <trkpt lat="48.43539" lon="2.72272">
        <ele>110.2</ele>
        <time>2018-11-18T10:30:17Z</time>
      </trkpt>
      <trkpt lat="48.43542" lon="2.7227">
        <ele>110.1</ele>
        <time>2018-11-18T10:30:18Z</time>
      </trkpt>
      <trkpt lat="48.43545" lon="2.72268">
        <ele>110</ele>
        <time>2018-11-18T10:30:19Z</time>
      </trkpt>
      <trkpt lat="48.43548" lon="2.72267">
        <ele>109.9</ele>
        <time>2018-11-18T10:30:20Z</time>
      </trkpt>
      <trkpt lat="48.43551" lon="2.72266">
        <ele>109.7</ele>
        <time>2018-11-18T10:30:21Z</time>
      </trkpt>
      <trkpt lat="48.43554" lon="2.72265">
        <ele>109.5</ele>
        <time>2018-11-18T10:30:22Z</time>
      </trkpt>
      <trkpt lat="48.43557" lon="2.72264">
        <ele>109.3</ele>
        <time>2018-11-18T10:30:23Z</time>
      </trkpt>
      <trkpt lat="48.43559" lon="2.72263">
        <ele>109.1</ele>
        <time>2018-11-18T10:30:24Z</time>
      </trkpt>
      <trkpt lat="48.43561" lon="2.72262">
        <ele>108.8</ele>
        <time>2018-11-18T10:30:25Z</time>
      </trkpt>
      <trkpt lat="48.43561" lon="2.72262">
        <ele>108.8</ele>
        <time>2018-11-18T10:30:26Z</time>
      </trkpt>
      <trkpt lat="48.43561" lon="2.72262">
        <ele>108.8</ele>
        <time>2018-11-18T10:30:27Z</time>
      </trkpt>
      <trkpt lat="48.43562" lon="2.72262">
        <ele>108.8</ele>
        <time>2018-11-18T10:30:28Z</time>
      </trkpt>
      <trkpt lat="48.43562" lon="2.72262">
        <ele>108.8</ele>
        <time>2018-11-18T10:30:29Z</time>
      </trkpt>
      <trkpt lat="48.43562" lon="2.72262">
        <ele>108.8</ele>
        <time>2018-11-18T10:30:30Z</time>
      </trkpt>
      <trkpt lat="48.43562" lon="2.72262">
        <ele>108.8</ele>
        <time>2018-11-18T10:30:31Z</time>
      </trkpt>
      <trkpt lat="48.43562" lon="2.72262">
        <ele>108.8</ele>
        <time>2018-11-18T10:30:32Z</time>
      </trkpt>
      <trkpt lat="48.43562" lon="2.72262">
        <ele>108.8</ele>
        <time>2018-11-18T10:30:33Z</time>
      </trkpt>
      <trkpt lat="48.43562" lon="2.72262">
        <ele>108.8</ele>
        <time>2018-11-18T10:30:34Z</time>
      </trkpt>
      <trkpt lat="48.43562" lon="2.72262">
        <ele>108.8</ele>
        <time>2018-11-18T10:30:35Z</time>
      </trkpt>
      <trkpt lat="48.43568" lon="2.72254">
        <ele>108.4</ele>
        <time>2018-11-18T10:31:13Z</time>
      </trkpt>
      <trkpt lat="48.43571" lon="2.72253">
        <ele>108.1</ele>
        <time>2018-11-18T10:31:14Z</time>
      </trkpt>
      <trkpt lat="48.43573" lon="2.72251">
        <ele>107.8</ele>
        <time>2018-11-18T10:31:15Z</time>
      </trkpt>
      <trkpt lat="48.43574" lon="2.7225">
        <ele>107.9</ele>
        <time>2018-11-18T10:31:16Z</time>
      </trkpt>
      <trkpt lat="48.43576" lon="2.72249">
        <ele>107.6</ele>
        <time>2018-11-18T10:31:17Z</time>
      </trkpt>
      <trkpt lat="48.43577" lon="2.72249">
        <ele>107.6</ele>
        <time>2018-11-18T10:31:18Z</time>
      </trkpt>
      <trkpt lat="48.4358" lon="2.7225">
        <ele>107.3</ele>
        <time>2018-11-18T10:31:19Z</time>
      </trkpt>
      <trkpt lat="48.43583" lon="2.7225">
        <ele>107</ele>
        <time>2018-11-18T10:31:20Z</time>
      </trkpt>
      <trkpt lat="48.43585" lon="2.72249">
        <ele>106.7</ele>
        <time>2018-11-18T10:31:21Z</time>
      </trkpt>
      <trkpt lat="48.43587" lon="2.72247">
        <ele>106.4</ele>
        <time>2018-11-18T10:31:22Z</time>
      </trkpt>
      <trkpt lat="48.43589" lon="2.72246">
        <ele>106.5</ele>
        <time>2018-11-18T10:31:23Z</time>
      </trkpt>
      <trkpt lat="48.4359" lon="2.72245">
        <ele>106.2</ele>
        <time>2018-11-18T10:31:24Z</time>
      </trkpt>
      <trkpt lat="48.43592" lon="2.72243">
        <ele>106</ele>
        <time>2018-11-18T10:31:25Z</time>
      </trkpt>
      <trkpt lat="48.43594" lon="2.7224">
        <ele>106.1</ele>
        <time>2018-11-18T10:31:26Z</time>
      </trkpt>
      <trkpt lat="48.43595" lon="2.72237">
        <ele>105.9</ele>
        <time>2018-11-18T10:31:27Z</time>
      </trkpt>
      <trkpt lat="48.43596" lon="2.72234">
        <ele>105.9</ele>
        <time>2018-11-18T10:31:28Z</time>
      </trkpt>
      <trkpt lat="48.43597" lon="2.72232">
        <ele>106</ele>
        <time>2018-11-18T10:31:29Z</time>
      </trkpt>
      <trkpt lat="48.43598" lon="2.7223">
        <ele>105.8</ele>
        <time>2018-11-18T10:31:30Z</time>
      </trkpt>
      <trkpt lat="48.43599" lon="2.72228">
        <ele>105.9</ele>
        <time>2018-11-18T10:31:31Z</time>
      </trkpt>
      <trkpt lat="48.43601" lon="2.72225">
        <ele>105.8</ele>
        <time>2018-11-18T10:31:32Z</time>
      </trkpt>
      <trkpt lat="48.43602" lon="2.72223">
        <ele>105.8</ele>
        <time>2018-11-18T10:31:33Z</time>
      </trkpt>
      <trkpt lat="48.43603" lon="2.7222">
        <ele>105.8</ele>
        <time>2018-11-18T10:31:34Z</time>
      </trkpt>
      <trkpt lat="48.43604" lon="2.72217">
        <ele>105.8</ele>
        <time>2018-11-18T10:31:35Z</time>
      </trkpt>
      <trkpt lat="48.43605" lon="2.72215">
        <ele>105.8</ele>
        <time>2018-11-18T10:31:36Z</time>
      </trkpt>
      <trkpt lat="48.43606" lon="2.72212">
        <ele>105.9</ele>
        <time>2018-11-18T10:31:37Z</time>
      </trkpt>
      <trkpt lat="48.43607" lon="2.72209">
        <ele>105.8</ele>
        <time>2018-11-18T10:31:38Z</time>
      </trkpt>
      <trkpt lat="48.43608" lon="2.72206">
        <ele>105.8</ele>
        <time>2018-11-18T10:31:39Z</time>
      </trkpt>
      <trkpt lat="48.4361" lon="2.72203">
        <ele>105.8</ele>
        <time>2018-11-18T10:31:40Z</time>
      </trkpt>
      <trkpt lat="48.43611" lon="2.72199">
        <ele>105.8</ele>
        <time>2018-11-18T10:31:41Z</time>
      </trkpt>
      <trkpt lat="48.43612" lon="2.72196">
        <ele>105.8</ele>
        <time>2018-11-18T10:31:42Z</time>
      </trkpt>
      <trkpt lat="48.43613" lon="2.72193">
        <ele>105.8</ele>
        <time>2018-11-18T10:31:43Z</time>
      </trkpt>
      <trkpt lat="48.43615" lon="2.72189">
        <ele>105.8</ele>
        <time>2018-11-18T10:31:44Z</time>
      </trkpt>
      <trkpt lat="48.43616" lon="2.72186">
        <ele>105.8</ele>
        <time>2018-11-18T10:31:45Z</time>
      </trkpt>
      <trkpt lat="48.43617" lon="2.72183">
        <ele>105.8</ele>
        <time>2018-11-18T10:31:46Z</time>
      </trkpt>
      <trkpt lat="48.43618" lon="2.72179">
        <ele>105.7</ele>
        <time>2018-11-18T10:31:47Z</time>
      </trkpt>
      <trkpt lat="48.43619" lon="2.72176">
        <ele>105.8</ele>
        <time>2018-11-18T10:31:48Z</time>
      </trkpt>
      <trkpt lat="48.43621" lon="2.72173">
        <ele>105.7</ele>
        <time>2018-11-18T10:31:49Z</time>
      </trkpt>
      <trkpt lat="48.43623" lon="2.72172">
        <ele>105.7</ele>
        <time>2018-11-18T10:31:50Z</time>
      </trkpt>
      <trkpt lat="48.43625" lon="2.72169">
        <ele>105.7</ele>
        <time>2018-11-18T10:31:51Z</time>
      </trkpt>
      <trkpt lat="48.43626" lon="2.72167">
        <ele>105.7</ele>
        <time>2018-11-18T10:31:52Z</time>
      </trkpt>
      <trkpt lat="48.43627" lon="2.72165">
        <ele>105.6</ele>
        <time>2018-11-18T10:31:53Z</time>
      </trkpt>
      <trkpt lat="48.43629" lon="2.72161">
        <ele>105.6</ele>
        <time>2018-11-18T10:31:54Z</time>
      </trkpt>
      <trkpt lat="48.43631" lon="2.72158">
        <ele>105.5</ele>
        <time>2018-11-18T10:31:55Z</time>
      </trkpt>
      <trkpt lat="48.43633" lon="2.72156">
        <ele>105.4</ele>
        <time>2018-11-18T10:31:56Z</time>
      </trkpt>
      <trkpt lat="48.43635" lon="2.72153">
        <ele>105.4</ele>
        <time>2018-11-18T10:31:57Z</time>
      </trkpt>
      <trkpt lat="48.43638" lon="2.72151">
        <ele>105.2</ele>
        <time>2018-11-18T10:31:58Z</time>
      </trkpt>
      <trkpt lat="48.43641" lon="2.72148">
        <ele>105.2</ele>
        <time>2018-11-18T10:31:59Z</time>
      </trkpt>
      <trkpt lat="48.43643" lon="2.72144">
        <ele>105.1</ele>
        <time>2018-11-18T10:32:00Z</time>
      </trkpt>
      <trkpt lat="48.43644" lon="2.7214">
        <ele>104.9</ele>
        <time>2018-11-18T10:32:01Z</time>
      </trkpt>
      <trkpt lat="48.43645" lon="2.72137">
        <ele>104.8</ele>
        <time>2018-11-18T10:32:02Z</time>
      </trkpt>
      <trkpt lat="48.43645" lon="2.72133">
        <ele>104.7</ele>
        <time>2018-11-18T10:32:03Z</time>
      </trkpt>
      <trkpt lat="48.43645" lon="2.7213">
        <ele>104.5</ele>
        <time>2018-11-18T10:32:04Z</time>
      </trkpt>
      <trkpt lat="48.43643" lon="2.72128">
        <ele>104.5</ele>
        <time>2018-11-18T10:32:05Z</time>
      </trkpt>
      <trkpt lat="48.43642" lon="2.72127">
        <ele>104.6</ele>
        <time>2018-11-18T10:32:06Z</time>
      </trkpt>
      <trkpt lat="48.43641" lon="2.72128">
        <ele>104.6</ele>
        <time>2018-11-18T10:32:07Z</time>
      </trkpt>
      <trkpt lat="48.43639" lon="2.72128">
        <ele>104.7</ele>
        <time>2018-11-18T10:32:08Z</time>
      </trkpt>
      <trkpt lat="48.43637" lon="2.72128">
        <ele>104.8</ele>
        <time>2018-11-18T10:32:09Z</time>
      </trkpt>
      <trkpt lat="48.43636" lon="2.72127">
        <ele>104.8</ele>
        <time>2018-11-18T10:32:10Z</time>
      </trkpt>
      <trkpt lat="48.43635" lon="2.72125">
        <ele>104.7</ele>
        <time>2018-11-18T10:32:11Z</time>
      </trkpt>
      <trkpt lat="48.43635" lon="2.72123">
        <ele>104.7</ele>
        <time>2018-11-18T10:32:12Z</time>
      </trkpt>
      <trkpt lat="48.43635" lon="2.7212">
        <ele>104.6</ele>
        <time>2018-11-18T10:32:13Z</time>
      </trkpt>
      <trkpt lat="48.43635" lon="2.72116">
        <ele>104.5</ele>
        <time>2018-11-18T10:32:14Z</time>
      </trkpt>
      <trkpt lat="48.43636" lon="2.72112">
        <ele>104.4</ele>
        <time>2018-11-18T10:32:15Z</time>
      </trkpt>
      <trkpt lat="48.43636" lon="2.72109">
        <ele>104.4</ele>
        <time>2018-11-18T10:32:16Z</time>
      </trkpt>
      <trkpt lat="48.43637" lon="2.72105">
        <ele>104.3</ele>
        <time>2018-11-18T10:32:17Z</time>
      </trkpt>
      <trkpt lat="48.43638" lon="2.72101">
        <ele>104</ele>
        <time>2018-11-18T10:32:18Z</time>
      </trkpt>
      <trkpt lat="48.43639" lon="2.72097">
        <ele>103.9</ele>
        <time>2018-11-18T10:32:19Z</time>
      </trkpt>
      <trkpt lat="48.4364" lon="2.72094">
        <ele>103.8</ele>
        <time>2018-11-18T10:32:20Z</time>
      </trkpt>
      <trkpt lat="48.43642" lon="2.72092">
        <ele>103.6</ele>
        <time>2018-11-18T10:32:21Z</time>
      </trkpt>
      <trkpt lat="48.43643" lon="2.72092">
        <ele>103.5</ele>
        <time>2018-11-18T10:32:22Z</time>
      </trkpt>
      <trkpt lat="48.43645" lon="2.72093">
        <ele>103.5</ele>
        <time>2018-11-18T10:32:23Z</time>
      </trkpt>
      <trkpt lat="48.43646" lon="2.72093">
        <ele>103.4</ele>
        <time>2018-11-18T10:32:24Z</time>
      </trkpt>
      <trkpt lat="48.43647" lon="2.72092">
        <ele>103.4</ele>
        <time>2018-11-18T10:32:25Z</time>
      </trkpt>
      <trkpt lat="48.43648" lon="2.72091">
        <ele>103.3</ele>
        <time>2018-11-18T10:32:26Z</time>
      </trkpt>
      <trkpt lat="48.43649" lon="2.72089">
        <ele>103.1</ele>
        <time>2018-11-18T10:32:27Z</time>
      </trkpt>
      <trkpt lat="48.43651" lon="2.72086">
        <ele>103</ele>
        <time>2018-11-18T10:32:28Z</time>
      </trkpt>
      <trkpt lat="48.43651" lon="2.72082">
        <ele>102.9</ele>
        <time>2018-11-18T10:32:29Z</time>
      </trkpt>
      <trkpt lat="48.43651" lon="2.7208">
        <ele>102.9</ele>
        <time>2018-11-18T10:32:30Z</time>
      </trkpt>
      <trkpt lat="48.43649" lon="2.72078">
        <ele>102.9</ele>
        <time>2018-11-18T10:32:31Z</time>
      </trkpt>
      <trkpt lat="48.43647" lon="2.72075">
        <ele>103</ele>
        <time>2018-11-18T10:32:32Z</time>
      </trkpt>
      <trkpt lat="48.43645" lon="2.72073">
        <ele>103.1</ele>
        <time>2018-11-18T10:32:33Z</time>
      </trkpt>
      <trkpt lat="48.43643" lon="2.72071">
        <ele>103.1</ele>
        <time>2018-11-18T10:32:34Z</time>
      </trkpt>
      <trkpt lat="48.43641" lon="2.7207">
        <ele>103.3</ele>
        <time>2018-11-18T10:32:35Z</time>
      </trkpt>
      <trkpt lat="48.43641" lon="2.72067">
        <ele>103.3</ele>
        <time>2018-11-18T10:32:36Z</time>
      </trkpt>
      <trkpt lat="48.43641" lon="2.72063">
        <ele>103.2</ele>
        <time>2018-11-18T10:32:37Z</time>
      </trkpt>
      <trkpt lat="48.43641" lon="2.7206">
        <ele>103.2</ele>
        <time>2018-11-18T10:32:38Z</time>
      </trkpt>
      <trkpt lat="48.43642" lon="2.72057">
        <ele>103.2</ele>
        <time>2018-11-18T10:32:39Z</time>
      </trkpt>
      <trkpt lat="48.43643" lon="2.72055">
        <ele>103</ele>
        <time>2018-11-18T10:32:40Z</time>
      </trkpt>
      <trkpt lat="48.43645" lon="2.72053">
        <ele>103</ele>
        <time>2018-11-18T10:32:41Z</time>
      </trkpt>
      <trkpt lat="48.43645" lon="2.72051">
        <ele>103</ele>
        <time>2018-11-18T10:32:42Z</time>
      </trkpt>
      <trkpt lat="48.43646" lon="2.72048">
        <ele>103</ele>
        <time>2018-11-18T10:32:43Z</time>
      </trkpt>
      <trkpt lat="48.43646" lon="2.72045">
        <ele>102.9</ele>
        <time>2018-11-18T10:32:44Z</time>
      </trkpt>
      <trkpt lat="48.43647" lon="2.72042">
        <ele>102.9</ele>
        <time>2018-11-18T10:32:45Z</time>
      </trkpt>
      <trkpt lat="48.43646" lon="2.72039">
        <ele>103</ele>
        <time>2018-11-18T10:32:46Z</time>
      </trkpt>
      <trkpt lat="48.43645" lon="2.72039">
        <ele>103</ele>
        <time>2018-11-18T10:32:47Z</time>
      </trkpt>
      <trkpt lat="48.43643" lon="2.7204">
        <ele>103</ele>
        <time>2018-11-18T10:32:48Z</time>
      </trkpt>
      <trkpt lat="48.43642" lon="2.72042">
        <ele>103.2</ele>
        <time>2018-11-18T10:32:49Z</time>
      </trkpt>
      <trkpt lat="48.43641" lon="2.72043">
        <ele>103.2</ele>
        <time>2018-11-18T10:32:50Z</time>
      </trkpt>
      <trkpt lat="48.43639" lon="2.72043">
        <ele>103.3</ele>
        <time>2018-11-18T10:32:51Z</time>
      </trkpt>
      <trkpt lat="48.43638" lon="2.72042">
        <ele>103.3</ele>
        <time>2018-11-18T10:32:52Z</time>
      </trkpt>
      <trkpt lat="48.43637" lon="2.7204">
        <ele>103.5</ele>
        <time>2018-11-18T10:32:53Z</time>
      </trkpt>
      <trkpt lat="48.43636" lon="2.72038">
        <ele>103.5</ele>
        <time>2018-11-18T10:32:54Z</time>
      </trkpt>
      <trkpt lat="48.43635" lon="2.72036">
        <ele>103.7</ele>
        <time>2018-11-18T10:32:55Z</time>
      </trkpt>
      <trkpt lat="48.43633" lon="2.72034">
        <ele>103.7</ele>
        <time>2018-11-18T10:32:56Z</time>
      </trkpt>
      <trkpt lat="48.43632" lon="2.72031">
        <ele>103.6</ele>
        <time>2018-11-18T10:32:57Z</time>
      </trkpt>
      <trkpt lat="48.43632" lon="2.72028">
        <ele>103.8</ele>
        <time>2018-11-18T10:32:58Z</time>
      </trkpt>
      <trkpt lat="48.43631" lon="2.72026">
        <ele>103.7</ele>
        <time>2018-11-18T10:32:59Z</time>
      </trkpt>
      <trkpt lat="48.4363" lon="2.72024">
        <ele>103.7</ele>
        <time>2018-11-18T10:33:00Z</time>
      </trkpt>
      <trkpt lat="48.43628" lon="2.72022">
        <ele>103.9</ele>
        <time>2018-11-18T10:33:01Z</time>
      </trkpt>
      <trkpt lat="48.43627" lon="2.7202">
        <ele>103.9</ele>
        <time>2018-11-18T10:33:02Z</time>
      </trkpt>
      <trkpt lat="48.43626" lon="2.72017">
        <ele>104</ele>
        <time>2018-11-18T10:33:03Z</time>
      </trkpt>
      <trkpt lat="48.43625" lon="2.72014">
        <ele>103.9</ele>
        <time>2018-11-18T10:33:04Z</time>
      </trkpt>
      <trkpt lat="48.43624" lon="2.72011">
        <ele>103.9</ele>
        <time>2018-11-18T10:33:05Z</time>
      </trkpt>
      <trkpt lat="48.43623" lon="2.72008">
        <ele>104</ele>
        <time>2018-11-18T10:33:06Z</time>
      </trkpt>
      <trkpt lat="48.43622" lon="2.72005">
        <ele>104</ele>
        <time>2018-11-18T10:33:07Z</time>
      </trkpt>
      <trkpt lat="48.43622" lon="2.72001">
        <ele>104</ele>
        <time>2018-11-18T10:33:08Z</time>
      </trkpt>
      <trkpt lat="48.43621" lon="2.71997">
        <ele>103.9</ele>
        <time>2018-11-18T10:33:09Z</time>
      </trkpt>
      <trkpt lat="48.4362" lon="2.71995">
        <ele>104.1</ele>
        <time>2018-11-18T10:33:10Z</time>
      </trkpt>
      <trkpt lat="48.43618" lon="2.71992">
        <ele>104</ele>
        <time>2018-11-18T10:33:11Z</time>
      </trkpt>
      <trkpt lat="48.43617" lon="2.71991">
        <ele>104.2</ele>
        <time>2018-11-18T10:33:12Z</time>
      </trkpt>
      <trkpt lat="48.43616" lon="2.7199">
        <ele>104.2</ele>
        <time>2018-11-18T10:33:13Z</time>
      </trkpt>
      <trkpt lat="48.43615" lon="2.71989">
        <ele>104.2</ele>
        <time>2018-11-18T10:33:14Z</time>
      </trkpt>
      <trkpt lat="48.43614" lon="2.71988">
        <ele>104.3</ele>
        <time>2018-11-18T10:33:15Z</time>
      </trkpt>
      <trkpt lat="48.43613" lon="2.71987">
        <ele>104.3</ele>
        <time>2018-11-18T10:33:16Z</time>
      </trkpt>
      <trkpt lat="48.43612" lon="2.71985">
        <ele>104.5</ele>
        <time>2018-11-18T10:33:17Z</time>
      </trkpt>
      <trkpt lat="48.43611" lon="2.71982">
        <ele>104.5</ele>
        <time>2018-11-18T10:33:18Z</time>
      </trkpt>
      <trkpt lat="48.43611" lon="2.71979">
        <ele>104.5</ele>
        <time>2018-11-18T10:33:19Z</time>
      </trkpt>
      <trkpt lat="48.43611" lon="2.71977">
        <ele>104.5</ele>
        <time>2018-11-18T10:33:20Z</time>
      </trkpt>
      <trkpt lat="48.43612" lon="2.71974">
        <ele>104.5</ele>
        <time>2018-11-18T10:33:21Z</time>
      </trkpt>
      <trkpt lat="48.43612" lon="2.71971">
        <ele>104.3</ele>
        <time>2018-11-18T10:33:22Z</time>
      </trkpt>
      <trkpt lat="48.43612" lon="2.71969">
        <ele>104.3</ele>
        <time>2018-11-18T10:33:23Z</time>
      </trkpt>
      <trkpt lat="48.43613" lon="2.71967">
        <ele>104.3</ele>
        <time>2018-11-18T10:33:24Z</time>
      </trkpt>
      <trkpt lat="48.43613" lon="2.71965">
        <ele>104.3</ele>
        <time>2018-11-18T10:33:25Z</time>
      </trkpt>
      <trkpt lat="48.43613" lon="2.71962">
        <ele>104.4</ele>
        <time>2018-11-18T10:33:26Z</time>
      </trkpt>
      <trkpt lat="48.43613" lon="2.71959">
        <ele>104.4</ele>
        <time>2018-11-18T10:33:27Z</time>
      </trkpt>
      <trkpt lat="48.43614" lon="2.71957">
        <ele>104.4</ele>
        <time>2018-11-18T10:33:28Z</time>
      </trkpt>
      <trkpt lat="48.43614" lon="2.71955">
        <ele>104.4</ele>
        <time>2018-11-18T10:33:29Z</time>
      </trkpt>
      <trkpt lat="48.43614" lon="2.71955">
        <ele>104.4</ele>
        <time>2018-11-18T10:33:30Z</time>
      </trkpt>
      <trkpt lat="48.43614" lon="2.71954">
        <ele>104.4</ele>
        <time>2018-11-18T10:33:31Z</time>
      </trkpt>
      <trkpt lat="48.43614" lon="2.71953">
        <ele>104.4</ele>
        <time>2018-11-18T10:33:32Z</time>
      </trkpt>
      <trkpt lat="48.43612" lon="2.71959">
        <ele>104.6</ele>
        <time>2018-11-18T10:34:57Z</time>
      </trkpt>
      <trkpt lat="48.43611" lon="2.71962">
        <ele>104.6</ele>
        <time>2018-11-18T10:34:58Z</time>
      </trkpt>
      <trkpt lat="48.43612" lon="2.71964">
        <ele>104.4</ele>
        <time>2018-11-18T10:34:59Z</time>
      </trkpt>
      <trkpt lat="48.43613" lon="2.71966">
        <ele>104.2</ele>
        <time>2018-11-18T10:35:00Z</time>
      </trkpt>
      <trkpt lat="48.43614" lon="2.71967">
        <ele>104.2</ele>
        <time>2018-11-18T10:35:01Z</time>
      </trkpt>
      <trkpt lat="48.43614" lon="2.71969">
        <ele>104.2</ele>
        <time>2018-11-18T10:35:02Z</time>
      </trkpt>
      <trkpt lat="48.43616" lon="2.71972">
        <ele>103.9</ele>
        <time>2018-11-18T10:35:03Z</time>
      </trkpt>
      <trkpt lat="48.43617" lon="2.71975">
        <ele>103.9</ele>
        <time>2018-11-18T10:35:04Z</time>
      </trkpt>
      <trkpt lat="48.43617" lon="2.71978">
        <ele>103.9</ele>
        <time>2018-11-18T10:35:05Z</time>
      </trkpt>
      <trkpt lat="48.43618" lon="2.71981">
        <ele>104</ele>
        <time>2018-11-18T10:35:06Z</time>
      </trkpt>
      <trkpt lat="48.43618" lon="2.71983">
        <ele>103.7</ele>
        <time>2018-11-18T10:35:07Z</time>
      </trkpt>
      <trkpt lat="48.43618" lon="2.71984">
        <ele>103.7</ele>
        <time>2018-11-18T10:35:08Z</time>
      </trkpt>
      <trkpt lat="48.43618" lon="2.71985">
        <ele>103.7</ele>
        <time>2018-11-18T10:35:09Z</time>
      </trkpt>
      <trkpt lat="48.43618" lon="2.71985">
        <ele>103.7</ele>
        <time>2018-11-18T10:35:10Z</time>
      </trkpt>
      <trkpt lat="48.43618" lon="2.71985">
        <ele>103.7</ele>
        <time>2018-11-18T10:35:11Z</time>
      </trkpt>
      <trkpt lat="48.43618" lon="2.71994">
        <ele>103.7</ele>
        <time>2018-11-18T10:36:34Z</time>
      </trkpt>
      <trkpt lat="48.43618" lon="2.71998">
        <ele>103.7</ele>
        <time>2018-11-18T10:36:35Z</time>
      </trkpt>
      <trkpt lat="48.43618" lon="2.71999">
        <ele>103.7</ele>
        <time>2018-11-18T10:36:36Z</time>
      </trkpt>
      <trkpt lat="48.43617" lon="2.72001">
        <ele>103.9</ele>
        <time>2018-11-18T10:36:37Z</time>
      </trkpt>
      <trkpt lat="48.43617" lon="2.72001">
        <ele>103.8</ele>
        <time>2018-11-18T10:36:38Z</time>
      </trkpt>
      <trkpt lat="48.43617" lon="2.72002">
        <ele>103.8</ele>
        <time>2018-11-18T10:36:39Z</time>
      </trkpt>
      <trkpt lat="48.43617" lon="2.72002">
        <ele>103.8</ele>
        <time>2018-11-18T10:36:40Z</time>
      </trkpt>
      <trkpt lat="48.43617" lon="2.72002">
        <ele>103.8</ele>
        <time>2018-11-18T10:36:41Z</time>
      </trkpt>
      <trkpt lat="48.43609" lon="2.71978">
        <ele>104.1</ele>
        <time>2018-11-18T10:39:15Z</time>
      </trkpt>
      <trkpt lat="48.43608" lon="2.71976">
        <ele>104.1</ele>
        <time>2018-11-18T10:39:16Z</time>
      </trkpt>
      <trkpt lat="48.43609" lon="2.71974">
        <ele>104.1</ele>
        <time>2018-11-18T10:39:17Z</time>
      </trkpt>
      <trkpt lat="48.4361" lon="2.71971">
        <ele>103.9</ele>
        <time>2018-11-18T10:39:18Z</time>
      </trkpt>
      <trkpt lat="48.43611" lon="2.71968">
        <ele>103.9</ele>
        <time>2018-11-18T10:39:19Z</time>
      </trkpt>
      <trkpt lat="48.43611" lon="2.71965">
        <ele>103.8</ele>
        <time>2018-11-18T10:39:20Z</time>
      </trkpt>
      <trkpt lat="48.43612" lon="2.71962">
        <ele>103.9</ele>
        <time>2018-11-18T10:39:21Z</time>
      </trkpt>
      <trkpt lat="48.43612" lon="2.71959">
        <ele>103.7</ele>
        <time>2018-11-18T10:39:22Z</time>
      </trkpt>
      <trkpt lat="48.43613" lon="2.71956">
        <ele>103.7</ele>
        <time>2018-11-18T10:39:23Z</time>
      </trkpt>
      <trkpt lat="48.43614" lon="2.71953">
        <ele>103.6</ele>
        <time>2018-11-18T10:39:24Z</time>
      </trkpt>
      <trkpt lat="48.43614" lon="2.7195">
        <ele>103.6</ele>
        <time>2018-11-18T10:39:25Z</time>
      </trkpt>
      <trkpt lat="48.43613" lon="2.71946">
        <ele>103.6</ele>
        <time>2018-11-18T10:39:26Z</time>
      </trkpt>
      <trkpt lat="48.43613" lon="2.71943">
        <ele>103.7</ele>
        <time>2018-11-18T10:39:27Z</time>
      </trkpt>
      <trkpt lat="48.43612" lon="2.7194">
        <ele>103.6</ele>
        <time>2018-11-18T10:39:28Z</time>
      </trkpt>
      <trkpt lat="48.43612" lon="2.71937">
        <ele>103.6</ele>
        <time>2018-11-18T10:39:29Z</time>
      </trkpt>
      <trkpt lat="48.43613" lon="2.71934">
        <ele>103.6</ele>
        <time>2018-11-18T10:39:30Z</time>
      </trkpt>
      <trkpt lat="48.43613" lon="2.71931">
        <ele>103.6</ele>
        <time>2018-11-18T10:39:31Z</time>
      </trkpt>
      <trkpt lat="48.43613" lon="2.71927">
        <ele>103.6</ele>
        <time>2018-11-18T10:39:32Z</time>
      </trkpt>
      <trkpt lat="48.43613" lon="2.71924">
        <ele>103.6</ele>
        <time>2018-11-18T10:39:33Z</time>
      </trkpt>
      <trkpt lat="48.43612" lon="2.71923">
        <ele>103.6</ele>
        <time>2018-11-18T10:39:34Z</time>
      </trkpt>
      <trkpt lat="48.4361" lon="2.71923">
        <ele>103.7</ele>
        <time>2018-11-18T10:39:35Z</time>
      </trkpt>
      <trkpt lat="48.43609" lon="2.71923">
        <ele>103.9</ele>
        <time>2018-11-18T10:39:36Z</time>
      </trkpt>
      <trkpt lat="48.43607" lon="2.71923">
        <ele>103.8</ele>
        <time>2018-11-18T10:39:37Z</time>
      </trkpt>
      <trkpt lat="48.43606" lon="2.71922">
        <ele>104</ele>
        <time>2018-11-18T10:39:38Z</time>
      </trkpt>
      <trkpt lat="48.43605" lon="2.7192">
        <ele>104</ele>
        <time>2018-11-18T10:39:39Z</time>
      </trkpt>
      <trkpt lat="48.43605" lon="2.71918">
        <ele>104</ele>
        <time>2018-11-18T10:39:40Z</time>
      </trkpt>
      <trkpt lat="48.43603" lon="2.71916">
        <ele>104.1</ele>
        <time>2018-11-18T10:39:41Z</time>
      </trkpt>
      <trkpt lat="48.43602" lon="2.71916">
        <ele>104</ele>
        <time>2018-11-18T10:39:42Z</time>
      </trkpt>
      <trkpt lat="48.436" lon="2.71916">
        <ele>104.2</ele>
        <time>2018-11-18T10:39:43Z</time>
      </trkpt>
      <trkpt lat="48.43599" lon="2.71916">
        <ele>104.2</ele>
        <time>2018-11-18T10:39:44Z</time>
      </trkpt>
      <trkpt lat="48.43599" lon="2.71915">
        <ele>104.2</ele>
        <time>2018-11-18T10:39:45Z</time>
      </trkpt>
      <trkpt lat="48.43598" lon="2.71915">
        <ele>104.1</ele>
        <time>2018-11-18T10:39:46Z</time>
      </trkpt>
      <trkpt lat="48.43598" lon="2.71915">
        <ele>104.1</ele>
        <time>2018-11-18T10:39:47Z</time>
      </trkpt>
      <trkpt lat="48.43595" lon="2.71914">
        <ele>104.3</ele>
        <time>2018-11-18T10:39:48Z</time>
      </trkpt>
      <trkpt lat="48.43594" lon="2.71915">
        <ele>104.4</ele>
        <time>2018-11-18T10:39:49Z</time>
      </trkpt>
      <trkpt lat="48.43593" lon="2.71917">
        <ele>104.3</ele>
        <time>2018-11-18T10:39:50Z</time>
      </trkpt>
      <trkpt lat="48.43592" lon="2.71919">
        <ele>104.5</ele>
        <time>2018-11-18T10:39:51Z</time>
      </trkpt>
      <trkpt lat="48.43589" lon="2.7192">
        <ele>104.5</ele>
        <time>2018-11-18T10:39:52Z</time>
      </trkpt>
      <trkpt lat="48.43587" lon="2.71921">
        <ele>104.7</ele>
        <time>2018-11-18T10:39:53Z</time>
      </trkpt>
      <trkpt lat="48.43586" lon="2.71921">
        <ele>104.9</ele>
        <time>2018-11-18T10:39:54Z</time>
      </trkpt>
      <trkpt lat="48.43584" lon="2.71922">
        <ele>104.8</ele>
        <time>2018-11-18T10:39:55Z</time>
      </trkpt>
      <trkpt lat="48.43583" lon="2.71923">
        <ele>105</ele>
        <time>2018-11-18T10:39:56Z</time>
      </trkpt>
      <trkpt lat="48.43581" lon="2.71924">
        <ele>105</ele>
        <time>2018-11-18T10:39:57Z</time>
      </trkpt>
      <trkpt lat="48.43579" lon="2.71925">
        <ele>105.2</ele>
        <time>2018-11-18T10:39:58Z</time>
      </trkpt>
      <trkpt lat="48.43578" lon="2.71926">
        <ele>105.3</ele>
        <time>2018-11-18T10:39:59Z</time>
      </trkpt>
      <trkpt lat="48.43576" lon="2.71927">
        <ele>105.3</ele>
        <time>2018-11-18T10:40:00Z</time>
      </trkpt>
      <trkpt lat="48.43574" lon="2.71928">
        <ele>105.5</ele>
        <time>2018-11-18T10:40:01Z</time>
      </trkpt>
      <trkpt lat="48.43572" lon="2.71928">
        <ele>105.7</ele>
        <time>2018-11-18T10:40:02Z</time>
      </trkpt>
      <trkpt lat="48.4357" lon="2.71929">
        <ele>105.6</ele>
        <time>2018-11-18T10:40:03Z</time>
      </trkpt>
      <trkpt lat="48.43568" lon="2.71929">
        <ele>105.8</ele>
        <time>2018-11-18T10:40:04Z</time>
      </trkpt>
      <trkpt lat="48.43566" lon="2.7193">
        <ele>106</ele>
        <time>2018-11-18T10:40:05Z</time>
      </trkpt>
      <trkpt lat="48.43564" lon="2.71931">
        <ele>106</ele>
        <time>2018-11-18T10:40:06Z</time>
      </trkpt>
      <trkpt lat="48.43563" lon="2.71932">
        <ele>106.2</ele>
        <time>2018-11-18T10:40:07Z</time>
      </trkpt>
      <trkpt lat="48.43561" lon="2.71933">
        <ele>106.1</ele>
        <time>2018-11-18T10:40:08Z</time>
      </trkpt>
      <trkpt lat="48.43559" lon="2.71934">
        <ele>106.4</ele>
        <time>2018-11-18T10:40:09Z</time>
      </trkpt>
      <trkpt lat="48.43557" lon="2.71935">
        <ele>106.6</ele>
        <time>2018-11-18T10:40:10Z</time>
      </trkpt>
      <trkpt lat="48.43555" lon="2.71936">
        <ele>106.9</ele>
        <time>2018-11-18T10:40:11Z</time>
      </trkpt>
      <trkpt lat="48.43553" lon="2.71936">
        <ele>106.8</ele>
        <time>2018-11-18T10:40:12Z</time>
      </trkpt>
      <trkpt lat="48.43552" lon="2.71935">
        <ele>106.8</ele>
        <time>2018-11-18T10:40:13Z</time>
      </trkpt>
      <trkpt lat="48.43552" lon="2.71934">
        <ele>107</ele>
        <time>2018-11-18T10:40:14Z</time>
      </trkpt>
      <trkpt lat="48.43551" lon="2.71932">
        <ele>107</ele>
        <time>2018-11-18T10:40:15Z</time>
      </trkpt>
      <trkpt lat="48.4355" lon="2.71929">
        <ele>106.9</ele>
        <time>2018-11-18T10:40:16Z</time>
      </trkpt>
      <trkpt lat="48.43549" lon="2.71927">
        <ele>107.2</ele>
        <time>2018-11-18T10:40:17Z</time>
      </trkpt>
      <trkpt lat="48.43547" lon="2.71925">
        <ele>107.2</ele>
        <time>2018-11-18T10:40:18Z</time>
      </trkpt>
      <trkpt lat="48.43546" lon="2.71923">
        <ele>107.4</ele>
        <time>2018-11-18T10:40:19Z</time>
      </trkpt>
      <trkpt lat="48.43544" lon="2.7192">
        <ele>107.4</ele>
        <time>2018-11-18T10:40:20Z</time>
      </trkpt>
      <trkpt lat="48.43544" lon="2.71918">
        <ele>107.5</ele>
        <time>2018-11-18T10:40:21Z</time>
      </trkpt>
      <trkpt lat="48.43543" lon="2.71916">
        <ele>107.5</ele>
        <time>2018-11-18T10:40:22Z</time>
      </trkpt>
      <trkpt lat="48.43542" lon="2.71913">
        <ele>107.5</ele>
        <time>2018-11-18T10:40:23Z</time>
      </trkpt>
      <trkpt lat="48.43541" lon="2.7191">
        <ele>107.5</ele>
        <time>2018-11-18T10:40:24Z</time>
      </trkpt>
      <trkpt lat="48.4354" lon="2.71908">
        <ele>107.6</ele>
        <time>2018-11-18T10:40:25Z</time>
      </trkpt>
      <trkpt lat="48.43538" lon="2.71907">
        <ele>107.8</ele>
        <time>2018-11-18T10:40:26Z</time>
      </trkpt>
      <trkpt lat="48.43535" lon="2.71905">
        <ele>107.8</ele>
        <time>2018-11-18T10:40:27Z</time>
      </trkpt>
      <trkpt lat="48.43534" lon="2.71903">
        <ele>108</ele>
        <time>2018-11-18T10:40:28Z</time>
      </trkpt>
      <trkpt lat="48.43534" lon="2.71902">
        <ele>107.9</ele>
        <time>2018-11-18T10:40:29Z</time>
      </trkpt>
      <trkpt lat="48.43533" lon="2.71901">
        <ele>107.9</ele>
        <time>2018-11-18T10:40:30Z</time>
      </trkpt>
      <trkpt lat="48.43532" lon="2.719">
        <ele>108.2</ele>
        <time>2018-11-18T10:40:31Z</time>
      </trkpt>
      <trkpt lat="48.43531" lon="2.71898">
        <ele>108.2</ele>
        <time>2018-11-18T10:40:32Z</time>
      </trkpt>
      <trkpt lat="48.4353" lon="2.71897">
        <ele>108.2</ele>
        <time>2018-11-18T10:40:33Z</time>
      </trkpt>
      <trkpt lat="48.43529" lon="2.71896">
        <ele>108.4</ele>
        <time>2018-11-18T10:40:34Z</time>
      </trkpt>
      <trkpt lat="48.43528" lon="2.71894">
        <ele>108.4</ele>
        <time>2018-11-18T10:40:35Z</time>
      </trkpt>
      <trkpt lat="48.43525" lon="2.71892">
        <ele>108.6</ele>
        <time>2018-11-18T10:40:36Z</time>
      </trkpt>
      <trkpt lat="48.43524" lon="2.71891">
        <ele>108.6</ele>
        <time>2018-11-18T10:40:37Z</time>
      </trkpt>
      <trkpt lat="48.43523" lon="2.7189">
        <ele>108.9</ele>
        <time>2018-11-18T10:40:38Z</time>
      </trkpt>
      <trkpt lat="48.43522" lon="2.71889">
        <ele>108.9</ele>
        <time>2018-11-18T10:40:39Z</time>
      </trkpt>
      <trkpt lat="48.43521" lon="2.71889">
        <ele>108.9</ele>
        <time>2018-11-18T10:40:40Z</time>
      </trkpt>
      <trkpt lat="48.4352" lon="2.71888">
        <ele>109.1</ele>
        <time>2018-11-18T10:40:41Z</time>
      </trkpt>
      <trkpt lat="48.43519" lon="2.71887">
        <ele>109.1</ele>
        <time>2018-11-18T10:40:42Z</time>
      </trkpt>
      <trkpt lat="48.43519" lon="2.71885">
        <ele>109.1</ele>
        <time>2018-11-18T10:40:43Z</time>
      </trkpt>
      <trkpt lat="48.4352" lon="2.71883">
        <ele>109.1</ele>
        <time>2018-11-18T10:40:44Z</time>
      </trkpt>
      <trkpt lat="48.4352" lon="2.71882">
        <ele>109.1</ele>
        <time>2018-11-18T10:40:45Z</time>
      </trkpt>
      <trkpt lat="48.43521" lon="2.7188">
        <ele>108.9</ele>
        <time>2018-11-18T10:40:46Z</time>
      </trkpt>
      <trkpt lat="48.43523" lon="2.71877">
        <ele>108.8</ele>
        <time>2018-11-18T10:40:47Z</time>
      </trkpt>
      <trkpt lat="48.43524" lon="2.71874">
        <ele>108.6</ele>
        <time>2018-11-18T10:40:48Z</time>
      </trkpt>
      <trkpt lat="48.43526" lon="2.71871">
        <ele>108.6</ele>
        <time>2018-11-18T10:40:49Z</time>
      </trkpt>
      <trkpt lat="48.43528" lon="2.71868">
        <ele>108.3</ele>
        <time>2018-11-18T10:40:50Z</time>
      </trkpt>
      <trkpt lat="48.4353" lon="2.71866">
        <ele>108.1</ele>
        <time>2018-11-18T10:40:51Z</time>
      </trkpt>
      <trkpt lat="48.43531" lon="2.71863">
        <ele>108.1</ele>
        <time>2018-11-18T10:40:52Z</time>
      </trkpt>
      <trkpt lat="48.43533" lon="2.71861">
        <ele>107.9</ele>
        <time>2018-11-18T10:40:53Z</time>
      </trkpt>
      <trkpt lat="48.43535" lon="2.71857">
        <ele>107.9</ele>
        <time>2018-11-18T10:40:54Z</time>
      </trkpt>
      <trkpt lat="48.43537" lon="2.71855">
        <ele>107.8</ele>
        <time>2018-11-18T10:40:55Z</time>
      </trkpt>
      <trkpt lat="48.4354" lon="2.71853">
        <ele>107.6</ele>
        <time>2018-11-18T10:40:56Z</time>
      </trkpt>
      <trkpt lat="48.43541" lon="2.71851">
        <ele>107.4</ele>
        <time>2018-11-18T10:40:57Z</time>
      </trkpt>
      <trkpt lat="48.43544" lon="2.71848">
        <ele>107.3</ele>
        <time>2018-11-18T10:40:58Z</time>
      </trkpt>
      <trkpt lat="48.43547" lon="2.71846">
        <ele>107.1</ele>
        <time>2018-11-18T10:40:59Z</time>
      </trkpt>
      <trkpt lat="48.43549" lon="2.71844">
        <ele>107.1</ele>
        <time>2018-11-18T10:41:00Z</time>
      </trkpt>
      <trkpt lat="48.43551" lon="2.71843">
        <ele>106.9</ele>
        <time>2018-11-18T10:41:01Z</time>
      </trkpt>
      <trkpt lat="48.43554" lon="2.71841">
        <ele>106.7</ele>
        <time>2018-11-18T10:41:02Z</time>
      </trkpt>
      <trkpt lat="48.43556" lon="2.71839">
        <ele>106.4</ele>
        <time>2018-11-18T10:41:03Z</time>
      </trkpt>
      <trkpt lat="48.43557" lon="2.71836">
        <ele>106.4</ele>
        <time>2018-11-18T10:41:04Z</time>
      </trkpt>
      <trkpt lat="48.43557" lon="2.71834">
        <ele>106.4</ele>
        <time>2018-11-18T10:41:05Z</time>
      </trkpt>
      <trkpt lat="48.43558" lon="2.7183">
        <ele>106.5</ele>
        <time>2018-11-18T10:41:06Z</time>
      </trkpt>
      <trkpt lat="48.43557" lon="2.71826">
        <ele>106.5</ele>
        <time>2018-11-18T10:41:07Z</time>
      </trkpt>
      <trkpt lat="48.43557" lon="2.71823">
        <ele>106.5</ele>
        <time>2018-11-18T10:41:08Z</time>
      </trkpt>
      <trkpt lat="48.43558" lon="2.7182">
        <ele>106.3</ele>
        <time>2018-11-18T10:41:09Z</time>
      </trkpt>
      <trkpt lat="48.43559" lon="2.71818">
        <ele>106.3</ele>
        <time>2018-11-18T10:41:10Z</time>
      </trkpt>
      <trkpt lat="48.4356" lon="2.71815">
        <ele>106.4</ele>
        <time>2018-11-18T10:41:11Z</time>
      </trkpt>
      <trkpt lat="48.4356" lon="2.71812">
        <ele>106.4</ele>
        <time>2018-11-18T10:41:12Z</time>
      </trkpt>
      <trkpt lat="48.43561" lon="2.71809">
        <ele>106.3</ele>
        <time>2018-11-18T10:41:13Z</time>
      </trkpt>
      <trkpt lat="48.43561" lon="2.71805">
        <ele>106.3</ele>
        <time>2018-11-18T10:41:14Z</time>
      </trkpt>
      <trkpt lat="48.43561" lon="2.71801">
        <ele>106.4</ele>
        <time>2018-11-18T10:41:15Z</time>
      </trkpt>
      <trkpt lat="48.43561" lon="2.71798">
        <ele>106.5</ele>
        <time>2018-11-18T10:41:16Z</time>
      </trkpt>
      <trkpt lat="48.43561" lon="2.71795">
        <ele>106.6</ele>
        <time>2018-11-18T10:41:17Z</time>
      </trkpt>
      <trkpt lat="48.43561" lon="2.71793">
        <ele>106.6</ele>
        <time>2018-11-18T10:41:18Z</time>
      </trkpt>
      <trkpt lat="48.43562" lon="2.71791">
        <ele>106.6</ele>
        <time>2018-11-18T10:41:19Z</time>
      </trkpt>
      <trkpt lat="48.43562" lon="2.71789">
        <ele>106.6</ele>
        <time>2018-11-18T10:41:20Z</time>
      </trkpt>
      <trkpt lat="48.43563" lon="2.71788">
        <ele>106.6</ele>
        <time>2018-11-18T10:41:21Z</time>
      </trkpt>
      <trkpt lat="48.43564" lon="2.71786">
        <ele>106.5</ele>
        <time>2018-11-18T10:41:22Z</time>
      </trkpt>
      <trkpt lat="48.43564" lon="2.71785">
        <ele>106.5</ele>
        <time>2018-11-18T10:41:23Z</time>
      </trkpt>
      <trkpt lat="48.43565" lon="2.71783">
        <ele>106.5</ele>
        <time>2018-11-18T10:41:24Z</time>
      </trkpt>
      <trkpt lat="48.43565" lon="2.71783">
        <ele>106.5</ele>
        <time>2018-11-18T10:41:25Z</time>
      </trkpt>
      <trkpt lat="48.43568" lon="2.7178">
        <ele>106.3</ele>
        <time>2018-11-18T10:41:26Z</time>
      </trkpt>
      <trkpt lat="48.4357" lon="2.71778">
        <ele>106.1</ele>
        <time>2018-11-18T10:41:27Z</time>
      </trkpt>
      <trkpt lat="48.43571" lon="2.71776">
        <ele>106.1</ele>
        <time>2018-11-18T10:41:28Z</time>
      </trkpt>
      <trkpt lat="48.43572" lon="2.71773">
        <ele>106.2</ele>
        <time>2018-11-18T10:41:29Z</time>
      </trkpt>
      <trkpt lat="48.43573" lon="2.71769">
        <ele>106</ele>
        <time>2018-11-18T10:41:30Z</time>
      </trkpt>
      <trkpt lat="48.43574" lon="2.71765">
        <ele>106.1</ele>
        <time>2018-11-18T10:41:31Z</time>
      </trkpt>
      <trkpt lat="48.43576" lon="2.71762">
        <ele>105.8</ele>
        <time>2018-11-18T10:41:32Z</time>
      </trkpt>
      <trkpt lat="48.43579" lon="2.71758">
        <ele>105.6</ele>
        <time>2018-11-18T10:41:33Z</time>
      </trkpt>
      <trkpt lat="48.4358" lon="2.71755">
        <ele>105.7</ele>
        <time>2018-11-18T10:41:34Z</time>
      </trkpt>
      <trkpt lat="48.43581" lon="2.71753">
        <ele>105.5</ele>
        <time>2018-11-18T10:41:35Z</time>
      </trkpt>
      <trkpt lat="48.43581" lon="2.71751">
        <ele>105.5</ele>
        <time>2018-11-18T10:41:36Z</time>
      </trkpt>
      <trkpt lat="48.43581" lon="2.71749">
        <ele>105.8</ele>
        <time>2018-11-18T10:41:37Z</time>
      </trkpt>
      <trkpt lat="48.43579" lon="2.71748">
        <ele>106</ele>
        <time>2018-11-18T10:41:38Z</time>
      </trkpt>
      <trkpt lat="48.43579" lon="2.71748">
        <ele>106</ele>
        <time>2018-11-18T10:41:39Z</time>
      </trkpt>
      <trkpt lat="48.43578" lon="2.71748">
        <ele>106.3</ele>
        <time>2018-11-18T10:41:40Z</time>
      </trkpt>
      <trkpt lat="48.43577" lon="2.71749">
        <ele>106.2</ele>
        <time>2018-11-18T10:41:41Z</time>
      </trkpt>
      <trkpt lat="48.43576" lon="2.7175">
        <ele>106.2</ele>
        <time>2018-11-18T10:41:42Z</time>
      </trkpt>
      <trkpt lat="48.43575" lon="2.71751">
        <ele>106.2</ele>
        <time>2018-11-18T10:41:43Z</time>
      </trkpt>
      <trkpt lat="48.43575" lon="2.71751">
        <ele>106.5</ele>
        <time>2018-11-18T10:41:44Z</time>
      </trkpt>
      <trkpt lat="48.43574" lon="2.71751">
        <ele>106.5</ele>
        <time>2018-11-18T10:41:45Z</time>
      </trkpt>
      <trkpt lat="48.43573" lon="2.71751">
        <ele>106.5</ele>
        <time>2018-11-18T10:41:46Z</time>
      </trkpt>
      <trkpt lat="48.43572" lon="2.71752">
        <ele>106.7</ele>
        <time>2018-11-18T10:41:47Z</time>
      </trkpt>
      <trkpt lat="48.43571" lon="2.71753">
        <ele>106.6</ele>
        <time>2018-11-18T10:41:48Z</time>
      </trkpt>
      <trkpt lat="48.4357" lon="2.71753">
        <ele>106.6</ele>
        <time>2018-11-18T10:41:49Z</time>
      </trkpt>
      <trkpt lat="48.43568" lon="2.71753">
        <ele>107</ele>
        <time>2018-11-18T10:41:50Z</time>
      </trkpt>
      <trkpt lat="48.43567" lon="2.71752">
        <ele>107</ele>
        <time>2018-11-18T10:41:51Z</time>
      </trkpt>
      <trkpt lat="48.43567" lon="2.71751">
        <ele>107</ele>
        <time>2018-11-18T10:41:52Z</time>
      </trkpt>
      <trkpt lat="48.43568" lon="2.71749">
        <ele>107</ele>
        <time>2018-11-18T10:41:53Z</time>
      </trkpt>
      <trkpt lat="48.43568" lon="2.71749">
        <ele>107</ele>
        <time>2018-11-18T10:41:54Z</time>
      </trkpt>
      <trkpt lat="48.43568" lon="2.71746">
        <ele>107.1</ele>
        <time>2018-11-18T10:41:55Z</time>
      </trkpt>
      <trkpt lat="48.43569" lon="2.71744">
        <ele>107.3</ele>
        <time>2018-11-18T10:41:56Z</time>
      </trkpt>
      <trkpt lat="48.4357" lon="2.71742">
        <ele>107</ele>
        <time>2018-11-18T10:41:57Z</time>
      </trkpt>
      <trkpt lat="48.4357" lon="2.71739">
        <ele>107.1</ele>
        <time>2018-11-18T10:41:58Z</time>
      </trkpt>
      <trkpt lat="48.4357" lon="2.71735">
        <ele>107.2</ele>
        <time>2018-11-18T10:41:59Z</time>
      </trkpt>
      <trkpt lat="48.43569" lon="2.71732">
        <ele>107.2</ele>
        <time>2018-11-18T10:42:00Z</time>
      </trkpt>
      <trkpt lat="48.43569" lon="2.7173">
        <ele>107.5</ele>
        <time>2018-11-18T10:42:01Z</time>
      </trkpt>
      <trkpt lat="48.43568" lon="2.71727">
        <ele>107.5</ele>
        <time>2018-11-18T10:42:02Z</time>
      </trkpt>
      <trkpt lat="48.43567" lon="2.71724">
        <ele>107.5</ele>
        <time>2018-11-18T10:42:03Z</time>
      </trkpt>
      <trkpt lat="48.43565" lon="2.71723">
        <ele>107.7</ele>
        <time>2018-11-18T10:42:04Z</time>
      </trkpt>
      <trkpt lat="48.43564" lon="2.71724">
        <ele>107.7</ele>
        <time>2018-11-18T10:42:05Z</time>
      </trkpt>
      <trkpt lat="48.43564" lon="2.71724">
        <ele>107.7</ele>
        <time>2018-11-18T10:42:06Z</time>
      </trkpt>
      <trkpt lat="48.43563" lon="2.71724">
        <ele>107.9</ele>
        <time>2018-11-18T10:42:07Z</time>
      </trkpt>
      <trkpt lat="48.43563" lon="2.71725">
        <ele>107.9</ele>
        <time>2018-11-18T10:42:08Z</time>
      </trkpt>
      <trkpt lat="48.43562" lon="2.71725">
        <ele>107.9</ele>
        <time>2018-11-18T10:42:09Z</time>
      </trkpt>
      <trkpt lat="48.43561" lon="2.71726">
        <ele>107.9</ele>
        <time>2018-11-18T10:42:10Z</time>
      </trkpt>
      <trkpt lat="48.43561" lon="2.71726">
        <ele>108.2</ele>
        <time>2018-11-18T10:42:11Z</time>
      </trkpt>
      <trkpt lat="48.4356" lon="2.71726">
        <ele>108.2</ele>
        <time>2018-11-18T10:42:12Z</time>
      </trkpt>
      <trkpt lat="48.43559" lon="2.71727">
        <ele>108.2</ele>
        <time>2018-11-18T10:42:13Z</time>
      </trkpt>
      <trkpt lat="48.43559" lon="2.71727">
        <ele>108.2</ele>
        <time>2018-11-18T10:42:14Z</time>
      </trkpt>
      <trkpt lat="48.43558" lon="2.71727">
        <ele>108.2</ele>
        <time>2018-11-18T10:42:15Z</time>
      </trkpt>
      <trkpt lat="48.43558" lon="2.71728">
        <ele>108.4</ele>
        <time>2018-11-18T10:42:16Z</time>
      </trkpt>
      <trkpt lat="48.43556" lon="2.71726">
        <ele>108.4</ele>
        <time>2018-11-18T10:42:17Z</time>
      </trkpt>
      <trkpt lat="48.43556" lon="2.71724">
        <ele>108.4</ele>
        <time>2018-11-18T10:42:18Z</time>
      </trkpt>
      <trkpt lat="48.43555" lon="2.71722">
        <ele>108.6</ele>
        <time>2018-11-18T10:42:19Z</time>
      </trkpt>
      <trkpt lat="48.43554" lon="2.71719">
        <ele>108.5</ele>
        <time>2018-11-18T10:42:20Z</time>
      </trkpt>
      <trkpt lat="48.43553" lon="2.71717">
        <ele>108.5</ele>
        <time>2018-11-18T10:42:21Z</time>
      </trkpt>
      <trkpt lat="48.43553" lon="2.71716">
        <ele>108.5</ele>
        <time>2018-11-18T10:42:22Z</time>
      </trkpt>
      <trkpt lat="48.43553" lon="2.71715">
        <ele>108.5</ele>
        <time>2018-11-18T10:42:23Z</time>
      </trkpt>
      <trkpt lat="48.43552" lon="2.71714">
        <ele>108.5</ele>
        <time>2018-11-18T10:42:24Z</time>
      </trkpt>
      <trkpt lat="48.43552" lon="2.71713">
        <ele>108.8</ele>
        <time>2018-11-18T10:42:25Z</time>
      </trkpt>
      <trkpt lat="48.43551" lon="2.71712">
        <ele>108.8</ele>
        <time>2018-11-18T10:42:26Z</time>
      </trkpt>
      <trkpt lat="48.4355" lon="2.7171">
        <ele>108.8</ele>
        <time>2018-11-18T10:42:27Z</time>
      </trkpt>
      <trkpt lat="48.4355" lon="2.71709">
        <ele>108.8</ele>
        <time>2018-11-18T10:42:28Z</time>
      </trkpt>
      <trkpt lat="48.43549" lon="2.71706">
        <ele>109</ele>
        <time>2018-11-18T10:42:29Z</time>
      </trkpt>
      <trkpt lat="48.43548" lon="2.71703">
        <ele>109.1</ele>
        <time>2018-11-18T10:42:30Z</time>
      </trkpt>
      <trkpt lat="48.43548" lon="2.717">
        <ele>109.2</ele>
        <time>2018-11-18T10:42:31Z</time>
      </trkpt>
      <trkpt lat="48.43547" lon="2.71698">
        <ele>109.2</ele>
        <time>2018-11-18T10:42:32Z</time>
      </trkpt>
      <trkpt lat="48.43548" lon="2.71695">
        <ele>109.3</ele>
        <time>2018-11-18T10:42:33Z</time>
      </trkpt>
      <trkpt lat="48.43548" lon="2.71693">
        <ele>109.4</ele>
        <time>2018-11-18T10:42:34Z</time>
      </trkpt>
      <trkpt lat="48.43548" lon="2.7169">
        <ele>109.4</ele>
        <time>2018-11-18T10:42:35Z</time>
      </trkpt>
      <trkpt lat="48.43548" lon="2.71687">
        <ele>109.6</ele>
        <time>2018-11-18T10:42:36Z</time>
      </trkpt>
      <trkpt lat="48.43548" lon="2.71684">
        <ele>109.7</ele>
        <time>2018-11-18T10:42:37Z</time>
      </trkpt>
      <trkpt lat="48.43547" lon="2.71681">
        <ele>109.7</ele>
        <time>2018-11-18T10:42:38Z</time>
      </trkpt>
      <trkpt lat="48.43547" lon="2.71679">
        <ele>109.9</ele>
        <time>2018-11-18T10:42:39Z</time>
      </trkpt>
      <trkpt lat="48.43547" lon="2.71676">
        <ele>109.9</ele>
        <time>2018-11-18T10:42:40Z</time>
      </trkpt>
      <trkpt lat="48.43547" lon="2.71673">
        <ele>110</ele>
        <time>2018-11-18T10:42:41Z</time>
      </trkpt>
      <trkpt lat="48.43547" lon="2.71669">
        <ele>110.1</ele>
        <time>2018-11-18T10:42:42Z</time>
      </trkpt>
      <trkpt lat="48.43548" lon="2.71666">
        <ele>110.2</ele>
        <time>2018-11-18T10:42:43Z</time>
      </trkpt>
      <trkpt lat="48.43548" lon="2.71663">
        <ele>110.2</ele>
        <time>2018-11-18T10:42:44Z</time>
      </trkpt>
      <trkpt lat="48.43549" lon="2.71662">
        <ele>110.3</ele>
        <time>2018-11-18T10:42:45Z</time>
      </trkpt>
      <trkpt lat="48.43551" lon="2.71663">
        <ele>110</ele>
        <time>2018-11-18T10:42:46Z</time>
      </trkpt>
      <trkpt lat="48.43553" lon="2.71665">
        <ele>109.6</ele>
        <time>2018-11-18T10:42:47Z</time>
      </trkpt>
      <trkpt lat="48.43556" lon="2.71667">
        <ele>109.3</ele>
        <time>2018-11-18T10:42:48Z</time>
      </trkpt>
      <trkpt lat="48.43559" lon="2.71667">
        <ele>108.8</ele>
        <time>2018-11-18T10:42:49Z</time>
      </trkpt>
      <trkpt lat="48.43561" lon="2.71668">
        <ele>108.8</ele>
        <time>2018-11-18T10:42:50Z</time>
      </trkpt>
      <trkpt lat="48.43563" lon="2.71669">
        <ele>108.4</ele>
        <time>2018-11-18T10:42:51Z</time>
      </trkpt>
      <trkpt lat="48.43566" lon="2.7167">
        <ele>108.1</ele>
        <time>2018-11-18T10:42:52Z</time>
      </trkpt>
      <trkpt lat="48.43568" lon="2.7167">
        <ele>107.9</ele>
        <time>2018-11-18T10:42:53Z</time>
      </trkpt>
      <trkpt lat="48.43569" lon="2.71668">
        <ele>107.9</ele>
        <time>2018-11-18T10:42:54Z</time>
      </trkpt>
      <trkpt lat="48.43569" lon="2.71666">
        <ele>108</ele>
        <time>2018-11-18T10:42:55Z</time>
      </trkpt>
      <trkpt lat="48.43569" lon="2.71663">
        <ele>107.7</ele>
        <time>2018-11-18T10:42:56Z</time>
      </trkpt>
      <trkpt lat="48.4357" lon="2.7166">
        <ele>107.9</ele>
        <time>2018-11-18T10:42:57Z</time>
      </trkpt>
      <trkpt lat="48.4357" lon="2.71658">
        <ele>108</ele>
        <time>2018-11-18T10:42:58Z</time>
      </trkpt>
      <trkpt lat="48.43571" lon="2.71656">
        <ele>108</ele>
        <time>2018-11-18T10:42:59Z</time>
      </trkpt>
      <trkpt lat="48.43572" lon="2.71653">
        <ele>108.2</ele>
        <time>2018-11-18T10:43:00Z</time>
      </trkpt>
      <trkpt lat="48.43573" lon="2.7165">
        <ele>107.9</ele>
        <time>2018-11-18T10:43:01Z</time>
      </trkpt>
      <trkpt lat="48.43574" lon="2.71648">
        <ele>108.1</ele>
        <time>2018-11-18T10:43:02Z</time>
      </trkpt>
      <trkpt lat="48.43575" lon="2.71645">
        <ele>107.9</ele>
        <time>2018-11-18T10:43:03Z</time>
      </trkpt>
      <trkpt lat="48.43577" lon="2.71643">
        <ele>107.9</ele>
        <time>2018-11-18T10:43:04Z</time>
      </trkpt>
      <trkpt lat="48.43578" lon="2.71641">
        <ele>107.7</ele>
        <time>2018-11-18T10:43:05Z</time>
      </trkpt>
      <trkpt lat="48.4358" lon="2.7164">
        <ele>107.7</ele>
        <time>2018-11-18T10:43:06Z</time>
      </trkpt>
      <trkpt lat="48.43582" lon="2.71637">
        <ele>107.4</ele>
        <time>2018-11-18T10:43:07Z</time>
      </trkpt>
      <trkpt lat="48.43584" lon="2.71634">
        <ele>107.1</ele>
        <time>2018-11-18T10:43:08Z</time>
      </trkpt>
      <trkpt lat="48.43586" lon="2.71631">
        <ele>107.2</ele>
        <time>2018-11-18T10:43:09Z</time>
      </trkpt>
      <trkpt lat="48.43588" lon="2.71628">
        <ele>106.9</ele>
        <time>2018-11-18T10:43:10Z</time>
      </trkpt>
      <trkpt lat="48.43589" lon="2.71625">
        <ele>106.9</ele>
        <time>2018-11-18T10:43:11Z</time>
      </trkpt>
      <trkpt lat="48.4359" lon="2.71623">
        <ele>106.6</ele>
        <time>2018-11-18T10:43:12Z</time>
      </trkpt>
      <trkpt lat="48.4359" lon="2.7162">
        <ele>106.6</ele>
        <time>2018-11-18T10:43:13Z</time>
      </trkpt>
      <trkpt lat="48.43591" lon="2.71618">
        <ele>106.7</ele>
        <time>2018-11-18T10:43:14Z</time>
      </trkpt>
      <trkpt lat="48.43592" lon="2.71615">
        <ele>106.8</ele>
        <time>2018-11-18T10:43:15Z</time>
      </trkpt>
      <trkpt lat="48.43593" lon="2.71612">
        <ele>106.5</ele>
        <time>2018-11-18T10:43:16Z</time>
      </trkpt>
      <trkpt lat="48.43595" lon="2.71609">
        <ele>106.6</ele>
        <time>2018-11-18T10:43:17Z</time>
      </trkpt>
      <trkpt lat="48.43596" lon="2.71605">
        <ele>106.4</ele>
        <time>2018-11-18T10:43:18Z</time>
      </trkpt>
      <trkpt lat="48.43597" lon="2.71603">
        <ele>106.4</ele>
        <time>2018-11-18T10:43:19Z</time>
      </trkpt>
      <trkpt lat="48.43598" lon="2.716">
        <ele>106.2</ele>
        <time>2018-11-18T10:43:20Z</time>
      </trkpt>
      <trkpt lat="48.43599" lon="2.71598">
        <ele>106.3</ele>
        <time>2018-11-18T10:43:21Z</time>
      </trkpt>
      <trkpt lat="48.436" lon="2.71596">
        <ele>106.3</ele>
        <time>2018-11-18T10:43:22Z</time>
      </trkpt>
      <trkpt lat="48.43603" lon="2.71594">
        <ele>106.1</ele>
        <time>2018-11-18T10:43:23Z</time>
      </trkpt>
      <trkpt lat="48.43606" lon="2.71592">
        <ele>105.9</ele>
        <time>2018-11-18T10:43:24Z</time>
      </trkpt>
      <trkpt lat="48.43609" lon="2.71591">
        <ele>105.4</ele>
        <time>2018-11-18T10:43:25Z</time>
      </trkpt>
      <trkpt lat="48.43612" lon="2.71593">
        <ele>105.4</ele>
        <time>2018-11-18T10:43:26Z</time>
      </trkpt>
      <trkpt lat="48.43613" lon="2.71595">
        <ele>105.1</ele>
        <time>2018-11-18T10:43:27Z</time>
      </trkpt>
      <trkpt lat="48.43615" lon="2.71597">
        <ele>105.1</ele>
        <time>2018-11-18T10:43:28Z</time>
      </trkpt>
      <trkpt lat="48.43616" lon="2.71599">
        <ele>104.8</ele>
        <time>2018-11-18T10:43:29Z</time>
      </trkpt>
      <trkpt lat="48.43617" lon="2.71601">
        <ele>104.8</ele>
        <time>2018-11-18T10:43:30Z</time>
      </trkpt>
      <trkpt lat="48.43618" lon="2.71603">
        <ele>104.4</ele>
        <time>2018-11-18T10:43:31Z</time>
      </trkpt>
      <trkpt lat="48.4362" lon="2.71606">
        <ele>104.4</ele>
        <time>2018-11-18T10:43:32Z</time>
      </trkpt>
      <trkpt lat="48.43621" lon="2.71608">
        <ele>104.1</ele>
        <time>2018-11-18T10:43:33Z</time>
      </trkpt>
      <trkpt lat="48.43622" lon="2.7161">
        <ele>104.1</ele>
        <time>2018-11-18T10:43:34Z</time>
      </trkpt>
      <trkpt lat="48.43622" lon="2.71612">
        <ele>104.1</ele>
        <time>2018-11-18T10:43:35Z</time>
      </trkpt>
      <trkpt lat="48.43623" lon="2.71615">
        <ele>103.9</ele>
        <time>2018-11-18T10:43:36Z</time>
      </trkpt>
      <trkpt lat="48.43625" lon="2.71617">
        <ele>103.9</ele>
        <time>2018-11-18T10:43:37Z</time>
      </trkpt>
      <trkpt lat="48.43627" lon="2.7162">
        <ele>103.7</ele>
        <time>2018-11-18T10:43:38Z</time>
      </trkpt>
      <trkpt lat="48.43628" lon="2.71622">
        <ele>103.7</ele>
        <time>2018-11-18T10:43:39Z</time>
      </trkpt>
      <trkpt lat="48.43628" lon="2.71624">
        <ele>103.7</ele>
        <time>2018-11-18T10:43:40Z</time>
      </trkpt>
      <trkpt lat="48.43628" lon="2.71627">
        <ele>103.7</ele>
        <time>2018-11-18T10:43:41Z</time>
      </trkpt>
      <trkpt lat="48.43628" lon="2.71629">
        <ele>103.7</ele>
        <time>2018-11-18T10:43:42Z</time>
      </trkpt>
      <trkpt lat="48.43628" lon="2.71632">
        <ele>103.7</ele>
        <time>2018-11-18T10:43:43Z</time>
      </trkpt>
      <trkpt lat="48.43629" lon="2.71634">
        <ele>103.6</ele>
        <time>2018-11-18T10:43:44Z</time>
      </trkpt>
      <trkpt lat="48.43629" lon="2.71637">
        <ele>103.5</ele>
        <time>2018-11-18T10:43:45Z</time>
      </trkpt>
      <trkpt lat="48.4363" lon="2.71638">
        <ele>103.5</ele>
        <time>2018-11-18T10:43:46Z</time>
      </trkpt>
      <trkpt lat="48.43632" lon="2.71641">
        <ele>103.5</ele>
        <time>2018-11-18T10:43:47Z</time>
      </trkpt>
      <trkpt lat="48.43633" lon="2.71642">
        <ele>103.3</ele>
        <time>2018-11-18T10:43:48Z</time>
      </trkpt>
      <trkpt lat="48.43635" lon="2.71644">
        <ele>103.3</ele>
        <time>2018-11-18T10:43:49Z</time>
      </trkpt>
      <trkpt lat="48.43636" lon="2.71644">
        <ele>103.1</ele>
        <time>2018-11-18T10:43:50Z</time>
      </trkpt>
      <trkpt lat="48.43638" lon="2.71644">
        <ele>103.1</ele>
        <time>2018-11-18T10:43:51Z</time>
      </trkpt>
      <trkpt lat="48.43639" lon="2.71644">
        <ele>102.9</ele>
        <time>2018-11-18T10:43:52Z</time>
      </trkpt>
      <trkpt lat="48.43641" lon="2.71644">
        <ele>102.7</ele>
        <time>2018-11-18T10:43:53Z</time>
      </trkpt>
      <trkpt lat="48.43642" lon="2.71644">
        <ele>102.7</ele>
        <time>2018-11-18T10:43:54Z</time>
      </trkpt>
      <trkpt lat="48.43643" lon="2.71645">
        <ele>102.6</ele>
        <time>2018-11-18T10:43:55Z</time>
      </trkpt>
      <trkpt lat="48.43645" lon="2.71646">
        <ele>102.5</ele>
        <time>2018-11-18T10:43:56Z</time>
      </trkpt>
      <trkpt lat="48.43647" lon="2.71646">
        <ele>102.4</ele>
        <time>2018-11-18T10:43:57Z</time>
      </trkpt>
      <trkpt lat="48.43648" lon="2.71644">
        <ele>102.4</ele>
        <time>2018-11-18T10:43:58Z</time>
      </trkpt>
      <trkpt lat="48.43649" lon="2.71643">
        <ele>102.4</ele>
        <time>2018-11-18T10:43:59Z</time>
      </trkpt>
      <trkpt lat="48.43649" lon="2.71642">
        <ele>102.2</ele>
        <time>2018-11-18T10:44:00Z</time>
      </trkpt>
      <trkpt lat="48.43649" lon="2.71641">
        <ele>102.2</ele>
        <time>2018-11-18T10:44:01Z</time>
      </trkpt>
      <trkpt lat="48.4365" lon="2.7164">
        <ele>102.2</ele>
        <time>2018-11-18T10:44:02Z</time>
      </trkpt>
      <trkpt lat="48.4365" lon="2.71638">
        <ele>102.2</ele>
        <time>2018-11-18T10:44:03Z</time>
      </trkpt>
      <trkpt lat="48.43651" lon="2.71635">
        <ele>102.3</ele>
        <time>2018-11-18T10:44:04Z</time>
      </trkpt>
      <trkpt lat="48.43652" lon="2.71632">
        <ele>102.3</ele>
        <time>2018-11-18T10:44:05Z</time>
      </trkpt>
      <trkpt lat="48.43651" lon="2.71628">
        <ele>102.3</ele>
        <time>2018-11-18T10:44:06Z</time>
      </trkpt>
      <trkpt lat="48.43652" lon="2.71624">
        <ele>102.3</ele>
        <time>2018-11-18T10:44:07Z</time>
      </trkpt>
      <trkpt lat="48.43652" lon="2.7162">
        <ele>102.2</ele>
        <time>2018-11-18T10:44:08Z</time>
      </trkpt>
      <trkpt lat="48.43653" lon="2.71615">
        <ele>102.1</ele>
        <time>2018-11-18T10:44:09Z</time>
      </trkpt>
      <trkpt lat="48.43654" lon="2.7161">
        <ele>102.1</ele>
        <time>2018-11-18T10:44:10Z</time>
      </trkpt>
      <trkpt lat="48.43655" lon="2.71606">
        <ele>101.9</ele>
        <time>2018-11-18T10:44:11Z</time>
      </trkpt>
      <trkpt lat="48.43657" lon="2.71601">
        <ele>101.9</ele>
        <time>2018-11-18T10:44:12Z</time>
      </trkpt>
      <trkpt lat="48.43658" lon="2.71596">
        <ele>101.6</ele>
        <time>2018-11-18T10:44:13Z</time>
      </trkpt>
      <trkpt lat="48.43659" lon="2.7159">
        <ele>101.6</ele>
        <time>2018-11-18T10:44:14Z</time>
      </trkpt>
      <trkpt lat="48.43659" lon="2.71584">
        <ele>101.6</ele>
        <time>2018-11-18T10:44:15Z</time>
      </trkpt>
      <trkpt lat="48.4366" lon="2.71579">
        <ele>101.5</ele>
        <time>2018-11-18T10:44:16Z</time>
      </trkpt>
      <trkpt lat="48.43661" lon="2.71574">
        <ele>101.5</ele>
        <time>2018-11-18T10:44:17Z</time>
      </trkpt>
      <trkpt lat="48.43662" lon="2.7157">
        <ele>101.5</ele>
        <time>2018-11-18T10:44:18Z</time>
      </trkpt>
      <trkpt lat="48.43662" lon="2.71566">
        <ele>101.6</ele>
        <time>2018-11-18T10:44:19Z</time>
      </trkpt>
      <trkpt lat="48.43662" lon="2.71563">
        <ele>101.6</ele>
        <time>2018-11-18T10:44:20Z</time>
      </trkpt>
      <trkpt lat="48.43661" lon="2.7156">
        <ele>101.6</ele>
        <time>2018-11-18T10:44:21Z</time>
      </trkpt>
      <trkpt lat="48.4366" lon="2.71558">
        <ele>101.8</ele>
        <time>2018-11-18T10:44:22Z</time>
      </trkpt>
      <trkpt lat="48.43658" lon="2.71556">
        <ele>101.8</ele>
        <time>2018-11-18T10:44:23Z</time>
      </trkpt>
      <trkpt lat="48.43656" lon="2.71554">
        <ele>102</ele>
        <time>2018-11-18T10:44:24Z</time>
      </trkpt>
      <trkpt lat="48.43654" lon="2.71552">
        <ele>102.2</ele>
        <time>2018-11-18T10:44:25Z</time>
      </trkpt>
      <trkpt lat="48.43652" lon="2.71549">
        <ele>102.2</ele>
        <time>2018-11-18T10:44:26Z</time>
      </trkpt>
      <trkpt lat="48.43651" lon="2.71546">
        <ele>102.4</ele>
        <time>2018-11-18T10:44:27Z</time>
      </trkpt>
      <trkpt lat="48.4365" lon="2.71543">
        <ele>102.4</ele>
        <time>2018-11-18T10:44:28Z</time>
      </trkpt>
      <trkpt lat="48.43649" lon="2.71539">
        <ele>102.4</ele>
        <time>2018-11-18T10:44:29Z</time>
      </trkpt>
      <trkpt lat="48.43649" lon="2.71536">
        <ele>102.4</ele>
        <time>2018-11-18T10:44:30Z</time>
      </trkpt>
      <trkpt lat="48.43649" lon="2.71532">
        <ele>102.4</ele>
        <time>2018-11-18T10:44:31Z</time>
      </trkpt>
      <trkpt lat="48.43649" lon="2.71529">
        <ele>102.3</ele>
        <time>2018-11-18T10:44:32Z</time>
      </trkpt>
      <trkpt lat="48.43649" lon="2.71525">
        <ele>102.3</ele>
        <time>2018-11-18T10:44:33Z</time>
      </trkpt>
      <trkpt lat="48.4365" lon="2.71521">
        <ele>102.3</ele>
        <time>2018-11-18T10:44:34Z</time>
      </trkpt>
      <trkpt lat="48.43651" lon="2.71517">
        <ele>102.3</ele>
        <time>2018-11-18T10:44:35Z</time>
      </trkpt>
      <trkpt lat="48.43651" lon="2.71514">
        <ele>102.3</ele>
        <time>2018-11-18T10:44:36Z</time>
      </trkpt>
      <trkpt lat="48.43651" lon="2.71511">
        <ele>102.2</ele>
        <time>2018-11-18T10:44:37Z</time>
      </trkpt>
      <trkpt lat="48.43651" lon="2.71507">
        <ele>102.2</ele>
        <time>2018-11-18T10:44:38Z</time>
      </trkpt>
      <trkpt lat="48.43651" lon="2.71504">
        <ele>102.2</ele>
        <time>2018-11-18T10:44:39Z</time>
      </trkpt>
      <trkpt lat="48.4365" lon="2.715">
        <ele>102.2</ele>
        <time>2018-11-18T10:44:40Z</time>
      </trkpt>
      <trkpt lat="48.4365" lon="2.71497">
        <ele>102.3</ele>
        <time>2018-11-18T10:44:41Z</time>
      </trkpt>
      <trkpt lat="48.4365" lon="2.71495">
        <ele>102.3</ele>
        <time>2018-11-18T10:44:42Z</time>
      </trkpt>
      <trkpt lat="48.4365" lon="2.71492">
        <ele>102.3</ele>
        <time>2018-11-18T10:44:43Z</time>
      </trkpt>
      <trkpt lat="48.43651" lon="2.7149">
        <ele>102.4</ele>
        <time>2018-11-18T10:44:44Z</time>
      </trkpt>
      <trkpt lat="48.43652" lon="2.71488">
        <ele>102.4</ele>
        <time>2018-11-18T10:44:45Z</time>
      </trkpt>
      <trkpt lat="48.43652" lon="2.71486">
        <ele>102.3</ele>
        <time>2018-11-18T10:44:46Z</time>
      </trkpt>
      <trkpt lat="48.43652" lon="2.71484">
        <ele>102.3</ele>
        <time>2018-11-18T10:44:47Z</time>
      </trkpt>
      <trkpt lat="48.43652" lon="2.71484">
        <ele>102.3</ele>
        <time>2018-11-18T10:44:48Z</time>
      </trkpt>
      <trkpt lat="48.43652" lon="2.71483">
        <ele>102.3</ele>
        <time>2018-11-18T10:44:49Z</time>
      </trkpt>
      <trkpt lat="48.43652" lon="2.71483">
        <ele>102.3</ele>
        <time>2018-11-18T10:44:50Z</time>
      </trkpt>
      <trkpt lat="48.43652" lon="2.71483">
        <ele>102.3</ele>
        <time>2018-11-18T10:44:51Z</time>
      </trkpt>
      <trkpt lat="48.43654" lon="2.7148">
        <ele>102.4</ele>
        <time>2018-11-18T10:45:08Z</time>
      </trkpt>
      <trkpt lat="48.43655" lon="2.71478">
        <ele>102.5</ele>
        <time>2018-11-18T10:45:09Z</time>
      </trkpt>
      <trkpt lat="48.43655" lon="2.71476">
        <ele>102.6</ele>
        <time>2018-11-18T10:45:10Z</time>
      </trkpt>
      <trkpt lat="48.43656" lon="2.71472">
        <ele>102.6</ele>
        <time>2018-11-18T10:45:11Z</time>
      </trkpt>
      <trkpt lat="48.43656" lon="2.71469">
        <ele>102.7</ele>
        <time>2018-11-18T10:45:12Z</time>
      </trkpt>
      <trkpt lat="48.43656" lon="2.71467">
        <ele>102.8</ele>
        <time>2018-11-18T10:45:13Z</time>
      </trkpt>
      <trkpt lat="48.43657" lon="2.71464">
        <ele>102.8</ele>
        <time>2018-11-18T10:45:14Z</time>
      </trkpt>
      <trkpt lat="48.43658" lon="2.7146">
        <ele>102.9</ele>
        <time>2018-11-18T10:45:15Z</time>
      </trkpt>
      <trkpt lat="48.43659" lon="2.71457">
        <ele>103</ele>
        <time>2018-11-18T10:45:16Z</time>
      </trkpt>
      <trkpt lat="48.4366" lon="2.71453">
        <ele>103.1</ele>
        <time>2018-11-18T10:45:17Z</time>
      </trkpt>
      <trkpt lat="48.43661" lon="2.71448">
        <ele>103.2</ele>
        <time>2018-11-18T10:45:18Z</time>
      </trkpt>
      <trkpt lat="48.43661" lon="2.71444">
        <ele>103.2</ele>
        <time>2018-11-18T10:45:19Z</time>
      </trkpt>
      <trkpt lat="48.43661" lon="2.7144">
        <ele>103.3</ele>
        <time>2018-11-18T10:45:20Z</time>
      </trkpt>
      <trkpt lat="48.43662" lon="2.71435">
        <ele>103.4</ele>
        <time>2018-11-18T10:45:21Z</time>
      </trkpt>
      <trkpt lat="48.43663" lon="2.7143">
        <ele>103.4</ele>
        <time>2018-11-18T10:45:22Z</time>
      </trkpt>
      <trkpt lat="48.43664" lon="2.71425">
        <ele>103.5</ele>
        <time>2018-11-18T10:45:23Z</time>
      </trkpt>
      <trkpt lat="48.43665" lon="2.7142">
        <ele>103.6</ele>
        <time>2018-11-18T10:45:24Z</time>
      </trkpt>
      <trkpt lat="48.43665" lon="2.71415">
        <ele>103.7</ele>
        <time>2018-11-18T10:45:25Z</time>
      </trkpt>
      <trkpt lat="48.43666" lon="2.7141">
        <ele>103.6</ele>
        <time>2018-11-18T10:45:26Z</time>
      </trkpt>
      <trkpt lat="48.43667" lon="2.71405">
        <ele>103.5</ele>
        <time>2018-11-18T10:45:27Z</time>
      </trkpt>
      <trkpt lat="48.43667" lon="2.71399">
        <ele>103.5</ele>
        <time>2018-11-18T10:45:28Z</time>
      </trkpt>
      <trkpt lat="48.43668" lon="2.71393">
        <ele>103.5</ele>
        <time>2018-11-18T10:45:29Z</time>
      </trkpt>
      <trkpt lat="48.43668" lon="2.71387">
        <ele>103.5</ele>
        <time>2018-11-18T10:45:30Z</time>
      </trkpt>
      <trkpt lat="48.43669" lon="2.7138">
        <ele>103.5</ele>
        <time>2018-11-18T10:45:31Z</time>
      </trkpt>
      <trkpt lat="48.4367" lon="2.71373">
        <ele>103.5</ele>
        <time>2018-11-18T10:45:32Z</time>
      </trkpt>
      <trkpt lat="48.43671" lon="2.71367">
        <ele>103.6</ele>
        <time>2018-11-18T10:45:33Z</time>
      </trkpt>
      <trkpt lat="48.43672" lon="2.71361">
        <ele>103.6</ele>
        <time>2018-11-18T10:45:34Z</time>
      </trkpt>
      <trkpt lat="48.43672" lon="2.71355">
        <ele>103.7</ele>
        <time>2018-11-18T10:45:35Z</time>
      </trkpt>
      <trkpt lat="48.43672" lon="2.71349">
        <ele>103.7</ele>
        <time>2018-11-18T10:45:36Z</time>
      </trkpt>
      <trkpt lat="48.43673" lon="2.71344">
        <ele>103.8</ele>
        <time>2018-11-18T10:45:37Z</time>
      </trkpt>
      <trkpt lat="48.43673" lon="2.7134">
        <ele>103.8</ele>
        <time>2018-11-18T10:45:38Z</time>
      </trkpt>
      <trkpt lat="48.43674" lon="2.71336">
        <ele>103.8</ele>
        <time>2018-11-18T10:45:39Z</time>
      </trkpt>
      <trkpt lat="48.43674" lon="2.71332">
        <ele>103.9</ele>
        <time>2018-11-18T10:45:40Z</time>
      </trkpt>
      <trkpt lat="48.43675" lon="2.71328">
        <ele>103.9</ele>
        <time>2018-11-18T10:45:41Z</time>
      </trkpt>
      <trkpt lat="48.43675" lon="2.71323">
        <ele>104</ele>
        <time>2018-11-18T10:45:42Z</time>
      </trkpt>
      <trkpt lat="48.43675" lon="2.71319">
        <ele>104.1</ele>
        <time>2018-11-18T10:45:43Z</time>
      </trkpt>
      <trkpt lat="48.43676" lon="2.71315">
        <ele>104.2</ele>
        <time>2018-11-18T10:45:44Z</time>
      </trkpt>
      <trkpt lat="48.43676" lon="2.7131">
        <ele>104.3</ele>
        <time>2018-11-18T10:45:45Z</time>
      </trkpt>
      <trkpt lat="48.43677" lon="2.71306">
        <ele>104.4</ele>
        <time>2018-11-18T10:45:46Z</time>
      </trkpt>
      <trkpt lat="48.43677" lon="2.71302">
        <ele>104.4</ele>
        <time>2018-11-18T10:45:47Z</time>
      </trkpt>
      <trkpt lat="48.43677" lon="2.71296">
        <ele>104.6</ele>
        <time>2018-11-18T10:45:48Z</time>
      </trkpt>
      <trkpt lat="48.43678" lon="2.71291">
        <ele>104.7</ele>
        <time>2018-11-18T10:45:49Z</time>
      </trkpt>
      <trkpt lat="48.43679" lon="2.71287">
        <ele>104.8</ele>
        <time>2018-11-18T10:45:50Z</time>
      </trkpt>
      <trkpt lat="48.43679" lon="2.71282">
        <ele>104.9</ele>
        <time>2018-11-18T10:45:51Z</time>
      </trkpt>
      <trkpt lat="48.43679" lon="2.71277">
        <ele>104.9</ele>
        <time>2018-11-18T10:45:52Z</time>
      </trkpt>
      <trkpt lat="48.4368" lon="2.71273">
        <ele>105</ele>
        <time>2018-11-18T10:45:53Z</time>
      </trkpt>
      <trkpt lat="48.43681" lon="2.7127">
        <ele>105.1</ele>
        <time>2018-11-18T10:45:54Z</time>
      </trkpt>
      <trkpt lat="48.43681" lon="2.71267">
        <ele>105.3</ele>
        <time>2018-11-18T10:45:55Z</time>
      </trkpt>
      <trkpt lat="48.43682" lon="2.71264">
        <ele>105.4</ele>
        <time>2018-11-18T10:45:56Z</time>
      </trkpt>
      <trkpt lat="48.43682" lon="2.7126">
        <ele>105.6</ele>
        <time>2018-11-18T10:45:57Z</time>
      </trkpt>
      <trkpt lat="48.43683" lon="2.71256">
        <ele>105.7</ele>
        <time>2018-11-18T10:45:58Z</time>
      </trkpt>
      <trkpt lat="48.43684" lon="2.71251">
        <ele>105.9</ele>
        <time>2018-11-18T10:45:59Z</time>
      </trkpt>
      <trkpt lat="48.43685" lon="2.71248">
        <ele>106</ele>
        <time>2018-11-18T10:46:00Z</time>
      </trkpt>
      <trkpt lat="48.43686" lon="2.71243">
        <ele>106.1</ele>
        <time>2018-11-18T10:46:01Z</time>
      </trkpt>
      <trkpt lat="48.43686" lon="2.71238">
        <ele>106.3</ele>
        <time>2018-11-18T10:46:02Z</time>
      </trkpt>
      <trkpt lat="48.43687" lon="2.71233">
        <ele>106.4</ele>
        <time>2018-11-18T10:46:03Z</time>
      </trkpt>
      <trkpt lat="48.43688" lon="2.71228">
        <ele>106.5</ele>
        <time>2018-11-18T10:46:04Z</time>
      </trkpt>
      <trkpt lat="48.43689" lon="2.71225">
        <ele>106.6</ele>
        <time>2018-11-18T10:46:05Z</time>
      </trkpt>
      <trkpt lat="48.43689" lon="2.7122">
        <ele>106.7</ele>
        <time>2018-11-18T10:46:06Z</time>
      </trkpt>
      <trkpt lat="48.4369" lon="2.71216">
        <ele>106.8</ele>
        <time>2018-11-18T10:46:07Z</time>
      </trkpt>
      <trkpt lat="48.4369" lon="2.71211">
        <ele>106.9</ele>
        <time>2018-11-18T10:46:08Z</time>
      </trkpt>
      <trkpt lat="48.4369" lon="2.71208">
        <ele>107</ele>
        <time>2018-11-18T10:46:09Z</time>
      </trkpt>
      <trkpt lat="48.43691" lon="2.71205">
        <ele>107.1</ele>
        <time>2018-11-18T10:46:10Z</time>
      </trkpt>
      <trkpt lat="48.43692" lon="2.71199">
        <ele>107.2</ele>
        <time>2018-11-18T10:46:11Z</time>
      </trkpt>
      <trkpt lat="48.43692" lon="2.71195">
        <ele>107.4</ele>
        <time>2018-11-18T10:46:12Z</time>
      </trkpt>
      <trkpt lat="48.43692" lon="2.71191">
        <ele>107.5</ele>
        <time>2018-11-18T10:46:13Z</time>
      </trkpt>
      <trkpt lat="48.43693" lon="2.71187">
        <ele>107.6</ele>
        <time>2018-11-18T10:46:14Z</time>
      </trkpt>
      <trkpt lat="48.43694" lon="2.71183">
        <ele>107.7</ele>
        <time>2018-11-18T10:46:15Z</time>
      </trkpt>
      <trkpt lat="48.43695" lon="2.71179">
        <ele>107.8</ele>
        <time>2018-11-18T10:46:16Z</time>
      </trkpt>
      <trkpt lat="48.43695" lon="2.71175">
        <ele>108</ele>
        <time>2018-11-18T10:46:17Z</time>
      </trkpt>
      <trkpt lat="48.43696" lon="2.71171">
        <ele>108.1</ele>
        <time>2018-11-18T10:46:18Z</time>
      </trkpt>
      <trkpt lat="48.43698" lon="2.71167">
        <ele>108.3</ele>
        <time>2018-11-18T10:46:19Z</time>
      </trkpt>
      <trkpt lat="48.43699" lon="2.71163">
        <ele>108.5</ele>
        <time>2018-11-18T10:46:20Z</time>
      </trkpt>
      <trkpt lat="48.43699" lon="2.71159">
        <ele>108.7</ele>
        <time>2018-11-18T10:46:21Z</time>
      </trkpt>
      <trkpt lat="48.437" lon="2.71155">
        <ele>108.9</ele>
        <time>2018-11-18T10:46:22Z</time>
      </trkpt>
      <trkpt lat="48.437" lon="2.71151">
        <ele>109.1</ele>
        <time>2018-11-18T10:46:23Z</time>
      </trkpt>
      <trkpt lat="48.437" lon="2.71147">
        <ele>109.3</ele>
        <time>2018-11-18T10:46:24Z</time>
      </trkpt>
      <trkpt lat="48.437" lon="2.71143">
        <ele>109.4</ele>
        <time>2018-11-18T10:46:25Z</time>
      </trkpt>
      <trkpt lat="48.437" lon="2.7114">
        <ele>109.6</ele>
        <time>2018-11-18T10:46:26Z</time>
      </trkpt>
      <trkpt lat="48.43701" lon="2.71136">
        <ele>109.7</ele>
        <time>2018-11-18T10:46:27Z</time>
      </trkpt>
      <trkpt lat="48.43701" lon="2.71132">
        <ele>109.9</ele>
        <time>2018-11-18T10:46:28Z</time>
      </trkpt>
      <trkpt lat="48.43702" lon="2.71128">
        <ele>110.1</ele>
        <time>2018-11-18T10:46:29Z</time>
      </trkpt>
      <trkpt lat="48.43702" lon="2.71124">
        <ele>110.2</ele>
        <time>2018-11-18T10:46:30Z</time>
      </trkpt>
      <trkpt lat="48.43703" lon="2.71121">
        <ele>110.3</ele>
        <time>2018-11-18T10:46:31Z</time>
      </trkpt>
      <trkpt lat="48.43704" lon="2.71117">
        <ele>110.5</ele>
        <time>2018-11-18T10:46:32Z</time>
      </trkpt>
      <trkpt lat="48.43704" lon="2.71113">
        <ele>110.6</ele>
        <time>2018-11-18T10:46:33Z</time>
      </trkpt>
      <trkpt lat="48.43705" lon="2.71109">
        <ele>110.7</ele>
        <time>2018-11-18T10:46:34Z</time>
      </trkpt>
      <trkpt lat="48.43705" lon="2.71105">
        <ele>110.9</ele>
        <time>2018-11-18T10:46:35Z</time>
      </trkpt>
      <trkpt lat="48.43706" lon="2.71101">
        <ele>111.1</ele>
        <time>2018-11-18T10:46:36Z</time>
      </trkpt>
      <trkpt lat="48.43707" lon="2.71098">
        <ele>111.4</ele>
        <time>2018-11-18T10:46:37Z</time>
      </trkpt>
      <trkpt lat="48.43708" lon="2.71094">
        <ele>111.6</ele>
        <time>2018-11-18T10:46:38Z</time>
      </trkpt>
      <trkpt lat="48.43709" lon="2.71091">
        <ele>111.9</ele>
        <time>2018-11-18T10:46:39Z</time>
      </trkpt>
      <trkpt lat="48.4371" lon="2.71089">
        <ele>112</ele>
        <time>2018-11-18T10:46:40Z</time>
      </trkpt>
      <trkpt lat="48.4371" lon="2.71086">
        <ele>112.2</ele>
        <time>2018-11-18T10:46:41Z</time>
      </trkpt>
      <trkpt lat="48.43712" lon="2.71082">
        <ele>112.5</ele>
        <time>2018-11-18T10:46:42Z</time>
      </trkpt>
      <trkpt lat="48.43713" lon="2.7108">
        <ele>112.7</ele>
        <time>2018-11-18T10:46:43Z</time>
      </trkpt>
      <trkpt lat="48.43715" lon="2.71077">
        <ele>112.9</ele>
        <time>2018-11-18T10:46:44Z</time>
      </trkpt>
      <trkpt lat="48.43716" lon="2.71075">
        <ele>113.1</ele>
        <time>2018-11-18T10:46:45Z</time>
      </trkpt>
      <trkpt lat="48.43717" lon="2.71074">
        <ele>113.2</ele>
        <time>2018-11-18T10:46:46Z</time>
      </trkpt>
      <trkpt lat="48.43718" lon="2.71072">
        <ele>113.4</ele>
        <time>2018-11-18T10:46:47Z</time>
      </trkpt>
      <trkpt lat="48.4372" lon="2.7107">
        <ele>113.6</ele>
        <time>2018-11-18T10:46:48Z</time>
      </trkpt>
      <trkpt lat="48.43721" lon="2.71068">
        <ele>113.7</ele>
        <time>2018-11-18T10:46:49Z</time>
      </trkpt>
      <trkpt lat="48.43723" lon="2.71066">
        <ele>113.8</ele>
        <time>2018-11-18T10:46:50Z</time>
      </trkpt>
      <trkpt lat="48.43724" lon="2.71065">
        <ele>114</ele>
        <time>2018-11-18T10:46:51Z</time>
      </trkpt>
      <trkpt lat="48.43725" lon="2.71063">
        <ele>114.1</ele>
        <time>2018-11-18T10:46:52Z</time>
      </trkpt>
      <trkpt lat="48.43726" lon="2.7106">
        <ele>114.2</ele>
        <time>2018-11-18T10:46:53Z</time>
      </trkpt>
      <trkpt lat="48.43726" lon="2.71058">
        <ele>114.3</ele>
        <time>2018-11-18T10:46:54Z</time>
      </trkpt>
      <trkpt lat="48.43727" lon="2.71055">
        <ele>114.4</ele>
        <time>2018-11-18T10:46:55Z</time>
      </trkpt>
      <trkpt lat="48.43728" lon="2.71052">
        <ele>114.6</ele>
        <time>2018-11-18T10:46:56Z</time>
      </trkpt>
      <trkpt lat="48.43729" lon="2.71049">
        <ele>114.7</ele>
        <time>2018-11-18T10:46:57Z</time>
      </trkpt>
      <trkpt lat="48.4373" lon="2.71046">
        <ele>114.9</ele>
        <time>2018-11-18T10:46:58Z</time>
      </trkpt>
      <trkpt lat="48.43731" lon="2.71044">
        <ele>115</ele>
        <time>2018-11-18T10:46:59Z</time>
      </trkpt>
      <trkpt lat="48.43732" lon="2.71042">
        <ele>115.1</ele>
        <time>2018-11-18T10:47:00Z</time>
      </trkpt>
      <trkpt lat="48.43733" lon="2.71039">
        <ele>115.2</ele>
        <time>2018-11-18T10:47:01Z</time>
      </trkpt>
      <trkpt lat="48.43733" lon="2.71037">
        <ele>115.4</ele>
        <time>2018-11-18T10:47:02Z</time>
      </trkpt>
      <trkpt lat="48.43734" lon="2.71035">
        <ele>115.5</ele>
        <time>2018-11-18T10:47:03Z</time>
      </trkpt>
      <trkpt lat="48.43734" lon="2.71033">
        <ele>115.6</ele>
        <time>2018-11-18T10:47:04Z</time>
      </trkpt>
      <trkpt lat="48.43735" lon="2.7103">
        <ele>115.7</ele>
        <time>2018-11-18T10:47:05Z</time>
      </trkpt>
      <trkpt lat="48.43736" lon="2.71028">
        <ele>115.9</ele>
        <time>2018-11-18T10:47:06Z</time>
      </trkpt>
      <trkpt lat="48.43736" lon="2.71025">
        <ele>116</ele>
        <time>2018-11-18T10:47:07Z</time>
      </trkpt>
      <trkpt lat="48.43737" lon="2.71023">
        <ele>116.1</ele>
        <time>2018-11-18T10:47:08Z</time>
      </trkpt>
      <trkpt lat="48.43737" lon="2.71021">
        <ele>116.3</ele>
        <time>2018-11-18T10:47:09Z</time>
      </trkpt>
      <trkpt lat="48.43737" lon="2.71019">
        <ele>116.4</ele>
        <time>2018-11-18T10:47:10Z</time>
      </trkpt>
      <trkpt lat="48.43737" lon="2.71017">
        <ele>116.5</ele>
        <time>2018-11-18T10:47:11Z</time>
      </trkpt>
      <trkpt lat="48.43737" lon="2.71014">
        <ele>116.7</ele>
        <time>2018-11-18T10:47:12Z</time>
      </trkpt>
      <trkpt lat="48.43736" lon="2.7101">
        <ele>116.9</ele>
        <time>2018-11-18T10:47:13Z</time>
      </trkpt>
      <trkpt lat="48.43737" lon="2.71007">
        <ele>117</ele>
        <time>2018-11-18T10:47:14Z</time>
      </trkpt>
      <trkpt lat="48.43736" lon="2.71004">
        <ele>117.2</ele>
        <time>2018-11-18T10:47:15Z</time>
      </trkpt>
      <trkpt lat="48.43737" lon="2.71001">
        <ele>117.3</ele>
        <time>2018-11-18T10:47:16Z</time>
      </trkpt>
      <trkpt lat="48.43738" lon="2.70999">
        <ele>117.5</ele>
        <time>2018-11-18T10:47:17Z</time>
      </trkpt>
      <trkpt lat="48.43738" lon="2.70997">
        <ele>117.6</ele>
        <time>2018-11-18T10:47:18Z</time>
      </trkpt>
      <trkpt lat="48.43739" lon="2.70994">
        <ele>117.7</ele>
        <time>2018-11-18T10:47:19Z</time>
      </trkpt>
      <trkpt lat="48.4374" lon="2.70991">
        <ele>117.9</ele>
        <time>2018-11-18T10:47:20Z</time>
      </trkpt>
      <trkpt lat="48.43741" lon="2.70989">
        <ele>118</ele>
        <time>2018-11-18T10:47:21Z</time>
      </trkpt>
      <trkpt lat="48.43743" lon="2.70989">
        <ele>118.2</ele>
        <time>2018-11-18T10:47:22Z</time>
      </trkpt>
      <trkpt lat="48.43744" lon="2.70988">
        <ele>118.3</ele>
        <time>2018-11-18T10:47:23Z</time>
      </trkpt>
      <trkpt lat="48.43746" lon="2.70989">
        <ele>118.5</ele>
        <time>2018-11-18T10:47:24Z</time>
      </trkpt>
      <trkpt lat="48.43747" lon="2.7099">
        <ele>118.7</ele>
        <time>2018-11-18T10:47:25Z</time>
      </trkpt>
      <trkpt lat="48.43749" lon="2.7099">
        <ele>118.9</ele>
        <time>2018-11-18T10:47:26Z</time>
      </trkpt>
      <trkpt lat="48.43752" lon="2.70991">
        <ele>119.4</ele>
        <time>2018-11-18T10:47:27Z</time>
      </trkpt>
      <trkpt lat="48.43754" lon="2.70991">
        <ele>119.4</ele>
        <time>2018-11-18T10:47:28Z</time>
      </trkpt>
      <trkpt lat="48.43756" lon="2.70992">
        <ele>119.5</ele>
        <time>2018-11-18T10:47:29Z</time>
      </trkpt>
      <trkpt lat="48.43758" lon="2.70992">
        <ele>119.5</ele>
        <time>2018-11-18T10:47:30Z</time>
      </trkpt>
      <trkpt lat="48.4376" lon="2.70993">
        <ele>119.5</ele>
        <time>2018-11-18T10:47:31Z</time>
      </trkpt>
      <trkpt lat="48.43762" lon="2.70993">
        <ele>119.6</ele>
        <time>2018-11-18T10:47:32Z</time>
      </trkpt>
      <trkpt lat="48.43763" lon="2.70993">
        <ele>119.6</ele>
        <time>2018-11-18T10:47:33Z</time>
      </trkpt>
      <trkpt lat="48.43764" lon="2.70994">
        <ele>119.6</ele>
        <time>2018-11-18T10:47:34Z</time>
      </trkpt>
      <trkpt lat="48.43766" lon="2.70996">
        <ele>119.6</ele>
        <time>2018-11-18T10:47:35Z</time>
      </trkpt>
      <trkpt lat="48.43767" lon="2.70997">
        <ele>119.6</ele>
        <time>2018-11-18T10:47:36Z</time>
      </trkpt>
      <trkpt lat="48.4377" lon="2.70999">
        <ele>119.6</ele>
        <time>2018-11-18T10:47:37Z</time>
      </trkpt>
      <trkpt lat="48.43773" lon="2.71002">
        <ele>119.6</ele>
        <time>2018-11-18T10:47:38Z</time>
      </trkpt>
      <trkpt lat="48.43775" lon="2.71003">
        <ele>119.6</ele>
        <time>2018-11-18T10:47:39Z</time>
      </trkpt>
      <trkpt lat="48.43778" lon="2.71004">
        <ele>119.6</ele>
        <time>2018-11-18T10:47:40Z</time>
      </trkpt>
      <trkpt lat="48.43781" lon="2.71005">
        <ele>119.5</ele>
        <time>2018-11-18T10:47:41Z</time>
      </trkpt>
      <trkpt lat="48.43784" lon="2.71005">
        <ele>119.4</ele>
        <time>2018-11-18T10:47:42Z</time>
      </trkpt>
      <trkpt lat="48.43786" lon="2.71005">
        <ele>119.3</ele>
        <time>2018-11-18T10:47:43Z</time>
      </trkpt>
      <trkpt lat="48.43788" lon="2.71005">
        <ele>119.2</ele>
        <time>2018-11-18T10:47:44Z</time>
      </trkpt>
      <trkpt lat="48.4379" lon="2.71005">
        <ele>119.1</ele>
        <time>2018-11-18T10:47:45Z</time>
      </trkpt>
      <trkpt lat="48.43792" lon="2.71006">
        <ele>118.9</ele>
        <time>2018-11-18T10:47:46Z</time>
      </trkpt>
      <trkpt lat="48.43794" lon="2.71007">
        <ele>118.8</ele>
        <time>2018-11-18T10:47:47Z</time>
      </trkpt>
      <trkpt lat="48.43796" lon="2.71009">
        <ele>118.6</ele>
        <time>2018-11-18T10:47:48Z</time>
      </trkpt>
      <trkpt lat="48.43799" lon="2.71011">
        <ele>118.3</ele>
        <time>2018-11-18T10:47:49Z</time>
      </trkpt>
      <trkpt lat="48.43803" lon="2.71013">
        <ele>117.9</ele>
        <time>2018-11-18T10:47:50Z</time>
      </trkpt>
      <trkpt lat="48.43809" lon="2.71015">
        <ele>117.4</ele>
        <time>2018-11-18T10:47:51Z</time>
      </trkpt>
      <trkpt lat="48.43814" lon="2.71017">
        <ele>116.9</ele>
        <time>2018-11-18T10:47:52Z</time>
      </trkpt>
      <trkpt lat="48.43818" lon="2.7102">
        <ele>116.5</ele>
        <time>2018-11-18T10:47:53Z</time>
      </trkpt>
      <trkpt lat="48.43821" lon="2.71023">
        <ele>116.2</ele>
        <time>2018-11-18T10:47:54Z</time>
      </trkpt>
      <trkpt lat="48.43824" lon="2.71025">
        <ele>116</ele>
        <time>2018-11-18T10:47:55Z</time>
      </trkpt>
      <trkpt lat="48.43825" lon="2.71025">
        <ele>115.9</ele>
        <time>2018-11-18T10:47:56Z</time>
      </trkpt>
      <trkpt lat="48.43826" lon="2.71025">
        <ele>115.8</ele>
        <time>2018-11-18T10:47:57Z</time>
      </trkpt>
      <trkpt lat="48.43826" lon="2.71025">
        <ele>115.8</ele>
        <time>2018-11-18T10:47:58Z</time>
      </trkpt>
      <trkpt lat="48.43826" lon="2.71024">
        <ele>115.8</ele>
        <time>2018-11-18T10:47:59Z</time>
      </trkpt>
      <trkpt lat="48.43826" lon="2.71024">
        <ele>115.8</ele>
        <time>2018-11-18T10:48:00Z</time>
      </trkpt>
      <trkpt lat="48.43826" lon="2.71024">
        <ele>115.8</ele>
        <time>2018-11-18T10:48:01Z</time>
      </trkpt>
      <trkpt lat="48.43826" lon="2.71024">
        <ele>115.8</ele>
        <time>2018-11-18T10:48:02Z</time>
      </trkpt>
      <trkpt lat="48.43826" lon="2.71024">
        <ele>115.8</ele>
        <time>2018-11-18T10:48:03Z</time>
      </trkpt>
      <trkpt lat="48.43826" lon="2.71024">
        <ele>115.8</ele>
        <time>2018-11-18T10:48:04Z</time>
      </trkpt>
      <trkpt lat="48.43826" lon="2.71024">
        <ele>115.8</ele>
        <time>2018-11-18T10:48:05Z</time>
      </trkpt>
      <trkpt lat="48.43826" lon="2.71024">
        <ele>115.8</ele>
        <time>2018-11-18T10:48:06Z</time>
      </trkpt>
      <trkpt lat="48.43826" lon="2.71024">
        <ele>115.8</ele>
        <time>2018-11-18T10:48:07Z</time>
      </trkpt>
      <trkpt lat="48.43826" lon="2.71024">
        <ele>115.8</ele>
        <time>2018-11-18T10:48:08Z</time>
      </trkpt>
      <trkpt lat="48.4384" lon="2.70987">
        <ele>118.3</ele>
        <time>2018-11-18T10:51:04Z</time>
      </trkpt>
      <trkpt lat="48.43841" lon="2.70984">
        <ele>118.4</ele>
        <time>2018-11-18T10:51:05Z</time>
      </trkpt>
      <trkpt lat="48.43842" lon="2.70981">
        <ele>118.6</ele>
        <time>2018-11-18T10:51:06Z</time>
      </trkpt>
      <trkpt lat="48.43842" lon="2.70979">
        <ele>118.7</ele>
        <time>2018-11-18T10:51:07Z</time>
      </trkpt>
      <trkpt lat="48.43843" lon="2.70976">
        <ele>118.8</ele>
        <time>2018-11-18T10:51:08Z</time>
      </trkpt>
      <trkpt lat="48.43843" lon="2.70973">
        <ele>118.9</ele>
        <time>2018-11-18T10:51:09Z</time>
      </trkpt>
      <trkpt lat="48.43843" lon="2.7097">
        <ele>119.1</ele>
        <time>2018-11-18T10:51:10Z</time>
      </trkpt>
      <trkpt lat="48.43844" lon="2.70967">
        <ele>119.2</ele>
        <time>2018-11-18T10:51:11Z</time>
      </trkpt>
      <trkpt lat="48.43845" lon="2.70964">
        <ele>119.3</ele>
        <time>2018-11-18T10:51:12Z</time>
      </trkpt>
      <trkpt lat="48.43845" lon="2.70962">
        <ele>119.4</ele>
        <time>2018-11-18T10:51:13Z</time>
      </trkpt>
      <trkpt lat="48.43845" lon="2.70959">
        <ele>119.5</ele>
        <time>2018-11-18T10:51:14Z</time>
      </trkpt>
      <trkpt lat="48.43846" lon="2.70956">
        <ele>119.5</ele>
        <time>2018-11-18T10:51:15Z</time>
      </trkpt>
      <trkpt lat="48.43846" lon="2.70953">
        <ele>119.6</ele>
        <time>2018-11-18T10:51:16Z</time>
      </trkpt>
      <trkpt lat="48.43846" lon="2.70949">
        <ele>119.7</ele>
        <time>2018-11-18T10:51:17Z</time>
      </trkpt>
      <trkpt lat="48.43846" lon="2.70945">
        <ele>119.8</ele>
        <time>2018-11-18T10:51:18Z</time>
      </trkpt>
      <trkpt lat="48.43846" lon="2.70942">
        <ele>119.9</ele>
        <time>2018-11-18T10:51:19Z</time>
      </trkpt>
      <trkpt lat="48.43847" lon="2.70938">
        <ele>120</ele>
        <time>2018-11-18T10:51:20Z</time>
      </trkpt>
      <trkpt lat="48.43847" lon="2.70934">
        <ele>120.1</ele>
        <time>2018-11-18T10:51:21Z</time>
      </trkpt>
      <trkpt lat="48.43848" lon="2.7093">
        <ele>120.1</ele>
        <time>2018-11-18T10:51:22Z</time>
      </trkpt>
      <trkpt lat="48.43849" lon="2.70926">
        <ele>120.2</ele>
        <time>2018-11-18T10:51:23Z</time>
      </trkpt>
      <trkpt lat="48.4385" lon="2.70921">
        <ele>120.2</ele>
        <time>2018-11-18T10:51:24Z</time>
      </trkpt>
      <trkpt lat="48.43851" lon="2.70917">
        <ele>120.2</ele>
        <time>2018-11-18T10:51:25Z</time>
      </trkpt>
      <trkpt lat="48.43851" lon="2.70912">
        <ele>120.2</ele>
        <time>2018-11-18T10:51:26Z</time>
      </trkpt>
      <trkpt lat="48.43852" lon="2.70907">
        <ele>120.2</ele>
        <time>2018-11-18T10:51:27Z</time>
      </trkpt>
      <trkpt lat="48.43853" lon="2.70902">
        <ele>120.1</ele>
        <time>2018-11-18T10:51:28Z</time>
      </trkpt>
      <trkpt lat="48.43854" lon="2.70898">
        <ele>120.1</ele>
        <time>2018-11-18T10:51:29Z</time>
      </trkpt>
      <trkpt lat="48.43855" lon="2.70894">
        <ele>120.1</ele>
        <time>2018-11-18T10:51:30Z</time>
      </trkpt>
      <trkpt lat="48.43855" lon="2.7089">
        <ele>120.1</ele>
        <time>2018-11-18T10:51:31Z</time>
      </trkpt>
      <trkpt lat="48.43856" lon="2.70886">
        <ele>120.1</ele>
        <time>2018-11-18T10:51:32Z</time>
      </trkpt>
      <trkpt lat="48.43857" lon="2.70881">
        <ele>120</ele>
        <time>2018-11-18T10:51:33Z</time>
      </trkpt>
      <trkpt lat="48.43858" lon="2.70876">
        <ele>120</ele>
        <time>2018-11-18T10:51:34Z</time>
      </trkpt>
      <trkpt lat="48.43859" lon="2.70872">
        <ele>120</ele>
        <time>2018-11-18T10:51:35Z</time>
      </trkpt>
      <trkpt lat="48.4386" lon="2.70868">
        <ele>119.9</ele>
        <time>2018-11-18T10:51:36Z</time>
      </trkpt>
      <trkpt lat="48.43861" lon="2.70863">
        <ele>119.9</ele>
        <time>2018-11-18T10:51:37Z</time>
      </trkpt>
      <trkpt lat="48.43862" lon="2.70858">
        <ele>119.9</ele>
        <time>2018-11-18T10:51:38Z</time>
      </trkpt>
      <trkpt lat="48.43863" lon="2.70854">
        <ele>119.8</ele>
        <time>2018-11-18T10:51:39Z</time>
      </trkpt>
      <trkpt lat="48.43864" lon="2.70849">
        <ele>119.8</ele>
        <time>2018-11-18T10:51:40Z</time>
      </trkpt>
      <trkpt lat="48.43865" lon="2.70845">
        <ele>119.7</ele>
        <time>2018-11-18T10:51:41Z</time>
      </trkpt>
      <trkpt lat="48.43866" lon="2.7084">
        <ele>119.7</ele>
        <time>2018-11-18T10:51:42Z</time>
      </trkpt>
      <trkpt lat="48.43867" lon="2.70835">
        <ele>119.6</ele>
        <time>2018-11-18T10:51:43Z</time>
      </trkpt>
      <trkpt lat="48.43869" lon="2.7083">
        <ele>119.5</ele>
        <time>2018-11-18T10:51:44Z</time>
      </trkpt>
      <trkpt lat="48.4387" lon="2.70825">
        <ele>119.4</ele>
        <time>2018-11-18T10:51:45Z</time>
      </trkpt>
      <trkpt lat="48.43871" lon="2.70819">
        <ele>119.3</ele>
        <time>2018-11-18T10:51:46Z</time>
      </trkpt>
      <trkpt lat="48.43872" lon="2.70814">
        <ele>119.2</ele>
        <time>2018-11-18T10:51:47Z</time>
      </trkpt>
      <trkpt lat="48.43873" lon="2.7081">
        <ele>119.1</ele>
        <time>2018-11-18T10:51:48Z</time>
      </trkpt>
      <trkpt lat="48.43874" lon="2.70804">
        <ele>119</ele>
        <time>2018-11-18T10:51:49Z</time>
      </trkpt>
      <trkpt lat="48.43874" lon="2.70799">
        <ele>118.9</ele>
        <time>2018-11-18T10:51:50Z</time>
      </trkpt>
      <trkpt lat="48.43875" lon="2.70793">
        <ele>118.7</ele>
        <time>2018-11-18T10:51:51Z</time>
      </trkpt>
      <trkpt lat="48.43875" lon="2.70787">
        <ele>118.5</ele>
        <time>2018-11-18T10:51:52Z</time>
      </trkpt>
      <trkpt lat="48.43875" lon="2.7078">
        <ele>118.4</ele>
        <time>2018-11-18T10:51:53Z</time>
      </trkpt>
      <trkpt lat="48.43875" lon="2.70774">
        <ele>118.2</ele>
        <time>2018-11-18T10:51:54Z</time>
      </trkpt>
      <trkpt lat="48.43875" lon="2.70768">
        <ele>118</ele>
        <time>2018-11-18T10:51:55Z</time>
      </trkpt>
      <trkpt lat="48.43876" lon="2.70762">
        <ele>117.8</ele>
        <time>2018-11-18T10:51:56Z</time>
      </trkpt>
      <trkpt lat="48.43877" lon="2.70756">
        <ele>117.6</ele>
        <time>2018-11-18T10:51:57Z</time>
      </trkpt>
      <trkpt lat="48.43878" lon="2.70751">
        <ele>117.4</ele>
        <time>2018-11-18T10:51:58Z</time>
      </trkpt>
      <trkpt lat="48.43879" lon="2.70747">
        <ele>117.2</ele>
        <time>2018-11-18T10:51:59Z</time>
      </trkpt>
      <trkpt lat="48.43879" lon="2.70744">
        <ele>117.1</ele>
        <time>2018-11-18T10:52:00Z</time>
      </trkpt>
      <trkpt lat="48.43879" lon="2.70742">
        <ele>117</ele>
        <time>2018-11-18T10:52:01Z</time>
      </trkpt>
      <trkpt lat="48.43879" lon="2.70741">
        <ele>116.9</ele>
        <time>2018-11-18T10:52:02Z</time>
      </trkpt>
      <trkpt lat="48.43879" lon="2.70738">
        <ele>116.9</ele>
        <time>2018-11-18T10:52:03Z</time>
      </trkpt>
      <trkpt lat="48.43879" lon="2.70737">
        <ele>116.8</ele>
        <time>2018-11-18T10:52:04Z</time>
      </trkpt>
      <trkpt lat="48.43879" lon="2.70734">
        <ele>116.7</ele>
        <time>2018-11-18T10:52:05Z</time>
      </trkpt>
      <trkpt lat="48.43879" lon="2.70732">
        <ele>116.6</ele>
        <time>2018-11-18T10:52:06Z</time>
      </trkpt>
      <trkpt lat="48.43878" lon="2.70729">
        <ele>116.5</ele>
        <time>2018-11-18T10:52:07Z</time>
      </trkpt>
      <trkpt lat="48.43878" lon="2.70727">
        <ele>116.4</ele>
        <time>2018-11-18T10:52:08Z</time>
      </trkpt>
      <trkpt lat="48.43877" lon="2.70725">
        <ele>116.3</ele>
        <time>2018-11-18T10:52:09Z</time>
      </trkpt>
      <trkpt lat="48.43876" lon="2.70722">
        <ele>116.2</ele>
        <time>2018-11-18T10:52:10Z</time>
      </trkpt>
      <trkpt lat="48.43876" lon="2.70719">
        <ele>116.1</ele>
        <time>2018-11-18T10:52:11Z</time>
      </trkpt>
      <trkpt lat="48.43875" lon="2.70717">
        <ele>115.9</ele>
        <time>2018-11-18T10:52:12Z</time>
      </trkpt>
      <trkpt lat="48.43874" lon="2.70715">
        <ele>116.1</ele>
        <time>2018-11-18T10:52:13Z</time>
      </trkpt>
      <trkpt lat="48.43872" lon="2.70713">
        <ele>116.2</ele>
        <time>2018-11-18T10:52:14Z</time>
      </trkpt>
      <trkpt lat="48.43871" lon="2.70711">
        <ele>116.4</ele>
        <time>2018-11-18T10:52:15Z</time>
      </trkpt>
      <trkpt lat="48.43869" lon="2.70709">
        <ele>116.6</ele>
        <time>2018-11-18T10:52:16Z</time>
      </trkpt>
      <trkpt lat="48.43868" lon="2.70707">
        <ele>116.7</ele>
        <time>2018-11-18T10:52:17Z</time>
      </trkpt>
      <trkpt lat="48.43866" lon="2.70706">
        <ele>116.8</ele>
        <time>2018-11-18T10:52:18Z</time>
      </trkpt>
      <trkpt lat="48.43865" lon="2.70704">
        <ele>117</ele>
        <time>2018-11-18T10:52:19Z</time>
      </trkpt>
      <trkpt lat="48.43863" lon="2.70703">
        <ele>117.2</ele>
        <time>2018-11-18T10:52:20Z</time>
      </trkpt>
      <trkpt lat="48.43862" lon="2.70702">
        <ele>117.3</ele>
        <time>2018-11-18T10:52:21Z</time>
      </trkpt>
      <trkpt lat="48.4386" lon="2.70702">
        <ele>117.5</ele>
        <time>2018-11-18T10:52:22Z</time>
      </trkpt>
      <trkpt lat="48.43858" lon="2.70702">
        <ele>117.6</ele>
        <time>2018-11-18T10:52:23Z</time>
      </trkpt>
      <trkpt lat="48.43856" lon="2.70702">
        <ele>117.8</ele>
        <time>2018-11-18T10:52:24Z</time>
      </trkpt>
      <trkpt lat="48.43855" lon="2.70703">
        <ele>117.9</ele>
        <time>2018-11-18T10:52:25Z</time>
      </trkpt>
      <trkpt lat="48.43854" lon="2.70703">
        <ele>118</ele>
        <time>2018-11-18T10:52:26Z</time>
      </trkpt>
      <trkpt lat="48.43852" lon="2.70703">
        <ele>118.2</ele>
        <time>2018-11-18T10:52:27Z</time>
      </trkpt>
      <trkpt lat="48.4385" lon="2.70703">
        <ele>118.4</ele>
        <time>2018-11-18T10:52:28Z</time>
      </trkpt>
      <trkpt lat="48.43849" lon="2.70702">
        <ele>118.6</ele>
        <time>2018-11-18T10:52:29Z</time>
      </trkpt>
      <trkpt lat="48.43847" lon="2.70702">
        <ele>118.8</ele>
        <time>2018-11-18T10:52:30Z</time>
      </trkpt>
      <trkpt lat="48.43845" lon="2.70701">
        <ele>119</ele>
        <time>2018-11-18T10:52:31Z</time>
      </trkpt>
      <trkpt lat="48.43843" lon="2.707">
        <ele>119.2</ele>
        <time>2018-11-18T10:52:32Z</time>
      </trkpt>
      <trkpt lat="48.43841" lon="2.70699">
        <ele>119.4</ele>
        <time>2018-11-18T10:52:33Z</time>
      </trkpt>
      <trkpt lat="48.43839" lon="2.70699">
        <ele>119.6</ele>
        <time>2018-11-18T10:52:34Z</time>
      </trkpt>
      <trkpt lat="48.43838" lon="2.70698">
        <ele>119.8</ele>
        <time>2018-11-18T10:52:35Z</time>
      </trkpt>
      <trkpt lat="48.43836" lon="2.70696">
        <ele>120</ele>
        <time>2018-11-18T10:52:36Z</time>
      </trkpt>
      <trkpt lat="48.43835" lon="2.70695">
        <ele>120.2</ele>
        <time>2018-11-18T10:52:37Z</time>
      </trkpt>
      <trkpt lat="48.43833" lon="2.70694">
        <ele>120.4</ele>
        <time>2018-11-18T10:52:38Z</time>
      </trkpt>
      <trkpt lat="48.43832" lon="2.70693">
        <ele>120.5</ele>
        <time>2018-11-18T10:52:39Z</time>
      </trkpt>
      <trkpt lat="48.43831" lon="2.70692">
        <ele>120.7</ele>
        <time>2018-11-18T10:52:40Z</time>
      </trkpt>
      <trkpt lat="48.4383" lon="2.70691">
        <ele>120.9</ele>
        <time>2018-11-18T10:52:41Z</time>
      </trkpt>
      <trkpt lat="48.43828" lon="2.7069">
        <ele>121.1</ele>
        <time>2018-11-18T10:52:42Z</time>
      </trkpt>
      <trkpt lat="48.43827" lon="2.7069">
        <ele>121.2</ele>
        <time>2018-11-18T10:52:43Z</time>
      </trkpt>
      <trkpt lat="48.43826" lon="2.70689">
        <ele>121.4</ele>
        <time>2018-11-18T10:52:44Z</time>
      </trkpt>
      <trkpt lat="48.43824" lon="2.70689">
        <ele>121.7</ele>
        <time>2018-11-18T10:52:45Z</time>
      </trkpt>
      <trkpt lat="48.43821" lon="2.70686">
        <ele>122.4</ele>
        <time>2018-11-18T10:52:52Z</time>
      </trkpt>
      <trkpt lat="48.43819" lon="2.70685">
        <ele>122.7</ele>
        <time>2018-11-18T10:52:53Z</time>
      </trkpt>
      <trkpt lat="48.43818" lon="2.70685">
        <ele>122.9</ele>
        <time>2018-11-18T10:52:54Z</time>
      </trkpt>
      <trkpt lat="48.43818" lon="2.70685">
        <ele>123.1</ele>
        <time>2018-11-18T10:52:55Z</time>
      </trkpt>
      <trkpt lat="48.43817" lon="2.70684">
        <ele>123.2</ele>
        <time>2018-11-18T10:52:56Z</time>
      </trkpt>
      <trkpt lat="48.43817" lon="2.70684">
        <ele>123.3</ele>
        <time>2018-11-18T10:52:57Z</time>
      </trkpt>
      <trkpt lat="48.43817" lon="2.70684">
        <ele>123.3</ele>
        <time>2018-11-18T10:52:58Z</time>
      </trkpt>
      <trkpt lat="48.43817" lon="2.70684">
        <ele>123.3</ele>
        <time>2018-11-18T10:53:07Z</time>
      </trkpt>
      <trkpt lat="48.43813" lon="2.70684">
        <ele>123.9</ele>
        <time>2018-11-18T10:53:08Z</time>
      </trkpt>
      <trkpt lat="48.4381" lon="2.70684">
        <ele>124.5</ele>
        <time>2018-11-18T10:53:09Z</time>
      </trkpt>
      <trkpt lat="48.43809" lon="2.70684">
        <ele>124.7</ele>
        <time>2018-11-18T10:53:10Z</time>
      </trkpt>
      <trkpt lat="48.43808" lon="2.70684">
        <ele>124.9</ele>
        <time>2018-11-18T10:53:11Z</time>
      </trkpt>
      <trkpt lat="48.43807" lon="2.70684">
        <ele>125</ele>
        <time>2018-11-18T10:53:12Z</time>
      </trkpt>
      <trkpt lat="48.43806" lon="2.70685">
        <ele>125.2</ele>
        <time>2018-11-18T10:53:13Z</time>
      </trkpt>
      <trkpt lat="48.43805" lon="2.70685">
        <ele>125.4</ele>
        <time>2018-11-18T10:53:14Z</time>
      </trkpt>
      <trkpt lat="48.43804" lon="2.70685">
        <ele>125.5</ele>
        <time>2018-11-18T10:53:15Z</time>
      </trkpt>
      <trkpt lat="48.43802" lon="2.70685">
        <ele>125.7</ele>
        <time>2018-11-18T10:53:16Z</time>
      </trkpt>
      <trkpt lat="48.43801" lon="2.70685">
        <ele>125.8</ele>
        <time>2018-11-18T10:53:17Z</time>
      </trkpt>
      <trkpt lat="48.43799" lon="2.70685">
        <ele>126</ele>
        <time>2018-11-18T10:53:18Z</time>
      </trkpt>
      <trkpt lat="48.43798" lon="2.70685">
        <ele>126.1</ele>
        <time>2018-11-18T10:53:19Z</time>
      </trkpt>
      <trkpt lat="48.43797" lon="2.70685">
        <ele>126.2</ele>
        <time>2018-11-18T10:53:20Z</time>
      </trkpt>
      <trkpt lat="48.43796" lon="2.70686">
        <ele>126.4</ele>
        <time>2018-11-18T10:53:21Z</time>
      </trkpt>
      <trkpt lat="48.43795" lon="2.70685">
        <ele>126.5</ele>
        <time>2018-11-18T10:53:22Z</time>
      </trkpt>
      <trkpt lat="48.43794" lon="2.70685">
        <ele>126.6</ele>
        <time>2018-11-18T10:53:23Z</time>
      </trkpt>
      <trkpt lat="48.43792" lon="2.70685">
        <ele>126.7</ele>
        <time>2018-11-18T10:53:24Z</time>
      </trkpt>
      <trkpt lat="48.43791" lon="2.70685">
        <ele>126.9</ele>
        <time>2018-11-18T10:53:25Z</time>
      </trkpt>
      <trkpt lat="48.4379" lon="2.70685">
        <ele>127</ele>
        <time>2018-11-18T10:53:26Z</time>
      </trkpt>
      <trkpt lat="48.43788" lon="2.70685">
        <ele>127.2</ele>
        <time>2018-11-18T10:53:27Z</time>
      </trkpt>
      <trkpt lat="48.43787" lon="2.70685">
        <ele>127.3</ele>
        <time>2018-11-18T10:53:28Z</time>
      </trkpt>
      <trkpt lat="48.43786" lon="2.70685">
        <ele>127.5</ele>
        <time>2018-11-18T10:53:29Z</time>
      </trkpt>
      <trkpt lat="48.43785" lon="2.70684">
        <ele>127.6</ele>
        <time>2018-11-18T10:53:30Z</time>
      </trkpt>
      <trkpt lat="48.43784" lon="2.70684">
        <ele>127.8</ele>
        <time>2018-11-18T10:53:31Z</time>
      </trkpt>
      <trkpt lat="48.43782" lon="2.70684">
        <ele>127.9</ele>
        <time>2018-11-18T10:53:32Z</time>
      </trkpt>
      <trkpt lat="48.43781" lon="2.70683">
        <ele>128.1</ele>
        <time>2018-11-18T10:53:33Z</time>
      </trkpt>
      <trkpt lat="48.43779" lon="2.70682">
        <ele>128.3</ele>
        <time>2018-11-18T10:53:34Z</time>
      </trkpt>
      <trkpt lat="48.43778" lon="2.70682">
        <ele>128.4</ele>
        <time>2018-11-18T10:53:35Z</time>
      </trkpt>
      <trkpt lat="48.43777" lon="2.70682">
        <ele>128.5</ele>
        <time>2018-11-18T10:53:36Z</time>
      </trkpt>
      <trkpt lat="48.43776" lon="2.70681">
        <ele>128.6</ele>
        <time>2018-11-18T10:53:37Z</time>
      </trkpt>
      <trkpt lat="48.43775" lon="2.7068">
        <ele>128.8</ele>
        <time>2018-11-18T10:53:38Z</time>
      </trkpt>
      <trkpt lat="48.43774" lon="2.70679">
        <ele>128.9</ele>
        <time>2018-11-18T10:53:39Z</time>
      </trkpt>
      <trkpt lat="48.43773" lon="2.70678">
        <ele>129.1</ele>
        <time>2018-11-18T10:53:40Z</time>
      </trkpt>
      <trkpt lat="48.43772" lon="2.70677">
        <ele>129.3</ele>
        <time>2018-11-18T10:53:41Z</time>
      </trkpt>
      <trkpt lat="48.43771" lon="2.70676">
        <ele>129.5</ele>
        <time>2018-11-18T10:53:42Z</time>
      </trkpt>
      <trkpt lat="48.4377" lon="2.70675">
        <ele>129.7</ele>
        <time>2018-11-18T10:53:43Z</time>
      </trkpt>
      <trkpt lat="48.43769" lon="2.70674">
        <ele>129.8</ele>
        <time>2018-11-18T10:53:44Z</time>
      </trkpt>
      <trkpt lat="48.43768" lon="2.70673">
        <ele>129.9</ele>
        <time>2018-11-18T10:53:45Z</time>
      </trkpt>
      <trkpt lat="48.43768" lon="2.70672">
        <ele>130</ele>
        <time>2018-11-18T10:53:46Z</time>
      </trkpt>
      <trkpt lat="48.43767" lon="2.70671">
        <ele>130.2</ele>
        <time>2018-11-18T10:53:47Z</time>
      </trkpt>
      <trkpt lat="48.43767" lon="2.7067">
        <ele>130.3</ele>
        <time>2018-11-18T10:53:48Z</time>
      </trkpt>
      <trkpt lat="48.43766" lon="2.70669">
        <ele>130.5</ele>
        <time>2018-11-18T10:53:49Z</time>
      </trkpt>
      <trkpt lat="48.43765" lon="2.70667">
        <ele>130.6</ele>
        <time>2018-11-18T10:53:50Z</time>
      </trkpt>
      <trkpt lat="48.43764" lon="2.70666">
        <ele>130.8</ele>
        <time>2018-11-18T10:53:51Z</time>
      </trkpt>
      <trkpt lat="48.43764" lon="2.70665">
        <ele>130.9</ele>
        <time>2018-11-18T10:53:52Z</time>
      </trkpt>
      <trkpt lat="48.43763" lon="2.70664">
        <ele>131</ele>
        <time>2018-11-18T10:53:53Z</time>
      </trkpt>
      <trkpt lat="48.43763" lon="2.70663">
        <ele>131.1</ele>
        <time>2018-11-18T10:53:54Z</time>
      </trkpt>
      <trkpt lat="48.43762" lon="2.70662">
        <ele>131.3</ele>
        <time>2018-11-18T10:53:55Z</time>
      </trkpt>
      <trkpt lat="48.43762" lon="2.7066">
        <ele>131.4</ele>
        <time>2018-11-18T10:53:56Z</time>
      </trkpt>
      <trkpt lat="48.43761" lon="2.70659">
        <ele>131.6</ele>
        <time>2018-11-18T10:53:57Z</time>
      </trkpt>
      <trkpt lat="48.43761" lon="2.70657">
        <ele>131.8</ele>
        <time>2018-11-18T10:53:58Z</time>
      </trkpt>
      <trkpt lat="48.4376" lon="2.70655">
        <ele>132.1</ele>
        <time>2018-11-18T10:53:59Z</time>
      </trkpt>
      <trkpt lat="48.43759" lon="2.70653">
        <ele>132.3</ele>
        <time>2018-11-18T10:54:00Z</time>
      </trkpt>
      <trkpt lat="48.43758" lon="2.70651">
        <ele>132.6</ele>
        <time>2018-11-18T10:54:01Z</time>
      </trkpt>
      <trkpt lat="48.43757" lon="2.70649">
        <ele>132.8</ele>
        <time>2018-11-18T10:54:02Z</time>
      </trkpt>
      <trkpt lat="48.43757" lon="2.70648">
        <ele>133</ele>
        <time>2018-11-18T10:54:03Z</time>
      </trkpt>
      <trkpt lat="48.43756" lon="2.70646">
        <ele>133.2</ele>
        <time>2018-11-18T10:54:04Z</time>
      </trkpt>
      <trkpt lat="48.43755" lon="2.70644">
        <ele>133.4</ele>
        <time>2018-11-18T10:54:05Z</time>
      </trkpt>
      <trkpt lat="48.43754" lon="2.70643">
        <ele>133.6</ele>
        <time>2018-11-18T10:54:06Z</time>
      </trkpt>
      <trkpt lat="48.43753" lon="2.70642">
        <ele>133.7</ele>
        <time>2018-11-18T10:54:07Z</time>
      </trkpt>
      <trkpt lat="48.43752" lon="2.70641">
        <ele>133.9</ele>
        <time>2018-11-18T10:54:08Z</time>
      </trkpt>
      <trkpt lat="48.43751" lon="2.7064">
        <ele>134</ele>
        <time>2018-11-18T10:54:09Z</time>
      </trkpt>
      <trkpt lat="48.4375" lon="2.70639">
        <ele>134.1</ele>
        <time>2018-11-18T10:54:10Z</time>
      </trkpt>
      <trkpt lat="48.43749" lon="2.70638">
        <ele>134.3</ele>
        <time>2018-11-18T10:54:11Z</time>
      </trkpt>
      <trkpt lat="48.43748" lon="2.70636">
        <ele>134.4</ele>
        <time>2018-11-18T10:54:12Z</time>
      </trkpt>
      <trkpt lat="48.43747" lon="2.70636">
        <ele>134.6</ele>
        <time>2018-11-18T10:54:13Z</time>
      </trkpt>
      <trkpt lat="48.43746" lon="2.70635">
        <ele>134.7</ele>
        <time>2018-11-18T10:54:14Z</time>
      </trkpt>
      <trkpt lat="48.43746" lon="2.70634">
        <ele>134.7</ele>
        <time>2018-11-18T10:54:15Z</time>
      </trkpt>
      <trkpt lat="48.43745" lon="2.70634">
        <ele>134.8</ele>
        <time>2018-11-18T10:54:16Z</time>
      </trkpt>
      <trkpt lat="48.43744" lon="2.70633">
        <ele>134.9</ele>
        <time>2018-11-18T10:54:17Z</time>
      </trkpt>
      <trkpt lat="48.43744" lon="2.70631">
        <ele>135.1</ele>
        <time>2018-11-18T10:54:18Z</time>
      </trkpt>
      <trkpt lat="48.43743" lon="2.7063">
        <ele>135.2</ele>
        <time>2018-11-18T10:54:19Z</time>
      </trkpt>
      <trkpt lat="48.43742" lon="2.7063">
        <ele>135.3</ele>
        <time>2018-11-18T10:54:20Z</time>
      </trkpt>
      <trkpt lat="48.43741" lon="2.70629">
        <ele>135.5</ele>
        <time>2018-11-18T10:54:21Z</time>
      </trkpt>
      <trkpt lat="48.4374" lon="2.70629">
        <ele>135.7</ele>
        <time>2018-11-18T10:54:22Z</time>
      </trkpt>
      <trkpt lat="48.43739" lon="2.70628">
        <ele>135.8</ele>
        <time>2018-11-18T10:54:23Z</time>
      </trkpt>
      <trkpt lat="48.43738" lon="2.70627">
        <ele>135.9</ele>
        <time>2018-11-18T10:54:24Z</time>
      </trkpt>
      <trkpt lat="48.43738" lon="2.70626">
        <ele>136</ele>
        <time>2018-11-18T10:54:25Z</time>
      </trkpt>
      <trkpt lat="48.43737" lon="2.70624">
        <ele>136.2</ele>
        <time>2018-11-18T10:54:26Z</time>
      </trkpt>
      <trkpt lat="48.43736" lon="2.70623">
        <ele>136.4</ele>
        <time>2018-11-18T10:54:27Z</time>
      </trkpt>
      <trkpt lat="48.43735" lon="2.70622">
        <ele>136.6</ele>
        <time>2018-11-18T10:54:28Z</time>
      </trkpt>
      <trkpt lat="48.43734" lon="2.7062">
        <ele>136.8</ele>
        <time>2018-11-18T10:54:29Z</time>
      </trkpt>
      <trkpt lat="48.43733" lon="2.70619">
        <ele>137</ele>
        <time>2018-11-18T10:54:30Z</time>
      </trkpt>
      <trkpt lat="48.43732" lon="2.70618">
        <ele>137.1</ele>
        <time>2018-11-18T10:54:31Z</time>
      </trkpt>
      <trkpt lat="48.43732" lon="2.70616">
        <ele>137.3</ele>
        <time>2018-11-18T10:54:32Z</time>
      </trkpt>
      <trkpt lat="48.43731" lon="2.70614">
        <ele>137.5</ele>
        <time>2018-11-18T10:54:33Z</time>
      </trkpt>
      <trkpt lat="48.43731" lon="2.70613">
        <ele>137.7</ele>
        <time>2018-11-18T10:54:34Z</time>
      </trkpt>
      <trkpt lat="48.4373" lon="2.70611">
        <ele>138</ele>
        <time>2018-11-18T10:54:35Z</time>
      </trkpt>
      <trkpt lat="48.4373" lon="2.70609">
        <ele>138.2</ele>
        <time>2018-11-18T10:54:36Z</time>
      </trkpt>
      <trkpt lat="48.4373" lon="2.70607">
        <ele>138.4</ele>
        <time>2018-11-18T10:54:37Z</time>
      </trkpt>
      <trkpt lat="48.4373" lon="2.70605">
        <ele>139.3</ele>
        <time>2018-11-18T10:54:38Z</time>
      </trkpt>
      <trkpt lat="48.43731" lon="2.70604">
        <ele>139.2</ele>
        <time>2018-11-18T10:54:39Z</time>
      </trkpt>
      <trkpt lat="48.43731" lon="2.70602">
        <ele>139.2</ele>
        <time>2018-11-18T10:54:40Z</time>
      </trkpt>
      <trkpt lat="48.4373" lon="2.706">
        <ele>139.1</ele>
        <time>2018-11-18T10:54:41Z</time>
      </trkpt>
      <trkpt lat="48.4373" lon="2.70598">
        <ele>139.1</ele>
        <time>2018-11-18T10:54:42Z</time>
      </trkpt>
      <trkpt lat="48.4373" lon="2.70597">
        <ele>139</ele>
        <time>2018-11-18T10:54:43Z</time>
      </trkpt>
      <trkpt lat="48.4373" lon="2.70596">
        <ele>139</ele>
        <time>2018-11-18T10:54:44Z</time>
      </trkpt>
      <trkpt lat="48.43731" lon="2.70594">
        <ele>138.9</ele>
        <time>2018-11-18T10:54:45Z</time>
      </trkpt>
      <trkpt lat="48.43731" lon="2.70592">
        <ele>138.9</ele>
        <time>2018-11-18T10:54:46Z</time>
      </trkpt>
      <trkpt lat="48.43732" lon="2.70591">
        <ele>138.8</ele>
        <time>2018-11-18T10:54:47Z</time>
      </trkpt>
      <trkpt lat="48.43732" lon="2.70589">
        <ele>138.8</ele>
        <time>2018-11-18T10:54:48Z</time>
      </trkpt>
      <trkpt lat="48.43732" lon="2.70588">
        <ele>138.8</ele>
        <time>2018-11-18T10:54:49Z</time>
      </trkpt>
      <trkpt lat="48.43733" lon="2.70587">
        <ele>138.7</ele>
        <time>2018-11-18T10:54:50Z</time>
      </trkpt>
      <trkpt lat="48.43733" lon="2.70585">
        <ele>138.7</ele>
        <time>2018-11-18T10:54:51Z</time>
      </trkpt>
      <trkpt lat="48.43733" lon="2.70584">
        <ele>138.6</ele>
        <time>2018-11-18T10:54:52Z</time>
      </trkpt>
      <trkpt lat="48.43733" lon="2.70583">
        <ele>138.6</ele>
        <time>2018-11-18T10:54:53Z</time>
      </trkpt>
      <trkpt lat="48.43732" lon="2.70582">
        <ele>138.6</ele>
        <time>2018-11-18T10:54:54Z</time>
      </trkpt>
      <trkpt lat="48.43732" lon="2.70582">
        <ele>138.6</ele>
        <time>2018-11-18T10:54:55Z</time>
      </trkpt>
      <trkpt lat="48.43731" lon="2.70582">
        <ele>138.5</ele>
        <time>2018-11-18T10:54:56Z</time>
      </trkpt>
      <trkpt lat="48.43731" lon="2.70581">
        <ele>138.5</ele>
        <time>2018-11-18T10:54:57Z</time>
      </trkpt>
      <trkpt lat="48.43731" lon="2.70581">
        <ele>138.5</ele>
        <time>2018-11-18T10:54:58Z</time>
      </trkpt>
      <trkpt lat="48.43731" lon="2.70581">
        <ele>138.5</ele>
        <time>2018-11-18T10:54:59Z</time>
      </trkpt>
      <trkpt lat="48.43731" lon="2.70581">
        <ele>138.5</ele>
        <time>2018-11-18T10:55:00Z</time>
      </trkpt>
      <trkpt lat="48.4373" lon="2.70582">
        <ele>138.5</ele>
        <time>2018-11-18T10:55:57Z</time>
      </trkpt>
      <trkpt lat="48.43729" lon="2.70582">
        <ele>138.4</ele>
        <time>2018-11-18T10:55:58Z</time>
      </trkpt>
      <trkpt lat="48.43728" lon="2.70581">
        <ele>138.4</ele>
        <time>2018-11-18T10:55:59Z</time>
      </trkpt>
      <trkpt lat="48.43726" lon="2.70581">
        <ele>138.4</ele>
        <time>2018-11-18T10:56:00Z</time>
      </trkpt>
      <trkpt lat="48.43725" lon="2.7058">
        <ele>138.4</ele>
        <time>2018-11-18T10:56:01Z</time>
      </trkpt>
      <trkpt lat="48.43724" lon="2.70579">
        <ele>138.4</ele>
        <time>2018-11-18T10:56:02Z</time>
      </trkpt>
      <trkpt lat="48.43723" lon="2.70577">
        <ele>138.4</ele>
        <time>2018-11-18T10:56:03Z</time>
      </trkpt>
      <trkpt lat="48.43722" lon="2.70576">
        <ele>138.4</ele>
        <time>2018-11-18T10:56:04Z</time>
      </trkpt>
      <trkpt lat="48.4372" lon="2.70575">
        <ele>138.4</ele>
        <time>2018-11-18T10:56:05Z</time>
      </trkpt>
      <trkpt lat="48.43719" lon="2.70574">
        <ele>138.4</ele>
        <time>2018-11-18T10:56:06Z</time>
      </trkpt>
      <trkpt lat="48.43717" lon="2.70573">
        <ele>138.4</ele>
        <time>2018-11-18T10:56:07Z</time>
      </trkpt>
      <trkpt lat="48.43716" lon="2.70571">
        <ele>138.4</ele>
        <time>2018-11-18T10:56:08Z</time>
      </trkpt>
      <trkpt lat="48.43715" lon="2.7057">
        <ele>138.4</ele>
        <time>2018-11-18T10:56:09Z</time>
      </trkpt>
      <trkpt lat="48.43714" lon="2.70567">
        <ele>138.4</ele>
        <time>2018-11-18T10:56:10Z</time>
      </trkpt>
      <trkpt lat="48.43714" lon="2.70564">
        <ele>138.5</ele>
        <time>2018-11-18T10:56:11Z</time>
      </trkpt>
      <trkpt lat="48.43714" lon="2.70562">
        <ele>138.5</ele>
        <time>2018-11-18T10:56:12Z</time>
      </trkpt>
      <trkpt lat="48.43713" lon="2.70559">
        <ele>138.5</ele>
        <time>2018-11-18T10:56:13Z</time>
      </trkpt>
      <trkpt lat="48.43713" lon="2.70557">
        <ele>138.6</ele>
        <time>2018-11-18T10:56:14Z</time>
      </trkpt>
      <trkpt lat="48.43712" lon="2.70555">
        <ele>138.6</ele>
        <time>2018-11-18T10:56:15Z</time>
      </trkpt>
      <trkpt lat="48.43711" lon="2.70552">
        <ele>138.6</ele>
        <time>2018-11-18T10:56:16Z</time>
      </trkpt>
      <trkpt lat="48.4371" lon="2.7055">
        <ele>138.7</ele>
        <time>2018-11-18T10:56:17Z</time>
      </trkpt>
      <trkpt lat="48.43709" lon="2.70547">
        <ele>138.7</ele>
        <time>2018-11-18T10:56:18Z</time>
      </trkpt>
      <trkpt lat="48.43708" lon="2.70544">
        <ele>138.8</ele>
        <time>2018-11-18T10:56:19Z</time>
      </trkpt>
      <trkpt lat="48.43707" lon="2.70539">
        <ele>138.8</ele>
        <time>2018-11-18T10:56:20Z</time>
      </trkpt>
      <trkpt lat="48.43706" lon="2.70535">
        <ele>138.9</ele>
        <time>2018-11-18T10:56:21Z</time>
      </trkpt>
      <trkpt lat="48.43706" lon="2.70532">
        <ele>139</ele>
        <time>2018-11-18T10:56:22Z</time>
      </trkpt>
      <trkpt lat="48.43705" lon="2.7053">
        <ele>138.8</ele>
        <time>2018-11-18T10:56:23Z</time>
      </trkpt>
      <trkpt lat="48.43705" lon="2.70528">
        <ele>138.7</ele>
        <time>2018-11-18T10:56:24Z</time>
      </trkpt>
      <trkpt lat="48.43704" lon="2.70526">
        <ele>138.6</ele>
        <time>2018-11-18T10:56:25Z</time>
      </trkpt>
      <trkpt lat="48.43704" lon="2.70524">
        <ele>138.5</ele>
        <time>2018-11-18T10:56:26Z</time>
      </trkpt>
      <trkpt lat="48.43703" lon="2.70521">
        <ele>138.4</ele>
        <time>2018-11-18T10:56:27Z</time>
      </trkpt>
      <trkpt lat="48.43703" lon="2.70518">
        <ele>138.3</ele>
        <time>2018-11-18T10:56:28Z</time>
      </trkpt>
      <trkpt lat="48.43704" lon="2.70515">
        <ele>138.1</ele>
        <time>2018-11-18T10:56:29Z</time>
      </trkpt>
      <trkpt lat="48.43704" lon="2.70511">
        <ele>138</ele>
        <time>2018-11-18T10:56:30Z</time>
      </trkpt>
      <trkpt lat="48.43704" lon="2.70508">
        <ele>137.8</ele>
        <time>2018-11-18T10:56:31Z</time>
      </trkpt>
      <trkpt lat="48.43703" lon="2.70504">
        <ele>137.7</ele>
        <time>2018-11-18T10:56:32Z</time>
      </trkpt>
      <trkpt lat="48.43702" lon="2.70501">
        <ele>137.6</ele>
        <time>2018-11-18T10:56:33Z</time>
      </trkpt>
      <trkpt lat="48.43702" lon="2.70499">
        <ele>137.5</ele>
        <time>2018-11-18T10:56:34Z</time>
      </trkpt>
      <trkpt lat="48.43701" lon="2.70496">
        <ele>137.4</ele>
        <time>2018-11-18T10:56:35Z</time>
      </trkpt>
      <trkpt lat="48.437" lon="2.70493">
        <ele>137.3</ele>
        <time>2018-11-18T10:56:36Z</time>
      </trkpt>
      <trkpt lat="48.437" lon="2.7049">
        <ele>137.1</ele>
        <time>2018-11-18T10:56:37Z</time>
      </trkpt>
      <trkpt lat="48.437" lon="2.70486">
        <ele>137</ele>
        <time>2018-11-18T10:56:38Z</time>
      </trkpt>
      <trkpt lat="48.43701" lon="2.70484">
        <ele>136.9</ele>
        <time>2018-11-18T10:56:39Z</time>
      </trkpt>
      <trkpt lat="48.43701" lon="2.70482">
        <ele>136.8</ele>
        <time>2018-11-18T10:56:40Z</time>
      </trkpt>
      <trkpt lat="48.437" lon="2.70476">
        <ele>136.7</ele>
        <time>2018-11-18T10:56:41Z</time>
      </trkpt>
      <trkpt lat="48.437" lon="2.70473">
        <ele>136.5</ele>
        <time>2018-11-18T10:56:42Z</time>
      </trkpt>
      <trkpt lat="48.437" lon="2.70469">
        <ele>136.4</ele>
        <time>2018-11-18T10:56:43Z</time>
      </trkpt>
      <trkpt lat="48.437" lon="2.70465">
        <ele>136.3</ele>
        <time>2018-11-18T10:56:44Z</time>
      </trkpt>
      <trkpt lat="48.437" lon="2.70461">
        <ele>136.2</ele>
        <time>2018-11-18T10:56:45Z</time>
      </trkpt>
      <trkpt lat="48.437" lon="2.70458">
        <ele>136</ele>
        <time>2018-11-18T10:56:46Z</time>
      </trkpt>
      <trkpt lat="48.437" lon="2.70455">
        <ele>135.9</ele>
        <time>2018-11-18T10:56:47Z</time>
      </trkpt>
      <trkpt lat="48.437" lon="2.70452">
        <ele>135.8</ele>
        <time>2018-11-18T10:56:48Z</time>
      </trkpt>
      <trkpt lat="48.437" lon="2.70449">
        <ele>135.6</ele>
        <time>2018-11-18T10:56:49Z</time>
      </trkpt>
      <trkpt lat="48.43699" lon="2.70446">
        <ele>135.5</ele>
        <time>2018-11-18T10:56:50Z</time>
      </trkpt>
      <trkpt lat="48.43699" lon="2.70444">
        <ele>135.5</ele>
        <time>2018-11-18T10:56:51Z</time>
      </trkpt>
      <trkpt lat="48.43698" lon="2.70442">
        <ele>135.4</ele>
        <time>2018-11-18T10:56:52Z</time>
      </trkpt>
      <trkpt lat="48.43698" lon="2.7044">
        <ele>135.3</ele>
        <time>2018-11-18T10:56:53Z</time>
      </trkpt>
      <trkpt lat="48.43697" lon="2.70437">
        <ele>135.3</ele>
        <time>2018-11-18T10:56:54Z</time>
      </trkpt>
      <trkpt lat="48.43696" lon="2.70435">
        <ele>135.2</ele>
        <time>2018-11-18T10:56:55Z</time>
      </trkpt>
      <trkpt lat="48.43695" lon="2.70433">
        <ele>135.1</ele>
        <time>2018-11-18T10:56:56Z</time>
      </trkpt>
      <trkpt lat="48.43694" lon="2.70431">
        <ele>135</ele>
        <time>2018-11-18T10:56:57Z</time>
      </trkpt>
      <trkpt lat="48.43693" lon="2.70429">
        <ele>134.9</ele>
        <time>2018-11-18T10:56:58Z</time>
      </trkpt>
      <trkpt lat="48.43692" lon="2.70426">
        <ele>135.3</ele>
        <time>2018-11-18T10:56:59Z</time>
      </trkpt>
      <trkpt lat="48.43691" lon="2.70424">
        <ele>135.3</ele>
        <time>2018-11-18T10:57:00Z</time>
      </trkpt>
      <trkpt lat="48.4369" lon="2.70421">
        <ele>135.4</ele>
        <time>2018-11-18T10:57:01Z</time>
      </trkpt>
      <trkpt lat="48.43689" lon="2.70418">
        <ele>135.5</ele>
        <time>2018-11-18T10:57:02Z</time>
      </trkpt>
      <trkpt lat="48.43689" lon="2.70414">
        <ele>135.6</ele>
        <time>2018-11-18T10:57:03Z</time>
      </trkpt>
      <trkpt lat="48.43688" lon="2.70411">
        <ele>135.6</ele>
        <time>2018-11-18T10:57:04Z</time>
      </trkpt>
      <trkpt lat="48.43688" lon="2.70408">
        <ele>135.7</ele>
        <time>2018-11-18T10:57:05Z</time>
      </trkpt>
      <trkpt lat="48.43688" lon="2.70405">
        <ele>135.8</ele>
        <time>2018-11-18T10:57:06Z</time>
      </trkpt>
      <trkpt lat="48.43688" lon="2.70402">
        <ele>135.9</ele>
        <time>2018-11-18T10:57:07Z</time>
      </trkpt>
      <trkpt lat="48.43687" lon="2.70399">
        <ele>135.9</ele>
        <time>2018-11-18T10:57:08Z</time>
      </trkpt>
      <trkpt lat="48.43688" lon="2.70395">
        <ele>136</ele>
        <time>2018-11-18T10:57:09Z</time>
      </trkpt>
      <trkpt lat="48.43688" lon="2.70392">
        <ele>136.1</ele>
        <time>2018-11-18T10:57:10Z</time>
      </trkpt>
      <trkpt lat="48.43689" lon="2.70389">
        <ele>136.2</ele>
        <time>2018-11-18T10:57:11Z</time>
      </trkpt>
      <trkpt lat="48.4369" lon="2.70385">
        <ele>136.3</ele>
        <time>2018-11-18T10:57:12Z</time>
      </trkpt>
      <trkpt lat="48.43691" lon="2.70382">
        <ele>136.4</ele>
        <time>2018-11-18T10:57:13Z</time>
      </trkpt>
      <trkpt lat="48.43692" lon="2.70378">
        <ele>136.5</ele>
        <time>2018-11-18T10:57:14Z</time>
      </trkpt>
      <trkpt lat="48.43693" lon="2.70374">
        <ele>136.6</ele>
        <time>2018-11-18T10:57:15Z</time>
      </trkpt>
      <trkpt lat="48.43694" lon="2.70371">
        <ele>136.7</ele>
        <time>2018-11-18T10:57:16Z</time>
      </trkpt>
      <trkpt lat="48.43696" lon="2.70368">
        <ele>136.8</ele>
        <time>2018-11-18T10:57:17Z</time>
      </trkpt>
      <trkpt lat="48.43697" lon="2.70365">
        <ele>136.9</ele>
        <time>2018-11-18T10:57:18Z</time>
      </trkpt>
      <trkpt lat="48.43698" lon="2.70363">
        <ele>136.9</ele>
        <time>2018-11-18T10:57:19Z</time>
      </trkpt>
      <trkpt lat="48.43699" lon="2.7036">
        <ele>137</ele>
        <time>2018-11-18T10:57:20Z</time>
      </trkpt>
      <trkpt lat="48.437" lon="2.70357">
        <ele>137.1</ele>
        <time>2018-11-18T10:57:21Z</time>
      </trkpt>
      <trkpt lat="48.43701" lon="2.70353">
        <ele>137.1</ele>
        <time>2018-11-18T10:57:22Z</time>
      </trkpt>
      <trkpt lat="48.43703" lon="2.7035">
        <ele>137.2</ele>
        <time>2018-11-18T10:57:23Z</time>
      </trkpt>
      <trkpt lat="48.43704" lon="2.70345">
        <ele>137.3</ele>
        <time>2018-11-18T10:57:24Z</time>
      </trkpt>
      <trkpt lat="48.43705" lon="2.70341">
        <ele>137.4</ele>
        <time>2018-11-18T10:57:25Z</time>
      </trkpt>
      <trkpt lat="48.43706" lon="2.70336">
        <ele>137.4</ele>
        <time>2018-11-18T10:57:26Z</time>
      </trkpt>
      <trkpt lat="48.43707" lon="2.70331">
        <ele>137.5</ele>
        <time>2018-11-18T10:57:27Z</time>
      </trkpt>
      <trkpt lat="48.43707" lon="2.70327">
        <ele>137.6</ele>
        <time>2018-11-18T10:57:28Z</time>
      </trkpt>
      <trkpt lat="48.43708" lon="2.70322">
        <ele>137.6</ele>
        <time>2018-11-18T10:57:29Z</time>
      </trkpt>
      <trkpt lat="48.43708" lon="2.70318">
        <ele>137.7</ele>
        <time>2018-11-18T10:57:30Z</time>
      </trkpt>
      <trkpt lat="48.43708" lon="2.70315">
        <ele>137.8</ele>
        <time>2018-11-18T10:57:31Z</time>
      </trkpt>
      <trkpt lat="48.43707" lon="2.70311">
        <ele>137.9</ele>
        <time>2018-11-18T10:57:32Z</time>
      </trkpt>
      <trkpt lat="48.43707" lon="2.70307">
        <ele>137.9</ele>
        <time>2018-11-18T10:57:33Z</time>
      </trkpt>
      <trkpt lat="48.43706" lon="2.70303">
        <ele>138</ele>
        <time>2018-11-18T10:57:34Z</time>
      </trkpt>
      <trkpt lat="48.43705" lon="2.70299">
        <ele>138.1</ele>
        <time>2018-11-18T10:57:35Z</time>
      </trkpt>
      <trkpt lat="48.43705" lon="2.70295">
        <ele>138.2</ele>
        <time>2018-11-18T10:57:36Z</time>
      </trkpt>
      <trkpt lat="48.43704" lon="2.70291">
        <ele>138.3</ele>
        <time>2018-11-18T10:57:37Z</time>
      </trkpt>
      <trkpt lat="48.43705" lon="2.70287">
        <ele>138.4</ele>
        <time>2018-11-18T10:57:38Z</time>
      </trkpt>
      <trkpt lat="48.43706" lon="2.70285">
        <ele>138.4</ele>
        <time>2018-11-18T10:57:39Z</time>
      </trkpt>
      <trkpt lat="48.43707" lon="2.70282">
        <ele>138.4</ele>
        <time>2018-11-18T10:57:40Z</time>
      </trkpt>
      <trkpt lat="48.43708" lon="2.70279">
        <ele>138.4</ele>
        <time>2018-11-18T10:57:41Z</time>
      </trkpt>
      <trkpt lat="48.4371" lon="2.70276">
        <ele>138.5</ele>
        <time>2018-11-18T10:57:42Z</time>
      </trkpt>
      <trkpt lat="48.43712" lon="2.70274">
        <ele>138.5</ele>
        <time>2018-11-18T10:57:43Z</time>
      </trkpt>
      <trkpt lat="48.43713" lon="2.70272">
        <ele>138.5</ele>
        <time>2018-11-18T10:57:44Z</time>
      </trkpt>
      <trkpt lat="48.43714" lon="2.70271">
        <ele>138.5</ele>
        <time>2018-11-18T10:57:45Z</time>
      </trkpt>
      <trkpt lat="48.43715" lon="2.70269">
        <ele>138.5</ele>
        <time>2018-11-18T10:57:47Z</time>
      </trkpt>
      <trkpt lat="48.43716" lon="2.70268">
        <ele>138.5</ele>
        <time>2018-11-18T10:57:48Z</time>
      </trkpt>
      <trkpt lat="48.43716" lon="2.70268">
        <ele>138.5</ele>
        <time>2018-11-18T10:57:49Z</time>
      </trkpt>
      <trkpt lat="48.43717" lon="2.70267">
        <ele>138.5</ele>
        <time>2018-11-18T10:57:50Z</time>
      </trkpt>
      <trkpt lat="48.43718" lon="2.70265">
        <ele>138.5</ele>
        <time>2018-11-18T10:57:51Z</time>
      </trkpt>
      <trkpt lat="48.43719" lon="2.70263">
        <ele>138.5</ele>
        <time>2018-11-18T10:57:52Z</time>
      </trkpt>
      <trkpt lat="48.4372" lon="2.70261">
        <ele>138.5</ele>
        <time>2018-11-18T10:57:53Z</time>
      </trkpt>
      <trkpt lat="48.43721" lon="2.7026">
        <ele>138.5</ele>
        <time>2018-11-18T10:57:54Z</time>
      </trkpt>
      <trkpt lat="48.43722" lon="2.70258">
        <ele>138.5</ele>
        <time>2018-11-18T10:57:55Z</time>
      </trkpt>
      <trkpt lat="48.43723" lon="2.70256">
        <ele>138.5</ele>
        <time>2018-11-18T10:57:56Z</time>
      </trkpt>
      <trkpt lat="48.43725" lon="2.70254">
        <ele>138.5</ele>
        <time>2018-11-18T10:57:57Z</time>
      </trkpt>
      <trkpt lat="48.43726" lon="2.70251">
        <ele>138.5</ele>
        <time>2018-11-18T10:57:58Z</time>
      </trkpt>
      <trkpt lat="48.43726" lon="2.70248">
        <ele>138.5</ele>
        <time>2018-11-18T10:57:59Z</time>
      </trkpt>
      <trkpt lat="48.43726" lon="2.70246">
        <ele>138.5</ele>
        <time>2018-11-18T10:58:00Z</time>
      </trkpt>
      <trkpt lat="48.43725" lon="2.70243">
        <ele>138.2</ele>
        <time>2018-11-18T10:58:01Z</time>
      </trkpt>
      <trkpt lat="48.43724" lon="2.70241">
        <ele>138.2</ele>
        <time>2018-11-18T10:58:02Z</time>
      </trkpt>
      <trkpt lat="48.43723" lon="2.70238">
        <ele>138.2</ele>
        <time>2018-11-18T10:58:03Z</time>
      </trkpt>
      <trkpt lat="48.43721" lon="2.70236">
        <ele>138.2</ele>
        <time>2018-11-18T10:58:04Z</time>
      </trkpt>
      <trkpt lat="48.43721" lon="2.70233">
        <ele>138.2</ele>
        <time>2018-11-18T10:58:05Z</time>
      </trkpt>
      <trkpt lat="48.4372" lon="2.70231">
        <ele>138.1</ele>
        <time>2018-11-18T10:58:06Z</time>
      </trkpt>
      <trkpt lat="48.43719" lon="2.70229">
        <ele>138.1</ele>
        <time>2018-11-18T10:58:07Z</time>
      </trkpt>
      <trkpt lat="48.43717" lon="2.70227">
        <ele>138</ele>
        <time>2018-11-18T10:58:08Z</time>
      </trkpt>
      <trkpt lat="48.43716" lon="2.70226">
        <ele>138</ele>
        <time>2018-11-18T10:58:09Z</time>
      </trkpt>
      <trkpt lat="48.43714" lon="2.70225">
        <ele>137.9</ele>
        <time>2018-11-18T10:58:10Z</time>
      </trkpt>
      <trkpt lat="48.43713" lon="2.70223">
        <ele>137.8</ele>
        <time>2018-11-18T10:58:11Z</time>
      </trkpt>
      <trkpt lat="48.43713" lon="2.70221">
        <ele>137.7</ele>
        <time>2018-11-18T10:58:12Z</time>
      </trkpt>
      <trkpt lat="48.43712" lon="2.70219">
        <ele>137.6</ele>
        <time>2018-11-18T10:58:13Z</time>
      </trkpt>
      <trkpt lat="48.43711" lon="2.70216">
        <ele>137.4</ele>
        <time>2018-11-18T10:58:14Z</time>
      </trkpt>
      <trkpt lat="48.4371" lon="2.70215">
        <ele>137.3</ele>
        <time>2018-11-18T10:58:15Z</time>
      </trkpt>
      <trkpt lat="48.43709" lon="2.70213">
        <ele>137.1</ele>
        <time>2018-11-18T10:58:16Z</time>
      </trkpt>
      <trkpt lat="48.43708" lon="2.70211">
        <ele>136.8</ele>
        <time>2018-11-18T10:58:17Z</time>
      </trkpt>
      <trkpt lat="48.43706" lon="2.70208">
        <ele>136.4</ele>
        <time>2018-11-18T10:58:18Z</time>
      </trkpt>
      <trkpt lat="48.43705" lon="2.70205">
        <ele>136</ele>
        <time>2018-11-18T10:58:19Z</time>
      </trkpt>
      <trkpt lat="48.43704" lon="2.70203">
        <ele>135.7</ele>
        <time>2018-11-18T10:58:20Z</time>
      </trkpt>
      <trkpt lat="48.43703" lon="2.702">
        <ele>135.3</ele>
        <time>2018-11-18T10:58:21Z</time>
      </trkpt>
      <trkpt lat="48.43702" lon="2.70197">
        <ele>134.7</ele>
        <time>2018-11-18T10:58:22Z</time>
      </trkpt>
      <trkpt lat="48.437" lon="2.70195">
        <ele>134.1</ele>
        <time>2018-11-18T10:58:23Z</time>
      </trkpt>
      <trkpt lat="48.43698" lon="2.70193">
        <ele>133.5</ele>
        <time>2018-11-18T10:58:24Z</time>
      </trkpt>
      <trkpt lat="48.43695" lon="2.70192">
        <ele>132.7</ele>
        <time>2018-11-18T10:58:25Z</time>
      </trkpt>
      <trkpt lat="48.43693" lon="2.70191">
        <ele>132</ele>
        <time>2018-11-18T10:58:26Z</time>
      </trkpt>
      <trkpt lat="48.43691" lon="2.70189">
        <ele>131.4</ele>
        <time>2018-11-18T10:58:27Z</time>
      </trkpt>
      <trkpt lat="48.43689" lon="2.70186">
        <ele>130.7</ele>
        <time>2018-11-18T10:58:28Z</time>
      </trkpt>
      <trkpt lat="48.43687" lon="2.70183">
        <ele>130</ele>
        <time>2018-11-18T10:58:29Z</time>
      </trkpt>
      <trkpt lat="48.43686" lon="2.7018">
        <ele>129.3</ele>
        <time>2018-11-18T10:58:30Z</time>
      </trkpt>
      <trkpt lat="48.43684" lon="2.70177">
        <ele>128.9</ele>
        <time>2018-11-18T10:58:31Z</time>
      </trkpt>
      <trkpt lat="48.43683" lon="2.70176">
        <ele>128.5</ele>
        <time>2018-11-18T10:58:32Z</time>
      </trkpt>
      <trkpt lat="48.43681" lon="2.70173">
        <ele>128</ele>
        <time>2018-11-18T10:58:33Z</time>
      </trkpt>
      <trkpt lat="48.43679" lon="2.70172">
        <ele>127.6</ele>
        <time>2018-11-18T10:58:34Z</time>
      </trkpt>
      <trkpt lat="48.43678" lon="2.7017">
        <ele>127.2</ele>
        <time>2018-11-18T10:58:35Z</time>
      </trkpt>
      <trkpt lat="48.43676" lon="2.70169">
        <ele>126.7</ele>
        <time>2018-11-18T10:58:36Z</time>
      </trkpt>
      <trkpt lat="48.43674" lon="2.70167">
        <ele>126.2</ele>
        <time>2018-11-18T10:58:37Z</time>
      </trkpt>
      <trkpt lat="48.43672" lon="2.70166">
        <ele>125.7</ele>
        <time>2018-11-18T10:58:38Z</time>
      </trkpt>
      <trkpt lat="48.4367" lon="2.70165">
        <ele>125.3</ele>
        <time>2018-11-18T10:58:39Z</time>
      </trkpt>
      <trkpt lat="48.43668" lon="2.70165">
        <ele>124.9</ele>
        <time>2018-11-18T10:58:40Z</time>
      </trkpt>
      <trkpt lat="48.43666" lon="2.70164">
        <ele>124.5</ele>
        <time>2018-11-18T10:58:41Z</time>
      </trkpt>
      <trkpt lat="48.43665" lon="2.70164">
        <ele>124.2</ele>
        <time>2018-11-18T10:58:42Z</time>
      </trkpt>
      <trkpt lat="48.43664" lon="2.70162">
        <ele>123.9</ele>
        <time>2018-11-18T10:58:43Z</time>
      </trkpt>
      <trkpt lat="48.43663" lon="2.7016">
        <ele>123.5</ele>
        <time>2018-11-18T10:58:44Z</time>
      </trkpt>
      <trkpt lat="48.43661" lon="2.70158">
        <ele>123.1</ele>
        <time>2018-11-18T10:58:45Z</time>
      </trkpt>
      <trkpt lat="48.4366" lon="2.70157">
        <ele>122.8</ele>
        <time>2018-11-18T10:58:46Z</time>
      </trkpt>
      <trkpt lat="48.43659" lon="2.70155">
        <ele>122.5</ele>
        <time>2018-11-18T10:58:47Z</time>
      </trkpt>
      <trkpt lat="48.43659" lon="2.70153">
        <ele>122.3</ele>
        <time>2018-11-18T10:58:48Z</time>
      </trkpt>
      <trkpt lat="48.43659" lon="2.7015">
        <ele>122.1</ele>
        <time>2018-11-18T10:58:49Z</time>
      </trkpt>
      <trkpt lat="48.43659" lon="2.70147">
        <ele>121.8</ele>
        <time>2018-11-18T10:58:50Z</time>
      </trkpt>
      <trkpt lat="48.43659" lon="2.70144">
        <ele>121.6</ele>
        <time>2018-11-18T10:58:51Z</time>
      </trkpt>
      <trkpt lat="48.43658" lon="2.70141">
        <ele>121.3</ele>
        <time>2018-11-18T10:58:52Z</time>
      </trkpt>
      <trkpt lat="48.43656" lon="2.70138">
        <ele>120.9</ele>
        <time>2018-11-18T10:58:53Z</time>
      </trkpt>
      <trkpt lat="48.43655" lon="2.70135">
        <ele>120.6</ele>
        <time>2018-11-18T10:58:54Z</time>
      </trkpt>
      <trkpt lat="48.43654" lon="2.70131">
        <ele>120.2</ele>
        <time>2018-11-18T10:58:55Z</time>
      </trkpt>
      <trkpt lat="48.43653" lon="2.70128">
        <ele>119.8</ele>
        <time>2018-11-18T10:58:56Z</time>
      </trkpt>
      <trkpt lat="48.43651" lon="2.70124">
        <ele>119.3</ele>
        <time>2018-11-18T10:58:57Z</time>
      </trkpt>
      <trkpt lat="48.43649" lon="2.70121">
        <ele>118.8</ele>
        <time>2018-11-18T10:58:58Z</time>
      </trkpt>
      <trkpt lat="48.43646" lon="2.70118">
        <ele>118.2</ele>
        <time>2018-11-18T10:58:59Z</time>
      </trkpt>
      <trkpt lat="48.43643" lon="2.70116">
        <ele>117.9</ele>
        <time>2018-11-18T10:59:00Z</time>
      </trkpt>
      <trkpt lat="48.4364" lon="2.70113">
        <ele>117.6</ele>
        <time>2018-11-18T10:59:01Z</time>
      </trkpt>
      <trkpt lat="48.43637" lon="2.70111">
        <ele>117.2</ele>
        <time>2018-11-18T10:59:02Z</time>
      </trkpt>
      <trkpt lat="48.43634" lon="2.70108">
        <ele>116.9</ele>
        <time>2018-11-18T10:59:03Z</time>
      </trkpt>
      <trkpt lat="48.43631" lon="2.70106">
        <ele>116.6</ele>
        <time>2018-11-18T10:59:04Z</time>
      </trkpt>
      <trkpt lat="48.43628" lon="2.70104">
        <ele>116.4</ele>
        <time>2018-11-18T10:59:05Z</time>
      </trkpt>
      <trkpt lat="48.43626" lon="2.70101">
        <ele>116.2</ele>
        <time>2018-11-18T10:59:06Z</time>
      </trkpt>
      <trkpt lat="48.43623" lon="2.70098">
        <ele>116</ele>
        <time>2018-11-18T10:59:07Z</time>
      </trkpt>
      <trkpt lat="48.4362" lon="2.70094">
        <ele>115.8</ele>
        <time>2018-11-18T10:59:08Z</time>
      </trkpt>
      <trkpt lat="48.43617" lon="2.70092">
        <ele>115.6</ele>
        <time>2018-11-18T10:59:09Z</time>
      </trkpt>
      <trkpt lat="48.43614" lon="2.7009">
        <ele>115.5</ele>
        <time>2018-11-18T10:59:10Z</time>
      </trkpt>
      <trkpt lat="48.43609" lon="2.70086">
        <ele>115.2</ele>
        <time>2018-11-18T10:59:11Z</time>
      </trkpt>
      <trkpt lat="48.43606" lon="2.70083">
        <ele>115.1</ele>
        <time>2018-11-18T10:59:12Z</time>
      </trkpt>
      <trkpt lat="48.43604" lon="2.70081">
        <ele>115</ele>
        <time>2018-11-18T10:59:13Z</time>
      </trkpt>
      <trkpt lat="48.43599" lon="2.70078">
        <ele>114.7</ele>
        <time>2018-11-18T10:59:14Z</time>
      </trkpt>
      <trkpt lat="48.43596" lon="2.70076">
        <ele>114.6</ele>
        <time>2018-11-18T10:59:15Z</time>
      </trkpt>
      <trkpt lat="48.43593" lon="2.70074">
        <ele>114.4</ele>
        <time>2018-11-18T10:59:16Z</time>
      </trkpt>
      <trkpt lat="48.43591" lon="2.70071">
        <ele>114.2</ele>
        <time>2018-11-18T10:59:17Z</time>
      </trkpt>
      <trkpt lat="48.4359" lon="2.70067">
        <ele>114.1</ele>
        <time>2018-11-18T10:59:18Z</time>
      </trkpt>
      <trkpt lat="48.4359" lon="2.70064">
        <ele>113.9</ele>
        <time>2018-11-18T10:59:19Z</time>
      </trkpt>
      <trkpt lat="48.4359" lon="2.7006">
        <ele>113.8</ele>
        <time>2018-11-18T10:59:20Z</time>
      </trkpt>
      <trkpt lat="48.4359" lon="2.70056">
        <ele>113.2</ele>
        <time>2018-11-18T10:59:21Z</time>
      </trkpt>
      <trkpt lat="48.4359" lon="2.70053">
        <ele>113.1</ele>
        <time>2018-11-18T10:59:22Z</time>
      </trkpt>
      <trkpt lat="48.4359" lon="2.7005">
        <ele>113.1</ele>
        <time>2018-11-18T10:59:23Z</time>
      </trkpt>
      <trkpt lat="48.43591" lon="2.70047">
        <ele>113</ele>
        <time>2018-11-18T10:59:24Z</time>
      </trkpt>
      <trkpt lat="48.43591" lon="2.70043">
        <ele>112.9</ele>
        <time>2018-11-18T10:59:25Z</time>
      </trkpt>
      <trkpt lat="48.43591" lon="2.70039">
        <ele>112.9</ele>
        <time>2018-11-18T10:59:26Z</time>
      </trkpt>
      <trkpt lat="48.43591" lon="2.70035">
        <ele>112.8</ele>
        <time>2018-11-18T10:59:27Z</time>
      </trkpt>
      <trkpt lat="48.43592" lon="2.7003">
        <ele>112.7</ele>
        <time>2018-11-18T10:59:28Z</time>
      </trkpt>
      <trkpt lat="48.43592" lon="2.70026">
        <ele>112.6</ele>
        <time>2018-11-18T10:59:29Z</time>
      </trkpt>
      <trkpt lat="48.43592" lon="2.70022">
        <ele>112.6</ele>
        <time>2018-11-18T10:59:30Z</time>
      </trkpt>
      <trkpt lat="48.43593" lon="2.70018">
        <ele>112.5</ele>
        <time>2018-11-18T10:59:31Z</time>
      </trkpt>
      <trkpt lat="48.43593" lon="2.70013">
        <ele>112.5</ele>
        <time>2018-11-18T10:59:32Z</time>
      </trkpt>
      <trkpt lat="48.43594" lon="2.70008">
        <ele>112.4</ele>
        <time>2018-11-18T10:59:33Z</time>
      </trkpt>
      <trkpt lat="48.43594" lon="2.70003">
        <ele>112.2</ele>
        <time>2018-11-18T10:59:34Z</time>
      </trkpt>
      <trkpt lat="48.43595" lon="2.69998">
        <ele>112.1</ele>
        <time>2018-11-18T10:59:35Z</time>
      </trkpt>
      <trkpt lat="48.43595" lon="2.69993">
        <ele>112</ele>
        <time>2018-11-18T10:59:36Z</time>
      </trkpt>
      <trkpt lat="48.43595" lon="2.69988">
        <ele>111.9</ele>
        <time>2018-11-18T10:59:37Z</time>
      </trkpt>
      <trkpt lat="48.43596" lon="2.69983">
        <ele>111.7</ele>
        <time>2018-11-18T10:59:38Z</time>
      </trkpt>
      <trkpt lat="48.43597" lon="2.69977">
        <ele>111.5</ele>
        <time>2018-11-18T10:59:39Z</time>
      </trkpt>
      <trkpt lat="48.43598" lon="2.69971">
        <ele>111.4</ele>
        <time>2018-11-18T10:59:40Z</time>
      </trkpt>
      <trkpt lat="48.43599" lon="2.69966">
        <ele>111.2</ele>
        <time>2018-11-18T10:59:41Z</time>
      </trkpt>
      <trkpt lat="48.43599" lon="2.69961">
        <ele>111</ele>
        <time>2018-11-18T10:59:42Z</time>
      </trkpt>
      <trkpt lat="48.436" lon="2.69956">
        <ele>110.8</ele>
        <time>2018-11-18T10:59:43Z</time>
      </trkpt>
      <trkpt lat="48.43601" lon="2.69951">
        <ele>110.6</ele>
        <time>2018-11-18T10:59:44Z</time>
      </trkpt>
      <trkpt lat="48.43602" lon="2.69945">
        <ele>110.4</ele>
        <time>2018-11-18T10:59:45Z</time>
      </trkpt>
      <trkpt lat="48.43603" lon="2.69941">
        <ele>110.2</ele>
        <time>2018-11-18T10:59:46Z</time>
      </trkpt>
      <trkpt lat="48.43604" lon="2.69936">
        <ele>109.9</ele>
        <time>2018-11-18T10:59:47Z</time>
      </trkpt>
      <trkpt lat="48.43605" lon="2.69929">
        <ele>109.6</ele>
        <time>2018-11-18T10:59:48Z</time>
      </trkpt>
      <trkpt lat="48.43607" lon="2.69924">
        <ele>109.4</ele>
        <time>2018-11-18T10:59:49Z</time>
      </trkpt>
      <trkpt lat="48.43609" lon="2.69918">
        <ele>109</ele>
        <time>2018-11-18T10:59:50Z</time>
      </trkpt>
      <trkpt lat="48.4361" lon="2.69911">
        <ele>108.7</ele>
        <time>2018-11-18T10:59:51Z</time>
      </trkpt>
      <trkpt lat="48.43612" lon="2.69906">
        <ele>108.4</ele>
        <time>2018-11-18T10:59:52Z</time>
      </trkpt>
      <trkpt lat="48.43614" lon="2.699">
        <ele>108.1</ele>
        <time>2018-11-18T10:59:53Z</time>
      </trkpt>
      <trkpt lat="48.43615" lon="2.69893">
        <ele>107.7</ele>
        <time>2018-11-18T10:59:54Z</time>
      </trkpt>
      <trkpt lat="48.43616" lon="2.69888">
        <ele>107.5</ele>
        <time>2018-11-18T10:59:55Z</time>
      </trkpt>
      <trkpt lat="48.43616" lon="2.69883">
        <ele>107.2</ele>
        <time>2018-11-18T10:59:56Z</time>
      </trkpt>
      <trkpt lat="48.43617" lon="2.69876">
        <ele>106.9</ele>
        <time>2018-11-18T10:59:57Z</time>
      </trkpt>
      <trkpt lat="48.43618" lon="2.69871">
        <ele>106.7</ele>
        <time>2018-11-18T10:59:58Z</time>
      </trkpt>
      <trkpt lat="48.43619" lon="2.69865">
        <ele>106.4</ele>
        <time>2018-11-18T10:59:59Z</time>
      </trkpt>
      <trkpt lat="48.4362" lon="2.69859">
        <ele>106.1</ele>
        <time>2018-11-18T11:00:00Z</time>
      </trkpt>
      <trkpt lat="48.43621" lon="2.69853">
        <ele>105.9</ele>
        <time>2018-11-18T11:00:01Z</time>
      </trkpt>
      <trkpt lat="48.43622" lon="2.69846">
        <ele>105.7</ele>
        <time>2018-11-18T11:00:02Z</time>
      </trkpt>
      <trkpt lat="48.43623" lon="2.6984">
        <ele>105.4</ele>
        <time>2018-11-18T11:00:03Z</time>
      </trkpt>
      <trkpt lat="48.43623" lon="2.69833">
        <ele>105.2</ele>
        <time>2018-11-18T11:00:04Z</time>
      </trkpt>
      <trkpt lat="48.43623" lon="2.69826">
        <ele>104.9</ele>
        <time>2018-11-18T11:00:05Z</time>
      </trkpt>
      <trkpt lat="48.43624" lon="2.69819">
        <ele>104.6</ele>
        <time>2018-11-18T11:00:06Z</time>
      </trkpt>
      <trkpt lat="48.43625" lon="2.69812">
        <ele>104.4</ele>
        <time>2018-11-18T11:00:07Z</time>
      </trkpt>
      <trkpt lat="48.43626" lon="2.69805">
        <ele>104.1</ele>
        <time>2018-11-18T11:00:08Z</time>
      </trkpt>
      <trkpt lat="48.43628" lon="2.69799">
        <ele>103.9</ele>
        <time>2018-11-18T11:00:09Z</time>
      </trkpt>
      <trkpt lat="48.43629" lon="2.69793">
        <ele>103.6</ele>
        <time>2018-11-18T11:00:10Z</time>
      </trkpt>
      <trkpt lat="48.4363" lon="2.69787">
        <ele>103.4</ele>
        <time>2018-11-18T11:00:11Z</time>
      </trkpt>
      <trkpt lat="48.43631" lon="2.69782">
        <ele>103.2</ele>
        <time>2018-11-18T11:00:12Z</time>
      </trkpt>
      <trkpt lat="48.43631" lon="2.69777">
        <ele>103.1</ele>
        <time>2018-11-18T11:00:13Z</time>
      </trkpt>
      <trkpt lat="48.43632" lon="2.69772">
        <ele>102.9</ele>
        <time>2018-11-18T11:00:14Z</time>
      </trkpt>
      <trkpt lat="48.43633" lon="2.69767">
        <ele>102.8</ele>
        <time>2018-11-18T11:00:15Z</time>
      </trkpt>
      <trkpt lat="48.43635" lon="2.6976">
        <ele>102.6</ele>
        <time>2018-11-18T11:00:16Z</time>
      </trkpt>
      <trkpt lat="48.43636" lon="2.69754">
        <ele>102.5</ele>
        <time>2018-11-18T11:00:17Z</time>
      </trkpt>
      <trkpt lat="48.43637" lon="2.69748">
        <ele>102.4</ele>
        <time>2018-11-18T11:00:18Z</time>
      </trkpt>
      <trkpt lat="48.43639" lon="2.69742">
        <ele>102.3</ele>
        <time>2018-11-18T11:00:19Z</time>
      </trkpt>
      <trkpt lat="48.43641" lon="2.69739">
        <ele>102.2</ele>
        <time>2018-11-18T11:00:20Z</time>
      </trkpt>
      <trkpt lat="48.43643" lon="2.69737">
        <ele>102.1</ele>
        <time>2018-11-18T11:00:21Z</time>
      </trkpt>
      <trkpt lat="48.43645" lon="2.69737">
        <ele>101.9</ele>
        <time>2018-11-18T11:00:22Z</time>
      </trkpt>
      <trkpt lat="48.43647" lon="2.69737">
        <ele>101.9</ele>
        <time>2018-11-18T11:00:23Z</time>
      </trkpt>
      <trkpt lat="48.4365" lon="2.69738">
        <ele>101.9</ele>
        <time>2018-11-18T11:00:24Z</time>
      </trkpt>
      <trkpt lat="48.43652" lon="2.69739">
        <ele>101.9</ele>
        <time>2018-11-18T11:00:25Z</time>
      </trkpt>
      <trkpt lat="48.43654" lon="2.6974">
        <ele>101.9</ele>
        <time>2018-11-18T11:00:26Z</time>
      </trkpt>
      <trkpt lat="48.43656" lon="2.6974">
        <ele>101.9</ele>
        <time>2018-11-18T11:00:27Z</time>
      </trkpt>
      <trkpt lat="48.43659" lon="2.69741">
        <ele>101.9</ele>
        <time>2018-11-18T11:00:28Z</time>
      </trkpt>
      <trkpt lat="48.43662" lon="2.69742">
        <ele>101.8</ele>
        <time>2018-11-18T11:00:29Z</time>
      </trkpt>
      <trkpt lat="48.43665" lon="2.69742">
        <ele>101.8</ele>
        <time>2018-11-18T11:00:30Z</time>
      </trkpt>
      <trkpt lat="48.43668" lon="2.69743">
        <ele>101.8</ele>
        <time>2018-11-18T11:00:31Z</time>
      </trkpt>
      <trkpt lat="48.43671" lon="2.69744">
        <ele>101.8</ele>
        <time>2018-11-18T11:00:32Z</time>
      </trkpt>
      <trkpt lat="48.43674" lon="2.69744">
        <ele>101.8</ele>
        <time>2018-11-18T11:00:33Z</time>
      </trkpt>
      <trkpt lat="48.43677" lon="2.69745">
        <ele>101.8</ele>
        <time>2018-11-18T11:00:34Z</time>
      </trkpt>
      <trkpt lat="48.4368" lon="2.69746">
        <ele>101.9</ele>
        <time>2018-11-18T11:00:35Z</time>
      </trkpt>
      <trkpt lat="48.43683" lon="2.69747">
        <ele>101.9</ele>
        <time>2018-11-18T11:00:36Z</time>
      </trkpt>
      <trkpt lat="48.43686" lon="2.69748">
        <ele>102</ele>
        <time>2018-11-18T11:00:37Z</time>
      </trkpt>
      <trkpt lat="48.43688" lon="2.6975">
        <ele>102.1</ele>
        <time>2018-11-18T11:00:38Z</time>
      </trkpt>
      <trkpt lat="48.43691" lon="2.69751">
        <ele>102.1</ele>
        <time>2018-11-18T11:00:39Z</time>
      </trkpt>
      <trkpt lat="48.43694" lon="2.69752">
        <ele>102.2</ele>
        <time>2018-11-18T11:00:40Z</time>
      </trkpt>
      <trkpt lat="48.43697" lon="2.69752">
        <ele>102.3</ele>
        <time>2018-11-18T11:00:41Z</time>
      </trkpt>
      <trkpt lat="48.437" lon="2.69753">
        <ele>102.4</ele>
        <time>2018-11-18T11:00:42Z</time>
      </trkpt>
      <trkpt lat="48.43703" lon="2.69753">
        <ele>102.5</ele>
        <time>2018-11-18T11:00:43Z</time>
      </trkpt>
      <trkpt lat="48.43705" lon="2.69754">
        <ele>102.6</ele>
        <time>2018-11-18T11:00:44Z</time>
      </trkpt>
      <trkpt lat="48.43708" lon="2.69755">
        <ele>102.7</ele>
        <time>2018-11-18T11:00:45Z</time>
      </trkpt>
      <trkpt lat="48.43711" lon="2.69756">
        <ele>102.9</ele>
        <time>2018-11-18T11:00:46Z</time>
      </trkpt>
      <trkpt lat="48.43714" lon="2.69758">
        <ele>103</ele>
        <time>2018-11-18T11:00:47Z</time>
      </trkpt>
      <trkpt lat="48.43717" lon="2.69759">
        <ele>103.1</ele>
        <time>2018-11-18T11:00:48Z</time>
      </trkpt>
      <trkpt lat="48.4372" lon="2.6976">
        <ele>103.2</ele>
        <time>2018-11-18T11:00:49Z</time>
      </trkpt>
      <trkpt lat="48.43723" lon="2.69761">
        <ele>103.4</ele>
        <time>2018-11-18T11:00:50Z</time>
      </trkpt>
      <trkpt lat="48.43726" lon="2.69762">
        <ele>103.4</ele>
        <time>2018-11-18T11:00:51Z</time>
      </trkpt>
      <trkpt lat="48.43728" lon="2.69763">
        <ele>103.5</ele>
        <time>2018-11-18T11:00:52Z</time>
      </trkpt>
      <trkpt lat="48.4373" lon="2.69765">
        <ele>103.5</ele>
        <time>2018-11-18T11:00:53Z</time>
      </trkpt>
      <trkpt lat="48.43733" lon="2.69766">
        <ele>103.6</ele>
        <time>2018-11-18T11:00:54Z</time>
      </trkpt>
      <trkpt lat="48.43735" lon="2.69768">
        <ele>103.7</ele>
        <time>2018-11-18T11:00:55Z</time>
      </trkpt>
      <trkpt lat="48.43738" lon="2.69769">
        <ele>103.8</ele>
        <time>2018-11-18T11:00:56Z</time>
      </trkpt>
      <trkpt lat="48.4374" lon="2.69771">
        <ele>103.9</ele>
        <time>2018-11-18T11:00:57Z</time>
      </trkpt>
      <trkpt lat="48.43743" lon="2.69772">
        <ele>104</ele>
        <time>2018-11-18T11:00:58Z</time>
      </trkpt>
      <trkpt lat="48.43745" lon="2.69774">
        <ele>104.1</ele>
        <time>2018-11-18T11:00:59Z</time>
      </trkpt>
      <trkpt lat="48.43747" lon="2.69776">
        <ele>104.2</ele>
        <time>2018-11-18T11:01:00Z</time>
      </trkpt>
      <trkpt lat="48.4375" lon="2.69778">
        <ele>104.3</ele>
        <time>2018-11-18T11:01:01Z</time>
      </trkpt>
      <trkpt lat="48.43752" lon="2.6978">
        <ele>104.5</ele>
        <time>2018-11-18T11:01:02Z</time>
      </trkpt>
      <trkpt lat="48.43754" lon="2.69783">
        <ele>104.6</ele>
        <time>2018-11-18T11:01:03Z</time>
      </trkpt>
      <trkpt lat="48.43756" lon="2.69785">
        <ele>104.8</ele>
        <time>2018-11-18T11:01:04Z</time>
      </trkpt>
      <trkpt lat="48.43757" lon="2.69787">
        <ele>104.9</ele>
        <time>2018-11-18T11:01:05Z</time>
      </trkpt>
      <trkpt lat="48.43759" lon="2.69789">
        <ele>105.1</ele>
        <time>2018-11-18T11:01:06Z</time>
      </trkpt>
      <trkpt lat="48.43761" lon="2.69791">
        <ele>105.2</ele>
        <time>2018-11-18T11:01:07Z</time>
      </trkpt>
      <trkpt lat="48.43763" lon="2.69793">
        <ele>105.3</ele>
        <time>2018-11-18T11:01:08Z</time>
      </trkpt>
      <trkpt lat="48.43765" lon="2.69795">
        <ele>105.5</ele>
        <time>2018-11-18T11:01:09Z</time>
      </trkpt>
      <trkpt lat="48.43767" lon="2.69796">
        <ele>105.6</ele>
        <time>2018-11-18T11:01:10Z</time>
      </trkpt>
      <trkpt lat="48.43768" lon="2.69797">
        <ele>105.6</ele>
        <time>2018-11-18T11:01:11Z</time>
      </trkpt>
      <trkpt lat="48.43769" lon="2.69798">
        <ele>105.7</ele>
        <time>2018-11-18T11:01:12Z</time>
      </trkpt>
      <trkpt lat="48.4377" lon="2.69799">
        <ele>105.8</ele>
        <time>2018-11-18T11:01:13Z</time>
      </trkpt>
      <trkpt lat="48.43773" lon="2.69802">
        <ele>105.9</ele>
        <time>2018-11-18T11:01:14Z</time>
      </trkpt>
      <trkpt lat="48.43775" lon="2.69804">
        <ele>106.1</ele>
        <time>2018-11-18T11:01:15Z</time>
      </trkpt>
      <trkpt lat="48.43776" lon="2.69806">
        <ele>106.3</ele>
        <time>2018-11-18T11:01:16Z</time>
      </trkpt>
      <trkpt lat="48.43778" lon="2.69807">
        <ele>106.4</ele>
        <time>2018-11-18T11:01:17Z</time>
      </trkpt>
      <trkpt lat="48.43779" lon="2.69808">
        <ele>106.6</ele>
        <time>2018-11-18T11:01:18Z</time>
      </trkpt>
      <trkpt lat="48.43781" lon="2.6981">
        <ele>106.8</ele>
        <time>2018-11-18T11:01:19Z</time>
      </trkpt>
      <trkpt lat="48.43782" lon="2.6981">
        <ele>106.9</ele>
        <time>2018-11-18T11:01:20Z</time>
      </trkpt>
      <trkpt lat="48.43784" lon="2.69811">
        <ele>107.1</ele>
        <time>2018-11-18T11:01:21Z</time>
      </trkpt>
      <trkpt lat="48.43785" lon="2.69812">
        <ele>107.2</ele>
        <time>2018-11-18T11:01:22Z</time>
      </trkpt>
      <trkpt lat="48.43787" lon="2.69812">
        <ele>107.3</ele>
        <time>2018-11-18T11:01:23Z</time>
      </trkpt>
      <trkpt lat="48.43788" lon="2.69813">
        <ele>107.5</ele>
        <time>2018-11-18T11:01:24Z</time>
      </trkpt>
      <trkpt lat="48.4379" lon="2.69813">
        <ele>107.6</ele>
        <time>2018-11-18T11:01:25Z</time>
      </trkpt>
      <trkpt lat="48.43792" lon="2.69814">
        <ele>107.8</ele>
        <time>2018-11-18T11:01:26Z</time>
      </trkpt>
      <trkpt lat="48.43794" lon="2.69815">
        <ele>107.9</ele>
        <time>2018-11-18T11:01:27Z</time>
      </trkpt>
      <trkpt lat="48.43796" lon="2.69815">
        <ele>108</ele>
        <time>2018-11-18T11:01:28Z</time>
      </trkpt>
      <trkpt lat="48.43797" lon="2.69815">
        <ele>108.2</ele>
        <time>2018-11-18T11:01:29Z</time>
      </trkpt>
      <trkpt lat="48.43798" lon="2.69816">
        <ele>108.3</ele>
        <time>2018-11-18T11:01:30Z</time>
      </trkpt>
      <trkpt lat="48.43801" lon="2.69816">
        <ele>108.6</ele>
        <time>2018-11-18T11:01:31Z</time>
      </trkpt>
      <trkpt lat="48.43803" lon="2.69817">
        <ele>108.8</ele>
        <time>2018-11-18T11:01:32Z</time>
      </trkpt>
      <trkpt lat="48.43805" lon="2.69817">
        <ele>109</ele>
        <time>2018-11-18T11:01:33Z</time>
      </trkpt>
      <trkpt lat="48.43806" lon="2.69816">
        <ele>109.1</ele>
        <time>2018-11-18T11:01:34Z</time>
      </trkpt>
      <trkpt lat="48.43808" lon="2.69816">
        <ele>109.2</ele>
        <time>2018-11-18T11:01:35Z</time>
      </trkpt>
      <trkpt lat="48.4381" lon="2.69816">
        <ele>109.4</ele>
        <time>2018-11-18T11:01:36Z</time>
      </trkpt>
      <trkpt lat="48.43812" lon="2.69815">
        <ele>109.5</ele>
        <time>2018-11-18T11:01:37Z</time>
      </trkpt>
      <trkpt lat="48.43813" lon="2.69814">
        <ele>109.7</ele>
        <time>2018-11-18T11:01:38Z</time>
      </trkpt>
      <trkpt lat="48.43815" lon="2.69813">
        <ele>109.8</ele>
        <time>2018-11-18T11:01:39Z</time>
      </trkpt>
      <trkpt lat="48.43816" lon="2.69812">
        <ele>109.9</ele>
        <time>2018-11-18T11:01:40Z</time>
      </trkpt>
      <trkpt lat="48.43818" lon="2.6981">
        <ele>110.1</ele>
        <time>2018-11-18T11:01:41Z</time>
      </trkpt>
      <trkpt lat="48.43819" lon="2.69809">
        <ele>110.3</ele>
        <time>2018-11-18T11:01:42Z</time>
      </trkpt>
      <trkpt lat="48.4382" lon="2.69808">
        <ele>110.5</ele>
        <time>2018-11-18T11:01:43Z</time>
      </trkpt>
      <trkpt lat="48.43822" lon="2.69807">
        <ele>110.6</ele>
        <time>2018-11-18T11:01:44Z</time>
      </trkpt>
      <trkpt lat="48.43822" lon="2.69806">
        <ele>110.7</ele>
        <time>2018-11-18T11:01:45Z</time>
      </trkpt>
      <trkpt lat="48.43823" lon="2.69806">
        <ele>110.8</ele>
        <time>2018-11-18T11:01:46Z</time>
      </trkpt>
      <trkpt lat="48.43824" lon="2.69805">
        <ele>110.9</ele>
        <time>2018-11-18T11:01:47Z</time>
      </trkpt>
      <trkpt lat="48.43824" lon="2.69805">
        <ele>110.9</ele>
        <time>2018-11-18T11:01:48Z</time>
      </trkpt>
      <trkpt lat="48.43824" lon="2.69806">
        <ele>111</ele>
        <time>2018-11-18T11:01:49Z</time>
      </trkpt>
      <trkpt lat="48.43824" lon="2.69806">
        <ele>111</ele>
        <time>2018-11-18T11:01:50Z</time>
      </trkpt>
      <trkpt lat="48.43824" lon="2.69806">
        <ele>111</ele>
        <time>2018-11-18T11:01:51Z</time>
      </trkpt>
      <trkpt lat="48.43825" lon="2.69805">
        <ele>111</ele>
        <time>2018-11-18T11:02:44Z</time>
      </trkpt>
      <trkpt lat="48.43825" lon="2.69803">
        <ele>111.2</ele>
        <time>2018-11-18T11:02:45Z</time>
      </trkpt>
      <trkpt lat="48.43826" lon="2.69802">
        <ele>111.5</ele>
        <time>2018-11-18T11:02:46Z</time>
      </trkpt>
      <trkpt lat="48.43827" lon="2.698">
        <ele>111.4</ele>
        <time>2018-11-18T11:02:47Z</time>
      </trkpt>
      <trkpt lat="48.43829" lon="2.69797">
        <ele>111.2</ele>
        <time>2018-11-18T11:02:48Z</time>
      </trkpt>
      <trkpt lat="48.4383" lon="2.69794">
        <ele>111</ele>
        <time>2018-11-18T11:02:49Z</time>
      </trkpt>
      <trkpt lat="48.43833" lon="2.6979">
        <ele>110.7</ele>
        <time>2018-11-18T11:02:50Z</time>
      </trkpt>
      <trkpt lat="48.43836" lon="2.69786">
        <ele>110.4</ele>
        <time>2018-11-18T11:02:51Z</time>
      </trkpt>
      <trkpt lat="48.4384" lon="2.69782">
        <ele>110</ele>
        <time>2018-11-18T11:02:52Z</time>
      </trkpt>
      <trkpt lat="48.43844" lon="2.69778">
        <ele>109.7</ele>
        <time>2018-11-18T11:02:53Z</time>
      </trkpt>
      <trkpt lat="48.43848" lon="2.69774">
        <ele>109.3</ele>
        <time>2018-11-18T11:02:54Z</time>
      </trkpt>
      <trkpt lat="48.43852" lon="2.69771">
        <ele>109</ele>
        <time>2018-11-18T11:02:55Z</time>
      </trkpt>
      <trkpt lat="48.43857" lon="2.69768">
        <ele>108.5</ele>
        <time>2018-11-18T11:02:56Z</time>
      </trkpt>
      <trkpt lat="48.43863" lon="2.69767">
        <ele>107.9</ele>
        <time>2018-11-18T11:02:57Z</time>
      </trkpt>
      <trkpt lat="48.43871" lon="2.69768">
        <ele>106.9</ele>
        <time>2018-11-18T11:02:58Z</time>
      </trkpt>
      <trkpt lat="48.43879" lon="2.69769">
        <ele>105.6</ele>
        <time>2018-11-18T11:02:59Z</time>
      </trkpt>
      <trkpt lat="48.43888" lon="2.69771">
        <ele>104.9</ele>
        <time>2018-11-18T11:03:00Z</time>
      </trkpt>
      <trkpt lat="48.43897" lon="2.69772">
        <ele>104.1</ele>
        <time>2018-11-18T11:03:01Z</time>
      </trkpt>
      <trkpt lat="48.43906" lon="2.69773">
        <ele>103.4</ele>
        <time>2018-11-18T11:03:02Z</time>
      </trkpt>
      <trkpt lat="48.43915" lon="2.69774">
        <ele>102.7</ele>
        <time>2018-11-18T11:03:03Z</time>
      </trkpt>
      <trkpt lat="48.43924" lon="2.69774">
        <ele>101.9</ele>
        <time>2018-11-18T11:03:04Z</time>
      </trkpt>
      <trkpt lat="48.43932" lon="2.69774">
        <ele>101.1</ele>
        <time>2018-11-18T11:03:05Z</time>
      </trkpt>
      <trkpt lat="48.4394" lon="2.69775">
        <ele>100.2</ele>
        <time>2018-11-18T11:03:06Z</time>
      </trkpt>
      <trkpt lat="48.43949" lon="2.69775">
        <ele>98.9</ele>
        <time>2018-11-18T11:03:07Z</time>
      </trkpt>
      <trkpt lat="48.43959" lon="2.69776">
        <ele>98.3</ele>
        <time>2018-11-18T11:03:08Z</time>
      </trkpt>
      <trkpt lat="48.43968" lon="2.69777">
        <ele>97.9</ele>
        <time>2018-11-18T11:03:09Z</time>
      </trkpt>
      <trkpt lat="48.43977" lon="2.69778">
        <ele>97.5</ele>
        <time>2018-11-18T11:03:10Z</time>
      </trkpt>
      <trkpt lat="48.43986" lon="2.6978">
        <ele>97.4</ele>
        <time>2018-11-18T11:03:11Z</time>
      </trkpt>
      <trkpt lat="48.43994" lon="2.69783">
        <ele>97.2</ele>
        <time>2018-11-18T11:03:12Z</time>
      </trkpt>
      <trkpt lat="48.44003" lon="2.69785">
        <ele>97</ele>
        <time>2018-11-18T11:03:13Z</time>
      </trkpt>
      <trkpt lat="48.44011" lon="2.69786">
        <ele>96.9</ele>
        <time>2018-11-18T11:03:14Z</time>
      </trkpt>
      <trkpt lat="48.44017" lon="2.69785">
        <ele>96.8</ele>
        <time>2018-11-18T11:03:15Z</time>
      </trkpt>
      <trkpt lat="48.44023" lon="2.69782">
        <ele>96.6</ele>
        <time>2018-11-18T11:03:16Z</time>
      </trkpt>
      <trkpt lat="48.44027" lon="2.69777">
        <ele>96.5</ele>
        <time>2018-11-18T11:03:17Z</time>
      </trkpt>
      <trkpt lat="48.4403" lon="2.6977">
        <ele>96.4</ele>
        <time>2018-11-18T11:03:18Z</time>
      </trkpt>
      <trkpt lat="48.44033" lon="2.69763">
        <ele>95.8</ele>
        <time>2018-11-18T11:03:19Z</time>
      </trkpt>
      <trkpt lat="48.44034" lon="2.69756">
        <ele>95.7</ele>
        <time>2018-11-18T11:03:20Z</time>
      </trkpt>
      <trkpt lat="48.44036" lon="2.6975">
        <ele>95.6</ele>
        <time>2018-11-18T11:03:21Z</time>
      </trkpt>
      <trkpt lat="48.44037" lon="2.69744">
        <ele>95.5</ele>
        <time>2018-11-18T11:03:22Z</time>
      </trkpt>
      <trkpt lat="48.44039" lon="2.69738">
        <ele>95.5</ele>
        <time>2018-11-18T11:03:23Z</time>
      </trkpt>
      <trkpt lat="48.4404" lon="2.69733">
        <ele>95.4</ele>
        <time>2018-11-18T11:03:24Z</time>
      </trkpt>
      <trkpt lat="48.44042" lon="2.69727">
        <ele>95.3</ele>
        <time>2018-11-18T11:03:25Z</time>
      </trkpt>
      <trkpt lat="48.44044" lon="2.69721">
        <ele>95.3</ele>
        <time>2018-11-18T11:03:26Z</time>
      </trkpt>
      <trkpt lat="48.44045" lon="2.69715">
        <ele>95.2</ele>
        <time>2018-11-18T11:03:27Z</time>
      </trkpt>
      <trkpt lat="48.44047" lon="2.69709">
        <ele>95.1</ele>
        <time>2018-11-18T11:03:28Z</time>
      </trkpt>
      <trkpt lat="48.44049" lon="2.69702">
        <ele>95</ele>
        <time>2018-11-18T11:03:29Z</time>
      </trkpt>
      <trkpt lat="48.44049" lon="2.69696">
        <ele>94.9</ele>
        <time>2018-11-18T11:03:30Z</time>
      </trkpt>
      <trkpt lat="48.4405" lon="2.6969">
        <ele>94.9</ele>
        <time>2018-11-18T11:03:31Z</time>
      </trkpt>
      <trkpt lat="48.44052" lon="2.69682">
        <ele>94.8</ele>
        <time>2018-11-18T11:03:32Z</time>
      </trkpt>
      <trkpt lat="48.44053" lon="2.69675">
        <ele>94.7</ele>
        <time>2018-11-18T11:03:33Z</time>
      </trkpt>
      <trkpt lat="48.44054" lon="2.69668">
        <ele>94.6</ele>
        <time>2018-11-18T11:03:34Z</time>
      </trkpt>
      <trkpt lat="48.44055" lon="2.69661">
        <ele>94.5</ele>
        <time>2018-11-18T11:03:35Z</time>
      </trkpt>
      <trkpt lat="48.44057" lon="2.69655">
        <ele>94.4</ele>
        <time>2018-11-18T11:03:36Z</time>
      </trkpt>
      <trkpt lat="48.44058" lon="2.69649">
        <ele>94.4</ele>
        <time>2018-11-18T11:03:37Z</time>
      </trkpt>
      <trkpt lat="48.44059" lon="2.69641">
        <ele>94.3</ele>
        <time>2018-11-18T11:03:38Z</time>
      </trkpt>
      <trkpt lat="48.4406" lon="2.69635">
        <ele>94.2</ele>
        <time>2018-11-18T11:03:39Z</time>
      </trkpt>
      <trkpt lat="48.4406" lon="2.69628">
        <ele>94.1</ele>
        <time>2018-11-18T11:03:40Z</time>
      </trkpt>
      <trkpt lat="48.44062" lon="2.69621">
        <ele>94</ele>
        <time>2018-11-18T11:03:41Z</time>
      </trkpt>
      <trkpt lat="48.44063" lon="2.69615">
        <ele>93.9</ele>
        <time>2018-11-18T11:03:42Z</time>
      </trkpt>
      <trkpt lat="48.44063" lon="2.69608">
        <ele>93.8</ele>
        <time>2018-11-18T11:03:43Z</time>
      </trkpt>
      <trkpt lat="48.44064" lon="2.69602">
        <ele>93.7</ele>
        <time>2018-11-18T11:03:44Z</time>
      </trkpt>
      <trkpt lat="48.44065" lon="2.69594">
        <ele>93.6</ele>
        <time>2018-11-18T11:03:45Z</time>
      </trkpt>
      <trkpt lat="48.44066" lon="2.69587">
        <ele>93.6</ele>
        <time>2018-11-18T11:03:46Z</time>
      </trkpt>
      <trkpt lat="48.44067" lon="2.6958">
        <ele>93.5</ele>
        <time>2018-11-18T11:03:47Z</time>
      </trkpt>
      <trkpt lat="48.44068" lon="2.69574">
        <ele>93.4</ele>
        <time>2018-11-18T11:03:48Z</time>
      </trkpt>
      <trkpt lat="48.4407" lon="2.69567">
        <ele>93.3</ele>
        <time>2018-11-18T11:03:49Z</time>
      </trkpt>
      <trkpt lat="48.44071" lon="2.69562">
        <ele>93.3</ele>
        <time>2018-11-18T11:03:50Z</time>
      </trkpt>
      <trkpt lat="48.44072" lon="2.69555">
        <ele>93.2</ele>
        <time>2018-11-18T11:03:51Z</time>
      </trkpt>
      <trkpt lat="48.44073" lon="2.69548">
        <ele>93.1</ele>
        <time>2018-11-18T11:03:52Z</time>
      </trkpt>
      <trkpt lat="48.44073" lon="2.69543">
        <ele>93.1</ele>
        <time>2018-11-18T11:03:53Z</time>
      </trkpt>
      <trkpt lat="48.44074" lon="2.69538">
        <ele>93</ele>
        <time>2018-11-18T11:03:54Z</time>
      </trkpt>
      <trkpt lat="48.44075" lon="2.69532">
        <ele>92.9</ele>
        <time>2018-11-18T11:03:55Z</time>
      </trkpt>
      <trkpt lat="48.44076" lon="2.69527">
        <ele>92.8</ele>
        <time>2018-11-18T11:03:56Z</time>
      </trkpt>
      <trkpt lat="48.44077" lon="2.69521">
        <ele>92.8</ele>
        <time>2018-11-18T11:03:57Z</time>
      </trkpt>
      <trkpt lat="48.44077" lon="2.69515">
        <ele>92.7</ele>
        <time>2018-11-18T11:03:58Z</time>
      </trkpt>
      <trkpt lat="48.44078" lon="2.69509">
        <ele>92.6</ele>
        <time>2018-11-18T11:03:59Z</time>
      </trkpt>
      <trkpt lat="48.44079" lon="2.69503">
        <ele>92.6</ele>
        <time>2018-11-18T11:04:00Z</time>
      </trkpt>
      <trkpt lat="48.4408" lon="2.69496">
        <ele>92.5</ele>
        <time>2018-11-18T11:04:01Z</time>
      </trkpt>
      <trkpt lat="48.44081" lon="2.69489">
        <ele>92.4</ele>
        <time>2018-11-18T11:04:02Z</time>
      </trkpt>
      <trkpt lat="48.44083" lon="2.69481">
        <ele>92.3</ele>
        <time>2018-11-18T11:04:03Z</time>
      </trkpt>
      <trkpt lat="48.44084" lon="2.69475">
        <ele>92.2</ele>
        <time>2018-11-18T11:04:04Z</time>
      </trkpt>
      <trkpt lat="48.44085" lon="2.69466">
        <ele>92.2</ele>
        <time>2018-11-18T11:04:05Z</time>
      </trkpt>
      <trkpt lat="48.44085" lon="2.6946">
        <ele>92.1</ele>
        <time>2018-11-18T11:04:06Z</time>
      </trkpt>
      <trkpt lat="48.44086" lon="2.69453">
        <ele>92</ele>
        <time>2018-11-18T11:04:07Z</time>
      </trkpt>
      <trkpt lat="48.44086" lon="2.69447">
        <ele>92</ele>
        <time>2018-11-18T11:04:08Z</time>
      </trkpt>
      <trkpt lat="48.44086" lon="2.69439">
        <ele>92</ele>
        <time>2018-11-18T11:04:09Z</time>
      </trkpt>
      <trkpt lat="48.44085" lon="2.69433">
        <ele>92</ele>
        <time>2018-11-18T11:04:10Z</time>
      </trkpt>
      <trkpt lat="48.44084" lon="2.69427">
        <ele>92.1</ele>
        <time>2018-11-18T11:04:11Z</time>
      </trkpt>
      <trkpt lat="48.44082" lon="2.6942">
        <ele>92.1</ele>
        <time>2018-11-18T11:04:12Z</time>
      </trkpt>
      <trkpt lat="48.4408" lon="2.69414">
        <ele>92.1</ele>
        <time>2018-11-18T11:04:13Z</time>
      </trkpt>
      <trkpt lat="48.44077" lon="2.69406">
        <ele>92.1</ele>
        <time>2018-11-18T11:04:14Z</time>
      </trkpt>
      <trkpt lat="48.44075" lon="2.69399">
        <ele>92</ele>
        <time>2018-11-18T11:04:15Z</time>
      </trkpt>
      <trkpt lat="48.44074" lon="2.69394">
        <ele>92</ele>
        <time>2018-11-18T11:04:16Z</time>
      </trkpt>
      <trkpt lat="48.44072" lon="2.69389">
        <ele>91.9</ele>
        <time>2018-11-18T11:04:17Z</time>
      </trkpt>
      <trkpt lat="48.44069" lon="2.6938">
        <ele>91.7</ele>
        <time>2018-11-18T11:04:18Z</time>
      </trkpt>
      <trkpt lat="48.44068" lon="2.69373">
        <ele>91.6</ele>
        <time>2018-11-18T11:04:19Z</time>
      </trkpt>
      <trkpt lat="48.44066" lon="2.69366">
        <ele>91.5</ele>
        <time>2018-11-18T11:04:20Z</time>
      </trkpt>
      <trkpt lat="48.44065" lon="2.69359">
        <ele>91.5</ele>
        <time>2018-11-18T11:04:21Z</time>
      </trkpt>
      <trkpt lat="48.44062" lon="2.69353">
        <ele>91.4</ele>
        <time>2018-11-18T11:04:22Z</time>
      </trkpt>
      <trkpt lat="48.4406" lon="2.69346">
        <ele>91.4</ele>
        <time>2018-11-18T11:04:23Z</time>
      </trkpt>
      <trkpt lat="48.44058" lon="2.6934">
        <ele>91.5</ele>
        <time>2018-11-18T11:04:24Z</time>
      </trkpt>
      <trkpt lat="48.44057" lon="2.69334">
        <ele>91.5</ele>
        <time>2018-11-18T11:04:25Z</time>
      </trkpt>
      <trkpt lat="48.44055" lon="2.69329">
        <ele>91.5</ele>
        <time>2018-11-18T11:04:26Z</time>
      </trkpt>
      <trkpt lat="48.44053" lon="2.69323">
        <ele>91.6</ele>
        <time>2018-11-18T11:04:27Z</time>
      </trkpt>
      <trkpt lat="48.44051" lon="2.69317">
        <ele>91.6</ele>
        <time>2018-11-18T11:04:28Z</time>
      </trkpt>
      <trkpt lat="48.4405" lon="2.69311">
        <ele>91.6</ele>
        <time>2018-11-18T11:04:29Z</time>
      </trkpt>
      <trkpt lat="48.44048" lon="2.69305">
        <ele>91.5</ele>
        <time>2018-11-18T11:04:30Z</time>
      </trkpt>
      <trkpt lat="48.44046" lon="2.69299">
        <ele>91.5</ele>
        <time>2018-11-18T11:04:31Z</time>
      </trkpt>
      <trkpt lat="48.44046" lon="2.69294">
        <ele>91.5</ele>
        <time>2018-11-18T11:04:32Z</time>
      </trkpt>
      <trkpt lat="48.44047" lon="2.6929">
        <ele>91.5</ele>
        <time>2018-11-18T11:04:33Z</time>
      </trkpt>
      <trkpt lat="48.44049" lon="2.69288">
        <ele>91.4</ele>
        <time>2018-11-18T11:04:34Z</time>
      </trkpt>
      <trkpt lat="48.44051" lon="2.69287">
        <ele>91.4</ele>
        <time>2018-11-18T11:04:35Z</time>
      </trkpt>
      <trkpt lat="48.44053" lon="2.69285">
        <ele>91.4</ele>
        <time>2018-11-18T11:04:36Z</time>
      </trkpt>
      <trkpt lat="48.44056" lon="2.69283">
        <ele>91.4</ele>
        <time>2018-11-18T11:04:37Z</time>
      </trkpt>
      <trkpt lat="48.44059" lon="2.69281">
        <ele>91.3</ele>
        <time>2018-11-18T11:04:38Z</time>
      </trkpt>
      <trkpt lat="48.44063" lon="2.69279">
        <ele>90.8</ele>
        <time>2018-11-18T11:04:39Z</time>
      </trkpt>
      <trkpt lat="48.44067" lon="2.69277">
        <ele>90.8</ele>
        <time>2018-11-18T11:04:40Z</time>
      </trkpt>
      <trkpt lat="48.44071" lon="2.69276">
        <ele>90.7</ele>
        <time>2018-11-18T11:04:41Z</time>
      </trkpt>
      <trkpt lat="48.44075" lon="2.69275">
        <ele>90.7</ele>
        <time>2018-11-18T11:04:42Z</time>
      </trkpt>
      <trkpt lat="48.44079" lon="2.69276">
        <ele>90.7</ele>
        <time>2018-11-18T11:04:43Z</time>
      </trkpt>
      <trkpt lat="48.44082" lon="2.69278">
        <ele>90.7</ele>
        <time>2018-11-18T11:04:44Z</time>
      </trkpt>
      <trkpt lat="48.44086" lon="2.69281">
        <ele>90.7</ele>
        <time>2018-11-18T11:04:45Z</time>
      </trkpt>
      <trkpt lat="48.4409" lon="2.69284">
        <ele>90.7</ele>
        <time>2018-11-18T11:04:46Z</time>
      </trkpt>
      <trkpt lat="48.44095" lon="2.69288">
        <ele>90.8</ele>
        <time>2018-11-18T11:04:47Z</time>
      </trkpt>
      <trkpt lat="48.44099" lon="2.69291">
        <ele>90.8</ele>
        <time>2018-11-18T11:04:48Z</time>
      </trkpt>
      <trkpt lat="48.44104" lon="2.69295">
        <ele>90.9</ele>
        <time>2018-11-18T11:04:49Z</time>
      </trkpt>
      <trkpt lat="48.44108" lon="2.69299">
        <ele>90.9</ele>
        <time>2018-11-18T11:04:50Z</time>
      </trkpt>
      <trkpt lat="48.44113" lon="2.69303">
        <ele>90.9</ele>
        <time>2018-11-18T11:04:51Z</time>
      </trkpt>
      <trkpt lat="48.44118" lon="2.69307">
        <ele>90.9</ele>
        <time>2018-11-18T11:04:52Z</time>
      </trkpt>
      <trkpt lat="48.44123" lon="2.69312">
        <ele>90.9</ele>
        <time>2018-11-18T11:04:53Z</time>
      </trkpt>
      <trkpt lat="48.44129" lon="2.69317">
        <ele>90.9</ele>
        <time>2018-11-18T11:04:54Z</time>
      </trkpt>
      <trkpt lat="48.44134" lon="2.69321">
        <ele>90.9</ele>
        <time>2018-11-18T11:04:55Z</time>
      </trkpt>
      <trkpt lat="48.44139" lon="2.69326">
        <ele>90.9</ele>
        <time>2018-11-18T11:04:56Z</time>
      </trkpt>
      <trkpt lat="48.44144" lon="2.69331">
        <ele>90.9</ele>
        <time>2018-11-18T11:04:57Z</time>
      </trkpt>
      <trkpt lat="48.4415" lon="2.69336">
        <ele>90.9</ele>
        <time>2018-11-18T11:04:58Z</time>
      </trkpt>
      <trkpt lat="48.44155" lon="2.69341">
        <ele>90.9</ele>
        <time>2018-11-18T11:04:59Z</time>
      </trkpt>
      <trkpt lat="48.4416" lon="2.69346">
        <ele>90.9</ele>
        <time>2018-11-18T11:05:00Z</time>
      </trkpt>
      <trkpt lat="48.44166" lon="2.69351">
        <ele>90.8</ele>
        <time>2018-11-18T11:05:01Z</time>
      </trkpt>
      <trkpt lat="48.44171" lon="2.69356">
        <ele>90.7</ele>
        <time>2018-11-18T11:05:02Z</time>
      </trkpt>
      <trkpt lat="48.44177" lon="2.69361">
        <ele>90.7</ele>
        <time>2018-11-18T11:05:03Z</time>
      </trkpt>
      <trkpt lat="48.44182" lon="2.69366">
        <ele>90.7</ele>
        <time>2018-11-18T11:05:04Z</time>
      </trkpt>
      <trkpt lat="48.44187" lon="2.6937">
        <ele>90.7</ele>
        <time>2018-11-18T11:05:05Z</time>
      </trkpt>
      <trkpt lat="48.44193" lon="2.69375">
        <ele>90.9</ele>
        <time>2018-11-18T11:05:06Z</time>
      </trkpt>
      <trkpt lat="48.44199" lon="2.69379">
        <ele>91</ele>
        <time>2018-11-18T11:05:07Z</time>
      </trkpt>
      <trkpt lat="48.44204" lon="2.69384">
        <ele>91.1</ele>
        <time>2018-11-18T11:05:08Z</time>
      </trkpt>
      <trkpt lat="48.44209" lon="2.69389">
        <ele>91</ele>
        <time>2018-11-18T11:05:09Z</time>
      </trkpt>
      <trkpt lat="48.44215" lon="2.69394">
        <ele>90.9</ele>
        <time>2018-11-18T11:05:10Z</time>
      </trkpt>
      <trkpt lat="48.4422" lon="2.69399">
        <ele>90.8</ele>
        <time>2018-11-18T11:05:11Z</time>
      </trkpt>
      <trkpt lat="48.44226" lon="2.69403">
        <ele>90.7</ele>
        <time>2018-11-18T11:05:12Z</time>
      </trkpt>
      <trkpt lat="48.44231" lon="2.69405">
        <ele>90.6</ele>
        <time>2018-11-18T11:05:13Z</time>
      </trkpt>
      <trkpt lat="48.44237" lon="2.69405">
        <ele>90.6</ele>
        <time>2018-11-18T11:05:14Z</time>
      </trkpt>
      <trkpt lat="48.44243" lon="2.69404">
        <ele>90.7</ele>
        <time>2018-11-18T11:05:15Z</time>
      </trkpt>
      <trkpt lat="48.44248" lon="2.69402">
        <ele>90.8</ele>
        <time>2018-11-18T11:05:16Z</time>
      </trkpt>
      <trkpt lat="48.44253" lon="2.69401">
        <ele>91</ele>
        <time>2018-11-18T11:05:17Z</time>
      </trkpt>
      <trkpt lat="48.44258" lon="2.694">
        <ele>91.1</ele>
        <time>2018-11-18T11:05:18Z</time>
      </trkpt>
      <trkpt lat="48.44263" lon="2.69398">
        <ele>91.2</ele>
        <time>2018-11-18T11:05:19Z</time>
      </trkpt>
      <trkpt lat="48.44268" lon="2.69397">
        <ele>91.4</ele>
        <time>2018-11-18T11:05:20Z</time>
      </trkpt>
      <trkpt lat="48.44272" lon="2.69396">
        <ele>91.6</ele>
        <time>2018-11-18T11:05:21Z</time>
      </trkpt>
      <trkpt lat="48.44276" lon="2.69395">
        <ele>91.7</ele>
        <time>2018-11-18T11:05:22Z</time>
      </trkpt>
      <trkpt lat="48.4428" lon="2.69393">
        <ele>91.9</ele>
        <time>2018-11-18T11:05:23Z</time>
      </trkpt>
      <trkpt lat="48.44284" lon="2.69392">
        <ele>92.1</ele>
        <time>2018-11-18T11:05:24Z</time>
      </trkpt>
      <trkpt lat="48.44288" lon="2.6939">
        <ele>92.3</ele>
        <time>2018-11-18T11:05:25Z</time>
      </trkpt>
      <trkpt lat="48.44293" lon="2.69389">
        <ele>92.5</ele>
        <time>2018-11-18T11:05:26Z</time>
      </trkpt>
      <trkpt lat="48.44297" lon="2.69388">
        <ele>92.8</ele>
        <time>2018-11-18T11:05:27Z</time>
      </trkpt>
      <trkpt lat="48.44301" lon="2.69386">
        <ele>93</ele>
        <time>2018-11-18T11:05:28Z</time>
      </trkpt>
      <trkpt lat="48.44305" lon="2.69385">
        <ele>93.3</ele>
        <time>2018-11-18T11:05:29Z</time>
      </trkpt>
      <trkpt lat="48.44309" lon="2.69383">
        <ele>93.5</ele>
        <time>2018-11-18T11:05:30Z</time>
      </trkpt>
      <trkpt lat="48.44313" lon="2.69381">
        <ele>93.8</ele>
        <time>2018-11-18T11:05:31Z</time>
      </trkpt>
      <trkpt lat="48.44318" lon="2.69379">
        <ele>94</ele>
        <time>2018-11-18T11:05:32Z</time>
      </trkpt>
      <trkpt lat="48.44322" lon="2.69378">
        <ele>94.3</ele>
        <time>2018-11-18T11:05:33Z</time>
      </trkpt>
      <trkpt lat="48.44327" lon="2.69376">
        <ele>94.6</ele>
        <time>2018-11-18T11:05:34Z</time>
      </trkpt>
      <trkpt lat="48.44332" lon="2.69375">
        <ele>94.9</ele>
        <time>2018-11-18T11:05:35Z</time>
      </trkpt>
      <trkpt lat="48.44337" lon="2.69373">
        <ele>95.2</ele>
        <time>2018-11-18T11:05:36Z</time>
      </trkpt>
      <trkpt lat="48.44343" lon="2.69372">
        <ele>95.6</ele>
        <time>2018-11-18T11:05:37Z</time>
      </trkpt>
      <trkpt lat="48.44349" lon="2.6937">
        <ele>95.4</ele>
        <time>2018-11-18T11:05:38Z</time>
      </trkpt>
      <trkpt lat="48.44354" lon="2.69369">
        <ele>95.2</ele>
        <time>2018-11-18T11:05:39Z</time>
      </trkpt>
      <trkpt lat="48.44359" lon="2.69368">
        <ele>95.1</ele>
        <time>2018-11-18T11:05:40Z</time>
      </trkpt>
      <trkpt lat="48.44363" lon="2.69366">
        <ele>95</ele>
        <time>2018-11-18T11:05:41Z</time>
      </trkpt>
      <trkpt lat="48.44368" lon="2.69365">
        <ele>94.9</ele>
        <time>2018-11-18T11:05:42Z</time>
      </trkpt>
      <trkpt lat="48.44372" lon="2.69363">
        <ele>94.8</ele>
        <time>2018-11-18T11:05:43Z</time>
      </trkpt>
      <trkpt lat="48.44376" lon="2.69361">
        <ele>94.8</ele>
        <time>2018-11-18T11:05:44Z</time>
      </trkpt>
      <trkpt lat="48.4438" lon="2.6936">
        <ele>94.8</ele>
        <time>2018-11-18T11:05:45Z</time>
      </trkpt>
      <trkpt lat="48.44386" lon="2.69358">
        <ele>94.9</ele>
        <time>2018-11-18T11:05:46Z</time>
      </trkpt>
      <trkpt lat="48.4439" lon="2.69357">
        <ele>94.9</ele>
        <time>2018-11-18T11:05:47Z</time>
      </trkpt>
      <trkpt lat="48.44395" lon="2.69355">
        <ele>95</ele>
        <time>2018-11-18T11:05:48Z</time>
      </trkpt>
      <trkpt lat="48.444" lon="2.69353">
        <ele>95</ele>
        <time>2018-11-18T11:05:49Z</time>
      </trkpt>
      <trkpt lat="48.44405" lon="2.69352">
        <ele>95.1</ele>
        <time>2018-11-18T11:05:50Z</time>
      </trkpt>
      <trkpt lat="48.4441" lon="2.6935">
        <ele>95.1</ele>
        <time>2018-11-18T11:05:51Z</time>
      </trkpt>
      <trkpt lat="48.44415" lon="2.69348">
        <ele>95.1</ele>
        <time>2018-11-18T11:05:52Z</time>
      </trkpt>
      <trkpt lat="48.44421" lon="2.69346">
        <ele>95.1</ele>
        <time>2018-11-18T11:05:53Z</time>
      </trkpt>
      <trkpt lat="48.44426" lon="2.69345">
        <ele>95</ele>
        <time>2018-11-18T11:05:54Z</time>
      </trkpt>
      <trkpt lat="48.44432" lon="2.69343">
        <ele>95</ele>
        <time>2018-11-18T11:05:55Z</time>
      </trkpt>
      <trkpt lat="48.44437" lon="2.69342">
        <ele>95</ele>
        <time>2018-11-18T11:05:56Z</time>
      </trkpt>
      <trkpt lat="48.44442" lon="2.6934">
        <ele>95</ele>
        <time>2018-11-18T11:05:57Z</time>
      </trkpt>
      <trkpt lat="48.44446" lon="2.69339">
        <ele>95</ele>
        <time>2018-11-18T11:05:58Z</time>
      </trkpt>
      <trkpt lat="48.44451" lon="2.69337">
        <ele>95</ele>
        <time>2018-11-18T11:05:59Z</time>
      </trkpt>
      <trkpt lat="48.44456" lon="2.69335">
        <ele>95</ele>
        <time>2018-11-18T11:06:00Z</time>
      </trkpt>
      <trkpt lat="48.44461" lon="2.69334">
        <ele>95</ele>
        <time>2018-11-18T11:06:01Z</time>
      </trkpt>
      <trkpt lat="48.44467" lon="2.69332">
        <ele>95</ele>
        <time>2018-11-18T11:06:02Z</time>
      </trkpt>
      <trkpt lat="48.44473" lon="2.6933">
        <ele>94.9</ele>
        <time>2018-11-18T11:06:03Z</time>
      </trkpt>
      <trkpt lat="48.44479" lon="2.69329">
        <ele>94.7</ele>
        <time>2018-11-18T11:06:04Z</time>
      </trkpt>
      <trkpt lat="48.44484" lon="2.69327">
        <ele>94.5</ele>
        <time>2018-11-18T11:06:05Z</time>
      </trkpt>
      <trkpt lat="48.4449" lon="2.69325">
        <ele>94.3</ele>
        <time>2018-11-18T11:06:06Z</time>
      </trkpt>
      <trkpt lat="48.44495" lon="2.69323">
        <ele>94.2</ele>
        <time>2018-11-18T11:06:07Z</time>
      </trkpt>
      <trkpt lat="48.445" lon="2.69321">
        <ele>94</ele>
        <time>2018-11-18T11:06:08Z</time>
      </trkpt>
      <trkpt lat="48.44505" lon="2.69319">
        <ele>93.9</ele>
        <time>2018-11-18T11:06:09Z</time>
      </trkpt>
      <trkpt lat="48.4451" lon="2.69317">
        <ele>93.8</ele>
        <time>2018-11-18T11:06:10Z</time>
      </trkpt>
      <trkpt lat="48.44516" lon="2.69316">
        <ele>93.8</ele>
        <time>2018-11-18T11:06:11Z</time>
      </trkpt>
      <trkpt lat="48.44521" lon="2.69314">
        <ele>93.8</ele>
        <time>2018-11-18T11:06:12Z</time>
      </trkpt>
      <trkpt lat="48.44526" lon="2.69312">
        <ele>93.8</ele>
        <time>2018-11-18T11:06:13Z</time>
      </trkpt>
      <trkpt lat="48.44532" lon="2.6931">
        <ele>93.9</ele>
        <time>2018-11-18T11:06:14Z</time>
      </trkpt>
      <trkpt lat="48.44538" lon="2.69308">
        <ele>93.9</ele>
        <time>2018-11-18T11:06:15Z</time>
      </trkpt>
      <trkpt lat="48.44544" lon="2.69307">
        <ele>93.9</ele>
        <time>2018-11-18T11:06:16Z</time>
      </trkpt>
      <trkpt lat="48.44549" lon="2.69305">
        <ele>93.9</ele>
        <time>2018-11-18T11:06:17Z</time>
      </trkpt>
      <trkpt lat="48.44555" lon="2.69303">
        <ele>93.8</ele>
        <time>2018-11-18T11:06:18Z</time>
      </trkpt>
      <trkpt lat="48.44561" lon="2.693">
        <ele>93.7</ele>
        <time>2018-11-18T11:06:19Z</time>
      </trkpt>
      <trkpt lat="48.44568" lon="2.69298">
        <ele>93.5</ele>
        <time>2018-11-18T11:06:20Z</time>
      </trkpt>
      <trkpt lat="48.44574" lon="2.69296">
        <ele>93.3</ele>
        <time>2018-11-18T11:06:21Z</time>
      </trkpt>
      <trkpt lat="48.4458" lon="2.69293">
        <ele>93.1</ele>
        <time>2018-11-18T11:06:22Z</time>
      </trkpt>
      <trkpt lat="48.44585" lon="2.69291">
        <ele>92.9</ele>
        <time>2018-11-18T11:06:23Z</time>
      </trkpt>
      <trkpt lat="48.4459" lon="2.69289">
        <ele>92.8</ele>
        <time>2018-11-18T11:06:24Z</time>
      </trkpt>
      <trkpt lat="48.44594" lon="2.69288">
        <ele>92.6</ele>
        <time>2018-11-18T11:06:25Z</time>
      </trkpt>
      <trkpt lat="48.44602" lon="2.69285">
        <ele>92.4</ele>
        <time>2018-11-18T11:06:26Z</time>
      </trkpt>
      <trkpt lat="48.44607" lon="2.69283">
        <ele>92.2</ele>
        <time>2018-11-18T11:06:27Z</time>
      </trkpt>
      <trkpt lat="48.44612" lon="2.69281">
        <ele>92</ele>
        <time>2018-11-18T11:06:28Z</time>
      </trkpt>
      <trkpt lat="48.44617" lon="2.6928">
        <ele>91.9</ele>
        <time>2018-11-18T11:06:29Z</time>
      </trkpt>
      <trkpt lat="48.44622" lon="2.69278">
        <ele>91.9</ele>
        <time>2018-11-18T11:06:30Z</time>
      </trkpt>
      <trkpt lat="48.44627" lon="2.69277">
        <ele>91.8</ele>
        <time>2018-11-18T11:06:31Z</time>
      </trkpt>
      <trkpt lat="48.44631" lon="2.69276">
        <ele>91.8</ele>
        <time>2018-11-18T11:06:32Z</time>
      </trkpt>
      <trkpt lat="48.44635" lon="2.69275">
        <ele>91.8</ele>
        <time>2018-11-18T11:06:33Z</time>
      </trkpt>
      <trkpt lat="48.44639" lon="2.69274">
        <ele>91.8</ele>
        <time>2018-11-18T11:06:34Z</time>
      </trkpt>
      <trkpt lat="48.44642" lon="2.69272">
        <ele>91.9</ele>
        <time>2018-11-18T11:06:35Z</time>
      </trkpt>
      <trkpt lat="48.44646" lon="2.69271">
        <ele>91.9</ele>
        <time>2018-11-18T11:06:36Z</time>
      </trkpt>
      <trkpt lat="48.44649" lon="2.6927">
        <ele>92</ele>
        <time>2018-11-18T11:06:37Z</time>
      </trkpt>
      <trkpt lat="48.44653" lon="2.69269">
        <ele>92</ele>
        <time>2018-11-18T11:06:38Z</time>
      </trkpt>
      <trkpt lat="48.44657" lon="2.69267">
        <ele>92</ele>
        <time>2018-11-18T11:06:39Z</time>
      </trkpt>
      <trkpt lat="48.44662" lon="2.69266">
        <ele>92</ele>
        <time>2018-11-18T11:06:40Z</time>
      </trkpt>
      <trkpt lat="48.44666" lon="2.69264">
        <ele>92</ele>
        <time>2018-11-18T11:06:41Z</time>
      </trkpt>
      <trkpt lat="48.44671" lon="2.69263">
        <ele>92</ele>
        <time>2018-11-18T11:06:42Z</time>
      </trkpt>
      <trkpt lat="48.44676" lon="2.69261">
        <ele>92</ele>
        <time>2018-11-18T11:06:43Z</time>
      </trkpt>
      <trkpt lat="48.4468" lon="2.69261">
        <ele>92</ele>
        <time>2018-11-18T11:06:44Z</time>
      </trkpt>
      <trkpt lat="48.44685" lon="2.6926">
        <ele>92</ele>
        <time>2018-11-18T11:06:45Z</time>
      </trkpt>
      <trkpt lat="48.44689" lon="2.69259">
        <ele>92</ele>
        <time>2018-11-18T11:06:46Z</time>
      </trkpt>
      <trkpt lat="48.44693" lon="2.69258">
        <ele>92</ele>
        <time>2018-11-18T11:06:47Z</time>
      </trkpt>
      <trkpt lat="48.44697" lon="2.69256">
        <ele>91.9</ele>
        <time>2018-11-18T11:06:48Z</time>
      </trkpt>
      <trkpt lat="48.44702" lon="2.69255">
        <ele>91.9</ele>
        <time>2018-11-18T11:06:49Z</time>
      </trkpt>
      <trkpt lat="48.44705" lon="2.69254">
        <ele>91.9</ele>
        <time>2018-11-18T11:06:50Z</time>
      </trkpt>
      <trkpt lat="48.4471" lon="2.69253">
        <ele>91.8</ele>
        <time>2018-11-18T11:06:51Z</time>
      </trkpt>
      <trkpt lat="48.44715" lon="2.69251">
        <ele>91.8</ele>
        <time>2018-11-18T11:06:52Z</time>
      </trkpt>
      <trkpt lat="48.44719" lon="2.6925">
        <ele>91.7</ele>
        <time>2018-11-18T11:06:53Z</time>
      </trkpt>
      <trkpt lat="48.44725" lon="2.69248">
        <ele>91.5</ele>
        <time>2018-11-18T11:06:54Z</time>
      </trkpt>
      <trkpt lat="48.4473" lon="2.69247">
        <ele>91.4</ele>
        <time>2018-11-18T11:06:55Z</time>
      </trkpt>
      <trkpt lat="48.44735" lon="2.69244">
        <ele>91.3</ele>
        <time>2018-11-18T11:06:56Z</time>
      </trkpt>
      <trkpt lat="48.44741" lon="2.69243">
        <ele>91.2</ele>
        <time>2018-11-18T11:06:57Z</time>
      </trkpt>
      <trkpt lat="48.44745" lon="2.69241">
        <ele>91.1</ele>
        <time>2018-11-18T11:06:58Z</time>
      </trkpt>
      <trkpt lat="48.4475" lon="2.6924">
        <ele>91</ele>
        <time>2018-11-18T11:06:59Z</time>
      </trkpt>
      <trkpt lat="48.44755" lon="2.69238">
        <ele>91</ele>
        <time>2018-11-18T11:07:00Z</time>
      </trkpt>
      <trkpt lat="48.44761" lon="2.69237">
        <ele>90.9</ele>
        <time>2018-11-18T11:07:01Z</time>
      </trkpt>
      <trkpt lat="48.44766" lon="2.69235">
        <ele>90.9</ele>
        <time>2018-11-18T11:07:02Z</time>
      </trkpt>
      <trkpt lat="48.44771" lon="2.69234">
        <ele>90.8</ele>
        <time>2018-11-18T11:07:03Z</time>
      </trkpt>
      <trkpt lat="48.44776" lon="2.69233">
        <ele>90.8</ele>
        <time>2018-11-18T11:07:04Z</time>
      </trkpt>
      <trkpt lat="48.44781" lon="2.69231">
        <ele>90.7</ele>
        <time>2018-11-18T11:07:05Z</time>
      </trkpt>
      <trkpt lat="48.44786" lon="2.69231">
        <ele>90.7</ele>
        <time>2018-11-18T11:07:06Z</time>
      </trkpt>
      <trkpt lat="48.44791" lon="2.6923">
        <ele>90.6</ele>
        <time>2018-11-18T11:07:07Z</time>
      </trkpt>
      <trkpt lat="48.44796" lon="2.6923">
        <ele>90.6</ele>
        <time>2018-11-18T11:07:08Z</time>
      </trkpt>
      <trkpt lat="48.44801" lon="2.69231">
        <ele>90.4</ele>
        <time>2018-11-18T11:07:09Z</time>
      </trkpt>
      <trkpt lat="48.44805" lon="2.69232">
        <ele>90.1</ele>
        <time>2018-11-18T11:07:10Z</time>
      </trkpt>
      <trkpt lat="48.4481" lon="2.69233">
        <ele>89.8</ele>
        <time>2018-11-18T11:07:11Z</time>
      </trkpt>
      <trkpt lat="48.44814" lon="2.69234">
        <ele>89.6</ele>
        <time>2018-11-18T11:07:12Z</time>
      </trkpt>
      <trkpt lat="48.44818" lon="2.69237">
        <ele>89.3</ele>
        <time>2018-11-18T11:07:13Z</time>
      </trkpt>
      <trkpt lat="48.44823" lon="2.6924">
        <ele>89.1</ele>
        <time>2018-11-18T11:07:14Z</time>
      </trkpt>
      <trkpt lat="48.44827" lon="2.69242">
        <ele>88.8</ele>
        <time>2018-11-18T11:07:15Z</time>
      </trkpt>
      <trkpt lat="48.44831" lon="2.69245">
        <ele>88.6</ele>
        <time>2018-11-18T11:07:16Z</time>
      </trkpt>
      <trkpt lat="48.44836" lon="2.69248">
        <ele>88.3</ele>
        <time>2018-11-18T11:07:17Z</time>
      </trkpt>
      <trkpt lat="48.44841" lon="2.6925">
        <ele>88</ele>
        <time>2018-11-18T11:07:18Z</time>
      </trkpt>
      <trkpt lat="48.44845" lon="2.69253">
        <ele>87.8</ele>
        <time>2018-11-18T11:07:19Z</time>
      </trkpt>
      <trkpt lat="48.4485" lon="2.69255">
        <ele>87.5</ele>
        <time>2018-11-18T11:07:20Z</time>
      </trkpt>
      <trkpt lat="48.44854" lon="2.69258">
        <ele>87.4</ele>
        <time>2018-11-18T11:07:21Z</time>
      </trkpt>
      <trkpt lat="48.44859" lon="2.69261">
        <ele>87.2</ele>
        <time>2018-11-18T11:07:22Z</time>
      </trkpt>
      <trkpt lat="48.44864" lon="2.69264">
        <ele>87.1</ele>
        <time>2018-11-18T11:07:23Z</time>
      </trkpt>
      <trkpt lat="48.44869" lon="2.69266">
        <ele>87</ele>
        <time>2018-11-18T11:07:24Z</time>
      </trkpt>
      <trkpt lat="48.44874" lon="2.69268">
        <ele>86.9</ele>
        <time>2018-11-18T11:07:25Z</time>
      </trkpt>
      <trkpt lat="48.44878" lon="2.6927">
        <ele>86.8</ele>
        <time>2018-11-18T11:07:26Z</time>
      </trkpt>
      <trkpt lat="48.44883" lon="2.69271">
        <ele>86.6</ele>
        <time>2018-11-18T11:07:27Z</time>
      </trkpt>
      <trkpt lat="48.44888" lon="2.69273">
        <ele>86.4</ele>
        <time>2018-11-18T11:07:28Z</time>
      </trkpt>
      <trkpt lat="48.44892" lon="2.69273">
        <ele>86.2</ele>
        <time>2018-11-18T11:07:29Z</time>
      </trkpt>
      <trkpt lat="48.44896" lon="2.69274">
        <ele>86.1</ele>
        <time>2018-11-18T11:07:30Z</time>
      </trkpt>
      <trkpt lat="48.449" lon="2.69274">
        <ele>86</ele>
        <time>2018-11-18T11:07:31Z</time>
      </trkpt>
      <trkpt lat="48.44904" lon="2.69274">
        <ele>85.8</ele>
        <time>2018-11-18T11:07:32Z</time>
      </trkpt>
      <trkpt lat="48.44909" lon="2.69275">
        <ele>85.7</ele>
        <time>2018-11-18T11:07:33Z</time>
      </trkpt>
      <trkpt lat="48.44913" lon="2.69275">
        <ele>85.6</ele>
        <time>2018-11-18T11:07:34Z</time>
      </trkpt>
      <trkpt lat="48.44917" lon="2.69276">
        <ele>85.4</ele>
        <time>2018-11-18T11:07:35Z</time>
      </trkpt>
      <trkpt lat="48.44921" lon="2.69276">
        <ele>85.3</ele>
        <time>2018-11-18T11:07:36Z</time>
      </trkpt>
      <trkpt lat="48.44926" lon="2.69276">
        <ele>85.1</ele>
        <time>2018-11-18T11:07:37Z</time>
      </trkpt>
      <trkpt lat="48.4493" lon="2.69276">
        <ele>84.9</ele>
        <time>2018-11-18T11:07:38Z</time>
      </trkpt>
      <trkpt lat="48.44933" lon="2.69277">
        <ele>84.8</ele>
        <time>2018-11-18T11:07:39Z</time>
      </trkpt>
      <trkpt lat="48.44937" lon="2.69278">
        <ele>84.7</ele>
        <time>2018-11-18T11:07:40Z</time>
      </trkpt>
      <trkpt lat="48.4494" lon="2.69278">
        <ele>84.6</ele>
        <time>2018-11-18T11:07:41Z</time>
      </trkpt>
      <trkpt lat="48.44944" lon="2.69278">
        <ele>84.6</ele>
        <time>2018-11-18T11:07:42Z</time>
      </trkpt>
      <trkpt lat="48.44947" lon="2.69279">
        <ele>84.5</ele>
        <time>2018-11-18T11:07:43Z</time>
      </trkpt>
      <trkpt lat="48.44951" lon="2.69278">
        <ele>84.5</ele>
        <time>2018-11-18T11:07:44Z</time>
      </trkpt>
      <trkpt lat="48.44953" lon="2.69276">
        <ele>84.8</ele>
        <time>2018-11-18T11:07:45Z</time>
      </trkpt>
      <trkpt lat="48.44954" lon="2.69273">
        <ele>85.2</ele>
        <time>2018-11-18T11:07:46Z</time>
      </trkpt>
      <trkpt lat="48.44955" lon="2.6927">
        <ele>85.6</ele>
        <time>2018-11-18T11:07:47Z</time>
      </trkpt>
      <trkpt lat="48.44956" lon="2.69267">
        <ele>86</ele>
        <time>2018-11-18T11:07:48Z</time>
      </trkpt>
      <trkpt lat="48.44957" lon="2.69264">
        <ele>86.4</ele>
        <time>2018-11-18T11:07:49Z</time>
      </trkpt>
      <trkpt lat="48.44959" lon="2.6926">
        <ele>86.8</ele>
        <time>2018-11-18T11:07:50Z</time>
      </trkpt>
      <trkpt lat="48.4496" lon="2.69257">
        <ele>87.3</ele>
        <time>2018-11-18T11:07:51Z</time>
      </trkpt>
      <trkpt lat="48.44961" lon="2.69253">
        <ele>87.8</ele>
        <time>2018-11-18T11:07:52Z</time>
      </trkpt>
      <trkpt lat="48.44963" lon="2.69249">
        <ele>88.4</ele>
        <time>2018-11-18T11:07:53Z</time>
      </trkpt>
      <trkpt lat="48.44965" lon="2.69244">
        <ele>89</ele>
        <time>2018-11-18T11:07:54Z</time>
      </trkpt>
      <trkpt lat="48.44968" lon="2.69241">
        <ele>89.6</ele>
        <time>2018-11-18T11:07:55Z</time>
      </trkpt>
      <trkpt lat="48.4497" lon="2.69237">
        <ele>90.8</ele>
        <time>2018-11-18T11:07:56Z</time>
      </trkpt>
      <trkpt lat="48.44973" lon="2.69232">
        <ele>91.2</ele>
        <time>2018-11-18T11:07:57Z</time>
      </trkpt>
      <trkpt lat="48.44975" lon="2.69228">
        <ele>91.4</ele>
        <time>2018-11-18T11:07:58Z</time>
      </trkpt>
      <trkpt lat="48.44978" lon="2.69225">
        <ele>91.6</ele>
        <time>2018-11-18T11:07:59Z</time>
      </trkpt>
      <trkpt lat="48.4498" lon="2.69222">
        <ele>91.7</ele>
        <time>2018-11-18T11:08:00Z</time>
      </trkpt>
      <trkpt lat="48.44981" lon="2.69218">
        <ele>91.9</ele>
        <time>2018-11-18T11:08:01Z</time>
      </trkpt>
      <trkpt lat="48.44984" lon="2.69214">
        <ele>92.1</ele>
        <time>2018-11-18T11:08:02Z</time>
      </trkpt>
      <trkpt lat="48.44988" lon="2.69211">
        <ele>92.4</ele>
        <time>2018-11-18T11:08:03Z</time>
      </trkpt>
      <trkpt lat="48.44992" lon="2.69209">
        <ele>92.6</ele>
        <time>2018-11-18T11:08:04Z</time>
      </trkpt>
      <trkpt lat="48.44995" lon="2.69208">
        <ele>92.8</ele>
        <time>2018-11-18T11:08:05Z</time>
      </trkpt>
      <trkpt lat="48.44999" lon="2.69206">
        <ele>93</ele>
        <time>2018-11-18T11:08:06Z</time>
      </trkpt>
      <trkpt lat="48.45001" lon="2.69203">
        <ele>93.3</ele>
        <time>2018-11-18T11:08:07Z</time>
      </trkpt>
      <trkpt lat="48.45004" lon="2.69199">
        <ele>93.5</ele>
        <time>2018-11-18T11:08:08Z</time>
      </trkpt>
      <trkpt lat="48.45007" lon="2.69195">
        <ele>93.6</ele>
        <time>2018-11-18T11:08:09Z</time>
      </trkpt>
      <trkpt lat="48.45011" lon="2.69192">
        <ele>93.8</ele>
        <time>2018-11-18T11:08:10Z</time>
      </trkpt>
      <trkpt lat="48.45015" lon="2.6919">
        <ele>94</ele>
        <time>2018-11-18T11:08:11Z</time>
      </trkpt>
      <trkpt lat="48.45018" lon="2.69188">
        <ele>94.2</ele>
        <time>2018-11-18T11:08:12Z</time>
      </trkpt>
      <trkpt lat="48.45021" lon="2.69186">
        <ele>94.3</ele>
        <time>2018-11-18T11:08:13Z</time>
      </trkpt>
      <trkpt lat="48.45024" lon="2.69186">
        <ele>94.5</ele>
        <time>2018-11-18T11:08:14Z</time>
      </trkpt>
      <trkpt lat="48.45027" lon="2.69184">
        <ele>94.7</ele>
        <time>2018-11-18T11:08:15Z</time>
      </trkpt>
      <trkpt lat="48.4503" lon="2.69181">
        <ele>94.9</ele>
        <time>2018-11-18T11:08:16Z</time>
      </trkpt>
      <trkpt lat="48.45034" lon="2.69179">
        <ele>95.1</ele>
        <time>2018-11-18T11:08:17Z</time>
      </trkpt>
      <trkpt lat="48.45037" lon="2.69177">
        <ele>95.3</ele>
        <time>2018-11-18T11:08:18Z</time>
      </trkpt>
      <trkpt lat="48.4504" lon="2.69175">
        <ele>95.5</ele>
        <time>2018-11-18T11:08:19Z</time>
      </trkpt>
      <trkpt lat="48.45043" lon="2.69173">
        <ele>95.7</ele>
        <time>2018-11-18T11:08:20Z</time>
      </trkpt>
      <trkpt lat="48.45047" lon="2.69171">
        <ele>96</ele>
        <time>2018-11-18T11:08:21Z</time>
      </trkpt>
      <trkpt lat="48.4505" lon="2.69168">
        <ele>96.2</ele>
        <time>2018-11-18T11:08:22Z</time>
      </trkpt>
      <trkpt lat="48.45053" lon="2.69165">
        <ele>96.4</ele>
        <time>2018-11-18T11:08:23Z</time>
      </trkpt>
      <trkpt lat="48.45057" lon="2.69163">
        <ele>96.6</ele>
        <time>2018-11-18T11:08:24Z</time>
      </trkpt>
      <trkpt lat="48.45061" lon="2.69161">
        <ele>96.8</ele>
        <time>2018-11-18T11:08:25Z</time>
      </trkpt>
      <trkpt lat="48.45065" lon="2.6916">
        <ele>97</ele>
        <time>2018-11-18T11:08:26Z</time>
      </trkpt>
      <trkpt lat="48.45069" lon="2.6916">
        <ele>97.1</ele>
        <time>2018-11-18T11:08:27Z</time>
      </trkpt>
      <trkpt lat="48.45073" lon="2.69159">
        <ele>97.3</ele>
        <time>2018-11-18T11:08:28Z</time>
      </trkpt>
      <trkpt lat="48.45077" lon="2.69158">
        <ele>97.5</ele>
        <time>2018-11-18T11:08:29Z</time>
      </trkpt>
      <trkpt lat="48.45081" lon="2.69156">
        <ele>97.7</ele>
        <time>2018-11-18T11:08:30Z</time>
      </trkpt>
      <trkpt lat="48.45086" lon="2.69153">
        <ele>97.9</ele>
        <time>2018-11-18T11:08:31Z</time>
      </trkpt>
      <trkpt lat="48.45089" lon="2.69149">
        <ele>98.2</ele>
        <time>2018-11-18T11:08:32Z</time>
      </trkpt>
      <trkpt lat="48.45093" lon="2.69145">
        <ele>98.4</ele>
        <time>2018-11-18T11:08:33Z</time>
      </trkpt>
      <trkpt lat="48.45096" lon="2.6914">
        <ele>98.7</ele>
        <time>2018-11-18T11:08:34Z</time>
      </trkpt>
      <trkpt lat="48.45098" lon="2.69135">
        <ele>98.9</ele>
        <time>2018-11-18T11:08:35Z</time>
      </trkpt>
      <trkpt lat="48.451" lon="2.6913">
        <ele>99.1</ele>
        <time>2018-11-18T11:08:36Z</time>
      </trkpt>
      <trkpt lat="48.45103" lon="2.69126">
        <ele>99.2</ele>
        <time>2018-11-18T11:08:37Z</time>
      </trkpt>
      <trkpt lat="48.45105" lon="2.69123">
        <ele>99.4</ele>
        <time>2018-11-18T11:08:38Z</time>
      </trkpt>
      <trkpt lat="48.45106" lon="2.6912">
        <ele>99.5</ele>
        <time>2018-11-18T11:08:39Z</time>
      </trkpt>
      <trkpt lat="48.45107" lon="2.69118">
        <ele>99.6</ele>
        <time>2018-11-18T11:08:40Z</time>
      </trkpt>
      <trkpt lat="48.45108" lon="2.69117">
        <ele>99.6</ele>
        <time>2018-11-18T11:08:41Z</time>
      </trkpt>
      <trkpt lat="48.45108" lon="2.69116">
        <ele>99.7</ele>
        <time>2018-11-18T11:08:42Z</time>
      </trkpt>
      <trkpt lat="48.45108" lon="2.69116">
        <ele>99.7</ele>
        <time>2018-11-18T11:08:43Z</time>
      </trkpt>
      <trkpt lat="48.45107" lon="2.69116">
        <ele>99.7</ele>
        <time>2018-11-18T11:08:44Z</time>
      </trkpt>
      <trkpt lat="48.45106" lon="2.69115">
        <ele>99.8</ele>
        <time>2018-11-18T11:08:45Z</time>
      </trkpt>
      <trkpt lat="48.45104" lon="2.69107">
        <ele>100</ele>
        <time>2018-11-18T11:08:49Z</time>
      </trkpt>
      <trkpt lat="48.45105" lon="2.69104">
        <ele>100.1</ele>
        <time>2018-11-18T11:08:50Z</time>
      </trkpt>
      <trkpt lat="48.45105" lon="2.691">
        <ele>100.2</ele>
        <time>2018-11-18T11:08:51Z</time>
      </trkpt>
      <trkpt lat="48.45105" lon="2.69096">
        <ele>100.4</ele>
        <time>2018-11-18T11:08:52Z</time>
      </trkpt>
      <trkpt lat="48.45106" lon="2.69091">
        <ele>100.5</ele>
        <time>2018-11-18T11:08:53Z</time>
      </trkpt>
      <trkpt lat="48.45105" lon="2.69086">
        <ele>100.7</ele>
        <time>2018-11-18T11:08:54Z</time>
      </trkpt>
      <trkpt lat="48.45105" lon="2.69081">
        <ele>100.8</ele>
        <time>2018-11-18T11:08:55Z</time>
      </trkpt>
      <trkpt lat="48.45104" lon="2.69078">
        <ele>100.9</ele>
        <time>2018-11-18T11:08:56Z</time>
      </trkpt>
      <trkpt lat="48.45104" lon="2.69075">
        <ele>101</ele>
        <time>2018-11-18T11:08:57Z</time>
      </trkpt>
      <trkpt lat="48.45105" lon="2.69073">
        <ele>101.1</ele>
        <time>2018-11-18T11:08:58Z</time>
      </trkpt>
      <trkpt lat="48.45105" lon="2.69071">
        <ele>101.1</ele>
        <time>2018-11-18T11:08:59Z</time>
      </trkpt>
      <trkpt lat="48.45106" lon="2.6907">
        <ele>101.3</ele>
        <time>2018-11-18T11:09:00Z</time>
      </trkpt>
      <trkpt lat="48.45111" lon="2.69061">
        <ele>101.7</ele>
        <time>2018-11-18T11:09:04Z</time>
      </trkpt>
      <trkpt lat="48.45113" lon="2.6906">
        <ele>101.8</ele>
        <time>2018-11-18T11:09:05Z</time>
      </trkpt>
      <trkpt lat="48.45115" lon="2.69058">
        <ele>102</ele>
        <time>2018-11-18T11:09:06Z</time>
      </trkpt>
      <trkpt lat="48.45117" lon="2.69056">
        <ele>102.1</ele>
        <time>2018-11-18T11:09:07Z</time>
      </trkpt>
      <trkpt lat="48.45119" lon="2.69054">
        <ele>102.2</ele>
        <time>2018-11-18T11:09:08Z</time>
      </trkpt>
      <trkpt lat="48.4512" lon="2.69052">
        <ele>102.3</ele>
        <time>2018-11-18T11:09:09Z</time>
      </trkpt>
      <trkpt lat="48.45121" lon="2.69049">
        <ele>102.4</ele>
        <time>2018-11-18T11:09:10Z</time>
      </trkpt>
      <trkpt lat="48.45122" lon="2.69046">
        <ele>102.5</ele>
        <time>2018-11-18T11:09:11Z</time>
      </trkpt>
      <trkpt lat="48.45123" lon="2.69044">
        <ele>102.5</ele>
        <time>2018-11-18T11:09:12Z</time>
      </trkpt>
      <trkpt lat="48.45124" lon="2.69041">
        <ele>102.6</ele>
        <time>2018-11-18T11:09:13Z</time>
      </trkpt>
      <trkpt lat="48.45126" lon="2.69039">
        <ele>102.8</ele>
        <time>2018-11-18T11:09:14Z</time>
      </trkpt>
      <trkpt lat="48.45128" lon="2.69035">
        <ele>102.9</ele>
        <time>2018-11-18T11:09:15Z</time>
      </trkpt>
      <trkpt lat="48.45129" lon="2.69032">
        <ele>103</ele>
        <time>2018-11-18T11:09:16Z</time>
      </trkpt>
      <trkpt lat="48.45131" lon="2.69029">
        <ele>103.1</ele>
        <time>2018-11-18T11:09:17Z</time>
      </trkpt>
      <trkpt lat="48.45132" lon="2.69026">
        <ele>103.2</ele>
        <time>2018-11-18T11:09:18Z</time>
      </trkpt>
      <trkpt lat="48.45134" lon="2.69024">
        <ele>103.3</ele>
        <time>2018-11-18T11:09:19Z</time>
      </trkpt>
      <trkpt lat="48.45135" lon="2.69022">
        <ele>103.4</ele>
        <time>2018-11-18T11:09:20Z</time>
      </trkpt>
      <trkpt lat="48.45136" lon="2.6902">
        <ele>103.5</ele>
        <time>2018-11-18T11:09:21Z</time>
      </trkpt>
      <trkpt lat="48.45137" lon="2.69018">
        <ele>103.6</ele>
        <time>2018-11-18T11:09:22Z</time>
      </trkpt>
      <trkpt lat="48.45138" lon="2.69016">
        <ele>103.6</ele>
        <time>2018-11-18T11:09:23Z</time>
      </trkpt>
      <trkpt lat="48.45139" lon="2.69014">
        <ele>103.7</ele>
        <time>2018-11-18T11:09:24Z</time>
      </trkpt>
      <trkpt lat="48.4514" lon="2.69012">
        <ele>103.8</ele>
        <time>2018-11-18T11:09:25Z</time>
      </trkpt>
      <trkpt lat="48.45141" lon="2.6901">
        <ele>103.9</ele>
        <time>2018-11-18T11:09:26Z</time>
      </trkpt>
      <trkpt lat="48.45142" lon="2.69008">
        <ele>104</ele>
        <time>2018-11-18T11:09:27Z</time>
      </trkpt>
      <trkpt lat="48.45144" lon="2.69006">
        <ele>104.1</ele>
        <time>2018-11-18T11:09:28Z</time>
      </trkpt>
      <trkpt lat="48.45146" lon="2.69004">
        <ele>104.3</ele>
        <time>2018-11-18T11:09:29Z</time>
      </trkpt>
      <trkpt lat="48.45148" lon="2.69002">
        <ele>104.4</ele>
        <time>2018-11-18T11:09:30Z</time>
      </trkpt>
      <trkpt lat="48.45149" lon="2.68999">
        <ele>104.5</ele>
        <time>2018-11-18T11:09:31Z</time>
      </trkpt>
      <trkpt lat="48.45151" lon="2.68997">
        <ele>104.6</ele>
        <time>2018-11-18T11:09:32Z</time>
      </trkpt>
      <trkpt lat="48.45152" lon="2.68995">
        <ele>104.8</ele>
        <time>2018-11-18T11:09:33Z</time>
      </trkpt>
      <trkpt lat="48.45154" lon="2.68993">
        <ele>104.9</ele>
        <time>2018-11-18T11:09:34Z</time>
      </trkpt>
      <trkpt lat="48.45155" lon="2.68991">
        <ele>105</ele>
        <time>2018-11-18T11:09:35Z</time>
      </trkpt>
      <trkpt lat="48.45156" lon="2.68989">
        <ele>105.1</ele>
        <time>2018-11-18T11:09:36Z</time>
      </trkpt>
      <trkpt lat="48.45158" lon="2.68987">
        <ele>105.2</ele>
        <time>2018-11-18T11:09:37Z</time>
      </trkpt>
      <trkpt lat="48.45159" lon="2.68986">
        <ele>105.3</ele>
        <time>2018-11-18T11:09:38Z</time>
      </trkpt>
      <trkpt lat="48.45161" lon="2.68985">
        <ele>105.4</ele>
        <time>2018-11-18T11:09:39Z</time>
      </trkpt>
      <trkpt lat="48.45163" lon="2.68983">
        <ele>105.5</ele>
        <time>2018-11-18T11:09:40Z</time>
      </trkpt>
      <trkpt lat="48.45164" lon="2.68981">
        <ele>105.6</ele>
        <time>2018-11-18T11:09:41Z</time>
      </trkpt>
      <trkpt lat="48.45165" lon="2.6898">
        <ele>105.7</ele>
        <time>2018-11-18T11:09:42Z</time>
      </trkpt>
      <trkpt lat="48.45166" lon="2.68978">
        <ele>105.8</ele>
        <time>2018-11-18T11:09:43Z</time>
      </trkpt>
      <trkpt lat="48.45168" lon="2.68976">
        <ele>105.9</ele>
        <time>2018-11-18T11:09:44Z</time>
      </trkpt>
      <trkpt lat="48.45169" lon="2.68974">
        <ele>105.9</ele>
        <time>2018-11-18T11:09:45Z</time>
      </trkpt>
      <trkpt lat="48.45175" lon="2.68966">
        <ele>106.3</ele>
        <time>2018-11-18T11:09:50Z</time>
      </trkpt>
      <trkpt lat="48.45176" lon="2.68964">
        <ele>106.4</ele>
        <time>2018-11-18T11:09:51Z</time>
      </trkpt>
      <trkpt lat="48.45177" lon="2.68962">
        <ele>106.5</ele>
        <time>2018-11-18T11:09:52Z</time>
      </trkpt>
      <trkpt lat="48.45178" lon="2.68961">
        <ele>106.6</ele>
        <time>2018-11-18T11:09:53Z</time>
      </trkpt>
      <trkpt lat="48.45179" lon="2.68959">
        <ele>106.8</ele>
        <time>2018-11-18T11:09:54Z</time>
      </trkpt>
      <trkpt lat="48.45179" lon="2.68959">
        <ele>106.8</ele>
        <time>2018-11-18T11:09:55Z</time>
      </trkpt>
      <trkpt lat="48.45179" lon="2.68959">
        <ele>106.8</ele>
        <time>2018-11-18T11:09:56Z</time>
      </trkpt>
      <trkpt lat="48.45179" lon="2.68959">
        <ele>106.8</ele>
        <time>2018-11-18T11:09:57Z</time>
      </trkpt>
      <trkpt lat="48.45181" lon="2.68956">
        <ele>107</ele>
        <time>2018-11-18T11:09:58Z</time>
      </trkpt>
      <trkpt lat="48.45183" lon="2.68953">
        <ele>107.2</ele>
        <time>2018-11-18T11:09:59Z</time>
      </trkpt>
      <trkpt lat="48.45184" lon="2.68951">
        <ele>107.3</ele>
        <time>2018-11-18T11:10:00Z</time>
      </trkpt>
      <trkpt lat="48.45185" lon="2.6895">
        <ele>107.4</ele>
        <time>2018-11-18T11:10:01Z</time>
      </trkpt>
      <trkpt lat="48.45185" lon="2.68949">
        <ele>107.4</ele>
        <time>2018-11-18T11:10:02Z</time>
      </trkpt>
      <trkpt lat="48.45185" lon="2.68949">
        <ele>107.4</ele>
        <time>2018-11-18T11:10:03Z</time>
      </trkpt>
      <trkpt lat="48.45185" lon="2.68949">
        <ele>107.4</ele>
        <time>2018-11-18T11:10:04Z</time>
      </trkpt>
      <trkpt lat="48.45185" lon="2.68949">
        <ele>107.4</ele>
        <time>2018-11-18T11:10:05Z</time>
      </trkpt>
      <trkpt lat="48.45185" lon="2.68949">
        <ele>107.4</ele>
        <time>2018-11-18T11:10:06Z</time>
      </trkpt>
      <trkpt lat="48.45188" lon="2.68938">
        <ele>107.9</ele>
        <time>2018-11-18T11:10:11Z</time>
      </trkpt>
      <trkpt lat="48.4519" lon="2.68934">
        <ele>108.1</ele>
        <time>2018-11-18T11:10:12Z</time>
      </trkpt>
      <trkpt lat="48.45191" lon="2.68932">
        <ele>108.2</ele>
        <time>2018-11-18T11:10:13Z</time>
      </trkpt>
      <trkpt lat="48.45192" lon="2.68931">
        <ele>108.3</ele>
        <time>2018-11-18T11:10:14Z</time>
      </trkpt>
      <trkpt lat="48.45193" lon="2.6893">
        <ele>108.4</ele>
        <time>2018-11-18T11:10:15Z</time>
      </trkpt>
      <trkpt lat="48.45194" lon="2.68928">
        <ele>108.5</ele>
        <time>2018-11-18T11:10:16Z</time>
      </trkpt>
      <trkpt lat="48.45196" lon="2.68927">
        <ele>108.6</ele>
        <time>2018-11-18T11:10:17Z</time>
      </trkpt>
      <trkpt lat="48.45197" lon="2.68926">
        <ele>108.6</ele>
        <time>2018-11-18T11:10:18Z</time>
      </trkpt>
      <trkpt lat="48.45198" lon="2.68924">
        <ele>108.7</ele>
        <time>2018-11-18T11:10:19Z</time>
      </trkpt>
      <trkpt lat="48.45198" lon="2.68923">
        <ele>108.8</ele>
        <time>2018-11-18T11:10:20Z</time>
      </trkpt>
      <trkpt lat="48.45199" lon="2.68923">
        <ele>108.8</ele>
        <time>2018-11-18T11:10:21Z</time>
      </trkpt>
      <trkpt lat="48.45199" lon="2.68922">
        <ele>108.8</ele>
        <time>2018-11-18T11:10:22Z</time>
      </trkpt>
      <trkpt lat="48.45199" lon="2.68922">
        <ele>108.8</ele>
        <time>2018-11-18T11:10:23Z</time>
      </trkpt>
      <trkpt lat="48.45199" lon="2.68922">
        <ele>108.8</ele>
        <time>2018-11-18T11:10:24Z</time>
      </trkpt>
      <trkpt lat="48.45211" lon="2.6892">
        <ele>109.4</ele>
        <time>2018-11-18T11:15:24Z</time>
      </trkpt>
      <trkpt lat="48.45215" lon="2.6892">
        <ele>109.3</ele>
        <time>2018-11-18T11:15:25Z</time>
      </trkpt>
      <trkpt lat="48.4522" lon="2.68922">
        <ele>109</ele>
        <time>2018-11-18T11:15:26Z</time>
      </trkpt>
      <trkpt lat="48.45226" lon="2.68923">
        <ele>108.8</ele>
        <time>2018-11-18T11:15:27Z</time>
      </trkpt>
      <trkpt lat="48.45231" lon="2.68925">
        <ele>108.6</ele>
        <time>2018-11-18T11:15:28Z</time>
      </trkpt>
      <trkpt lat="48.45235" lon="2.68927">
        <ele>108.4</ele>
        <time>2018-11-18T11:15:29Z</time>
      </trkpt>
      <trkpt lat="48.4524" lon="2.68931">
        <ele>108.2</ele>
        <time>2018-11-18T11:15:30Z</time>
      </trkpt>
      <trkpt lat="48.45244" lon="2.68934">
        <ele>108</ele>
        <time>2018-11-18T11:15:31Z</time>
      </trkpt>
      <trkpt lat="48.45249" lon="2.68937">
        <ele>107.8</ele>
        <time>2018-11-18T11:15:32Z</time>
      </trkpt>
      <trkpt lat="48.45255" lon="2.68941">
        <ele>107.3</ele>
        <time>2018-11-18T11:15:33Z</time>
      </trkpt>
      <trkpt lat="48.4526" lon="2.68945">
        <ele>107</ele>
        <time>2018-11-18T11:15:34Z</time>
      </trkpt>
      <trkpt lat="48.45265" lon="2.68949">
        <ele>106.8</ele>
        <time>2018-11-18T11:15:35Z</time>
      </trkpt>
      <trkpt lat="48.4527" lon="2.68954">
        <ele>106.6</ele>
        <time>2018-11-18T11:15:36Z</time>
      </trkpt>
      <trkpt lat="48.45274" lon="2.68959">
        <ele>106.4</ele>
        <time>2018-11-18T11:15:37Z</time>
      </trkpt>
      <trkpt lat="48.45277" lon="2.68962">
        <ele>106.2</ele>
        <time>2018-11-18T11:15:38Z</time>
      </trkpt>
      <trkpt lat="48.4528" lon="2.68966">
        <ele>106.1</ele>
        <time>2018-11-18T11:15:39Z</time>
      </trkpt>
      <trkpt lat="48.45283" lon="2.68968">
        <ele>105.9</ele>
        <time>2018-11-18T11:15:40Z</time>
      </trkpt>
      <trkpt lat="48.45284" lon="2.6897">
        <ele>105.9</ele>
        <time>2018-11-18T11:15:41Z</time>
      </trkpt>
      <trkpt lat="48.45286" lon="2.68972">
        <ele>105.8</ele>
        <time>2018-11-18T11:15:42Z</time>
      </trkpt>
      <trkpt lat="48.4529" lon="2.68976">
        <ele>105.6</ele>
        <time>2018-11-18T11:15:43Z</time>
      </trkpt>
      <trkpt lat="48.45293" lon="2.68978">
        <ele>105.5</ele>
        <time>2018-11-18T11:15:44Z</time>
      </trkpt>
      <trkpt lat="48.45296" lon="2.68981">
        <ele>105.4</ele>
        <time>2018-11-18T11:15:45Z</time>
      </trkpt>
      <trkpt lat="48.45299" lon="2.68985">
        <ele>105.3</ele>
        <time>2018-11-18T11:15:46Z</time>
      </trkpt>
      <trkpt lat="48.45301" lon="2.68989">
        <ele>105.3</ele>
        <time>2018-11-18T11:15:47Z</time>
      </trkpt>
      <trkpt lat="48.45303" lon="2.68993">
        <ele>105.2</ele>
        <time>2018-11-18T11:15:48Z</time>
      </trkpt>
      <trkpt lat="48.45306" lon="2.68996">
        <ele>105.1</ele>
        <time>2018-11-18T11:15:49Z</time>
      </trkpt>
      <trkpt lat="48.45309" lon="2.68998">
        <ele>105</ele>
        <time>2018-11-18T11:15:50Z</time>
      </trkpt>
      <trkpt lat="48.45313" lon="2.69001">
        <ele>104.9</ele>
        <time>2018-11-18T11:15:51Z</time>
      </trkpt>
      <trkpt lat="48.45317" lon="2.69002">
        <ele>104.8</ele>
        <time>2018-11-18T11:15:52Z</time>
      </trkpt>
      <trkpt lat="48.45322" lon="2.69003">
        <ele>104.8</ele>
        <time>2018-11-18T11:15:53Z</time>
      </trkpt>
      <trkpt lat="48.45327" lon="2.69004">
        <ele>104.7</ele>
        <time>2018-11-18T11:15:54Z</time>
      </trkpt>
      <trkpt lat="48.45331" lon="2.69005">
        <ele>104.7</ele>
        <time>2018-11-18T11:15:55Z</time>
      </trkpt>
      <trkpt lat="48.45336" lon="2.69008">
        <ele>104.6</ele>
        <time>2018-11-18T11:15:56Z</time>
      </trkpt>
      <trkpt lat="48.4534" lon="2.6901">
        <ele>104.5</ele>
        <time>2018-11-18T11:15:57Z</time>
      </trkpt>
      <trkpt lat="48.45343" lon="2.69012">
        <ele>104.5</ele>
        <time>2018-11-18T11:15:58Z</time>
      </trkpt>
      <trkpt lat="48.45346" lon="2.69014">
        <ele>104.5</ele>
        <time>2018-11-18T11:15:59Z</time>
      </trkpt>
      <trkpt lat="48.45349" lon="2.69016">
        <ele>104.4</ele>
        <time>2018-11-18T11:16:00Z</time>
      </trkpt>
      <trkpt lat="48.45351" lon="2.69017">
        <ele>104.4</ele>
        <time>2018-11-18T11:16:01Z</time>
      </trkpt>
      <trkpt lat="48.45353" lon="2.69019">
        <ele>104.3</ele>
        <time>2018-11-18T11:16:02Z</time>
      </trkpt>
      <trkpt lat="48.45355" lon="2.69021">
        <ele>104.3</ele>
        <time>2018-11-18T11:16:03Z</time>
      </trkpt>
      <trkpt lat="48.45358" lon="2.69023">
        <ele>104.2</ele>
        <time>2018-11-18T11:16:04Z</time>
      </trkpt>
      <trkpt lat="48.4536" lon="2.69024">
        <ele>104.2</ele>
        <time>2018-11-18T11:16:05Z</time>
      </trkpt>
      <trkpt lat="48.45362" lon="2.69025">
        <ele>104.1</ele>
        <time>2018-11-18T11:16:06Z</time>
      </trkpt>
      <trkpt lat="48.45364" lon="2.69026">
        <ele>104.1</ele>
        <time>2018-11-18T11:16:07Z</time>
      </trkpt>
      <trkpt lat="48.45365" lon="2.69027">
        <ele>104</ele>
        <time>2018-11-18T11:16:08Z</time>
      </trkpt>
      <trkpt lat="48.45367" lon="2.69029">
        <ele>104</ele>
        <time>2018-11-18T11:16:09Z</time>
      </trkpt>
      <trkpt lat="48.45368" lon="2.69031">
        <ele>103.9</ele>
        <time>2018-11-18T11:16:10Z</time>
      </trkpt>
      <trkpt lat="48.45371" lon="2.69033">
        <ele>103.9</ele>
        <time>2018-11-18T11:16:11Z</time>
      </trkpt>
      <trkpt lat="48.45372" lon="2.69035">
        <ele>103.8</ele>
        <time>2018-11-18T11:16:12Z</time>
      </trkpt>
      <trkpt lat="48.45374" lon="2.69036">
        <ele>103.8</ele>
        <time>2018-11-18T11:16:13Z</time>
      </trkpt>
      <trkpt lat="48.45376" lon="2.69038">
        <ele>103.7</ele>
        <time>2018-11-18T11:16:14Z</time>
      </trkpt>
      <trkpt lat="48.45378" lon="2.69039">
        <ele>103.6</ele>
        <time>2018-11-18T11:16:15Z</time>
      </trkpt>
      <trkpt lat="48.45381" lon="2.69041">
        <ele>103.6</ele>
        <time>2018-11-18T11:16:16Z</time>
      </trkpt>
      <trkpt lat="48.45383" lon="2.69044">
        <ele>103.5</ele>
        <time>2018-11-18T11:16:17Z</time>
      </trkpt>
      <trkpt lat="48.45385" lon="2.69047">
        <ele>103.4</ele>
        <time>2018-11-18T11:16:18Z</time>
      </trkpt>
      <trkpt lat="48.45387" lon="2.69048">
        <ele>103.4</ele>
        <time>2018-11-18T11:16:19Z</time>
      </trkpt>
      <trkpt lat="48.4539" lon="2.69049">
        <ele>103.3</ele>
        <time>2018-11-18T11:16:20Z</time>
      </trkpt>
      <trkpt lat="48.45394" lon="2.69051">
        <ele>103.2</ele>
        <time>2018-11-18T11:16:21Z</time>
      </trkpt>
      <trkpt lat="48.45398" lon="2.69054">
        <ele>103</ele>
        <time>2018-11-18T11:16:22Z</time>
      </trkpt>
      <trkpt lat="48.45403" lon="2.69057">
        <ele>102.8</ele>
        <time>2018-11-18T11:16:23Z</time>
      </trkpt>
      <trkpt lat="48.45407" lon="2.69059">
        <ele>102.6</ele>
        <time>2018-11-18T11:16:24Z</time>
      </trkpt>
      <trkpt lat="48.4541" lon="2.69062">
        <ele>102.5</ele>
        <time>2018-11-18T11:16:25Z</time>
      </trkpt>
      <trkpt lat="48.45421" lon="2.69067">
        <ele>102.1</ele>
        <time>2018-11-18T11:16:26Z</time>
      </trkpt>
      <trkpt lat="48.45428" lon="2.69069">
        <ele>101.8</ele>
        <time>2018-11-18T11:16:27Z</time>
      </trkpt>
      <trkpt lat="48.45434" lon="2.6907">
        <ele>101.5</ele>
        <time>2018-11-18T11:16:28Z</time>
      </trkpt>
      <trkpt lat="48.45441" lon="2.69072">
        <ele>101.2</ele>
        <time>2018-11-18T11:16:29Z</time>
      </trkpt>
      <trkpt lat="48.45447" lon="2.69074">
        <ele>100.9</ele>
        <time>2018-11-18T11:16:30Z</time>
      </trkpt>
      <trkpt lat="48.45453" lon="2.69077">
        <ele>100.7</ele>
        <time>2018-11-18T11:16:31Z</time>
      </trkpt>
      <trkpt lat="48.45458" lon="2.69079">
        <ele>100.6</ele>
        <time>2018-11-18T11:16:32Z</time>
      </trkpt>
      <trkpt lat="48.45462" lon="2.69082">
        <ele>100.4</ele>
        <time>2018-11-18T11:16:33Z</time>
      </trkpt>
      <trkpt lat="48.45467" lon="2.69085">
        <ele>100.2</ele>
        <time>2018-11-18T11:16:34Z</time>
      </trkpt>
      <trkpt lat="48.45471" lon="2.69087">
        <ele>100.1</ele>
        <time>2018-11-18T11:16:35Z</time>
      </trkpt>
      <trkpt lat="48.45476" lon="2.69088">
        <ele>100</ele>
        <time>2018-11-18T11:16:36Z</time>
      </trkpt>
      <trkpt lat="48.4548" lon="2.69089">
        <ele>99.9</ele>
        <time>2018-11-18T11:16:37Z</time>
      </trkpt>
      <trkpt lat="48.45485" lon="2.69091">
        <ele>99.8</ele>
        <time>2018-11-18T11:16:38Z</time>
      </trkpt>
      <trkpt lat="48.45489" lon="2.69093">
        <ele>99.8</ele>
        <time>2018-11-18T11:16:39Z</time>
      </trkpt>
      <trkpt lat="48.45493" lon="2.69096">
        <ele>99.7</ele>
        <time>2018-11-18T11:16:40Z</time>
      </trkpt>
      <trkpt lat="48.45497" lon="2.69098">
        <ele>99.7</ele>
        <time>2018-11-18T11:16:41Z</time>
      </trkpt>
      <trkpt lat="48.45501" lon="2.691">
        <ele>99.6</ele>
        <time>2018-11-18T11:16:42Z</time>
      </trkpt>
      <trkpt lat="48.45505" lon="2.69101">
        <ele>99.6</ele>
        <time>2018-11-18T11:16:43Z</time>
      </trkpt>
      <trkpt lat="48.45509" lon="2.69103">
        <ele>99.6</ele>
        <time>2018-11-18T11:16:44Z</time>
      </trkpt>
      <trkpt lat="48.45513" lon="2.69104">
        <ele>99.6</ele>
        <time>2018-11-18T11:16:45Z</time>
      </trkpt>
      <trkpt lat="48.45516" lon="2.69106">
        <ele>99.6</ele>
        <time>2018-11-18T11:16:46Z</time>
      </trkpt>
      <trkpt lat="48.45519" lon="2.69107">
        <ele>99.6</ele>
        <time>2018-11-18T11:16:47Z</time>
      </trkpt>
      <trkpt lat="48.45523" lon="2.69109">
        <ele>99.6</ele>
        <time>2018-11-18T11:16:48Z</time>
      </trkpt>
      <trkpt lat="48.45526" lon="2.69112">
        <ele>99.6</ele>
        <time>2018-11-18T11:16:49Z</time>
      </trkpt>
      <trkpt lat="48.4553" lon="2.69114">
        <ele>99.6</ele>
        <time>2018-11-18T11:16:50Z</time>
      </trkpt>
      <trkpt lat="48.45534" lon="2.69115">
        <ele>99.4</ele>
        <time>2018-11-18T11:16:51Z</time>
      </trkpt>
      <trkpt lat="48.45538" lon="2.69114">
        <ele>99.3</ele>
        <time>2018-11-18T11:16:52Z</time>
      </trkpt>
      <trkpt lat="48.45541" lon="2.69112">
        <ele>99.2</ele>
        <time>2018-11-18T11:16:53Z</time>
      </trkpt>
      <trkpt lat="48.45544" lon="2.6911">
        <ele>99.2</ele>
        <time>2018-11-18T11:16:54Z</time>
      </trkpt>
      <trkpt lat="48.45547" lon="2.69109">
        <ele>99.2</ele>
        <time>2018-11-18T11:16:55Z</time>
      </trkpt>
      <trkpt lat="48.45549" lon="2.69108">
        <ele>99.3</ele>
        <time>2018-11-18T11:16:56Z</time>
      </trkpt>
      <trkpt lat="48.45552" lon="2.69107">
        <ele>99.3</ele>
        <time>2018-11-18T11:16:57Z</time>
      </trkpt>
      <trkpt lat="48.45555" lon="2.69104">
        <ele>99.4</ele>
        <time>2018-11-18T11:16:58Z</time>
      </trkpt>
      <trkpt lat="48.45557" lon="2.69101">
        <ele>99.6</ele>
        <time>2018-11-18T11:16:59Z</time>
      </trkpt>
      <trkpt lat="48.45559" lon="2.69097">
        <ele>99.7</ele>
        <time>2018-11-18T11:17:00Z</time>
      </trkpt>
      <trkpt lat="48.45561" lon="2.69093">
        <ele>99.8</ele>
        <time>2018-11-18T11:17:01Z</time>
      </trkpt>
      <trkpt lat="48.45562" lon="2.69089">
        <ele>99.9</ele>
        <time>2018-11-18T11:17:02Z</time>
      </trkpt>
      <trkpt lat="48.45564" lon="2.69085">
        <ele>99.9</ele>
        <time>2018-11-18T11:17:03Z</time>
      </trkpt>
      <trkpt lat="48.45565" lon="2.69081">
        <ele>100</ele>
        <time>2018-11-18T11:17:04Z</time>
      </trkpt>
      <trkpt lat="48.45566" lon="2.69076">
        <ele>100</ele>
        <time>2018-11-18T11:17:05Z</time>
      </trkpt>
      <trkpt lat="48.45568" lon="2.69072">
        <ele>99.9</ele>
        <time>2018-11-18T11:17:06Z</time>
      </trkpt>
      <trkpt lat="48.45569" lon="2.69068">
        <ele>99.9</ele>
        <time>2018-11-18T11:17:07Z</time>
      </trkpt>
      <trkpt lat="48.45571" lon="2.69064">
        <ele>99.8</ele>
        <time>2018-11-18T11:17:08Z</time>
      </trkpt>
      <trkpt lat="48.45572" lon="2.6906">
        <ele>99.7</ele>
        <time>2018-11-18T11:17:09Z</time>
      </trkpt>
      <trkpt lat="48.45574" lon="2.69055">
        <ele>99.7</ele>
        <time>2018-11-18T11:17:10Z</time>
      </trkpt>
      <trkpt lat="48.45575" lon="2.69051">
        <ele>99.6</ele>
        <time>2018-11-18T11:17:11Z</time>
      </trkpt>
      <trkpt lat="48.45577" lon="2.69046">
        <ele>99.6</ele>
        <time>2018-11-18T11:17:12Z</time>
      </trkpt>
      <trkpt lat="48.45579" lon="2.69043">
        <ele>99.5</ele>
        <time>2018-11-18T11:17:13Z</time>
      </trkpt>
      <trkpt lat="48.45581" lon="2.69039">
        <ele>99.5</ele>
        <time>2018-11-18T11:17:14Z</time>
      </trkpt>
      <trkpt lat="48.45582" lon="2.69036">
        <ele>99.6</ele>
        <time>2018-11-18T11:17:15Z</time>
      </trkpt>
      <trkpt lat="48.45585" lon="2.69031">
        <ele>99.6</ele>
        <time>2018-11-18T11:17:16Z</time>
      </trkpt>
      <trkpt lat="48.45588" lon="2.69027">
        <ele>99.7</ele>
        <time>2018-11-18T11:17:17Z</time>
      </trkpt>
      <trkpt lat="48.45591" lon="2.69023">
        <ele>99.9</ele>
        <time>2018-11-18T11:17:18Z</time>
      </trkpt>
      <trkpt lat="48.45593" lon="2.69021">
        <ele>99.9</ele>
        <time>2018-11-18T11:17:19Z</time>
      </trkpt>
      <trkpt lat="48.45596" lon="2.69019">
        <ele>100</ele>
        <time>2018-11-18T11:17:20Z</time>
      </trkpt>
      <trkpt lat="48.45598" lon="2.69017">
        <ele>100.1</ele>
        <time>2018-11-18T11:17:21Z</time>
      </trkpt>
      <trkpt lat="48.45601" lon="2.69014">
        <ele>100.1</ele>
        <time>2018-11-18T11:17:22Z</time>
      </trkpt>
      <trkpt lat="48.45604" lon="2.69012">
        <ele>100.1</ele>
        <time>2018-11-18T11:17:23Z</time>
      </trkpt>
      <trkpt lat="48.45607" lon="2.6901">
        <ele>100.1</ele>
        <time>2018-11-18T11:17:24Z</time>
      </trkpt>
      <trkpt lat="48.4561" lon="2.69008">
        <ele>100</ele>
        <time>2018-11-18T11:17:25Z</time>
      </trkpt>
      <trkpt lat="48.45613" lon="2.69006">
        <ele>99.9</ele>
        <time>2018-11-18T11:17:26Z</time>
      </trkpt>
      <trkpt lat="48.45615" lon="2.69003">
        <ele>99.8</ele>
        <time>2018-11-18T11:17:27Z</time>
      </trkpt>
      <trkpt lat="48.45618" lon="2.69001">
        <ele>99.7</ele>
        <time>2018-11-18T11:17:28Z</time>
      </trkpt>
      <trkpt lat="48.4562" lon="2.68999">
        <ele>99.7</ele>
        <time>2018-11-18T11:17:29Z</time>
      </trkpt>
      <trkpt lat="48.45623" lon="2.68998">
        <ele>99.6</ele>
        <time>2018-11-18T11:17:30Z</time>
      </trkpt>
      <trkpt lat="48.45627" lon="2.68995">
        <ele>99.4</ele>
        <time>2018-11-18T11:17:31Z</time>
      </trkpt>
      <trkpt lat="48.4563" lon="2.68992">
        <ele>99.4</ele>
        <time>2018-11-18T11:17:32Z</time>
      </trkpt>
      <trkpt lat="48.45633" lon="2.68989">
        <ele>99.3</ele>
        <time>2018-11-18T11:17:33Z</time>
      </trkpt>
      <trkpt lat="48.45637" lon="2.68985">
        <ele>99.2</ele>
        <time>2018-11-18T11:17:34Z</time>
      </trkpt>
      <trkpt lat="48.4564" lon="2.68982">
        <ele>99.1</ele>
        <time>2018-11-18T11:17:35Z</time>
      </trkpt>
      <trkpt lat="48.45643" lon="2.68981">
        <ele>99.1</ele>
        <time>2018-11-18T11:17:36Z</time>
      </trkpt>
      <trkpt lat="48.45648" lon="2.6898">
        <ele>99</ele>
        <time>2018-11-18T11:17:37Z</time>
      </trkpt>
      <trkpt lat="48.45652" lon="2.68979">
        <ele>99</ele>
        <time>2018-11-18T11:17:38Z</time>
      </trkpt>
      <trkpt lat="48.45655" lon="2.68977">
        <ele>99</ele>
        <time>2018-11-18T11:17:39Z</time>
      </trkpt>
      <trkpt lat="48.45659" lon="2.68977">
        <ele>98.9</ele>
        <time>2018-11-18T11:17:40Z</time>
      </trkpt>
      <trkpt lat="48.45663" lon="2.68978">
        <ele>98.8</ele>
        <time>2018-11-18T11:17:41Z</time>
      </trkpt>
      <trkpt lat="48.45666" lon="2.68979">
        <ele>98.6</ele>
        <time>2018-11-18T11:17:42Z</time>
      </trkpt>
      <trkpt lat="48.4567" lon="2.68979">
        <ele>98.4</ele>
        <time>2018-11-18T11:17:43Z</time>
      </trkpt>
      <trkpt lat="48.45673" lon="2.68978">
        <ele>98.3</ele>
        <time>2018-11-18T11:17:44Z</time>
      </trkpt>
      <trkpt lat="48.45676" lon="2.68976">
        <ele>98.1</ele>
        <time>2018-11-18T11:17:45Z</time>
      </trkpt>
      <trkpt lat="48.45679" lon="2.68976">
        <ele>98</ele>
        <time>2018-11-18T11:17:46Z</time>
      </trkpt>
      <trkpt lat="48.45683" lon="2.68976">
        <ele>97.9</ele>
        <time>2018-11-18T11:17:47Z</time>
      </trkpt>
      <trkpt lat="48.45686" lon="2.68976">
        <ele>97.7</ele>
        <time>2018-11-18T11:17:48Z</time>
      </trkpt>
      <trkpt lat="48.45689" lon="2.68978">
        <ele>97.6</ele>
        <time>2018-11-18T11:17:49Z</time>
      </trkpt>
      <trkpt lat="48.45692" lon="2.68979">
        <ele>97.5</ele>
        <time>2018-11-18T11:17:50Z</time>
      </trkpt>
      <trkpt lat="48.45695" lon="2.68979">
        <ele>97.5</ele>
        <time>2018-11-18T11:17:51Z</time>
      </trkpt>
      <trkpt lat="48.45697" lon="2.6898">
        <ele>97.4</ele>
        <time>2018-11-18T11:17:52Z</time>
      </trkpt>
      <trkpt lat="48.457" lon="2.68981">
        <ele>97.3</ele>
        <time>2018-11-18T11:17:53Z</time>
      </trkpt>
      <trkpt lat="48.45703" lon="2.68981">
        <ele>97.2</ele>
        <time>2018-11-18T11:17:54Z</time>
      </trkpt>
      <trkpt lat="48.45706" lon="2.68982">
        <ele>97.1</ele>
        <time>2018-11-18T11:17:55Z</time>
      </trkpt>
      <trkpt lat="48.45708" lon="2.68982">
        <ele>97.1</ele>
        <time>2018-11-18T11:17:56Z</time>
      </trkpt>
      <trkpt lat="48.45711" lon="2.68983">
        <ele>97</ele>
        <time>2018-11-18T11:17:57Z</time>
      </trkpt>
      <trkpt lat="48.45713" lon="2.68984">
        <ele>97</ele>
        <time>2018-11-18T11:17:58Z</time>
      </trkpt>
      <trkpt lat="48.45715" lon="2.68984">
        <ele>96.9</ele>
        <time>2018-11-18T11:17:59Z</time>
      </trkpt>
      <trkpt lat="48.45717" lon="2.68985">
        <ele>96.9</ele>
        <time>2018-11-18T11:18:00Z</time>
      </trkpt>
      <trkpt lat="48.4572" lon="2.68986">
        <ele>96.9</ele>
        <time>2018-11-18T11:18:01Z</time>
      </trkpt>
      <trkpt lat="48.45722" lon="2.68988">
        <ele>96.8</ele>
        <time>2018-11-18T11:18:02Z</time>
      </trkpt>
      <trkpt lat="48.45724" lon="2.68989">
        <ele>96.8</ele>
        <time>2018-11-18T11:18:03Z</time>
      </trkpt>
      <trkpt lat="48.45726" lon="2.6899">
        <ele>96.7</ele>
        <time>2018-11-18T11:18:04Z</time>
      </trkpt>
      <trkpt lat="48.45727" lon="2.68992">
        <ele>96.7</ele>
        <time>2018-11-18T11:18:05Z</time>
      </trkpt>
      <trkpt lat="48.45729" lon="2.68993">
        <ele>96.7</ele>
        <time>2018-11-18T11:18:06Z</time>
      </trkpt>
      <trkpt lat="48.4573" lon="2.68995">
        <ele>96.7</ele>
        <time>2018-11-18T11:18:07Z</time>
      </trkpt>
      <trkpt lat="48.45732" lon="2.68997">
        <ele>96.7</ele>
        <time>2018-11-18T11:18:08Z</time>
      </trkpt>
      <trkpt lat="48.45735" lon="2.68998">
        <ele>96.7</ele>
        <time>2018-11-18T11:18:09Z</time>
      </trkpt>
      <trkpt lat="48.45737" lon="2.69">
        <ele>96.7</ele>
        <time>2018-11-18T11:18:10Z</time>
      </trkpt>
      <trkpt lat="48.45739" lon="2.69001">
        <ele>96.7</ele>
        <time>2018-11-18T11:18:11Z</time>
      </trkpt>
      <trkpt lat="48.45741" lon="2.69003">
        <ele>96.7</ele>
        <time>2018-11-18T11:18:12Z</time>
      </trkpt>
      <trkpt lat="48.45743" lon="2.69005">
        <ele>96.7</ele>
        <time>2018-11-18T11:18:13Z</time>
      </trkpt>
      <trkpt lat="48.45745" lon="2.69007">
        <ele>96.7</ele>
        <time>2018-11-18T11:18:14Z</time>
      </trkpt>
      <trkpt lat="48.45746" lon="2.69008">
        <ele>96.8</ele>
        <time>2018-11-18T11:18:15Z</time>
      </trkpt>
      <trkpt lat="48.45749" lon="2.69008">
        <ele>96.9</ele>
        <time>2018-11-18T11:18:16Z</time>
      </trkpt>
      <trkpt lat="48.4575" lon="2.69007">
        <ele>97</ele>
        <time>2018-11-18T11:18:17Z</time>
      </trkpt>
      <trkpt lat="48.45752" lon="2.69005">
        <ele>97.1</ele>
        <time>2018-11-18T11:18:18Z</time>
      </trkpt>
      <trkpt lat="48.45753" lon="2.69002">
        <ele>97.2</ele>
        <time>2018-11-18T11:18:19Z</time>
      </trkpt>
      <trkpt lat="48.45754" lon="2.68999">
        <ele>97.3</ele>
        <time>2018-11-18T11:18:20Z</time>
      </trkpt>
      <trkpt lat="48.45755" lon="2.68997">
        <ele>97.4</ele>
        <time>2018-11-18T11:18:21Z</time>
      </trkpt>
      <trkpt lat="48.45757" lon="2.68995">
        <ele>97.5</ele>
        <time>2018-11-18T11:18:22Z</time>
      </trkpt>
      <trkpt lat="48.45759" lon="2.68993">
        <ele>97.7</ele>
        <time>2018-11-18T11:18:23Z</time>
      </trkpt>
      <trkpt lat="48.45761" lon="2.68992">
        <ele>97.8</ele>
        <time>2018-11-18T11:18:24Z</time>
      </trkpt>
      <trkpt lat="48.45764" lon="2.68991">
        <ele>97.9</ele>
        <time>2018-11-18T11:18:25Z</time>
      </trkpt>
      <trkpt lat="48.45766" lon="2.6899">
        <ele>98.1</ele>
        <time>2018-11-18T11:18:26Z</time>
      </trkpt>
      <trkpt lat="48.45767" lon="2.68988">
        <ele>98.2</ele>
        <time>2018-11-18T11:18:27Z</time>
      </trkpt>
      <trkpt lat="48.45769" lon="2.68985">
        <ele>98.3</ele>
        <time>2018-11-18T11:18:28Z</time>
      </trkpt>
      <trkpt lat="48.4577" lon="2.68983">
        <ele>98.4</ele>
        <time>2018-11-18T11:18:29Z</time>
      </trkpt>
      <trkpt lat="48.45772" lon="2.6898">
        <ele>98.5</ele>
        <time>2018-11-18T11:18:30Z</time>
      </trkpt>
      <trkpt lat="48.45773" lon="2.68977">
        <ele>98.6</ele>
        <time>2018-11-18T11:18:31Z</time>
      </trkpt>
      <trkpt lat="48.45774" lon="2.68975">
        <ele>98.7</ele>
        <time>2018-11-18T11:18:32Z</time>
      </trkpt>
      <trkpt lat="48.45775" lon="2.68972">
        <ele>98.7</ele>
        <time>2018-11-18T11:18:33Z</time>
      </trkpt>
      <trkpt lat="48.45776" lon="2.6897">
        <ele>98.8</ele>
        <time>2018-11-18T11:18:34Z</time>
      </trkpt>
      <trkpt lat="48.45777" lon="2.68968">
        <ele>98.8</ele>
        <time>2018-11-18T11:18:35Z</time>
      </trkpt>
      <trkpt lat="48.45778" lon="2.68966">
        <ele>98.9</ele>
        <time>2018-11-18T11:18:36Z</time>
      </trkpt>
      <trkpt lat="48.45779" lon="2.68964">
        <ele>98.9</ele>
        <time>2018-11-18T11:18:37Z</time>
      </trkpt>
      <trkpt lat="48.45781" lon="2.68963">
        <ele>98.9</ele>
        <time>2018-11-18T11:18:38Z</time>
      </trkpt>
      <trkpt lat="48.45783" lon="2.68963">
        <ele>98.9</ele>
        <time>2018-11-18T11:18:39Z</time>
      </trkpt>
      <trkpt lat="48.45784" lon="2.68962">
        <ele>98.9</ele>
        <time>2018-11-18T11:18:40Z</time>
      </trkpt>
      <trkpt lat="48.45786" lon="2.68961">
        <ele>98.9</ele>
        <time>2018-11-18T11:18:41Z</time>
      </trkpt>
      <trkpt lat="48.45786" lon="2.68959">
        <ele>98.9</ele>
        <time>2018-11-18T11:18:42Z</time>
      </trkpt>
      <trkpt lat="48.45787" lon="2.68957">
        <ele>98.9</ele>
        <time>2018-11-18T11:18:43Z</time>
      </trkpt>
      <trkpt lat="48.45788" lon="2.68954">
        <ele>98.9</ele>
        <time>2018-11-18T11:18:44Z</time>
      </trkpt>
      <trkpt lat="48.45789" lon="2.68953">
        <ele>98.8</ele>
        <time>2018-11-18T11:18:45Z</time>
      </trkpt>
      <trkpt lat="48.4579" lon="2.68951">
        <ele>98.8</ele>
        <time>2018-11-18T11:18:46Z</time>
      </trkpt>
      <trkpt lat="48.45791" lon="2.6895">
        <ele>98.8</ele>
        <time>2018-11-18T11:18:47Z</time>
      </trkpt>
      <trkpt lat="48.45793" lon="2.68949">
        <ele>98.6</ele>
        <time>2018-11-18T11:18:48Z</time>
      </trkpt>
      <trkpt lat="48.45794" lon="2.68948">
        <ele>98.5</ele>
        <time>2018-11-18T11:18:49Z</time>
      </trkpt>
      <trkpt lat="48.45796" lon="2.68946">
        <ele>98.4</ele>
        <time>2018-11-18T11:18:50Z</time>
      </trkpt>
      <trkpt lat="48.45797" lon="2.68944">
        <ele>98.2</ele>
        <time>2018-11-18T11:18:51Z</time>
      </trkpt>
      <trkpt lat="48.45799" lon="2.68943">
        <ele>98</ele>
        <time>2018-11-18T11:18:52Z</time>
      </trkpt>
      <trkpt lat="48.45801" lon="2.68941">
        <ele>97.7</ele>
        <time>2018-11-18T11:18:53Z</time>
      </trkpt>
      <trkpt lat="48.45803" lon="2.6894">
        <ele>97.3</ele>
        <time>2018-11-18T11:18:54Z</time>
      </trkpt>
      <trkpt lat="48.45805" lon="2.6894">
        <ele>96.9</ele>
        <time>2018-11-18T11:18:55Z</time>
      </trkpt>
      <trkpt lat="48.45806" lon="2.68939">
        <ele>96.7</ele>
        <time>2018-11-18T11:18:56Z</time>
      </trkpt>
      <trkpt lat="48.45807" lon="2.68939">
        <ele>96.6</ele>
        <time>2018-11-18T11:18:57Z</time>
      </trkpt>
      <trkpt lat="48.45807" lon="2.68938">
        <ele>96.4</ele>
        <time>2018-11-18T11:18:58Z</time>
      </trkpt>
      <trkpt lat="48.45808" lon="2.68938">
        <ele>96.3</ele>
        <time>2018-11-18T11:18:59Z</time>
      </trkpt>
      <trkpt lat="48.45808" lon="2.68938">
        <ele>96.3</ele>
        <time>2018-11-18T11:19:00Z</time>
      </trkpt>
      <trkpt lat="48.45808" lon="2.68938">
        <ele>96.3</ele>
        <time>2018-11-18T11:19:01Z</time>
      </trkpt>
      <trkpt lat="48.45808" lon="2.68938">
        <ele>96.3</ele>
        <time>2018-11-18T11:19:02Z</time>
      </trkpt>
      <trkpt lat="48.45815" lon="2.68935">
        <ele>95</ele>
        <time>2018-11-18T11:19:11Z</time>
      </trkpt>
      <trkpt lat="48.45817" lon="2.68936">
        <ele>94.8</ele>
        <time>2018-11-18T11:19:12Z</time>
      </trkpt>
      <trkpt lat="48.45819" lon="2.68935">
        <ele>94.6</ele>
        <time>2018-11-18T11:19:13Z</time>
      </trkpt>
      <trkpt lat="48.45821" lon="2.68932">
        <ele>94.4</ele>
        <time>2018-11-18T11:19:14Z</time>
      </trkpt>
      <trkpt lat="48.45824" lon="2.6893">
        <ele>94.1</ele>
        <time>2018-11-18T11:19:15Z</time>
      </trkpt>
      <trkpt lat="48.45826" lon="2.68927">
        <ele>93.8</ele>
        <time>2018-11-18T11:19:16Z</time>
      </trkpt>
      <trkpt lat="48.45829" lon="2.68925">
        <ele>93.5</ele>
        <time>2018-11-18T11:19:17Z</time>
      </trkpt>
      <trkpt lat="48.45832" lon="2.68924">
        <ele>93.3</ele>
        <time>2018-11-18T11:19:18Z</time>
      </trkpt>
      <trkpt lat="48.45835" lon="2.68923">
        <ele>93.1</ele>
        <time>2018-11-18T11:19:19Z</time>
      </trkpt>
      <trkpt lat="48.45837" lon="2.68922">
        <ele>92.8</ele>
        <time>2018-11-18T11:19:20Z</time>
      </trkpt>
      <trkpt lat="48.45841" lon="2.6892">
        <ele>92.5</ele>
        <time>2018-11-18T11:19:21Z</time>
      </trkpt>
      <trkpt lat="48.45844" lon="2.68918">
        <ele>92.2</ele>
        <time>2018-11-18T11:19:22Z</time>
      </trkpt>
      <trkpt lat="48.45849" lon="2.68917">
        <ele>91.8</ele>
        <time>2018-11-18T11:19:23Z</time>
      </trkpt>
      <trkpt lat="48.45854" lon="2.68917">
        <ele>91.5</ele>
        <time>2018-11-18T11:19:24Z</time>
      </trkpt>
      <trkpt lat="48.4586" lon="2.68918">
        <ele>91.1</ele>
        <time>2018-11-18T11:19:25Z</time>
      </trkpt>
      <trkpt lat="48.45865" lon="2.6892">
        <ele>90.8</ele>
        <time>2018-11-18T11:19:26Z</time>
      </trkpt>
      <trkpt lat="48.45871" lon="2.6892">
        <ele>90.6</ele>
        <time>2018-11-18T11:19:27Z</time>
      </trkpt>
      <trkpt lat="48.45876" lon="2.68919">
        <ele>90.4</ele>
        <time>2018-11-18T11:19:28Z</time>
      </trkpt>
      <trkpt lat="48.45881" lon="2.68917">
        <ele>90.4</ele>
        <time>2018-11-18T11:19:29Z</time>
      </trkpt>
      <trkpt lat="48.45886" lon="2.68917">
        <ele>90.3</ele>
        <time>2018-11-18T11:19:30Z</time>
      </trkpt>
      <trkpt lat="48.45892" lon="2.68917">
        <ele>90.4</ele>
        <time>2018-11-18T11:19:31Z</time>
      </trkpt>
      <trkpt lat="48.45898" lon="2.68917">
        <ele>90.4</ele>
        <time>2018-11-18T11:19:32Z</time>
      </trkpt>
      <trkpt lat="48.45903" lon="2.68917">
        <ele>90.6</ele>
        <time>2018-11-18T11:19:33Z</time>
      </trkpt>
      <trkpt lat="48.45909" lon="2.68916">
        <ele>90.7</ele>
        <time>2018-11-18T11:19:34Z</time>
      </trkpt>
      <trkpt lat="48.45914" lon="2.68916">
        <ele>90.9</ele>
        <time>2018-11-18T11:19:35Z</time>
      </trkpt>
      <trkpt lat="48.45919" lon="2.68916">
        <ele>91</ele>
        <time>2018-11-18T11:19:36Z</time>
      </trkpt>
      <trkpt lat="48.45924" lon="2.68917">
        <ele>91.2</ele>
        <time>2018-11-18T11:19:37Z</time>
      </trkpt>
      <trkpt lat="48.45929" lon="2.68917">
        <ele>91.3</ele>
        <time>2018-11-18T11:19:38Z</time>
      </trkpt>
      <trkpt lat="48.45934" lon="2.68917">
        <ele>91.4</ele>
        <time>2018-11-18T11:19:39Z</time>
      </trkpt>
      <trkpt lat="48.45938" lon="2.68916">
        <ele>91.5</ele>
        <time>2018-11-18T11:19:40Z</time>
      </trkpt>
      <trkpt lat="48.45943" lon="2.68916">
        <ele>91.6</ele>
        <time>2018-11-18T11:19:41Z</time>
      </trkpt>
      <trkpt lat="48.45947" lon="2.68916">
        <ele>91.7</ele>
        <time>2018-11-18T11:19:42Z</time>
      </trkpt>
      <trkpt lat="48.45951" lon="2.68917">
        <ele>91.8</ele>
        <time>2018-11-18T11:19:43Z</time>
      </trkpt>
      <trkpt lat="48.45954" lon="2.68918">
        <ele>91.8</ele>
        <time>2018-11-18T11:19:44Z</time>
      </trkpt>
      <trkpt lat="48.45957" lon="2.68918">
        <ele>91.9</ele>
        <time>2018-11-18T11:19:45Z</time>
      </trkpt>
      <trkpt lat="48.4596" lon="2.68919">
        <ele>92</ele>
        <time>2018-11-18T11:19:46Z</time>
      </trkpt>
      <trkpt lat="48.45963" lon="2.68919">
        <ele>92</ele>
        <time>2018-11-18T11:19:47Z</time>
      </trkpt>
      <trkpt lat="48.45966" lon="2.68919">
        <ele>92.1</ele>
        <time>2018-11-18T11:19:48Z</time>
      </trkpt>
      <trkpt lat="48.45969" lon="2.68919">
        <ele>92.2</ele>
        <time>2018-11-18T11:19:49Z</time>
      </trkpt>
      <trkpt lat="48.45972" lon="2.68919">
        <ele>92.2</ele>
        <time>2018-11-18T11:19:50Z</time>
      </trkpt>
      <trkpt lat="48.45976" lon="2.68918">
        <ele>92.3</ele>
        <time>2018-11-18T11:19:51Z</time>
      </trkpt>
      <trkpt lat="48.45978" lon="2.68917">
        <ele>92.3</ele>
        <time>2018-11-18T11:19:52Z</time>
      </trkpt>
      <trkpt lat="48.4598" lon="2.68914">
        <ele>92.4</ele>
        <time>2018-11-18T11:19:53Z</time>
      </trkpt>
      <trkpt lat="48.45981" lon="2.68911">
        <ele>92.4</ele>
        <time>2018-11-18T11:19:54Z</time>
      </trkpt>
      <trkpt lat="48.45981" lon="2.68908">
        <ele>92.5</ele>
        <time>2018-11-18T11:19:55Z</time>
      </trkpt>
      <trkpt lat="48.45981" lon="2.68906">
        <ele>92.5</ele>
        <time>2018-11-18T11:19:56Z</time>
      </trkpt>
      <trkpt lat="48.45982" lon="2.68903">
        <ele>92.6</ele>
        <time>2018-11-18T11:19:57Z</time>
      </trkpt>
      <trkpt lat="48.45982" lon="2.68899">
        <ele>92.6</ele>
        <time>2018-11-18T11:19:58Z</time>
      </trkpt>
      <trkpt lat="48.45982" lon="2.68895">
        <ele>92.5</ele>
        <time>2018-11-18T11:19:59Z</time>
      </trkpt>
      <trkpt lat="48.45982" lon="2.68891">
        <ele>92.5</ele>
        <time>2018-11-18T11:20:00Z</time>
      </trkpt>
      <trkpt lat="48.45983" lon="2.68887">
        <ele>92.5</ele>
        <time>2018-11-18T11:20:01Z</time>
      </trkpt>
      <trkpt lat="48.45984" lon="2.68881">
        <ele>92.4</ele>
        <time>2018-11-18T11:20:02Z</time>
      </trkpt>
      <trkpt lat="48.45985" lon="2.68876">
        <ele>92.4</ele>
        <time>2018-11-18T11:20:03Z</time>
      </trkpt>
      <trkpt lat="48.45986" lon="2.68871">
        <ele>92.3</ele>
        <time>2018-11-18T11:20:04Z</time>
      </trkpt>
      <trkpt lat="48.45987" lon="2.68866">
        <ele>92.3</ele>
        <time>2018-11-18T11:20:05Z</time>
      </trkpt>
      <trkpt lat="48.45988" lon="2.68861">
        <ele>92.2</ele>
        <time>2018-11-18T11:20:06Z</time>
      </trkpt>
      <trkpt lat="48.45988" lon="2.68856">
        <ele>92.2</ele>
        <time>2018-11-18T11:20:07Z</time>
      </trkpt>
      <trkpt lat="48.45988" lon="2.68851">
        <ele>92.2</ele>
        <time>2018-11-18T11:20:08Z</time>
      </trkpt>
      <trkpt lat="48.45989" lon="2.68845">
        <ele>92.2</ele>
        <time>2018-11-18T11:20:09Z</time>
      </trkpt>
      <trkpt lat="48.45989" lon="2.68839">
        <ele>92.3</ele>
        <time>2018-11-18T11:20:10Z</time>
      </trkpt>
      <trkpt lat="48.4599" lon="2.68833">
        <ele>92.3</ele>
        <time>2018-11-18T11:20:11Z</time>
      </trkpt>
      <trkpt lat="48.4599" lon="2.68827">
        <ele>92.3</ele>
        <time>2018-11-18T11:20:12Z</time>
      </trkpt>
      <trkpt lat="48.45991" lon="2.68821">
        <ele>92.2</ele>
        <time>2018-11-18T11:20:13Z</time>
      </trkpt>
      <trkpt lat="48.45992" lon="2.68815">
        <ele>92.3</ele>
        <time>2018-11-18T11:20:14Z</time>
      </trkpt>
      <trkpt lat="48.45993" lon="2.68809">
        <ele>92.2</ele>
        <time>2018-11-18T11:20:15Z</time>
      </trkpt>
      <trkpt lat="48.45995" lon="2.68803">
        <ele>92.2</ele>
        <time>2018-11-18T11:20:16Z</time>
      </trkpt>
      <trkpt lat="48.45996" lon="2.68796">
        <ele>92.2</ele>
        <time>2018-11-18T11:20:17Z</time>
      </trkpt>
      <trkpt lat="48.45997" lon="2.68789">
        <ele>92</ele>
        <time>2018-11-18T11:20:18Z</time>
      </trkpt>
      <trkpt lat="48.45998" lon="2.68782">
        <ele>92.1</ele>
        <time>2018-11-18T11:20:19Z</time>
      </trkpt>
      <trkpt lat="48.45999" lon="2.68775">
        <ele>92.1</ele>
        <time>2018-11-18T11:20:20Z</time>
      </trkpt>
      <trkpt lat="48.46" lon="2.68768">
        <ele>92.1</ele>
        <time>2018-11-18T11:20:21Z</time>
      </trkpt>
      <trkpt lat="48.46002" lon="2.68762">
        <ele>92.1</ele>
        <time>2018-11-18T11:20:22Z</time>
      </trkpt>
      <trkpt lat="48.46003" lon="2.68755">
        <ele>92.1</ele>
        <time>2018-11-18T11:20:23Z</time>
      </trkpt>
      <trkpt lat="48.46004" lon="2.68749">
        <ele>92.1</ele>
        <time>2018-11-18T11:20:24Z</time>
      </trkpt>
      <trkpt lat="48.46005" lon="2.68742">
        <ele>92.1</ele>
        <time>2018-11-18T11:20:25Z</time>
      </trkpt>
      <trkpt lat="48.46006" lon="2.68736">
        <ele>92.1</ele>
        <time>2018-11-18T11:20:26Z</time>
      </trkpt>
      <trkpt lat="48.46006" lon="2.68729">
        <ele>92.1</ele>
        <time>2018-11-18T11:20:27Z</time>
      </trkpt>
      <trkpt lat="48.46007" lon="2.68721">
        <ele>92.1</ele>
        <time>2018-11-18T11:20:28Z</time>
      </trkpt>
      <trkpt lat="48.46008" lon="2.68713">
        <ele>92.1</ele>
        <time>2018-11-18T11:20:29Z</time>
      </trkpt>
      <trkpt lat="48.46009" lon="2.68705">
        <ele>92.1</ele>
        <time>2018-11-18T11:20:30Z</time>
      </trkpt>
      <trkpt lat="48.4601" lon="2.68697">
        <ele>92.1</ele>
        <time>2018-11-18T11:20:31Z</time>
      </trkpt>
      <trkpt lat="48.46011" lon="2.6869">
        <ele>92.1</ele>
        <time>2018-11-18T11:20:32Z</time>
      </trkpt>
      <trkpt lat="48.46012" lon="2.68683">
        <ele>92.1</ele>
        <time>2018-11-18T11:20:33Z</time>
      </trkpt>
      <trkpt lat="48.46012" lon="2.68676">
        <ele>92.1</ele>
        <time>2018-11-18T11:20:34Z</time>
      </trkpt>
      <trkpt lat="48.46012" lon="2.68668">
        <ele>92</ele>
        <time>2018-11-18T11:20:35Z</time>
      </trkpt>
      <trkpt lat="48.46014" lon="2.68661">
        <ele>91.9</ele>
        <time>2018-11-18T11:20:36Z</time>
      </trkpt>
      <trkpt lat="48.46015" lon="2.68654">
        <ele>91.8</ele>
        <time>2018-11-18T11:20:37Z</time>
      </trkpt>
      <trkpt lat="48.46016" lon="2.68646">
        <ele>91.7</ele>
        <time>2018-11-18T11:20:38Z</time>
      </trkpt>
      <trkpt lat="48.46017" lon="2.68639">
        <ele>91.7</ele>
        <time>2018-11-18T11:20:39Z</time>
      </trkpt>
      <trkpt lat="48.46018" lon="2.6863">
        <ele>91.7</ele>
        <time>2018-11-18T11:20:40Z</time>
      </trkpt>
      <trkpt lat="48.46019" lon="2.68622">
        <ele>91.7</ele>
        <time>2018-11-18T11:20:41Z</time>
      </trkpt>
      <trkpt lat="48.4602" lon="2.68614">
        <ele>91.7</ele>
        <time>2018-11-18T11:20:42Z</time>
      </trkpt>
      <trkpt lat="48.46022" lon="2.68606">
        <ele>91.8</ele>
        <time>2018-11-18T11:20:43Z</time>
      </trkpt>
      <trkpt lat="48.46023" lon="2.68598">
        <ele>91.8</ele>
        <time>2018-11-18T11:20:44Z</time>
      </trkpt>
      <trkpt lat="48.46024" lon="2.68591">
        <ele>91.8</ele>
        <time>2018-11-18T11:20:45Z</time>
      </trkpt>
      <trkpt lat="48.46025" lon="2.68584">
        <ele>91.8</ele>
        <time>2018-11-18T11:20:46Z</time>
      </trkpt>
      <trkpt lat="48.46026" lon="2.68577">
        <ele>91.8</ele>
        <time>2018-11-18T11:20:47Z</time>
      </trkpt>
      <trkpt lat="48.46027" lon="2.68569">
        <ele>91.8</ele>
        <time>2018-11-18T11:20:48Z</time>
      </trkpt>
      <trkpt lat="48.46028" lon="2.68563">
        <ele>91.7</ele>
        <time>2018-11-18T11:20:49Z</time>
      </trkpt>
      <trkpt lat="48.46029" lon="2.68554">
        <ele>91.7</ele>
        <time>2018-11-18T11:20:50Z</time>
      </trkpt>
      <trkpt lat="48.46031" lon="2.68547">
        <ele>91.7</ele>
        <time>2018-11-18T11:20:51Z</time>
      </trkpt>
      <trkpt lat="48.46032" lon="2.6854">
        <ele>91.7</ele>
        <time>2018-11-18T11:20:52Z</time>
      </trkpt>
      <trkpt lat="48.46034" lon="2.68533">
        <ele>91.7</ele>
        <time>2018-11-18T11:20:53Z</time>
      </trkpt>
      <trkpt lat="48.46035" lon="2.68526">
        <ele>91.7</ele>
        <time>2018-11-18T11:20:54Z</time>
      </trkpt>
      <trkpt lat="48.46035" lon="2.68519">
        <ele>91.7</ele>
        <time>2018-11-18T11:20:55Z</time>
      </trkpt>
      <trkpt lat="48.46037" lon="2.6851">
        <ele>91.7</ele>
        <time>2018-11-18T11:20:56Z</time>
      </trkpt>
      <trkpt lat="48.46038" lon="2.68503">
        <ele>91.7</ele>
        <time>2018-11-18T11:20:57Z</time>
      </trkpt>
      <trkpt lat="48.46039" lon="2.68496">
        <ele>91.6</ele>
        <time>2018-11-18T11:20:58Z</time>
      </trkpt>
      <trkpt lat="48.4604" lon="2.68487">
        <ele>91.6</ele>
        <time>2018-11-18T11:20:59Z</time>
      </trkpt>
      <trkpt lat="48.46041" lon="2.68479">
        <ele>91.6</ele>
        <time>2018-11-18T11:21:00Z</time>
      </trkpt>
      <trkpt lat="48.46042" lon="2.68472">
        <ele>91.6</ele>
        <time>2018-11-18T11:21:01Z</time>
      </trkpt>
      <trkpt lat="48.46043" lon="2.68462">
        <ele>91.7</ele>
        <time>2018-11-18T11:21:02Z</time>
      </trkpt>
      <trkpt lat="48.46045" lon="2.68454">
        <ele>91.7</ele>
        <time>2018-11-18T11:21:03Z</time>
      </trkpt>
      <trkpt lat="48.46045" lon="2.68446">
        <ele>91.7</ele>
        <time>2018-11-18T11:21:04Z</time>
      </trkpt>
      <trkpt lat="48.46047" lon="2.68438">
        <ele>91.7</ele>
        <time>2018-11-18T11:21:05Z</time>
      </trkpt>
      <trkpt lat="48.46048" lon="2.6843">
        <ele>91.7</ele>
        <time>2018-11-18T11:21:06Z</time>
      </trkpt>
      <trkpt lat="48.46049" lon="2.68422">
        <ele>91.7</ele>
        <time>2018-11-18T11:21:07Z</time>
      </trkpt>
      <trkpt lat="48.4605" lon="2.68415">
        <ele>91.6</ele>
        <time>2018-11-18T11:21:08Z</time>
      </trkpt>
      <trkpt lat="48.46051" lon="2.68407">
        <ele>91.6</ele>
        <time>2018-11-18T11:21:09Z</time>
      </trkpt>
      <trkpt lat="48.46052" lon="2.68398">
        <ele>91.5</ele>
        <time>2018-11-18T11:21:10Z</time>
      </trkpt>
      <trkpt lat="48.46053" lon="2.6839">
        <ele>91.5</ele>
        <time>2018-11-18T11:21:11Z</time>
      </trkpt>
      <trkpt lat="48.46054" lon="2.68383">
        <ele>91.5</ele>
        <time>2018-11-18T11:21:12Z</time>
      </trkpt>
      <trkpt lat="48.46055" lon="2.68378">
        <ele>91.4</ele>
        <time>2018-11-18T11:21:13Z</time>
      </trkpt>
      <trkpt lat="48.46057" lon="2.68366">
        <ele>91.4</ele>
        <time>2018-11-18T11:21:14Z</time>
      </trkpt>
      <trkpt lat="48.46058" lon="2.68358">
        <ele>91.3</ele>
        <time>2018-11-18T11:21:15Z</time>
      </trkpt>
      <trkpt lat="48.46059" lon="2.68351">
        <ele>91.3</ele>
        <time>2018-11-18T11:21:16Z</time>
      </trkpt>
      <trkpt lat="48.4606" lon="2.68344">
        <ele>91.2</ele>
        <time>2018-11-18T11:21:17Z</time>
      </trkpt>
      <trkpt lat="48.46062" lon="2.68337">
        <ele>91.2</ele>
        <time>2018-11-18T11:21:18Z</time>
      </trkpt>
      <trkpt lat="48.46063" lon="2.68331">
        <ele>91.3</ele>
        <time>2018-11-18T11:21:19Z</time>
      </trkpt>
      <trkpt lat="48.46064" lon="2.68325">
        <ele>91.3</ele>
        <time>2018-11-18T11:21:20Z</time>
      </trkpt>
      <trkpt lat="48.46064" lon="2.6832">
        <ele>91.4</ele>
        <time>2018-11-18T11:21:21Z</time>
      </trkpt>
      <trkpt lat="48.46064" lon="2.68316">
        <ele>91.4</ele>
        <time>2018-11-18T11:21:22Z</time>
      </trkpt>
      <trkpt lat="48.46063" lon="2.68312">
        <ele>91.5</ele>
        <time>2018-11-18T11:21:23Z</time>
      </trkpt>
      <trkpt lat="48.46062" lon="2.68309">
        <ele>91.5</ele>
        <time>2018-11-18T11:21:24Z</time>
      </trkpt>
      <trkpt lat="48.46061" lon="2.68307">
        <ele>91.6</ele>
        <time>2018-11-18T11:21:25Z</time>
      </trkpt>
      <trkpt lat="48.4606" lon="2.68305">
        <ele>91.6</ele>
        <time>2018-11-18T11:21:26Z</time>
      </trkpt>
      <trkpt lat="48.46059" lon="2.68303">
        <ele>91.7</ele>
        <time>2018-11-18T11:21:27Z</time>
      </trkpt>
      <trkpt lat="48.46058" lon="2.683">
        <ele>91.7</ele>
        <time>2018-11-18T11:21:28Z</time>
      </trkpt>
      <trkpt lat="48.46056" lon="2.68296">
        <ele>91.8</ele>
        <time>2018-11-18T11:21:29Z</time>
      </trkpt>
      <trkpt lat="48.46054" lon="2.68291">
        <ele>91.9</ele>
        <time>2018-11-18T11:21:30Z</time>
      </trkpt>
      <trkpt lat="48.46052" lon="2.68286">
        <ele>92</ele>
        <time>2018-11-18T11:21:31Z</time>
      </trkpt>
      <trkpt lat="48.46051" lon="2.68281">
        <ele>92.2</ele>
        <time>2018-11-18T11:21:32Z</time>
      </trkpt>
      <trkpt lat="48.46049" lon="2.68276">
        <ele>92.3</ele>
        <time>2018-11-18T11:21:33Z</time>
      </trkpt>
      <trkpt lat="48.46047" lon="2.68272">
        <ele>92.4</ele>
        <time>2018-11-18T11:21:34Z</time>
      </trkpt>
      <trkpt lat="48.46045" lon="2.68267">
        <ele>92.6</ele>
        <time>2018-11-18T11:21:35Z</time>
      </trkpt>
      <trkpt lat="48.46044" lon="2.68263">
        <ele>92.7</ele>
        <time>2018-11-18T11:21:36Z</time>
      </trkpt>
      <trkpt lat="48.46042" lon="2.68258">
        <ele>92.8</ele>
        <time>2018-11-18T11:21:37Z</time>
      </trkpt>
      <trkpt lat="48.46041" lon="2.68254">
        <ele>92.9</ele>
        <time>2018-11-18T11:21:38Z</time>
      </trkpt>
      <trkpt lat="48.46039" lon="2.6825">
        <ele>93</ele>
        <time>2018-11-18T11:21:39Z</time>
      </trkpt>
      <trkpt lat="48.46038" lon="2.68247">
        <ele>93.1</ele>
        <time>2018-11-18T11:21:40Z</time>
      </trkpt>
      <trkpt lat="48.46037" lon="2.68243">
        <ele>93.3</ele>
        <time>2018-11-18T11:21:41Z</time>
      </trkpt>
      <trkpt lat="48.46035" lon="2.68239">
        <ele>93.1</ele>
        <time>2018-11-18T11:21:42Z</time>
      </trkpt>
      <trkpt lat="48.46034" lon="2.68234">
        <ele>93</ele>
        <time>2018-11-18T11:21:43Z</time>
      </trkpt>
      <trkpt lat="48.46033" lon="2.6823">
        <ele>92.9</ele>
        <time>2018-11-18T11:21:44Z</time>
      </trkpt>
      <trkpt lat="48.46032" lon="2.68226">
        <ele>92.8</ele>
        <time>2018-11-18T11:21:45Z</time>
      </trkpt>
      <trkpt lat="48.46031" lon="2.68222">
        <ele>92.7</ele>
        <time>2018-11-18T11:21:46Z</time>
      </trkpt>
      <trkpt lat="48.4603" lon="2.68218">
        <ele>92.7</ele>
        <time>2018-11-18T11:21:47Z</time>
      </trkpt>
      <trkpt lat="48.46029" lon="2.68213">
        <ele>92.6</ele>
        <time>2018-11-18T11:21:48Z</time>
      </trkpt>
      <trkpt lat="48.46028" lon="2.68207">
        <ele>92.5</ele>
        <time>2018-11-18T11:21:49Z</time>
      </trkpt>
      <trkpt lat="48.46026" lon="2.68202">
        <ele>92.5</ele>
        <time>2018-11-18T11:21:50Z</time>
      </trkpt>
      <trkpt lat="48.46025" lon="2.68197">
        <ele>92.5</ele>
        <time>2018-11-18T11:21:51Z</time>
      </trkpt>
      <trkpt lat="48.46024" lon="2.68192">
        <ele>92.6</ele>
        <time>2018-11-18T11:21:52Z</time>
      </trkpt>
      <trkpt lat="48.46023" lon="2.68187">
        <ele>92.8</ele>
        <time>2018-11-18T11:21:53Z</time>
      </trkpt>
      <trkpt lat="48.46022" lon="2.68181">
        <ele>93</ele>
        <time>2018-11-18T11:21:54Z</time>
      </trkpt>
      <trkpt lat="48.46021" lon="2.68176">
        <ele>93.1</ele>
        <time>2018-11-18T11:21:55Z</time>
      </trkpt>
      <trkpt lat="48.4602" lon="2.68171">
        <ele>93.5</ele>
        <time>2018-11-18T11:21:56Z</time>
      </trkpt>
      <trkpt lat="48.46018" lon="2.68165">
        <ele>93.5</ele>
        <time>2018-11-18T11:21:57Z</time>
      </trkpt>
      <trkpt lat="48.46017" lon="2.68159">
        <ele>93.9</ele>
        <time>2018-11-18T11:21:58Z</time>
      </trkpt>
      <trkpt lat="48.46015" lon="2.68153">
        <ele>93.9</ele>
        <time>2018-11-18T11:21:59Z</time>
      </trkpt>
      <trkpt lat="48.46014" lon="2.68146">
        <ele>94.1</ele>
        <time>2018-11-18T11:22:00Z</time>
      </trkpt>
      <trkpt lat="48.46014" lon="2.68139">
        <ele>94.1</ele>
        <time>2018-11-18T11:22:01Z</time>
      </trkpt>
      <trkpt lat="48.46013" lon="2.68133">
        <ele>94.1</ele>
        <time>2018-11-18T11:22:02Z</time>
      </trkpt>
      <trkpt lat="48.46012" lon="2.68126">
        <ele>94.2</ele>
        <time>2018-11-18T11:22:03Z</time>
      </trkpt>
      <trkpt lat="48.46011" lon="2.6812">
        <ele>94.6</ele>
        <time>2018-11-18T11:22:04Z</time>
      </trkpt>
      <trkpt lat="48.46009" lon="2.68113">
        <ele>94.8</ele>
        <time>2018-11-18T11:22:05Z</time>
      </trkpt>
      <trkpt lat="48.46008" lon="2.68106">
        <ele>95.2</ele>
        <time>2018-11-18T11:22:06Z</time>
      </trkpt>
      <trkpt lat="48.46007" lon="2.68099">
        <ele>95.5</ele>
        <time>2018-11-18T11:22:07Z</time>
      </trkpt>
      <trkpt lat="48.46006" lon="2.68093">
        <ele>95.6</ele>
        <time>2018-11-18T11:22:08Z</time>
      </trkpt>
      <trkpt lat="48.46004" lon="2.68086">
        <ele>95.7</ele>
        <time>2018-11-18T11:22:09Z</time>
      </trkpt>
      <trkpt lat="48.46002" lon="2.6808">
        <ele>95.7</ele>
        <time>2018-11-18T11:22:10Z</time>
      </trkpt>
      <trkpt lat="48.46001" lon="2.68074">
        <ele>95.8</ele>
        <time>2018-11-18T11:22:11Z</time>
      </trkpt>
      <trkpt lat="48.45999" lon="2.68067">
        <ele>95.9</ele>
        <time>2018-11-18T11:22:12Z</time>
      </trkpt>
      <trkpt lat="48.45997" lon="2.6806">
        <ele>96</ele>
        <time>2018-11-18T11:22:13Z</time>
      </trkpt>
      <trkpt lat="48.45996" lon="2.68053">
        <ele>96.2</ele>
        <time>2018-11-18T11:22:14Z</time>
      </trkpt>
      <trkpt lat="48.45995" lon="2.68045">
        <ele>96.3</ele>
        <time>2018-11-18T11:22:15Z</time>
      </trkpt>
      <trkpt lat="48.45995" lon="2.68038">
        <ele>96.5</ele>
        <time>2018-11-18T11:22:16Z</time>
      </trkpt>
      <trkpt lat="48.45993" lon="2.68031">
        <ele>96.6</ele>
        <time>2018-11-18T11:22:17Z</time>
      </trkpt>
      <trkpt lat="48.45992" lon="2.68025">
        <ele>96.8</ele>
        <time>2018-11-18T11:22:18Z</time>
      </trkpt>
      <trkpt lat="48.4599" lon="2.68018">
        <ele>96.9</ele>
        <time>2018-11-18T11:22:19Z</time>
      </trkpt>
      <trkpt lat="48.45989" lon="2.68011">
        <ele>97</ele>
        <time>2018-11-18T11:22:20Z</time>
      </trkpt>
      <trkpt lat="48.45988" lon="2.68004">
        <ele>97.1</ele>
        <time>2018-11-18T11:22:21Z</time>
      </trkpt>
      <trkpt lat="48.45987" lon="2.67998">
        <ele>97.2</ele>
        <time>2018-11-18T11:22:22Z</time>
      </trkpt>
      <trkpt lat="48.45985" lon="2.67992">
        <ele>97.3</ele>
        <time>2018-11-18T11:22:23Z</time>
      </trkpt>
      <trkpt lat="48.45984" lon="2.67986">
        <ele>97.4</ele>
        <time>2018-11-18T11:22:24Z</time>
      </trkpt>
      <trkpt lat="48.45983" lon="2.67979">
        <ele>97.5</ele>
        <time>2018-11-18T11:22:25Z</time>
      </trkpt>
      <trkpt lat="48.45982" lon="2.67973">
        <ele>97.6</ele>
        <time>2018-11-18T11:22:26Z</time>
      </trkpt>
      <trkpt lat="48.4598" lon="2.67966">
        <ele>97.7</ele>
        <time>2018-11-18T11:22:27Z</time>
      </trkpt>
      <trkpt lat="48.45979" lon="2.67958">
        <ele>97.8</ele>
        <time>2018-11-18T11:22:28Z</time>
      </trkpt>
      <trkpt lat="48.45977" lon="2.67951">
        <ele>98</ele>
        <time>2018-11-18T11:22:29Z</time>
      </trkpt>
      <trkpt lat="48.45975" lon="2.67944">
        <ele>98.1</ele>
        <time>2018-11-18T11:22:30Z</time>
      </trkpt>
      <trkpt lat="48.45973" lon="2.67937">
        <ele>98.2</ele>
        <time>2018-11-18T11:22:31Z</time>
      </trkpt>
      <trkpt lat="48.45972" lon="2.67929">
        <ele>98.3</ele>
        <time>2018-11-18T11:22:32Z</time>
      </trkpt>
      <trkpt lat="48.4597" lon="2.67921">
        <ele>98.5</ele>
        <time>2018-11-18T11:22:33Z</time>
      </trkpt>
      <trkpt lat="48.45969" lon="2.67914">
        <ele>98.6</ele>
        <time>2018-11-18T11:22:34Z</time>
      </trkpt>
      <trkpt lat="48.45967" lon="2.67906">
        <ele>98.6</ele>
        <time>2018-11-18T11:22:35Z</time>
      </trkpt>
      <trkpt lat="48.45966" lon="2.67898">
        <ele>98.7</ele>
        <time>2018-11-18T11:22:36Z</time>
      </trkpt>
      <trkpt lat="48.45964" lon="2.67891">
        <ele>98.6</ele>
        <time>2018-11-18T11:22:37Z</time>
      </trkpt>
      <trkpt lat="48.45963" lon="2.67883">
        <ele>98.6</ele>
        <time>2018-11-18T11:22:38Z</time>
      </trkpt>
      <trkpt lat="48.45962" lon="2.67875">
        <ele>98.6</ele>
        <time>2018-11-18T11:22:39Z</time>
      </trkpt>
      <trkpt lat="48.4596" lon="2.67866">
        <ele>98.5</ele>
        <time>2018-11-18T11:22:40Z</time>
      </trkpt>
      <trkpt lat="48.45959" lon="2.67858">
        <ele>98.5</ele>
        <time>2018-11-18T11:22:41Z</time>
      </trkpt>
      <trkpt lat="48.45957" lon="2.6785">
        <ele>98.4</ele>
        <time>2018-11-18T11:22:42Z</time>
      </trkpt>
      <trkpt lat="48.45956" lon="2.67842">
        <ele>98.2</ele>
        <time>2018-11-18T11:22:43Z</time>
      </trkpt>
      <trkpt lat="48.45955" lon="2.67834">
        <ele>98</ele>
        <time>2018-11-18T11:22:44Z</time>
      </trkpt>
      <trkpt lat="48.45953" lon="2.67826">
        <ele>97.8</ele>
        <time>2018-11-18T11:22:45Z</time>
      </trkpt>
      <trkpt lat="48.45952" lon="2.67819">
        <ele>97.4</ele>
        <time>2018-11-18T11:22:46Z</time>
      </trkpt>
      <trkpt lat="48.45951" lon="2.67812">
        <ele>97.4</ele>
        <time>2018-11-18T11:22:47Z</time>
      </trkpt>
      <trkpt lat="48.4595" lon="2.67805">
        <ele>97.4</ele>
        <time>2018-11-18T11:22:48Z</time>
      </trkpt>
      <trkpt lat="48.45949" lon="2.67797">
        <ele>97.5</ele>
        <time>2018-11-18T11:22:49Z</time>
      </trkpt>
      <trkpt lat="48.45947" lon="2.6779">
        <ele>97.5</ele>
        <time>2018-11-18T11:22:50Z</time>
      </trkpt>
      <trkpt lat="48.45946" lon="2.67784">
        <ele>97.6</ele>
        <time>2018-11-18T11:22:51Z</time>
      </trkpt>
      <trkpt lat="48.45945" lon="2.67778">
        <ele>97.8</ele>
        <time>2018-11-18T11:22:52Z</time>
      </trkpt>
      <trkpt lat="48.45944" lon="2.67772">
        <ele>98</ele>
        <time>2018-11-18T11:22:53Z</time>
      </trkpt>
      <trkpt lat="48.45943" lon="2.67766">
        <ele>98.2</ele>
        <time>2018-11-18T11:22:54Z</time>
      </trkpt>
      <trkpt lat="48.45942" lon="2.6776">
        <ele>98.4</ele>
        <time>2018-11-18T11:22:55Z</time>
      </trkpt>
      <trkpt lat="48.4594" lon="2.67753">
        <ele>98.8</ele>
        <time>2018-11-18T11:22:56Z</time>
      </trkpt>
      <trkpt lat="48.45939" lon="2.67746">
        <ele>99.3</ele>
        <time>2018-11-18T11:22:57Z</time>
      </trkpt>
      <trkpt lat="48.45937" lon="2.6774">
        <ele>99.8</ele>
        <time>2018-11-18T11:22:58Z</time>
      </trkpt>
      <trkpt lat="48.45935" lon="2.67733">
        <ele>100.2</ele>
        <time>2018-11-18T11:22:59Z</time>
      </trkpt>
      <trkpt lat="48.45933" lon="2.67727">
        <ele>100.7</ele>
        <time>2018-11-18T11:23:00Z</time>
      </trkpt>
      <trkpt lat="48.45931" lon="2.6772">
        <ele>101.1</ele>
        <time>2018-11-18T11:23:01Z</time>
      </trkpt>
      <trkpt lat="48.45929" lon="2.67714">
        <ele>101.5</ele>
        <time>2018-11-18T11:23:02Z</time>
      </trkpt>
      <trkpt lat="48.45927" lon="2.67706">
        <ele>101.8</ele>
        <time>2018-11-18T11:23:03Z</time>
      </trkpt>
      <trkpt lat="48.45925" lon="2.67699">
        <ele>102.2</ele>
        <time>2018-11-18T11:23:04Z</time>
      </trkpt>
      <trkpt lat="48.45924" lon="2.67691">
        <ele>102.5</ele>
        <time>2018-11-18T11:23:05Z</time>
      </trkpt>
      <trkpt lat="48.45922" lon="2.67683">
        <ele>103.2</ele>
        <time>2018-11-18T11:23:06Z</time>
      </trkpt>
      <trkpt lat="48.45921" lon="2.67676">
        <ele>103.7</ele>
        <time>2018-11-18T11:23:07Z</time>
      </trkpt>
      <trkpt lat="48.4592" lon="2.67668">
        <ele>104.1</ele>
        <time>2018-11-18T11:23:08Z</time>
      </trkpt>
      <trkpt lat="48.45918" lon="2.6766">
        <ele>104.5</ele>
        <time>2018-11-18T11:23:09Z</time>
      </trkpt>
      <trkpt lat="48.45917" lon="2.67652">
        <ele>104.7</ele>
        <time>2018-11-18T11:23:10Z</time>
      </trkpt>
      <trkpt lat="48.45916" lon="2.67645">
        <ele>104.8</ele>
        <time>2018-11-18T11:23:11Z</time>
      </trkpt>
      <trkpt lat="48.45915" lon="2.67636">
        <ele>104.9</ele>
        <time>2018-11-18T11:23:12Z</time>
      </trkpt>
      <trkpt lat="48.45913" lon="2.67628">
        <ele>104.9</ele>
        <time>2018-11-18T11:23:13Z</time>
      </trkpt>
      <trkpt lat="48.45912" lon="2.6762">
        <ele>104.9</ele>
        <time>2018-11-18T11:23:14Z</time>
      </trkpt>
      <trkpt lat="48.45911" lon="2.67612">
        <ele>104.8</ele>
        <time>2018-11-18T11:23:15Z</time>
      </trkpt>
      <trkpt lat="48.4591" lon="2.67604">
        <ele>104.7</ele>
        <time>2018-11-18T11:23:16Z</time>
      </trkpt>
      <trkpt lat="48.45909" lon="2.67595">
        <ele>104.6</ele>
        <time>2018-11-18T11:23:17Z</time>
      </trkpt>
      <trkpt lat="48.45908" lon="2.67588">
        <ele>104.4</ele>
        <time>2018-11-18T11:23:18Z</time>
      </trkpt>
      <trkpt lat="48.45907" lon="2.6758">
        <ele>104.2</ele>
        <time>2018-11-18T11:23:19Z</time>
      </trkpt>
      <trkpt lat="48.45905" lon="2.67573">
        <ele>103.8</ele>
        <time>2018-11-18T11:23:20Z</time>
      </trkpt>
      <trkpt lat="48.45904" lon="2.67565">
        <ele>103.4</ele>
        <time>2018-11-18T11:23:21Z</time>
      </trkpt>
      <trkpt lat="48.45903" lon="2.67557">
        <ele>103.1</ele>
        <time>2018-11-18T11:23:22Z</time>
      </trkpt>
      <trkpt lat="48.45901" lon="2.67549">
        <ele>102.8</ele>
        <time>2018-11-18T11:23:23Z</time>
      </trkpt>
      <trkpt lat="48.45899" lon="2.67542">
        <ele>102.6</ele>
        <time>2018-11-18T11:23:24Z</time>
      </trkpt>
      <trkpt lat="48.45897" lon="2.67534">
        <ele>102.3</ele>
        <time>2018-11-18T11:23:25Z</time>
      </trkpt>
      <trkpt lat="48.45896" lon="2.67526">
        <ele>102.1</ele>
        <time>2018-11-18T11:23:26Z</time>
      </trkpt>
      <trkpt lat="48.45895" lon="2.67519">
        <ele>101.9</ele>
        <time>2018-11-18T11:23:27Z</time>
      </trkpt>
      <trkpt lat="48.45894" lon="2.67511">
        <ele>101.7</ele>
        <time>2018-11-18T11:23:28Z</time>
      </trkpt>
      <trkpt lat="48.45892" lon="2.67504">
        <ele>101.5</ele>
        <time>2018-11-18T11:23:29Z</time>
      </trkpt>
      <trkpt lat="48.45891" lon="2.67497">
        <ele>101.2</ele>
        <time>2018-11-18T11:23:30Z</time>
      </trkpt>
      <trkpt lat="48.4589" lon="2.67489">
        <ele>100.8</ele>
        <time>2018-11-18T11:23:31Z</time>
      </trkpt>
      <trkpt lat="48.45889" lon="2.67482">
        <ele>100.4</ele>
        <time>2018-11-18T11:23:32Z</time>
      </trkpt>
      <trkpt lat="48.45888" lon="2.67476">
        <ele>100</ele>
        <time>2018-11-18T11:23:33Z</time>
      </trkpt>
      <trkpt lat="48.45887" lon="2.67469">
        <ele>99.7</ele>
        <time>2018-11-18T11:23:34Z</time>
      </trkpt>
      <trkpt lat="48.45885" lon="2.67462">
        <ele>99.6</ele>
        <time>2018-11-18T11:23:35Z</time>
      </trkpt>
      <trkpt lat="48.45884" lon="2.67455">
        <ele>99.5</ele>
        <time>2018-11-18T11:23:36Z</time>
      </trkpt>
      <trkpt lat="48.45882" lon="2.67447">
        <ele>99.4</ele>
        <time>2018-11-18T11:23:37Z</time>
      </trkpt>
      <trkpt lat="48.45881" lon="2.67439">
        <ele>99.2</ele>
        <time>2018-11-18T11:23:38Z</time>
      </trkpt>
      <trkpt lat="48.4588" lon="2.67432">
        <ele>99.2</ele>
        <time>2018-11-18T11:23:39Z</time>
      </trkpt>
      <trkpt lat="48.45878" lon="2.67424">
        <ele>99.2</ele>
        <time>2018-11-18T11:23:40Z</time>
      </trkpt>
      <trkpt lat="48.45877" lon="2.67417">
        <ele>99.2</ele>
        <time>2018-11-18T11:23:41Z</time>
      </trkpt>
      <trkpt lat="48.45875" lon="2.6741">
        <ele>99.3</ele>
        <time>2018-11-18T11:23:42Z</time>
      </trkpt>
      <trkpt lat="48.45874" lon="2.67403">
        <ele>99.4</ele>
        <time>2018-11-18T11:23:43Z</time>
      </trkpt>
      <trkpt lat="48.45873" lon="2.67395">
        <ele>99.5</ele>
        <time>2018-11-18T11:23:44Z</time>
      </trkpt>
      <trkpt lat="48.45872" lon="2.67387">
        <ele>99.6</ele>
        <time>2018-11-18T11:23:45Z</time>
      </trkpt>
      <trkpt lat="48.45871" lon="2.6738">
        <ele>99.7</ele>
        <time>2018-11-18T11:23:46Z</time>
      </trkpt>
      <trkpt lat="48.4587" lon="2.67372">
        <ele>99.8</ele>
        <time>2018-11-18T11:23:47Z</time>
      </trkpt>
      <trkpt lat="48.45868" lon="2.67365">
        <ele>99.9</ele>
        <time>2018-11-18T11:23:48Z</time>
      </trkpt>
      <trkpt lat="48.45866" lon="2.67358">
        <ele>100</ele>
        <time>2018-11-18T11:23:49Z</time>
      </trkpt>
      <trkpt lat="48.45865" lon="2.67351">
        <ele>100.2</ele>
        <time>2018-11-18T11:23:50Z</time>
      </trkpt>
      <trkpt lat="48.45863" lon="2.67343">
        <ele>100.4</ele>
        <time>2018-11-18T11:23:51Z</time>
      </trkpt>
      <trkpt lat="48.45862" lon="2.67336">
        <ele>100.6</ele>
        <time>2018-11-18T11:23:52Z</time>
      </trkpt>
      <trkpt lat="48.4586" lon="2.67329">
        <ele>101</ele>
        <time>2018-11-18T11:23:53Z</time>
      </trkpt>
      <trkpt lat="48.45858" lon="2.67322">
        <ele>101.5</ele>
        <time>2018-11-18T11:23:54Z</time>
      </trkpt>
      <trkpt lat="48.45856" lon="2.67315">
        <ele>102.2</ele>
        <time>2018-11-18T11:23:55Z</time>
      </trkpt>
      <trkpt lat="48.45854" lon="2.67307">
        <ele>102.7</ele>
        <time>2018-11-18T11:23:56Z</time>
      </trkpt>
      <trkpt lat="48.45851" lon="2.673">
        <ele>103.1</ele>
        <time>2018-11-18T11:23:57Z</time>
      </trkpt>
      <trkpt lat="48.45848" lon="2.67293">
        <ele>103.4</ele>
        <time>2018-11-18T11:23:58Z</time>
      </trkpt>
      <trkpt lat="48.45846" lon="2.67286">
        <ele>103.8</ele>
        <time>2018-11-18T11:23:59Z</time>
      </trkpt>
      <trkpt lat="48.45844" lon="2.67281">
        <ele>104.1</ele>
        <time>2018-11-18T11:24:00Z</time>
      </trkpt>
      <trkpt lat="48.45841" lon="2.67275">
        <ele>104.5</ele>
        <time>2018-11-18T11:24:01Z</time>
      </trkpt>
      <trkpt lat="48.45839" lon="2.67268">
        <ele>105</ele>
        <time>2018-11-18T11:24:02Z</time>
      </trkpt>
      <trkpt lat="48.45836" lon="2.67262">
        <ele>105.4</ele>
        <time>2018-11-18T11:24:03Z</time>
      </trkpt>
      <trkpt lat="48.45834" lon="2.67256">
        <ele>105.7</ele>
        <time>2018-11-18T11:24:04Z</time>
      </trkpt>
      <trkpt lat="48.45831" lon="2.6725">
        <ele>105.9</ele>
        <time>2018-11-18T11:24:05Z</time>
      </trkpt>
      <trkpt lat="48.45828" lon="2.67244">
        <ele>106.1</ele>
        <time>2018-11-18T11:24:06Z</time>
      </trkpt>
      <trkpt lat="48.45826" lon="2.67238">
        <ele>106.2</ele>
        <time>2018-11-18T11:24:07Z</time>
      </trkpt>
      <trkpt lat="48.45823" lon="2.67233">
        <ele>106.4</ele>
        <time>2018-11-18T11:24:08Z</time>
      </trkpt>
      <trkpt lat="48.4582" lon="2.67228">
        <ele>106.5</ele>
        <time>2018-11-18T11:24:09Z</time>
      </trkpt>
      <trkpt lat="48.45818" lon="2.67223">
        <ele>106.6</ele>
        <time>2018-11-18T11:24:10Z</time>
      </trkpt>
      <trkpt lat="48.45815" lon="2.67217">
        <ele>106.7</ele>
        <time>2018-11-18T11:24:11Z</time>
      </trkpt>
      <trkpt lat="48.45812" lon="2.67212">
        <ele>106.8</ele>
        <time>2018-11-18T11:24:12Z</time>
      </trkpt>
      <trkpt lat="48.4581" lon="2.67206">
        <ele>106.9</ele>
        <time>2018-11-18T11:24:13Z</time>
      </trkpt>
      <trkpt lat="48.45808" lon="2.672">
        <ele>107.1</ele>
        <time>2018-11-18T11:24:14Z</time>
      </trkpt>
      <trkpt lat="48.45805" lon="2.67194">
        <ele>107.2</ele>
        <time>2018-11-18T11:24:15Z</time>
      </trkpt>
      <trkpt lat="48.45802" lon="2.67189">
        <ele>107.2</ele>
        <time>2018-11-18T11:24:16Z</time>
      </trkpt>
      <trkpt lat="48.458" lon="2.67183">
        <ele>107.2</ele>
        <time>2018-11-18T11:24:17Z</time>
      </trkpt>
      <trkpt lat="48.45797" lon="2.67177">
        <ele>107.1</ele>
        <time>2018-11-18T11:24:18Z</time>
      </trkpt>
      <trkpt lat="48.45794" lon="2.67171">
        <ele>106.8</ele>
        <time>2018-11-18T11:24:19Z</time>
      </trkpt>
      <trkpt lat="48.45791" lon="2.67165">
        <ele>106.6</ele>
        <time>2018-11-18T11:24:20Z</time>
      </trkpt>
      <trkpt lat="48.45789" lon="2.67159">
        <ele>106.4</ele>
        <time>2018-11-18T11:24:21Z</time>
      </trkpt>
      <trkpt lat="48.45786" lon="2.67153">
        <ele>106.2</ele>
        <time>2018-11-18T11:24:22Z</time>
      </trkpt>
      <trkpt lat="48.45783" lon="2.67147">
        <ele>106</ele>
        <time>2018-11-18T11:24:23Z</time>
      </trkpt>
      <trkpt lat="48.45781" lon="2.67142">
        <ele>105.9</ele>
        <time>2018-11-18T11:24:24Z</time>
      </trkpt>
      <trkpt lat="48.45778" lon="2.67136">
        <ele>105.8</ele>
        <time>2018-11-18T11:24:25Z</time>
      </trkpt>
      <trkpt lat="48.45776" lon="2.6713">
        <ele>105.8</ele>
        <time>2018-11-18T11:24:26Z</time>
      </trkpt>
      <trkpt lat="48.45774" lon="2.67125">
        <ele>105.9</ele>
        <time>2018-11-18T11:24:27Z</time>
      </trkpt>
      <trkpt lat="48.45771" lon="2.67119">
        <ele>105.9</ele>
        <time>2018-11-18T11:24:28Z</time>
      </trkpt>
      <trkpt lat="48.45768" lon="2.67113">
        <ele>106.1</ele>
        <time>2018-11-18T11:24:29Z</time>
      </trkpt>
      <trkpt lat="48.45766" lon="2.67107">
        <ele>106.5</ele>
        <time>2018-11-18T11:24:30Z</time>
      </trkpt>
      <trkpt lat="48.45763" lon="2.67102">
        <ele>106.9</ele>
        <time>2018-11-18T11:24:31Z</time>
      </trkpt>
      <trkpt lat="48.45761" lon="2.67096">
        <ele>107.2</ele>
        <time>2018-11-18T11:24:32Z</time>
      </trkpt>
      <trkpt lat="48.45758" lon="2.67091">
        <ele>107.6</ele>
        <time>2018-11-18T11:24:33Z</time>
      </trkpt>
      <trkpt lat="48.45756" lon="2.67086">
        <ele>107.8</ele>
        <time>2018-11-18T11:24:34Z</time>
      </trkpt>
      <trkpt lat="48.45753" lon="2.6708">
        <ele>108.1</ele>
        <time>2018-11-18T11:24:35Z</time>
      </trkpt>
      <trkpt lat="48.45751" lon="2.67075">
        <ele>108.2</ele>
        <time>2018-11-18T11:24:36Z</time>
      </trkpt>
      <trkpt lat="48.45748" lon="2.6707">
        <ele>108.3</ele>
        <time>2018-11-18T11:24:37Z</time>
      </trkpt>
      <trkpt lat="48.45745" lon="2.67065">
        <ele>108.3</ele>
        <time>2018-11-18T11:24:38Z</time>
      </trkpt>
      <trkpt lat="48.45743" lon="2.6706">
        <ele>108.3</ele>
        <time>2018-11-18T11:24:39Z</time>
      </trkpt>
      <trkpt lat="48.45741" lon="2.67055">
        <ele>108.3</ele>
        <time>2018-11-18T11:24:40Z</time>
      </trkpt>
      <trkpt lat="48.4574" lon="2.67051">
        <ele>108.4</ele>
        <time>2018-11-18T11:24:41Z</time>
      </trkpt>
      <trkpt lat="48.45738" lon="2.67048">
        <ele>108.4</ele>
        <time>2018-11-18T11:24:42Z</time>
      </trkpt>
      <trkpt lat="48.45737" lon="2.67044">
        <ele>108.4</ele>
        <time>2018-11-18T11:24:43Z</time>
      </trkpt>
      <trkpt lat="48.45736" lon="2.67041">
        <ele>108.3</ele>
        <time>2018-11-18T11:24:44Z</time>
      </trkpt>
      <trkpt lat="48.45735" lon="2.67038">
        <ele>108.3</ele>
        <time>2018-11-18T11:24:45Z</time>
      </trkpt>
      <trkpt lat="48.45734" lon="2.67034">
        <ele>108.2</ele>
        <time>2018-11-18T11:24:46Z</time>
      </trkpt>
      <trkpt lat="48.45733" lon="2.67031">
        <ele>108.2</ele>
        <time>2018-11-18T11:24:47Z</time>
      </trkpt>
      <trkpt lat="48.45732" lon="2.67028">
        <ele>108.2</ele>
        <time>2018-11-18T11:24:48Z</time>
      </trkpt>
      <trkpt lat="48.45732" lon="2.67025">
        <ele>108.1</ele>
        <time>2018-11-18T11:24:49Z</time>
      </trkpt>
      <trkpt lat="48.45732" lon="2.67021">
        <ele>108</ele>
        <time>2018-11-18T11:24:50Z</time>
      </trkpt>
      <trkpt lat="48.45732" lon="2.67016">
        <ele>107.8</ele>
        <time>2018-11-18T11:24:51Z</time>
      </trkpt>
      <trkpt lat="48.45731" lon="2.67011">
        <ele>107.3</ele>
        <time>2018-11-18T11:24:52Z</time>
      </trkpt>
      <trkpt lat="48.45731" lon="2.67006">
        <ele>107.4</ele>
        <time>2018-11-18T11:24:53Z</time>
      </trkpt>
      <trkpt lat="48.4573" lon="2.67001">
        <ele>107.5</ele>
        <time>2018-11-18T11:24:54Z</time>
      </trkpt>
      <trkpt lat="48.4573" lon="2.66996">
        <ele>107.6</ele>
        <time>2018-11-18T11:24:55Z</time>
      </trkpt>
      <trkpt lat="48.45731" lon="2.66991">
        <ele>107.7</ele>
        <time>2018-11-18T11:24:56Z</time>
      </trkpt>
      <trkpt lat="48.45732" lon="2.66986">
        <ele>107.8</ele>
        <time>2018-11-18T11:24:57Z</time>
      </trkpt>
      <trkpt lat="48.45733" lon="2.66982">
        <ele>107.9</ele>
        <time>2018-11-18T11:24:58Z</time>
      </trkpt>
      <trkpt lat="48.45735" lon="2.66978">
        <ele>107.9</ele>
        <time>2018-11-18T11:24:59Z</time>
      </trkpt>
      <trkpt lat="48.45736" lon="2.66974">
        <ele>108</ele>
        <time>2018-11-18T11:25:00Z</time>
      </trkpt>
      <trkpt lat="48.45738" lon="2.6697">
        <ele>108</ele>
        <time>2018-11-18T11:25:01Z</time>
      </trkpt>
      <trkpt lat="48.45739" lon="2.66965">
        <ele>108.1</ele>
        <time>2018-11-18T11:25:02Z</time>
      </trkpt>
      <trkpt lat="48.4574" lon="2.6696">
        <ele>108.1</ele>
        <time>2018-11-18T11:25:03Z</time>
      </trkpt>
      <trkpt lat="48.45741" lon="2.66956">
        <ele>108.2</ele>
        <time>2018-11-18T11:25:04Z</time>
      </trkpt>
      <trkpt lat="48.45743" lon="2.66951">
        <ele>108.2</ele>
        <time>2018-11-18T11:25:05Z</time>
      </trkpt>
      <trkpt lat="48.45744" lon="2.66946">
        <ele>108.3</ele>
        <time>2018-11-18T11:25:06Z</time>
      </trkpt>
      <trkpt lat="48.45746" lon="2.66941">
        <ele>108.4</ele>
        <time>2018-11-18T11:25:07Z</time>
      </trkpt>
      <trkpt lat="48.45747" lon="2.66937">
        <ele>108.5</ele>
        <time>2018-11-18T11:25:08Z</time>
      </trkpt>
      <trkpt lat="48.45749" lon="2.66933">
        <ele>108.6</ele>
        <time>2018-11-18T11:25:09Z</time>
      </trkpt>
      <trkpt lat="48.4575" lon="2.66928">
        <ele>108.7</ele>
        <time>2018-11-18T11:25:10Z</time>
      </trkpt>
      <trkpt lat="48.45751" lon="2.66924">
        <ele>108.8</ele>
        <time>2018-11-18T11:25:11Z</time>
      </trkpt>
      <trkpt lat="48.45752" lon="2.6692">
        <ele>108.9</ele>
        <time>2018-11-18T11:25:12Z</time>
      </trkpt>
      <trkpt lat="48.45754" lon="2.66915">
        <ele>109</ele>
        <time>2018-11-18T11:25:13Z</time>
      </trkpt>
      <trkpt lat="48.45756" lon="2.6691">
        <ele>109.1</ele>
        <time>2018-11-18T11:25:14Z</time>
      </trkpt>
      <trkpt lat="48.45757" lon="2.66905">
        <ele>109.1</ele>
        <time>2018-11-18T11:25:15Z</time>
      </trkpt>
      <trkpt lat="48.45759" lon="2.66901">
        <ele>109.2</ele>
        <time>2018-11-18T11:25:16Z</time>
      </trkpt>
      <trkpt lat="48.4576" lon="2.66895">
        <ele>109.3</ele>
        <time>2018-11-18T11:25:17Z</time>
      </trkpt>
      <trkpt lat="48.45762" lon="2.66891">
        <ele>109.3</ele>
        <time>2018-11-18T11:25:18Z</time>
      </trkpt>
      <trkpt lat="48.45763" lon="2.66886">
        <ele>109.3</ele>
        <time>2018-11-18T11:25:19Z</time>
      </trkpt>
      <trkpt lat="48.45765" lon="2.66881">
        <ele>109.4</ele>
        <time>2018-11-18T11:25:20Z</time>
      </trkpt>
      <trkpt lat="48.45767" lon="2.66875">
        <ele>109.4</ele>
        <time>2018-11-18T11:25:21Z</time>
      </trkpt>
      <trkpt lat="48.45769" lon="2.6687">
        <ele>109.4</ele>
        <time>2018-11-18T11:25:22Z</time>
      </trkpt>
      <trkpt lat="48.45771" lon="2.66865">
        <ele>109.5</ele>
        <time>2018-11-18T11:25:23Z</time>
      </trkpt>
      <trkpt lat="48.45772" lon="2.66859">
        <ele>109.5</ele>
        <time>2018-11-18T11:25:24Z</time>
      </trkpt>
      <trkpt lat="48.45774" lon="2.66854">
        <ele>109.5</ele>
        <time>2018-11-18T11:25:25Z</time>
      </trkpt>
      <trkpt lat="48.45775" lon="2.66849">
        <ele>109.6</ele>
        <time>2018-11-18T11:25:26Z</time>
      </trkpt>
      <trkpt lat="48.45777" lon="2.66844">
        <ele>109.6</ele>
        <time>2018-11-18T11:25:27Z</time>
      </trkpt>
      <trkpt lat="48.45779" lon="2.6684">
        <ele>109.7</ele>
        <time>2018-11-18T11:25:28Z</time>
      </trkpt>
      <trkpt lat="48.45781" lon="2.66836">
        <ele>109.8</ele>
        <time>2018-11-18T11:25:29Z</time>
      </trkpt>
      <trkpt lat="48.45784" lon="2.66834">
        <ele>109.9</ele>
        <time>2018-11-18T11:25:30Z</time>
      </trkpt>
      <trkpt lat="48.45786" lon="2.66831">
        <ele>110</ele>
        <time>2018-11-18T11:25:31Z</time>
      </trkpt>
      <trkpt lat="48.4579" lon="2.66829">
        <ele>110.2</ele>
        <time>2018-11-18T11:25:32Z</time>
      </trkpt>
      <trkpt lat="48.45794" lon="2.66827">
        <ele>110.5</ele>
        <time>2018-11-18T11:25:33Z</time>
      </trkpt>
      <trkpt lat="48.45798" lon="2.66824">
        <ele>111.7</ele>
        <time>2018-11-18T11:25:34Z</time>
      </trkpt>
      <trkpt lat="48.45803" lon="2.66822">
        <ele>111.7</ele>
        <time>2018-11-18T11:25:35Z</time>
      </trkpt>
      <trkpt lat="48.45807" lon="2.6682">
        <ele>111.6</ele>
        <time>2018-11-18T11:25:36Z</time>
      </trkpt>
      <trkpt lat="48.4581" lon="2.66818">
        <ele>111.6</ele>
        <time>2018-11-18T11:25:37Z</time>
      </trkpt>
      <trkpt lat="48.45814" lon="2.66815">
        <ele>111.5</ele>
        <time>2018-11-18T11:25:38Z</time>
      </trkpt>
      <trkpt lat="48.45818" lon="2.66812">
        <ele>111.4</ele>
        <time>2018-11-18T11:25:39Z</time>
      </trkpt>
      <trkpt lat="48.45822" lon="2.66808">
        <ele>111.3</ele>
        <time>2018-11-18T11:25:40Z</time>
      </trkpt>
      <trkpt lat="48.45827" lon="2.66805">
        <ele>111.3</ele>
        <time>2018-11-18T11:25:41Z</time>
      </trkpt>
      <trkpt lat="48.45832" lon="2.66801">
        <ele>111.2</ele>
        <time>2018-11-18T11:25:42Z</time>
      </trkpt>
      <trkpt lat="48.45838" lon="2.66798">
        <ele>111</ele>
        <time>2018-11-18T11:25:43Z</time>
      </trkpt>
      <trkpt lat="48.45844" lon="2.66795">
        <ele>110.8</ele>
        <time>2018-11-18T11:25:44Z</time>
      </trkpt>
      <trkpt lat="48.4585" lon="2.66792">
        <ele>110.6</ele>
        <time>2018-11-18T11:25:45Z</time>
      </trkpt>
      <trkpt lat="48.45857" lon="2.66788">
        <ele>110.5</ele>
        <time>2018-11-18T11:25:46Z</time>
      </trkpt>
      <trkpt lat="48.45864" lon="2.66782">
        <ele>110.3</ele>
        <time>2018-11-18T11:25:47Z</time>
      </trkpt>
      <trkpt lat="48.45871" lon="2.66776">
        <ele>110.1</ele>
        <time>2018-11-18T11:25:48Z</time>
      </trkpt>
      <trkpt lat="48.45877" lon="2.6677">
        <ele>109.9</ele>
        <time>2018-11-18T11:25:49Z</time>
      </trkpt>
      <trkpt lat="48.45884" lon="2.66764">
        <ele>109.6</ele>
        <time>2018-11-18T11:25:50Z</time>
      </trkpt>
      <trkpt lat="48.4589" lon="2.66758">
        <ele>109.4</ele>
        <time>2018-11-18T11:25:51Z</time>
      </trkpt>
      <trkpt lat="48.45897" lon="2.66752">
        <ele>109.2</ele>
        <time>2018-11-18T11:25:52Z</time>
      </trkpt>
      <trkpt lat="48.45904" lon="2.66747">
        <ele>108.8</ele>
        <time>2018-11-18T11:25:53Z</time>
      </trkpt>
      <trkpt lat="48.4591" lon="2.66741">
        <ele>108.4</ele>
        <time>2018-11-18T11:25:54Z</time>
      </trkpt>
      <trkpt lat="48.45917" lon="2.66736">
        <ele>107.9</ele>
        <time>2018-11-18T11:25:55Z</time>
      </trkpt>
      <trkpt lat="48.45921" lon="2.66688">
        <ele>93.9296875</ele>
      </trkpt>
      <trkpt lat="48.45932" lon="2.66482">
        <ele>91.359375</ele>
      </trkpt>
      <trkpt lat="48.45983" lon="2.66427">
        <ele>90.5234375</ele>
      </trkpt>
      <trkpt lat="48.46034" lon="2.66447">
        <ele>96.58984375</ele>
      </trkpt>
      <trkpt lat="48.46064" lon="2.66497">
        <ele>92.015625</ele>
      </trkpt>
      <trkpt lat="48.46128" lon="2.66474">
        <ele>90.18359375</ele>
      </trkpt>
      <trkpt lat="48.46225" lon="2.6656">
        <ele>86.00390625</ele>
      </trkpt>
      <trkpt lat="48.46239" lon="2.66595">
        <ele>85</ele>
      </trkpt>
      <trkpt lat="48.46287" lon="2.66568">
        <ele>85</ele>
      </trkpt>
    </trkseg>
  </trk>
</gpx>